<?xml version='1.0' encoding='UTF-8'?><gpx version="1.1" creator="JPX - https://github.com/jenetics/jpx" xmlns="http://www.topografix.com/GPX/1/1"><trk><trkseg><trkpt lat="45.5711236" lon="11.3840917"><ele>131.0</ele><time>2026-05-02T08:06:32.537Z</time></trkpt><trkpt lat="45.5711641" lon="11.3839843"><ele>131.0</ele><time>2026-05-02T08:06:35.537Z</time></trkpt><trkpt lat="45.571228" lon="11.3839178"><ele>131.0</ele><time>2026-05-02T08:06:38.538Z</time></trkpt><trkpt lat="45.5713324" lon="11.3838488"><ele>131.0</ele><time>2026-05-02T08:06:41.538Z</time></trkpt><trkpt lat="45.571405" lon="11.3838324"><ele>131.0</ele><time>2026-05-02T08:06:42.537Z</time></trkpt><trkpt lat="45.5714963" lon="11.3838264"><ele>131.0</ele><time>2026-05-02T08:06:43.537Z</time></trkpt><trkpt lat="45.5716095" lon="11.383816"><ele>131.75</ele><time>2026-05-02T08:06:44.537Z</time></trkpt><trkpt lat="45.5717388" lon="11.3838018"><ele>132.5</ele><time>2026-05-02T08:06:45.538Z</time></trkpt><trkpt lat="45.5718751" lon="11.3837839"><ele>133.25</ele><time>2026-05-02T08:06:46.538Z</time></trkpt><trkpt lat="45.5720318" lon="11.3837637"><ele>134.0</ele><time>2026-05-02T08:06:47.537Z</time></trkpt><trkpt lat="45.5721994" lon="11.383745"><ele>134.0</ele><time>2026-05-02T08:06:48.537Z</time></trkpt><trkpt lat="45.5723802" lon="11.3837223"><ele>134.0</ele><time>2026-05-02T08:06:49.537Z</time></trkpt><trkpt lat="45.5725687" lon="11.3836991"><ele>134.0</ele><time>2026-05-02T08:06:50.538Z</time></trkpt><trkpt lat="45.5727641" lon="11.3836764"><ele>134.66666666666666</ele><time>2026-05-02T08:06:51.538Z</time></trkpt><trkpt lat="45.5729637" lon="11.3836526"><ele>135.33333333333334</ele><time>2026-05-02T08:06:52.538Z</time></trkpt><trkpt lat="45.5731667" lon="11.3836294"><ele>136.0</ele><time>2026-05-02T08:06:53.537Z</time></trkpt><trkpt lat="45.5733706" lon="11.3836056"><ele>136.0</ele><time>2026-05-02T08:06:54.537Z</time></trkpt><trkpt lat="45.5735788" lon="11.383582"><ele>136.0</ele><time>2026-05-02T08:06:55.538Z</time></trkpt><trkpt lat="45.5737899" lon="11.3835602"><ele>136.0</ele><time>2026-05-02T08:06:56.537Z</time></trkpt><trkpt lat="45.5740011" lon="11.3835384"><ele>136.0</ele><time>2026-05-02T08:06:57.538Z</time></trkpt><trkpt lat="45.5742116" lon="11.3835158"><ele>136.0</ele><time>2026-05-02T08:06:58.538Z</time></trkpt><trkpt lat="45.5744198" lon="11.383492"><ele>136.0</ele><time>2026-05-02T08:06:59.538Z</time></trkpt><trkpt lat="45.5746259" lon="11.3834682"><ele>136.0</ele><time>2026-05-02T08:07:00.537Z</time></trkpt><trkpt lat="45.5748304" lon="11.3834468"><ele>136.0</ele><time>2026-05-02T08:07:01.537Z</time></trkpt><trkpt lat="45.5750341" lon="11.3834255"><ele>136.0</ele><time>2026-05-02T08:07:02.537Z</time></trkpt><trkpt lat="45.5752359" lon="11.3834037"><ele>136.33333333333334</ele><time>2026-05-02T08:07:03.538Z</time></trkpt><trkpt lat="45.5754364" lon="11.3833803"><ele>136.66666666666666</ele><time>2026-05-02T08:07:04.536Z</time></trkpt><trkpt lat="45.5756364" lon="11.3833584"><ele>137.0</ele><time>2026-05-02T08:07:05.536Z</time></trkpt><trkpt lat="45.5758364" lon="11.3833385"><ele>137.0</ele><time>2026-05-02T08:07:06.537Z</time></trkpt><trkpt lat="45.5760336" lon="11.3833159"><ele>137.0</ele><time>2026-05-02T08:07:07.537Z</time></trkpt><trkpt lat="45.576229" lon="11.3832943"><ele>137.0</ele><time>2026-05-02T08:07:08.538Z</time></trkpt><trkpt lat="45.576423" lon="11.3832732"><ele>137.0</ele><time>2026-05-02T08:07:09.538Z</time></trkpt><trkpt lat="45.5766166" lon="11.3832513"><ele>137.0</ele><time>2026-05-02T08:07:10.538Z</time></trkpt><trkpt lat="45.5768064" lon="11.3832298"><ele>137.0</ele><time>2026-05-02T08:07:11.538Z</time></trkpt><trkpt lat="45.5769951" lon="11.3832084"><ele>137.66666666666666</ele><time>2026-05-02T08:07:12.538Z</time></trkpt><trkpt lat="45.5771787" lon="11.3831888"><ele>138.33333333333334</ele><time>2026-05-02T08:07:13.538Z</time></trkpt><trkpt lat="45.5773548" lon="11.383169"><ele>139.0</ele><time>2026-05-02T08:07:14.537Z</time></trkpt><trkpt lat="45.5775226" lon="11.383145"><ele>139.0</ele><time>2026-05-02T08:07:15.536Z</time></trkpt><trkpt lat="45.5776794" lon="11.3831172"><ele>139.0</ele><time>2026-05-02T08:07:16.537Z</time></trkpt><trkpt lat="45.5778269" lon="11.3830864"><ele>139.0</ele><time>2026-05-02T08:07:17.536Z</time></trkpt><trkpt lat="45.5779636" lon="11.3830489"><ele>139.0</ele><time>2026-05-02T08:07:18.537Z</time></trkpt><trkpt lat="45.5780895" lon="11.3830103"><ele>139.5</ele><time>2026-05-02T08:07:19.538Z</time></trkpt><trkpt lat="45.5782112" lon="11.3829656"><ele>140.0</ele><time>2026-05-02T08:07:20.538Z</time></trkpt><trkpt lat="45.5783285" lon="11.3829243"><ele>140.5</ele><time>2026-05-02T08:07:21.537Z</time></trkpt><trkpt lat="45.5784444" lon="11.3828814"><ele>141.0</ele><time>2026-05-02T08:07:22.537Z</time></trkpt><trkpt lat="45.5785613" lon="11.382839"><ele>141.0</ele><time>2026-05-02T08:07:23.537Z</time></trkpt><trkpt lat="45.578675" lon="11.382796"><ele>141.0</ele><time>2026-05-02T08:07:24.538Z</time></trkpt><trkpt lat="45.5787872" lon="11.3827559"><ele>141.0</ele><time>2026-05-02T08:07:25.537Z</time></trkpt><trkpt lat="45.5788983" lon="11.3827133"><ele>141.0</ele><time>2026-05-02T08:07:26.538Z</time></trkpt><trkpt lat="45.5790095" lon="11.382671"><ele>141.5</ele><time>2026-05-02T08:07:27.537Z</time></trkpt><trkpt lat="45.5791218" lon="11.3826316"><ele>142.0</ele><time>2026-05-02T08:07:28.537Z</time></trkpt><trkpt lat="45.5792379" lon="11.3825886"><ele>142.5</ele><time>2026-05-02T08:07:29.538Z</time></trkpt><trkpt lat="45.5793555" lon="11.382544"><ele>143.0</ele><time>2026-05-02T08:07:30.537Z</time></trkpt><trkpt lat="45.5794745" lon="11.3824934"><ele>143.25</ele><time>2026-05-02T08:07:31.537Z</time></trkpt><trkpt lat="45.5795975" lon="11.3824424"><ele>143.5</ele><time>2026-05-02T08:07:32.538Z</time></trkpt><trkpt lat="45.5797196" lon="11.3823912"><ele>143.75</ele><time>2026-05-02T08:07:33.538Z</time></trkpt><trkpt lat="45.5798435" lon="11.3823432"><ele>144.0</ele><time>2026-05-02T08:07:34.536Z</time></trkpt><trkpt lat="45.5799662" lon="11.3822933"><ele>144.0</ele><time>2026-05-02T08:07:35.537Z</time></trkpt><trkpt lat="45.5800884" lon="11.3822465"><ele>144.0</ele><time>2026-05-02T08:07:36.537Z</time></trkpt><trkpt lat="45.5802098" lon="11.3822046"><ele>144.0</ele><time>2026-05-02T08:07:37.538Z</time></trkpt><trkpt lat="45.5803321" lon="11.3821714"><ele>144.0</ele><time>2026-05-02T08:07:38.536Z</time></trkpt><trkpt lat="45.5804409" lon="11.3821406"><ele>144.2</ele><time>2026-05-02T08:07:39.537Z</time></trkpt><trkpt lat="45.5805442" lon="11.3821044"><ele>144.4</ele><time>2026-05-02T08:07:40.538Z</time></trkpt><trkpt lat="45.5806354" lon="11.3820749"><ele>144.6</ele><time>2026-05-02T08:07:41.537Z</time></trkpt><trkpt lat="45.5807218" lon="11.3820727"><ele>144.8</ele><time>2026-05-02T08:07:42.536Z</time></trkpt><trkpt lat="45.5808023" lon="11.3821079"><ele>145.0</ele><time>2026-05-02T08:07:43.538Z</time></trkpt><trkpt lat="45.5808657" lon="11.3821842"><ele>145.0</ele><time>2026-05-02T08:07:44.537Z</time></trkpt><trkpt lat="45.5808986" lon="11.3822698"><ele>145.0</ele><time>2026-05-02T08:07:45.537Z</time></trkpt><trkpt lat="45.5809174" lon="11.382358"><ele>145.0</ele><time>2026-05-02T08:07:46.537Z</time></trkpt><trkpt lat="45.5809323" lon="11.3824537"><ele>145.0</ele><time>2026-05-02T08:07:47.537Z</time></trkpt><trkpt lat="45.5809556" lon="11.3825764"><ele>145.0</ele><time>2026-05-02T08:07:48.537Z</time></trkpt><trkpt lat="45.5809833" lon="11.3827203"><ele>145.0</ele><time>2026-05-02T08:07:49.537Z</time></trkpt><trkpt lat="45.5810176" lon="11.3828852"><ele>145.0</ele><time>2026-05-02T08:07:50.537Z</time></trkpt><trkpt lat="45.5810503" lon="11.3830675"><ele>145.0</ele><time>2026-05-02T08:07:51.536Z</time></trkpt><trkpt lat="45.5810877" lon="11.3832649"><ele>145.0</ele><time>2026-05-02T08:07:52.537Z</time></trkpt><trkpt lat="45.5811242" lon="11.3834741"><ele>145.0</ele><time>2026-05-02T08:07:53.538Z</time></trkpt><trkpt lat="45.5811615" lon="11.3836957"><ele>144.33333333333334</ele><time>2026-05-02T08:07:54.538Z</time></trkpt><trkpt lat="45.5812002" lon="11.3839239"><ele>143.66666666666666</ele><time>2026-05-02T08:07:55.537Z</time></trkpt><trkpt lat="45.5812431" lon="11.3841584"><ele>143.0</ele><time>2026-05-02T08:07:56.537Z</time></trkpt><trkpt lat="45.5812843" lon="11.3843941"><ele>143.0</ele><time>2026-05-02T08:07:57.537Z</time></trkpt><trkpt lat="45.5813248" lon="11.384627"><ele>143.0</ele><time>2026-05-02T08:07:58.537Z</time></trkpt><trkpt lat="45.581366" lon="11.3848514"><ele>143.0</ele><time>2026-05-02T08:07:59.537Z</time></trkpt><trkpt lat="45.5814055" lon="11.3850672"><ele>143.0</ele><time>2026-05-02T08:08:00.537Z</time></trkpt><trkpt lat="45.5814458" lon="11.3852766"><ele>143.0</ele><time>2026-05-02T08:08:01.537Z</time></trkpt><trkpt lat="45.5814792" lon="11.3854875"><ele>143.0</ele><time>2026-05-02T08:08:02.537Z</time></trkpt><trkpt lat="45.5815127" lon="11.3856975"><ele>143.0</ele><time>2026-05-02T08:08:03.537Z</time></trkpt><trkpt lat="45.5815451" lon="11.3859009"><ele>143.0</ele><time>2026-05-02T08:08:04.537Z</time></trkpt><trkpt lat="45.5815772" lon="11.3860905"><ele>143.0</ele><time>2026-05-02T08:08:05.538Z</time></trkpt><trkpt lat="45.5816072" lon="11.3862698"><ele>143.0</ele><time>2026-05-02T08:08:06.537Z</time></trkpt><trkpt lat="45.5816334" lon="11.3864398"><ele>142.8</ele><time>2026-05-02T08:08:07.537Z</time></trkpt><trkpt lat="45.5816617" lon="11.3865919"><ele>142.60000000000002</ele><time>2026-05-02T08:08:08.537Z</time></trkpt><trkpt lat="45.5816932" lon="11.386731"><ele>142.39999999999998</ele><time>2026-05-02T08:08:09.537Z</time></trkpt><trkpt lat="45.5817339" lon="11.3868523"><ele>142.2</ele><time>2026-05-02T08:08:10.537Z</time></trkpt><trkpt lat="45.5817787" lon="11.386968"><ele>142.0</ele><time>2026-05-02T08:08:11.536Z</time></trkpt><trkpt lat="45.5818175" lon="11.3870949"><ele>142.0</ele><time>2026-05-02T08:08:12.538Z</time></trkpt><trkpt lat="45.5818481" lon="11.3872372"><ele>142.0</ele><time>2026-05-02T08:08:13.536Z</time></trkpt><trkpt lat="45.581871" lon="11.3873893"><ele>142.0</ele><time>2026-05-02T08:08:14.537Z</time></trkpt><trkpt lat="45.5818733" lon="11.3875511"><ele>142.0</ele><time>2026-05-02T08:08:15.537Z</time></trkpt><trkpt lat="45.5818701" lon="11.3877207"><ele>142.0</ele><time>2026-05-02T08:08:16.538Z</time></trkpt><trkpt lat="45.581891" lon="11.3878977"><ele>141.75</ele><time>2026-05-02T08:08:17.536Z</time></trkpt><trkpt lat="45.5819191" lon="11.3880792"><ele>141.5</ele><time>2026-05-02T08:08:18.537Z</time></trkpt><trkpt lat="45.5819506" lon="11.3882609"><ele>141.25</ele><time>2026-05-02T08:08:19.537Z</time></trkpt><trkpt lat="45.5819811" lon="11.3884432"><ele>141.0</ele><time>2026-05-02T08:08:20.537Z</time></trkpt><trkpt lat="45.5820109" lon="11.388619"><ele>141.16666666666666</ele><time>2026-05-02T08:08:21.538Z</time></trkpt><trkpt lat="45.5820367" lon="11.3887703"><ele>141.33333333333334</ele><time>2026-05-02T08:08:22.538Z</time></trkpt><trkpt lat="45.5820605" lon="11.3889116"><ele>141.5</ele><time>2026-05-02T08:08:23.537Z</time></trkpt><trkpt lat="45.5820789" lon="11.389028"><ele>141.66666666666669</ele><time>2026-05-02T08:08:24.536Z</time></trkpt><trkpt lat="45.5820919" lon="11.3891212"><ele>141.83333333333334</ele><time>2026-05-02T08:08:25.537Z</time></trkpt><trkpt lat="45.5821059" lon="11.3892308"><ele>142.0</ele><time>2026-05-02T08:08:27.537Z</time></trkpt><trkpt lat="45.5821179" lon="11.3893269"><ele>142.0</ele><time>2026-05-02T08:08:29.537Z</time></trkpt><trkpt lat="45.582128" lon="11.3894214"><ele>142.0</ele><time>2026-05-02T08:08:31.537Z</time></trkpt><trkpt lat="45.5821488" lon="11.389558"><ele>142.0</ele><time>2026-05-02T08:08:33.537Z</time></trkpt><trkpt lat="45.5821675" lon="11.3896515"><ele>142.0</ele><time>2026-05-02T08:08:34.537Z</time></trkpt><trkpt lat="45.5821925" lon="11.3897718"><ele>142.0</ele><time>2026-05-02T08:08:35.538Z</time></trkpt><trkpt lat="45.5822161" lon="11.3899134"><ele>142.0</ele><time>2026-05-02T08:08:36.538Z</time></trkpt><trkpt lat="45.5822428" lon="11.3900708"><ele>141.75</ele><time>2026-05-02T08:08:37.537Z</time></trkpt><trkpt lat="45.5822714" lon="11.3902414"><ele>141.5</ele><time>2026-05-02T08:08:38.537Z</time></trkpt><trkpt lat="45.5823056" lon="11.390423"><ele>141.25</ele><time>2026-05-02T08:08:39.538Z</time></trkpt><trkpt lat="45.5823389" lon="11.3906168"><ele>141.0</ele><time>2026-05-02T08:08:40.537Z</time></trkpt><trkpt lat="45.5823751" lon="11.3908194"><ele>140.66666666666666</ele><time>2026-05-02T08:08:41.538Z</time></trkpt><trkpt lat="45.5824133" lon="11.3910293"><ele>140.33333333333331</ele><time>2026-05-02T08:08:42.537Z</time></trkpt><trkpt lat="45.5824524" lon="11.3912467"><ele>140.0</ele><time>2026-05-02T08:08:43.538Z</time></trkpt><trkpt lat="45.5824928" lon="11.3914683"><ele>139.66666666666666</ele><time>2026-05-02T08:08:44.537Z</time></trkpt><trkpt lat="45.5825322" lon="11.3916936"><ele>139.33333333333334</ele><time>2026-05-02T08:08:45.537Z</time></trkpt><trkpt lat="45.5825749" lon="11.3919225"><ele>139.0</ele><time>2026-05-02T08:08:46.537Z</time></trkpt><trkpt lat="45.5826181" lon="11.392155"><ele>139.0</ele><time>2026-05-02T08:08:47.537Z</time></trkpt><trkpt lat="45.5826603" lon="11.3923909"><ele>139.0</ele><time>2026-05-02T08:08:48.537Z</time></trkpt><trkpt lat="45.5826997" lon="11.3926276"><ele>139.0</ele><time>2026-05-02T08:08:49.537Z</time></trkpt><trkpt lat="45.5827379" lon="11.3928539"><ele>139.25</ele><time>2026-05-02T08:08:50.537Z</time></trkpt><trkpt lat="45.5827737" lon="11.3930661"><ele>139.5</ele><time>2026-05-02T08:08:51.537Z</time></trkpt><trkpt lat="45.5828123" lon="11.3932654"><ele>139.75</ele><time>2026-05-02T08:08:52.538Z</time></trkpt><trkpt lat="45.5828437" lon="11.3934537"><ele>140.0</ele><time>2026-05-02T08:08:53.537Z</time></trkpt><trkpt lat="45.5828768" lon="11.39363"><ele>140.0</ele><time>2026-05-02T08:08:54.537Z</time></trkpt><trkpt lat="45.5829059" lon="11.3937969"><ele>140.0</ele><time>2026-05-02T08:08:55.537Z</time></trkpt><trkpt lat="45.5829342" lon="11.3939556"><ele>140.0</ele><time>2026-05-02T08:08:56.538Z</time></trkpt><trkpt lat="45.5829618" lon="11.3941107"><ele>140.0</ele><time>2026-05-02T08:08:57.537Z</time></trkpt><trkpt lat="45.5829863" lon="11.3942567"><ele>139.83333333333331</ele><time>2026-05-02T08:08:58.536Z</time></trkpt><trkpt lat="45.5830077" lon="11.3943748"><ele>139.66666666666666</ele><time>2026-05-02T08:08:59.538Z</time></trkpt><trkpt lat="45.5830288" lon="11.3944833"><ele>139.5</ele><time>2026-05-02T08:09:00.536Z</time></trkpt><trkpt lat="45.5830413" lon="11.3945907"><ele>139.33333333333334</ele><time>2026-05-02T08:09:01.538Z</time></trkpt><trkpt lat="45.5830499" lon="11.3947067"><ele>139.16666666666669</ele><time>2026-05-02T08:09:02.536Z</time></trkpt><trkpt lat="45.583076" lon="11.3948202"><ele>139.0</ele><time>2026-05-02T08:09:03.538Z</time></trkpt><trkpt lat="45.583105" lon="11.3949388"><ele>139.0</ele><time>2026-05-02T08:09:04.537Z</time></trkpt><trkpt lat="45.5831322" lon="11.3950696"><ele>139.0</ele><time>2026-05-02T08:09:05.538Z</time></trkpt><trkpt lat="45.5831629" lon="11.3952074"><ele>139.0</ele><time>2026-05-02T08:09:06.537Z</time></trkpt><trkpt lat="45.5831995" lon="11.3953544"><ele>139.0</ele><time>2026-05-02T08:09:07.537Z</time></trkpt><trkpt lat="45.5832406" lon="11.3955113"><ele>139.0</ele><time>2026-05-02T08:09:08.537Z</time></trkpt><trkpt lat="45.58329" lon="11.3956789"><ele>139.0</ele><time>2026-05-02T08:09:09.536Z</time></trkpt><trkpt lat="45.5833497" lon="11.3958522"><ele>139.0</ele><time>2026-05-02T08:09:10.537Z</time></trkpt><trkpt lat="45.5834201" lon="11.3960258"><ele>139.0</ele><time>2026-05-02T08:09:11.537Z</time></trkpt><trkpt lat="45.5835005" lon="11.3961997"><ele>139.0</ele><time>2026-05-02T08:09:12.537Z</time></trkpt><trkpt lat="45.5835871" lon="11.396376"><ele>140.0</ele><time>2026-05-02T08:09:13.538Z</time></trkpt><trkpt lat="45.5836776" lon="11.3965524"><ele>141.0</ele><time>2026-05-02T08:09:14.538Z</time></trkpt><trkpt lat="45.583772" lon="11.3967285"><ele>142.0</ele><time>2026-05-02T08:09:15.537Z</time></trkpt><trkpt lat="45.5838661" lon="11.3969052"><ele>142.0</ele><time>2026-05-02T08:09:16.538Z</time></trkpt><trkpt lat="45.5839604" lon="11.397084"><ele>142.0</ele><time>2026-05-02T08:09:17.537Z</time></trkpt><trkpt lat="45.5840542" lon="11.3972618"><ele>142.0</ele><time>2026-05-02T08:09:18.538Z</time></trkpt><trkpt lat="45.5841457" lon="11.3974368"><ele>142.25</ele><time>2026-05-02T08:09:19.537Z</time></trkpt><trkpt lat="45.5842356" lon="11.397611"><ele>142.5</ele><time>2026-05-02T08:09:20.537Z</time></trkpt><trkpt lat="45.5843261" lon="11.3977806"><ele>142.75</ele><time>2026-05-02T08:09:21.538Z</time></trkpt><trkpt lat="45.5844162" lon="11.397946"><ele>143.0</ele><time>2026-05-02T08:09:22.537Z</time></trkpt><trkpt lat="45.5844922" lon="11.3980837"><ele>144.20000000000002</ele><time>2026-05-02T08:09:23.538Z</time></trkpt><trkpt lat="45.5845521" lon="11.3982"><ele>145.4</ele><time>2026-05-02T08:09:24.538Z</time></trkpt><trkpt lat="45.5846084" lon="11.3983104"><ele>146.60000000000002</ele><time>2026-05-02T08:09:25.537Z</time></trkpt><trkpt lat="45.584659" lon="11.3984095"><ele>147.8</ele><time>2026-05-02T08:09:26.538Z</time></trkpt><trkpt lat="45.5847118" lon="11.3985127"><ele>149.0</ele><time>2026-05-02T08:09:27.537Z</time></trkpt><trkpt lat="45.5847683" lon="11.3986185"><ele>149.0</ele><time>2026-05-02T08:09:28.537Z</time></trkpt><trkpt lat="45.584829" lon="11.3987301"><ele>149.0</ele><time>2026-05-02T08:09:29.536Z</time></trkpt><trkpt lat="45.5848942" lon="11.3988518"><ele>149.0</ele><time>2026-05-02T08:09:30.538Z</time></trkpt><trkpt lat="45.584963" lon="11.3989856"><ele>149.0</ele><time>2026-05-02T08:09:31.537Z</time></trkpt><trkpt lat="45.5850372" lon="11.3991249"><ele>149.0</ele><time>2026-05-02T08:09:32.536Z</time></trkpt><trkpt lat="45.5851195" lon="11.3992735"><ele>149.25</ele><time>2026-05-02T08:09:33.536Z</time></trkpt><trkpt lat="45.5852061" lon="11.3994255"><ele>149.5</ele><time>2026-05-02T08:09:34.537Z</time></trkpt><trkpt lat="45.5852927" lon="11.3995746"><ele>149.75</ele><time>2026-05-02T08:09:35.537Z</time></trkpt><trkpt lat="45.5853754" lon="11.3997212"><ele>150.0</ele><time>2026-05-02T08:09:36.537Z</time></trkpt><trkpt lat="45.585456" lon="11.3998598"><ele>150.6</ele><time>2026-05-02T08:09:37.536Z</time></trkpt><trkpt lat="45.5855304" lon="11.3999879"><ele>151.2</ele><time>2026-05-02T08:09:38.537Z</time></trkpt><trkpt lat="45.5855918" lon="11.4001087"><ele>151.8</ele><time>2026-05-02T08:09:39.537Z</time></trkpt><trkpt lat="45.5856427" lon="11.4002316"><ele>152.4</ele><time>2026-05-02T08:09:40.536Z</time></trkpt><trkpt lat="45.5856814" lon="11.4003656"><ele>153.0</ele><time>2026-05-02T08:09:41.537Z</time></trkpt><trkpt lat="45.5857336" lon="11.400506"><ele>153.0</ele><time>2026-05-02T08:09:42.537Z</time></trkpt><trkpt lat="45.5858062" lon="11.4006414"><ele>153.0</ele><time>2026-05-02T08:09:43.538Z</time></trkpt><trkpt lat="45.5858901" lon="11.4007683"><ele>153.0</ele><time>2026-05-02T08:09:44.536Z</time></trkpt><trkpt lat="45.58597" lon="11.4008969"><ele>153.0</ele><time>2026-05-02T08:09:45.537Z</time></trkpt><trkpt lat="45.5860432" lon="11.4010335"><ele>153.0</ele><time>2026-05-02T08:09:46.538Z</time></trkpt><trkpt lat="45.5861025" lon="11.4011918"><ele>153.0</ele><time>2026-05-02T08:09:47.538Z</time></trkpt><trkpt lat="45.5861486" lon="11.4013652"><ele>153.0</ele><time>2026-05-02T08:09:48.537Z</time></trkpt><trkpt lat="45.5861797" lon="11.4015519"><ele>153.0</ele><time>2026-05-02T08:09:49.537Z</time></trkpt><trkpt lat="45.5861947" lon="11.401743"><ele>154.25</ele><time>2026-05-02T08:09:50.537Z</time></trkpt><trkpt lat="45.586208" lon="11.4019264"><ele>155.5</ele><time>2026-05-02T08:09:51.537Z</time></trkpt><trkpt lat="45.5862302" lon="11.4021042"><ele>156.75</ele><time>2026-05-02T08:09:52.538Z</time></trkpt><trkpt lat="45.5862728" lon="11.4022714"><ele>158.0</ele><time>2026-05-02T08:09:53.537Z</time></trkpt><trkpt lat="45.5863148" lon="11.4024306"><ele>155.20000000000002</ele><time>2026-05-02T08:09:54.537Z</time></trkpt><trkpt lat="45.5863428" lon="11.4025963"><ele>152.4</ele><time>2026-05-02T08:09:55.537Z</time></trkpt><trkpt lat="45.5863394" lon="11.4027628"><ele>149.60000000000002</ele><time>2026-05-02T08:09:56.538Z</time></trkpt><trkpt lat="45.586319" lon="11.4029108"><ele>146.8</ele><time>2026-05-02T08:09:57.537Z</time></trkpt><trkpt lat="45.5862892" lon="11.40305"><ele>144.0</ele><time>2026-05-02T08:09:58.537Z</time></trkpt><trkpt lat="45.5862616" lon="11.4031677"><ele>143.33333333333334</ele><time>2026-05-02T08:09:59.537Z</time></trkpt><trkpt lat="45.5862329" lon="11.4032764"><ele>142.66666666666666</ele><time>2026-05-02T08:10:00.537Z</time></trkpt><trkpt lat="45.5861978" lon="11.403358"><ele>142.0</ele><time>2026-05-02T08:10:01.538Z</time></trkpt><trkpt lat="45.5861498" lon="11.4034181"><ele>141.33333333333331</ele><time>2026-05-02T08:10:02.537Z</time></trkpt><trkpt lat="45.5860336" lon="11.4033956"><ele>140.66666666666666</ele><time>2026-05-02T08:10:04.537Z</time></trkpt><trkpt lat="45.5860002" lon="11.4033125"><ele>140.0</ele><time>2026-05-02T08:10:05.538Z</time></trkpt><trkpt lat="45.5859835" lon="11.4032044"><ele>138.6</ele><time>2026-05-02T08:10:06.536Z</time></trkpt><trkpt lat="45.5859627" lon="11.4030732"><ele>137.2</ele><time>2026-05-02T08:10:07.535Z</time></trkpt><trkpt lat="45.5859388" lon="11.4029251"><ele>135.8</ele><time>2026-05-02T08:10:08.538Z</time></trkpt><trkpt lat="45.5859139" lon="11.4027666"><ele>134.4</ele><time>2026-05-02T08:10:09.538Z</time></trkpt><trkpt lat="45.5858882" lon="11.40263"><ele>133.0</ele><time>2026-05-02T08:10:10.537Z</time></trkpt><trkpt lat="45.5858444" lon="11.402527"><ele>133.0</ele><time>2026-05-02T08:10:11.537Z</time></trkpt><trkpt lat="45.5857783" lon="11.4024588"><ele>133.0</ele><time>2026-05-02T08:10:12.537Z</time></trkpt><trkpt lat="45.5856991" lon="11.402447"><ele>133.0</ele><time>2026-05-02T08:10:13.537Z</time></trkpt><trkpt lat="45.5856342" lon="11.4025034"><ele>133.0</ele><time>2026-05-02T08:10:14.537Z</time></trkpt><trkpt lat="45.5856027" lon="11.402616"><ele>133.0</ele><time>2026-05-02T08:10:15.537Z</time></trkpt><trkpt lat="45.5855944" lon="11.4027497"><ele>133.0</ele><time>2026-05-02T08:10:16.537Z</time></trkpt><trkpt lat="45.5855972" lon="11.4029094"><ele>131.25</ele><time>2026-05-02T08:10:17.538Z</time></trkpt><trkpt lat="45.5855995" lon="11.4030939"><ele>129.5</ele><time>2026-05-02T08:10:18.537Z</time></trkpt><trkpt lat="45.5855991" lon="11.403296"><ele>127.75</ele><time>2026-05-02T08:10:19.538Z</time></trkpt><trkpt lat="45.5856001" lon="11.4035152"><ele>126.0</ele><time>2026-05-02T08:10:20.536Z</time></trkpt><trkpt lat="45.5856038" lon="11.4037515"><ele>124.66666666666666</ele><time>2026-05-02T08:10:21.537Z</time></trkpt><trkpt lat="45.585607" lon="11.4039837"><ele>123.33333333333333</ele><time>2026-05-02T08:10:22.538Z</time></trkpt><trkpt lat="45.5856076" lon="11.4042116"><ele>122.0</ele><time>2026-05-02T08:10:23.537Z</time></trkpt><trkpt lat="45.5856038" lon="11.4044219"><ele>122.0</ele><time>2026-05-02T08:10:24.537Z</time></trkpt><trkpt lat="45.5855915" lon="11.4046085"><ele>121.99999999999999</ele><time>2026-05-02T08:10:25.537Z</time></trkpt><trkpt lat="45.5855658" lon="11.4047711"><ele>121.99999999999999</ele><time>2026-05-02T08:10:26.537Z</time></trkpt><trkpt lat="45.5855413" lon="11.4049159"><ele>122.0</ele><time>2026-05-02T08:10:27.537Z</time></trkpt><trkpt lat="45.5855181" lon="11.4050392"><ele>122.0</ele><time>2026-05-02T08:10:28.537Z</time></trkpt><trkpt lat="45.5854997" lon="11.4051384"><ele>122.99999999999999</ele><time>2026-05-02T08:10:29.538Z</time></trkpt><trkpt lat="45.5854407" lon="11.4052509"><ele>124.0</ele><time>2026-05-02T08:10:31.538Z</time></trkpt><trkpt lat="45.5853619" lon="11.4052039"><ele>125.0</ele><time>2026-05-02T08:10:33.536Z</time></trkpt><trkpt lat="45.585342" lon="11.4051145"><ele>126.0</ele><time>2026-05-02T08:10:34.537Z</time></trkpt><trkpt lat="45.5853466" lon="11.4049973"><ele>126.99999999999999</ele><time>2026-05-02T08:10:35.537Z</time></trkpt><trkpt lat="45.5853541" lon="11.4048739"><ele>128.0</ele><time>2026-05-02T08:10:36.537Z</time></trkpt><trkpt lat="45.5853529" lon="11.4047706"><ele>127.0</ele><time>2026-05-02T08:10:37.537Z</time></trkpt><trkpt lat="45.5853384" lon="11.4046827"><ele>126.00000000000001</ele><time>2026-05-02T08:10:38.538Z</time></trkpt><trkpt lat="45.5852507" lon="11.4046049"><ele>125.00000000000001</ele><time>2026-05-02T08:10:40.537Z</time></trkpt><trkpt lat="45.5851731" lon="11.4047419"><ele>124.0</ele><time>2026-05-02T08:10:42.538Z</time></trkpt><trkpt lat="45.5851601" lon="11.4048762"><ele>123.0</ele><time>2026-05-02T08:10:43.538Z</time></trkpt><trkpt lat="45.5851524" lon="11.4050421"><ele>120.75</ele><time>2026-05-02T08:10:44.537Z</time></trkpt><trkpt lat="45.5851423" lon="11.4052297"><ele>118.5</ele><time>2026-05-02T08:10:45.538Z</time></trkpt><trkpt lat="45.5851271" lon="11.405436"><ele>116.25</ele><time>2026-05-02T08:10:46.536Z</time></trkpt><trkpt lat="45.5851117" lon="11.4056598"><ele>114.0</ele><time>2026-05-02T08:10:47.536Z</time></trkpt><trkpt lat="45.5850963" lon="11.4058883"><ele>111.33333333333334</ele><time>2026-05-02T08:10:48.537Z</time></trkpt><trkpt lat="45.58508" lon="11.4061096"><ele>108.66666666666667</ele><time>2026-05-02T08:10:49.537Z</time></trkpt><trkpt lat="45.5850673" lon="11.4063255"><ele>106.0</ele><time>2026-05-02T08:10:50.537Z</time></trkpt><trkpt lat="45.5850647" lon="11.406544"><ele>104.0</ele><time>2026-05-02T08:10:51.537Z</time></trkpt><trkpt lat="45.5850756" lon="11.4067678"><ele>102.0</ele><time>2026-05-02T08:10:52.537Z</time></trkpt><trkpt lat="45.5850947" lon="11.4069952"><ele>100.0</ele><time>2026-05-02T08:10:53.537Z</time></trkpt><trkpt lat="45.5851098" lon="11.4072174"><ele>97.66666666666667</ele><time>2026-05-02T08:10:54.537Z</time></trkpt><trkpt lat="45.5851044" lon="11.4074399"><ele>95.33333333333334</ele><time>2026-05-02T08:10:55.537Z</time></trkpt><trkpt lat="45.5850826" lon="11.4076585"><ele>93.0</ele><time>2026-05-02T08:10:56.536Z</time></trkpt><trkpt lat="45.5850575" lon="11.407875"><ele>92.25</ele><time>2026-05-02T08:10:57.537Z</time></trkpt><trkpt lat="45.585038" lon="11.408086"><ele>91.5</ele><time>2026-05-02T08:10:58.537Z</time></trkpt><trkpt lat="45.5850306" lon="11.4082955"><ele>90.75</ele><time>2026-05-02T08:10:59.538Z</time></trkpt><trkpt lat="45.5850331" lon="11.4084866"><ele>90.0</ele><time>2026-05-02T08:11:00.537Z</time></trkpt><trkpt lat="45.5850446" lon="11.4086676"><ele>88.75</ele><time>2026-05-02T08:11:01.537Z</time></trkpt><trkpt lat="45.5850552" lon="11.4088435"><ele>87.5</ele><time>2026-05-02T08:11:02.538Z</time></trkpt><trkpt lat="45.5850676" lon="11.4090155"><ele>86.25</ele><time>2026-05-02T08:11:03.537Z</time></trkpt><trkpt lat="45.58508" lon="11.4091806"><ele>85.0</ele><time>2026-05-02T08:11:04.537Z</time></trkpt><trkpt lat="45.5850908" lon="11.4093389"><ele>85.0</ele><time>2026-05-02T08:11:05.537Z</time></trkpt><trkpt lat="45.5851031" lon="11.40949"><ele>85.0</ele><time>2026-05-02T08:11:06.536Z</time></trkpt><trkpt lat="45.5851155" lon="11.4096241"><ele>85.0</ele><time>2026-05-02T08:11:07.537Z</time></trkpt><trkpt lat="45.5851251" lon="11.4097315"><ele>85.0</ele><time>2026-05-02T08:11:08.537Z</time></trkpt><trkpt lat="45.5851358" lon="11.4098676"><ele>85.0</ele><time>2026-05-02T08:11:10.537Z</time></trkpt><trkpt lat="45.5851524" lon="11.4099802"><ele>83.66666666666666</ele><time>2026-05-02T08:11:27.538Z</time></trkpt><trkpt lat="45.58516" lon="11.4101343"><ele>82.33333333333333</ele><time>2026-05-02T08:11:29.538Z</time></trkpt><trkpt lat="45.5851656" lon="11.4102338"><ele>81.0</ele><time>2026-05-02T08:11:30.538Z</time></trkpt><trkpt lat="45.5851714" lon="11.4103387"><ele>79.66666666666667</ele><time>2026-05-02T08:11:31.537Z</time></trkpt><trkpt lat="45.5851808" lon="11.410435"><ele>78.33333333333334</ele><time>2026-05-02T08:11:32.537Z</time></trkpt><trkpt lat="45.5852214" lon="11.4105149"><ele>77.0</ele><time>2026-05-02T08:11:33.537Z</time></trkpt><trkpt lat="45.5852826" lon="11.4105578"><ele>77.4</ele><time>2026-05-02T08:11:34.536Z</time></trkpt><trkpt lat="45.5853688" lon="11.4105669"><ele>77.80000000000001</ele><time>2026-05-02T08:11:35.537Z</time></trkpt><trkpt lat="45.5854684" lon="11.4105512"><ele>78.2</ele><time>2026-05-02T08:11:36.537Z</time></trkpt><trkpt lat="45.585587" lon="11.4105233"><ele>78.60000000000001</ele><time>2026-05-02T08:11:37.537Z</time></trkpt><trkpt lat="45.585718" lon="11.4104923"><ele>79.0</ele><time>2026-05-02T08:11:38.538Z</time></trkpt><trkpt lat="45.5858576" lon="11.4104609"><ele>79.0</ele><time>2026-05-02T08:11:39.536Z</time></trkpt><trkpt lat="45.5860039" lon="11.4104325"><ele>79.0</ele><time>2026-05-02T08:11:40.538Z</time></trkpt><trkpt lat="45.5861546" lon="11.410403"><ele>79.0</ele><time>2026-05-02T08:11:41.536Z</time></trkpt><trkpt lat="45.5863137" lon="11.4103726"><ele>77.66666666666666</ele><time>2026-05-02T08:11:42.537Z</time></trkpt><trkpt lat="45.5864759" lon="11.4103436"><ele>76.33333333333333</ele><time>2026-05-02T08:11:43.537Z</time></trkpt><trkpt lat="45.5866392" lon="11.4103119"><ele>75.0</ele><time>2026-05-02T08:11:44.537Z</time></trkpt><trkpt lat="45.5868054" lon="11.4102688"><ele>75.0</ele><time>2026-05-02T08:11:45.536Z</time></trkpt><trkpt lat="45.5869747" lon="11.4102125"><ele>75.0</ele><time>2026-05-02T08:11:46.538Z</time></trkpt><trkpt lat="45.5871471" lon="11.410148"><ele>75.0</ele><time>2026-05-02T08:11:47.537Z</time></trkpt><trkpt lat="45.5873191" lon="11.4100813"><ele>73.33333333333333</ele><time>2026-05-02T08:11:48.537Z</time></trkpt><trkpt lat="45.5874954" lon="11.4100132"><ele>71.66666666666666</ele><time>2026-05-02T08:11:49.537Z</time></trkpt><trkpt lat="45.5876753" lon="11.4099432"><ele>70.0</ele><time>2026-05-02T08:11:50.537Z</time></trkpt><trkpt lat="45.5878525" lon="11.4098952"><ele>70.0</ele><time>2026-05-02T08:11:51.537Z</time></trkpt><trkpt lat="45.58803" lon="11.4098834"><ele>70.0</ele><time>2026-05-02T08:11:52.537Z</time></trkpt><trkpt lat="45.5882058" lon="11.4098984"><ele>70.0</ele><time>2026-05-02T08:11:53.537Z</time></trkpt><trkpt lat="45.5883773" lon="11.4099394"><ele>70.0</ele><time>2026-05-02T08:11:54.538Z</time></trkpt><trkpt lat="45.5885377" lon="11.4100131"><ele>70.0</ele><time>2026-05-02T08:11:55.537Z</time></trkpt><trkpt lat="45.5887065" lon="11.4100658"><ele>70.0</ele><time>2026-05-02T08:11:56.536Z</time></trkpt><trkpt lat="45.5888798" lon="11.4100899"><ele>70.0</ele><time>2026-05-02T08:11:57.537Z</time></trkpt><trkpt lat="45.5890593" lon="11.4100967"><ele>70.0</ele><time>2026-05-02T08:11:58.536Z</time></trkpt><trkpt lat="45.5892444" lon="11.4100958"><ele>70.0</ele><time>2026-05-02T08:11:59.537Z</time></trkpt><trkpt lat="45.5894329" lon="11.4101055"><ele>71.0</ele><time>2026-05-02T08:12:00.537Z</time></trkpt><trkpt lat="45.5896135" lon="11.4101514"><ele>72.0</ele><time>2026-05-02T08:12:01.537Z</time></trkpt><trkpt lat="45.5897874" lon="11.410227"><ele>73.0</ele><time>2026-05-02T08:12:02.537Z</time></trkpt><trkpt lat="45.589953" lon="11.4103394"><ele>73.0</ele><time>2026-05-02T08:12:03.536Z</time></trkpt><trkpt lat="45.5901197" lon="11.4104661"><ele>73.0</ele><time>2026-05-02T08:12:04.536Z</time></trkpt><trkpt lat="45.5902974" lon="11.4105823"><ele>73.0</ele><time>2026-05-02T08:12:05.537Z</time></trkpt><trkpt lat="45.590482" lon="11.4106836"><ele>73.33333333333333</ele><time>2026-05-02T08:12:06.537Z</time></trkpt><trkpt lat="45.5906689" lon="11.4107785"><ele>73.66666666666667</ele><time>2026-05-02T08:12:07.537Z</time></trkpt><trkpt lat="45.5908587" lon="11.4108709"><ele>74.0</ele><time>2026-05-02T08:12:08.537Z</time></trkpt><trkpt lat="45.5910444" lon="11.4109693"><ele>75.33333333333334</ele><time>2026-05-02T08:12:09.538Z</time></trkpt><trkpt lat="45.5912269" lon="11.4110675"><ele>76.66666666666667</ele><time>2026-05-02T08:12:10.538Z</time></trkpt><trkpt lat="45.5914112" lon="11.4111544"><ele>78.0</ele><time>2026-05-02T08:12:11.538Z</time></trkpt><trkpt lat="45.591598" lon="11.4112272"><ele>78.0</ele><time>2026-05-02T08:12:12.538Z</time></trkpt><trkpt lat="45.5917891" lon="11.4112782"><ele>78.0</ele><time>2026-05-02T08:12:13.538Z</time></trkpt><trkpt lat="45.5919832" lon="11.411306"><ele>78.0</ele><time>2026-05-02T08:12:14.537Z</time></trkpt><trkpt lat="45.5921781" lon="11.4113168"><ele>79.33333333333333</ele><time>2026-05-02T08:12:15.537Z</time></trkpt><trkpt lat="45.592371" lon="11.4113208"><ele>80.66666666666666</ele><time>2026-05-02T08:12:16.537Z</time></trkpt><trkpt lat="45.5925445" lon="11.411325"><ele>82.0</ele><time>2026-05-02T08:12:17.537Z</time></trkpt><trkpt lat="45.5927007" lon="11.4113282"><ele>78.33333333333333</ele><time>2026-05-02T08:12:18.536Z</time></trkpt><trkpt lat="45.5928415" lon="11.4113623"><ele>74.66666666666667</ele><time>2026-05-02T08:12:19.537Z</time></trkpt><trkpt lat="45.5929793" lon="11.4114539"><ele>71.0</ele><time>2026-05-02T08:12:20.537Z</time></trkpt><trkpt lat="45.5931195" lon="11.4115792"><ele>71.0</ele><time>2026-05-02T08:12:21.538Z</time></trkpt><trkpt lat="45.5932806" lon="11.4116843"><ele>71.0</ele><time>2026-05-02T08:12:22.538Z</time></trkpt><trkpt lat="45.5934464" lon="11.4117702"><ele>71.0</ele><time>2026-05-02T08:12:23.538Z</time></trkpt><trkpt lat="45.5935979" lon="11.4118876"><ele>71.0</ele><time>2026-05-02T08:12:24.538Z</time></trkpt><trkpt lat="45.5937246" lon="11.4120499"><ele>71.0</ele><time>2026-05-02T08:12:25.537Z</time></trkpt><trkpt lat="45.593837" lon="11.4122347"><ele>71.0</ele><time>2026-05-02T08:12:26.537Z</time></trkpt><trkpt lat="45.5939466" lon="11.4124276"><ele>71.66666666666667</ele><time>2026-05-02T08:12:27.537Z</time></trkpt><trkpt lat="45.5940557" lon="11.4126287"><ele>72.33333333333333</ele><time>2026-05-02T08:12:28.537Z</time></trkpt><trkpt lat="45.5941634" lon="11.4128366"><ele>73.0</ele><time>2026-05-02T08:12:29.536Z</time></trkpt><trkpt lat="45.5942621" lon="11.413049"><ele>73.25</ele><time>2026-05-02T08:12:30.537Z</time></trkpt><trkpt lat="45.5943507" lon="11.4132245"><ele>73.5</ele><time>2026-05-02T08:12:31.537Z</time></trkpt><trkpt lat="45.5944313" lon="11.4133661"><ele>73.75</ele><time>2026-05-02T08:12:32.537Z</time></trkpt><trkpt lat="45.5945236" lon="11.4134795"><ele>74.0</ele><time>2026-05-02T08:12:33.537Z</time></trkpt><trkpt lat="45.5946302" lon="11.4135458"><ele>74.0</ele><time>2026-05-02T08:12:34.537Z</time></trkpt><trkpt lat="45.5947498" lon="11.4135743"><ele>74.0</ele><time>2026-05-02T08:12:35.537Z</time></trkpt><trkpt lat="45.5948774" lon="11.4135913"><ele>74.0</ele><time>2026-05-02T08:12:36.536Z</time></trkpt><trkpt lat="45.5950106" lon="11.4136027"><ele>74.0</ele><time>2026-05-02T08:12:37.537Z</time></trkpt><trkpt lat="45.5951455" lon="11.4136137"><ele>74.0</ele><time>2026-05-02T08:12:38.537Z</time></trkpt><trkpt lat="45.595279" lon="11.4136302"><ele>74.0</ele><time>2026-05-02T08:12:39.537Z</time></trkpt><trkpt lat="45.5954131" lon="11.4136527"><ele>74.0</ele><time>2026-05-02T08:12:40.537Z</time></trkpt><trkpt lat="45.5955481" lon="11.4137"><ele>74.0</ele><time>2026-05-02T08:12:41.537Z</time></trkpt><trkpt lat="45.5956857" lon="11.4137652"><ele>74.33333333333334</ele><time>2026-05-02T08:12:42.537Z</time></trkpt><trkpt lat="45.5958292" lon="11.4138305"><ele>74.66666666666667</ele><time>2026-05-02T08:12:43.536Z</time></trkpt><trkpt lat="45.595977" lon="11.4138983"><ele>75.0</ele><time>2026-05-02T08:12:44.538Z</time></trkpt><trkpt lat="45.5961269" lon="11.4139693"><ele>76.0</ele><time>2026-05-02T08:12:45.537Z</time></trkpt><trkpt lat="45.5962765" lon="11.4140448"><ele>77.0</ele><time>2026-05-02T08:12:46.537Z</time></trkpt><trkpt lat="45.5964151" lon="11.414153"><ele>78.0</ele><time>2026-05-02T08:12:47.537Z</time></trkpt><trkpt lat="45.5965508" lon="11.4142759"><ele>78.0</ele><time>2026-05-02T08:12:48.537Z</time></trkpt><trkpt lat="45.5966815" lon="11.4144019"><ele>78.0</ele><time>2026-05-02T08:12:49.537Z</time></trkpt><trkpt lat="45.5968224" lon="11.4144972"><ele>78.0</ele><time>2026-05-02T08:12:50.538Z</time></trkpt><trkpt lat="45.5969796" lon="11.4145457"><ele>79.0</ele><time>2026-05-02T08:12:51.538Z</time></trkpt><trkpt lat="45.5971472" lon="11.4145536"><ele>80.0</ele><time>2026-05-02T08:12:52.537Z</time></trkpt><trkpt lat="45.5973217" lon="11.4145569"><ele>81.0</ele><time>2026-05-02T08:12:53.537Z</time></trkpt><trkpt lat="45.5974942" lon="11.4146139"><ele>81.0</ele><time>2026-05-02T08:12:54.537Z</time></trkpt><trkpt lat="45.5976703" lon="11.4146796"><ele>81.0</ele><time>2026-05-02T08:12:55.536Z</time></trkpt><trkpt lat="45.5978515" lon="11.4147181"><ele>81.0</ele><time>2026-05-02T08:12:56.537Z</time></trkpt><trkpt lat="45.5980282" lon="11.4147823"><ele>82.33333333333333</ele><time>2026-05-02T08:12:57.536Z</time></trkpt><trkpt lat="45.5981951" lon="11.4148893"><ele>83.66666666666666</ele><time>2026-05-02T08:12:58.537Z</time></trkpt><trkpt lat="45.598359" lon="11.4149996"><ele>85.0</ele><time>2026-05-02T08:12:59.537Z</time></trkpt><trkpt lat="45.5985355" lon="11.415072"><ele>86.0</ele><time>2026-05-02T08:13:00.537Z</time></trkpt><trkpt lat="45.5987143" lon="11.4151321"><ele>87.0</ele><time>2026-05-02T08:13:01.537Z</time></trkpt><trkpt lat="45.5988933" lon="11.4151757"><ele>88.0</ele><time>2026-05-02T08:13:02.538Z</time></trkpt><trkpt lat="45.599073" lon="11.4152068"><ele>88.0</ele><time>2026-05-02T08:13:03.537Z</time></trkpt><trkpt lat="45.5992526" lon="11.4152297"><ele>88.0</ele><time>2026-05-02T08:13:04.538Z</time></trkpt><trkpt lat="45.5994344" lon="11.4152369"><ele>88.0</ele><time>2026-05-02T08:13:05.537Z</time></trkpt><trkpt lat="45.5996205" lon="11.4152352"><ele>89.33333333333333</ele><time>2026-05-02T08:13:06.538Z</time></trkpt><trkpt lat="45.5998069" lon="11.4152322"><ele>90.66666666666667</ele><time>2026-05-02T08:13:07.537Z</time></trkpt><trkpt lat="45.5999871" lon="11.4152306"><ele>92.0</ele><time>2026-05-02T08:13:08.538Z</time></trkpt><trkpt lat="45.6001649" lon="11.4152093"><ele>92.66666666666667</ele><time>2026-05-02T08:13:09.538Z</time></trkpt><trkpt lat="45.600334" lon="11.4151522"><ele>93.33333333333333</ele><time>2026-05-02T08:13:10.538Z</time></trkpt><trkpt lat="45.6004938" lon="11.4150876"><ele>94.0</ele><time>2026-05-02T08:13:11.538Z</time></trkpt><trkpt lat="45.600643" lon="11.4150332"><ele>94.0</ele><time>2026-05-02T08:13:12.538Z</time></trkpt><trkpt lat="45.6007926" lon="11.4149819"><ele>94.0</ele><time>2026-05-02T08:13:13.537Z</time></trkpt><trkpt lat="45.6009476" lon="11.4149466"><ele>94.0</ele><time>2026-05-02T08:13:14.538Z</time></trkpt><trkpt lat="45.6011125" lon="11.4149343"><ele>95.0</ele><time>2026-05-02T08:13:15.538Z</time></trkpt><trkpt lat="45.6012843" lon="11.4149416"><ele>96.0</ele><time>2026-05-02T08:13:16.538Z</time></trkpt><trkpt lat="45.6014584" lon="11.4149484"><ele>97.0</ele><time>2026-05-02T08:13:17.538Z</time></trkpt><trkpt lat="45.6016334" lon="11.4149211"><ele>97.0</ele><time>2026-05-02T08:13:18.538Z</time></trkpt><trkpt lat="45.6018065" lon="11.4148682"><ele>97.0</ele><time>2026-05-02T08:13:19.538Z</time></trkpt><trkpt lat="45.6019811" lon="11.4148077"><ele>97.0</ele><time>2026-05-02T08:13:20.538Z</time></trkpt><trkpt lat="45.6021565" lon="11.414749"><ele>98.0</ele><time>2026-05-02T08:13:21.538Z</time></trkpt><trkpt lat="45.6023321" lon="11.414729"><ele>99.0</ele><time>2026-05-02T08:13:22.538Z</time></trkpt><trkpt lat="45.6025067" lon="11.414749"><ele>100.0</ele><time>2026-05-02T08:13:23.539Z</time></trkpt><trkpt lat="45.6026846" lon="11.4147652"><ele>101.33333333333334</ele><time>2026-05-02T08:13:24.539Z</time></trkpt><trkpt lat="45.6028646" lon="11.414773"><ele>102.66666666666666</ele><time>2026-05-02T08:13:25.538Z</time></trkpt><trkpt lat="45.6030438" lon="11.4147705"><ele>104.0</ele><time>2026-05-02T08:13:26.537Z</time></trkpt><trkpt lat="45.603222" lon="11.4147685"><ele>104.0</ele><time>2026-05-02T08:13:27.537Z</time></trkpt><trkpt lat="45.6033975" lon="11.414767"><ele>104.0</ele><time>2026-05-02T08:13:28.538Z</time></trkpt><trkpt lat="45.6035684" lon="11.4147661"><ele>104.0</ele><time>2026-05-02T08:13:29.538Z</time></trkpt><trkpt lat="45.6037352" lon="11.4147638"><ele>104.0</ele><time>2026-05-02T08:13:30.538Z</time></trkpt><trkpt lat="45.6039028" lon="11.4147396"><ele>104.0</ele><time>2026-05-02T08:13:31.539Z</time></trkpt><trkpt lat="45.6040718" lon="11.4146929"><ele>104.0</ele><time>2026-05-02T08:13:32.538Z</time></trkpt><trkpt lat="45.6042415" lon="11.4146425"><ele>104.0</ele><time>2026-05-02T08:13:33.538Z</time></trkpt><trkpt lat="45.6044144" lon="11.4145889"><ele>104.0</ele><time>2026-05-02T08:13:34.539Z</time></trkpt><trkpt lat="45.6045848" lon="11.4145347"><ele>104.0</ele><time>2026-05-02T08:13:35.538Z</time></trkpt><trkpt lat="45.6047551" lon="11.4144819"><ele>106.33333333333333</ele><time>2026-05-02T08:13:36.538Z</time></trkpt><trkpt lat="45.6049245" lon="11.4144288"><ele>108.66666666666666</ele><time>2026-05-02T08:13:37.538Z</time></trkpt><trkpt lat="45.6050925" lon="11.4143702"><ele>111.0</ele><time>2026-05-02T08:13:38.538Z</time></trkpt><trkpt lat="45.6052564" lon="11.4142858"><ele>114.0</ele><time>2026-05-02T08:13:39.538Z</time></trkpt><trkpt lat="45.605417" lon="11.4141681"><ele>117.0</ele><time>2026-05-02T08:13:40.538Z</time></trkpt><trkpt lat="45.6055732" lon="11.4140353"><ele>120.0</ele><time>2026-05-02T08:13:41.538Z</time></trkpt><trkpt lat="45.605729" lon="11.4139084"><ele>119.0</ele><time>2026-05-02T08:13:42.537Z</time></trkpt><trkpt lat="45.605891" lon="11.4137959"><ele>118.0</ele><time>2026-05-02T08:13:43.539Z</time></trkpt><trkpt lat="45.6060538" lon="11.4136893"><ele>117.0</ele><time>2026-05-02T08:13:44.538Z</time></trkpt><trkpt lat="45.6062106" lon="11.4135913"><ele>119.0</ele><time>2026-05-02T08:13:45.538Z</time></trkpt><trkpt lat="45.6063522" lon="11.4135038"><ele>121.0</ele><time>2026-05-02T08:13:46.537Z</time></trkpt><trkpt lat="45.606484" lon="11.4134224"><ele>123.0</ele><time>2026-05-02T08:13:47.537Z</time></trkpt><trkpt lat="45.6066141" lon="11.4133418"><ele>125.0</ele><time>2026-05-02T08:13:48.538Z</time></trkpt><trkpt lat="45.6067459" lon="11.4132612"><ele>125.0</ele><time>2026-05-02T08:13:49.539Z</time></trkpt><trkpt lat="45.6068698" lon="11.413183"><ele>125.0</ele><time>2026-05-02T08:13:50.538Z</time></trkpt><trkpt lat="45.6069914" lon="11.413091"><ele>125.0</ele><time>2026-05-02T08:13:51.538Z</time></trkpt><trkpt lat="45.6071034" lon="11.4129753"><ele>125.0</ele><time>2026-05-02T08:13:52.539Z</time></trkpt><trkpt lat="45.6072079" lon="11.4128412"><ele>127.25</ele><time>2026-05-02T08:13:53.538Z</time></trkpt><trkpt lat="45.6073071" lon="11.4127032"><ele>129.5</ele><time>2026-05-02T08:13:54.538Z</time></trkpt><trkpt lat="45.6073992" lon="11.4125658"><ele>131.75</ele><time>2026-05-02T08:13:55.538Z</time></trkpt><trkpt lat="45.6074979" lon="11.4124219"><ele>134.0</ele><time>2026-05-02T08:13:56.539Z</time></trkpt><trkpt lat="45.6076049" lon="11.412283"><ele>134.33333333333331</ele><time>2026-05-02T08:13:57.538Z</time></trkpt><trkpt lat="45.607725" lon="11.4121513"><ele>134.66666666666666</ele><time>2026-05-02T08:13:58.538Z</time></trkpt><trkpt lat="45.6078581" lon="11.4120382"><ele>135.0</ele><time>2026-05-02T08:13:59.538Z</time></trkpt><trkpt lat="45.6080005" lon="11.4119306"><ele>135.0</ele><time>2026-05-02T08:14:00.537Z</time></trkpt><trkpt lat="45.6081529" lon="11.4118315"><ele>135.0</ele><time>2026-05-02T08:14:01.538Z</time></trkpt><trkpt lat="45.6083132" lon="11.4117453"><ele>135.0</ele><time>2026-05-02T08:14:02.538Z</time></trkpt><trkpt lat="45.6084773" lon="11.4116626"><ele>135.0</ele><time>2026-05-02T08:14:03.538Z</time></trkpt><trkpt lat="45.6086419" lon="11.4115806"><ele>135.0</ele><time>2026-05-02T08:14:04.537Z</time></trkpt><trkpt lat="45.6088015" lon="11.4114956"><ele>135.0</ele><time>2026-05-02T08:14:05.538Z</time></trkpt><trkpt lat="45.6089435" lon="11.4114125"><ele>136.6</ele><time>2026-05-02T08:14:06.539Z</time></trkpt><trkpt lat="45.6090671" lon="11.4113365"><ele>138.2</ele><time>2026-05-02T08:14:07.538Z</time></trkpt><trkpt lat="45.6091681" lon="11.411274"><ele>139.8</ele><time>2026-05-02T08:14:08.537Z</time></trkpt><trkpt lat="45.6092566" lon="11.4112455"><ele>141.4</ele><time>2026-05-02T08:14:09.538Z</time></trkpt><trkpt lat="45.6093268" lon="11.4112568"><ele>143.0</ele><time>2026-05-02T08:14:10.539Z</time></trkpt><trkpt lat="45.6093797" lon="11.4113058"><ele>143.6</ele><time>2026-05-02T08:14:11.539Z</time></trkpt><trkpt lat="45.6094226" lon="11.4113983"><ele>144.20000000000002</ele><time>2026-05-02T08:14:12.539Z</time></trkpt><trkpt lat="45.6094618" lon="11.4115139"><ele>144.8</ele><time>2026-05-02T08:14:13.538Z</time></trkpt><trkpt lat="45.6095084" lon="11.4116418"><ele>145.4</ele><time>2026-05-02T08:14:14.537Z</time></trkpt><trkpt lat="45.6095792" lon="11.4117609"><ele>146.0</ele><time>2026-05-02T08:14:15.537Z</time></trkpt><trkpt lat="45.60968" lon="11.4118469"><ele>148.0</ele><time>2026-05-02T08:14:16.538Z</time></trkpt><trkpt lat="45.6097954" lon="11.4119029"><ele>150.0</ele><time>2026-05-02T08:14:17.537Z</time></trkpt><trkpt lat="45.6099142" lon="11.4119516"><ele>152.0</ele><time>2026-05-02T08:14:18.538Z</time></trkpt><trkpt lat="45.6100328" lon="11.4119978"><ele>154.0</ele><time>2026-05-02T08:14:19.538Z</time></trkpt><trkpt lat="45.6101435" lon="11.4120442"><ele>154.0</ele><time>2026-05-02T08:14:20.538Z</time></trkpt><trkpt lat="45.6102347" lon="11.4120892"><ele>154.0</ele><time>2026-05-02T08:14:21.538Z</time></trkpt><trkpt lat="45.6103166" lon="11.4121379"><ele>154.0</ele><time>2026-05-02T08:14:22.538Z</time></trkpt><trkpt lat="45.6103848" lon="11.4122105"><ele>154.0</ele><time>2026-05-02T08:14:23.539Z</time></trkpt><trkpt lat="45.6104249" lon="11.4123023"><ele>154.0</ele><time>2026-05-02T08:14:24.539Z</time></trkpt><trkpt lat="45.6104608" lon="11.4123861"><ele>154.0</ele><time>2026-05-02T08:14:25.537Z</time></trkpt><trkpt lat="45.6103898" lon="11.4125134"><ele>155.6</ele><time>2026-05-02T08:14:26.538Z</time></trkpt><trkpt lat="45.6103293" lon="11.4125912"><ele>157.2</ele><time>2026-05-02T08:14:27.538Z</time></trkpt><trkpt lat="45.6102382" lon="11.4126482"><ele>158.79999999999998</ele><time>2026-05-02T08:14:28.539Z</time></trkpt><trkpt lat="45.6101344" lon="11.4126996"><ele>160.4</ele><time>2026-05-02T08:14:29.539Z</time></trkpt><trkpt lat="45.610016" lon="11.4127527"><ele>162.0</ele><time>2026-05-02T08:14:30.538Z</time></trkpt><trkpt lat="45.6098913" lon="11.4128089"><ele>162.0</ele><time>2026-05-02T08:14:31.539Z</time></trkpt><trkpt lat="45.609767" lon="11.4128667"><ele>162.0</ele><time>2026-05-02T08:14:32.538Z</time></trkpt><trkpt lat="45.6096533" lon="11.4129197"><ele>162.0</ele><time>2026-05-02T08:14:33.539Z</time></trkpt><trkpt lat="45.6095522" lon="11.4129713"><ele>162.0</ele><time>2026-05-02T08:14:34.538Z</time></trkpt><trkpt lat="45.6094611" lon="11.4130433"><ele>164.5</ele><time>2026-05-02T08:14:35.538Z</time></trkpt><trkpt lat="45.6093771" lon="11.4131612"><ele>167.0</ele><time>2026-05-02T08:14:36.537Z</time></trkpt><trkpt lat="45.6092978" lon="11.4132973"><ele>169.5</ele><time>2026-05-02T08:14:37.538Z</time></trkpt><trkpt lat="45.6092124" lon="11.413431"><ele>172.0</ele><time>2026-05-02T08:14:38.539Z</time></trkpt><trkpt lat="45.6091407" lon="11.4135413"><ele>172.0</ele><time>2026-05-02T08:14:39.538Z</time></trkpt><trkpt lat="45.6090945" lon="11.4136069"><ele>172.0</ele><time>2026-05-02T08:14:40.538Z</time></trkpt><trkpt lat="45.6090507" lon="11.4137339"><ele>172.0</ele><time>2026-05-02T08:14:42.538Z</time></trkpt><trkpt lat="45.6091144" lon="11.413808"><ele>172.0</ele><time>2026-05-02T08:14:44.538Z</time></trkpt><trkpt lat="45.609229" lon="11.4137017"><ele>172.0</ele><time>2026-05-02T08:14:46.538Z</time></trkpt><trkpt lat="45.6092934" lon="11.4136038"><ele>172.0</ele><time>2026-05-02T08:14:47.538Z</time></trkpt><trkpt lat="45.6093663" lon="11.4135141"><ele>172.0</ele><time>2026-05-02T08:14:48.537Z</time></trkpt><trkpt lat="45.6094477" lon="11.4134671"><ele>172.0</ele><time>2026-05-02T08:14:49.538Z</time></trkpt><trkpt lat="45.6095265" lon="11.413457"><ele>172.0</ele><time>2026-05-02T08:14:50.537Z</time></trkpt><trkpt lat="45.609627" lon="11.413464"><ele>172.0</ele><time>2026-05-02T08:14:51.538Z</time></trkpt><trkpt lat="45.609738" lon="11.4134874"><ele>174.25</ele><time>2026-05-02T08:14:52.538Z</time></trkpt><trkpt lat="45.6098569" lon="11.4135119"><ele>176.5</ele><time>2026-05-02T08:14:53.538Z</time></trkpt><trkpt lat="45.6099845" lon="11.4135447"><ele>178.75</ele><time>2026-05-02T08:14:54.538Z</time></trkpt><trkpt lat="45.6101083" lon="11.4135781"><ele>181.0</ele><time>2026-05-02T08:14:55.538Z</time></trkpt><trkpt lat="45.6102155" lon="11.4136037"><ele>181.0</ele><time>2026-05-02T08:14:56.539Z</time></trkpt><trkpt lat="45.6103039" lon="11.4136209"><ele>181.0</ele><time>2026-05-02T08:14:57.539Z</time></trkpt><trkpt lat="45.6103993" lon="11.4137075"><ele>181.0</ele><time>2026-05-02T08:14:59.539Z</time></trkpt><trkpt lat="45.6103791" lon="11.4138408"><ele>181.0</ele><time>2026-05-02T08:15:01.538Z</time></trkpt><trkpt lat="45.6102637" lon="11.4138536"><ele>181.0</ele><time>2026-05-02T08:15:03.537Z</time></trkpt><trkpt lat="45.6101834" lon="11.4138192"><ele>181.0</ele><time>2026-05-02T08:15:04.538Z</time></trkpt><trkpt lat="45.6100934" lon="11.4137831"><ele>181.0</ele><time>2026-05-02T08:15:05.538Z</time></trkpt><trkpt lat="45.6100058" lon="11.413754"><ele>181.0</ele><time>2026-05-02T08:15:06.538Z</time></trkpt><trkpt lat="45.6099318" lon="11.4137347"><ele>181.0</ele><time>2026-05-02T08:15:07.538Z</time></trkpt><trkpt lat="45.6098645" lon="11.4137394"><ele>181.0</ele><time>2026-05-02T08:15:08.538Z</time></trkpt><trkpt lat="45.6097628" lon="11.4138328"><ele>181.0</ele><time>2026-05-02T08:15:10.538Z</time></trkpt><trkpt lat="45.6097637" lon="11.4139901"><ele>184.5</ele><time>2026-05-02T08:15:12.538Z</time></trkpt><trkpt lat="45.6098828" lon="11.4140748"><ele>188.0</ele><time>2026-05-02T08:15:14.538Z</time></trkpt><trkpt lat="45.6099771" lon="11.4140738"><ele>191.5</ele><time>2026-05-02T08:15:15.538Z</time></trkpt><trkpt lat="45.6100882" lon="11.4140723"><ele>195.0</ele><time>2026-05-02T08:15:16.538Z</time></trkpt><trkpt lat="45.6102097" lon="11.4140734"><ele>197.75</ele><time>2026-05-02T08:15:17.538Z</time></trkpt><trkpt lat="45.6103389" lon="11.4140821"><ele>200.5</ele><time>2026-05-02T08:15:18.538Z</time></trkpt><trkpt lat="45.6104713" lon="11.4141006"><ele>203.25</ele><time>2026-05-02T08:15:19.539Z</time></trkpt><trkpt lat="45.610611" lon="11.4140851"><ele>206.0</ele><time>2026-05-02T08:15:20.538Z</time></trkpt><trkpt lat="45.6107453" lon="11.4140453"><ele>206.0</ele><time>2026-05-02T08:15:21.538Z</time></trkpt><trkpt lat="45.6108611" lon="11.41398"><ele>206.0</ele><time>2026-05-02T08:15:22.538Z</time></trkpt><trkpt lat="45.610953" lon="11.4139093"><ele>206.0</ele><time>2026-05-02T08:15:23.538Z</time></trkpt><trkpt lat="45.6110349" lon="11.4138496"><ele>206.0</ele><time>2026-05-02T08:15:24.538Z</time></trkpt><trkpt lat="45.6111136" lon="11.4138155"><ele>206.0</ele><time>2026-05-02T08:15:25.538Z</time></trkpt><trkpt lat="45.6111903" lon="11.4138224"><ele>207.4</ele><time>2026-05-02T08:15:26.538Z</time></trkpt><trkpt lat="45.6112618" lon="11.4138652"><ele>208.8</ele><time>2026-05-02T08:15:27.538Z</time></trkpt><trkpt lat="45.6113352" lon="11.4139422"><ele>210.20000000000002</ele><time>2026-05-02T08:15:28.538Z</time></trkpt><trkpt lat="45.6114158" lon="11.4140204"><ele>211.60000000000002</ele><time>2026-05-02T08:15:29.538Z</time></trkpt><trkpt lat="45.6115032" lon="11.4140821"><ele>213.0</ele><time>2026-05-02T08:15:30.537Z</time></trkpt><trkpt lat="45.6115952" lon="11.4141175"><ele>213.0</ele><time>2026-05-02T08:15:31.539Z</time></trkpt><trkpt lat="45.6116784" lon="11.414099"><ele>213.0</ele><time>2026-05-02T08:15:32.538Z</time></trkpt><trkpt lat="45.6117528" lon="11.4140223"><ele>213.0</ele><time>2026-05-02T08:15:33.538Z</time></trkpt><trkpt lat="45.6118073" lon="11.4139072"><ele>213.0</ele><time>2026-05-02T08:15:34.537Z</time></trkpt><trkpt lat="45.6118458" lon="11.4137654"><ele>213.0</ele><time>2026-05-02T08:15:35.539Z</time></trkpt><trkpt lat="45.6118795" lon="11.4136248"><ele>211.2</ele><time>2026-05-02T08:15:36.537Z</time></trkpt><trkpt lat="45.6119203" lon="11.4134838"><ele>209.4</ele><time>2026-05-02T08:15:37.539Z</time></trkpt><trkpt lat="45.6119785" lon="11.4133706"><ele>207.6</ele><time>2026-05-02T08:15:38.537Z</time></trkpt><trkpt lat="45.6120494" lon="11.4132595"><ele>205.79999999999998</ele><time>2026-05-02T08:15:39.539Z</time></trkpt><trkpt lat="45.6121347" lon="11.413167"><ele>204.0</ele><time>2026-05-02T08:15:40.539Z</time></trkpt><trkpt lat="45.6122335" lon="11.4130731"><ele>208.0</ele><time>2026-05-02T08:15:41.539Z</time></trkpt><trkpt lat="45.6123423" lon="11.412989"><ele>212.0</ele><time>2026-05-02T08:15:42.538Z</time></trkpt><trkpt lat="45.6124547" lon="11.412902"><ele>216.0</ele><time>2026-05-02T08:15:43.538Z</time></trkpt><trkpt lat="45.612572" lon="11.4128193"><ele>220.0</ele><time>2026-05-02T08:15:44.539Z</time></trkpt><trkpt lat="45.612679" lon="11.4127243"><ele>220.0</ele><time>2026-05-02T08:15:45.539Z</time></trkpt><trkpt lat="45.6127789" lon="11.4126231"><ele>220.0</ele><time>2026-05-02T08:15:46.538Z</time></trkpt><trkpt lat="45.6128704" lon="11.4124919"><ele>220.0</ele><time>2026-05-02T08:15:47.538Z</time></trkpt><trkpt lat="45.6129439" lon="11.4123418"><ele>220.0</ele><time>2026-05-02T08:15:48.538Z</time></trkpt><trkpt lat="45.6130021" lon="11.4121974"><ele>222.33333333333331</ele><time>2026-05-02T08:15:49.539Z</time></trkpt><trkpt lat="45.6130429" lon="11.4120651"><ele>224.66666666666666</ele><time>2026-05-02T08:15:50.538Z</time></trkpt><trkpt lat="45.6130774" lon="11.411952"><ele>227.0</ele><time>2026-05-02T08:15:51.538Z</time></trkpt><trkpt lat="45.6131018" lon="11.4118541"><ele>229.33333333333331</ele><time>2026-05-02T08:15:52.538Z</time></trkpt><trkpt lat="45.6131375" lon="11.4117283"><ele>231.66666666666666</ele><time>2026-05-02T08:15:54.538Z</time></trkpt><trkpt lat="45.613183" lon="11.4116303"><ele>234.0</ele><time>2026-05-02T08:15:57.538Z</time></trkpt><trkpt lat="45.6132488" lon="11.411577"><ele>234.0</ele><time>2026-05-02T08:16:00.539Z</time></trkpt><trkpt lat="45.613306" lon="11.4116515"><ele>233.99999999999997</ele><time>2026-05-02T08:16:02.539Z</time></trkpt><trkpt lat="45.6133033" lon="11.4118079"><ele>233.99999999999997</ele><time>2026-05-02T08:16:04.538Z</time></trkpt><trkpt lat="45.613273" lon="11.4119144"><ele>234.0</ele><time>2026-05-02T08:16:05.538Z</time></trkpt><trkpt lat="45.6132435" lon="11.4120577"><ele>234.0</ele><time>2026-05-02T08:16:06.539Z</time></trkpt><trkpt lat="45.6132056" lon="11.4122158"><ele>237.0</ele><time>2026-05-02T08:16:07.538Z</time></trkpt><trkpt lat="45.6131625" lon="11.4123895"><ele>240.0</ele><time>2026-05-02T08:16:08.539Z</time></trkpt><trkpt lat="45.6131138" lon="11.4125724"><ele>243.0</ele><time>2026-05-02T08:16:09.539Z</time></trkpt><trkpt lat="45.6130678" lon="11.4127568"><ele>246.0</ele><time>2026-05-02T08:16:10.538Z</time></trkpt><trkpt lat="45.6130231" lon="11.4129369"><ele>250.0</ele><time>2026-05-02T08:16:11.538Z</time></trkpt><trkpt lat="45.6129778" lon="11.4131132"><ele>254.0</ele><time>2026-05-02T08:16:12.538Z</time></trkpt><trkpt lat="45.6129454" lon="11.4132813"><ele>258.0</ele><time>2026-05-02T08:16:13.538Z</time></trkpt><trkpt lat="45.6129293" lon="11.4134565"><ele>262.0</ele><time>2026-05-02T08:16:14.539Z</time></trkpt><trkpt lat="45.6129245" lon="11.4136392"><ele>264.75</ele><time>2026-05-02T08:16:15.538Z</time></trkpt><trkpt lat="45.6129262" lon="11.4138284"><ele>267.5</ele><time>2026-05-02T08:16:16.538Z</time></trkpt><trkpt lat="45.6129374" lon="11.414026"><ele>270.25</ele><time>2026-05-02T08:16:17.538Z</time></trkpt><trkpt lat="45.6129533" lon="11.4142319"><ele>273.0</ele><time>2026-05-02T08:16:18.537Z</time></trkpt><trkpt lat="45.6129688" lon="11.4144376"><ele>273.0</ele><time>2026-05-02T08:16:19.539Z</time></trkpt><trkpt lat="45.6129863" lon="11.4146503"><ele>273.0</ele><time>2026-05-02T08:16:20.539Z</time></trkpt><trkpt lat="45.613012" lon="11.4148601"><ele>273.0</ele><time>2026-05-02T08:16:21.537Z</time></trkpt><trkpt lat="45.613039" lon="11.4150725"><ele>274.25</ele><time>2026-05-02T08:16:22.539Z</time></trkpt><trkpt lat="45.6130662" lon="11.4152905"><ele>275.5</ele><time>2026-05-02T08:16:23.537Z</time></trkpt><trkpt lat="45.6130964" lon="11.415497"><ele>276.75</ele><time>2026-05-02T08:16:24.538Z</time></trkpt><trkpt lat="45.6131155" lon="11.4156787"><ele>278.0</ele><time>2026-05-02T08:16:25.538Z</time></trkpt><trkpt lat="45.6131436" lon="11.4158406"><ele>278.0</ele><time>2026-05-02T08:16:26.538Z</time></trkpt><trkpt lat="45.6131577" lon="11.4159772"><ele>278.0</ele><time>2026-05-02T08:16:27.537Z</time></trkpt><trkpt lat="45.6131528" lon="11.4161001"><ele>278.0</ele><time>2026-05-02T08:16:28.539Z</time></trkpt><trkpt lat="45.6131245" lon="11.416182"><ele>278.0</ele><time>2026-05-02T08:16:29.538Z</time></trkpt><trkpt lat="45.6130067" lon="11.4162473"><ele>278.0</ele><time>2026-05-02T08:16:31.539Z</time></trkpt><trkpt lat="45.6129291" lon="11.4162178"><ele>278.0</ele><time>2026-05-02T08:16:32.538Z</time></trkpt><trkpt lat="45.6128339" lon="11.4161829"><ele>278.0</ele><time>2026-05-02T08:16:33.539Z</time></trkpt><trkpt lat="45.6127273" lon="11.4161621"><ele>278.0</ele><time>2026-05-02T08:16:34.538Z</time></trkpt><trkpt lat="45.6126104" lon="11.4161701"><ele>278.0</ele><time>2026-05-02T08:16:35.537Z</time></trkpt><trkpt lat="45.6124966" lon="11.4161919"><ele>278.0</ele><time>2026-05-02T08:16:36.537Z</time></trkpt><trkpt lat="45.6123801" lon="11.4162333"><ele>278.25</ele><time>2026-05-02T08:16:37.537Z</time></trkpt><trkpt lat="45.6122722" lon="11.4162924"><ele>278.5</ele><time>2026-05-02T08:16:38.539Z</time></trkpt><trkpt lat="45.6121685" lon="11.4163729"><ele>278.75</ele><time>2026-05-02T08:16:39.539Z</time></trkpt><trkpt lat="45.6120697" lon="11.416476"><ele>279.0</ele><time>2026-05-02T08:16:40.538Z</time></trkpt><trkpt lat="45.6119821" lon="11.4165897"><ele>279.0</ele><time>2026-05-02T08:16:41.539Z</time></trkpt><trkpt lat="45.6119008" lon="11.4166832"><ele>279.0</ele><time>2026-05-02T08:16:42.539Z</time></trkpt><trkpt lat="45.611813" lon="11.4167487"><ele>279.0</ele><time>2026-05-02T08:16:43.539Z</time></trkpt><trkpt lat="45.6117191" lon="11.4167642"><ele>279.0</ele><time>2026-05-02T08:16:44.538Z</time></trkpt><trkpt lat="45.6116226" lon="11.4167402"><ele>279.0</ele><time>2026-05-02T08:16:45.538Z</time></trkpt><trkpt lat="45.6115149" lon="11.4167"><ele>279.0</ele><time>2026-05-02T08:16:46.537Z</time></trkpt><trkpt lat="45.6114042" lon="11.4166573"><ele>279.0</ele><time>2026-05-02T08:16:47.539Z</time></trkpt><trkpt lat="45.6113071" lon="11.4166139"><ele>279.0</ele><time>2026-05-02T08:16:48.538Z</time></trkpt><trkpt lat="45.6112266" lon="11.4165842"><ele>279.0</ele><time>2026-05-02T08:16:49.538Z</time></trkpt><trkpt lat="45.6111625" lon="11.4165789"><ele>279.0</ele><time>2026-05-02T08:16:50.539Z</time></trkpt><trkpt lat="45.6110932" lon="11.4166812"><ele>279.0</ele><time>2026-05-02T08:16:52.538Z</time></trkpt><trkpt lat="45.611172" lon="11.4167845"><ele>279.0</ele><time>2026-05-02T08:16:54.538Z</time></trkpt><trkpt lat="45.6112495" lon="11.4168056"><ele>279.0</ele><time>2026-05-02T08:16:55.538Z</time></trkpt><trkpt lat="45.6113459" lon="11.4168169"><ele>279.0</ele><time>2026-05-02T08:16:56.538Z</time></trkpt><trkpt lat="45.6114468" lon="11.4168284"><ele>279.0</ele><time>2026-05-02T08:16:57.538Z</time></trkpt><trkpt lat="45.6115391" lon="11.416863"><ele>279.0</ele><time>2026-05-02T08:16:58.539Z</time></trkpt><trkpt lat="45.6116305" lon="11.4169311"><ele>279.0</ele><time>2026-05-02T08:16:59.538Z</time></trkpt><trkpt lat="45.6117138" lon="11.4170075"><ele>279.0</ele><time>2026-05-02T08:17:00.538Z</time></trkpt><trkpt lat="45.6118028" lon="11.417038"><ele>279.0</ele><time>2026-05-02T08:17:01.538Z</time></trkpt><trkpt lat="45.6119009" lon="11.4170106"><ele>279.0</ele><time>2026-05-02T08:17:02.539Z</time></trkpt><trkpt lat="45.6119998" lon="11.4169436"><ele>280.4</ele><time>2026-05-02T08:17:03.538Z</time></trkpt><trkpt lat="45.6120988" lon="11.4168599"><ele>281.79999999999995</ele><time>2026-05-02T08:17:04.538Z</time></trkpt><trkpt lat="45.6121996" lon="11.4167773"><ele>283.20000000000005</ele><time>2026-05-02T08:17:05.537Z</time></trkpt><trkpt lat="45.6123022" lon="11.4167079"><ele>284.6</ele><time>2026-05-02T08:17:06.539Z</time></trkpt><trkpt lat="45.6124029" lon="11.4166766"><ele>286.0</ele><time>2026-05-02T08:17:07.538Z</time></trkpt><trkpt lat="45.6124992" lon="11.4166825"><ele>286.0</ele><time>2026-05-02T08:17:08.538Z</time></trkpt><trkpt lat="45.6125922" lon="11.4167337"><ele>286.0</ele><time>2026-05-02T08:17:09.537Z</time></trkpt><trkpt lat="45.6126746" lon="11.4168224"><ele>286.0</ele><time>2026-05-02T08:17:10.538Z</time></trkpt><trkpt lat="45.6127526" lon="11.4169417"><ele>286.0</ele><time>2026-05-02T08:17:11.538Z</time></trkpt><trkpt lat="45.6128294" lon="11.4170817"><ele>286.0</ele><time>2026-05-02T08:17:12.539Z</time></trkpt><trkpt lat="45.6129072" lon="11.417235"><ele>288.6</ele><time>2026-05-02T08:17:13.539Z</time></trkpt><trkpt lat="45.6129825" lon="11.4173617"><ele>291.20000000000005</ele><time>2026-05-02T08:17:14.538Z</time></trkpt><trkpt lat="45.6130662" lon="11.4174516"><ele>293.79999999999995</ele><time>2026-05-02T08:17:15.539Z</time></trkpt><trkpt lat="45.6131372" lon="11.4175365"><ele>296.4</ele><time>2026-05-02T08:17:16.538Z</time></trkpt><trkpt lat="45.6131852" lon="11.4176352"><ele>299.0</ele><time>2026-05-02T08:17:17.537Z</time></trkpt><trkpt lat="45.6132089" lon="11.4177524"><ele>299.0</ele><time>2026-05-02T08:17:18.538Z</time></trkpt><trkpt lat="45.6132141" lon="11.4178895"><ele>299.0</ele><time>2026-05-02T08:17:19.539Z</time></trkpt><trkpt lat="45.6132319" lon="11.4180246"><ele>299.0</ele><time>2026-05-02T08:17:20.539Z</time></trkpt><trkpt lat="45.6132734" lon="11.4181483"><ele>299.0</ele><time>2026-05-02T08:17:21.539Z</time></trkpt><trkpt lat="45.6133309" lon="11.4182318"><ele>299.0</ele><time>2026-05-02T08:17:22.538Z</time></trkpt><trkpt lat="45.6134089" lon="11.4182796"><ele>301.0</ele><time>2026-05-02T08:17:23.537Z</time></trkpt><trkpt lat="45.6134956" lon="11.4182848"><ele>303.0</ele><time>2026-05-02T08:17:24.538Z</time></trkpt><trkpt lat="45.6135768" lon="11.418245"><ele>305.0</ele><time>2026-05-02T08:17:25.538Z</time></trkpt><trkpt lat="45.613645" lon="11.418169"><ele>307.0</ele><time>2026-05-02T08:17:26.538Z</time></trkpt><trkpt lat="45.6136896" lon="11.4180942"><ele>309.0</ele><time>2026-05-02T08:17:27.539Z</time></trkpt><trkpt lat="45.6137876" lon="11.4180407"><ele>311.0</ele><time>2026-05-02T08:17:29.538Z</time></trkpt><trkpt lat="45.6138264" lon="11.4181586"><ele>311.0</ele><time>2026-05-02T08:17:31.539Z</time></trkpt><trkpt lat="45.6137316" lon="11.4182823"><ele>311.0</ele><time>2026-05-02T08:17:33.538Z</time></trkpt><trkpt lat="45.6136553" lon="11.4183605"><ele>311.0</ele><time>2026-05-02T08:17:34.538Z</time></trkpt><trkpt lat="45.6135691" lon="11.4184359"><ele>311.0</ele><time>2026-05-02T08:17:35.539Z</time></trkpt><trkpt lat="45.6134754" lon="11.4185111"><ele>311.0</ele><time>2026-05-02T08:17:36.537Z</time></trkpt><trkpt lat="45.6133918" lon="11.4185688"><ele>311.0</ele><time>2026-05-02T08:17:37.538Z</time></trkpt><trkpt lat="45.6133178" lon="11.4186094"><ele>311.0</ele><time>2026-05-02T08:17:38.538Z</time></trkpt><trkpt lat="45.6132275" lon="11.4186783"><ele>311.0</ele><time>2026-05-02T08:17:40.538Z</time></trkpt><trkpt lat="45.6131723" lon="11.4187646"><ele>311.0</ele><time>2026-05-02T08:17:44.537Z</time></trkpt><trkpt lat="45.6130778" lon="11.4187913"><ele>311.0</ele><time>2026-05-02T08:17:46.539Z</time></trkpt><trkpt lat="45.61301" lon="11.4188183"><ele>311.0</ele><time>2026-05-02T08:17:47.537Z</time></trkpt><trkpt lat="45.6129254" lon="11.4188504"><ele>309.40000000000003</ele><time>2026-05-02T08:17:48.539Z</time></trkpt><trkpt lat="45.6128334" lon="11.4188735"><ele>307.8</ele><time>2026-05-02T08:17:49.538Z</time></trkpt><trkpt lat="45.6127404" lon="11.4189034"><ele>306.20000000000005</ele><time>2026-05-02T08:17:50.538Z</time></trkpt><trkpt lat="45.6126524" lon="11.418962"><ele>304.6</ele><time>2026-05-02T08:17:51.538Z</time></trkpt><trkpt lat="45.6125743" lon="11.4190605"><ele>303.0</ele><time>2026-05-02T08:17:52.539Z</time></trkpt><trkpt lat="45.6125102" lon="11.419189"><ele>304.8</ele><time>2026-05-02T08:17:53.538Z</time></trkpt><trkpt lat="45.6124437" lon="11.4193153"><ele>306.6</ele><time>2026-05-02T08:17:54.538Z</time></trkpt><trkpt lat="45.6123789" lon="11.4194337"><ele>308.4</ele><time>2026-05-02T08:17:55.539Z</time></trkpt><trkpt lat="45.6123081" lon="11.4195376"><ele>310.2</ele><time>2026-05-02T08:17:56.539Z</time></trkpt><trkpt lat="45.6122253" lon="11.4196384"><ele>312.0</ele><time>2026-05-02T08:17:57.538Z</time></trkpt><trkpt lat="45.6121385" lon="11.4197383"><ele>312.0</ele><time>2026-05-02T08:17:58.538Z</time></trkpt><trkpt lat="45.6120385" lon="11.419855"><ele>312.0</ele><time>2026-05-02T08:17:59.538Z</time></trkpt><trkpt lat="45.6119399" lon="11.4199607"><ele>312.0</ele><time>2026-05-02T08:18:00.538Z</time></trkpt><trkpt lat="45.6118423" lon="11.4200625"><ele>312.0</ele><time>2026-05-02T08:18:01.537Z</time></trkpt><trkpt lat="45.6117561" lon="11.4201442"><ele>315.4</ele><time>2026-05-02T08:18:02.539Z</time></trkpt><trkpt lat="45.6116645" lon="11.4202168"><ele>318.79999999999995</ele><time>2026-05-02T08:18:03.538Z</time></trkpt><trkpt lat="45.6115677" lon="11.4202795"><ele>322.2</ele><time>2026-05-02T08:18:04.538Z</time></trkpt><trkpt lat="45.6114687" lon="11.4203415"><ele>325.59999999999997</ele><time>2026-05-02T08:18:05.538Z</time></trkpt><trkpt lat="45.6113675" lon="11.4203841"><ele>329.0</ele><time>2026-05-02T08:18:06.538Z</time></trkpt><trkpt lat="45.6112615" lon="11.4204195"><ele>327.25</ele><time>2026-05-02T08:18:07.538Z</time></trkpt><trkpt lat="45.6111501" lon="11.4204463"><ele>325.5</ele><time>2026-05-02T08:18:08.538Z</time></trkpt><trkpt lat="45.611037" lon="11.4204734"><ele>323.75</ele><time>2026-05-02T08:18:09.537Z</time></trkpt><trkpt lat="45.6109184" lon="11.420503"><ele>322.0</ele><time>2026-05-02T08:18:10.538Z</time></trkpt><trkpt lat="45.6108022" lon="11.4205279"><ele>325.8</ele><time>2026-05-02T08:18:11.539Z</time></trkpt><trkpt lat="45.610692" lon="11.4205516"><ele>329.6</ele><time>2026-05-02T08:18:12.537Z</time></trkpt><trkpt lat="45.610586" lon="11.4205795"><ele>333.40000000000003</ele><time>2026-05-02T08:18:13.538Z</time></trkpt><trkpt lat="45.610483" lon="11.4206307"><ele>337.20000000000005</ele><time>2026-05-02T08:18:14.539Z</time></trkpt><trkpt lat="45.6103877" lon="11.4206937"><ele>341.0</ele><time>2026-05-02T08:18:15.538Z</time></trkpt><trkpt lat="45.6102956" lon="11.4207593"><ele>341.0</ele><time>2026-05-02T08:18:16.539Z</time></trkpt><trkpt lat="45.610207" lon="11.4208255"><ele>341.0</ele><time>2026-05-02T08:18:17.538Z</time></trkpt><trkpt lat="45.610126" lon="11.4208921"><ele>341.0</ele><time>2026-05-02T08:18:18.539Z</time></trkpt><trkpt lat="45.6100527" lon="11.4209621"><ele>341.0</ele><time>2026-05-02T08:18:19.538Z</time></trkpt><trkpt lat="45.6099908" lon="11.4210211"><ele>341.0</ele><time>2026-05-02T08:18:20.538Z</time></trkpt><trkpt lat="45.6099073" lon="11.4211289"><ele>341.0</ele><time>2026-05-02T08:18:22.538Z</time></trkpt><trkpt lat="45.6098965" lon="11.4212616"><ele>341.0</ele><time>2026-05-02T08:18:24.538Z</time></trkpt><trkpt lat="45.6099484" lon="11.4214456"><ele>341.0</ele><time>2026-05-02T08:18:26.538Z</time></trkpt><trkpt lat="45.609994" lon="11.4215717"><ele>341.0</ele><time>2026-05-02T08:18:27.539Z</time></trkpt><trkpt lat="45.6100492" lon="11.4217242"><ele>340.25</ele><time>2026-05-02T08:18:28.538Z</time></trkpt><trkpt lat="45.6101048" lon="11.4218943"><ele>339.5</ele><time>2026-05-02T08:18:29.538Z</time></trkpt><trkpt lat="45.6101596" lon="11.4220815"><ele>338.75</ele><time>2026-05-02T08:18:30.538Z</time></trkpt><trkpt lat="45.6102159" lon="11.42228"><ele>338.0</ele><time>2026-05-02T08:18:31.538Z</time></trkpt><trkpt lat="45.6102759" lon="11.4224796"><ele>343.25</ele><time>2026-05-02T08:18:32.538Z</time></trkpt><trkpt lat="45.6103366" lon="11.422678"><ele>348.5</ele><time>2026-05-02T08:18:33.538Z</time></trkpt><trkpt lat="45.6103816" lon="11.4228732"><ele>353.75</ele><time>2026-05-02T08:18:34.538Z</time></trkpt><trkpt lat="45.6104005" lon="11.4230575"><ele>359.0</ele><time>2026-05-02T08:18:35.538Z</time></trkpt><trkpt lat="45.6104072" lon="11.4232355"><ele>359.0</ele><time>2026-05-02T08:18:36.538Z</time></trkpt><trkpt lat="45.610406" lon="11.42341"><ele>359.0</ele><time>2026-05-02T08:18:37.538Z</time></trkpt><trkpt lat="45.6104017" lon="11.4235807"><ele>359.0</ele><time>2026-05-02T08:18:38.537Z</time></trkpt><trkpt lat="45.6103964" lon="11.4237447"><ele>359.0</ele><time>2026-05-02T08:18:39.539Z</time></trkpt><trkpt lat="45.6104007" lon="11.4239128"><ele>360.25</ele><time>2026-05-02T08:18:40.538Z</time></trkpt><trkpt lat="45.610395" lon="11.4240869"><ele>361.5</ele><time>2026-05-02T08:18:41.538Z</time></trkpt><trkpt lat="45.6103787" lon="11.4242587"><ele>362.75</ele><time>2026-05-02T08:18:42.538Z</time></trkpt><trkpt lat="45.6103611" lon="11.424434"><ele>364.0</ele><time>2026-05-02T08:18:43.539Z</time></trkpt><trkpt lat="45.6103145" lon="11.4246126"><ele>359.25</ele><time>2026-05-02T08:18:44.538Z</time></trkpt><trkpt lat="45.6102703" lon="11.4248035"><ele>354.5</ele><time>2026-05-02T08:18:45.538Z</time></trkpt><trkpt lat="45.6102277" lon="11.4250025"><ele>349.75</ele><time>2026-05-02T08:18:46.539Z</time></trkpt><trkpt lat="45.6101865" lon="11.4252062"><ele>345.0</ele><time>2026-05-02T08:18:47.538Z</time></trkpt><trkpt lat="45.6101468" lon="11.42541"><ele>346.25</ele><time>2026-05-02T08:18:48.538Z</time></trkpt><trkpt lat="45.6101086" lon="11.4256159"><ele>347.5</ele><time>2026-05-02T08:18:49.538Z</time></trkpt><trkpt lat="45.6100699" lon="11.4258159"><ele>348.75</ele><time>2026-05-02T08:18:50.538Z</time></trkpt><trkpt lat="45.6100345" lon="11.4260036"><ele>350.0</ele><time>2026-05-02T08:18:51.539Z</time></trkpt><trkpt lat="45.6100048" lon="11.426182"><ele>352.75</ele><time>2026-05-02T08:18:52.538Z</time></trkpt><trkpt lat="45.6099742" lon="11.4263546"><ele>355.5</ele><time>2026-05-02T08:18:53.538Z</time></trkpt><trkpt lat="45.6099396" lon="11.4265172"><ele>358.25</ele><time>2026-05-02T08:18:54.538Z</time></trkpt><trkpt lat="45.6098916" lon="11.4266711"><ele>361.0</ele><time>2026-05-02T08:18:55.538Z</time></trkpt><trkpt lat="45.6098372" lon="11.4268199"><ele>361.0</ele><time>2026-05-02T08:18:56.538Z</time></trkpt><trkpt lat="45.6097699" lon="11.4269523"><ele>361.0</ele><time>2026-05-02T08:18:57.539Z</time></trkpt><trkpt lat="45.6096944" lon="11.4270685"><ele>361.0</ele><time>2026-05-02T08:18:58.538Z</time></trkpt><trkpt lat="45.6096171" lon="11.4271837"><ele>361.0</ele><time>2026-05-02T08:18:59.538Z</time></trkpt><trkpt lat="45.6095529" lon="11.4273126"><ele>361.0</ele><time>2026-05-02T08:19:00.538Z</time></trkpt><trkpt lat="45.6095076" lon="11.427457"><ele>359.20000000000005</ele><time>2026-05-02T08:19:01.538Z</time></trkpt><trkpt lat="45.6094809" lon="11.4275946"><ele>357.40000000000003</ele><time>2026-05-02T08:19:02.538Z</time></trkpt><trkpt lat="45.6094542" lon="11.4277253"><ele>355.6</ele><time>2026-05-02T08:19:03.538Z</time></trkpt><trkpt lat="45.6093996" lon="11.4278452"><ele>353.8</ele><time>2026-05-02T08:19:04.539Z</time></trkpt><trkpt lat="45.6093299" lon="11.4279629"><ele>352.0</ele><time>2026-05-02T08:19:05.538Z</time></trkpt><trkpt lat="45.6092471" lon="11.4280897"><ele>352.0</ele><time>2026-05-02T08:19:06.538Z</time></trkpt><trkpt lat="45.6091606" lon="11.4282254"><ele>352.0</ele><time>2026-05-02T08:19:07.539Z</time></trkpt><trkpt lat="45.6090736" lon="11.4283645"><ele>352.0</ele><time>2026-05-02T08:19:08.538Z</time></trkpt><trkpt lat="45.6089815" lon="11.4284993"><ele>352.0</ele><time>2026-05-02T08:19:09.539Z</time></trkpt><trkpt lat="45.6088843" lon="11.4286298"><ele>352.0</ele><time>2026-05-02T08:19:10.539Z</time></trkpt><trkpt lat="45.6087817" lon="11.4287639"><ele>352.0</ele><time>2026-05-02T08:19:11.538Z</time></trkpt><trkpt lat="45.6086771" lon="11.4289057"><ele>352.0</ele><time>2026-05-02T08:19:12.538Z</time></trkpt><trkpt lat="45.6085741" lon="11.4290338"><ele>352.0</ele><time>2026-05-02T08:19:13.538Z</time></trkpt><trkpt lat="45.6084667" lon="11.4291607"><ele>350.25</ele><time>2026-05-02T08:19:14.538Z</time></trkpt><trkpt lat="45.6083547" lon="11.4292851"><ele>348.5</ele><time>2026-05-02T08:19:15.538Z</time></trkpt><trkpt lat="45.6082378" lon="11.4294003"><ele>346.75</ele><time>2026-05-02T08:19:16.539Z</time></trkpt><trkpt lat="45.608117" lon="11.4295076"><ele>345.0</ele><time>2026-05-02T08:19:17.538Z</time></trkpt><trkpt lat="45.6079951" lon="11.429613"><ele>344.0</ele><time>2026-05-02T08:19:18.538Z</time></trkpt><trkpt lat="45.6078678" lon="11.4297082"><ele>343.0</ele><time>2026-05-02T08:19:19.538Z</time></trkpt><trkpt lat="45.6077416" lon="11.4297915"><ele>342.0</ele><time>2026-05-02T08:19:20.538Z</time></trkpt><trkpt lat="45.607612" lon="11.4298513"><ele>341.0</ele><time>2026-05-02T08:19:21.538Z</time></trkpt><trkpt lat="45.6074803" lon="11.4298924"><ele>340.0</ele><time>2026-05-02T08:19:22.538Z</time></trkpt><trkpt lat="45.6073509" lon="11.4299649"><ele>339.0</ele><time>2026-05-02T08:19:23.539Z</time></trkpt><trkpt lat="45.6072265" lon="11.4300653"><ele>338.0</ele><time>2026-05-02T08:19:24.537Z</time></trkpt><trkpt lat="45.607112" lon="11.430182"><ele>337.0</ele><time>2026-05-02T08:19:25.538Z</time></trkpt><trkpt lat="45.6070021" lon="11.4302941"><ele>336.75</ele><time>2026-05-02T08:19:26.538Z</time></trkpt><trkpt lat="45.606896" lon="11.4304053"><ele>336.5</ele><time>2026-05-02T08:19:27.538Z</time></trkpt><trkpt lat="45.6067794" lon="11.4305045"><ele>336.25</ele><time>2026-05-02T08:19:28.538Z</time></trkpt><trkpt lat="45.6066562" lon="11.4305902"><ele>336.0</ele><time>2026-05-02T08:19:29.537Z</time></trkpt><trkpt lat="45.6065331" lon="11.430685"><ele>335.3333333333333</ele><time>2026-05-02T08:19:30.538Z</time></trkpt><trkpt lat="45.6064096" lon="11.4307973"><ele>334.66666666666663</ele><time>2026-05-02T08:19:31.538Z</time></trkpt><trkpt lat="45.6062838" lon="11.4309318"><ele>334.0</ele><time>2026-05-02T08:19:32.539Z</time></trkpt><trkpt lat="45.6061599" lon="11.4310767"><ele>329.3333333333333</ele><time>2026-05-02T08:19:33.539Z</time></trkpt><trkpt lat="45.6060308" lon="11.4312224"><ele>324.6666666666667</ele><time>2026-05-02T08:19:34.538Z</time></trkpt><trkpt lat="45.6059008" lon="11.4313747"><ele>320.0</ele><time>2026-05-02T08:19:35.539Z</time></trkpt><trkpt lat="45.6057694" lon="11.431535"><ele>320.0</ele><time>2026-05-02T08:19:36.537Z</time></trkpt><trkpt lat="45.6056399" lon="11.4316928"><ele>320.0</ele><time>2026-05-02T08:19:37.538Z</time></trkpt><trkpt lat="45.605506" lon="11.4318486"><ele>320.0</ele><time>2026-05-02T08:19:38.538Z</time></trkpt><trkpt lat="45.6053726" lon="11.4320004"><ele>319.6666666666667</ele><time>2026-05-02T08:19:39.538Z</time></trkpt><trkpt lat="45.6052444" lon="11.4321538"><ele>319.3333333333333</ele><time>2026-05-02T08:19:40.539Z</time></trkpt><trkpt lat="45.6051238" lon="11.4323174"><ele>319.0</ele><time>2026-05-02T08:19:41.539Z</time></trkpt><trkpt lat="45.6050144" lon="11.4324854"><ele>319.0</ele><time>2026-05-02T08:19:42.538Z</time></trkpt><trkpt lat="45.6049127" lon="11.4326545"><ele>319.0</ele><time>2026-05-02T08:19:43.538Z</time></trkpt><trkpt lat="45.6048088" lon="11.4328252"><ele>319.0</ele><time>2026-05-02T08:19:44.538Z</time></trkpt><trkpt lat="45.6046999" lon="11.4329929"><ele>318.3333333333333</ele><time>2026-05-02T08:19:45.538Z</time></trkpt><trkpt lat="45.6045928" lon="11.4331579"><ele>317.6666666666667</ele><time>2026-05-02T08:19:46.539Z</time></trkpt><trkpt lat="45.6044862" lon="11.4333236"><ele>317.0</ele><time>2026-05-02T08:19:47.538Z</time></trkpt><trkpt lat="45.6043784" lon="11.433496"><ele>317.0</ele><time>2026-05-02T08:19:48.539Z</time></trkpt><trkpt lat="45.6042748" lon="11.433674"><ele>317.0</ele><time>2026-05-02T08:19:49.539Z</time></trkpt><trkpt lat="45.6041751" lon="11.4338618"><ele>317.0</ele><time>2026-05-02T08:19:50.538Z</time></trkpt><trkpt lat="45.604078" lon="11.4340496"><ele>315.33333333333337</ele><time>2026-05-02T08:19:51.538Z</time></trkpt><trkpt lat="45.6039789" lon="11.4342379"><ele>313.6666666666667</ele><time>2026-05-02T08:19:52.538Z</time></trkpt><trkpt lat="45.6038806" lon="11.4344212"><ele>312.0</ele><time>2026-05-02T08:19:53.538Z</time></trkpt><trkpt lat="45.6037818" lon="11.4346031"><ele>312.3333333333333</ele><time>2026-05-02T08:19:54.538Z</time></trkpt><trkpt lat="45.6036894" lon="11.4347843"><ele>312.66666666666663</ele><time>2026-05-02T08:19:55.537Z</time></trkpt><trkpt lat="45.6035849" lon="11.4349564"><ele>313.0</ele><time>2026-05-02T08:19:56.539Z</time></trkpt><trkpt lat="45.603468" lon="11.4351087"><ele>315.5</ele><time>2026-05-02T08:19:57.538Z</time></trkpt><trkpt lat="45.6033482" lon="11.4352547"><ele>318.0</ele><time>2026-05-02T08:19:58.539Z</time></trkpt><trkpt lat="45.6032351" lon="11.4353961"><ele>320.5</ele><time>2026-05-02T08:19:59.538Z</time></trkpt><trkpt lat="45.6031281" lon="11.4355291"><ele>323.0</ele><time>2026-05-02T08:20:00.538Z</time></trkpt><trkpt lat="45.6030162" lon="11.4356514"><ele>322.5</ele><time>2026-05-02T08:20:01.538Z</time></trkpt><trkpt lat="45.602894" lon="11.4357512"><ele>322.0</ele><time>2026-05-02T08:20:02.538Z</time></trkpt><trkpt lat="45.6027709" lon="11.4358422"><ele>321.5</ele><time>2026-05-02T08:20:03.539Z</time></trkpt><trkpt lat="45.6026487" lon="11.4359506"><ele>321.0</ele><time>2026-05-02T08:20:04.538Z</time></trkpt><trkpt lat="45.6025298" lon="11.4360766"><ele>321.0</ele><time>2026-05-02T08:20:05.537Z</time></trkpt><trkpt lat="45.602413" lon="11.4362047"><ele>321.0</ele><time>2026-05-02T08:20:06.537Z</time></trkpt><trkpt lat="45.6023005" lon="11.43633"><ele>321.0</ele><time>2026-05-02T08:20:07.538Z</time></trkpt><trkpt lat="45.6021913" lon="11.4364449"><ele>321.0</ele><time>2026-05-02T08:20:08.538Z</time></trkpt><trkpt lat="45.6020792" lon="11.4365384"><ele>321.5</ele><time>2026-05-02T08:20:09.538Z</time></trkpt><trkpt lat="45.6019642" lon="11.436614"><ele>322.0</ele><time>2026-05-02T08:20:10.538Z</time></trkpt><trkpt lat="45.6018447" lon="11.4366917"><ele>322.5</ele><time>2026-05-02T08:20:11.539Z</time></trkpt><trkpt lat="45.6017035" lon="11.4367423"><ele>323.0</ele><time>2026-05-02T08:20:12.538Z</time></trkpt><trkpt lat="45.6015751" lon="11.4368085"><ele>323.0</ele><time>2026-05-02T08:20:13.538Z</time></trkpt><trkpt lat="45.6014515" lon="11.436884"><ele>323.0</ele><time>2026-05-02T08:20:14.538Z</time></trkpt><trkpt lat="45.6013351" lon="11.4369821"><ele>323.0</ele><time>2026-05-02T08:20:15.538Z</time></trkpt><trkpt lat="45.601226" lon="11.4370977"><ele>323.0</ele><time>2026-05-02T08:20:16.538Z</time></trkpt><trkpt lat="45.6011253" lon="11.4372246"><ele>323.25</ele><time>2026-05-02T08:20:17.538Z</time></trkpt><trkpt lat="45.6010289" lon="11.4373579"><ele>323.5</ele><time>2026-05-02T08:20:18.538Z</time></trkpt><trkpt lat="45.6009323" lon="11.4374775"><ele>323.75</ele><time>2026-05-02T08:20:19.539Z</time></trkpt><trkpt lat="45.6008234" lon="11.4375753"><ele>324.0</ele><time>2026-05-02T08:20:20.538Z</time></trkpt><trkpt lat="45.6007075" lon="11.4376569"><ele>324.0</ele><time>2026-05-02T08:20:21.539Z</time></trkpt><trkpt lat="45.6005891" lon="11.4377231"><ele>324.0</ele><time>2026-05-02T08:20:22.538Z</time></trkpt><trkpt lat="45.6004626" lon="11.4377865"><ele>324.0</ele><time>2026-05-02T08:20:23.539Z</time></trkpt><trkpt lat="45.6003368" lon="11.437845"><ele>324.0</ele><time>2026-05-02T08:20:24.538Z</time></trkpt><trkpt lat="45.600219" lon="11.4379193"><ele>324.6</ele><time>2026-05-02T08:20:25.538Z</time></trkpt><trkpt lat="45.6001099" lon="11.4379975"><ele>325.2</ele><time>2026-05-02T08:20:26.539Z</time></trkpt><trkpt lat="45.6000103" lon="11.4380788"><ele>325.8</ele><time>2026-05-02T08:20:27.538Z</time></trkpt><trkpt lat="45.5999347" lon="11.4381618"><ele>326.40000000000003</ele><time>2026-05-02T08:20:28.539Z</time></trkpt><trkpt lat="45.5998725" lon="11.4382577"><ele>327.0</ele><time>2026-05-02T08:20:29.538Z</time></trkpt><trkpt lat="45.5998245" lon="11.4383734"><ele>327.0</ele><time>2026-05-02T08:20:30.539Z</time></trkpt><trkpt lat="45.5997935" lon="11.4385143"><ele>327.0</ele><time>2026-05-02T08:20:31.538Z</time></trkpt><trkpt lat="45.5997768" lon="11.4386706"><ele>327.0</ele><time>2026-05-02T08:20:32.538Z</time></trkpt><trkpt lat="45.5997754" lon="11.4388438"><ele>327.0</ele><time>2026-05-02T08:20:33.538Z</time></trkpt><trkpt lat="45.5997856" lon="11.4390269"><ele>328.25</ele><time>2026-05-02T08:20:34.538Z</time></trkpt><trkpt lat="45.5997944" lon="11.4392181"><ele>329.5</ele><time>2026-05-02T08:20:35.537Z</time></trkpt><trkpt lat="45.5997819" lon="11.4394151"><ele>330.75</ele><time>2026-05-02T08:20:36.538Z</time></trkpt><trkpt lat="45.5997574" lon="11.439606"><ele>332.0</ele><time>2026-05-02T08:20:37.538Z</time></trkpt><trkpt lat="45.5997441" lon="11.439791"><ele>332.25</ele><time>2026-05-02T08:20:38.539Z</time></trkpt><trkpt lat="45.5997417" lon="11.4399717"><ele>332.5</ele><time>2026-05-02T08:20:39.539Z</time></trkpt><trkpt lat="45.599758" lon="11.4401513"><ele>332.75</ele><time>2026-05-02T08:20:40.538Z</time></trkpt><trkpt lat="45.5997915" lon="11.4403328"><ele>333.0</ele><time>2026-05-02T08:20:41.538Z</time></trkpt><trkpt lat="45.599829" lon="11.4405188"><ele>332.25</ele><time>2026-05-02T08:20:42.538Z</time></trkpt><trkpt lat="45.5998685" lon="11.4407083"><ele>331.5</ele><time>2026-05-02T08:20:43.538Z</time></trkpt><trkpt lat="45.5999064" lon="11.4409035"><ele>330.75</ele><time>2026-05-02T08:20:44.537Z</time></trkpt><trkpt lat="45.5999418" lon="11.4411001"><ele>330.0</ele><time>2026-05-02T08:20:45.538Z</time></trkpt><trkpt lat="45.5999702" lon="11.4412985"><ele>328.25</ele><time>2026-05-02T08:20:46.537Z</time></trkpt><trkpt lat="45.5999922" lon="11.4414935"><ele>326.5</ele><time>2026-05-02T08:20:47.538Z</time></trkpt><trkpt lat="45.6000132" lon="11.4416851"><ele>324.75</ele><time>2026-05-02T08:20:48.538Z</time></trkpt><trkpt lat="45.6000367" lon="11.44187"><ele>323.0</ele><time>2026-05-02T08:20:49.537Z</time></trkpt><trkpt lat="45.600058" lon="11.4420483"><ele>320.25</ele><time>2026-05-02T08:20:50.538Z</time></trkpt><trkpt lat="45.6000793" lon="11.4422252"><ele>317.5</ele><time>2026-05-02T08:20:51.538Z</time></trkpt><trkpt lat="45.600124" lon="11.4423869"><ele>314.75</ele><time>2026-05-02T08:20:52.538Z</time></trkpt><trkpt lat="45.6001815" lon="11.4425535"><ele>312.0</ele><time>2026-05-02T08:20:53.539Z</time></trkpt><trkpt lat="45.6002552" lon="11.4427013"><ele>316.5</ele><time>2026-05-02T08:20:54.538Z</time></trkpt><trkpt lat="45.6003341" lon="11.4428214"><ele>321.0</ele><time>2026-05-02T08:20:55.538Z</time></trkpt><trkpt lat="45.6004202" lon="11.4429223"><ele>325.5</ele><time>2026-05-02T08:20:56.537Z</time></trkpt><trkpt lat="45.6004954" lon="11.4430411"><ele>330.0</ele><time>2026-05-02T08:20:57.538Z</time></trkpt><trkpt lat="45.600566" lon="11.4431831"><ele>330.0</ele><time>2026-05-02T08:20:58.539Z</time></trkpt><trkpt lat="45.6006273" lon="11.4433373"><ele>330.0</ele><time>2026-05-02T08:20:59.538Z</time></trkpt><trkpt lat="45.6006917" lon="11.4434902"><ele>330.0</ele><time>2026-05-02T08:21:00.538Z</time></trkpt><trkpt lat="45.6007493" lon="11.4436471"><ele>330.0</ele><time>2026-05-02T08:21:01.538Z</time></trkpt><trkpt lat="45.6007799" lon="11.4438201"><ele>328.0</ele><time>2026-05-02T08:21:02.538Z</time></trkpt><trkpt lat="45.6008048" lon="11.4439897"><ele>326.0</ele><time>2026-05-02T08:21:03.539Z</time></trkpt><trkpt lat="45.600795" lon="11.4441598"><ele>324.0</ele><time>2026-05-02T08:21:04.537Z</time></trkpt><trkpt lat="45.6007667" lon="11.4443247"><ele>322.0</ele><time>2026-05-02T08:21:05.539Z</time></trkpt><trkpt lat="45.6007263" lon="11.4444905"><ele>322.25</ele><time>2026-05-02T08:21:06.538Z</time></trkpt><trkpt lat="45.600687" lon="11.4446549"><ele>322.5</ele><time>2026-05-02T08:21:07.537Z</time></trkpt><trkpt lat="45.6006617" lon="11.4448072"><ele>322.75</ele><time>2026-05-02T08:21:08.538Z</time></trkpt><trkpt lat="45.6006636" lon="11.4449571"><ele>323.0</ele><time>2026-05-02T08:21:09.538Z</time></trkpt><trkpt lat="45.6006908" lon="11.445116"><ele>323.0</ele><time>2026-05-02T08:21:10.539Z</time></trkpt><trkpt lat="45.6007197" lon="11.4452827"><ele>323.0</ele><time>2026-05-02T08:21:11.538Z</time></trkpt><trkpt lat="45.6007532" lon="11.4454475"><ele>323.0</ele><time>2026-05-02T08:21:12.537Z</time></trkpt><trkpt lat="45.6007771" lon="11.4456068"><ele>323.0</ele><time>2026-05-02T08:21:13.538Z</time></trkpt><trkpt lat="45.600783" lon="11.4457646"><ele>323.0</ele><time>2026-05-02T08:21:14.538Z</time></trkpt><trkpt lat="45.6007688" lon="11.4459238"><ele>323.0</ele><time>2026-05-02T08:21:15.538Z</time></trkpt><trkpt lat="45.6007375" lon="11.4460848"><ele>323.0</ele><time>2026-05-02T08:21:16.538Z</time></trkpt><trkpt lat="45.6006974" lon="11.4462431"><ele>323.0</ele><time>2026-05-02T08:21:17.538Z</time></trkpt><trkpt lat="45.6006519" lon="11.4463991"><ele>324.0</ele><time>2026-05-02T08:21:18.538Z</time></trkpt><trkpt lat="45.6006046" lon="11.4465533"><ele>325.0</ele><time>2026-05-02T08:21:19.538Z</time></trkpt><trkpt lat="45.6005527" lon="11.4467056"><ele>326.0</ele><time>2026-05-02T08:21:20.539Z</time></trkpt><trkpt lat="45.600492" lon="11.4468503"><ele>327.0</ele><time>2026-05-02T08:21:21.538Z</time></trkpt><trkpt lat="45.600418" lon="11.4469847"><ele>327.0</ele><time>2026-05-02T08:21:22.538Z</time></trkpt><trkpt lat="45.6003431" lon="11.4471108"><ele>327.0</ele><time>2026-05-02T08:21:23.538Z</time></trkpt><trkpt lat="45.6002661" lon="11.447231"><ele>327.0</ele><time>2026-05-02T08:21:24.537Z</time></trkpt><trkpt lat="45.6001817" lon="11.4473649"><ele>327.0</ele><time>2026-05-02T08:21:25.537Z</time></trkpt><trkpt lat="45.6001033" lon="11.4475097"><ele>324.5</ele><time>2026-05-02T08:21:26.539Z</time></trkpt><trkpt lat="45.6000349" lon="11.4476521"><ele>322.0</ele><time>2026-05-02T08:21:27.538Z</time></trkpt><trkpt lat="45.5999715" lon="11.4477965"><ele>319.5</ele><time>2026-05-02T08:21:28.538Z</time></trkpt><trkpt lat="45.5999127" lon="11.4479395"><ele>317.0</ele><time>2026-05-02T08:21:29.538Z</time></trkpt><trkpt lat="45.5998423" lon="11.4480676"><ele>315.5</ele><time>2026-05-02T08:21:30.538Z</time></trkpt><trkpt lat="45.5997575" lon="11.4481816"><ele>314.0</ele><time>2026-05-02T08:21:31.538Z</time></trkpt><trkpt lat="45.5996745" lon="11.4482981"><ele>312.5</ele><time>2026-05-02T08:21:32.538Z</time></trkpt><trkpt lat="45.599598" lon="11.4484227"><ele>311.0</ele><time>2026-05-02T08:21:33.539Z</time></trkpt><trkpt lat="45.599523" lon="11.448546"><ele>310.0</ele><time>2026-05-02T08:21:34.538Z</time></trkpt><trkpt lat="45.5994458" lon="11.448669"><ele>309.0</ele><time>2026-05-02T08:21:35.539Z</time></trkpt><trkpt lat="45.59937" lon="11.4487968"><ele>308.0</ele><time>2026-05-02T08:21:36.539Z</time></trkpt><trkpt lat="45.5992943" lon="11.4489278"><ele>307.0</ele><time>2026-05-02T08:21:37.537Z</time></trkpt><trkpt lat="45.5992183" lon="11.4490528"><ele>307.0</ele><time>2026-05-02T08:21:38.538Z</time></trkpt><trkpt lat="45.5991377" lon="11.4491672"><ele>307.0</ele><time>2026-05-02T08:21:39.538Z</time></trkpt><trkpt lat="45.5990384" lon="11.4492542"><ele>307.0</ele><time>2026-05-02T08:21:40.537Z</time></trkpt><trkpt lat="45.5989256" lon="11.4493342"><ele>307.0</ele><time>2026-05-02T08:21:41.538Z</time></trkpt><trkpt lat="45.5988022" lon="11.4494034"><ele>307.0</ele><time>2026-05-02T08:21:42.537Z</time></trkpt><trkpt lat="45.5986726" lon="11.4494627"><ele>307.0</ele><time>2026-05-02T08:21:43.538Z</time></trkpt><trkpt lat="45.5985412" lon="11.4495057"><ele>307.0</ele><time>2026-05-02T08:21:44.537Z</time></trkpt><trkpt lat="45.5984059" lon="11.4495417"><ele>307.0</ele><time>2026-05-02T08:21:45.538Z</time></trkpt><trkpt lat="45.5982678" lon="11.4495684"><ele>307.25</ele><time>2026-05-02T08:21:46.539Z</time></trkpt><trkpt lat="45.5981342" lon="11.4495899"><ele>307.5</ele><time>2026-05-02T08:21:47.538Z</time></trkpt><trkpt lat="45.5980052" lon="11.4496139"><ele>307.75</ele><time>2026-05-02T08:21:48.539Z</time></trkpt><trkpt lat="45.597885" lon="11.4496335"><ele>308.0</ele><time>2026-05-02T08:21:49.538Z</time></trkpt><trkpt lat="45.5977751" lon="11.4496522"><ele>307.5</ele><time>2026-05-02T08:21:50.538Z</time></trkpt><trkpt lat="45.5976738" lon="11.4496715"><ele>307.0</ele><time>2026-05-02T08:21:51.538Z</time></trkpt><trkpt lat="45.5975822" lon="11.4496986"><ele>306.5</ele><time>2026-05-02T08:21:52.537Z</time></trkpt><trkpt lat="45.5974992" lon="11.4497226"><ele>306.0</ele><time>2026-05-02T08:21:53.538Z</time></trkpt><trkpt lat="45.5974314" lon="11.4497264"><ele>305.5</ele><time>2026-05-02T08:21:54.538Z</time></trkpt><trkpt lat="45.5973633" lon="11.4496922"><ele>305.0</ele><time>2026-05-02T08:21:57.537Z</time></trkpt><trkpt lat="45.597344" lon="11.4497794"><ele>305.0</ele><time>2026-05-02T08:22:03.538Z</time></trkpt><trkpt lat="45.597313" lon="11.4498917"><ele>305.0</ele><time>2026-05-02T08:22:06.538Z</time></trkpt><trkpt lat="45.597223" lon="11.4499889"><ele>305.0</ele><time>2026-05-02T08:22:08.538Z</time></trkpt><trkpt lat="45.5971686" lon="11.4500613"><ele>305.0</ele><time>2026-05-02T08:22:09.538Z</time></trkpt><trkpt lat="45.5971222" lon="11.4501598"><ele>305.0</ele><time>2026-05-02T08:22:10.539Z</time></trkpt><trkpt lat="45.5970858" lon="11.4502789"><ele>305.0</ele><time>2026-05-02T08:22:11.538Z</time></trkpt><trkpt lat="45.5970574" lon="11.4504128"><ele>304.6</ele><time>2026-05-02T08:22:12.538Z</time></trkpt><trkpt lat="45.5970263" lon="11.4505542"><ele>304.2</ele><time>2026-05-02T08:22:13.539Z</time></trkpt><trkpt lat="45.5969948" lon="11.4506947"><ele>303.8</ele><time>2026-05-02T08:22:14.538Z</time></trkpt><trkpt lat="45.596966" lon="11.4508288"><ele>303.4</ele><time>2026-05-02T08:22:15.538Z</time></trkpt><trkpt lat="45.5969358" lon="11.4509601"><ele>303.0</ele><time>2026-05-02T08:22:16.537Z</time></trkpt><trkpt lat="45.5969009" lon="11.4510918"><ele>301.1666666666667</ele><time>2026-05-02T08:22:17.538Z</time></trkpt><trkpt lat="45.596866" lon="11.4512134"><ele>299.3333333333333</ele><time>2026-05-02T08:22:18.538Z</time></trkpt><trkpt lat="45.5968326" lon="11.4513235"><ele>297.5</ele><time>2026-05-02T08:22:19.538Z</time></trkpt><trkpt lat="45.5967981" lon="11.4514252"><ele>295.66666666666663</ele><time>2026-05-02T08:22:20.539Z</time></trkpt><trkpt lat="45.5967613" lon="11.4515134"><ele>293.8333333333333</ele><time>2026-05-02T08:22:21.538Z</time></trkpt><trkpt lat="45.5967217" lon="11.451593"><ele>292.0</ele><time>2026-05-02T08:22:22.539Z</time></trkpt><trkpt lat="45.5966796" lon="11.4516611"><ele>292.0</ele><time>2026-05-02T08:22:23.538Z</time></trkpt><trkpt lat="45.5966162" lon="11.4517468"><ele>292.0</ele><time>2026-05-02T08:22:25.539Z</time></trkpt><trkpt lat="45.5965539" lon="11.4518137"><ele>292.0</ele><time>2026-05-02T08:22:28.538Z</time></trkpt><trkpt lat="45.5964773" lon="11.4517989"><ele>292.0</ele><time>2026-05-02T08:22:32.538Z</time></trkpt><trkpt lat="45.5965084" lon="11.451709"><ele>292.0</ele><time>2026-05-02T08:22:35.539Z</time></trkpt><trkpt lat="45.5965715" lon="11.4516164"><ele>292.0</ele><time>2026-05-02T08:22:37.537Z</time></trkpt><trkpt lat="45.5966019" lon="11.4515366"><ele>292.0</ele><time>2026-05-02T08:22:38.537Z</time></trkpt><trkpt lat="45.596627" lon="11.4514443"><ele>292.0</ele><time>2026-05-02T08:22:39.538Z</time></trkpt><trkpt lat="45.5966464" lon="11.4513416"><ele>292.0</ele><time>2026-05-02T08:22:40.539Z</time></trkpt><trkpt lat="45.5966606" lon="11.4512247"><ele>292.0</ele><time>2026-05-02T08:22:41.538Z</time></trkpt><trkpt lat="45.596662" lon="11.4510926"><ele>292.0</ele><time>2026-05-02T08:22:42.538Z</time></trkpt><trkpt lat="45.5966492" lon="11.4509543"><ele>292.0</ele><time>2026-05-02T08:22:43.538Z</time></trkpt><trkpt lat="45.5966283" lon="11.4508259"><ele>291.8333333333333</ele><time>2026-05-02T08:22:44.538Z</time></trkpt><trkpt lat="45.5966036" lon="11.4507076"><ele>291.66666666666663</ele><time>2026-05-02T08:22:45.538Z</time></trkpt><trkpt lat="45.5965769" lon="11.4506028"><ele>291.5</ele><time>2026-05-02T08:22:46.539Z</time></trkpt><trkpt lat="45.5965546" lon="11.450498"><ele>291.3333333333333</ele><time>2026-05-02T08:22:47.539Z</time></trkpt><trkpt lat="45.596532" lon="11.4503944"><ele>291.1666666666667</ele><time>2026-05-02T08:22:48.539Z</time></trkpt><trkpt lat="45.5965022" lon="11.4502956"><ele>291.0</ele><time>2026-05-02T08:22:49.538Z</time></trkpt><trkpt lat="45.596465" lon="11.450209"><ele>291.0</ele><time>2026-05-02T08:22:50.538Z</time></trkpt><trkpt lat="45.596402" lon="11.4500759"><ele>291.0</ele><time>2026-05-02T08:22:52.539Z</time></trkpt><trkpt lat="45.5963302" lon="11.4500149"><ele>291.0</ele><time>2026-05-02T08:22:54.539Z</time></trkpt><trkpt lat="45.5962617" lon="11.45007"><ele>291.0</ele><time>2026-05-02T08:22:56.538Z</time></trkpt><trkpt lat="45.5962847" lon="11.4501808"><ele>291.0</ele><time>2026-05-02T08:22:58.539Z</time></trkpt><trkpt lat="45.5963789" lon="11.450289"><ele>291.0</ele><time>2026-05-02T08:23:00.539Z</time></trkpt><trkpt lat="45.596437" lon="11.4503616"><ele>291.0</ele><time>2026-05-02T08:23:01.538Z</time></trkpt><trkpt lat="45.5964971" lon="11.4504554"><ele>291.0</ele><time>2026-05-02T08:23:02.539Z</time></trkpt><trkpt lat="45.5965488" lon="11.4505667"><ele>291.0</ele><time>2026-05-02T08:23:03.538Z</time></trkpt><trkpt lat="45.5965947" lon="11.4506982"><ele>291.0</ele><time>2026-05-02T08:23:04.539Z</time></trkpt><trkpt lat="45.5966286" lon="11.4508419"><ele>291.2</ele><time>2026-05-02T08:23:05.538Z</time></trkpt><trkpt lat="45.5966481" lon="11.4509919"><ele>291.40000000000003</ele><time>2026-05-02T08:23:06.538Z</time></trkpt><trkpt lat="45.5966516" lon="11.4511405"><ele>291.6</ele><time>2026-05-02T08:23:07.539Z</time></trkpt><trkpt lat="45.5966406" lon="11.451291"><ele>291.8</ele><time>2026-05-02T08:23:08.538Z</time></trkpt><trkpt lat="45.5966121" lon="11.4514273"><ele>292.0</ele><time>2026-05-02T08:23:09.538Z</time></trkpt><trkpt lat="45.5965754" lon="11.4515489"><ele>292.0</ele><time>2026-05-02T08:23:10.538Z</time></trkpt><trkpt lat="45.5965399" lon="11.4516445"><ele>292.0</ele><time>2026-05-02T08:23:11.539Z</time></trkpt><trkpt lat="45.5964685" lon="11.4517688"><ele>292.0</ele><time>2026-05-02T08:23:13.538Z</time></trkpt><trkpt lat="45.5964251" lon="11.4518657"><ele>292.0</ele><time>2026-05-02T08:23:16.538Z</time></trkpt><trkpt lat="45.5964741" lon="11.4519323"><ele>292.0</ele><time>2026-05-02T08:23:19.538Z</time></trkpt><trkpt lat="45.5965418" lon="11.4518838"><ele>292.0</ele><time>2026-05-02T08:23:21.538Z</time></trkpt><trkpt lat="45.5966537" lon="11.4518583"><ele>292.0</ele><time>2026-05-02T08:23:23.538Z</time></trkpt><trkpt lat="45.5967336" lon="11.4518739"><ele>292.0</ele><time>2026-05-02T08:23:24.539Z</time></trkpt><trkpt lat="45.5968223" lon="11.4518808"><ele>292.0</ele><time>2026-05-02T08:23:25.538Z</time></trkpt><trkpt lat="45.5969065" lon="11.4518885"><ele>292.0</ele><time>2026-05-02T08:23:26.539Z</time></trkpt><trkpt lat="45.5969758" lon="11.4518958"><ele>292.0</ele><time>2026-05-02T08:23:27.538Z</time></trkpt><trkpt lat="45.5970812" lon="11.4519228"><ele>292.0</ele><time>2026-05-02T08:23:29.538Z</time></trkpt><trkpt lat="45.597101" lon="11.452036"><ele>291.2</ele><time>2026-05-02T08:23:31.538Z</time></trkpt><trkpt lat="45.5970068" lon="11.4521244"><ele>290.4</ele><time>2026-05-02T08:23:33.538Z</time></trkpt><trkpt lat="45.5969276" lon="11.4521528"><ele>289.6</ele><time>2026-05-02T08:23:34.539Z</time></trkpt><trkpt lat="45.5968525" lon="11.4522365"><ele>288.8</ele><time>2026-05-02T08:23:35.538Z</time></trkpt><trkpt lat="45.596784" lon="11.4523515"><ele>288.0</ele><time>2026-05-02T08:23:36.539Z</time></trkpt><trkpt lat="45.5967223" lon="11.4524704"><ele>288.0</ele><time>2026-05-02T08:23:37.537Z</time></trkpt><trkpt lat="45.5966612" lon="11.4525906"><ele>288.0</ele><time>2026-05-02T08:23:38.538Z</time></trkpt><trkpt lat="45.596599" lon="11.4527057"><ele>288.0</ele><time>2026-05-02T08:23:39.537Z</time></trkpt><trkpt lat="45.5965365" lon="11.4528116"><ele>288.0</ele><time>2026-05-02T08:23:40.538Z</time></trkpt><trkpt lat="45.5964625" lon="11.4529075"><ele>288.0</ele><time>2026-05-02T08:23:41.538Z</time></trkpt><trkpt lat="45.5963673" lon="11.4529849"><ele>284.25</ele><time>2026-05-02T08:23:42.537Z</time></trkpt><trkpt lat="45.5962631" lon="11.4530431"><ele>280.5</ele><time>2026-05-02T08:23:43.539Z</time></trkpt><trkpt lat="45.5961541" lon="11.45307"><ele>276.75</ele><time>2026-05-02T08:23:44.539Z</time></trkpt><trkpt lat="45.596033" lon="11.4530683"><ele>273.0</ele><time>2026-05-02T08:23:45.537Z</time></trkpt><trkpt lat="45.595905" lon="11.4530674"><ele>273.0</ele><time>2026-05-02T08:23:46.538Z</time></trkpt><trkpt lat="45.5957662" lon="11.453075"><ele>273.0</ele><time>2026-05-02T08:23:47.538Z</time></trkpt><trkpt lat="45.5956231" lon="11.4530802"><ele>273.0</ele><time>2026-05-02T08:23:48.539Z</time></trkpt><trkpt lat="45.5954779" lon="11.4531043"><ele>273.0</ele><time>2026-05-02T08:23:49.538Z</time></trkpt><trkpt lat="45.5953355" lon="11.4531493"><ele>271.75</ele><time>2026-05-02T08:23:50.538Z</time></trkpt><trkpt lat="45.5951972" lon="11.4532078"><ele>270.5</ele><time>2026-05-02T08:23:51.538Z</time></trkpt><trkpt lat="45.5950641" lon="11.4532697"><ele>269.25</ele><time>2026-05-02T08:23:52.538Z</time></trkpt><trkpt lat="45.594933" lon="11.4533299"><ele>268.0</ele><time>2026-05-02T08:23:53.538Z</time></trkpt><trkpt lat="45.5948051" lon="11.4533883"><ele>268.0</ele><time>2026-05-02T08:23:54.537Z</time></trkpt><trkpt lat="45.5946847" lon="11.4534429"><ele>268.0</ele><time>2026-05-02T08:23:55.538Z</time></trkpt><trkpt lat="45.5945733" lon="11.4534924"><ele>268.0</ele><time>2026-05-02T08:23:56.538Z</time></trkpt><trkpt lat="45.5944779" lon="11.4535371"><ele>268.0</ele><time>2026-05-02T08:23:57.539Z</time></trkpt><trkpt lat="45.5943975" lon="11.4535722"><ele>268.0</ele><time>2026-05-02T08:23:58.538Z</time></trkpt><trkpt lat="45.5943367" lon="11.453612"><ele>267.8</ele><time>2026-05-02T08:23:59.539Z</time></trkpt><trkpt lat="45.5943151" lon="11.4537648"><ele>267.6</ele><time>2026-05-02T08:24:01.537Z</time></trkpt><trkpt lat="45.5943594" lon="11.4538439"><ele>267.4</ele><time>2026-05-02T08:24:02.539Z</time></trkpt><trkpt lat="45.5944232" lon="11.4539267"><ele>267.2</ele><time>2026-05-02T08:24:03.538Z</time></trkpt><trkpt lat="45.5944843" lon="11.4540297"><ele>267.0</ele><time>2026-05-02T08:24:04.538Z</time></trkpt><trkpt lat="45.5945295" lon="11.4541488"><ele>265.2</ele><time>2026-05-02T08:24:05.539Z</time></trkpt><trkpt lat="45.5945452" lon="11.4542884"><ele>263.4</ele><time>2026-05-02T08:24:06.538Z</time></trkpt><trkpt lat="45.5945465" lon="11.4544281"><ele>261.6</ele><time>2026-05-02T08:24:07.538Z</time></trkpt><trkpt lat="45.5945511" lon="11.4545679"><ele>259.8</ele><time>2026-05-02T08:24:08.538Z</time></trkpt><trkpt lat="45.594566" lon="11.4546897"><ele>258.0</ele><time>2026-05-02T08:24:09.537Z</time></trkpt><trkpt lat="45.5945966" lon="11.4547895"><ele>256.2</ele><time>2026-05-02T08:24:10.538Z</time></trkpt><trkpt lat="45.5946509" lon="11.4548713"><ele>254.4</ele><time>2026-05-02T08:24:11.538Z</time></trkpt><trkpt lat="45.594726" lon="11.4549127"><ele>252.59999999999997</ele><time>2026-05-02T08:24:12.539Z</time></trkpt><trkpt lat="45.5948176" lon="11.4549427"><ele>250.79999999999998</ele><time>2026-05-02T08:24:13.539Z</time></trkpt><trkpt lat="45.5949271" lon="11.4549672"><ele>249.0</ele><time>2026-05-02T08:24:14.539Z</time></trkpt><trkpt lat="45.5950518" lon="11.4549807"><ele>249.0</ele><time>2026-05-02T08:24:15.537Z</time></trkpt><trkpt lat="45.5951854" lon="11.4549914"><ele>249.0</ele><time>2026-05-02T08:24:16.537Z</time></trkpt><trkpt lat="45.5953226" lon="11.4549963"><ele>249.0</ele><time>2026-05-02T08:24:17.538Z</time></trkpt><trkpt lat="45.5954513" lon="11.4549876"><ele>249.0</ele><time>2026-05-02T08:24:18.538Z</time></trkpt><trkpt lat="45.5955631" lon="11.4549988"><ele>248.5</ele><time>2026-05-02T08:24:19.537Z</time></trkpt><trkpt lat="45.5956647" lon="11.4550583"><ele>248.0</ele><time>2026-05-02T08:24:20.538Z</time></trkpt><trkpt lat="45.5957506" lon="11.4551641"><ele>247.5</ele><time>2026-05-02T08:24:21.538Z</time></trkpt><trkpt lat="45.5958283" lon="11.4552854"><ele>247.0</ele><time>2026-05-02T08:24:22.539Z</time></trkpt><trkpt lat="45.5959287" lon="11.4553792"><ele>245.25</ele><time>2026-05-02T08:24:23.538Z</time></trkpt><trkpt lat="45.5960452" lon="11.4554619"><ele>243.5</ele><time>2026-05-02T08:24:24.538Z</time></trkpt><trkpt lat="45.5961707" lon="11.4555381"><ele>241.75</ele><time>2026-05-02T08:24:25.538Z</time></trkpt><trkpt lat="45.5963087" lon="11.455605"><ele>240.0</ele><time>2026-05-02T08:24:26.538Z</time></trkpt><trkpt lat="45.5964528" lon="11.4556687"><ele>240.0</ele><time>2026-05-02T08:24:27.539Z</time></trkpt><trkpt lat="45.5965938" lon="11.455725"><ele>240.0</ele><time>2026-05-02T08:24:28.539Z</time></trkpt><trkpt lat="45.5967259" lon="11.4557745"><ele>240.0</ele><time>2026-05-02T08:24:29.538Z</time></trkpt><trkpt lat="45.5968382" lon="11.4558148"><ele>240.0</ele><time>2026-05-02T08:24:30.538Z</time></trkpt><trkpt lat="45.5969315" lon="11.4558519"><ele>239.6</ele><time>2026-05-02T08:24:31.539Z</time></trkpt><trkpt lat="45.597015" lon="11.4558998"><ele>239.2</ele><time>2026-05-02T08:24:32.538Z</time></trkpt><trkpt lat="45.5970824" lon="11.4559822"><ele>238.8</ele><time>2026-05-02T08:24:33.537Z</time></trkpt><trkpt lat="45.5971215" lon="11.4561037"><ele>238.4</ele><time>2026-05-02T08:24:34.537Z</time></trkpt><trkpt lat="45.5971286" lon="11.4562368"><ele>238.0</ele><time>2026-05-02T08:24:35.537Z</time></trkpt><trkpt lat="45.5971398" lon="11.456366"><ele>236.4</ele><time>2026-05-02T08:24:36.538Z</time></trkpt><trkpt lat="45.5971654" lon="11.4564926"><ele>234.8</ele><time>2026-05-02T08:24:37.539Z</time></trkpt><trkpt lat="45.5971765" lon="11.4566397"><ele>233.2</ele><time>2026-05-02T08:24:38.538Z</time></trkpt><trkpt lat="45.5971737" lon="11.4567907"><ele>231.6</ele><time>2026-05-02T08:24:39.537Z</time></trkpt><trkpt lat="45.5971443" lon="11.4569369"><ele>230.0</ele><time>2026-05-02T08:24:40.539Z</time></trkpt><trkpt lat="45.5970825" lon="11.4570727"><ele>228.25</ele><time>2026-05-02T08:24:41.539Z</time></trkpt><trkpt lat="45.5970099" lon="11.457205"><ele>226.5</ele><time>2026-05-02T08:24:42.538Z</time></trkpt><trkpt lat="45.5969444" lon="11.4573542"><ele>224.75</ele><time>2026-05-02T08:24:43.538Z</time></trkpt><trkpt lat="45.5968834" lon="11.4575129"><ele>223.0</ele><time>2026-05-02T08:24:44.539Z</time></trkpt><trkpt lat="45.5968329" lon="11.4576757"><ele>223.0</ele><time>2026-05-02T08:24:45.538Z</time></trkpt><trkpt lat="45.5967976" lon="11.4578537"><ele>223.0</ele><time>2026-05-02T08:24:46.538Z</time></trkpt><trkpt lat="45.5967718" lon="11.4580486"><ele>223.0</ele><time>2026-05-02T08:24:47.538Z</time></trkpt><trkpt lat="45.5967533" lon="11.4582497"><ele>223.0</ele><time>2026-05-02T08:24:48.538Z</time></trkpt><trkpt lat="45.5967397" lon="11.4584524"><ele>222.25</ele><time>2026-05-02T08:24:49.539Z</time></trkpt><trkpt lat="45.5967285" lon="11.4586529"><ele>221.5</ele><time>2026-05-02T08:24:50.538Z</time></trkpt><trkpt lat="45.5967288" lon="11.4588537"><ele>220.75</ele><time>2026-05-02T08:24:51.538Z</time></trkpt><trkpt lat="45.5967362" lon="11.4590531"><ele>220.0</ele><time>2026-05-02T08:24:52.538Z</time></trkpt><trkpt lat="45.5967464" lon="11.4592456"><ele>218.0</ele><time>2026-05-02T08:24:53.538Z</time></trkpt><trkpt lat="45.596751" lon="11.4594355"><ele>216.0</ele><time>2026-05-02T08:24:54.538Z</time></trkpt><trkpt lat="45.5967357" lon="11.4596088"><ele>214.0</ele><time>2026-05-02T08:24:55.538Z</time></trkpt><trkpt lat="45.5967148" lon="11.4597527"><ele>212.0</ele><time>2026-05-02T08:24:56.538Z</time></trkpt><trkpt lat="45.5966958" lon="11.4598796"><ele>210.0</ele><time>2026-05-02T08:24:57.539Z</time></trkpt><trkpt lat="45.5966973" lon="11.4600122"><ele>208.8</ele><time>2026-05-02T08:24:58.539Z</time></trkpt><trkpt lat="45.5967227" lon="11.460134"><ele>207.6</ele><time>2026-05-02T08:24:59.539Z</time></trkpt><trkpt lat="45.5967734" lon="11.460243"><ele>206.39999999999998</ele><time>2026-05-02T08:25:00.537Z</time></trkpt><trkpt lat="45.59683" lon="11.460345"><ele>205.2</ele><time>2026-05-02T08:25:01.538Z</time></trkpt><trkpt lat="45.5968936" lon="11.4604423"><ele>204.0</ele><time>2026-05-02T08:25:02.538Z</time></trkpt><trkpt lat="45.5969563" lon="11.4605418"><ele>202.0</ele><time>2026-05-02T08:25:03.537Z</time></trkpt><trkpt lat="45.597023" lon="11.4606422"><ele>200.0</ele><time>2026-05-02T08:25:04.537Z</time></trkpt><trkpt lat="45.5970929" lon="11.4607413"><ele>198.0</ele><time>2026-05-02T08:25:05.537Z</time></trkpt><trkpt lat="45.5971738" lon="11.460826"><ele>196.0</ele><time>2026-05-02T08:25:06.539Z</time></trkpt><trkpt lat="45.5972579" lon="11.4608812"><ele>194.0</ele><time>2026-05-02T08:25:07.538Z</time></trkpt><trkpt lat="45.59732" lon="11.4609389"><ele>194.00000000000003</ele><time>2026-05-02T08:25:08.539Z</time></trkpt><trkpt lat="45.5973602" lon="11.4610345"><ele>194.0</ele><time>2026-05-02T08:25:09.538Z</time></trkpt><trkpt lat="45.5973542" lon="11.4611453"><ele>194.0</ele><time>2026-05-02T08:25:10.538Z</time></trkpt><trkpt lat="45.5973154" lon="11.4612468"><ele>194.0</ele><time>2026-05-02T08:25:11.539Z</time></trkpt><trkpt lat="45.5972538" lon="11.4613557"><ele>194.00000000000003</ele><time>2026-05-02T08:25:12.537Z</time></trkpt><trkpt lat="45.5971765" lon="11.4614373"><ele>194.0</ele><time>2026-05-02T08:25:13.539Z</time></trkpt><trkpt lat="45.5970935" lon="11.4614912"><ele>193.6</ele><time>2026-05-02T08:25:14.538Z</time></trkpt><trkpt lat="45.5970171" lon="11.4615674"><ele>193.2</ele><time>2026-05-02T08:25:15.538Z</time></trkpt><trkpt lat="45.5969528" lon="11.4616752"><ele>192.79999999999998</ele><time>2026-05-02T08:25:16.538Z</time></trkpt><trkpt lat="45.5969012" lon="11.4618121"><ele>192.39999999999998</ele><time>2026-05-02T08:25:17.537Z</time></trkpt><trkpt lat="45.5968685" lon="11.461972"><ele>192.0</ele><time>2026-05-02T08:25:18.537Z</time></trkpt><trkpt lat="45.5968468" lon="11.4621498"><ele>191.25</ele><time>2026-05-02T08:25:19.538Z</time></trkpt><trkpt lat="45.59682" lon="11.4623295"><ele>190.5</ele><time>2026-05-02T08:25:20.538Z</time></trkpt><trkpt lat="45.5967835" lon="11.4625127"><ele>189.75</ele><time>2026-05-02T08:25:21.538Z</time></trkpt><trkpt lat="45.596735" lon="11.4626928"><ele>189.0</ele><time>2026-05-02T08:25:22.539Z</time></trkpt><trkpt lat="45.5966729" lon="11.4628725"><ele>186.75</ele><time>2026-05-02T08:25:23.538Z</time></trkpt><trkpt lat="45.5966083" lon="11.4630618"><ele>184.5</ele><time>2026-05-02T08:25:24.538Z</time></trkpt><trkpt lat="45.5965406" lon="11.4632477"><ele>182.25</ele><time>2026-05-02T08:25:25.538Z</time></trkpt><trkpt lat="45.5964763" lon="11.4634165"><ele>180.0</ele><time>2026-05-02T08:25:26.537Z</time></trkpt><trkpt lat="45.5964137" lon="11.4635751"><ele>180.0</ele><time>2026-05-02T08:25:27.538Z</time></trkpt><trkpt lat="45.5963462" lon="11.4637219"><ele>180.0</ele><time>2026-05-02T08:25:28.538Z</time></trkpt><trkpt lat="45.5962631" lon="11.4638472"><ele>180.0</ele><time>2026-05-02T08:25:29.538Z</time></trkpt><trkpt lat="45.5961716" lon="11.4639548"><ele>180.0</ele><time>2026-05-02T08:25:30.538Z</time></trkpt><trkpt lat="45.5960738" lon="11.4640472"><ele>179.0</ele><time>2026-05-02T08:25:31.538Z</time></trkpt><trkpt lat="45.5959831" lon="11.4641236"><ele>178.0</ele><time>2026-05-02T08:25:32.538Z</time></trkpt><trkpt lat="45.5958992" lon="11.4641797"><ele>177.0</ele><time>2026-05-02T08:25:33.538Z</time></trkpt><trkpt lat="45.595826" lon="11.4642138"><ele>176.0</ele><time>2026-05-02T08:25:34.538Z</time></trkpt><trkpt lat="45.5957569" lon="11.4643305"><ele>175.0</ele><time>2026-05-02T08:25:36.539Z</time></trkpt><trkpt lat="45.5958093" lon="11.4644358"><ele>175.0</ele><time>2026-05-02T08:25:38.538Z</time></trkpt><trkpt lat="45.5958724" lon="11.4644403"><ele>175.0</ele><time>2026-05-02T08:25:39.538Z</time></trkpt><trkpt lat="45.5959547" lon="11.4644158"><ele>175.0</ele><time>2026-05-02T08:25:40.538Z</time></trkpt><trkpt lat="45.596045" lon="11.4643815"><ele>175.0</ele><time>2026-05-02T08:25:41.538Z</time></trkpt><trkpt lat="45.596132" lon="11.4643465"><ele>175.0</ele><time>2026-05-02T08:25:42.538Z</time></trkpt><trkpt lat="45.5962079" lon="11.4643107"><ele>175.0</ele><time>2026-05-02T08:25:43.538Z</time></trkpt><trkpt lat="45.5962712" lon="11.4642813"><ele>175.0</ele><time>2026-05-02T08:25:44.537Z</time></trkpt><trkpt lat="45.5963661" lon="11.4643071"><ele>175.0</ele><time>2026-05-02T08:25:46.538Z</time></trkpt><trkpt lat="45.5963643" lon="11.4644281"><ele>175.0</ele><time>2026-05-02T08:25:48.537Z</time></trkpt><trkpt lat="45.5963086" lon="11.4644832"><ele>175.0</ele><time>2026-05-02T08:25:49.537Z</time></trkpt><trkpt lat="45.5962214" lon="11.4645147"><ele>175.0</ele><time>2026-05-02T08:25:50.538Z</time></trkpt><trkpt lat="45.596117" lon="11.4645666"><ele>175.0</ele><time>2026-05-02T08:25:51.539Z</time></trkpt><trkpt lat="45.5960025" lon="11.4646266"><ele>172.25</ele><time>2026-05-02T08:25:52.538Z</time></trkpt><trkpt lat="45.5958814" lon="11.4646946"><ele>169.5</ele><time>2026-05-02T08:25:53.537Z</time></trkpt><trkpt lat="45.5957646" lon="11.4647636"><ele>166.75</ele><time>2026-05-02T08:25:54.538Z</time></trkpt><trkpt lat="45.5956565" lon="11.4648298"><ele>164.0</ele><time>2026-05-02T08:25:55.538Z</time></trkpt><trkpt lat="45.595556" lon="11.464909"><ele>164.0</ele><time>2026-05-02T08:25:56.538Z</time></trkpt><trkpt lat="45.5954679" lon="11.465002"><ele>164.0</ele><time>2026-05-02T08:25:57.539Z</time></trkpt><trkpt lat="45.5954004" lon="11.4651334"><ele>164.0</ele><time>2026-05-02T08:25:58.538Z</time></trkpt><trkpt lat="45.5953528" lon="11.4652856"><ele>164.0</ele><time>2026-05-02T08:25:59.538Z</time></trkpt><trkpt lat="45.5953301" lon="11.465439"><ele>164.6</ele><time>2026-05-02T08:26:00.539Z</time></trkpt><trkpt lat="45.5953347" lon="11.4655857"><ele>165.2</ele><time>2026-05-02T08:26:01.538Z</time></trkpt><trkpt lat="45.595375" lon="11.4657105"><ele>165.79999999999998</ele><time>2026-05-02T08:26:02.537Z</time></trkpt><trkpt lat="45.5954446" lon="11.4658016"><ele>166.39999999999998</ele><time>2026-05-02T08:26:03.538Z</time></trkpt><trkpt lat="45.5955236" lon="11.465872"><ele>167.0</ele><time>2026-05-02T08:26:04.538Z</time></trkpt><trkpt lat="45.5955973" lon="11.4659255"><ele>165.5</ele><time>2026-05-02T08:26:05.538Z</time></trkpt><trkpt lat="45.5956558" lon="11.4659957"><ele>164.0</ele><time>2026-05-02T08:26:06.537Z</time></trkpt><trkpt lat="45.5956916" lon="11.4660938"><ele>162.5</ele><time>2026-05-02T08:26:07.538Z</time></trkpt><trkpt lat="45.5956833" lon="11.4662005"><ele>161.0</ele><time>2026-05-02T08:26:08.537Z</time></trkpt><trkpt lat="45.5956453" lon="11.4662853"><ele>159.5</ele><time>2026-05-02T08:26:09.538Z</time></trkpt><trkpt lat="45.5955412" lon="11.4663481"><ele>158.0</ele><time>2026-05-02T08:26:10.537Z</time></trkpt><trkpt lat="45.5954352" lon="11.4664089"><ele>157.5</ele><time>2026-05-02T08:26:11.539Z</time></trkpt><trkpt lat="45.5953185" lon="11.4664765"><ele>157.0</ele><time>2026-05-02T08:26:12.538Z</time></trkpt><trkpt lat="45.5952065" lon="11.4665516"><ele>156.5</ele><time>2026-05-02T08:26:13.538Z</time></trkpt><trkpt lat="45.5951096" lon="11.4666644"><ele>156.0</ele><time>2026-05-02T08:26:14.537Z</time></trkpt><trkpt lat="45.5950424" lon="11.4668203"><ele>156.0</ele><time>2026-05-02T08:26:15.538Z</time></trkpt><trkpt lat="45.5950015" lon="11.4669932"><ele>156.0</ele><time>2026-05-02T08:26:16.537Z</time></trkpt><trkpt lat="45.594973" lon="11.4671647"><ele>156.0</ele><time>2026-05-02T08:26:17.539Z</time></trkpt><trkpt lat="45.5949448" lon="11.4673276"><ele>156.0</ele><time>2026-05-02T08:26:18.537Z</time></trkpt><trkpt lat="45.5949101" lon="11.4674794"><ele>153.5</ele><time>2026-05-02T08:26:19.538Z</time></trkpt><trkpt lat="45.5948679" lon="11.4676284"><ele>151.0</ele><time>2026-05-02T08:26:20.538Z</time></trkpt><trkpt lat="45.5948191" lon="11.4677813"><ele>148.5</ele><time>2026-05-02T08:26:21.539Z</time></trkpt><trkpt lat="45.594768" lon="11.4679436"><ele>146.0</ele><time>2026-05-02T08:26:22.538Z</time></trkpt><trkpt lat="45.5947251" lon="11.468128"><ele>145.0</ele><time>2026-05-02T08:26:23.538Z</time></trkpt><trkpt lat="45.5946953" lon="11.4683324"><ele>144.0</ele><time>2026-05-02T08:26:24.538Z</time></trkpt><trkpt lat="45.5946691" lon="11.4685441"><ele>143.0</ele><time>2026-05-02T08:26:25.538Z</time></trkpt><trkpt lat="45.5946461" lon="11.4687571"><ele>142.0</ele><time>2026-05-02T08:26:26.538Z</time></trkpt><trkpt lat="45.5946231" lon="11.4689699"><ele>140.5</ele><time>2026-05-02T08:26:27.537Z</time></trkpt><trkpt lat="45.5946024" lon="11.4691801"><ele>139.0</ele><time>2026-05-02T08:26:28.537Z</time></trkpt><trkpt lat="45.5945843" lon="11.4693853"><ele>137.5</ele><time>2026-05-02T08:26:29.538Z</time></trkpt><trkpt lat="45.5945666" lon="11.4695859"><ele>136.0</ele><time>2026-05-02T08:26:30.538Z</time></trkpt><trkpt lat="45.5945496" lon="11.4697817"><ele>133.75</ele><time>2026-05-02T08:26:31.538Z</time></trkpt><trkpt lat="45.5945336" lon="11.4699739"><ele>131.5</ele><time>2026-05-02T08:26:32.538Z</time></trkpt><trkpt lat="45.5945251" lon="11.4701609"><ele>129.25</ele><time>2026-05-02T08:26:33.539Z</time></trkpt><trkpt lat="45.594521" lon="11.4703498"><ele>127.0</ele><time>2026-05-02T08:26:34.539Z</time></trkpt><trkpt lat="45.594521" lon="11.4705416"><ele>125.25</ele><time>2026-05-02T08:26:35.538Z</time></trkpt><trkpt lat="45.5945185" lon="11.4707313"><ele>123.5</ele><time>2026-05-02T08:26:36.539Z</time></trkpt><trkpt lat="45.5945177" lon="11.470916"><ele>121.75</ele><time>2026-05-02T08:26:37.539Z</time></trkpt><trkpt lat="45.5945181" lon="11.4710986"><ele>120.0</ele><time>2026-05-02T08:26:38.538Z</time></trkpt><trkpt lat="45.5945247" lon="11.4712783"><ele>118.5</ele><time>2026-05-02T08:26:39.538Z</time></trkpt><trkpt lat="45.5945336" lon="11.4714569"><ele>117.0</ele><time>2026-05-02T08:26:40.538Z</time></trkpt><trkpt lat="45.5945315" lon="11.4716328"><ele>115.5</ele><time>2026-05-02T08:26:41.539Z</time></trkpt><trkpt lat="45.5945126" lon="11.4718065"><ele>114.0</ele><time>2026-05-02T08:26:42.538Z</time></trkpt><trkpt lat="45.5944795" lon="11.4719763"><ele>112.25</ele><time>2026-05-02T08:26:43.538Z</time></trkpt><trkpt lat="45.5944429" lon="11.4721452"><ele>110.5</ele><time>2026-05-02T08:26:44.538Z</time></trkpt><trkpt lat="45.5944073" lon="11.4723168"><ele>108.75</ele><time>2026-05-02T08:26:45.538Z</time></trkpt><trkpt lat="45.5943823" lon="11.472493"><ele>107.0</ele><time>2026-05-02T08:26:46.539Z</time></trkpt><trkpt lat="45.5943663" lon="11.472676"><ele>107.0</ele><time>2026-05-02T08:26:47.538Z</time></trkpt><trkpt lat="45.5943549" lon="11.4728571"><ele>107.0</ele><time>2026-05-02T08:26:48.537Z</time></trkpt><trkpt lat="45.5943499" lon="11.4730208"><ele>107.0</ele><time>2026-05-02T08:26:49.539Z</time></trkpt><trkpt lat="45.5943498" lon="11.4731748"><ele>107.0</ele><time>2026-05-02T08:26:50.539Z</time></trkpt><trkpt lat="45.5943491" lon="11.4733309"><ele>104.0</ele><time>2026-05-02T08:26:51.538Z</time></trkpt><trkpt lat="45.5943414" lon="11.4734911"><ele>101.0</ele><time>2026-05-02T08:26:52.539Z</time></trkpt><trkpt lat="45.5943396" lon="11.473653"><ele>98.0</ele><time>2026-05-02T08:26:53.539Z</time></trkpt><trkpt lat="45.5943476" lon="11.4738161"><ele>95.0</ele><time>2026-05-02T08:26:54.539Z</time></trkpt><trkpt lat="45.5943629" lon="11.4739829"><ele>93.25</ele><time>2026-05-02T08:26:55.537Z</time></trkpt><trkpt lat="45.594378" lon="11.4741454"><ele>91.5</ele><time>2026-05-02T08:26:56.538Z</time></trkpt><trkpt lat="45.5943756" lon="11.4743147"><ele>89.75</ele><time>2026-05-02T08:26:57.538Z</time></trkpt><trkpt lat="45.5943574" lon="11.4744793"><ele>88.0</ele><time>2026-05-02T08:26:58.539Z</time></trkpt><trkpt lat="45.5943263" lon="11.4746426"><ele>86.25</ele><time>2026-05-02T08:26:59.539Z</time></trkpt><trkpt lat="45.5942924" lon="11.4748064"><ele>84.5</ele><time>2026-05-02T08:27:00.539Z</time></trkpt><trkpt lat="45.5942555" lon="11.4749708"><ele>82.75</ele><time>2026-05-02T08:27:01.538Z</time></trkpt><trkpt lat="45.5942178" lon="11.4751366"><ele>81.0</ele><time>2026-05-02T08:27:02.538Z</time></trkpt><trkpt lat="45.5941806" lon="11.4753002"><ele>79.5</ele><time>2026-05-02T08:27:03.537Z</time></trkpt><trkpt lat="45.5941449" lon="11.4754569"><ele>78.0</ele><time>2026-05-02T08:27:04.539Z</time></trkpt><trkpt lat="45.5941117" lon="11.4756115"><ele>76.5</ele><time>2026-05-02T08:27:05.538Z</time></trkpt><trkpt lat="45.5940797" lon="11.4757663"><ele>75.0</ele><time>2026-05-02T08:27:06.539Z</time></trkpt><trkpt lat="45.594052" lon="11.4759213"><ele>75.0</ele><time>2026-05-02T08:27:07.539Z</time></trkpt><trkpt lat="45.5940282" lon="11.4760776"><ele>75.0</ele><time>2026-05-02T08:27:08.539Z</time></trkpt><trkpt lat="45.5940096" lon="11.476235"><ele>75.0</ele><time>2026-05-02T08:27:09.538Z</time></trkpt><trkpt lat="45.5939901" lon="11.4763851"><ele>75.0</ele><time>2026-05-02T08:27:10.539Z</time></trkpt><trkpt lat="45.593976" lon="11.4765235"><ele>75.0</ele><time>2026-05-02T08:27:11.538Z</time></trkpt><trkpt lat="45.5939583" lon="11.4766527"><ele>74.16666666666667</ele><time>2026-05-02T08:27:12.539Z</time></trkpt><trkpt lat="45.5939248" lon="11.47677"><ele>73.33333333333333</ele><time>2026-05-02T08:27:13.538Z</time></trkpt><trkpt lat="45.5938891" lon="11.4768689"><ele>72.5</ele><time>2026-05-02T08:27:14.539Z</time></trkpt><trkpt lat="45.5938389" lon="11.476944"><ele>71.66666666666666</ele><time>2026-05-02T08:27:15.537Z</time></trkpt><trkpt lat="45.5937707" lon="11.4770021"><ele>70.83333333333333</ele><time>2026-05-02T08:27:16.539Z</time></trkpt><trkpt lat="45.5937011" lon="11.4770599"><ele>70.0</ele><time>2026-05-02T08:27:17.538Z</time></trkpt><trkpt lat="45.5936408" lon="11.4771517"><ele>68.33333333333333</ele><time>2026-05-02T08:27:18.538Z</time></trkpt><trkpt lat="45.5935901" lon="11.4772549"><ele>66.66666666666666</ele><time>2026-05-02T08:27:19.539Z</time></trkpt><trkpt lat="45.5935437" lon="11.4773646"><ele>65.0</ele><time>2026-05-02T08:27:20.538Z</time></trkpt><trkpt lat="45.5935082" lon="11.4774801"><ele>63.33333333333333</ele><time>2026-05-02T08:27:21.538Z</time></trkpt><trkpt lat="45.5934708" lon="11.4775994"><ele>61.666666666666664</ele><time>2026-05-02T08:27:22.538Z</time></trkpt><trkpt lat="45.5934262" lon="11.477712"><ele>60.0</ele><time>2026-05-02T08:27:23.538Z</time></trkpt><trkpt lat="45.5933729" lon="11.4778153"><ele>60.0</ele><time>2026-05-02T08:27:24.538Z</time></trkpt><trkpt lat="45.5933123" lon="11.4779094"><ele>60.0</ele><time>2026-05-02T08:27:25.538Z</time></trkpt><trkpt lat="45.5932556" lon="11.4780039"><ele>60.0</ele><time>2026-05-02T08:27:26.539Z</time></trkpt><trkpt lat="45.593211" lon="11.4780952"><ele>60.0</ele><time>2026-05-02T08:27:27.539Z</time></trkpt><trkpt lat="45.5931769" lon="11.478187"><ele>60.0</ele><time>2026-05-02T08:27:28.538Z</time></trkpt><trkpt lat="45.5931538" lon="11.4782796"><ele>60.0</ele><time>2026-05-02T08:27:29.538Z</time></trkpt><trkpt lat="45.5931146" lon="11.4784165"><ele>59.2</ele><time>2026-05-02T08:27:31.538Z</time></trkpt><trkpt lat="45.5930502" lon="11.4785588"><ele>58.4</ele><time>2026-05-02T08:27:33.539Z</time></trkpt><trkpt lat="45.5929988" lon="11.4786375"><ele>57.599999999999994</ele><time>2026-05-02T08:27:34.539Z</time></trkpt><trkpt lat="45.5929368" lon="11.4787088"><ele>56.8</ele><time>2026-05-02T08:27:35.539Z</time></trkpt><trkpt lat="45.5928563" lon="11.4787606"><ele>56.0</ele><time>2026-05-02T08:27:36.538Z</time></trkpt><trkpt lat="45.5927543" lon="11.4787855"><ele>54.75</ele><time>2026-05-02T08:27:37.539Z</time></trkpt><trkpt lat="45.59264" lon="11.4787835"><ele>53.5</ele><time>2026-05-02T08:27:38.539Z</time></trkpt><trkpt lat="45.5925133" lon="11.4787906"><ele>52.25</ele><time>2026-05-02T08:27:39.538Z</time></trkpt><trkpt lat="45.5923741" lon="11.4787989"><ele>51.0</ele><time>2026-05-02T08:27:40.538Z</time></trkpt><trkpt lat="45.5922225" lon="11.4788039"><ele>51.0</ele><time>2026-05-02T08:27:41.538Z</time></trkpt><trkpt lat="45.5920653" lon="11.4788102"><ele>51.0</ele><time>2026-05-02T08:27:42.539Z</time></trkpt><trkpt lat="45.5919051" lon="11.4788231"><ele>51.0</ele><time>2026-05-02T08:27:43.538Z</time></trkpt><trkpt lat="45.591743" lon="11.4788419"><ele>50.66666666666667</ele><time>2026-05-02T08:27:44.538Z</time></trkpt><trkpt lat="45.5915784" lon="11.4788654"><ele>50.333333333333336</ele><time>2026-05-02T08:27:45.538Z</time></trkpt><trkpt lat="45.5914156" lon="11.478888"><ele>50.0</ele><time>2026-05-02T08:27:46.539Z</time></trkpt><trkpt lat="45.5912619" lon="11.4789113"><ele>49.5</ele><time>2026-05-02T08:27:47.539Z</time></trkpt><trkpt lat="45.5911142" lon="11.4789275"><ele>49.0</ele><time>2026-05-02T08:27:48.539Z</time></trkpt><trkpt lat="45.590972" lon="11.4789376"><ele>48.5</ele><time>2026-05-02T08:27:49.538Z</time></trkpt><trkpt lat="45.590832" lon="11.4789531"><ele>48.0</ele><time>2026-05-02T08:27:50.538Z</time></trkpt><trkpt lat="45.5906952" lon="11.4789785"><ele>48.0</ele><time>2026-05-02T08:27:51.538Z</time></trkpt><trkpt lat="45.590562" lon="11.4790153"><ele>48.0</ele><time>2026-05-02T08:27:52.538Z</time></trkpt><trkpt lat="45.5904366" lon="11.4790673"><ele>48.0</ele><time>2026-05-02T08:27:53.538Z</time></trkpt><trkpt lat="45.5903207" lon="11.4791276"><ele>48.0</ele><time>2026-05-02T08:27:54.538Z</time></trkpt><trkpt lat="45.5902236" lon="11.4791938"><ele>48.0</ele><time>2026-05-02T08:27:55.538Z</time></trkpt><trkpt lat="45.590146" lon="11.4792663"><ele>48.0</ele><time>2026-05-02T08:27:56.537Z</time></trkpt><trkpt lat="45.5900847" lon="11.4793299"><ele>48.0</ele><time>2026-05-02T08:27:57.538Z</time></trkpt><trkpt lat="45.5899685" lon="11.4793783"><ele>48.0</ele><time>2026-05-02T08:27:59.538Z</time></trkpt><trkpt lat="45.5899023" lon="11.4793839"><ele>48.0</ele><time>2026-05-02T08:28:00.538Z</time></trkpt><trkpt lat="45.5898399" lon="11.4793455"><ele>48.0</ele><time>2026-05-02T08:28:01.538Z</time></trkpt><trkpt lat="45.5897921" lon="11.4792688"><ele>48.0</ele><time>2026-05-02T08:28:02.539Z</time></trkpt><trkpt lat="45.5897582" lon="11.4791639"><ele>48.0</ele><time>2026-05-02T08:28:03.538Z</time></trkpt><trkpt lat="45.5897299" lon="11.4790253"><ele>48.0</ele><time>2026-05-02T08:28:04.538Z</time></trkpt><trkpt lat="45.5896986" lon="11.4788666"><ele>48.0</ele><time>2026-05-02T08:28:05.539Z</time></trkpt><trkpt lat="45.5896639" lon="11.4786894"><ele>48.0</ele><time>2026-05-02T08:28:06.537Z</time></trkpt><trkpt lat="45.5896255" lon="11.4784876"><ele>48.33333333333333</ele><time>2026-05-02T08:28:07.539Z</time></trkpt><trkpt lat="45.5895832" lon="11.4782731"><ele>48.666666666666664</ele><time>2026-05-02T08:28:08.539Z</time></trkpt><trkpt lat="45.5895392" lon="11.4780468"><ele>49.0</ele><time>2026-05-02T08:28:09.538Z</time></trkpt><trkpt lat="45.5894947" lon="11.4778162"><ele>47.666666666666664</ele><time>2026-05-02T08:28:10.538Z</time></trkpt><trkpt lat="45.5894513" lon="11.4775856"><ele>46.33333333333333</ele><time>2026-05-02T08:28:11.538Z</time></trkpt><trkpt lat="45.589413" lon="11.47735"><ele>45.0</ele><time>2026-05-02T08:28:12.538Z</time></trkpt><trkpt lat="45.5893917" lon="11.4771103"><ele>46.0</ele><time>2026-05-02T08:28:13.538Z</time></trkpt><trkpt lat="45.5893715" lon="11.4768681"><ele>47.0</ele><time>2026-05-02T08:28:14.538Z</time></trkpt><trkpt lat="45.5893451" lon="11.4766251"><ele>48.0</ele><time>2026-05-02T08:28:15.539Z</time></trkpt><trkpt lat="45.5893105" lon="11.4763862"><ele>48.33333333333333</ele><time>2026-05-02T08:28:16.538Z</time></trkpt><trkpt lat="45.5892641" lon="11.4761576"><ele>48.666666666666664</ele><time>2026-05-02T08:28:17.538Z</time></trkpt><trkpt lat="45.5892138" lon="11.4759364"><ele>49.0</ele><time>2026-05-02T08:28:18.539Z</time></trkpt><trkpt lat="45.5891697" lon="11.4757274"><ele>49.0</ele><time>2026-05-02T08:28:19.539Z</time></trkpt><trkpt lat="45.5891251" lon="11.4755277"><ele>49.0</ele><time>2026-05-02T08:28:20.537Z</time></trkpt><trkpt lat="45.5890828" lon="11.4753412"><ele>49.0</ele><time>2026-05-02T08:28:21.537Z</time></trkpt><trkpt lat="45.5890445" lon="11.4751643"><ele>49.0</ele><time>2026-05-02T08:28:22.538Z</time></trkpt><trkpt lat="45.5890049" lon="11.4749846"><ele>49.25</ele><time>2026-05-02T08:28:23.537Z</time></trkpt><trkpt lat="45.5889682" lon="11.4748041"><ele>49.5</ele><time>2026-05-02T08:28:24.537Z</time></trkpt><trkpt lat="45.5889328" lon="11.4746215"><ele>49.75</ele><time>2026-05-02T08:28:25.537Z</time></trkpt><trkpt lat="45.5889011" lon="11.4744464"><ele>50.0</ele><time>2026-05-02T08:28:26.538Z</time></trkpt><trkpt lat="45.5888694" lon="11.4742713"><ele>50.0</ele><time>2026-05-02T08:28:27.539Z</time></trkpt><trkpt lat="45.58884" lon="11.4740995"><ele>50.0</ele><time>2026-05-02T08:28:28.539Z</time></trkpt><trkpt lat="45.5888202" lon="11.4739394"><ele>50.0</ele><time>2026-05-02T08:28:29.538Z</time></trkpt><trkpt lat="45.5888048" lon="11.4737843"><ele>50.0</ele><time>2026-05-02T08:28:30.539Z</time></trkpt><trkpt lat="45.5887977" lon="11.4736276"><ele>50.25</ele><time>2026-05-02T08:28:31.537Z</time></trkpt><trkpt lat="45.5887893" lon="11.4734594"><ele>50.5</ele><time>2026-05-02T08:28:32.537Z</time></trkpt><trkpt lat="45.5887867" lon="11.473287"><ele>50.75</ele><time>2026-05-02T08:28:33.538Z</time></trkpt><trkpt lat="45.5887876" lon="11.4731052"><ele>51.0</ele><time>2026-05-02T08:28:34.538Z</time></trkpt><trkpt lat="45.5887908" lon="11.4729181"><ele>51.5</ele><time>2026-05-02T08:28:35.538Z</time></trkpt><trkpt lat="45.5887914" lon="11.47273"><ele>52.0</ele><time>2026-05-02T08:28:36.538Z</time></trkpt><trkpt lat="45.5887876" lon="11.4725501"><ele>52.5</ele><time>2026-05-02T08:28:37.538Z</time></trkpt><trkpt lat="45.5887693" lon="11.4723836"><ele>53.0</ele><time>2026-05-02T08:28:38.538Z</time></trkpt><trkpt lat="45.5887378" lon="11.4722229"><ele>53.0</ele><time>2026-05-02T08:28:39.538Z</time></trkpt><trkpt lat="45.588698" lon="11.4720754"><ele>53.0</ele><time>2026-05-02T08:28:40.538Z</time></trkpt><trkpt lat="45.5886579" lon="11.4719521"><ele>53.0</ele><time>2026-05-02T08:28:41.538Z</time></trkpt><trkpt lat="45.5886174" lon="11.4718342"><ele>53.0</ele><time>2026-05-02T08:28:42.538Z</time></trkpt><trkpt lat="45.5885791" lon="11.4717198"><ele>53.0</ele><time>2026-05-02T08:28:43.538Z</time></trkpt><trkpt lat="45.5885484" lon="11.471604"><ele>53.16666666666667</ele><time>2026-05-02T08:28:44.539Z</time></trkpt><trkpt lat="45.5885261" lon="11.4714834"><ele>53.333333333333336</ele><time>2026-05-02T08:28:45.538Z</time></trkpt><trkpt lat="45.5885041" lon="11.4713592"><ele>53.5</ele><time>2026-05-02T08:28:46.538Z</time></trkpt><trkpt lat="45.588482" lon="11.4712346"><ele>53.66666666666667</ele><time>2026-05-02T08:28:47.538Z</time></trkpt><trkpt lat="45.5884624" lon="11.4711179"><ele>53.833333333333336</ele><time>2026-05-02T08:28:48.538Z</time></trkpt><trkpt lat="45.5884523" lon="11.4710101"><ele>54.0</ele><time>2026-05-02T08:28:49.538Z</time></trkpt><trkpt lat="45.5884567" lon="11.4709068"><ele>54.0</ele><time>2026-05-02T08:28:50.538Z</time></trkpt><trkpt lat="45.5884705" lon="11.4708129"><ele>54.0</ele><time>2026-05-02T08:28:51.539Z</time></trkpt><trkpt lat="45.5884717" lon="11.4707225"><ele>54.0</ele><time>2026-05-02T08:28:52.538Z</time></trkpt><trkpt lat="45.5884422" lon="11.470643"><ele>54.0</ele><time>2026-05-02T08:28:53.538Z</time></trkpt><trkpt lat="45.5883861" lon="11.4705886"><ele>54.0</ele><time>2026-05-02T08:28:54.537Z</time></trkpt><trkpt lat="45.5883257" lon="11.4705264"><ele>54.0</ele><time>2026-05-02T08:28:55.538Z</time></trkpt><trkpt lat="45.5882661" lon="11.4704439"><ele>54.0</ele><time>2026-05-02T08:28:56.539Z</time></trkpt><trkpt lat="45.5882134" lon="11.4703456"><ele>55.0</ele><time>2026-05-02T08:28:57.538Z</time></trkpt><trkpt lat="45.5881667" lon="11.470236"><ele>56.00000000000001</ele><time>2026-05-02T08:28:58.538Z</time></trkpt><trkpt lat="45.5881279" lon="11.4701092"><ele>57.00000000000001</ele><time>2026-05-02T08:28:59.538Z</time></trkpt><trkpt lat="45.5880939" lon="11.469967"><ele>58.0</ele><time>2026-05-02T08:29:00.538Z</time></trkpt><trkpt lat="45.588058" lon="11.4698192"><ele>59.0</ele><time>2026-05-02T08:29:01.538Z</time></trkpt><trkpt lat="45.5880267" lon="11.4696627"><ele>60.0</ele><time>2026-05-02T08:29:02.538Z</time></trkpt><trkpt lat="45.5879903" lon="11.4695065"><ele>61.0</ele><time>2026-05-02T08:29:03.538Z</time></trkpt><trkpt lat="45.5879389" lon="11.4693441"><ele>62.0</ele><time>2026-05-02T08:29:04.538Z</time></trkpt><trkpt lat="45.5878746" lon="11.4691744"><ele>63.0</ele><time>2026-05-02T08:29:05.539Z</time></trkpt><trkpt lat="45.5877968" lon="11.4690008"><ele>63.0</ele><time>2026-05-02T08:29:06.538Z</time></trkpt><trkpt lat="45.5877176" lon="11.4688165"><ele>63.0</ele><time>2026-05-02T08:29:07.537Z</time></trkpt><trkpt lat="45.5876353" lon="11.46863"><ele>63.0</ele><time>2026-05-02T08:29:08.538Z</time></trkpt><trkpt lat="45.5875608" lon="11.4684394"><ele>67.75</ele><time>2026-05-02T08:29:09.538Z</time></trkpt><trkpt lat="45.5874921" lon="11.4682531"><ele>72.5</ele><time>2026-05-02T08:29:10.538Z</time></trkpt><trkpt lat="45.5874211" lon="11.4680812"><ele>77.25</ele><time>2026-05-02T08:29:11.538Z</time></trkpt><trkpt lat="45.5873529" lon="11.467913"><ele>82.0</ele><time>2026-05-02T08:29:12.538Z</time></trkpt><trkpt lat="45.5872826" lon="11.4677559"><ele>85.8</ele><time>2026-05-02T08:29:13.538Z</time></trkpt><trkpt lat="45.5872147" lon="11.4676094"><ele>89.6</ele><time>2026-05-02T08:29:14.539Z</time></trkpt><trkpt lat="45.5871559" lon="11.4674811"><ele>93.39999999999999</ele><time>2026-05-02T08:29:15.538Z</time></trkpt><trkpt lat="45.5871098" lon="11.4673574"><ele>97.19999999999999</ele><time>2026-05-02T08:29:16.539Z</time></trkpt><trkpt lat="45.5870774" lon="11.4672094"><ele>101.0</ele><time>2026-05-02T08:29:17.538Z</time></trkpt><trkpt lat="45.587047" lon="11.4670577"><ele>98.6</ele><time>2026-05-02T08:29:18.538Z</time></trkpt><trkpt lat="45.5870178" lon="11.4669122"><ele>96.19999999999999</ele><time>2026-05-02T08:29:19.538Z</time></trkpt><trkpt lat="45.5869926" lon="11.4667887"><ele>93.80000000000001</ele><time>2026-05-02T08:29:20.539Z</time></trkpt><trkpt lat="45.5869669" lon="11.4666844"><ele>91.4</ele><time>2026-05-02T08:29:21.538Z</time></trkpt><trkpt lat="45.5869384" lon="11.4665919"><ele>89.0</ele><time>2026-05-02T08:29:22.539Z</time></trkpt><trkpt lat="45.5868932" lon="11.4664444"><ele>88.99999999999999</ele><time>2026-05-02T08:29:24.538Z</time></trkpt><trkpt lat="45.5868991" lon="11.4663355"><ele>89.0</ele><time>2026-05-02T08:29:26.539Z</time></trkpt><trkpt lat="45.5869709" lon="11.4663362"><ele>89.0</ele><time>2026-05-02T08:29:28.538Z</time></trkpt><trkpt lat="45.5870247" lon="11.466453"><ele>89.0</ele><time>2026-05-02T08:29:30.538Z</time></trkpt><trkpt lat="45.5870495" lon="11.4665377"><ele>89.0</ele><time>2026-05-02T08:29:31.537Z</time></trkpt><trkpt lat="45.5870847" lon="11.4666219"><ele>88.99999999999999</ele><time>2026-05-02T08:29:32.538Z</time></trkpt><trkpt lat="45.5871191" lon="11.4667063"><ele>89.0</ele><time>2026-05-02T08:29:33.538Z</time></trkpt><trkpt lat="45.5871719" lon="11.4668395"><ele>94.0</ele><time>2026-05-02T08:29:35.538Z</time></trkpt><trkpt lat="45.5872406" lon="11.4668921"><ele>99.0</ele><time>2026-05-02T08:29:37.538Z</time></trkpt><trkpt lat="45.5872658" lon="11.4667817"><ele>104.0</ele><time>2026-05-02T08:29:39.537Z</time></trkpt><trkpt lat="45.5872462" lon="11.466592"><ele>109.0</ele><time>2026-05-02T08:29:41.537Z</time></trkpt><trkpt lat="45.5872324" lon="11.4664636"><ele>114.0</ele><time>2026-05-02T08:29:42.538Z</time></trkpt><trkpt lat="45.5872242" lon="11.466317"><ele>115.0</ele><time>2026-05-02T08:29:43.538Z</time></trkpt><trkpt lat="45.5872127" lon="11.4661701"><ele>116.0</ele><time>2026-05-02T08:29:44.537Z</time></trkpt><trkpt lat="45.5871698" lon="11.4660149"><ele>117.0</ele><time>2026-05-02T08:29:45.539Z</time></trkpt><trkpt lat="45.587133" lon="11.4658578"><ele>118.0</ele><time>2026-05-02T08:29:46.537Z</time></trkpt><trkpt lat="45.5870977" lon="11.4657019"><ele>118.0</ele><time>2026-05-02T08:29:47.538Z</time></trkpt><trkpt lat="45.5870624" lon="11.465545"><ele>118.0</ele><time>2026-05-02T08:29:48.539Z</time></trkpt><trkpt lat="45.5870226" lon="11.4653906"><ele>118.0</ele><time>2026-05-02T08:29:49.538Z</time></trkpt><trkpt lat="45.586984" lon="11.465237"><ele>118.0</ele><time>2026-05-02T08:29:50.538Z</time></trkpt><trkpt lat="45.5869439" lon="11.4650864"><ele>117.60000000000001</ele><time>2026-05-02T08:29:51.539Z</time></trkpt><trkpt lat="45.5869128" lon="11.4649409"><ele>117.20000000000002</ele><time>2026-05-02T08:29:52.538Z</time></trkpt><trkpt lat="45.5868895" lon="11.464813"><ele>116.8</ele><time>2026-05-02T08:29:53.539Z</time></trkpt><trkpt lat="45.5868747" lon="11.4646836"><ele>116.4</ele><time>2026-05-02T08:29:54.538Z</time></trkpt><trkpt lat="45.5868644" lon="11.4645489"><ele>116.0</ele><time>2026-05-02T08:29:55.538Z</time></trkpt><trkpt lat="45.5868707" lon="11.4644016"><ele>118.25</ele><time>2026-05-02T08:29:56.54Z</time></trkpt><trkpt lat="45.5868897" lon="11.4642406"><ele>120.5</ele><time>2026-05-02T08:29:57.538Z</time></trkpt><trkpt lat="45.5869107" lon="11.4640658"><ele>122.75</ele><time>2026-05-02T08:29:58.539Z</time></trkpt><trkpt lat="45.5869301" lon="11.463891"><ele>125.0</ele><time>2026-05-02T08:29:59.538Z</time></trkpt><trkpt lat="45.5869462" lon="11.4637167"><ele>126.25</ele><time>2026-05-02T08:30:00.538Z</time></trkpt><trkpt lat="45.5869622" lon="11.4635406"><ele>127.5</ele><time>2026-05-02T08:30:01.538Z</time></trkpt><trkpt lat="45.5869749" lon="11.4633667"><ele>128.75</ele><time>2026-05-02T08:30:02.539Z</time></trkpt><trkpt lat="45.586981" lon="11.4631951"><ele>130.0</ele><time>2026-05-02T08:30:03.538Z</time></trkpt><trkpt lat="45.5869752" lon="11.4630307"><ele>132.25</ele><time>2026-05-02T08:30:04.538Z</time></trkpt><trkpt lat="45.5869607" lon="11.4628719"><ele>134.5</ele><time>2026-05-02T08:30:05.538Z</time></trkpt><trkpt lat="45.5869306" lon="11.4627094"><ele>136.75</ele><time>2026-05-02T08:30:06.538Z</time></trkpt><trkpt lat="45.5868857" lon="11.4625589"><ele>139.0</ele><time>2026-05-02T08:30:07.538Z</time></trkpt><trkpt lat="45.5868442" lon="11.4624088"><ele>139.0</ele><time>2026-05-02T08:30:08.538Z</time></trkpt><trkpt lat="45.5868154" lon="11.4622552"><ele>139.0</ele><time>2026-05-02T08:30:09.537Z</time></trkpt><trkpt lat="45.5868027" lon="11.4620957"><ele>139.0</ele><time>2026-05-02T08:30:10.538Z</time></trkpt><trkpt lat="45.586785" lon="11.4619383"><ele>139.0</ele><time>2026-05-02T08:30:11.539Z</time></trkpt><trkpt lat="45.5867701" lon="11.4617729"><ele>143.0</ele><time>2026-05-02T08:30:12.538Z</time></trkpt><trkpt lat="45.5866879" lon="11.4616324"><ele>147.0</ele><time>2026-05-02T08:30:13.538Z</time></trkpt><trkpt lat="45.5866024" lon="11.4614888"><ele>151.0</ele><time>2026-05-02T08:30:14.539Z</time></trkpt><trkpt lat="45.5865097" lon="11.4613494"><ele>155.0</ele><time>2026-05-02T08:30:15.538Z</time></trkpt><trkpt lat="45.5863971" lon="11.4612139"><ele>157.66666666666666</ele><time>2026-05-02T08:30:16.54Z</time></trkpt><trkpt lat="45.5862821" lon="11.4610681"><ele>160.33333333333334</ele><time>2026-05-02T08:30:17.538Z</time></trkpt><trkpt lat="45.5861715" lon="11.460918"><ele>163.0</ele><time>2026-05-02T08:30:18.539Z</time></trkpt><trkpt lat="45.5860652" lon="11.460771"><ele>163.0</ele><time>2026-05-02T08:30:19.538Z</time></trkpt><trkpt lat="45.5859614" lon="11.4606355"><ele>163.0</ele><time>2026-05-02T08:30:20.538Z</time></trkpt><trkpt lat="45.5858698" lon="11.460519"><ele>163.0</ele><time>2026-05-02T08:30:21.538Z</time></trkpt><trkpt lat="45.5857971" lon="11.4604031"><ele>163.0</ele><time>2026-05-02T08:30:22.537Z</time></trkpt><trkpt lat="45.5857271" lon="11.4602712"><ele>166.75</ele><time>2026-05-02T08:30:23.538Z</time></trkpt><trkpt lat="45.5856602" lon="11.4601276"><ele>170.5</ele><time>2026-05-02T08:30:24.538Z</time></trkpt><trkpt lat="45.5855926" lon="11.4599754"><ele>174.25</ele><time>2026-05-02T08:30:25.539Z</time></trkpt><trkpt lat="45.5855289" lon="11.4598189"><ele>178.0</ele><time>2026-05-02T08:30:26.539Z</time></trkpt><trkpt lat="45.5854776" lon="11.4596836"><ele>179.16666666666669</ele><time>2026-05-02T08:30:27.538Z</time></trkpt><trkpt lat="45.5854369" lon="11.4595836"><ele>180.33333333333334</ele><time>2026-05-02T08:30:28.538Z</time></trkpt><trkpt lat="45.5853977" lon="11.4594891"><ele>181.5</ele><time>2026-05-02T08:30:29.538Z</time></trkpt><trkpt lat="45.5853398" lon="11.4593947"><ele>182.66666666666666</ele><time>2026-05-02T08:30:30.538Z</time></trkpt><trkpt lat="45.5852677" lon="11.4593024"><ele>183.83333333333331</ele><time>2026-05-02T08:30:31.538Z</time></trkpt><trkpt lat="45.5851834" lon="11.4592127"><ele>185.0</ele><time>2026-05-02T08:30:32.538Z</time></trkpt><trkpt lat="45.5851157" lon="11.4591218"><ele>185.0</ele><time>2026-05-02T08:30:33.539Z</time></trkpt><trkpt lat="45.5850552" lon="11.4590394"><ele>185.0</ele><time>2026-05-02T08:30:34.538Z</time></trkpt><trkpt lat="45.5849895" lon="11.4589457"><ele>185.0</ele><time>2026-05-02T08:30:35.538Z</time></trkpt><trkpt lat="45.5849489" lon="11.4588319"><ele>185.0</ele><time>2026-05-02T08:30:36.537Z</time></trkpt><trkpt lat="45.5849163" lon="11.4587139"><ele>185.0</ele><time>2026-05-02T08:30:37.538Z</time></trkpt><trkpt lat="45.5849003" lon="11.4585805"><ele>185.0</ele><time>2026-05-02T08:30:38.539Z</time></trkpt><trkpt lat="45.584903" lon="11.4584411"><ele>186.0</ele><time>2026-05-02T08:30:39.538Z</time></trkpt><trkpt lat="45.5849055" lon="11.4583201"><ele>187.0</ele><time>2026-05-02T08:30:40.538Z</time></trkpt><trkpt lat="45.584905" lon="11.4582241"><ele>188.0</ele><time>2026-05-02T08:30:41.538Z</time></trkpt><trkpt lat="45.5848653" lon="11.4581278"><ele>189.0</ele><time>2026-05-02T08:30:42.539Z</time></trkpt><trkpt lat="45.5848035" lon="11.4580434"><ele>190.0</ele><time>2026-05-02T08:30:43.538Z</time></trkpt><trkpt lat="45.5847372" lon="11.4579698"><ele>191.0</ele><time>2026-05-02T08:30:44.537Z</time></trkpt><trkpt lat="45.5846762" lon="11.4578712"><ele>193.0</ele><time>2026-05-02T08:30:45.538Z</time></trkpt><trkpt lat="45.5846235" lon="11.4577534"><ele>195.0</ele><time>2026-05-02T08:30:46.538Z</time></trkpt><trkpt lat="45.5845686" lon="11.4576369"><ele>197.0</ele><time>2026-05-02T08:30:47.538Z</time></trkpt><trkpt lat="45.5845165" lon="11.4575335"><ele>199.0</ele><time>2026-05-02T08:30:48.539Z</time></trkpt><trkpt lat="45.5844684" lon="11.4574512"><ele>201.00000000000003</ele><time>2026-05-02T08:30:49.539Z</time></trkpt><trkpt lat="45.5843859" lon="11.4574119"><ele>203.0</ele><time>2026-05-02T08:30:50.538Z</time></trkpt><trkpt lat="45.5843032" lon="11.4574113"><ele>203.66666666666669</ele><time>2026-05-02T08:30:51.537Z</time></trkpt><trkpt lat="45.5842222" lon="11.4574282"><ele>204.33333333333334</ele><time>2026-05-02T08:30:52.538Z</time></trkpt><trkpt lat="45.5841525" lon="11.4574298"><ele>205.0</ele><time>2026-05-02T08:30:53.538Z</time></trkpt><trkpt lat="45.5840919" lon="11.4574027"><ele>205.66666666666669</ele><time>2026-05-02T08:30:54.538Z</time></trkpt><trkpt lat="45.5840376" lon="11.4572688"><ele>206.33333333333334</ele><time>2026-05-02T08:30:56.539Z</time></trkpt><trkpt lat="45.5840303" lon="11.4570939"><ele>207.0</ele><time>2026-05-02T08:30:58.538Z</time></trkpt><trkpt lat="45.5840538" lon="11.4570085"><ele>208.16666666666666</ele><time>2026-05-02T08:30:59.538Z</time></trkpt><trkpt lat="45.5841028" lon="11.4569382"><ele>209.33333333333331</ele><time>2026-05-02T08:31:00.538Z</time></trkpt><trkpt lat="45.5841753" lon="11.456873"><ele>210.5</ele><time>2026-05-02T08:31:01.538Z</time></trkpt><trkpt lat="45.5842599" lon="11.4568025"><ele>211.66666666666666</ele><time>2026-05-02T08:31:02.537Z</time></trkpt><trkpt lat="45.5843419" lon="11.4567308"><ele>212.83333333333331</ele><time>2026-05-02T08:31:03.538Z</time></trkpt><trkpt lat="45.5844145" lon="11.4566622"><ele>214.0</ele><time>2026-05-02T08:31:04.538Z</time></trkpt><trkpt lat="45.5844717" lon="11.4566099"><ele>213.99999999999997</ele><time>2026-05-02T08:31:05.538Z</time></trkpt><trkpt lat="45.5845089" lon="11.4564669"><ele>214.0</ele><time>2026-05-02T08:31:07.538Z</time></trkpt><trkpt lat="45.5844177" lon="11.4563922"><ele>214.0</ele><time>2026-05-02T08:31:09.539Z</time></trkpt><trkpt lat="45.584349" lon="11.4563952"><ele>214.0</ele><time>2026-05-02T08:31:10.538Z</time></trkpt><trkpt lat="45.5842657" lon="11.4564101"><ele>213.99999999999997</ele><time>2026-05-02T08:31:11.538Z</time></trkpt><trkpt lat="45.5841869" lon="11.4564192"><ele>214.0</ele><time>2026-05-02T08:31:12.538Z</time></trkpt><trkpt lat="45.5841106" lon="11.456416"><ele>213.99999999999997</ele><time>2026-05-02T08:31:13.537Z</time></trkpt><trkpt lat="45.5840333" lon="11.4563843"><ele>214.0</ele><time>2026-05-02T08:31:14.538Z</time></trkpt><trkpt lat="45.5839631" lon="11.4563349"><ele>214.0</ele><time>2026-05-02T08:31:15.538Z</time></trkpt><trkpt lat="45.5839015" lon="11.4562737"><ele>214.0</ele><time>2026-05-02T08:31:16.538Z</time></trkpt><trkpt lat="45.5838616" lon="11.4561977"><ele>213.99999999999997</ele><time>2026-05-02T08:31:17.538Z</time></trkpt><trkpt lat="45.5838374" lon="11.4560697"><ele>214.0</ele><time>2026-05-02T08:31:19.538Z</time></trkpt><trkpt lat="45.5837753" lon="11.4559835"><ele>215.5</ele><time>2026-05-02T08:31:23.539Z</time></trkpt><trkpt lat="45.5836621" lon="11.4560196"><ele>217.0</ele><time>2026-05-02T08:31:25.538Z</time></trkpt><trkpt lat="45.5835759" lon="11.4560747"><ele>218.5</ele><time>2026-05-02T08:31:26.538Z</time></trkpt><trkpt lat="45.5834631" lon="11.4561398"><ele>220.0</ele><time>2026-05-02T08:31:27.538Z</time></trkpt><trkpt lat="45.5833291" lon="11.4562115"><ele>220.33333333333331</ele><time>2026-05-02T08:31:28.539Z</time></trkpt><trkpt lat="45.5831816" lon="11.4562916"><ele>220.66666666666669</ele><time>2026-05-02T08:31:29.538Z</time></trkpt><trkpt lat="45.5830178" lon="11.4563668"><ele>221.0</ele><time>2026-05-02T08:31:30.538Z</time></trkpt><trkpt lat="45.5828457" lon="11.4564463"><ele>221.66666666666669</ele><time>2026-05-02T08:31:31.538Z</time></trkpt><trkpt lat="45.5826746" lon="11.4565329"><ele>222.33333333333331</ele><time>2026-05-02T08:31:32.539Z</time></trkpt><trkpt lat="45.5825098" lon="11.4566183"><ele>223.0</ele><time>2026-05-02T08:31:33.538Z</time></trkpt><trkpt lat="45.5823537" lon="11.4566939"><ele>223.0</ele><time>2026-05-02T08:31:34.539Z</time></trkpt><trkpt lat="45.582205" lon="11.4567584"><ele>223.0</ele><time>2026-05-02T08:31:35.539Z</time></trkpt><trkpt lat="45.582059" lon="11.45682"><ele>223.0</ele><time>2026-05-02T08:31:36.539Z</time></trkpt><trkpt lat="45.5819115" lon="11.4568792"><ele>222.33333333333331</ele><time>2026-05-02T08:31:37.537Z</time></trkpt><trkpt lat="45.5817594" lon="11.4569362"><ele>221.66666666666669</ele><time>2026-05-02T08:31:38.539Z</time></trkpt><trkpt lat="45.5816036" lon="11.4569776"><ele>221.0</ele><time>2026-05-02T08:31:39.537Z</time></trkpt><trkpt lat="45.5814471" lon="11.4570111"><ele>221.0</ele><time>2026-05-02T08:31:40.538Z</time></trkpt><trkpt lat="45.5812894" lon="11.4570458"><ele>221.0</ele><time>2026-05-02T08:31:41.539Z</time></trkpt><trkpt lat="45.5811315" lon="11.457079"><ele>221.0</ele><time>2026-05-02T08:31:42.539Z</time></trkpt><trkpt lat="45.5809766" lon="11.4571128"><ele>221.0</ele><time>2026-05-02T08:31:43.538Z</time></trkpt><trkpt lat="45.5808233" lon="11.457146"><ele>221.0</ele><time>2026-05-02T08:31:44.538Z</time></trkpt><trkpt lat="45.580673" lon="11.4571714"><ele>221.0</ele><time>2026-05-02T08:31:45.539Z</time></trkpt><trkpt lat="45.5805238" lon="11.4571985"><ele>221.0</ele><time>2026-05-02T08:31:46.538Z</time></trkpt><trkpt lat="45.5803744" lon="11.4572287"><ele>221.0</ele><time>2026-05-02T08:31:47.538Z</time></trkpt><trkpt lat="45.5802281" lon="11.4572612"><ele>221.0</ele><time>2026-05-02T08:31:48.538Z</time></trkpt><trkpt lat="45.5800816" lon="11.4572929"><ele>221.0</ele><time>2026-05-02T08:31:49.537Z</time></trkpt><trkpt lat="45.579939" lon="11.4573218"><ele>220.25</ele><time>2026-05-02T08:31:50.537Z</time></trkpt><trkpt lat="45.5798024" lon="11.4573476"><ele>219.5</ele><time>2026-05-02T08:31:51.538Z</time></trkpt><trkpt lat="45.5796677" lon="11.4573737"><ele>218.75</ele><time>2026-05-02T08:31:52.538Z</time></trkpt><trkpt lat="45.579535" lon="11.4574017"><ele>218.0</ele><time>2026-05-02T08:31:53.538Z</time></trkpt><trkpt lat="45.5794028" lon="11.4574276"><ele>217.5</ele><time>2026-05-02T08:31:54.538Z</time></trkpt><trkpt lat="45.5792686" lon="11.4574438"><ele>217.0</ele><time>2026-05-02T08:31:55.537Z</time></trkpt><trkpt lat="45.5791311" lon="11.4574483"><ele>216.5</ele><time>2026-05-02T08:31:56.538Z</time></trkpt><trkpt lat="45.5789942" lon="11.4574448"><ele>216.0</ele><time>2026-05-02T08:31:57.539Z</time></trkpt><trkpt lat="45.578859" lon="11.4574271"><ele>216.0</ele><time>2026-05-02T08:31:58.539Z</time></trkpt><trkpt lat="45.5787216" lon="11.4573859"><ele>216.0</ele><time>2026-05-02T08:31:59.539Z</time></trkpt><trkpt lat="45.5785853" lon="11.4573327"><ele>216.0</ele><time>2026-05-02T08:32:00.538Z</time></trkpt><trkpt lat="45.5784493" lon="11.4572596"><ele>216.0</ele><time>2026-05-02T08:32:01.539Z</time></trkpt><trkpt lat="45.5783128" lon="11.457166"><ele>216.66666666666669</ele><time>2026-05-02T08:32:02.537Z</time></trkpt><trkpt lat="45.578174" lon="11.4570671"><ele>217.33333333333334</ele><time>2026-05-02T08:32:03.539Z</time></trkpt><trkpt lat="45.5780362" lon="11.4569655"><ele>218.0</ele><time>2026-05-02T08:32:04.539Z</time></trkpt><trkpt lat="45.5779034" lon="11.4568603"><ele>217.0</ele><time>2026-05-02T08:32:05.538Z</time></trkpt><trkpt lat="45.5777703" lon="11.4567553"><ele>216.0</ele><time>2026-05-02T08:32:06.539Z</time></trkpt><trkpt lat="45.5776357" lon="11.4566554"><ele>215.0</ele><time>2026-05-02T08:32:07.538Z</time></trkpt><trkpt lat="45.5775021" lon="11.4565577"><ele>215.0</ele><time>2026-05-02T08:32:08.538Z</time></trkpt><trkpt lat="45.5773655" lon="11.4564651"><ele>215.0</ele><time>2026-05-02T08:32:09.538Z</time></trkpt><trkpt lat="45.5772267" lon="11.4563795"><ele>215.0</ele><time>2026-05-02T08:32:10.539Z</time></trkpt><trkpt lat="45.5770848" lon="11.4563071"><ele>213.33333333333334</ele><time>2026-05-02T08:32:11.538Z</time></trkpt><trkpt lat="45.5769374" lon="11.4562549"><ele>211.66666666666669</ele><time>2026-05-02T08:32:12.538Z</time></trkpt><trkpt lat="45.5767859" lon="11.4562142"><ele>210.0</ele><time>2026-05-02T08:32:13.538Z</time></trkpt><trkpt lat="45.5766268" lon="11.4562015"><ele>210.0</ele><time>2026-05-02T08:32:14.538Z</time></trkpt><trkpt lat="45.5764714" lon="11.4562151"><ele>210.0</ele><time>2026-05-02T08:32:15.538Z</time></trkpt><trkpt lat="45.5763276" lon="11.4562406"><ele>210.0</ele><time>2026-05-02T08:32:16.538Z</time></trkpt><trkpt lat="45.5762013" lon="11.4562735"><ele>210.0</ele><time>2026-05-02T08:32:17.539Z</time></trkpt><trkpt lat="45.5760924" lon="11.4563146"><ele>209.0</ele><time>2026-05-02T08:32:18.539Z</time></trkpt><trkpt lat="45.5759928" lon="11.456358"><ele>208.0</ele><time>2026-05-02T08:32:19.539Z</time></trkpt><trkpt lat="45.5759007" lon="11.4563997"><ele>207.0</ele><time>2026-05-02T08:32:20.538Z</time></trkpt><trkpt lat="45.5758113" lon="11.4564395"><ele>206.0</ele><time>2026-05-02T08:32:21.537Z</time></trkpt><trkpt lat="45.5757162" lon="11.4564722"><ele>205.0</ele><time>2026-05-02T08:32:22.538Z</time></trkpt><trkpt lat="45.5756207" lon="11.4564885"><ele>205.0</ele><time>2026-05-02T08:32:23.539Z</time></trkpt><trkpt lat="45.5755233" lon="11.4564873"><ele>205.0</ele><time>2026-05-02T08:32:24.538Z</time></trkpt><trkpt lat="45.5754278" lon="11.4564591"><ele>205.0</ele><time>2026-05-02T08:32:25.539Z</time></trkpt><trkpt lat="45.5753398" lon="11.456414"><ele>205.0</ele><time>2026-05-02T08:32:26.538Z</time></trkpt><trkpt lat="45.5752477" lon="11.456352"><ele>205.0</ele><time>2026-05-02T08:32:27.538Z</time></trkpt><trkpt lat="45.5751551" lon="11.4562754"><ele>206.0</ele><time>2026-05-02T08:32:28.537Z</time></trkpt><trkpt lat="45.575061" lon="11.4561975"><ele>207.0</ele><time>2026-05-02T08:32:29.538Z</time></trkpt><trkpt lat="45.5749548" lon="11.456127"><ele>208.0</ele><time>2026-05-02T08:32:30.538Z</time></trkpt><trkpt lat="45.5748336" lon="11.4560732"><ele>209.0</ele><time>2026-05-02T08:32:31.538Z</time></trkpt><trkpt lat="45.5747066" lon="11.45603"><ele>209.0</ele><time>2026-05-02T08:32:32.538Z</time></trkpt><trkpt lat="45.5745714" lon="11.4559856"><ele>209.0</ele><time>2026-05-02T08:32:33.539Z</time></trkpt><trkpt lat="45.5744318" lon="11.4559439"><ele>209.0</ele><time>2026-05-02T08:32:34.538Z</time></trkpt><trkpt lat="45.5742883" lon="11.4559005"><ele>209.0</ele><time>2026-05-02T08:32:35.538Z</time></trkpt><trkpt lat="45.5741434" lon="11.4558574"><ele>207.5</ele><time>2026-05-02T08:32:36.538Z</time></trkpt><trkpt lat="45.5740021" lon="11.4558079"><ele>206.0</ele><time>2026-05-02T08:32:37.538Z</time></trkpt><trkpt lat="45.573861" lon="11.4557643"><ele>204.5</ele><time>2026-05-02T08:32:38.538Z</time></trkpt><trkpt lat="45.5737159" lon="11.455737"><ele>203.0</ele><time>2026-05-02T08:32:39.538Z</time></trkpt><trkpt lat="45.5735681" lon="11.455725"><ele>202.5</ele><time>2026-05-02T08:32:40.538Z</time></trkpt><trkpt lat="45.5734172" lon="11.45573"><ele>202.0</ele><time>2026-05-02T08:32:41.537Z</time></trkpt><trkpt lat="45.5732679" lon="11.4557367"><ele>201.5</ele><time>2026-05-02T08:32:42.538Z</time></trkpt><trkpt lat="45.5731218" lon="11.4557363"><ele>201.0</ele><time>2026-05-02T08:32:43.539Z</time></trkpt><trkpt lat="45.5729801" lon="11.4557333"><ele>199.75</ele><time>2026-05-02T08:32:44.538Z</time></trkpt><trkpt lat="45.5728468" lon="11.4557231"><ele>198.5</ele><time>2026-05-02T08:32:45.538Z</time></trkpt><trkpt lat="45.5727219" lon="11.4557115"><ele>197.25</ele><time>2026-05-02T08:32:46.539Z</time></trkpt><trkpt lat="45.5726083" lon="11.4556937"><ele>196.0</ele><time>2026-05-02T08:32:47.537Z</time></trkpt><trkpt lat="45.5724965" lon="11.4556702"><ele>196.0</ele><time>2026-05-02T08:32:48.538Z</time></trkpt><trkpt lat="45.572396" lon="11.4556277"><ele>196.0</ele><time>2026-05-02T08:32:49.539Z</time></trkpt><trkpt lat="45.5722956" lon="11.4555547"><ele>196.0</ele><time>2026-05-02T08:32:50.538Z</time></trkpt><trkpt lat="45.572199" lon="11.4554537"><ele>196.0</ele><time>2026-05-02T08:32:51.538Z</time></trkpt><trkpt lat="45.572105" lon="11.4553405"><ele>193.75</ele><time>2026-05-02T08:32:52.538Z</time></trkpt><trkpt lat="45.5720161" lon="11.4552237"><ele>191.5</ele><time>2026-05-02T08:32:53.537Z</time></trkpt><trkpt lat="45.5719268" lon="11.4551144"><ele>189.25</ele><time>2026-05-02T08:32:54.539Z</time></trkpt><trkpt lat="45.5718239" lon="11.4550262"><ele>187.0</ele><time>2026-05-02T08:32:55.538Z</time></trkpt><trkpt lat="45.5717116" lon="11.4549662"><ele>187.0</ele><time>2026-05-02T08:32:56.538Z</time></trkpt><trkpt lat="45.5715965" lon="11.4549072"><ele>187.0</ele><time>2026-05-02T08:32:57.538Z</time></trkpt><trkpt lat="45.5714834" lon="11.4548344"><ele>187.0</ele><time>2026-05-02T08:32:58.537Z</time></trkpt><trkpt lat="45.571375" lon="11.4547553"><ele>187.0</ele><time>2026-05-02T08:32:59.538Z</time></trkpt><trkpt lat="45.5712713" lon="11.4546673"><ele>183.25</ele><time>2026-05-02T08:33:00.538Z</time></trkpt><trkpt lat="45.571176" lon="11.4545786"><ele>179.5</ele><time>2026-05-02T08:33:01.538Z</time></trkpt><trkpt lat="45.5710771" lon="11.4545018"><ele>175.75</ele><time>2026-05-02T08:33:02.538Z</time></trkpt><trkpt lat="45.5709663" lon="11.4544413"><ele>172.0</ele><time>2026-05-02T08:33:03.538Z</time></trkpt><trkpt lat="45.5708421" lon="11.454412"><ele>172.0</ele><time>2026-05-02T08:33:04.539Z</time></trkpt><trkpt lat="45.5707094" lon="11.454391"><ele>172.0</ele><time>2026-05-02T08:33:05.537Z</time></trkpt><trkpt lat="45.5705744" lon="11.454371"><ele>172.0</ele><time>2026-05-02T08:33:06.538Z</time></trkpt><trkpt lat="45.5704492" lon="11.454361"><ele>172.0</ele><time>2026-05-02T08:33:07.539Z</time></trkpt><trkpt lat="45.5703278" lon="11.4543553"><ele>172.2</ele><time>2026-05-02T08:33:08.538Z</time></trkpt><trkpt lat="45.5702116" lon="11.4543687"><ele>172.39999999999998</ele><time>2026-05-02T08:33:09.538Z</time></trkpt><trkpt lat="45.570104" lon="11.4544102"><ele>172.60000000000002</ele><time>2026-05-02T08:33:10.539Z</time></trkpt><trkpt lat="45.5700108" lon="11.4544828"><ele>172.8</ele><time>2026-05-02T08:33:11.539Z</time></trkpt><trkpt lat="45.5699269" lon="11.454571"><ele>173.0</ele><time>2026-05-02T08:33:12.539Z</time></trkpt><trkpt lat="45.5698365" lon="11.4546384"><ele>173.25</ele><time>2026-05-02T08:33:13.538Z</time></trkpt><trkpt lat="45.5697339" lon="11.4546712"><ele>173.5</ele><time>2026-05-02T08:33:14.537Z</time></trkpt><trkpt lat="45.5696259" lon="11.4546866"><ele>173.75</ele><time>2026-05-02T08:33:15.538Z</time></trkpt><trkpt lat="45.569507" lon="11.4546875"><ele>174.0</ele><time>2026-05-02T08:33:16.539Z</time></trkpt><trkpt lat="45.5693857" lon="11.4546884"><ele>173.25</ele><time>2026-05-02T08:33:17.538Z</time></trkpt><trkpt lat="45.569262" lon="11.4546961"><ele>172.5</ele><time>2026-05-02T08:33:18.539Z</time></trkpt><trkpt lat="45.569135" lon="11.4547123"><ele>171.75</ele><time>2026-05-02T08:33:19.538Z</time></trkpt><trkpt lat="45.5690077" lon="11.4547305"><ele>171.0</ele><time>2026-05-02T08:33:20.538Z</time></trkpt><trkpt lat="45.5688841" lon="11.4547456"><ele>171.0</ele><time>2026-05-02T08:33:21.538Z</time></trkpt><trkpt lat="45.5687628" lon="11.4547553"><ele>171.0</ele><time>2026-05-02T08:33:22.538Z</time></trkpt><trkpt lat="45.5686447" lon="11.4547563"><ele>171.0</ele><time>2026-05-02T08:33:23.538Z</time></trkpt><trkpt lat="45.5685257" lon="11.4547487"><ele>171.0</ele><time>2026-05-02T08:33:24.538Z</time></trkpt><trkpt lat="45.5684065" lon="11.4547283"><ele>171.0</ele><time>2026-05-02T08:33:25.539Z</time></trkpt><trkpt lat="45.5682879" lon="11.4546884"><ele>171.0</ele><time>2026-05-02T08:33:26.538Z</time></trkpt><trkpt lat="45.5681727" lon="11.4546193"><ele>171.0</ele><time>2026-05-02T08:33:27.538Z</time></trkpt><trkpt lat="45.5680521" lon="11.4545468"><ele>171.0</ele><time>2026-05-02T08:33:28.539Z</time></trkpt><trkpt lat="45.5679289" lon="11.4544609"><ele>169.75</ele><time>2026-05-02T08:33:29.538Z</time></trkpt><trkpt lat="45.5678057" lon="11.4543627"><ele>168.5</ele><time>2026-05-02T08:33:30.539Z</time></trkpt><trkpt lat="45.567684" lon="11.4542608"><ele>167.25</ele><time>2026-05-02T08:33:31.538Z</time></trkpt><trkpt lat="45.5675677" lon="11.4541602"><ele>166.0</ele><time>2026-05-02T08:33:32.539Z</time></trkpt><trkpt lat="45.567456" lon="11.4540698"><ele>166.0</ele><time>2026-05-02T08:33:33.538Z</time></trkpt><trkpt lat="45.5673389" lon="11.4539983"><ele>166.0</ele><time>2026-05-02T08:33:34.538Z</time></trkpt><trkpt lat="45.5672152" lon="11.4539412"><ele>166.0</ele><time>2026-05-02T08:33:35.538Z</time></trkpt><trkpt lat="45.5670868" lon="11.4538908"><ele>166.0</ele><time>2026-05-02T08:33:36.539Z</time></trkpt><trkpt lat="45.5669569" lon="11.4538444"><ele>165.5</ele><time>2026-05-02T08:33:37.537Z</time></trkpt><trkpt lat="45.5668254" lon="11.4538009"><ele>165.0</ele><time>2026-05-02T08:33:38.539Z</time></trkpt><trkpt lat="45.5666927" lon="11.4537632"><ele>164.5</ele><time>2026-05-02T08:33:39.539Z</time></trkpt><trkpt lat="45.5665593" lon="11.4537294"><ele>164.0</ele><time>2026-05-02T08:33:40.538Z</time></trkpt><trkpt lat="45.5664276" lon="11.4536971"><ele>165.5</ele><time>2026-05-02T08:33:41.538Z</time></trkpt><trkpt lat="45.5662962" lon="11.4536837"><ele>167.0</ele><time>2026-05-02T08:33:42.539Z</time></trkpt><trkpt lat="45.5661728" lon="11.4536794"><ele>168.5</ele><time>2026-05-02T08:33:43.537Z</time></trkpt><trkpt lat="45.5660606" lon="11.4536789"><ele>170.0</ele><time>2026-05-02T08:33:44.538Z</time></trkpt><trkpt lat="45.5659481" lon="11.4536537"><ele>170.0</ele><time>2026-05-02T08:33:45.538Z</time></trkpt><trkpt lat="45.5658355" lon="11.4536037"><ele>170.0</ele><time>2026-05-02T08:33:46.538Z</time></trkpt><trkpt lat="45.5657204" lon="11.453537"><ele>170.0</ele><time>2026-05-02T08:33:47.538Z</time></trkpt><trkpt lat="45.565598" lon="11.4534559"><ele>170.0</ele><time>2026-05-02T08:33:48.537Z</time></trkpt><trkpt lat="45.5654663" lon="11.4533866"><ele>168.75</ele><time>2026-05-02T08:33:49.538Z</time></trkpt><trkpt lat="45.5653318" lon="11.4533342"><ele>167.5</ele><time>2026-05-02T08:33:50.539Z</time></trkpt><trkpt lat="45.5651918" lon="11.453304"><ele>166.25</ele><time>2026-05-02T08:33:51.539Z</time></trkpt><trkpt lat="45.5650496" lon="11.4533001"><ele>165.0</ele><time>2026-05-02T08:33:52.539Z</time></trkpt><trkpt lat="45.5649059" lon="11.453312"><ele>165.0</ele><time>2026-05-02T08:33:53.538Z</time></trkpt><trkpt lat="45.5647622" lon="11.4533079"><ele>165.0</ele><time>2026-05-02T08:33:54.538Z</time></trkpt><trkpt lat="45.5646198" lon="11.4533031"><ele>165.0</ele><time>2026-05-02T08:33:55.538Z</time></trkpt><trkpt lat="45.5644795" lon="11.4533112"><ele>165.0</ele><time>2026-05-02T08:33:56.538Z</time></trkpt><trkpt lat="45.5643458" lon="11.4533386"><ele>163.75</ele><time>2026-05-02T08:33:57.538Z</time></trkpt><trkpt lat="45.5642167" lon="11.4533823"><ele>162.5</ele><time>2026-05-02T08:33:58.538Z</time></trkpt><trkpt lat="45.5640918" lon="11.4534292"><ele>161.25</ele><time>2026-05-02T08:33:59.539Z</time></trkpt><trkpt lat="45.5639708" lon="11.4534912"><ele>160.0</ele><time>2026-05-02T08:34:00.538Z</time></trkpt><trkpt lat="45.5638479" lon="11.4535632"><ele>160.0</ele><time>2026-05-02T08:34:01.537Z</time></trkpt><trkpt lat="45.5637292" lon="11.4536485"><ele>160.0</ele><time>2026-05-02T08:34:02.537Z</time></trkpt><trkpt lat="45.5636147" lon="11.4537373"><ele>160.0</ele><time>2026-05-02T08:34:03.538Z</time></trkpt><trkpt lat="45.5635042" lon="11.4538275"><ele>160.0</ele><time>2026-05-02T08:34:04.538Z</time></trkpt><trkpt lat="45.5633938" lon="11.4539095"><ele>157.0</ele><time>2026-05-02T08:34:05.538Z</time></trkpt><trkpt lat="45.5632773" lon="11.4539709"><ele>154.0</ele><time>2026-05-02T08:34:06.539Z</time></trkpt><trkpt lat="45.5631563" lon="11.4540005"><ele>151.0</ele><time>2026-05-02T08:34:07.539Z</time></trkpt><trkpt lat="45.5630306" lon="11.4539988"><ele>148.0</ele><time>2026-05-02T08:34:08.538Z</time></trkpt><trkpt lat="45.5629012" lon="11.4539787"><ele>147.75</ele><time>2026-05-02T08:34:09.539Z</time></trkpt><trkpt lat="45.5627694" lon="11.4539578"><ele>147.5</ele><time>2026-05-02T08:34:10.538Z</time></trkpt><trkpt lat="45.5626492" lon="11.4539601"><ele>147.25</ele><time>2026-05-02T08:34:11.538Z</time></trkpt><trkpt lat="45.5625436" lon="11.4539815"><ele>147.0</ele><time>2026-05-02T08:34:12.537Z</time></trkpt><trkpt lat="45.5624486" lon="11.4540211"><ele>147.0</ele><time>2026-05-02T08:34:13.538Z</time></trkpt><trkpt lat="45.5623746" lon="11.4540634"><ele>147.0</ele><time>2026-05-02T08:34:14.539Z</time></trkpt><trkpt lat="45.5622768" lon="11.45413"><ele>147.0</ele><time>2026-05-02T08:34:16.539Z</time></trkpt><trkpt lat="45.5622129" lon="11.4541747"><ele>147.0</ele><time>2026-05-02T08:34:24.538Z</time></trkpt><trkpt lat="45.5621481" lon="11.4542362"><ele>147.0</ele><time>2026-05-02T08:34:26.539Z</time></trkpt><trkpt lat="45.5620609" lon="11.454392"><ele>148.25</ele><time>2026-05-02T08:34:28.538Z</time></trkpt><trkpt lat="45.5619934" lon="11.4544826"><ele>149.5</ele><time>2026-05-02T08:34:29.539Z</time></trkpt><trkpt lat="45.5619106" lon="11.4545855"><ele>150.75</ele><time>2026-05-02T08:34:30.538Z</time></trkpt><trkpt lat="45.5618188" lon="11.4547015"><ele>152.0</ele><time>2026-05-02T08:34:31.538Z</time></trkpt><trkpt lat="45.5617243" lon="11.4548225"><ele>152.0</ele><time>2026-05-02T08:34:32.538Z</time></trkpt><trkpt lat="45.5616321" lon="11.4549423"><ele>152.0</ele><time>2026-05-02T08:34:33.539Z</time></trkpt><trkpt lat="45.5615384" lon="11.455063"><ele>152.0</ele><time>2026-05-02T08:34:34.538Z</time></trkpt><trkpt lat="45.5614532" lon="11.4551808"><ele>152.0</ele><time>2026-05-02T08:34:35.538Z</time></trkpt><trkpt lat="45.5613884" lon="11.4552958"><ele>152.0</ele><time>2026-05-02T08:34:36.538Z</time></trkpt><trkpt lat="45.5613311" lon="11.455422"><ele>152.0</ele><time>2026-05-02T08:34:37.538Z</time></trkpt><trkpt lat="45.5612948" lon="11.4555622"><ele>152.0</ele><time>2026-05-02T08:34:38.538Z</time></trkpt><trkpt lat="45.5612682" lon="11.4557085"><ele>152.0</ele><time>2026-05-02T08:34:39.538Z</time></trkpt><trkpt lat="45.5612461" lon="11.4558664"><ele>152.0</ele><time>2026-05-02T08:34:40.538Z</time></trkpt><trkpt lat="45.5612218" lon="11.4560266"><ele>152.0</ele><time>2026-05-02T08:34:41.538Z</time></trkpt><trkpt lat="45.5611996" lon="11.4561885"><ele>152.0</ele><time>2026-05-02T08:34:42.538Z</time></trkpt><trkpt lat="45.5611806" lon="11.4563418"><ele>152.0</ele><time>2026-05-02T08:34:43.539Z</time></trkpt><trkpt lat="45.5611602" lon="11.4564918"><ele>152.0</ele><time>2026-05-02T08:34:44.539Z</time></trkpt><trkpt lat="45.561127" lon="11.4566474"><ele>152.0</ele><time>2026-05-02T08:34:45.539Z</time></trkpt><trkpt lat="45.5610776" lon="11.4567958"><ele>153.0</ele><time>2026-05-02T08:34:46.538Z</time></trkpt><trkpt lat="45.5610214" lon="11.456938"><ele>154.0</ele><time>2026-05-02T08:34:47.538Z</time></trkpt><trkpt lat="45.5609671" lon="11.4570643"><ele>155.0</ele><time>2026-05-02T08:34:48.538Z</time></trkpt><trkpt lat="45.5609127" lon="11.4571877"><ele>156.0</ele><time>2026-05-02T08:34:49.537Z</time></trkpt><trkpt lat="45.560855" lon="11.4573088"><ele>157.0</ele><time>2026-05-02T08:34:50.538Z</time></trkpt><trkpt lat="45.5607976" lon="11.457426"><ele>157.0</ele><time>2026-05-02T08:34:51.538Z</time></trkpt><trkpt lat="45.5607465" lon="11.4575372"><ele>157.0</ele><time>2026-05-02T08:34:52.538Z</time></trkpt><trkpt lat="45.5607005" lon="11.4576453"><ele>157.0</ele><time>2026-05-02T08:34:53.539Z</time></trkpt><trkpt lat="45.5606593" lon="11.4577499"><ele>157.0</ele><time>2026-05-02T08:34:54.538Z</time></trkpt><trkpt lat="45.5606314" lon="11.457846"><ele>157.0</ele><time>2026-05-02T08:34:55.537Z</time></trkpt><trkpt lat="45.5605715" lon="11.4579717"><ele>157.0</ele><time>2026-05-02T08:34:57.538Z</time></trkpt><trkpt lat="45.5604725" lon="11.4580083"><ele>156.83333333333334</ele><time>2026-05-02T08:34:59.539Z</time></trkpt><trkpt lat="45.5604075" lon="11.4580095"><ele>156.66666666666669</ele><time>2026-05-02T08:35:00.538Z</time></trkpt><trkpt lat="45.5603354" lon="11.4580137"><ele>156.5</ele><time>2026-05-02T08:35:01.539Z</time></trkpt><trkpt lat="45.5602554" lon="11.4580128"><ele>156.33333333333334</ele><time>2026-05-02T08:35:02.538Z</time></trkpt><trkpt lat="45.5601688" lon="11.4580061"><ele>156.16666666666666</ele><time>2026-05-02T08:35:03.539Z</time></trkpt><trkpt lat="45.560078" lon="11.4579766"><ele>156.0</ele><time>2026-05-02T08:35:04.538Z</time></trkpt><trkpt lat="45.5599814" lon="11.4579406"><ele>156.0</ele><time>2026-05-02T08:35:05.537Z</time></trkpt><trkpt lat="45.5598865" lon="11.4579037"><ele>156.0</ele><time>2026-05-02T08:35:06.538Z</time></trkpt><trkpt lat="45.5597962" lon="11.4578681"><ele>156.0</ele><time>2026-05-02T08:35:07.538Z</time></trkpt><trkpt lat="45.5597076" lon="11.4578306"><ele>156.0</ele><time>2026-05-02T08:35:08.539Z</time></trkpt><trkpt lat="45.5596261" lon="11.4577944"><ele>156.0</ele><time>2026-05-02T08:35:09.538Z</time></trkpt><trkpt lat="45.5595528" lon="11.4577578"><ele>156.0</ele><time>2026-05-02T08:35:10.538Z</time></trkpt><trkpt lat="45.5594852" lon="11.4577235"><ele>156.0</ele><time>2026-05-02T08:35:11.538Z</time></trkpt><trkpt lat="45.5593727" lon="11.4576694"><ele>156.0</ele><time>2026-05-02T08:35:13.537Z</time></trkpt><trkpt lat="45.5592546" lon="11.4576208"><ele>156.0</ele><time>2026-05-02T08:35:15.537Z</time></trkpt><trkpt lat="45.559192" lon="11.4575917"><ele>156.0</ele><time>2026-05-02T08:35:16.538Z</time></trkpt><trkpt lat="45.5590806" lon="11.4575415"><ele>156.0</ele><time>2026-05-02T08:35:18.538Z</time></trkpt><trkpt lat="45.5589657" lon="11.4574949"><ele>156.0</ele><time>2026-05-02T08:35:20.539Z</time></trkpt><trkpt lat="45.5589026" lon="11.4574668"><ele>156.0</ele><time>2026-05-02T08:35:21.538Z</time></trkpt><trkpt lat="45.5588348" lon="11.4574353"><ele>156.0</ele><time>2026-05-02T08:35:22.538Z</time></trkpt><trkpt lat="45.558764" lon="11.4574024"><ele>156.0</ele><time>2026-05-02T08:35:23.538Z</time></trkpt><trkpt lat="45.5586874" lon="11.4573731"><ele>156.0</ele><time>2026-05-02T08:35:24.538Z</time></trkpt><trkpt lat="45.5586066" lon="11.4573543"><ele>156.0</ele><time>2026-05-02T08:35:25.538Z</time></trkpt><trkpt lat="45.5585238" lon="11.4573483"><ele>154.2</ele><time>2026-05-02T08:35:26.539Z</time></trkpt><trkpt lat="45.5584373" lon="11.4573566"><ele>152.39999999999998</ele><time>2026-05-02T08:35:27.539Z</time></trkpt><trkpt lat="45.5583508" lon="11.4573771"><ele>150.6</ele><time>2026-05-02T08:35:28.538Z</time></trkpt><trkpt lat="45.5582618" lon="11.4573932"><ele>148.79999999999998</ele><time>2026-05-02T08:35:29.538Z</time></trkpt><trkpt lat="45.5581648" lon="11.4574144"><ele>147.0</ele><time>2026-05-02T08:35:30.539Z</time></trkpt><trkpt lat="45.5580653" lon="11.45747"><ele>147.0</ele><time>2026-05-02T08:35:31.539Z</time></trkpt><trkpt lat="45.5579635" lon="11.457533"><ele>147.0</ele><time>2026-05-02T08:35:32.538Z</time></trkpt><trkpt lat="45.5578508" lon="11.4576035"><ele>147.0</ele><time>2026-05-02T08:35:33.538Z</time></trkpt><trkpt lat="45.5577319" lon="11.4576803"><ele>147.0</ele><time>2026-05-02T08:35:34.538Z</time></trkpt><trkpt lat="45.5576093" lon="11.457765"><ele>147.25</ele><time>2026-05-02T08:35:35.539Z</time></trkpt><trkpt lat="45.5574893" lon="11.457848"><ele>147.5</ele><time>2026-05-02T08:35:36.539Z</time></trkpt><trkpt lat="45.5573799" lon="11.4579238"><ele>147.75</ele><time>2026-05-02T08:35:37.538Z</time></trkpt><trkpt lat="45.5572752" lon="11.457995"><ele>148.0</ele><time>2026-05-02T08:35:38.538Z</time></trkpt><trkpt lat="45.5571704" lon="11.4580545"><ele>145.0</ele><time>2026-05-02T08:35:39.538Z</time></trkpt><trkpt lat="45.557064" lon="11.4580606"><ele>142.0</ele><time>2026-05-02T08:35:40.538Z</time></trkpt><trkpt lat="45.5569571" lon="11.4580747"><ele>139.0</ele><time>2026-05-02T08:35:41.539Z</time></trkpt><trkpt lat="45.556857" lon="11.4580817"><ele>136.0</ele><time>2026-05-02T08:35:42.539Z</time></trkpt><trkpt lat="45.556764" lon="11.4580811"><ele>133.0</ele><time>2026-05-02T08:35:43.538Z</time></trkpt><trkpt lat="45.5566733" lon="11.458058"><ele>133.0</ele><time>2026-05-02T08:35:44.538Z</time></trkpt><trkpt lat="45.5565941" lon="11.458008"><ele>133.0</ele><time>2026-05-02T08:35:45.539Z</time></trkpt><trkpt lat="45.5565231" lon="11.4579177"><ele>133.0</ele><time>2026-05-02T08:35:46.538Z</time></trkpt><trkpt lat="45.5564665" lon="11.4577985"><ele>133.0</ele><time>2026-05-02T08:35:47.538Z</time></trkpt><trkpt lat="45.5564148" lon="11.4576578"><ele>133.0</ele><time>2026-05-02T08:35:48.537Z</time></trkpt><trkpt lat="45.5563578" lon="11.4575102"><ele>133.25</ele><time>2026-05-02T08:35:49.538Z</time></trkpt><trkpt lat="45.556303" lon="11.4573541"><ele>133.5</ele><time>2026-05-02T08:35:50.537Z</time></trkpt><trkpt lat="45.5562517" lon="11.4571917"><ele>133.75</ele><time>2026-05-02T08:35:51.539Z</time></trkpt><trkpt lat="45.5562066" lon="11.4570226"><ele>134.0</ele><time>2026-05-02T08:35:52.538Z</time></trkpt><trkpt lat="45.5561581" lon="11.4568691"><ele>134.0</ele><time>2026-05-02T08:35:53.537Z</time></trkpt><trkpt lat="45.55611" lon="11.4567314"><ele>134.0</ele><time>2026-05-02T08:35:54.538Z</time></trkpt><trkpt lat="45.5560672" lon="11.4566083"><ele>134.0</ele><time>2026-05-02T08:35:55.537Z</time></trkpt><trkpt lat="45.5560321" lon="11.4565044"><ele>134.0</ele><time>2026-05-02T08:35:56.539Z</time></trkpt><trkpt lat="45.5560057" lon="11.4564089"><ele>134.0</ele><time>2026-05-02T08:35:57.538Z</time></trkpt><trkpt lat="45.5559898" lon="11.4563152"><ele>134.0</ele><time>2026-05-02T08:35:58.538Z</time></trkpt><trkpt lat="45.5559326" lon="11.4561875"><ele>136.2</ele><time>2026-05-02T08:36:00.539Z</time></trkpt><trkpt lat="45.5558516" lon="11.4560883"><ele>138.4</ele><time>2026-05-02T08:36:02.538Z</time></trkpt><trkpt lat="45.5558107" lon="11.4560007"><ele>140.6</ele><time>2026-05-02T08:36:03.537Z</time></trkpt><trkpt lat="45.5557663" lon="11.4558964"><ele>142.8</ele><time>2026-05-02T08:36:04.539Z</time></trkpt><trkpt lat="45.5557141" lon="11.45578"><ele>145.0</ele><time>2026-05-02T08:36:05.539Z</time></trkpt><trkpt lat="45.5556525" lon="11.4556524"><ele>145.0</ele><time>2026-05-02T08:36:06.538Z</time></trkpt><trkpt lat="45.5555879" lon="11.4555192"><ele>145.0</ele><time>2026-05-02T08:36:07.539Z</time></trkpt><trkpt lat="45.5555178" lon="11.4553961"><ele>145.0</ele><time>2026-05-02T08:36:08.538Z</time></trkpt><trkpt lat="45.5554417" lon="11.4553025"><ele>145.0</ele><time>2026-05-02T08:36:09.537Z</time></trkpt><trkpt lat="45.5553527" lon="11.455239"><ele>145.0</ele><time>2026-05-02T08:36:10.539Z</time></trkpt><trkpt lat="45.5552489" lon="11.4552052"><ele>144.25</ele><time>2026-05-02T08:36:11.539Z</time></trkpt><trkpt lat="45.5551387" lon="11.4551906"><ele>143.5</ele><time>2026-05-02T08:36:12.538Z</time></trkpt><trkpt lat="45.555023" lon="11.4551884"><ele>142.75</ele><time>2026-05-02T08:36:13.538Z</time></trkpt><trkpt lat="45.5549085" lon="11.4552071"><ele>142.0</ele><time>2026-05-02T08:36:14.539Z</time></trkpt><trkpt lat="45.5547952" lon="11.4552441"><ele>142.0</ele><time>2026-05-02T08:36:15.538Z</time></trkpt><trkpt lat="45.554688" lon="11.4552823"><ele>142.0</ele><time>2026-05-02T08:36:16.538Z</time></trkpt><trkpt lat="45.5545878" lon="11.4553041"><ele>142.0</ele><time>2026-05-02T08:36:17.539Z</time></trkpt><trkpt lat="45.5544955" lon="11.4553071"><ele>142.0</ele><time>2026-05-02T08:36:18.538Z</time></trkpt><trkpt lat="45.5544242" lon="11.455294"><ele>142.0</ele><time>2026-05-02T08:36:19.538Z</time></trkpt><trkpt lat="45.5543433" lon="11.4552616"><ele>142.83333333333334</ele><time>2026-05-02T08:36:21.539Z</time></trkpt><trkpt lat="45.5542715" lon="11.4552335"><ele>143.66666666666669</ele><time>2026-05-02T08:36:25.539Z</time></trkpt><trkpt lat="45.5541858" lon="11.4551896"><ele>144.5</ele><time>2026-05-02T08:36:28.539Z</time></trkpt><trkpt lat="45.5540797" lon="11.4551369"><ele>145.33333333333334</ele><time>2026-05-02T08:36:30.539Z</time></trkpt><trkpt lat="45.5540095" lon="11.4551061"><ele>146.16666666666666</ele><time>2026-05-02T08:36:31.539Z</time></trkpt><trkpt lat="45.5539392" lon="11.4550702"><ele>147.0</ele><time>2026-05-02T08:36:32.538Z</time></trkpt><trkpt lat="45.5538516" lon="11.4550178"><ele>147.0</ele><time>2026-05-02T08:36:33.539Z</time></trkpt><trkpt lat="45.5537583" lon="11.4549739"><ele>147.0</ele><time>2026-05-02T08:36:34.539Z</time></trkpt><trkpt lat="45.5536565" lon="11.4549235"><ele>147.0</ele><time>2026-05-02T08:36:35.539Z</time></trkpt><trkpt lat="45.5535592" lon="11.4548684"><ele>147.0</ele><time>2026-05-02T08:36:36.539Z</time></trkpt><trkpt lat="45.5534688" lon="11.4548221"><ele>147.0</ele><time>2026-05-02T08:36:37.539Z</time></trkpt><trkpt lat="45.5533741" lon="11.4547894"><ele>148.4</ele><time>2026-05-02T08:36:38.538Z</time></trkpt><trkpt lat="45.5532758" lon="11.4547756"><ele>149.79999999999998</ele><time>2026-05-02T08:36:39.538Z</time></trkpt><trkpt lat="45.5531734" lon="11.4547836"><ele>151.2</ele><time>2026-05-02T08:36:40.539Z</time></trkpt><trkpt lat="45.553067" lon="11.454799"><ele>152.6</ele><time>2026-05-02T08:36:41.538Z</time></trkpt><trkpt lat="45.55296" lon="11.4548123"><ele>154.0</ele><time>2026-05-02T08:36:42.538Z</time></trkpt><trkpt lat="45.5528492" lon="11.4548112"><ele>154.6</ele><time>2026-05-02T08:36:43.538Z</time></trkpt><trkpt lat="45.5527416" lon="11.4547969"><ele>155.2</ele><time>2026-05-02T08:36:44.539Z</time></trkpt><trkpt lat="45.5526343" lon="11.4547683"><ele>155.79999999999998</ele><time>2026-05-02T08:36:45.538Z</time></trkpt><trkpt lat="45.5525278" lon="11.4547339"><ele>156.4</ele><time>2026-05-02T08:36:46.537Z</time></trkpt><trkpt lat="45.552423" lon="11.4546935"><ele>157.0</ele><time>2026-05-02T08:36:47.538Z</time></trkpt><trkpt lat="45.5523164" lon="11.4546671"><ele>157.0</ele><time>2026-05-02T08:36:48.539Z</time></trkpt><trkpt lat="45.5522071" lon="11.454657"><ele>157.0</ele><time>2026-05-02T08:36:49.538Z</time></trkpt><trkpt lat="45.5520925" lon="11.4546627"><ele>157.0</ele><time>2026-05-02T08:36:50.538Z</time></trkpt><trkpt lat="45.5519746" lon="11.4546774"><ele>157.0</ele><time>2026-05-02T08:36:51.538Z</time></trkpt><trkpt lat="45.5518491" lon="11.4546938"><ele>156.25</ele><time>2026-05-02T08:36:52.539Z</time></trkpt><trkpt lat="45.5517223" lon="11.4547086"><ele>155.5</ele><time>2026-05-02T08:36:53.539Z</time></trkpt><trkpt lat="45.5515963" lon="11.4547165"><ele>154.75</ele><time>2026-05-02T08:36:54.538Z</time></trkpt><trkpt lat="45.5514698" lon="11.4547197"><ele>154.0</ele><time>2026-05-02T08:36:55.538Z</time></trkpt><trkpt lat="45.5513424" lon="11.4547264"><ele>154.0</ele><time>2026-05-02T08:36:56.538Z</time></trkpt><trkpt lat="45.551217" lon="11.4547335"><ele>154.0</ele><time>2026-05-02T08:36:57.538Z</time></trkpt><trkpt lat="45.5510995" lon="11.4547388"><ele>154.0</ele><time>2026-05-02T08:36:58.539Z</time></trkpt><trkpt lat="45.5509887" lon="11.4547486"><ele>154.0</ele><time>2026-05-02T08:36:59.539Z</time></trkpt><trkpt lat="45.550884" lon="11.4547551"><ele>153.0</ele><time>2026-05-02T08:37:00.538Z</time></trkpt><trkpt lat="45.5507826" lon="11.4547629"><ele>152.0</ele><time>2026-05-02T08:37:01.538Z</time></trkpt><trkpt lat="45.5506853" lon="11.4547817"><ele>151.0</ele><time>2026-05-02T08:37:02.538Z</time></trkpt><trkpt lat="45.550599" lon="11.4548241"><ele>150.0</ele><time>2026-05-02T08:37:03.538Z</time></trkpt><trkpt lat="45.5505171" lon="11.4548827"><ele>149.0</ele><time>2026-05-02T08:37:04.538Z</time></trkpt><trkpt lat="45.5504398" lon="11.4549602"><ele>147.8</ele><time>2026-05-02T08:37:05.539Z</time></trkpt><trkpt lat="45.5503662" lon="11.4550649"><ele>146.60000000000002</ele><time>2026-05-02T08:37:06.537Z</time></trkpt><trkpt lat="45.550292" lon="11.4551839"><ele>145.4</ele><time>2026-05-02T08:37:07.537Z</time></trkpt><trkpt lat="45.5502165" lon="11.4553073"><ele>144.20000000000002</ele><time>2026-05-02T08:37:08.539Z</time></trkpt><trkpt lat="45.5501379" lon="11.4554345"><ele>143.0</ele><time>2026-05-02T08:37:09.539Z</time></trkpt><trkpt lat="45.5500566" lon="11.4555579"><ele>146.25</ele><time>2026-05-02T08:37:10.539Z</time></trkpt><trkpt lat="45.5499751" lon="11.4556922"><ele>149.5</ele><time>2026-05-02T08:37:11.538Z</time></trkpt><trkpt lat="45.5498939" lon="11.4558311"><ele>152.75</ele><time>2026-05-02T08:37:12.538Z</time></trkpt><trkpt lat="45.5498104" lon="11.4559808"><ele>156.0</ele><time>2026-05-02T08:37:13.538Z</time></trkpt><trkpt lat="45.5497314" lon="11.4561311"><ele>156.0</ele><time>2026-05-02T08:37:14.539Z</time></trkpt><trkpt lat="45.5496544" lon="11.4562816"><ele>156.0</ele><time>2026-05-02T08:37:15.538Z</time></trkpt><trkpt lat="45.5495815" lon="11.4564195"><ele>156.0</ele><time>2026-05-02T08:37:16.538Z</time></trkpt><trkpt lat="45.5495157" lon="11.4565416"><ele>156.0</ele><time>2026-05-02T08:37:17.538Z</time></trkpt><trkpt lat="45.5494472" lon="11.4566602"><ele>156.75</ele><time>2026-05-02T08:37:18.538Z</time></trkpt><trkpt lat="45.5493747" lon="11.4567735"><ele>157.5</ele><time>2026-05-02T08:37:19.539Z</time></trkpt><trkpt lat="45.5492947" lon="11.4568844"><ele>158.25</ele><time>2026-05-02T08:37:20.538Z</time></trkpt><trkpt lat="45.5492049" lon="11.4570046"><ele>159.0</ele><time>2026-05-02T08:37:21.538Z</time></trkpt><trkpt lat="45.5491149" lon="11.4571245"><ele>164.5</ele><time>2026-05-02T08:37:22.538Z</time></trkpt><trkpt lat="45.5490266" lon="11.4572451"><ele>170.0</ele><time>2026-05-02T08:37:23.539Z</time></trkpt><trkpt lat="45.5489385" lon="11.4573648"><ele>175.5</ele><time>2026-05-02T08:37:24.538Z</time></trkpt><trkpt lat="45.5488529" lon="11.4574751"><ele>181.0</ele><time>2026-05-02T08:37:25.538Z</time></trkpt><trkpt lat="45.5487667" lon="11.4575681"><ele>175.5</ele><time>2026-05-02T08:37:26.538Z</time></trkpt><trkpt lat="45.548671" lon="11.4576604"><ele>170.0</ele><time>2026-05-02T08:37:27.538Z</time></trkpt><trkpt lat="45.5485673" lon="11.4577491"><ele>164.5</ele><time>2026-05-02T08:37:28.539Z</time></trkpt><trkpt lat="45.5484588" lon="11.457839"><ele>159.0</ele><time>2026-05-02T08:37:29.539Z</time></trkpt><trkpt lat="45.5483468" lon="11.4579309"><ele>164.0</ele><time>2026-05-02T08:37:30.538Z</time></trkpt><trkpt lat="45.5482291" lon="11.458018"><ele>169.0</ele><time>2026-05-02T08:37:31.538Z</time></trkpt><trkpt lat="45.5481061" lon="11.4580959"><ele>174.0</ele><time>2026-05-02T08:37:32.538Z</time></trkpt><trkpt lat="45.5479773" lon="11.458162"><ele>179.0</ele><time>2026-05-02T08:37:33.538Z</time></trkpt><trkpt lat="45.5478439" lon="11.4582182"><ele>179.0</ele><time>2026-05-02T08:37:34.539Z</time></trkpt><trkpt lat="45.5477125" lon="11.4582642"><ele>179.0</ele><time>2026-05-02T08:37:35.539Z</time></trkpt><trkpt lat="45.5475846" lon="11.4583026"><ele>179.0</ele><time>2026-05-02T08:37:36.538Z</time></trkpt><trkpt lat="45.5474563" lon="11.4583353"><ele>179.0</ele><time>2026-05-02T08:37:37.538Z</time></trkpt><trkpt lat="45.5473328" lon="11.4583643"><ele>179.0</ele><time>2026-05-02T08:37:38.538Z</time></trkpt><trkpt lat="45.5472153" lon="11.4583953"><ele>179.0</ele><time>2026-05-02T08:37:39.538Z</time></trkpt><trkpt lat="45.547112" lon="11.4584283"><ele>179.0</ele><time>2026-05-02T08:37:40.538Z</time></trkpt><trkpt lat="45.5470172" lon="11.4584599"><ele>179.0</ele><time>2026-05-02T08:37:41.539Z</time></trkpt><trkpt lat="45.5469354" lon="11.458501"><ele>179.0</ele><time>2026-05-02T08:37:42.538Z</time></trkpt><trkpt lat="45.5468668" lon="11.4585691"><ele>179.39999999999998</ele><time>2026-05-02T08:37:43.537Z</time></trkpt><trkpt lat="45.546808" lon="11.4586629"><ele>179.8</ele><time>2026-05-02T08:37:44.538Z</time></trkpt><trkpt lat="45.546757" lon="11.4587766"><ele>180.2</ele><time>2026-05-02T08:37:45.537Z</time></trkpt><trkpt lat="45.5467211" lon="11.458902"><ele>180.60000000000002</ele><time>2026-05-02T08:37:46.538Z</time></trkpt><trkpt lat="45.5466953" lon="11.4590255"><ele>181.0</ele><time>2026-05-02T08:37:47.538Z</time></trkpt><trkpt lat="45.5466874" lon="11.4591556"><ele>183.60000000000002</ele><time>2026-05-02T08:37:48.539Z</time></trkpt><trkpt lat="45.5467201" lon="11.4592788"><ele>186.2</ele><time>2026-05-02T08:37:49.537Z</time></trkpt><trkpt lat="45.5467627" lon="11.4594091"><ele>188.8</ele><time>2026-05-02T08:37:50.538Z</time></trkpt><trkpt lat="45.5468106" lon="11.4595382"><ele>191.39999999999998</ele><time>2026-05-02T08:37:51.539Z</time></trkpt><trkpt lat="45.5468649" lon="11.4596746"><ele>194.0</ele><time>2026-05-02T08:37:52.539Z</time></trkpt><trkpt lat="45.546922" lon="11.4598146"><ele>194.0</ele><time>2026-05-02T08:37:53.538Z</time></trkpt><trkpt lat="45.5469811" lon="11.4599532"><ele>194.0</ele><time>2026-05-02T08:37:54.538Z</time></trkpt><trkpt lat="45.5470336" lon="11.4600915"><ele>194.0</ele><time>2026-05-02T08:37:55.538Z</time></trkpt><trkpt lat="45.5470853" lon="11.4602204"><ele>194.0</ele><time>2026-05-02T08:37:56.538Z</time></trkpt><trkpt lat="45.5471369" lon="11.4603371"><ele>194.0</ele><time>2026-05-02T08:37:57.538Z</time></trkpt><trkpt lat="45.5471805" lon="11.4604528"><ele>195.39999999999998</ele><time>2026-05-02T08:37:58.538Z</time></trkpt><trkpt lat="45.5472141" lon="11.4605738"><ele>196.8</ele><time>2026-05-02T08:37:59.539Z</time></trkpt><trkpt lat="45.5472324" lon="11.4607012"><ele>198.2</ele><time>2026-05-02T08:38:00.538Z</time></trkpt><trkpt lat="45.5472384" lon="11.460834"><ele>199.60000000000002</ele><time>2026-05-02T08:38:01.539Z</time></trkpt><trkpt lat="45.5472332" lon="11.4609725"><ele>201.0</ele><time>2026-05-02T08:38:02.538Z</time></trkpt><trkpt lat="45.5472142" lon="11.4611179"><ele>201.0</ele><time>2026-05-02T08:38:03.538Z</time></trkpt><trkpt lat="45.5471924" lon="11.4612674"><ele>201.0</ele><time>2026-05-02T08:38:04.538Z</time></trkpt><trkpt lat="45.5471673" lon="11.4614075"><ele>201.0</ele><time>2026-05-02T08:38:05.538Z</time></trkpt><trkpt lat="45.547137" lon="11.46154"><ele>201.0</ele><time>2026-05-02T08:38:06.538Z</time></trkpt><trkpt lat="45.5470938" lon="11.4616749"><ele>201.0</ele><time>2026-05-02T08:38:07.537Z</time></trkpt><trkpt lat="45.5470279" lon="11.4618041"><ele>199.75</ele><time>2026-05-02T08:38:08.537Z</time></trkpt><trkpt lat="45.5469398" lon="11.4619315"><ele>198.5</ele><time>2026-05-02T08:38:09.538Z</time></trkpt><trkpt lat="45.5468357" lon="11.4620598"><ele>197.25</ele><time>2026-05-02T08:38:10.538Z</time></trkpt><trkpt lat="45.5467221" lon="11.4621923"><ele>196.0</ele><time>2026-05-02T08:38:11.539Z</time></trkpt><trkpt lat="45.5466019" lon="11.4623248"><ele>196.0</ele><time>2026-05-02T08:38:12.538Z</time></trkpt><trkpt lat="45.5464853" lon="11.4624503"><ele>196.0</ele><time>2026-05-02T08:38:13.538Z</time></trkpt><trkpt lat="45.5463707" lon="11.4625707"><ele>196.0</ele><time>2026-05-02T08:38:14.539Z</time></trkpt><trkpt lat="45.5462608" lon="11.4626928"><ele>196.0</ele><time>2026-05-02T08:38:15.539Z</time></trkpt><trkpt lat="45.5461565" lon="11.46281"><ele>195.8</ele><time>2026-05-02T08:38:16.538Z</time></trkpt><trkpt lat="45.5460602" lon="11.4629196"><ele>195.60000000000002</ele><time>2026-05-02T08:38:17.538Z</time></trkpt><trkpt lat="45.5459757" lon="11.4630168"><ele>195.4</ele><time>2026-05-02T08:38:18.538Z</time></trkpt><trkpt lat="45.5458963" lon="11.4631049"><ele>195.2</ele><time>2026-05-02T08:38:19.538Z</time></trkpt><trkpt lat="45.5458131" lon="11.4631752"><ele>195.0</ele><time>2026-05-02T08:38:20.538Z</time></trkpt><trkpt lat="45.545714" lon="11.4632319"><ele>194.5</ele><time>2026-05-02T08:38:21.538Z</time></trkpt><trkpt lat="45.5456093" lon="11.4632942"><ele>194.0</ele><time>2026-05-02T08:38:22.538Z</time></trkpt><trkpt lat="45.5455006" lon="11.4633567"><ele>193.5</ele><time>2026-05-02T08:38:23.538Z</time></trkpt><trkpt lat="45.5453939" lon="11.4634115"><ele>193.0</ele><time>2026-05-02T08:38:24.539Z</time></trkpt><trkpt lat="45.5452894" lon="11.4634587"><ele>191.0</ele><time>2026-05-02T08:38:25.539Z</time></trkpt><trkpt lat="45.5451903" lon="11.4634995"><ele>189.0</ele><time>2026-05-02T08:38:26.538Z</time></trkpt><trkpt lat="45.5450929" lon="11.4635427"><ele>187.0</ele><time>2026-05-02T08:38:27.538Z</time></trkpt><trkpt lat="45.5449954" lon="11.4636088"><ele>185.0</ele><time>2026-05-02T08:38:28.538Z</time></trkpt><trkpt lat="45.5448928" lon="11.4637089"><ele>183.0</ele><time>2026-05-02T08:38:29.538Z</time></trkpt><trkpt lat="45.5447905" lon="11.4638329"><ele>183.0</ele><time>2026-05-02T08:38:30.538Z</time></trkpt><trkpt lat="45.5446894" lon="11.4639507"><ele>183.0</ele><time>2026-05-02T08:38:31.538Z</time></trkpt><trkpt lat="45.5445893" lon="11.4640631"><ele>183.0</ele><time>2026-05-02T08:38:32.539Z</time></trkpt><trkpt lat="45.5444928" lon="11.4641691"><ele>183.0</ele><time>2026-05-02T08:38:33.538Z</time></trkpt><trkpt lat="45.5444012" lon="11.4642755"><ele>182.66666666666666</ele><time>2026-05-02T08:38:34.539Z</time></trkpt><trkpt lat="45.5443197" lon="11.4643768"><ele>182.33333333333334</ele><time>2026-05-02T08:38:35.538Z</time></trkpt><trkpt lat="45.5442497" lon="11.4644469"><ele>182.0</ele><time>2026-05-02T08:38:36.538Z</time></trkpt><trkpt lat="45.5441801" lon="11.4645047"><ele>181.66666666666669</ele><time>2026-05-02T08:38:37.538Z</time></trkpt><trkpt lat="45.5441027" lon="11.4645413"><ele>181.33333333333334</ele><time>2026-05-02T08:38:38.538Z</time></trkpt><trkpt lat="45.5440159" lon="11.4645703"><ele>181.0</ele><time>2026-05-02T08:38:39.539Z</time></trkpt><trkpt lat="45.5439169" lon="11.4645991"><ele>179.5</ele><time>2026-05-02T08:38:40.538Z</time></trkpt><trkpt lat="45.5438117" lon="11.4646315"><ele>178.0</ele><time>2026-05-02T08:38:41.538Z</time></trkpt><trkpt lat="45.5437025" lon="11.4646686"><ele>176.5</ele><time>2026-05-02T08:38:42.538Z</time></trkpt><trkpt lat="45.5435839" lon="11.4647063"><ele>175.0</ele><time>2026-05-02T08:38:43.538Z</time></trkpt><trkpt lat="45.5434594" lon="11.464747"><ele>175.0</ele><time>2026-05-02T08:38:44.538Z</time></trkpt><trkpt lat="45.5433305" lon="11.464787"><ele>175.0</ele><time>2026-05-02T08:38:45.538Z</time></trkpt><trkpt lat="45.5431948" lon="11.4648321"><ele>175.0</ele><time>2026-05-02T08:38:46.538Z</time></trkpt><trkpt lat="45.5430589" lon="11.464875"><ele>175.0</ele><time>2026-05-02T08:38:47.538Z</time></trkpt><trkpt lat="45.5429254" lon="11.4649185"><ele>175.75</ele><time>2026-05-02T08:38:48.538Z</time></trkpt><trkpt lat="45.5428025" lon="11.4649668"><ele>176.5</ele><time>2026-05-02T08:38:49.538Z</time></trkpt><trkpt lat="45.5426831" lon="11.465018"><ele>177.25</ele><time>2026-05-02T08:38:50.538Z</time></trkpt><trkpt lat="45.5425637" lon="11.4650795"><ele>178.0</ele><time>2026-05-02T08:38:51.538Z</time></trkpt><trkpt lat="45.5424455" lon="11.4651663"><ele>178.0</ele><time>2026-05-02T08:38:52.538Z</time></trkpt><trkpt lat="45.5423283" lon="11.4652669"><ele>178.0</ele><time>2026-05-02T08:38:53.538Z</time></trkpt><trkpt lat="45.5422126" lon="11.4653813"><ele>178.0</ele><time>2026-05-02T08:38:54.539Z</time></trkpt><trkpt lat="45.5420999" lon="11.4654948"><ele>178.0</ele><time>2026-05-02T08:38:55.539Z</time></trkpt><trkpt lat="45.5419909" lon="11.4656163"><ele>176.5</ele><time>2026-05-02T08:38:56.539Z</time></trkpt><trkpt lat="45.5418846" lon="11.4657344"><ele>175.0</ele><time>2026-05-02T08:38:57.538Z</time></trkpt><trkpt lat="45.5417885" lon="11.4658486"><ele>173.5</ele><time>2026-05-02T08:38:58.538Z</time></trkpt><trkpt lat="45.5416976" lon="11.4659552"><ele>172.0</ele><time>2026-05-02T08:38:59.538Z</time></trkpt><trkpt lat="45.5416074" lon="11.4660574"><ele>172.0</ele><time>2026-05-02T08:39:00.539Z</time></trkpt><trkpt lat="45.5415202" lon="11.4661526"><ele>172.0</ele><time>2026-05-02T08:39:01.538Z</time></trkpt><trkpt lat="45.5414265" lon="11.4662357"><ele>172.0</ele><time>2026-05-02T08:39:02.537Z</time></trkpt><trkpt lat="45.5413269" lon="11.4663118"><ele>172.0</ele><time>2026-05-02T08:39:03.538Z</time></trkpt><trkpt lat="45.5412205" lon="11.4663656"><ele>172.0</ele><time>2026-05-02T08:39:04.538Z</time></trkpt><trkpt lat="45.5411039" lon="11.4663942"><ele>174.0</ele><time>2026-05-02T08:39:05.539Z</time></trkpt><trkpt lat="45.5409832" lon="11.4664188"><ele>176.0</ele><time>2026-05-02T08:39:06.538Z</time></trkpt><trkpt lat="45.5408666" lon="11.4664422"><ele>178.0</ele><time>2026-05-02T08:39:07.539Z</time></trkpt><trkpt lat="45.5407575" lon="11.4664687"><ele>180.0</ele><time>2026-05-02T08:39:08.537Z</time></trkpt><trkpt lat="45.5406511" lon="11.4664829"><ele>180.0</ele><time>2026-05-02T08:39:09.538Z</time></trkpt><trkpt lat="45.540534" lon="11.4665016"><ele>180.0</ele><time>2026-05-02T08:39:10.538Z</time></trkpt><trkpt lat="45.5404248" lon="11.4664814"><ele>180.0</ele><time>2026-05-02T08:39:11.538Z</time></trkpt><trkpt lat="45.5403151" lon="11.4664642"><ele>180.0</ele><time>2026-05-02T08:39:12.538Z</time></trkpt><trkpt lat="45.5402047" lon="11.4664422"><ele>179.16666666666666</ele><time>2026-05-02T08:39:13.539Z</time></trkpt><trkpt lat="45.5401049" lon="11.4664156"><ele>178.33333333333334</ele><time>2026-05-02T08:39:14.539Z</time></trkpt><trkpt lat="45.540015" lon="11.4663796"><ele>177.5</ele><time>2026-05-02T08:39:15.538Z</time></trkpt><trkpt lat="45.5399413" lon="11.4663366"><ele>176.66666666666669</ele><time>2026-05-02T08:39:16.538Z</time></trkpt><trkpt lat="45.5398765" lon="11.4662762"><ele>175.83333333333334</ele><time>2026-05-02T08:39:17.539Z</time></trkpt><trkpt lat="45.5398274" lon="11.4661891"><ele>175.0</ele><time>2026-05-02T08:39:18.538Z</time></trkpt><trkpt lat="45.5398033" lon="11.4660623"><ele>173.8</ele><time>2026-05-02T08:39:19.538Z</time></trkpt><trkpt lat="45.5397638" lon="11.4659319"><ele>172.6</ele><time>2026-05-02T08:39:20.539Z</time></trkpt><trkpt lat="45.5397239" lon="11.465808"><ele>171.39999999999998</ele><time>2026-05-02T08:39:21.538Z</time></trkpt><trkpt lat="45.539682" lon="11.4656905"><ele>170.2</ele><time>2026-05-02T08:39:22.538Z</time></trkpt><trkpt lat="45.5396418" lon="11.4655853"><ele>169.0</ele><time>2026-05-02T08:39:23.539Z</time></trkpt><trkpt lat="45.5395877" lon="11.4654901"><ele>166.0</ele><time>2026-05-02T08:39:24.538Z</time></trkpt><trkpt lat="45.5395045" lon="11.4654224"><ele>163.0</ele><time>2026-05-02T08:39:25.538Z</time></trkpt><trkpt lat="45.5394127" lon="11.4653763"><ele>160.0</ele><time>2026-05-02T08:39:26.538Z</time></trkpt><trkpt lat="45.5393148" lon="11.4653477"><ele>157.0</ele><time>2026-05-02T08:39:27.539Z</time></trkpt><trkpt lat="45.5392202" lon="11.4653213"><ele>154.0</ele><time>2026-05-02T08:39:28.538Z</time></trkpt><trkpt lat="45.5391307" lon="11.4653099"><ele>154.0</ele><time>2026-05-02T08:39:29.538Z</time></trkpt><trkpt lat="45.539055" lon="11.4653251"><ele>154.0</ele><time>2026-05-02T08:39:30.539Z</time></trkpt><trkpt lat="45.5389919" lon="11.4653697"><ele>154.0</ele><time>2026-05-02T08:39:31.539Z</time></trkpt><trkpt lat="45.5389449" lon="11.4654544"><ele>154.0</ele><time>2026-05-02T08:39:32.537Z</time></trkpt><trkpt lat="45.5389285" lon="11.4655599"><ele>154.0</ele><time>2026-05-02T08:39:33.539Z</time></trkpt><trkpt lat="45.538928" lon="11.4656849"><ele>154.0</ele><time>2026-05-02T08:39:34.537Z</time></trkpt><trkpt lat="45.5389331" lon="11.4658256"><ele>154.6</ele><time>2026-05-02T08:39:35.538Z</time></trkpt><trkpt lat="45.5389377" lon="11.4659743"><ele>155.2</ele><time>2026-05-02T08:39:36.538Z</time></trkpt><trkpt lat="45.5389435" lon="11.4661203"><ele>155.79999999999998</ele><time>2026-05-02T08:39:37.538Z</time></trkpt><trkpt lat="45.5389516" lon="11.4662656"><ele>156.4</ele><time>2026-05-02T08:39:38.537Z</time></trkpt><trkpt lat="45.5389532" lon="11.4664075"><ele>157.0</ele><time>2026-05-02T08:39:39.539Z</time></trkpt><trkpt lat="45.538951" lon="11.4665399"><ele>158.0</ele><time>2026-05-02T08:39:40.538Z</time></trkpt><trkpt lat="45.538954" lon="11.4666803"><ele>159.0</ele><time>2026-05-02T08:39:41.538Z</time></trkpt><trkpt lat="45.5389449" lon="11.4668157"><ele>160.0</ele><time>2026-05-02T08:39:42.539Z</time></trkpt><trkpt lat="45.5389286" lon="11.4669575"><ele>161.0</ele><time>2026-05-02T08:39:43.538Z</time></trkpt><trkpt lat="45.5389016" lon="11.467104"><ele>162.0</ele><time>2026-05-02T08:39:44.538Z</time></trkpt><trkpt lat="45.5388696" lon="11.4672418"><ele>162.83333333333334</ele><time>2026-05-02T08:39:45.539Z</time></trkpt><trkpt lat="45.5388417" lon="11.4673595"><ele>163.66666666666666</ele><time>2026-05-02T08:39:46.538Z</time></trkpt><trkpt lat="45.5388145" lon="11.4674689"><ele>164.5</ele><time>2026-05-02T08:39:47.538Z</time></trkpt><trkpt lat="45.5387955" lon="11.4675738"><ele>165.33333333333331</ele><time>2026-05-02T08:39:48.538Z</time></trkpt><trkpt lat="45.5387682" lon="11.4676745"><ele>166.16666666666666</ele><time>2026-05-02T08:39:49.538Z</time></trkpt><trkpt lat="45.5387294" lon="11.4677677"><ele>167.0</ele><time>2026-05-02T08:39:50.539Z</time></trkpt><trkpt lat="45.5386788" lon="11.4678549"><ele>163.0</ele><time>2026-05-02T08:39:51.538Z</time></trkpt><trkpt lat="45.5386156" lon="11.467931"><ele>159.0</ele><time>2026-05-02T08:39:52.537Z</time></trkpt><trkpt lat="45.538524" lon="11.4679932"><ele>155.0</ele><time>2026-05-02T08:39:53.538Z</time></trkpt><trkpt lat="45.5384411" lon="11.4680211"><ele>151.0</ele><time>2026-05-02T08:39:54.538Z</time></trkpt><trkpt lat="45.5383503" lon="11.4680555"><ele>147.0</ele><time>2026-05-02T08:39:55.539Z</time></trkpt><trkpt lat="45.5382695" lon="11.4680767"><ele>143.0</ele><time>2026-05-02T08:39:56.538Z</time></trkpt><trkpt lat="45.5381826" lon="11.4681017"><ele>143.0</ele><time>2026-05-02T08:39:57.539Z</time></trkpt><trkpt lat="45.5380975" lon="11.4681597"><ele>143.0</ele><time>2026-05-02T08:39:58.538Z</time></trkpt><trkpt lat="45.538018" lon="11.4682392"><ele>143.0</ele><time>2026-05-02T08:39:59.537Z</time></trkpt><trkpt lat="45.5379552" lon="11.4683298"><ele>143.0</ele><time>2026-05-02T08:40:00.538Z</time></trkpt><trkpt lat="45.5379127" lon="11.4684444"><ele>143.0</ele><time>2026-05-02T08:40:01.539Z</time></trkpt><trkpt lat="45.5378887" lon="11.4685752"><ele>137.5</ele><time>2026-05-02T08:40:02.538Z</time></trkpt><trkpt lat="45.5378528" lon="11.4687219"><ele>132.0</ele><time>2026-05-02T08:40:03.538Z</time></trkpt><trkpt lat="45.5378032" lon="11.4688729"><ele>126.5</ele><time>2026-05-02T08:40:04.538Z</time></trkpt><trkpt lat="45.5377587" lon="11.469026"><ele>121.0</ele><time>2026-05-02T08:40:05.538Z</time></trkpt><trkpt lat="45.5377081" lon="11.4691737"><ele>120.8</ele><time>2026-05-02T08:40:06.538Z</time></trkpt><trkpt lat="45.5376492" lon="11.4693122"><ele>120.6</ele><time>2026-05-02T08:40:07.537Z</time></trkpt><trkpt lat="45.5375878" lon="11.4694507"><ele>120.4</ele><time>2026-05-02T08:40:08.538Z</time></trkpt><trkpt lat="45.5375281" lon="11.4695814"><ele>120.2</ele><time>2026-05-02T08:40:09.538Z</time></trkpt><trkpt lat="45.5374738" lon="11.4697073"><ele>120.0</ele><time>2026-05-02T08:40:10.538Z</time></trkpt><trkpt lat="45.5374308" lon="11.4698263"><ele>119.2</ele><time>2026-05-02T08:40:11.537Z</time></trkpt><trkpt lat="45.5373983" lon="11.4699278"><ele>118.4</ele><time>2026-05-02T08:40:12.539Z</time></trkpt><trkpt lat="45.5373642" lon="11.4700094"><ele>117.6</ele><time>2026-05-02T08:40:13.538Z</time></trkpt><trkpt lat="45.5372837" lon="11.4700936"><ele>116.8</ele><time>2026-05-02T08:40:15.538Z</time></trkpt><trkpt lat="45.5371928" lon="11.4700382"><ele>116.0</ele><time>2026-05-02T08:40:17.538Z</time></trkpt><trkpt lat="45.5370933" lon="11.4699688"><ele>114.57142857142858</ele><time>2026-05-02T08:40:19.538Z</time></trkpt><trkpt lat="45.5370299" lon="11.4699879"><ele>113.14285714285714</ele><time>2026-05-02T08:40:20.539Z</time></trkpt><trkpt lat="45.5369788" lon="11.4700538"><ele>111.71428571428572</ele><time>2026-05-02T08:40:21.538Z</time></trkpt><trkpt lat="45.5369389" lon="11.4701449"><ele>110.28571428571429</ele><time>2026-05-02T08:40:22.538Z</time></trkpt><trkpt lat="45.5369074" lon="11.4702437"><ele>108.85714285714286</ele><time>2026-05-02T08:40:23.539Z</time></trkpt><trkpt lat="45.5368856" lon="11.470341"><ele>107.42857142857143</ele><time>2026-05-02T08:40:24.539Z</time></trkpt><trkpt lat="45.5368717" lon="11.4704313"><ele>106.0</ele><time>2026-05-02T08:40:25.538Z</time></trkpt><trkpt lat="45.5368155" lon="11.4705745"><ele>105.0</ele><time>2026-05-02T08:40:27.538Z</time></trkpt><trkpt lat="45.5367163" lon="11.4706536"><ele>104.0</ele><time>2026-05-02T08:40:29.538Z</time></trkpt><trkpt lat="45.5366085" lon="11.4707513"><ele>103.0</ele><time>2026-05-02T08:40:31.539Z</time></trkpt><trkpt lat="45.5365631" lon="11.4708148"><ele>102.0</ele><time>2026-05-02T08:40:32.538Z</time></trkpt><trkpt lat="45.5364834" lon="11.4709469"><ele>101.0</ele><time>2026-05-02T08:40:34.537Z</time></trkpt><trkpt lat="45.5363833" lon="11.4710316"><ele>100.99999999999999</ele><time>2026-05-02T08:40:36.538Z</time></trkpt><trkpt lat="45.5363195" lon="11.4710643"><ele>101.0</ele><time>2026-05-02T08:40:37.538Z</time></trkpt><trkpt lat="45.5362547" lon="11.4710968"><ele>101.0</ele><time>2026-05-02T08:40:38.538Z</time></trkpt><trkpt lat="45.5361844" lon="11.4711224"><ele>101.0</ele><time>2026-05-02T08:40:39.538Z</time></trkpt><trkpt lat="45.5361044" lon="11.4711598"><ele>100.99999999999999</ele><time>2026-05-02T08:40:40.539Z</time></trkpt><trkpt lat="45.5360207" lon="11.4712037"><ele>101.0</ele><time>2026-05-02T08:40:41.538Z</time></trkpt><trkpt lat="45.5359373" lon="11.4712614"><ele>99.83333333333333</ele><time>2026-05-02T08:40:42.539Z</time></trkpt><trkpt lat="45.5358598" lon="11.4713117"><ele>98.66666666666666</ele><time>2026-05-02T08:40:43.539Z</time></trkpt><trkpt lat="45.5357874" lon="11.4713608"><ele>97.5</ele><time>2026-05-02T08:40:44.539Z</time></trkpt><trkpt lat="45.5357091" lon="11.4714076"><ele>96.33333333333333</ele><time>2026-05-02T08:40:45.538Z</time></trkpt><trkpt lat="45.5356429" lon="11.4713997"><ele>95.16666666666666</ele><time>2026-05-02T08:40:46.537Z</time></trkpt><trkpt lat="45.535543" lon="11.4713334"><ele>94.0</ele><time>2026-05-02T08:40:48.538Z</time></trkpt><trkpt lat="45.5355291" lon="11.4712429"><ele>94.0</ele><time>2026-05-02T08:40:49.538Z</time></trkpt><trkpt lat="45.5355293" lon="11.471142"><ele>94.0</ele><time>2026-05-02T08:40:50.539Z</time></trkpt><trkpt lat="45.5355423" lon="11.4710476"><ele>94.0</ele><time>2026-05-02T08:40:51.538Z</time></trkpt><trkpt lat="45.535521" lon="11.4709093"><ele>94.0</ele><time>2026-05-02T08:40:53.538Z</time></trkpt><trkpt lat="45.5354243" lon="11.4709153"><ele>94.0</ele><time>2026-05-02T08:40:55.539Z</time></trkpt><trkpt lat="45.5353524" lon="11.4710306"><ele>94.0</ele><time>2026-05-02T08:40:57.538Z</time></trkpt><trkpt lat="45.5353354" lon="11.471118"><ele>92.0</ele><time>2026-05-02T08:40:58.538Z</time></trkpt><trkpt lat="45.5353384" lon="11.4712225"><ele>90.0</ele><time>2026-05-02T08:40:59.539Z</time></trkpt><trkpt lat="45.5353572" lon="11.4713347"><ele>88.0</ele><time>2026-05-02T08:41:00.539Z</time></trkpt><trkpt lat="45.5353882" lon="11.4714435"><ele>86.0</ele><time>2026-05-02T08:41:01.538Z</time></trkpt><trkpt lat="45.5354393" lon="11.4715355"><ele>84.0</ele><time>2026-05-02T08:41:02.538Z</time></trkpt><trkpt lat="45.5355055" lon="11.4716032"><ele>82.0</ele><time>2026-05-02T08:41:03.538Z</time></trkpt><trkpt lat="45.5355829" lon="11.4716461"><ele>82.0</ele><time>2026-05-02T08:41:04.538Z</time></trkpt><trkpt lat="45.5356574" lon="11.4716582"><ele>82.0</ele><time>2026-05-02T08:41:05.538Z</time></trkpt><trkpt lat="45.5357253" lon="11.4716599"><ele>82.0</ele><time>2026-05-02T08:41:06.539Z</time></trkpt><trkpt lat="45.5358099" lon="11.4716859"><ele>82.0</ele><time>2026-05-02T08:41:08.539Z</time></trkpt><trkpt lat="45.5358056" lon="11.4717773"><ele>82.0</ele><time>2026-05-02T08:41:10.538Z</time></trkpt><trkpt lat="45.5357101" lon="11.4717946"><ele>82.0</ele><time>2026-05-02T08:41:12.538Z</time></trkpt><trkpt lat="45.5355752" lon="11.4717641"><ele>82.0</ele><time>2026-05-02T08:41:14.538Z</time></trkpt><trkpt lat="45.5355035" lon="11.4717457"><ele>82.0</ele><time>2026-05-02T08:41:15.539Z</time></trkpt><trkpt lat="45.5354349" lon="11.4717306"><ele>82.0</ele><time>2026-05-02T08:41:16.539Z</time></trkpt><trkpt lat="45.5353701" lon="11.4717344"><ele>82.0</ele><time>2026-05-02T08:41:17.539Z</time></trkpt><trkpt lat="45.5352776" lon="11.4718364"><ele>82.0</ele><time>2026-05-02T08:41:19.537Z</time></trkpt><trkpt lat="45.5352855" lon="11.4719643"><ele>82.0</ele><time>2026-05-02T08:41:21.538Z</time></trkpt><trkpt lat="45.5353838" lon="11.472094"><ele>81.99999999999999</ele><time>2026-05-02T08:41:23.538Z</time></trkpt><trkpt lat="45.5354461" lon="11.4721558"><ele>82.0</ele><time>2026-05-02T08:41:24.539Z</time></trkpt><trkpt lat="45.5355119" lon="11.4721995"><ele>82.0</ele><time>2026-05-02T08:41:25.538Z</time></trkpt><trkpt lat="45.5355832" lon="11.4722119"><ele>82.0</ele><time>2026-05-02T08:41:26.538Z</time></trkpt><trkpt lat="45.5356573" lon="11.4721859"><ele>82.0</ele><time>2026-05-02T08:41:27.538Z</time></trkpt><trkpt lat="45.5357282" lon="11.4721363"><ele>81.99999999999999</ele><time>2026-05-02T08:41:28.537Z</time></trkpt><trkpt lat="45.5357899" lon="11.4720896"><ele>82.0</ele><time>2026-05-02T08:41:29.538Z</time></trkpt><trkpt lat="45.5358854" lon="11.4720252"><ele>78.6</ele><time>2026-05-02T08:41:31.54Z</time></trkpt><trkpt lat="45.535941" lon="11.4721102"><ele>75.19999999999999</ele><time>2026-05-02T08:41:33.539Z</time></trkpt><trkpt lat="45.5358709" lon="11.4722239"><ele>71.8</ele><time>2026-05-02T08:41:35.538Z</time></trkpt><trkpt lat="45.5357981" lon="11.4723118"><ele>68.4</ele><time>2026-05-02T08:41:36.537Z</time></trkpt><trkpt lat="45.5357241" lon="11.4724093"><ele>65.0</ele><time>2026-05-02T08:41:37.538Z</time></trkpt><trkpt lat="45.5356451" lon="11.4724975"><ele>65.0</ele><time>2026-05-02T08:41:38.539Z</time></trkpt><trkpt lat="45.5355557" lon="11.4725705"><ele>65.0</ele><time>2026-05-02T08:41:39.538Z</time></trkpt><trkpt lat="45.5354484" lon="11.4726304"><ele>65.0</ele><time>2026-05-02T08:41:40.539Z</time></trkpt><trkpt lat="45.5353342" lon="11.4726934"><ele>65.0</ele><time>2026-05-02T08:41:41.538Z</time></trkpt><trkpt lat="45.5352192" lon="11.472754"><ele>64.5</ele><time>2026-05-02T08:41:42.539Z</time></trkpt><trkpt lat="45.5351133" lon="11.4728079"><ele>64.0</ele><time>2026-05-02T08:41:43.538Z</time></trkpt><trkpt lat="45.5350217" lon="11.47285"><ele>63.5</ele><time>2026-05-02T08:41:44.538Z</time></trkpt><trkpt lat="45.5349434" lon="11.4728819"><ele>63.0</ele><time>2026-05-02T08:41:45.539Z</time></trkpt><trkpt lat="45.5348784" lon="11.4729239"><ele>62.50000000000001</ele><time>2026-05-02T08:41:46.538Z</time></trkpt><trkpt lat="45.5348463" lon="11.4730162"><ele>62.0</ele><time>2026-05-02T08:41:47.538Z</time></trkpt><trkpt lat="45.5348413" lon="11.4731239"><ele>60.400000000000006</ele><time>2026-05-02T08:41:48.539Z</time></trkpt><trkpt lat="45.5348516" lon="11.4732498"><ele>58.800000000000004</ele><time>2026-05-02T08:41:49.539Z</time></trkpt><trkpt lat="45.5348639" lon="11.4733846"><ele>57.2</ele><time>2026-05-02T08:41:50.538Z</time></trkpt><trkpt lat="45.5348803" lon="11.4735176"><ele>55.6</ele><time>2026-05-02T08:41:51.537Z</time></trkpt><trkpt lat="45.5348911" lon="11.4736535"><ele>54.0</ele><time>2026-05-02T08:41:52.538Z</time></trkpt><trkpt lat="45.5348807" lon="11.4737824"><ele>51.800000000000004</ele><time>2026-05-02T08:41:53.538Z</time></trkpt><trkpt lat="45.5348388" lon="11.473906"><ele>49.60000000000001</ele><time>2026-05-02T08:41:54.539Z</time></trkpt><trkpt lat="45.5347792" lon="11.4740278"><ele>47.4</ele><time>2026-05-02T08:41:55.538Z</time></trkpt><trkpt lat="45.5347055" lon="11.4741556"><ele>45.2</ele><time>2026-05-02T08:41:56.537Z</time></trkpt><trkpt lat="45.5346349" lon="11.474284"><ele>43.0</ele><time>2026-05-02T08:41:57.538Z</time></trkpt><trkpt lat="45.5345672" lon="11.4744064"><ele>42.8</ele><time>2026-05-02T08:41:58.538Z</time></trkpt><trkpt lat="45.5345035" lon="11.4745214"><ele>42.599999999999994</ele><time>2026-05-02T08:41:59.539Z</time></trkpt><trkpt lat="45.5344347" lon="11.4746194"><ele>42.400000000000006</ele><time>2026-05-02T08:42:00.538Z</time></trkpt><trkpt lat="45.534355" lon="11.4746853"><ele>42.2</ele><time>2026-05-02T08:42:01.539Z</time></trkpt><trkpt lat="45.5342645" lon="11.4747141"><ele>42.0</ele><time>2026-05-02T08:42:02.538Z</time></trkpt><trkpt lat="45.5341679" lon="11.4747205"><ele>41.833333333333336</ele><time>2026-05-02T08:42:03.538Z</time></trkpt><trkpt lat="45.5340669" lon="11.4747141"><ele>41.666666666666664</ele><time>2026-05-02T08:42:04.537Z</time></trkpt><trkpt lat="45.5339674" lon="11.4747061"><ele>41.5</ele><time>2026-05-02T08:42:05.538Z</time></trkpt><trkpt lat="45.5338743" lon="11.4746978"><ele>41.33333333333333</ele><time>2026-05-02T08:42:06.538Z</time></trkpt><trkpt lat="45.5337978" lon="11.4747057"><ele>41.166666666666664</ele><time>2026-05-02T08:42:07.538Z</time></trkpt><trkpt lat="45.533732" lon="11.4747362"><ele>41.0</ele><time>2026-05-02T08:42:09.539Z</time></trkpt><trkpt lat="45.5336624" lon="11.4747899"><ele>41.0</ele><time>2026-05-02T08:42:12.539Z</time></trkpt><trkpt lat="45.5336052" lon="11.474941"><ele>41.0</ele><time>2026-05-02T08:42:14.539Z</time></trkpt><trkpt lat="45.5335778" lon="11.4750583"><ele>41.0</ele><time>2026-05-02T08:42:15.539Z</time></trkpt><trkpt lat="45.5335437" lon="11.4751945"><ele>41.0</ele><time>2026-05-02T08:42:16.539Z</time></trkpt><trkpt lat="45.533507" lon="11.4753399"><ele>41.0</ele><time>2026-05-02T08:42:17.539Z</time></trkpt><trkpt lat="45.5334673" lon="11.4754908"><ele>41.0</ele><time>2026-05-02T08:42:18.539Z</time></trkpt><trkpt lat="45.5334248" lon="11.4756428"><ele>41.0</ele><time>2026-05-02T08:42:19.538Z</time></trkpt><trkpt lat="45.5333837" lon="11.4757882"><ele>41.0</ele><time>2026-05-02T08:42:20.538Z</time></trkpt><trkpt lat="45.5333397" lon="11.4759259"><ele>41.0</ele><time>2026-05-02T08:42:21.538Z</time></trkpt><trkpt lat="45.5332965" lon="11.4760515"><ele>41.0</ele><time>2026-05-02T08:42:22.539Z</time></trkpt><trkpt lat="45.5332585" lon="11.4761726"><ele>41.0</ele><time>2026-05-02T08:42:23.539Z</time></trkpt><trkpt lat="45.5332208" lon="11.4762954"><ele>41.0</ele><time>2026-05-02T08:42:24.539Z</time></trkpt><trkpt lat="45.5331795" lon="11.4764215"><ele>41.0</ele><time>2026-05-02T08:42:25.538Z</time></trkpt><trkpt lat="45.5331392" lon="11.4765541"><ele>41.0</ele><time>2026-05-02T08:42:26.538Z</time></trkpt><trkpt lat="45.5331066" lon="11.4766889"><ele>41.0</ele><time>2026-05-02T08:42:27.539Z</time></trkpt><trkpt lat="45.5330788" lon="11.4768233"><ele>41.0</ele><time>2026-05-02T08:42:28.539Z</time></trkpt><trkpt lat="45.533051" lon="11.476968"><ele>41.0</ele><time>2026-05-02T08:42:29.539Z</time></trkpt><trkpt lat="45.5330337" lon="11.4771229"><ele>41.0</ele><time>2026-05-02T08:42:30.539Z</time></trkpt><trkpt lat="45.5330244" lon="11.4772821"><ele>41.0</ele><time>2026-05-02T08:42:31.538Z</time></trkpt><trkpt lat="45.5330239" lon="11.4774369"><ele>41.0</ele><time>2026-05-02T08:42:32.538Z</time></trkpt><trkpt lat="45.5330291" lon="11.4775912"><ele>40.8</ele><time>2026-05-02T08:42:33.538Z</time></trkpt><trkpt lat="45.5330385" lon="11.4777364"><ele>40.599999999999994</ele><time>2026-05-02T08:42:34.538Z</time></trkpt><trkpt lat="45.5330461" lon="11.4778755"><ele>40.4</ele><time>2026-05-02T08:42:35.538Z</time></trkpt><trkpt lat="45.5330539" lon="11.4779961"><ele>40.2</ele><time>2026-05-02T08:42:36.537Z</time></trkpt><trkpt lat="45.5330676" lon="11.4781418"><ele>40.0</ele><time>2026-05-02T08:42:38.538Z</time></trkpt><trkpt lat="45.5330697" lon="11.4782395"><ele>39.5</ele><time>2026-05-02T08:42:42.538Z</time></trkpt><trkpt lat="45.5330601" lon="11.4783342"><ele>39.0</ele><time>2026-05-02T08:42:44.539Z</time></trkpt><trkpt lat="45.5330271" lon="11.4784659"><ele>38.5</ele><time>2026-05-02T08:42:46.538Z</time></trkpt><trkpt lat="45.5330341" lon="11.4786059"><ele>38.0</ele><time>2026-05-02T08:42:48.538Z</time></trkpt><trkpt lat="45.533087" lon="11.4786958"><ele>37.5</ele><time>2026-05-02T08:42:50.538Z</time></trkpt><trkpt lat="45.5331736" lon="11.4787442"><ele>37.0</ele><time>2026-05-02T08:42:52.539Z</time></trkpt><trkpt lat="45.5333036" lon="11.4787832"><ele>37.0</ele><time>2026-05-02T08:42:54.538Z</time></trkpt><trkpt lat="45.5333749" lon="11.4788426"><ele>37.0</ele><time>2026-05-02T08:42:55.537Z</time></trkpt><trkpt lat="45.5334481" lon="11.4789312"><ele>37.0</ele><time>2026-05-02T08:42:56.538Z</time></trkpt><trkpt lat="45.5335194" lon="11.4790432"><ele>37.0</ele><time>2026-05-02T08:42:57.539Z</time></trkpt><trkpt lat="45.5335962" lon="11.4791583"><ele>37.0</ele><time>2026-05-02T08:42:58.538Z</time></trkpt><trkpt lat="45.5336677" lon="11.4792626"><ele>36.85714285714286</ele><time>2026-05-02T08:42:59.538Z</time></trkpt><trkpt lat="45.5337257" lon="11.4793466"><ele>36.714285714285715</ele><time>2026-05-02T08:43:00.539Z</time></trkpt><trkpt lat="45.5337802" lon="11.4794219"><ele>36.57142857142857</ele><time>2026-05-02T08:43:01.539Z</time></trkpt><trkpt lat="45.5338285" lon="11.4794972"><ele>36.42857142857143</ele><time>2026-05-02T08:43:02.539Z</time></trkpt><trkpt lat="45.5338753" lon="11.479563"><ele>36.285714285714285</ele><time>2026-05-02T08:43:03.538Z</time></trkpt><trkpt lat="45.5339236" lon="11.479634"><ele>36.142857142857146</ele><time>2026-05-02T08:43:04.538Z</time></trkpt><trkpt lat="45.5339747" lon="11.4797111"><ele>36.0</ele><time>2026-05-02T08:43:05.539Z</time></trkpt><trkpt lat="45.53403" lon="11.4797968"><ele>35.833333333333336</ele><time>2026-05-02T08:43:06.539Z</time></trkpt><trkpt lat="45.5340904" lon="11.4798879"><ele>35.666666666666664</ele><time>2026-05-02T08:43:07.538Z</time></trkpt><trkpt lat="45.5341434" lon="11.4799723"><ele>35.5</ele><time>2026-05-02T08:43:08.538Z</time></trkpt><trkpt lat="45.5341937" lon="11.4800534"><ele>35.33333333333333</ele><time>2026-05-02T08:43:09.538Z</time></trkpt><trkpt lat="45.5342413" lon="11.4801307"><ele>35.166666666666664</ele><time>2026-05-02T08:43:10.538Z</time></trkpt><trkpt lat="45.5342883" lon="11.4802092"><ele>35.0</ele><time>2026-05-02T08:43:11.538Z</time></trkpt><trkpt lat="45.5343344" lon="11.4802936"><ele>35.0</ele><time>2026-05-02T08:43:12.539Z</time></trkpt><trkpt lat="45.5343837" lon="11.4803855"><ele>35.0</ele><time>2026-05-02T08:43:13.539Z</time></trkpt><trkpt lat="45.5344372" lon="11.4804806"><ele>35.0</ele><time>2026-05-02T08:43:14.538Z</time></trkpt><trkpt lat="45.5344914" lon="11.4805815"><ele>35.0</ele><time>2026-05-02T08:43:15.538Z</time></trkpt><trkpt lat="45.5345463" lon="11.4806854"><ele>35.0</ele><time>2026-05-02T08:43:16.538Z</time></trkpt><trkpt lat="45.534601" lon="11.480794"><ele>35.0</ele><time>2026-05-02T08:43:17.539Z</time></trkpt><trkpt lat="45.5346511" lon="11.4808959"><ele>34.83333333333333</ele><time>2026-05-02T08:43:18.538Z</time></trkpt><trkpt lat="45.5347024" lon="11.4809975"><ele>34.666666666666664</ele><time>2026-05-02T08:43:19.538Z</time></trkpt><trkpt lat="45.534758" lon="11.4810954"><ele>34.5</ele><time>2026-05-02T08:43:20.538Z</time></trkpt><trkpt lat="45.5348086" lon="11.4811812"><ele>34.333333333333336</ele><time>2026-05-02T08:43:21.537Z</time></trkpt><trkpt lat="45.5348543" lon="11.4812668"><ele>34.16666666666667</ele><time>2026-05-02T08:43:22.538Z</time></trkpt><trkpt lat="45.5348951" lon="11.4813518"><ele>34.0</ele><time>2026-05-02T08:43:23.539Z</time></trkpt><trkpt lat="45.5349349" lon="11.4814494"><ele>34.0</ele><time>2026-05-02T08:43:24.539Z</time></trkpt><trkpt lat="45.5349716" lon="11.4815608"><ele>34.0</ele><time>2026-05-02T08:43:25.538Z</time></trkpt><trkpt lat="45.5350121" lon="11.4816909"><ele>34.0</ele><time>2026-05-02T08:43:26.538Z</time></trkpt><trkpt lat="45.5350586" lon="11.4818357"><ele>34.0</ele><time>2026-05-02T08:43:27.539Z</time></trkpt><trkpt lat="45.535109" lon="11.4819971"><ele>34.0</ele><time>2026-05-02T08:43:28.539Z</time></trkpt><trkpt lat="45.5351604" lon="11.4821706"><ele>34.25</ele><time>2026-05-02T08:43:29.538Z</time></trkpt><trkpt lat="45.5352171" lon="11.4823547"><ele>34.5</ele><time>2026-05-02T08:43:30.538Z</time></trkpt><trkpt lat="45.535277" lon="11.4825477"><ele>34.75</ele><time>2026-05-02T08:43:31.537Z</time></trkpt><trkpt lat="45.5353372" lon="11.4827488"><ele>35.0</ele><time>2026-05-02T08:43:32.539Z</time></trkpt><trkpt lat="45.5353983" lon="11.4829574"><ele>35.0</ele><time>2026-05-02T08:43:33.538Z</time></trkpt><trkpt lat="45.535459" lon="11.4831699"><ele>35.0</ele><time>2026-05-02T08:43:34.539Z</time></trkpt><trkpt lat="45.5355186" lon="11.4833841"><ele>35.0</ele><time>2026-05-02T08:43:35.538Z</time></trkpt><trkpt lat="45.53558" lon="11.4835976"><ele>35.0</ele><time>2026-05-02T08:43:36.539Z</time></trkpt><trkpt lat="45.5356417" lon="11.4838102"><ele>35.0</ele><time>2026-05-02T08:43:37.538Z</time></trkpt><trkpt lat="45.5357024" lon="11.4840254"><ele>35.0</ele><time>2026-05-02T08:43:38.538Z</time></trkpt><trkpt lat="45.5357623" lon="11.4842424"><ele>35.0</ele><time>2026-05-02T08:43:39.537Z</time></trkpt><trkpt lat="45.5358238" lon="11.4844612"><ele>35.0</ele><time>2026-05-02T08:43:40.537Z</time></trkpt><trkpt lat="45.5358913" lon="11.4846807"><ele>35.0</ele><time>2026-05-02T08:43:41.539Z</time></trkpt><trkpt lat="45.5359661" lon="11.4848991"><ele>34.33333333333333</ele><time>2026-05-02T08:43:42.538Z</time></trkpt><trkpt lat="45.5360457" lon="11.485116"><ele>33.666666666666664</ele><time>2026-05-02T08:43:43.539Z</time></trkpt><trkpt lat="45.5361288" lon="11.4853336"><ele>33.0</ele><time>2026-05-02T08:43:44.539Z</time></trkpt><trkpt lat="45.5362134" lon="11.485553"><ele>33.666666666666664</ele><time>2026-05-02T08:43:45.538Z</time></trkpt><trkpt lat="45.5363021" lon="11.4857706"><ele>34.33333333333333</ele><time>2026-05-02T08:43:46.539Z</time></trkpt><trkpt lat="45.5363888" lon="11.4859831"><ele>35.0</ele><time>2026-05-02T08:43:47.538Z</time></trkpt><trkpt lat="45.5364732" lon="11.4861891"><ele>34.75</ele><time>2026-05-02T08:43:48.538Z</time></trkpt><trkpt lat="45.5365478" lon="11.4863875"><ele>34.5</ele><time>2026-05-02T08:43:49.538Z</time></trkpt><trkpt lat="45.5366124" lon="11.486582"><ele>34.25</ele><time>2026-05-02T08:43:50.538Z</time></trkpt><trkpt lat="45.5366657" lon="11.4867654"><ele>34.0</ele><time>2026-05-02T08:43:51.539Z</time></trkpt><trkpt lat="45.536714" lon="11.4869408"><ele>34.0</ele><time>2026-05-02T08:43:52.538Z</time></trkpt><trkpt lat="45.5367581" lon="11.4871061"><ele>34.0</ele><time>2026-05-02T08:43:53.539Z</time></trkpt><trkpt lat="45.5368019" lon="11.4872677"><ele>34.0</ele><time>2026-05-02T08:43:54.539Z</time></trkpt><trkpt lat="45.5368479" lon="11.4874292"><ele>34.0</ele><time>2026-05-02T08:43:55.539Z</time></trkpt><trkpt lat="45.5368946" lon="11.4875925"><ele>34.0</ele><time>2026-05-02T08:43:56.538Z</time></trkpt><trkpt lat="45.5369431" lon="11.4877549"><ele>34.0</ele><time>2026-05-02T08:43:57.539Z</time></trkpt><trkpt lat="45.5369922" lon="11.4879144"><ele>34.0</ele><time>2026-05-02T08:43:58.538Z</time></trkpt><trkpt lat="45.5370411" lon="11.4880704"><ele>34.0</ele><time>2026-05-02T08:43:59.538Z</time></trkpt><trkpt lat="45.5370898" lon="11.4882201"><ele>33.8</ele><time>2026-05-02T08:44:00.539Z</time></trkpt><trkpt lat="45.5371343" lon="11.4883574"><ele>33.599999999999994</ele><time>2026-05-02T08:44:01.538Z</time></trkpt><trkpt lat="45.5371745" lon="11.488479"><ele>33.4</ele><time>2026-05-02T08:44:02.538Z</time></trkpt><trkpt lat="45.5372145" lon="11.488603"><ele>33.199999999999996</ele><time>2026-05-02T08:44:03.538Z</time></trkpt><trkpt lat="45.5372558" lon="11.4887299"><ele>33.0</ele><time>2026-05-02T08:44:04.538Z</time></trkpt><trkpt lat="45.5372974" lon="11.4888569"><ele>32.8</ele><time>2026-05-02T08:44:05.538Z</time></trkpt><trkpt lat="45.5373405" lon="11.4889907"><ele>32.599999999999994</ele><time>2026-05-02T08:44:06.538Z</time></trkpt><trkpt lat="45.5373812" lon="11.4891306"><ele>32.400000000000006</ele><time>2026-05-02T08:44:07.539Z</time></trkpt><trkpt lat="45.5374121" lon="11.4892738"><ele>32.2</ele><time>2026-05-02T08:44:08.538Z</time></trkpt><trkpt lat="45.5374247" lon="11.4894124"><ele>32.0</ele><time>2026-05-02T08:44:09.538Z</time></trkpt><trkpt lat="45.5374305" lon="11.4895524"><ele>32.2</ele><time>2026-05-02T08:44:10.538Z</time></trkpt><trkpt lat="45.5374238" lon="11.4896915"><ele>32.400000000000006</ele><time>2026-05-02T08:44:11.538Z</time></trkpt><trkpt lat="45.5374086" lon="11.4898237"><ele>32.599999999999994</ele><time>2026-05-02T08:44:12.538Z</time></trkpt><trkpt lat="45.537384" lon="11.4899485"><ele>32.8</ele><time>2026-05-02T08:44:13.538Z</time></trkpt><trkpt lat="45.5373534" lon="11.49007"><ele>33.0</ele><time>2026-05-02T08:44:14.538Z</time></trkpt><trkpt lat="45.5373179" lon="11.4901836"><ele>33.0</ele><time>2026-05-02T08:44:15.538Z</time></trkpt><trkpt lat="45.5372834" lon="11.4902937"><ele>33.0</ele><time>2026-05-02T08:44:16.538Z</time></trkpt><trkpt lat="45.5372476" lon="11.4904013"><ele>33.0</ele><time>2026-05-02T08:44:17.539Z</time></trkpt><trkpt lat="45.5372112" lon="11.4905138"><ele>33.0</ele><time>2026-05-02T08:44:18.538Z</time></trkpt><trkpt lat="45.5371758" lon="11.4906306"><ele>33.0</ele><time>2026-05-02T08:44:19.538Z</time></trkpt><trkpt lat="45.5371514" lon="11.4907578"><ele>33.0</ele><time>2026-05-02T08:44:20.537Z</time></trkpt><trkpt lat="45.5371357" lon="11.4908934"><ele>32.666666666666664</ele><time>2026-05-02T08:44:21.538Z</time></trkpt><trkpt lat="45.5371323" lon="11.4910276"><ele>32.333333333333336</ele><time>2026-05-02T08:44:22.538Z</time></trkpt><trkpt lat="45.5371366" lon="11.4911575"><ele>32.0</ele><time>2026-05-02T08:44:23.538Z</time></trkpt><trkpt lat="45.5371461" lon="11.4912831"><ele>31.666666666666668</ele><time>2026-05-02T08:44:24.538Z</time></trkpt><trkpt lat="45.5371535" lon="11.4914048"><ele>31.333333333333336</ele><time>2026-05-02T08:44:25.537Z</time></trkpt><trkpt lat="45.5371581" lon="11.491522"><ele>31.0</ele><time>2026-05-02T08:44:26.539Z</time></trkpt><trkpt lat="45.5371633" lon="11.4916349"><ele>31.0</ele><time>2026-05-02T08:44:27.538Z</time></trkpt><trkpt lat="45.5371638" lon="11.4917422"><ele>31.0</ele><time>2026-05-02T08:44:28.539Z</time></trkpt><trkpt lat="45.5371476" lon="11.4918467"><ele>31.0</ele><time>2026-05-02T08:44:29.539Z</time></trkpt><trkpt lat="45.5371148" lon="11.4919655"><ele>31.0</ele><time>2026-05-02T08:44:30.538Z</time></trkpt><trkpt lat="45.5370582" lon="11.4920892"><ele>31.0</ele><time>2026-05-02T08:44:31.538Z</time></trkpt><trkpt lat="45.5369689" lon="11.492218"><ele>31.25</ele><time>2026-05-02T08:44:32.538Z</time></trkpt><trkpt lat="45.5368596" lon="11.492338"><ele>31.5</ele><time>2026-05-02T08:44:33.538Z</time></trkpt><trkpt lat="45.5367394" lon="11.4924573"><ele>31.75</ele><time>2026-05-02T08:44:34.538Z</time></trkpt><trkpt lat="45.536613" lon="11.4925914"><ele>32.0</ele><time>2026-05-02T08:44:35.538Z</time></trkpt><trkpt lat="45.5364828" lon="11.4927304"><ele>32.0</ele><time>2026-05-02T08:44:36.538Z</time></trkpt><trkpt lat="45.5363521" lon="11.4928697"><ele>32.0</ele><time>2026-05-02T08:44:37.539Z</time></trkpt><trkpt lat="45.5362301" lon="11.4930003"><ele>32.0</ele><time>2026-05-02T08:44:38.538Z</time></trkpt><trkpt lat="45.5361114" lon="11.493125"><ele>31.75</ele><time>2026-05-02T08:44:39.538Z</time></trkpt><trkpt lat="45.5359976" lon="11.4932448"><ele>31.5</ele><time>2026-05-02T08:44:40.539Z</time></trkpt><trkpt lat="45.5358869" lon="11.4933575"><ele>31.25</ele><time>2026-05-02T08:44:41.537Z</time></trkpt><trkpt lat="45.5357775" lon="11.4934709"><ele>31.0</ele><time>2026-05-02T08:44:42.539Z</time></trkpt><trkpt lat="45.5356645" lon="11.4935877"><ele>31.0</ele><time>2026-05-02T08:44:43.539Z</time></trkpt><trkpt lat="45.5355491" lon="11.4937071"><ele>31.0</ele><time>2026-05-02T08:44:44.539Z</time></trkpt><trkpt lat="45.5354315" lon="11.4938328"><ele>31.0</ele><time>2026-05-02T08:44:45.537Z</time></trkpt><trkpt lat="45.5353105" lon="11.4939596"><ele>31.0</ele><time>2026-05-02T08:44:46.539Z</time></trkpt><trkpt lat="45.5351864" lon="11.4940856"><ele>31.0</ele><time>2026-05-02T08:44:47.538Z</time></trkpt><trkpt lat="45.5350608" lon="11.4942138"><ele>31.0</ele><time>2026-05-02T08:44:48.538Z</time></trkpt><trkpt lat="45.5349341" lon="11.4943446"><ele>31.0</ele><time>2026-05-02T08:44:49.538Z</time></trkpt><trkpt lat="45.5348066" lon="11.4944781"><ele>31.0</ele><time>2026-05-02T08:44:50.539Z</time></trkpt><trkpt lat="45.5346771" lon="11.4946126"><ele>31.0</ele><time>2026-05-02T08:44:51.538Z</time></trkpt><trkpt lat="45.5345474" lon="11.4947477"><ele>31.0</ele><time>2026-05-02T08:44:52.539Z</time></trkpt><trkpt lat="45.5344165" lon="11.4948834"><ele>31.0</ele><time>2026-05-02T08:44:53.539Z</time></trkpt><trkpt lat="45.5342848" lon="11.495017"><ele>31.0</ele><time>2026-05-02T08:44:54.537Z</time></trkpt><trkpt lat="45.5341544" lon="11.4951514"><ele>31.0</ele><time>2026-05-02T08:44:55.538Z</time></trkpt><trkpt lat="45.5340295" lon="11.4952839"><ele>31.0</ele><time>2026-05-02T08:44:56.539Z</time></trkpt><trkpt lat="45.5339062" lon="11.4954125"><ele>31.0</ele><time>2026-05-02T08:44:57.537Z</time></trkpt><trkpt lat="45.5337848" lon="11.4955372"><ele>31.0</ele><time>2026-05-02T08:44:58.537Z</time></trkpt><trkpt lat="45.5336627" lon="11.4956615"><ele>31.5</ele><time>2026-05-02T08:44:59.539Z</time></trkpt><trkpt lat="45.5335436" lon="11.4957829"><ele>32.0</ele><time>2026-05-02T08:45:00.537Z</time></trkpt><trkpt lat="45.5334302" lon="11.4958997"><ele>32.5</ele><time>2026-05-02T08:45:01.538Z</time></trkpt><trkpt lat="45.5333188" lon="11.4960173"><ele>33.0</ele><time>2026-05-02T08:45:02.538Z</time></trkpt><trkpt lat="45.5332087" lon="11.4961379"><ele>33.0</ele><time>2026-05-02T08:45:03.539Z</time></trkpt><trkpt lat="45.5331012" lon="11.4962725"><ele>33.0</ele><time>2026-05-02T08:45:04.538Z</time></trkpt><trkpt lat="45.5329976" lon="11.4964187"><ele>33.0</ele><time>2026-05-02T08:45:05.538Z</time></trkpt><trkpt lat="45.532898" lon="11.4965777"><ele>33.0</ele><time>2026-05-02T08:45:06.538Z</time></trkpt><trkpt lat="45.5327994" lon="11.4967301"><ele>33.0</ele><time>2026-05-02T08:45:07.538Z</time></trkpt><trkpt lat="45.5327055" lon="11.4968823"><ele>33.0</ele><time>2026-05-02T08:45:08.539Z</time></trkpt><trkpt lat="45.5326096" lon="11.4970324"><ele>33.0</ele><time>2026-05-02T08:45:09.537Z</time></trkpt><trkpt lat="45.5325145" lon="11.497181"><ele>33.0</ele><time>2026-05-02T08:45:10.539Z</time></trkpt><trkpt lat="45.5324233" lon="11.4973284"><ele>32.75</ele><time>2026-05-02T08:45:11.539Z</time></trkpt><trkpt lat="45.5323319" lon="11.4974746"><ele>32.5</ele><time>2026-05-02T08:45:12.539Z</time></trkpt><trkpt lat="45.5322404" lon="11.4976131"><ele>32.25</ele><time>2026-05-02T08:45:13.538Z</time></trkpt><trkpt lat="45.532154" lon="11.4977452"><ele>32.0</ele><time>2026-05-02T08:45:14.538Z</time></trkpt><trkpt lat="45.5320704" lon="11.4978764"><ele>32.25</ele><time>2026-05-02T08:45:15.539Z</time></trkpt><trkpt lat="45.5319841" lon="11.4980033"><ele>32.5</ele><time>2026-05-02T08:45:16.538Z</time></trkpt><trkpt lat="45.5318881" lon="11.4981233"><ele>32.75</ele><time>2026-05-02T08:45:17.538Z</time></trkpt><trkpt lat="45.5317796" lon="11.4982333"><ele>33.0</ele><time>2026-05-02T08:45:18.538Z</time></trkpt><trkpt lat="45.5316652" lon="11.4983428"><ele>33.0</ele><time>2026-05-02T08:45:19.538Z</time></trkpt><trkpt lat="45.5315478" lon="11.4984528"><ele>33.0</ele><time>2026-05-02T08:45:20.538Z</time></trkpt><trkpt lat="45.5314294" lon="11.498563"><ele>33.0</ele><time>2026-05-02T08:45:21.538Z</time></trkpt><trkpt lat="45.5313142" lon="11.4986701"><ele>33.0</ele><time>2026-05-02T08:45:22.538Z</time></trkpt><trkpt lat="45.5312065" lon="11.4987692"><ele>33.25</ele><time>2026-05-02T08:45:23.539Z</time></trkpt><trkpt lat="45.5310998" lon="11.4988668"><ele>33.5</ele><time>2026-05-02T08:45:24.538Z</time></trkpt><trkpt lat="45.5309968" lon="11.4989591"><ele>33.75</ele><time>2026-05-02T08:45:25.538Z</time></trkpt><trkpt lat="45.5309003" lon="11.4990476"><ele>34.0</ele><time>2026-05-02T08:45:26.539Z</time></trkpt><trkpt lat="45.5308086" lon="11.4991359"><ele>34.0</ele><time>2026-05-02T08:45:27.539Z</time></trkpt><trkpt lat="45.5307204" lon="11.49922"><ele>34.0</ele><time>2026-05-02T08:45:28.539Z</time></trkpt><trkpt lat="45.5306355" lon="11.4993044"><ele>34.0</ele><time>2026-05-02T08:45:29.538Z</time></trkpt><trkpt lat="45.5305527" lon="11.4993854"><ele>34.0</ele><time>2026-05-02T08:45:30.538Z</time></trkpt><trkpt lat="45.5304784" lon="11.4994607"><ele>34.0</ele><time>2026-05-02T08:45:31.538Z</time></trkpt><trkpt lat="45.5304167" lon="11.4995189"><ele>34.0</ele><time>2026-05-02T08:45:32.539Z</time></trkpt><trkpt lat="45.5303399" lon="11.4995953"><ele>34.0</ele><time>2026-05-02T08:45:34.539Z</time></trkpt><trkpt lat="45.5302772" lon="11.4996336"><ele>34.0</ele><time>2026-05-02T08:46:45.538Z</time></trkpt><trkpt lat="45.5301945" lon="11.4997117"><ele>34.0</ele><time>2026-05-02T08:46:48.538Z</time></trkpt><trkpt lat="45.5300907" lon="11.4998176"><ele>34.0</ele><time>2026-05-02T08:46:50.538Z</time></trkpt><trkpt lat="45.5299884" lon="11.4999015"><ele>34.0</ele><time>2026-05-02T08:46:52.537Z</time></trkpt><trkpt lat="45.5299145" lon="11.5000136"><ele>34.0</ele><time>2026-05-02T08:46:54.538Z</time></trkpt><trkpt lat="45.5299119" lon="11.5001597"><ele>34.0</ele><time>2026-05-02T08:46:56.537Z</time></trkpt><trkpt lat="45.5299778" lon="11.5003235"><ele>34.0</ele><time>2026-05-02T08:46:58.538Z</time></trkpt><trkpt lat="45.5300286" lon="11.5004099"><ele>34.0</ele><time>2026-05-02T08:46:59.538Z</time></trkpt><trkpt lat="45.5300861" lon="11.5004983"><ele>34.0</ele><time>2026-05-02T08:47:00.538Z</time></trkpt><trkpt lat="45.5301396" lon="11.50059"><ele>34.0</ele><time>2026-05-02T08:47:01.538Z</time></trkpt><trkpt lat="45.5301962" lon="11.5006848"><ele>34.0</ele><time>2026-05-02T08:47:02.538Z</time></trkpt><trkpt lat="45.5302556" lon="11.500785"><ele>34.0</ele><time>2026-05-02T08:47:03.538Z</time></trkpt><trkpt lat="45.5303196" lon="11.500891"><ele>34.0</ele><time>2026-05-02T08:47:04.538Z</time></trkpt><trkpt lat="45.5303915" lon="11.5010001"><ele>34.2</ele><time>2026-05-02T08:47:05.537Z</time></trkpt><trkpt lat="45.5304631" lon="11.501105"><ele>34.4</ele><time>2026-05-02T08:47:06.538Z</time></trkpt><trkpt lat="45.5305326" lon="11.501209"><ele>34.6</ele><time>2026-05-02T08:47:07.539Z</time></trkpt><trkpt lat="45.5306008" lon="11.501315"><ele>34.8</ele><time>2026-05-02T08:47:08.538Z</time></trkpt><trkpt lat="45.5306661" lon="11.501418"><ele>35.0</ele><time>2026-05-02T08:47:09.538Z</time></trkpt><trkpt lat="45.5307334" lon="11.5015259"><ele>34.8</ele><time>2026-05-02T08:47:10.539Z</time></trkpt><trkpt lat="45.5308055" lon="11.5016402"><ele>34.6</ele><time>2026-05-02T08:47:11.538Z</time></trkpt><trkpt lat="45.5308793" lon="11.5017575"><ele>34.4</ele><time>2026-05-02T08:47:12.538Z</time></trkpt><trkpt lat="45.5309561" lon="11.5018764"><ele>34.2</ele><time>2026-05-02T08:47:13.538Z</time></trkpt><trkpt lat="45.5310326" lon="11.5019992"><ele>34.0</ele><time>2026-05-02T08:47:14.539Z</time></trkpt><trkpt lat="45.5311114" lon="11.5021195"><ele>34.0</ele><time>2026-05-02T08:47:15.537Z</time></trkpt><trkpt lat="45.5311917" lon="11.5022395"><ele>34.0</ele><time>2026-05-02T08:47:16.539Z</time></trkpt><trkpt lat="45.5312738" lon="11.5023594"><ele>34.0</ele><time>2026-05-02T08:47:17.539Z</time></trkpt><trkpt lat="45.5313532" lon="11.5024831"><ele>34.0</ele><time>2026-05-02T08:47:18.539Z</time></trkpt><trkpt lat="45.531435" lon="11.5026081"><ele>34.0</ele><time>2026-05-02T08:47:19.538Z</time></trkpt><trkpt lat="45.5315179" lon="11.5027339"><ele>34.0</ele><time>2026-05-02T08:47:20.539Z</time></trkpt><trkpt lat="45.5315956" lon="11.5028537"><ele>34.0</ele><time>2026-05-02T08:47:21.538Z</time></trkpt><trkpt lat="45.5316733" lon="11.5029678"><ele>34.0</ele><time>2026-05-02T08:47:22.538Z</time></trkpt><trkpt lat="45.5317498" lon="11.5030808"><ele>33.6</ele><time>2026-05-02T08:47:23.538Z</time></trkpt><trkpt lat="45.5318268" lon="11.5031983"><ele>33.2</ele><time>2026-05-02T08:47:24.539Z</time></trkpt><trkpt lat="45.531898" lon="11.5033072"><ele>32.800000000000004</ele><time>2026-05-02T08:47:25.538Z</time></trkpt><trkpt lat="45.5319623" lon="11.5034123"><ele>32.4</ele><time>2026-05-02T08:47:26.539Z</time></trkpt><trkpt lat="45.5320293" lon="11.5035092"><ele>32.0</ele><time>2026-05-02T08:47:27.539Z</time></trkpt><trkpt lat="45.5320965" lon="11.503609"><ele>32.0</ele><time>2026-05-02T08:47:28.538Z</time></trkpt><trkpt lat="45.5321652" lon="11.5037127"><ele>32.0</ele><time>2026-05-02T08:47:29.537Z</time></trkpt><trkpt lat="45.5322338" lon="11.5038161"><ele>32.0</ele><time>2026-05-02T08:47:30.538Z</time></trkpt><trkpt lat="45.5323008" lon="11.5039169"><ele>32.0</ele><time>2026-05-02T08:47:31.538Z</time></trkpt><trkpt lat="45.5323585" lon="11.5040081"><ele>32.0</ele><time>2026-05-02T08:47:32.538Z</time></trkpt><trkpt lat="45.5324134" lon="11.5040935"><ele>31.833333333333332</ele><time>2026-05-02T08:47:33.539Z</time></trkpt><trkpt lat="45.5324643" lon="11.5041801"><ele>31.666666666666664</ele><time>2026-05-02T08:47:34.539Z</time></trkpt><trkpt lat="45.5325086" lon="11.5042764"><ele>31.5</ele><time>2026-05-02T08:47:35.538Z</time></trkpt><trkpt lat="45.5325317" lon="11.5043663"><ele>31.333333333333336</ele><time>2026-05-02T08:47:36.538Z</time></trkpt><trkpt lat="45.5325479" lon="11.5044576"><ele>31.166666666666668</ele><time>2026-05-02T08:47:38.538Z</time></trkpt><trkpt lat="45.5325475" lon="11.5045816"><ele>31.0</ele><time>2026-05-02T08:47:41.537Z</time></trkpt><trkpt lat="45.5325115" lon="11.5047439"><ele>31.0</ele><time>2026-05-02T08:47:43.538Z</time></trkpt><trkpt lat="45.5324956" lon="11.5048466"><ele>31.0</ele><time>2026-05-02T08:47:44.539Z</time></trkpt><trkpt lat="45.5324922" lon="11.5049708"><ele>31.0</ele><time>2026-05-02T08:47:45.539Z</time></trkpt><trkpt lat="45.53251" lon="11.5051033"><ele>31.0</ele><time>2026-05-02T08:47:46.538Z</time></trkpt><trkpt lat="45.5325443" lon="11.5052369"><ele>31.0</ele><time>2026-05-02T08:47:47.538Z</time></trkpt><trkpt lat="45.5325903" lon="11.5053741"><ele>31.0</ele><time>2026-05-02T08:47:48.538Z</time></trkpt><trkpt lat="45.5326362" lon="11.5055232"><ele>31.0</ele><time>2026-05-02T08:47:49.539Z</time></trkpt><trkpt lat="45.5326787" lon="11.5056835"><ele>31.0</ele><time>2026-05-02T08:47:50.537Z</time></trkpt><trkpt lat="45.5327201" lon="11.5058557"><ele>31.0</ele><time>2026-05-02T08:47:51.538Z</time></trkpt><trkpt lat="45.5327659" lon="11.5060352"><ele>31.0</ele><time>2026-05-02T08:47:52.537Z</time></trkpt><trkpt lat="45.5328128" lon="11.506226"><ele>31.0</ele><time>2026-05-02T08:47:53.539Z</time></trkpt><trkpt lat="45.5328599" lon="11.5064187"><ele>31.0</ele><time>2026-05-02T08:47:54.538Z</time></trkpt><trkpt lat="45.5329077" lon="11.5066196"><ele>31.0</ele><time>2026-05-02T08:47:55.538Z</time></trkpt><trkpt lat="45.5329524" lon="11.50682"><ele>31.5</ele><time>2026-05-02T08:47:56.538Z</time></trkpt><trkpt lat="45.5329928" lon="11.5070038"><ele>32.0</ele><time>2026-05-02T08:47:57.538Z</time></trkpt><trkpt lat="45.533031" lon="11.5071761"><ele>32.5</ele><time>2026-05-02T08:47:58.539Z</time></trkpt><trkpt lat="45.5330674" lon="11.5073305"><ele>33.0</ele><time>2026-05-02T08:47:59.537Z</time></trkpt><trkpt lat="45.5330999" lon="11.5074699"><ele>33.4</ele><time>2026-05-02T08:48:00.539Z</time></trkpt><trkpt lat="45.5331292" lon="11.507596"><ele>33.8</ele><time>2026-05-02T08:48:01.539Z</time></trkpt><trkpt lat="45.5331549" lon="11.5077182"><ele>34.2</ele><time>2026-05-02T08:48:02.539Z</time></trkpt><trkpt lat="45.5331743" lon="11.507843"><ele>34.6</ele><time>2026-05-02T08:48:03.539Z</time></trkpt><trkpt lat="45.5331791" lon="11.5079749"><ele>35.0</ele><time>2026-05-02T08:48:04.539Z</time></trkpt><trkpt lat="45.5331698" lon="11.5081079"><ele>35.0</ele><time>2026-05-02T08:48:05.539Z</time></trkpt><trkpt lat="45.5331434" lon="11.5082368"><ele>35.0</ele><time>2026-05-02T08:48:06.539Z</time></trkpt><trkpt lat="45.5331008" lon="11.50834"><ele>35.0</ele><time>2026-05-02T08:48:07.538Z</time></trkpt><trkpt lat="45.5330461" lon="11.5084233"><ele>35.0</ele><time>2026-05-02T08:48:08.538Z</time></trkpt><trkpt lat="45.5329789" lon="11.5084916"><ele>35.0</ele><time>2026-05-02T08:48:09.538Z</time></trkpt><trkpt lat="45.5329049" lon="11.5085474"><ele>35.0</ele><time>2026-05-02T08:48:10.538Z</time></trkpt><trkpt lat="45.5328242" lon="11.508601"><ele>34.6</ele><time>2026-05-02T08:48:11.538Z</time></trkpt><trkpt lat="45.532739" lon="11.5086608"><ele>34.2</ele><time>2026-05-02T08:48:12.539Z</time></trkpt><trkpt lat="45.5326483" lon="11.5087212"><ele>33.8</ele><time>2026-05-02T08:48:13.538Z</time></trkpt><trkpt lat="45.5325555" lon="11.508785"><ele>33.4</ele><time>2026-05-02T08:48:14.538Z</time></trkpt><trkpt lat="45.5324582" lon="11.5088528"><ele>33.0</ele><time>2026-05-02T08:48:15.538Z</time></trkpt><trkpt lat="45.5323575" lon="11.5089227"><ele>33.0</ele><time>2026-05-02T08:48:16.538Z</time></trkpt><trkpt lat="45.5322509" lon="11.5089985"><ele>33.0</ele><time>2026-05-02T08:48:17.539Z</time></trkpt><trkpt lat="45.5321422" lon="11.5090776"><ele>33.0</ele><time>2026-05-02T08:48:18.538Z</time></trkpt><trkpt lat="45.5320386" lon="11.5091514"><ele>33.0</ele><time>2026-05-02T08:48:19.538Z</time></trkpt><trkpt lat="45.5319371" lon="11.5092196"><ele>33.199999999999996</ele><time>2026-05-02T08:48:20.538Z</time></trkpt><trkpt lat="45.5318416" lon="11.5092868"><ele>33.4</ele><time>2026-05-02T08:48:21.538Z</time></trkpt><trkpt lat="45.5317487" lon="11.5093455"><ele>33.599999999999994</ele><time>2026-05-02T08:48:22.538Z</time></trkpt><trkpt lat="45.5316551" lon="11.5094069"><ele>33.8</ele><time>2026-05-02T08:48:23.538Z</time></trkpt><trkpt lat="45.53156" lon="11.5094776"><ele>34.0</ele><time>2026-05-02T08:48:24.537Z</time></trkpt><trkpt lat="45.5314648" lon="11.5095457"><ele>33.5</ele><time>2026-05-02T08:48:25.538Z</time></trkpt><trkpt lat="45.5313593" lon="11.5096094"><ele>33.0</ele><time>2026-05-02T08:48:26.538Z</time></trkpt><trkpt lat="45.5312491" lon="11.5096641"><ele>32.5</ele><time>2026-05-02T08:48:27.538Z</time></trkpt><trkpt lat="45.5311281" lon="11.509713"><ele>32.0</ele><time>2026-05-02T08:48:28.538Z</time></trkpt><trkpt lat="45.5309999" lon="11.5097494"><ele>31.25</ele><time>2026-05-02T08:48:29.539Z</time></trkpt><trkpt lat="45.5308675" lon="11.509774"><ele>30.5</ele><time>2026-05-02T08:48:30.539Z</time></trkpt><trkpt lat="45.5307279" lon="11.5097905"><ele>29.75</ele><time>2026-05-02T08:48:31.539Z</time></trkpt><trkpt lat="45.5305844" lon="11.5097953"><ele>29.0</ele><time>2026-05-02T08:48:32.537Z</time></trkpt><trkpt lat="45.5304422" lon="11.5097801"><ele>29.333333333333332</ele><time>2026-05-02T08:48:33.538Z</time></trkpt><trkpt lat="45.5302985" lon="11.5097529"><ele>29.666666666666664</ele><time>2026-05-02T08:48:34.537Z</time></trkpt><trkpt lat="45.5301478" lon="11.5097122"><ele>30.0</ele><time>2026-05-02T08:48:35.538Z</time></trkpt><trkpt lat="45.5299926" lon="11.5096584"><ele>30.0</ele><time>2026-05-02T08:48:36.538Z</time></trkpt><trkpt lat="45.5298332" lon="11.5096006"><ele>30.0</ele><time>2026-05-02T08:48:37.538Z</time></trkpt><trkpt lat="45.5296735" lon="11.5095436"><ele>30.0</ele><time>2026-05-02T08:48:38.538Z</time></trkpt><trkpt lat="45.5295225" lon="11.5094847"><ele>31.333333333333336</ele><time>2026-05-02T08:48:39.538Z</time></trkpt><trkpt lat="45.5293674" lon="11.5094233"><ele>32.66666666666667</ele><time>2026-05-02T08:48:40.539Z</time></trkpt><trkpt lat="45.5292124" lon="11.5093569"><ele>34.0</ele><time>2026-05-02T08:48:41.539Z</time></trkpt><trkpt lat="45.529061" lon="11.5092932"><ele>34.0</ele><time>2026-05-02T08:48:42.539Z</time></trkpt><trkpt lat="45.5289185" lon="11.5092351"><ele>34.0</ele><time>2026-05-02T08:48:43.538Z</time></trkpt><trkpt lat="45.5287829" lon="11.5091687"><ele>34.0</ele><time>2026-05-02T08:48:44.538Z</time></trkpt><trkpt lat="45.5286541" lon="11.5090957"><ele>34.0</ele><time>2026-05-02T08:48:45.538Z</time></trkpt><trkpt lat="45.5285268" lon="11.509023"><ele>33.5</ele><time>2026-05-02T08:48:46.539Z</time></trkpt><trkpt lat="45.5283992" lon="11.508954"><ele>33.0</ele><time>2026-05-02T08:48:47.538Z</time></trkpt><trkpt lat="45.5282702" lon="11.5088904"><ele>32.5</ele><time>2026-05-02T08:48:48.538Z</time></trkpt><trkpt lat="45.5281394" lon="11.5088306"><ele>32.0</ele><time>2026-05-02T08:48:49.539Z</time></trkpt><trkpt lat="45.5280067" lon="11.5087738"><ele>31.75</ele><time>2026-05-02T08:48:50.537Z</time></trkpt><trkpt lat="45.5278775" lon="11.5087241"><ele>31.5</ele><time>2026-05-02T08:48:51.539Z</time></trkpt><trkpt lat="45.5277459" lon="11.508675"><ele>31.25</ele><time>2026-05-02T08:48:52.539Z</time></trkpt><trkpt lat="45.5276191" lon="11.5086246"><ele>31.0</ele><time>2026-05-02T08:48:53.538Z</time></trkpt><trkpt lat="45.5274978" lon="11.5085832"><ele>31.0</ele><time>2026-05-02T08:48:54.538Z</time></trkpt><trkpt lat="45.5273823" lon="11.5085401"><ele>31.0</ele><time>2026-05-02T08:48:55.538Z</time></trkpt><trkpt lat="45.5272702" lon="11.5084978"><ele>31.0</ele><time>2026-05-02T08:48:56.538Z</time></trkpt><trkpt lat="45.5271563" lon="11.5084553"><ele>31.0</ele><time>2026-05-02T08:48:57.539Z</time></trkpt><trkpt lat="45.5270462" lon="11.5084124"><ele>31.4</ele><time>2026-05-02T08:48:58.538Z</time></trkpt><trkpt lat="45.5269401" lon="11.5083738"><ele>31.8</ele><time>2026-05-02T08:48:59.539Z</time></trkpt><trkpt lat="45.5268311" lon="11.5083345"><ele>32.199999999999996</ele><time>2026-05-02T08:49:00.538Z</time></trkpt><trkpt lat="45.5267236" lon="11.5082987"><ele>32.6</ele><time>2026-05-02T08:49:01.538Z</time></trkpt><trkpt lat="45.5266223" lon="11.5082635"><ele>33.0</ele><time>2026-05-02T08:49:02.539Z</time></trkpt><trkpt lat="45.526524" lon="11.5082314"><ele>33.0</ele><time>2026-05-02T08:49:03.538Z</time></trkpt><trkpt lat="45.5264442" lon="11.5082016"><ele>33.0</ele><time>2026-05-02T08:49:04.539Z</time></trkpt><trkpt lat="45.5263709" lon="11.5081755"><ele>33.0</ele><time>2026-05-02T08:49:05.539Z</time></trkpt><trkpt lat="45.526309" lon="11.5081493"><ele>33.0</ele><time>2026-05-02T08:49:06.538Z</time></trkpt><trkpt lat="45.5262281" lon="11.5081154"><ele>33.0</ele><time>2026-05-02T08:49:08.538Z</time></trkpt><trkpt lat="45.5261623" lon="11.5080974"><ele>33.0</ele><time>2026-05-02T08:49:13.539Z</time></trkpt><trkpt lat="45.5260917" lon="11.5080438"><ele>33.0</ele><time>2026-05-02T08:49:15.538Z</time></trkpt><trkpt lat="45.5259724" lon="11.5079673"><ele>33.0</ele><time>2026-05-02T08:49:17.538Z</time></trkpt><trkpt lat="45.5259049" lon="11.5079774"><ele>33.0</ele><time>2026-05-02T08:49:18.538Z</time></trkpt><trkpt lat="45.5258421" lon="11.5080249"><ele>33.0</ele><time>2026-05-02T08:49:19.538Z</time></trkpt><trkpt lat="45.5257735" lon="11.5080856"><ele>33.0</ele><time>2026-05-02T08:49:20.539Z</time></trkpt><trkpt lat="45.5257915" lon="11.5082207"><ele>33.0</ele><time>2026-05-02T08:49:21.538Z</time></trkpt><trkpt lat="45.5257927" lon="11.5083468"><ele>33.0</ele><time>2026-05-02T08:49:22.538Z</time></trkpt><trkpt lat="45.5257998" lon="11.508491"><ele>33.0</ele><time>2026-05-02T08:49:23.538Z</time></trkpt><trkpt lat="45.5257933" lon="11.5086546"><ele>33.0</ele><time>2026-05-02T08:49:24.539Z</time></trkpt><trkpt lat="45.5257698" lon="11.5088297"><ele>33.0</ele><time>2026-05-02T08:49:25.538Z</time></trkpt><trkpt lat="45.5257367" lon="11.5090205"><ele>33.0</ele><time>2026-05-02T08:49:26.538Z</time></trkpt><trkpt lat="45.5256999" lon="11.5092193"><ele>33.0</ele><time>2026-05-02T08:49:27.538Z</time></trkpt><trkpt lat="45.5256649" lon="11.5094267"><ele>33.0</ele><time>2026-05-02T08:49:28.539Z</time></trkpt><trkpt lat="45.5256261" lon="11.5096355"><ele>33.0</ele><time>2026-05-02T08:49:29.538Z</time></trkpt><trkpt lat="45.5255934" lon="11.5098391"><ele>33.0</ele><time>2026-05-02T08:49:30.538Z</time></trkpt><trkpt lat="45.5255612" lon="11.5100426"><ele>33.0</ele><time>2026-05-02T08:49:31.538Z</time></trkpt><trkpt lat="45.5255423" lon="11.5102498"><ele>33.0</ele><time>2026-05-02T08:49:32.539Z</time></trkpt><trkpt lat="45.5255333" lon="11.5104574"><ele>33.0</ele><time>2026-05-02T08:49:33.538Z</time></trkpt><trkpt lat="45.5255374" lon="11.5106685"><ele>33.0</ele><time>2026-05-02T08:49:34.538Z</time></trkpt><trkpt lat="45.5255572" lon="11.5108802"><ele>33.0</ele><time>2026-05-02T08:49:35.539Z</time></trkpt><trkpt lat="45.5255943" lon="11.5110921"><ele>33.0</ele><time>2026-05-02T08:49:36.537Z</time></trkpt><trkpt lat="45.5256391" lon="11.511313"><ele>33.0</ele><time>2026-05-02T08:49:37.538Z</time></trkpt><trkpt lat="45.5256864" lon="11.5115453"><ele>33.0</ele><time>2026-05-02T08:49:38.538Z</time></trkpt><trkpt lat="45.5257349" lon="11.5117823"><ele>33.0</ele><time>2026-05-02T08:49:39.538Z</time></trkpt><trkpt lat="45.525784" lon="11.5120249"><ele>33.0</ele><time>2026-05-02T08:49:40.538Z</time></trkpt><trkpt lat="45.5258353" lon="11.5122701"><ele>33.0</ele><time>2026-05-02T08:49:41.537Z</time></trkpt><trkpt lat="45.5258864" lon="11.512515"><ele>33.0</ele><time>2026-05-02T08:49:42.538Z</time></trkpt><trkpt lat="45.5259369" lon="11.512761"><ele>32.666666666666664</ele><time>2026-05-02T08:49:43.539Z</time></trkpt><trkpt lat="45.5259867" lon="11.5130082"><ele>32.33333333333333</ele><time>2026-05-02T08:49:44.538Z</time></trkpt><trkpt lat="45.5260389" lon="11.5132579"><ele>32.0</ele><time>2026-05-02T08:49:45.538Z</time></trkpt><trkpt lat="45.5260903" lon="11.5135052"><ele>32.0</ele><time>2026-05-02T08:49:46.538Z</time></trkpt><trkpt lat="45.5261403" lon="11.513753"><ele>32.0</ele><time>2026-05-02T08:49:47.538Z</time></trkpt><trkpt lat="45.5261913" lon="11.5139976"><ele>32.0</ele><time>2026-05-02T08:49:48.539Z</time></trkpt><trkpt lat="45.5262426" lon="11.5142388"><ele>32.666666666666664</ele><time>2026-05-02T08:49:49.538Z</time></trkpt><trkpt lat="45.5262933" lon="11.5144774"><ele>33.333333333333336</ele><time>2026-05-02T08:49:50.538Z</time></trkpt><trkpt lat="45.5263439" lon="11.5147115"><ele>34.0</ele><time>2026-05-02T08:49:51.538Z</time></trkpt><trkpt lat="45.5263957" lon="11.5149428"><ele>34.333333333333336</ele><time>2026-05-02T08:49:52.538Z</time></trkpt><trkpt lat="45.526445" lon="11.5151768"><ele>34.666666666666664</ele><time>2026-05-02T08:49:53.538Z</time></trkpt><trkpt lat="45.5264936" lon="11.5154111"><ele>35.0</ele><time>2026-05-02T08:49:54.537Z</time></trkpt><trkpt lat="45.5265424" lon="11.5156474"><ele>34.33333333333333</ele><time>2026-05-02T08:49:55.538Z</time></trkpt><trkpt lat="45.5265913" lon="11.5158871"><ele>33.666666666666664</ele><time>2026-05-02T08:49:56.538Z</time></trkpt><trkpt lat="45.52664" lon="11.5161301"><ele>33.0</ele><time>2026-05-02T08:49:57.537Z</time></trkpt><trkpt lat="45.5266879" lon="11.5163652"><ele>32.666666666666664</ele><time>2026-05-02T08:49:58.538Z</time></trkpt><trkpt lat="45.5267335" lon="11.516589"><ele>32.33333333333333</ele><time>2026-05-02T08:49:59.538Z</time></trkpt><trkpt lat="45.5267774" lon="11.5168013"><ele>32.0</ele><time>2026-05-02T08:50:00.538Z</time></trkpt><trkpt lat="45.5268161" lon="11.5169941"><ele>32.2</ele><time>2026-05-02T08:50:01.538Z</time></trkpt><trkpt lat="45.5268498" lon="11.5171585"><ele>32.400000000000006</ele><time>2026-05-02T08:50:02.538Z</time></trkpt><trkpt lat="45.5268773" lon="11.5172922"><ele>32.599999999999994</ele><time>2026-05-02T08:50:03.538Z</time></trkpt><trkpt lat="45.5268953" lon="11.5174063"><ele>32.8</ele><time>2026-05-02T08:50:04.538Z</time></trkpt><trkpt lat="45.5268944" lon="11.5174997"><ele>33.0</ele><time>2026-05-02T08:50:05.539Z</time></trkpt><trkpt lat="45.5268075" lon="11.5176232"><ele>33.0</ele><time>2026-05-02T08:50:07.538Z</time></trkpt><trkpt lat="45.5267373" lon="11.5176342"><ele>33.0</ele><time>2026-05-02T08:50:08.539Z</time></trkpt><trkpt lat="45.5266566" lon="11.5176058"><ele>33.0</ele><time>2026-05-02T08:50:09.538Z</time></trkpt><trkpt lat="45.5265674" lon="11.517549"><ele>33.0</ele><time>2026-05-02T08:50:10.537Z</time></trkpt><trkpt lat="45.5264661" lon="11.5174817"><ele>33.0</ele><time>2026-05-02T08:50:11.537Z</time></trkpt><trkpt lat="45.526353" lon="11.5174051"><ele>33.0</ele><time>2026-05-02T08:50:12.538Z</time></trkpt><trkpt lat="45.5262293" lon="11.5173225"><ele>33.0</ele><time>2026-05-02T08:50:13.538Z</time></trkpt><trkpt lat="45.5260962" lon="11.5172338"><ele>33.0</ele><time>2026-05-02T08:50:14.538Z</time></trkpt><trkpt lat="45.5259594" lon="11.5171422"><ele>33.0</ele><time>2026-05-02T08:50:15.538Z</time></trkpt><trkpt lat="45.5258286" lon="11.5170513"><ele>33.0</ele><time>2026-05-02T08:50:16.538Z</time></trkpt><trkpt lat="45.5256998" lon="11.5169604"><ele>33.0</ele><time>2026-05-02T08:50:17.538Z</time></trkpt><trkpt lat="45.5255748" lon="11.5168732"><ele>33.0</ele><time>2026-05-02T08:50:18.538Z</time></trkpt><trkpt lat="45.5254528" lon="11.5167901"><ele>33.0</ele><time>2026-05-02T08:50:19.539Z</time></trkpt><trkpt lat="45.5253318" lon="11.516709"><ele>33.0</ele><time>2026-05-02T08:50:20.539Z</time></trkpt><trkpt lat="45.5252106" lon="11.5166282"><ele>33.0</ele><time>2026-05-02T08:50:21.539Z</time></trkpt><trkpt lat="45.5250883" lon="11.5165464"><ele>33.0</ele><time>2026-05-02T08:50:22.538Z</time></trkpt><trkpt lat="45.5249668" lon="11.5164632"><ele>33.0</ele><time>2026-05-02T08:50:23.538Z</time></trkpt><trkpt lat="45.5248456" lon="11.516377"><ele>33.0</ele><time>2026-05-02T08:50:24.538Z</time></trkpt><trkpt lat="45.5247163" lon="11.5162923"><ele>33.0</ele><time>2026-05-02T08:50:25.537Z</time></trkpt><trkpt lat="45.524592" lon="11.5162076"><ele>33.0</ele><time>2026-05-02T08:50:26.538Z</time></trkpt><trkpt lat="45.5244671" lon="11.5161233"><ele>33.0</ele><time>2026-05-02T08:50:27.538Z</time></trkpt><trkpt lat="45.5243425" lon="11.5160423"><ele>33.25</ele><time>2026-05-02T08:50:28.539Z</time></trkpt><trkpt lat="45.5242298" lon="11.5159612"><ele>33.5</ele><time>2026-05-02T08:50:29.538Z</time></trkpt><trkpt lat="45.5241259" lon="11.5158851"><ele>33.75</ele><time>2026-05-02T08:50:30.539Z</time></trkpt><trkpt lat="45.5240303" lon="11.5158125"><ele>34.0</ele><time>2026-05-02T08:50:31.539Z</time></trkpt><trkpt lat="45.5239358" lon="11.5157446"><ele>34.0</ele><time>2026-05-02T08:50:32.538Z</time></trkpt><trkpt lat="45.5238413" lon="11.5156778"><ele>34.0</ele><time>2026-05-02T08:50:33.538Z</time></trkpt><trkpt lat="45.523745" lon="11.5156092"><ele>34.0</ele><time>2026-05-02T08:50:34.537Z</time></trkpt><trkpt lat="45.5236429" lon="11.5155424"><ele>34.0</ele><time>2026-05-02T08:50:35.538Z</time></trkpt><trkpt lat="45.5235392" lon="11.5154695"><ele>34.0</ele><time>2026-05-02T08:50:36.538Z</time></trkpt><trkpt lat="45.5234443" lon="11.5154006"><ele>33.8</ele><time>2026-05-02T08:50:37.538Z</time></trkpt><trkpt lat="45.5233542" lon="11.5153415"><ele>33.599999999999994</ele><time>2026-05-02T08:50:38.537Z</time></trkpt><trkpt lat="45.5232696" lon="11.5152863"><ele>33.4</ele><time>2026-05-02T08:50:39.537Z</time></trkpt><trkpt lat="45.5231893" lon="11.5152266"><ele>33.199999999999996</ele><time>2026-05-02T08:50:40.538Z</time></trkpt><trkpt lat="45.5231068" lon="11.5151708"><ele>33.0</ele><time>2026-05-02T08:50:41.537Z</time></trkpt><trkpt lat="45.5230235" lon="11.5151138"><ele>33.0</ele><time>2026-05-02T08:50:42.539Z</time></trkpt><trkpt lat="45.5229385" lon="11.5150596"><ele>33.0</ele><time>2026-05-02T08:50:43.537Z</time></trkpt><trkpt lat="45.5228528" lon="11.5149997"><ele>33.0</ele><time>2026-05-02T08:50:44.538Z</time></trkpt><trkpt lat="45.5227675" lon="11.5149417"><ele>33.0</ele><time>2026-05-02T08:50:45.538Z</time></trkpt><trkpt lat="45.5226796" lon="11.5148826"><ele>33.0</ele><time>2026-05-02T08:50:46.538Z</time></trkpt><trkpt lat="45.5225928" lon="11.5148191"><ele>32.75</ele><time>2026-05-02T08:50:47.538Z</time></trkpt><trkpt lat="45.5224996" lon="11.5147519"><ele>32.5</ele><time>2026-05-02T08:50:48.538Z</time></trkpt><trkpt lat="45.5224017" lon="11.5146809"><ele>32.25</ele><time>2026-05-02T08:50:49.538Z</time></trkpt><trkpt lat="45.5222917" lon="11.514603"><ele>32.0</ele><time>2026-05-02T08:50:50.538Z</time></trkpt><trkpt lat="45.5221763" lon="11.5145234"><ele>32.0</ele><time>2026-05-02T08:50:51.538Z</time></trkpt><trkpt lat="45.5220627" lon="11.5144463"><ele>32.0</ele><time>2026-05-02T08:50:52.538Z</time></trkpt><trkpt lat="45.5219503" lon="11.5143667"><ele>32.0</ele><time>2026-05-02T08:50:53.538Z</time></trkpt><trkpt lat="45.5218445" lon="11.5142907"><ele>32.0</ele><time>2026-05-02T08:50:54.538Z</time></trkpt><trkpt lat="45.5217371" lon="11.5142177"><ele>32.0</ele><time>2026-05-02T08:50:55.537Z</time></trkpt><trkpt lat="45.5216286" lon="11.5141433"><ele>32.0</ele><time>2026-05-02T08:50:56.539Z</time></trkpt><trkpt lat="45.521521" lon="11.5140713"><ele>32.0</ele><time>2026-05-02T08:50:57.539Z</time></trkpt><trkpt lat="45.5214172" lon="11.5140027"><ele>32.0</ele><time>2026-05-02T08:50:58.538Z</time></trkpt><trkpt lat="45.5213125" lon="11.513931"><ele>32.0</ele><time>2026-05-02T08:50:59.538Z</time></trkpt><trkpt lat="45.5212037" lon="11.5138612"><ele>32.0</ele><time>2026-05-02T08:51:00.538Z</time></trkpt><trkpt lat="45.5210942" lon="11.5137874"><ele>32.0</ele><time>2026-05-02T08:51:01.538Z</time></trkpt><trkpt lat="45.5209781" lon="11.5137143"><ele>32.0</ele><time>2026-05-02T08:51:02.537Z</time></trkpt><trkpt lat="45.5208649" lon="11.5136373"><ele>32.0</ele><time>2026-05-02T08:51:03.538Z</time></trkpt><trkpt lat="45.5207519" lon="11.513559"><ele>32.0</ele><time>2026-05-02T08:51:04.538Z</time></trkpt><trkpt lat="45.5206429" lon="11.5134839"><ele>32.0</ele><time>2026-05-02T08:51:05.538Z</time></trkpt><trkpt lat="45.5205416" lon="11.5134066"><ele>32.0</ele><time>2026-05-02T08:51:06.538Z</time></trkpt><trkpt lat="45.5204381" lon="11.5133264"><ele>32.25</ele><time>2026-05-02T08:51:07.538Z</time></trkpt><trkpt lat="45.5203346" lon="11.5132452"><ele>32.5</ele><time>2026-05-02T08:51:08.537Z</time></trkpt><trkpt lat="45.5202331" lon="11.5131598"><ele>32.75</ele><time>2026-05-02T08:51:09.539Z</time></trkpt><trkpt lat="45.5201306" lon="11.513073"><ele>33.0</ele><time>2026-05-02T08:51:10.538Z</time></trkpt><trkpt lat="45.5200292" lon="11.5129878"><ele>33.0</ele><time>2026-05-02T08:51:11.538Z</time></trkpt><trkpt lat="45.519936" lon="11.5129064"><ele>33.0</ele><time>2026-05-02T08:51:12.539Z</time></trkpt><trkpt lat="45.5198416" lon="11.5128288"><ele>33.0</ele><time>2026-05-02T08:51:13.538Z</time></trkpt><trkpt lat="45.5197469" lon="11.5127571"><ele>33.0</ele><time>2026-05-02T08:51:14.539Z</time></trkpt><trkpt lat="45.5196525" lon="11.5127077"><ele>33.0</ele><time>2026-05-02T08:51:15.538Z</time></trkpt><trkpt lat="45.5195549" lon="11.5126811"><ele>32.6</ele><time>2026-05-02T08:51:16.538Z</time></trkpt><trkpt lat="45.519455" lon="11.5126718"><ele>32.199999999999996</ele><time>2026-05-02T08:51:17.538Z</time></trkpt><trkpt lat="45.5193637" lon="11.5126673"><ele>31.8</ele><time>2026-05-02T08:51:18.538Z</time></trkpt><trkpt lat="45.5192749" lon="11.5126618"><ele>31.4</ele><time>2026-05-02T08:51:19.538Z</time></trkpt><trkpt lat="45.519186" lon="11.5126436"><ele>31.0</ele><time>2026-05-02T08:51:20.538Z</time></trkpt><trkpt lat="45.5190974" lon="11.5126004"><ele>31.0</ele><time>2026-05-02T08:51:21.537Z</time></trkpt><trkpt lat="45.5190128" lon="11.5125275"><ele>31.0</ele><time>2026-05-02T08:51:22.537Z</time></trkpt><trkpt lat="45.5189322" lon="11.5124274"><ele>31.0</ele><time>2026-05-02T08:51:23.539Z</time></trkpt><trkpt lat="45.51885" lon="11.5123166"><ele>31.0</ele><time>2026-05-02T08:51:24.538Z</time></trkpt><trkpt lat="45.5187538" lon="11.5122146"><ele>31.0</ele><time>2026-05-02T08:51:25.538Z</time></trkpt><trkpt lat="45.5186493" lon="11.5121261"><ele>31.0</ele><time>2026-05-02T08:51:26.539Z</time></trkpt><trkpt lat="45.5185496" lon="11.5120455"><ele>31.0</ele><time>2026-05-02T08:51:27.539Z</time></trkpt><trkpt lat="45.5184515" lon="11.5119741"><ele>31.0</ele><time>2026-05-02T08:51:28.539Z</time></trkpt><trkpt lat="45.5183501" lon="11.511899"><ele>31.0</ele><time>2026-05-02T08:51:29.539Z</time></trkpt><trkpt lat="45.5182449" lon="11.5118187"><ele>31.0</ele><time>2026-05-02T08:51:30.538Z</time></trkpt><trkpt lat="45.5181423" lon="11.5117437"><ele>31.0</ele><time>2026-05-02T08:51:31.538Z</time></trkpt><trkpt lat="45.5180291" lon="11.5116698"><ele>31.0</ele><time>2026-05-02T08:51:32.537Z</time></trkpt><trkpt lat="45.5179163" lon="11.51161"><ele>31.0</ele><time>2026-05-02T08:51:33.538Z</time></trkpt><trkpt lat="45.5178071" lon="11.5114994"><ele>30.75</ele><time>2026-05-02T08:51:34.537Z</time></trkpt><trkpt lat="45.5176825" lon="11.5114267"><ele>30.5</ele><time>2026-05-02T08:51:35.539Z</time></trkpt><trkpt lat="45.5175708" lon="11.5113445"><ele>30.25</ele><time>2026-05-02T08:51:36.538Z</time></trkpt><trkpt lat="45.5174558" lon="11.5112642"><ele>30.0</ele><time>2026-05-02T08:51:37.538Z</time></trkpt><trkpt lat="45.5173426" lon="11.5111822"><ele>29.75</ele><time>2026-05-02T08:51:38.539Z</time></trkpt><trkpt lat="45.517227" lon="11.5110997"><ele>29.5</ele><time>2026-05-02T08:51:39.538Z</time></trkpt><trkpt lat="45.5171101" lon="11.5110221"><ele>29.25</ele><time>2026-05-02T08:51:40.539Z</time></trkpt><trkpt lat="45.5169994" lon="11.5109448"><ele>29.0</ele><time>2026-05-02T08:51:41.538Z</time></trkpt><trkpt lat="45.5168973" lon="11.5108711"><ele>29.75</ele><time>2026-05-02T08:51:42.539Z</time></trkpt><trkpt lat="45.5167964" lon="11.5108052"><ele>30.5</ele><time>2026-05-02T08:51:43.538Z</time></trkpt><trkpt lat="45.5166985" lon="11.5107377"><ele>31.25</ele><time>2026-05-02T08:51:44.538Z</time></trkpt><trkpt lat="45.5165974" lon="11.5106679"><ele>32.0</ele><time>2026-05-02T08:51:45.538Z</time></trkpt><trkpt lat="45.5164886" lon="11.5105982"><ele>32.0</ele><time>2026-05-02T08:51:46.537Z</time></trkpt><trkpt lat="45.5163798" lon="11.5105251"><ele>32.0</ele><time>2026-05-02T08:51:47.539Z</time></trkpt><trkpt lat="45.5162655" lon="11.5104538"><ele>32.0</ele><time>2026-05-02T08:51:48.538Z</time></trkpt><trkpt lat="45.516154" lon="11.5103819"><ele>32.0</ele><time>2026-05-02T08:51:49.539Z</time></trkpt><trkpt lat="45.5160474" lon="11.5103079"><ele>31.75</ele><time>2026-05-02T08:51:50.538Z</time></trkpt><trkpt lat="45.5159388" lon="11.510233"><ele>31.5</ele><time>2026-05-02T08:51:51.538Z</time></trkpt><trkpt lat="45.515831" lon="11.5101579"><ele>31.25</ele><time>2026-05-02T08:51:52.537Z</time></trkpt><trkpt lat="45.5157194" lon="11.5100835"><ele>31.0</ele><time>2026-05-02T08:51:53.538Z</time></trkpt><trkpt lat="45.5156099" lon="11.5100062"><ele>31.0</ele><time>2026-05-02T08:51:54.538Z</time></trkpt><trkpt lat="45.5155004" lon="11.5099292"><ele>31.0</ele><time>2026-05-02T08:51:55.539Z</time></trkpt><trkpt lat="45.5153992" lon="11.5098577"><ele>31.0</ele><time>2026-05-02T08:51:56.537Z</time></trkpt><trkpt lat="45.5153022" lon="11.5097947"><ele>31.0</ele><time>2026-05-02T08:51:57.538Z</time></trkpt><trkpt lat="45.5152068" lon="11.5097277"><ele>31.0</ele><time>2026-05-02T08:51:58.539Z</time></trkpt><trkpt lat="45.5151077" lon="11.5096626"><ele>31.200000000000003</ele><time>2026-05-02T08:51:59.538Z</time></trkpt><trkpt lat="45.5150112" lon="11.5095954"><ele>31.400000000000002</ele><time>2026-05-02T08:52:00.538Z</time></trkpt><trkpt lat="45.5149142" lon="11.5095258"><ele>31.6</ele><time>2026-05-02T08:52:01.539Z</time></trkpt><trkpt lat="45.5148149" lon="11.5094562"><ele>31.8</ele><time>2026-05-02T08:52:02.537Z</time></trkpt><trkpt lat="45.5147203" lon="11.5093934"><ele>32.0</ele><time>2026-05-02T08:52:03.537Z</time></trkpt><trkpt lat="45.5146286" lon="11.5093274"><ele>32.2</ele><time>2026-05-02T08:52:04.539Z</time></trkpt><trkpt lat="45.5145359" lon="11.5092642"><ele>32.400000000000006</ele><time>2026-05-02T08:52:05.538Z</time></trkpt><trkpt lat="45.5144399" lon="11.5091997"><ele>32.599999999999994</ele><time>2026-05-02T08:52:06.538Z</time></trkpt><trkpt lat="45.5143481" lon="11.5091338"><ele>32.8</ele><time>2026-05-02T08:52:07.538Z</time></trkpt><trkpt lat="45.5142556" lon="11.5090673"><ele>33.0</ele><time>2026-05-02T08:52:08.538Z</time></trkpt><trkpt lat="45.5141619" lon="11.5090055"><ele>33.0</ele><time>2026-05-02T08:52:09.538Z</time></trkpt><trkpt lat="45.51407" lon="11.5089423"><ele>33.0</ele><time>2026-05-02T08:52:10.538Z</time></trkpt><trkpt lat="45.5139756" lon="11.5088742"><ele>33.0</ele><time>2026-05-02T08:52:11.538Z</time></trkpt><trkpt lat="45.5138797" lon="11.5088056"><ele>33.0</ele><time>2026-05-02T08:52:12.538Z</time></trkpt><trkpt lat="45.5137878" lon="11.5087428"><ele>33.0</ele><time>2026-05-02T08:52:13.537Z</time></trkpt><trkpt lat="45.5137001" lon="11.5086848"><ele>33.0</ele><time>2026-05-02T08:52:14.539Z</time></trkpt><trkpt lat="45.5136162" lon="11.5086257"><ele>33.0</ele><time>2026-05-02T08:52:15.539Z</time></trkpt><trkpt lat="45.5135317" lon="11.5085634"><ele>33.0</ele><time>2026-05-02T08:52:16.539Z</time></trkpt><trkpt lat="45.5134437" lon="11.5084993"><ele>33.0</ele><time>2026-05-02T08:52:17.538Z</time></trkpt><trkpt lat="45.5133554" lon="11.5084396"><ele>33.0</ele><time>2026-05-02T08:52:18.538Z</time></trkpt><trkpt lat="45.5132807" lon="11.5083883"><ele>33.0</ele><time>2026-05-02T08:52:19.537Z</time></trkpt><trkpt lat="45.5132092" lon="11.5083437"><ele>33.0</ele><time>2026-05-02T08:52:20.539Z</time></trkpt><trkpt lat="45.5131413" lon="11.5082973"><ele>33.0</ele><time>2026-05-02T08:52:21.538Z</time></trkpt><trkpt lat="45.5130742" lon="11.5082515"><ele>33.0</ele><time>2026-05-02T08:52:22.538Z</time></trkpt><trkpt lat="45.5130101" lon="11.5082107"><ele>33.0</ele><time>2026-05-02T08:52:23.538Z</time></trkpt><trkpt lat="45.5129488" lon="11.5081735"><ele>33.0</ele><time>2026-05-02T08:52:24.538Z</time></trkpt><trkpt lat="45.5128861" lon="11.5081327"><ele>33.0</ele><time>2026-05-02T08:52:25.539Z</time></trkpt><trkpt lat="45.5128084" lon="11.508087"><ele>33.0</ele><time>2026-05-02T08:52:26.539Z</time></trkpt><trkpt lat="45.5127117" lon="11.5080234"><ele>33.0</ele><time>2026-05-02T08:52:27.538Z</time></trkpt><trkpt lat="45.5126071" lon="11.5079401"><ele>33.0</ele><time>2026-05-02T08:52:28.538Z</time></trkpt><trkpt lat="45.512494" lon="11.507862"><ele>33.0</ele><time>2026-05-02T08:52:29.539Z</time></trkpt><trkpt lat="45.5123756" lon="11.5077813"><ele>33.0</ele><time>2026-05-02T08:52:30.538Z</time></trkpt><trkpt lat="45.5122524" lon="11.5077014"><ele>33.0</ele><time>2026-05-02T08:52:31.538Z</time></trkpt><trkpt lat="45.5121309" lon="11.5076202"><ele>33.0</ele><time>2026-05-02T08:52:32.537Z</time></trkpt><trkpt lat="45.5120096" lon="11.5075382"><ele>33.0</ele><time>2026-05-02T08:52:33.538Z</time></trkpt><trkpt lat="45.5118871" lon="11.50746"><ele>33.25</ele><time>2026-05-02T08:52:34.539Z</time></trkpt><trkpt lat="45.5117621" lon="11.5073825"><ele>33.5</ele><time>2026-05-02T08:52:35.538Z</time></trkpt><trkpt lat="45.5116329" lon="11.507306"><ele>33.75</ele><time>2026-05-02T08:52:36.538Z</time></trkpt><trkpt lat="45.5114982" lon="11.5072337"><ele>34.0</ele><time>2026-05-02T08:52:37.538Z</time></trkpt><trkpt lat="45.5113621" lon="11.5071635"><ele>34.0</ele><time>2026-05-02T08:52:38.538Z</time></trkpt><trkpt lat="45.5112254" lon="11.5070924"><ele>34.0</ele><time>2026-05-02T08:52:39.539Z</time></trkpt><trkpt lat="45.5110867" lon="11.5070243"><ele>34.0</ele><time>2026-05-02T08:52:40.538Z</time></trkpt><trkpt lat="45.5109473" lon="11.5069589"><ele>34.0</ele><time>2026-05-02T08:52:41.538Z</time></trkpt><trkpt lat="45.5108084" lon="11.5068934"><ele>34.0</ele><time>2026-05-02T08:52:42.538Z</time></trkpt><trkpt lat="45.5106704" lon="11.5068271"><ele>34.0</ele><time>2026-05-02T08:52:43.537Z</time></trkpt><trkpt lat="45.5105341" lon="11.50676"><ele>34.0</ele><time>2026-05-02T08:52:44.538Z</time></trkpt><trkpt lat="45.5103981" lon="11.5066911"><ele>34.0</ele><time>2026-05-02T08:52:45.538Z</time></trkpt><trkpt lat="45.5102609" lon="11.5066305"><ele>34.5</ele><time>2026-05-02T08:52:46.539Z</time></trkpt><trkpt lat="45.5101224" lon="11.5065777"><ele>35.0</ele><time>2026-05-02T08:52:47.537Z</time></trkpt><trkpt lat="45.5099859" lon="11.5065283"><ele>35.5</ele><time>2026-05-02T08:52:48.538Z</time></trkpt><trkpt lat="45.5098524" lon="11.5064825"><ele>36.0</ele><time>2026-05-02T08:52:49.539Z</time></trkpt><trkpt lat="45.5097266" lon="11.5064396"><ele>36.0</ele><time>2026-05-02T08:52:50.538Z</time></trkpt><trkpt lat="45.5096086" lon="11.5064051"><ele>36.0</ele><time>2026-05-02T08:52:51.539Z</time></trkpt><trkpt lat="45.5094964" lon="11.5063874"><ele>36.0</ele><time>2026-05-02T08:52:52.538Z</time></trkpt><trkpt lat="45.5093862" lon="11.5063739"><ele>36.0</ele><time>2026-05-02T08:52:53.538Z</time></trkpt><trkpt lat="45.5092697" lon="11.506354"><ele>35.75</ele><time>2026-05-02T08:52:54.538Z</time></trkpt><trkpt lat="45.5091488" lon="11.5063239"><ele>35.5</ele><time>2026-05-02T08:52:55.538Z</time></trkpt><trkpt lat="45.5090209" lon="11.5062837"><ele>35.25</ele><time>2026-05-02T08:52:56.539Z</time></trkpt><trkpt lat="45.508889" lon="11.5062411"><ele>35.0</ele><time>2026-05-02T08:52:57.539Z</time></trkpt><trkpt lat="45.5087535" lon="11.5061971"><ele>40.5</ele><time>2026-05-02T08:52:58.539Z</time></trkpt><trkpt lat="45.5086117" lon="11.5061618"><ele>46.0</ele><time>2026-05-02T08:52:59.539Z</time></trkpt><trkpt lat="45.5084645" lon="11.5061205"><ele>51.5</ele><time>2026-05-02T08:53:00.538Z</time></trkpt><trkpt lat="45.5083158" lon="11.5060716"><ele>57.0</ele><time>2026-05-02T08:53:01.539Z</time></trkpt><trkpt lat="45.5081656" lon="11.5060168"><ele>57.0</ele><time>2026-05-02T08:53:02.539Z</time></trkpt><trkpt lat="45.5080122" lon="11.5059611"><ele>57.0</ele><time>2026-05-02T08:53:03.538Z</time></trkpt><trkpt lat="45.5078563" lon="11.5059109"><ele>57.0</ele><time>2026-05-02T08:53:04.539Z</time></trkpt><trkpt lat="45.5076996" lon="11.5058603"><ele>53.666666666666664</ele><time>2026-05-02T08:53:05.539Z</time></trkpt><trkpt lat="45.5075451" lon="11.5058116"><ele>50.33333333333333</ele><time>2026-05-02T08:53:06.538Z</time></trkpt><trkpt lat="45.5073936" lon="11.505769"><ele>47.0</ele><time>2026-05-02T08:53:07.539Z</time></trkpt><trkpt lat="45.5072383" lon="11.5057375"><ele>47.0</ele><time>2026-05-02T08:53:08.538Z</time></trkpt><trkpt lat="45.5070821" lon="11.5057173"><ele>47.0</ele><time>2026-05-02T08:53:09.538Z</time></trkpt><trkpt lat="45.5069229" lon="11.5057089"><ele>47.0</ele><time>2026-05-02T08:53:10.538Z</time></trkpt><trkpt lat="45.5067646" lon="11.5057041"><ele>46.75</ele><time>2026-05-02T08:53:11.539Z</time></trkpt><trkpt lat="45.5066095" lon="11.5057003"><ele>46.5</ele><time>2026-05-02T08:53:12.537Z</time></trkpt><trkpt lat="45.5064633" lon="11.5056961"><ele>46.25</ele><time>2026-05-02T08:53:13.539Z</time></trkpt><trkpt lat="45.5063203" lon="11.5056952"><ele>46.0</ele><time>2026-05-02T08:53:14.539Z</time></trkpt><trkpt lat="45.5061824" lon="11.5056953"><ele>46.0</ele><time>2026-05-02T08:53:15.538Z</time></trkpt><trkpt lat="45.5060482" lon="11.5057005"><ele>46.0</ele><time>2026-05-02T08:53:16.539Z</time></trkpt><trkpt lat="45.5059138" lon="11.5057019"><ele>46.0</ele><time>2026-05-02T08:53:17.539Z</time></trkpt><trkpt lat="45.5057816" lon="11.5056974"><ele>46.0</ele><time>2026-05-02T08:53:18.537Z</time></trkpt><trkpt lat="45.5056496" lon="11.5056919"><ele>46.0</ele><time>2026-05-02T08:53:19.539Z</time></trkpt><trkpt lat="45.5055177" lon="11.5056844"><ele>46.0</ele><time>2026-05-02T08:53:20.538Z</time></trkpt><trkpt lat="45.5053899" lon="11.5056731"><ele>46.0</ele><time>2026-05-02T08:53:21.539Z</time></trkpt><trkpt lat="45.5052653" lon="11.505664"><ele>46.0</ele><time>2026-05-02T08:53:22.538Z</time></trkpt><trkpt lat="45.5051429" lon="11.5056583"><ele>45.199999999999996</ele><time>2026-05-02T08:53:23.539Z</time></trkpt><trkpt lat="45.5050258" lon="11.505656"><ele>44.4</ele><time>2026-05-02T08:53:24.539Z</time></trkpt><trkpt lat="45.5049108" lon="11.5056584"><ele>43.6</ele><time>2026-05-02T08:53:25.538Z</time></trkpt><trkpt lat="45.5047993" lon="11.5056616"><ele>42.8</ele><time>2026-05-02T08:53:26.538Z</time></trkpt><trkpt lat="45.5046952" lon="11.5056604"><ele>42.0</ele><time>2026-05-02T08:53:27.539Z</time></trkpt><trkpt lat="45.5045876" lon="11.5056398"><ele>40.75</ele><time>2026-05-02T08:53:28.538Z</time></trkpt><trkpt lat="45.5044809" lon="11.5055928"><ele>39.5</ele><time>2026-05-02T08:53:29.539Z</time></trkpt><trkpt lat="45.5043649" lon="11.5055457"><ele>38.25</ele><time>2026-05-02T08:53:30.539Z</time></trkpt><trkpt lat="45.5042404" lon="11.5054837"><ele>37.0</ele><time>2026-05-02T08:53:31.539Z</time></trkpt><trkpt lat="45.5041143" lon="11.5054158"><ele>41.75</ele><time>2026-05-02T08:53:32.538Z</time></trkpt><trkpt lat="45.503984" lon="11.5053459"><ele>46.5</ele><time>2026-05-02T08:53:33.538Z</time></trkpt><trkpt lat="45.5038563" lon="11.5052791"><ele>51.25</ele><time>2026-05-02T08:53:34.539Z</time></trkpt><trkpt lat="45.503729" lon="11.505215"><ele>56.0</ele><time>2026-05-02T08:53:35.539Z</time></trkpt><trkpt lat="45.5036064" lon="11.5051465"><ele>56.0</ele><time>2026-05-02T08:53:36.538Z</time></trkpt><trkpt lat="45.5034833" lon="11.5050866"><ele>56.0</ele><time>2026-05-02T08:53:37.539Z</time></trkpt><trkpt lat="45.5033644" lon="11.5050259"><ele>56.0</ele><time>2026-05-02T08:53:38.538Z</time></trkpt><trkpt lat="45.5032512" lon="11.5049663"><ele>56.0</ele><time>2026-05-02T08:53:39.538Z</time></trkpt><trkpt lat="45.5031422" lon="11.5049062"><ele>56.0</ele><time>2026-05-02T08:53:40.539Z</time></trkpt><trkpt lat="45.5030377" lon="11.5048473"><ele>55.99999999999999</ele><time>2026-05-02T08:53:41.539Z</time></trkpt><trkpt lat="45.5029414" lon="11.5047868"><ele>55.99999999999999</ele><time>2026-05-02T08:53:42.539Z</time></trkpt><trkpt lat="45.502868" lon="11.5047093"><ele>56.0</ele><time>2026-05-02T08:53:43.539Z</time></trkpt><trkpt lat="45.502802" lon="11.5046309"><ele>56.0</ele><time>2026-05-02T08:53:44.539Z</time></trkpt><trkpt lat="45.5028102" lon="11.5045144"><ele>54.8</ele><time>2026-05-02T08:53:45.539Z</time></trkpt><trkpt lat="45.5028237" lon="11.5044053"><ele>53.599999999999994</ele><time>2026-05-02T08:53:46.539Z</time></trkpt><trkpt lat="45.5028637" lon="11.5042965"><ele>52.4</ele><time>2026-05-02T08:53:47.538Z</time></trkpt><trkpt lat="45.5029281" lon="11.504183"><ele>51.2</ele><time>2026-05-02T08:53:48.537Z</time></trkpt><trkpt lat="45.5030106" lon="11.5040665"><ele>50.0</ele><time>2026-05-02T08:53:49.539Z</time></trkpt><trkpt lat="45.5031001" lon="11.5039321"><ele>56.0</ele><time>2026-05-02T08:53:50.539Z</time></trkpt><trkpt lat="45.5031945" lon="11.5037848"><ele>62.0</ele><time>2026-05-02T08:53:51.539Z</time></trkpt><trkpt lat="45.5032943" lon="11.5036101"><ele>68.0</ele><time>2026-05-02T08:53:52.538Z</time></trkpt><trkpt lat="45.5033942" lon="11.5034083"><ele>68.0</ele><time>2026-05-02T08:53:53.539Z</time></trkpt><trkpt lat="45.5034831" lon="11.5032133"><ele>68.0</ele><time>2026-05-02T08:53:54.539Z</time></trkpt><trkpt lat="45.5035616" lon="11.5030263"><ele>68.0</ele><time>2026-05-02T08:53:55.538Z</time></trkpt><trkpt lat="45.5036425" lon="11.5028499"><ele>68.5</ele><time>2026-05-02T08:53:56.538Z</time></trkpt><trkpt lat="45.5037364" lon="11.502697"><ele>69.0</ele><time>2026-05-02T08:53:57.539Z</time></trkpt><trkpt lat="45.5038351" lon="11.5025496"><ele>69.5</ele><time>2026-05-02T08:53:58.538Z</time></trkpt><trkpt lat="45.5039337" lon="11.5024181"><ele>70.0</ele><time>2026-05-02T08:53:59.539Z</time></trkpt><trkpt lat="45.5040362" lon="11.5022891"><ele>75.0</ele><time>2026-05-02T08:54:00.537Z</time></trkpt><trkpt lat="45.5041399" lon="11.5021617"><ele>80.0</ele><time>2026-05-02T08:54:01.539Z</time></trkpt><trkpt lat="45.5042412" lon="11.502043"><ele>85.0</ele><time>2026-05-02T08:54:02.538Z</time></trkpt><trkpt lat="45.5043207" lon="11.5019359"><ele>90.0</ele><time>2026-05-02T08:54:03.538Z</time></trkpt><trkpt lat="45.5043752" lon="11.5018331"><ele>90.6</ele><time>2026-05-02T08:54:04.538Z</time></trkpt><trkpt lat="45.5043953" lon="11.5017233"><ele>91.2</ele><time>2026-05-02T08:54:05.538Z</time></trkpt><trkpt lat="45.5043739" lon="11.501621"><ele>91.80000000000001</ele><time>2026-05-02T08:54:06.538Z</time></trkpt><trkpt lat="45.5043132" lon="11.5015272"><ele>92.4</ele><time>2026-05-02T08:54:07.539Z</time></trkpt><trkpt lat="45.5042213" lon="11.5014549"><ele>93.0</ele><time>2026-05-02T08:54:08.537Z</time></trkpt><trkpt lat="45.504106" lon="11.5013947"><ele>93.0</ele><time>2026-05-02T08:54:09.538Z</time></trkpt><trkpt lat="45.5039849" lon="11.5013392"><ele>93.0</ele><time>2026-05-02T08:54:10.538Z</time></trkpt><trkpt lat="45.5038658" lon="11.5012904"><ele>93.0</ele><time>2026-05-02T08:54:11.538Z</time></trkpt><trkpt lat="45.5037513" lon="11.5012305"><ele>93.0</ele><time>2026-05-02T08:54:12.538Z</time></trkpt><trkpt lat="45.5036467" lon="11.5011389"><ele>94.60000000000001</ele><time>2026-05-02T08:54:13.539Z</time></trkpt><trkpt lat="45.5035539" lon="11.5010239"><ele>96.2</ele><time>2026-05-02T08:54:14.538Z</time></trkpt><trkpt lat="45.503482" lon="11.5009218"><ele>97.8</ele><time>2026-05-02T08:54:15.538Z</time></trkpt><trkpt lat="45.5034518" lon="11.5008079"><ele>99.4</ele><time>2026-05-02T08:54:16.538Z</time></trkpt><trkpt lat="45.5034435" lon="11.5006839"><ele>101.0</ele><time>2026-05-02T08:54:17.538Z</time></trkpt><trkpt lat="45.5034641" lon="11.5005488"><ele>101.8</ele><time>2026-05-02T08:54:18.538Z</time></trkpt><trkpt lat="45.5034946" lon="11.5004156"><ele>102.6</ele><time>2026-05-02T08:54:19.538Z</time></trkpt><trkpt lat="45.5035252" lon="11.5002853"><ele>103.4</ele><time>2026-05-02T08:54:20.537Z</time></trkpt><trkpt lat="45.503568" lon="11.5001735"><ele>104.2</ele><time>2026-05-02T08:54:21.538Z</time></trkpt><trkpt lat="45.5036311" lon="11.5000614"><ele>105.0</ele><time>2026-05-02T08:54:22.538Z</time></trkpt><trkpt lat="45.5037154" lon="11.4999553"><ele>107.75</ele><time>2026-05-02T08:54:23.539Z</time></trkpt><trkpt lat="45.5038219" lon="11.4998543"><ele>110.5</ele><time>2026-05-02T08:54:24.538Z</time></trkpt><trkpt lat="45.503941" lon="11.4997477"><ele>113.25</ele><time>2026-05-02T08:54:25.537Z</time></trkpt><trkpt lat="45.5040648" lon="11.4996399"><ele>116.0</ele><time>2026-05-02T08:54:26.539Z</time></trkpt><trkpt lat="45.5041745" lon="11.4995469"><ele>117.6</ele><time>2026-05-02T08:54:27.538Z</time></trkpt><trkpt lat="45.5042658" lon="11.4994543"><ele>119.19999999999999</ele><time>2026-05-02T08:54:28.539Z</time></trkpt><trkpt lat="45.5043328" lon="11.499347"><ele>120.80000000000001</ele><time>2026-05-02T08:54:29.538Z</time></trkpt><trkpt lat="45.5043618" lon="11.499217"><ele>122.4</ele><time>2026-05-02T08:54:30.538Z</time></trkpt><trkpt lat="45.5043544" lon="11.4990775"><ele>124.0</ele><time>2026-05-02T08:54:31.538Z</time></trkpt><trkpt lat="45.5043141" lon="11.4989347"><ele>124.0</ele><time>2026-05-02T08:54:32.538Z</time></trkpt><trkpt lat="45.5042484" lon="11.4987966"><ele>124.0</ele><time>2026-05-02T08:54:33.538Z</time></trkpt><trkpt lat="45.504161" lon="11.4986716"><ele>124.0</ele><time>2026-05-02T08:54:34.538Z</time></trkpt><trkpt lat="45.5040704" lon="11.4985567"><ele>124.0</ele><time>2026-05-02T08:54:35.538Z</time></trkpt><trkpt lat="45.5039896" lon="11.4984404"><ele>125.4</ele><time>2026-05-02T08:54:36.538Z</time></trkpt><trkpt lat="45.5039195" lon="11.4983075"><ele>126.80000000000001</ele><time>2026-05-02T08:54:37.538Z</time></trkpt><trkpt lat="45.5038784" lon="11.4981605"><ele>128.2</ele><time>2026-05-02T08:54:38.538Z</time></trkpt><trkpt lat="45.5038689" lon="11.4980092"><ele>129.6</ele><time>2026-05-02T08:54:39.539Z</time></trkpt><trkpt lat="45.5038899" lon="11.4978636"><ele>131.0</ele><time>2026-05-02T08:54:40.537Z</time></trkpt><trkpt lat="45.50394" lon="11.497731"><ele>131.0</ele><time>2026-05-02T08:54:41.539Z</time></trkpt><trkpt lat="45.504018" lon="11.4976211"><ele>131.0</ele><time>2026-05-02T08:54:42.537Z</time></trkpt><trkpt lat="45.5041192" lon="11.4975289"><ele>131.0</ele><time>2026-05-02T08:54:43.538Z</time></trkpt><trkpt lat="45.5042372" lon="11.4974528"><ele>131.0</ele><time>2026-05-02T08:54:44.538Z</time></trkpt><trkpt lat="45.5043612" lon="11.497387"><ele>131.0</ele><time>2026-05-02T08:54:45.539Z</time></trkpt><trkpt lat="45.5045063" lon="11.4973594"><ele>131.0</ele><time>2026-05-02T08:54:46.537Z</time></trkpt><trkpt lat="45.5046486" lon="11.4973311"><ele>131.0</ele><time>2026-05-02T08:54:47.538Z</time></trkpt><trkpt lat="45.5047829" lon="11.4973046"><ele>131.0</ele><time>2026-05-02T08:54:48.538Z</time></trkpt><trkpt lat="45.504911" lon="11.4972631"><ele>131.0</ele><time>2026-05-02T08:54:49.538Z</time></trkpt><trkpt lat="45.5050255" lon="11.4971812"><ele>131.0</ele><time>2026-05-02T08:54:50.537Z</time></trkpt><trkpt lat="45.5051218" lon="11.4970613"><ele>131.0</ele><time>2026-05-02T08:54:51.538Z</time></trkpt><trkpt lat="45.5052101" lon="11.4969311"><ele>131.0</ele><time>2026-05-02T08:54:52.538Z</time></trkpt><trkpt lat="45.505281" lon="11.4968081"><ele>131.0</ele><time>2026-05-02T08:54:53.538Z</time></trkpt><trkpt lat="45.50534" lon="11.4966813"><ele>131.0</ele><time>2026-05-02T08:54:54.538Z</time></trkpt><trkpt lat="45.5053793" lon="11.4965311"><ele>131.0</ele><time>2026-05-02T08:54:55.539Z</time></trkpt><trkpt lat="45.5053967" lon="11.4963751"><ele>131.0</ele><time>2026-05-02T08:54:56.538Z</time></trkpt><trkpt lat="45.5053963" lon="11.4962238"><ele>131.0</ele><time>2026-05-02T08:54:57.537Z</time></trkpt><trkpt lat="45.5053856" lon="11.496079"><ele>131.0</ele><time>2026-05-02T08:54:58.539Z</time></trkpt><trkpt lat="45.5053655" lon="11.4959325"><ele>131.0</ele><time>2026-05-02T08:54:59.538Z</time></trkpt><trkpt lat="45.5053368" lon="11.4957917"><ele>131.0</ele><time>2026-05-02T08:55:00.538Z</time></trkpt><trkpt lat="45.5053043" lon="11.4956516"><ele>131.0</ele><time>2026-05-02T08:55:01.538Z</time></trkpt><trkpt lat="45.5052702" lon="11.4955139"><ele>131.0</ele><time>2026-05-02T08:55:02.538Z</time></trkpt><trkpt lat="45.50524" lon="11.495385"><ele>131.2</ele><time>2026-05-02T08:55:03.539Z</time></trkpt><trkpt lat="45.5052109" lon="11.4952634"><ele>131.39999999999998</ele><time>2026-05-02T08:55:04.539Z</time></trkpt><trkpt lat="45.505181" lon="11.4951452"><ele>131.6</ele><time>2026-05-02T08:55:05.538Z</time></trkpt><trkpt lat="45.5051402" lon="11.4950258"><ele>131.79999999999998</ele><time>2026-05-02T08:55:06.538Z</time></trkpt><trkpt lat="45.5050895" lon="11.4949016"><ele>132.0</ele><time>2026-05-02T08:55:07.537Z</time></trkpt><trkpt lat="45.5050295" lon="11.4947739"><ele>132.0</ele><time>2026-05-02T08:55:08.538Z</time></trkpt><trkpt lat="45.5049568" lon="11.49465"><ele>132.0</ele><time>2026-05-02T08:55:09.538Z</time></trkpt><trkpt lat="45.5048714" lon="11.4945301"><ele>132.0</ele><time>2026-05-02T08:55:10.538Z</time></trkpt><trkpt lat="45.5047813" lon="11.4944201"><ele>132.0</ele><time>2026-05-02T08:55:11.538Z</time></trkpt><trkpt lat="45.5046898" lon="11.4943118"><ele>132.0</ele><time>2026-05-02T08:55:12.539Z</time></trkpt><trkpt lat="45.504604" lon="11.494209"><ele>132.0</ele><time>2026-05-02T08:55:13.538Z</time></trkpt><trkpt lat="45.5045257" lon="11.4941096"><ele>132.0</ele><time>2026-05-02T08:55:14.538Z</time></trkpt><trkpt lat="45.5044579" lon="11.4939947"><ele>132.0</ele><time>2026-05-02T08:55:15.538Z</time></trkpt><trkpt lat="45.5044033" lon="11.4938672"><ele>132.0</ele><time>2026-05-02T08:55:16.538Z</time></trkpt><trkpt lat="45.5043551" lon="11.4937343"><ele>135.5</ele><time>2026-05-02T08:55:17.538Z</time></trkpt><trkpt lat="45.5042899" lon="11.4936196"><ele>139.0</ele><time>2026-05-02T08:55:18.538Z</time></trkpt><trkpt lat="45.504199" lon="11.4935309"><ele>142.5</ele><time>2026-05-02T08:55:19.538Z</time></trkpt><trkpt lat="45.5040949" lon="11.493462"><ele>146.0</ele><time>2026-05-02T08:55:20.538Z</time></trkpt><trkpt lat="45.5039777" lon="11.4934123"><ele>146.0</ele><time>2026-05-02T08:55:21.538Z</time></trkpt><trkpt lat="45.503851" lon="11.4933662"><ele>146.0</ele><time>2026-05-02T08:55:22.538Z</time></trkpt><trkpt lat="45.5037152" lon="11.4933256"><ele>146.0</ele><time>2026-05-02T08:55:23.539Z</time></trkpt><trkpt lat="45.503583" lon="11.4932935"><ele>146.0</ele><time>2026-05-02T08:55:24.538Z</time></trkpt><trkpt lat="45.5034558" lon="11.4932603"><ele>144.75</ele><time>2026-05-02T08:55:25.537Z</time></trkpt><trkpt lat="45.5033366" lon="11.4932263"><ele>143.5</ele><time>2026-05-02T08:55:26.537Z</time></trkpt><trkpt lat="45.5032223" lon="11.4931909"><ele>142.25</ele><time>2026-05-02T08:55:27.538Z</time></trkpt><trkpt lat="45.503107" lon="11.4931562"><ele>141.0</ele><time>2026-05-02T08:55:28.538Z</time></trkpt><trkpt lat="45.5029984" lon="11.4931285"><ele>140.4</ele><time>2026-05-02T08:55:29.537Z</time></trkpt><trkpt lat="45.5028988" lon="11.4931026"><ele>139.8</ele><time>2026-05-02T08:55:30.537Z</time></trkpt><trkpt lat="45.5028064" lon="11.4930576"><ele>139.20000000000002</ele><time>2026-05-02T08:55:31.538Z</time></trkpt><trkpt lat="45.5027092" lon="11.492991"><ele>138.6</ele><time>2026-05-02T08:55:32.539Z</time></trkpt><trkpt lat="45.5026186" lon="11.4928989"><ele>138.0</ele><time>2026-05-02T08:55:33.537Z</time></trkpt><trkpt lat="45.5025522" lon="11.4927872"><ele>138.0</ele><time>2026-05-02T08:55:34.538Z</time></trkpt><trkpt lat="45.5025149" lon="11.4926559"><ele>138.0</ele><time>2026-05-02T08:55:35.538Z</time></trkpt><trkpt lat="45.5025063" lon="11.4925095"><ele>138.0</ele><time>2026-05-02T08:55:36.538Z</time></trkpt><trkpt lat="45.5025017" lon="11.4923523"><ele>138.0</ele><time>2026-05-02T08:55:37.539Z</time></trkpt><trkpt lat="45.5024932" lon="11.4922109"><ele>138.0</ele><time>2026-05-02T08:55:38.537Z</time></trkpt><trkpt lat="45.5024893" lon="11.4920848"><ele>139.6</ele><time>2026-05-02T08:55:39.539Z</time></trkpt><trkpt lat="45.502498" lon="11.4919652"><ele>141.20000000000002</ele><time>2026-05-02T08:55:40.538Z</time></trkpt><trkpt lat="45.5025045" lon="11.4918554"><ele>142.8</ele><time>2026-05-02T08:55:41.538Z</time></trkpt><trkpt lat="45.5024705" lon="11.4917278"><ele>144.4</ele><time>2026-05-02T08:55:43.539Z</time></trkpt><trkpt lat="45.5023479" lon="11.4917097"><ele>146.0</ele><time>2026-05-02T08:55:45.539Z</time></trkpt><trkpt lat="45.5022608" lon="11.4917438"><ele>146.0</ele><time>2026-05-02T08:55:46.539Z</time></trkpt><trkpt lat="45.5021586" lon="11.491781"><ele>146.0</ele><time>2026-05-02T08:55:47.538Z</time></trkpt><trkpt lat="45.5020547" lon="11.4918101"><ele>146.0</ele><time>2026-05-02T08:55:48.539Z</time></trkpt><trkpt lat="45.5019443" lon="11.4918139"><ele>146.0</ele><time>2026-05-02T08:55:49.539Z</time></trkpt><trkpt lat="45.5018281" lon="11.4917886"><ele>146.0</ele><time>2026-05-02T08:55:50.539Z</time></trkpt><trkpt lat="45.5017077" lon="11.4917368"><ele>143.5</ele><time>2026-05-02T08:55:51.538Z</time></trkpt><trkpt lat="45.5015892" lon="11.4916577"><ele>141.0</ele><time>2026-05-02T08:55:52.538Z</time></trkpt><trkpt lat="45.5014784" lon="11.4915522"><ele>138.5</ele><time>2026-05-02T08:55:53.538Z</time></trkpt><trkpt lat="45.5013795" lon="11.4914343"><ele>136.0</ele><time>2026-05-02T08:55:54.538Z</time></trkpt><trkpt lat="45.5012905" lon="11.4913024"><ele>133.75</ele><time>2026-05-02T08:55:55.539Z</time></trkpt><trkpt lat="45.5012104" lon="11.4911581"><ele>131.5</ele><time>2026-05-02T08:55:56.539Z</time></trkpt><trkpt lat="45.5011445" lon="11.4910068"><ele>129.25</ele><time>2026-05-02T08:55:57.539Z</time></trkpt><trkpt lat="45.5011004" lon="11.4908495"><ele>127.0</ele><time>2026-05-02T08:55:58.537Z</time></trkpt><trkpt lat="45.5010846" lon="11.4906901"><ele>127.0</ele><time>2026-05-02T08:55:59.538Z</time></trkpt><trkpt lat="45.5011007" lon="11.4905344"><ele>126.99999999999999</ele><time>2026-05-02T08:56:00.538Z</time></trkpt><trkpt lat="45.5011464" lon="11.4903958"><ele>126.99999999999999</ele><time>2026-05-02T08:56:01.539Z</time></trkpt><trkpt lat="45.5012149" lon="11.4902773"><ele>127.0</ele><time>2026-05-02T08:56:02.539Z</time></trkpt><trkpt lat="45.5012912" lon="11.4901667"><ele>127.0</ele><time>2026-05-02T08:56:03.538Z</time></trkpt><trkpt lat="45.5013708" lon="11.4900714"><ele>128.5</ele><time>2026-05-02T08:56:04.538Z</time></trkpt><trkpt lat="45.5014631" lon="11.4899944"><ele>130.0</ele><time>2026-05-02T08:56:05.539Z</time></trkpt><trkpt lat="45.5015647" lon="11.4899224"><ele>131.5</ele><time>2026-05-02T08:56:06.538Z</time></trkpt><trkpt lat="45.5016732" lon="11.4898474"><ele>133.0</ele><time>2026-05-02T08:56:07.538Z</time></trkpt><trkpt lat="45.5017858" lon="11.4897649"><ele>133.0</ele><time>2026-05-02T08:56:08.539Z</time></trkpt><trkpt lat="45.5018978" lon="11.4896723"><ele>133.0</ele><time>2026-05-02T08:56:09.538Z</time></trkpt><trkpt lat="45.5020108" lon="11.4895673"><ele>133.0</ele><time>2026-05-02T08:56:10.538Z</time></trkpt><trkpt lat="45.5021363" lon="11.4894707"><ele>133.0</ele><time>2026-05-02T08:56:11.539Z</time></trkpt><trkpt lat="45.5022439" lon="11.4893369"><ele>129.25</ele><time>2026-05-02T08:56:12.538Z</time></trkpt><trkpt lat="45.5023593" lon="11.489223"><ele>125.5</ele><time>2026-05-02T08:56:13.539Z</time></trkpt><trkpt lat="45.5024735" lon="11.4891049"><ele>121.75</ele><time>2026-05-02T08:56:14.538Z</time></trkpt><trkpt lat="45.5025844" lon="11.4889875"><ele>118.0</ele><time>2026-05-02T08:56:15.538Z</time></trkpt><trkpt lat="45.5026914" lon="11.4888566"><ele>115.75</ele><time>2026-05-02T08:56:16.538Z</time></trkpt><trkpt lat="45.5027914" lon="11.4887174"><ele>113.5</ele><time>2026-05-02T08:56:17.539Z</time></trkpt><trkpt lat="45.5028803" lon="11.4885888"><ele>111.25</ele><time>2026-05-02T08:56:18.538Z</time></trkpt><trkpt lat="45.5029654" lon="11.4884677"><ele>109.0</ele><time>2026-05-02T08:56:19.538Z</time></trkpt><trkpt lat="45.503056" lon="11.4883649"><ele>109.0</ele><time>2026-05-02T08:56:20.539Z</time></trkpt><trkpt lat="45.5031558" lon="11.4882955"><ele>109.0</ele><time>2026-05-02T08:56:21.538Z</time></trkpt><trkpt lat="45.5032721" lon="11.4882572"><ele>109.0</ele><time>2026-05-02T08:56:22.538Z</time></trkpt><trkpt lat="45.5034033" lon="11.4882329"><ele>109.0</ele><time>2026-05-02T08:56:23.538Z</time></trkpt><trkpt lat="45.5035413" lon="11.4881996"><ele>109.0</ele><time>2026-05-02T08:56:24.537Z</time></trkpt><trkpt lat="45.5036775" lon="11.4881402"><ele>109.0</ele><time>2026-05-02T08:56:25.538Z</time></trkpt><trkpt lat="45.5038054" lon="11.4880816"><ele>109.0</ele><time>2026-05-02T08:56:26.538Z</time></trkpt><trkpt lat="45.5039116" lon="11.4879953"><ele>109.0</ele><time>2026-05-02T08:56:27.539Z</time></trkpt><trkpt lat="45.5040134" lon="11.4879175"><ele>106.16666666666667</ele><time>2026-05-02T08:56:28.539Z</time></trkpt><trkpt lat="45.5041029" lon="11.4878515"><ele>103.33333333333334</ele><time>2026-05-02T08:56:29.538Z</time></trkpt><trkpt lat="45.5041837" lon="11.4877833"><ele>100.5</ele><time>2026-05-02T08:56:30.538Z</time></trkpt><trkpt lat="45.5042432" lon="11.4877077"><ele>97.66666666666667</ele><time>2026-05-02T08:56:31.538Z</time></trkpt><trkpt lat="45.5042731" lon="11.4876015"><ele>94.83333333333334</ele><time>2026-05-02T08:56:32.537Z</time></trkpt><trkpt lat="45.5042706" lon="11.4874893"><ele>92.0</ele><time>2026-05-02T08:56:33.538Z</time></trkpt><trkpt lat="45.504233" lon="11.4873889"><ele>92.0</ele><time>2026-05-02T08:56:34.538Z</time></trkpt><trkpt lat="45.5041678" lon="11.4873"><ele>92.0</ele><time>2026-05-02T08:56:35.539Z</time></trkpt><trkpt lat="45.5041002" lon="11.487231"><ele>92.0</ele><time>2026-05-02T08:56:36.538Z</time></trkpt><trkpt lat="45.5040268" lon="11.4871667"><ele>92.0</ele><time>2026-05-02T08:56:37.538Z</time></trkpt><trkpt lat="45.5039501" lon="11.4871164"><ele>92.0</ele><time>2026-05-02T08:56:38.537Z</time></trkpt><trkpt lat="45.5038706" lon="11.4870852"><ele>92.0</ele><time>2026-05-02T08:56:39.538Z</time></trkpt><trkpt lat="45.503785" lon="11.4870719"><ele>92.0</ele><time>2026-05-02T08:56:40.538Z</time></trkpt><trkpt lat="45.5036978" lon="11.4870761"><ele>92.0</ele><time>2026-05-02T08:56:41.539Z</time></trkpt><trkpt lat="45.5036062" lon="11.4870916"><ele>92.0</ele><time>2026-05-02T08:56:42.539Z</time></trkpt><trkpt lat="45.5035139" lon="11.4871069"><ele>92.0</ele><time>2026-05-02T08:56:43.538Z</time></trkpt><trkpt lat="45.5034273" lon="11.487119"><ele>92.0</ele><time>2026-05-02T08:56:44.539Z</time></trkpt><trkpt lat="45.5033443" lon="11.4871302"><ele>92.0</ele><time>2026-05-02T08:56:45.538Z</time></trkpt><trkpt lat="45.5032686" lon="11.4871434"><ele>92.0</ele><time>2026-05-02T08:56:46.538Z</time></trkpt><trkpt lat="45.5032037" lon="11.4871489"><ele>92.0</ele><time>2026-05-02T08:56:47.537Z</time></trkpt><trkpt lat="45.5031037" lon="11.4870795"><ele>92.0</ele><time>2026-05-02T08:56:49.538Z</time></trkpt><trkpt lat="45.5030817" lon="11.4869893"><ele>92.0</ele><time>2026-05-02T08:56:50.538Z</time></trkpt><trkpt lat="45.5030984" lon="11.4868809"><ele>92.0</ele><time>2026-05-02T08:56:51.538Z</time></trkpt><trkpt lat="45.5031524" lon="11.486776"><ele>92.0</ele><time>2026-05-02T08:56:52.539Z</time></trkpt><trkpt lat="45.5032343" lon="11.4866843"><ele>88.8</ele><time>2026-05-02T08:56:53.538Z</time></trkpt><trkpt lat="45.5033326" lon="11.4866053"><ele>85.6</ele><time>2026-05-02T08:56:54.539Z</time></trkpt><trkpt lat="45.5034298" lon="11.486537"><ele>82.39999999999999</ele><time>2026-05-02T08:56:55.538Z</time></trkpt><trkpt lat="45.5035303" lon="11.4864732"><ele>79.19999999999999</ele><time>2026-05-02T08:56:56.537Z</time></trkpt><trkpt lat="45.5036298" lon="11.4864086"><ele>76.0</ele><time>2026-05-02T08:56:57.539Z</time></trkpt><trkpt lat="45.503728" lon="11.4863437"><ele>77.25</ele><time>2026-05-02T08:56:58.538Z</time></trkpt><trkpt lat="45.5038275" lon="11.4862835"><ele>78.5</ele><time>2026-05-02T08:56:59.538Z</time></trkpt><trkpt lat="45.5039274" lon="11.486224"><ele>79.75</ele><time>2026-05-02T08:57:00.538Z</time></trkpt><trkpt lat="45.5040364" lon="11.4861552"><ele>81.0</ele><time>2026-05-02T08:57:01.538Z</time></trkpt><trkpt lat="45.5041488" lon="11.4860829"><ele>77.25</ele><time>2026-05-02T08:57:02.538Z</time></trkpt><trkpt lat="45.5042554" lon="11.486014"><ele>73.5</ele><time>2026-05-02T08:57:03.538Z</time></trkpt><trkpt lat="45.5043598" lon="11.4859398"><ele>69.75</ele><time>2026-05-02T08:57:04.538Z</time></trkpt><trkpt lat="45.5044567" lon="11.4858474"><ele>66.0</ele><time>2026-05-02T08:57:05.538Z</time></trkpt><trkpt lat="45.5045463" lon="11.4857414"><ele>64.39999999999999</ele><time>2026-05-02T08:57:06.538Z</time></trkpt><trkpt lat="45.5046282" lon="11.4856294"><ele>62.8</ele><time>2026-05-02T08:57:07.538Z</time></trkpt><trkpt lat="45.5046982" lon="11.4855261"><ele>61.199999999999996</ele><time>2026-05-02T08:57:08.538Z</time></trkpt><trkpt lat="45.5047664" lon="11.4854355"><ele>59.599999999999994</ele><time>2026-05-02T08:57:09.538Z</time></trkpt><trkpt lat="45.5048348" lon="11.4853562"><ele>58.0</ele><time>2026-05-02T08:57:10.538Z</time></trkpt><trkpt lat="45.5049092" lon="11.4852909"><ele>55.99999999999999</ele><time>2026-05-02T08:57:11.538Z</time></trkpt><trkpt lat="45.5049866" lon="11.4852401"><ele>54.0</ele><time>2026-05-02T08:57:12.538Z</time></trkpt><trkpt lat="45.5050592" lon="11.4852066"><ele>52.0</ele><time>2026-05-02T08:57:13.538Z</time></trkpt><trkpt lat="45.5051299" lon="11.4852036"><ele>50.0</ele><time>2026-05-02T08:57:14.537Z</time></trkpt><trkpt lat="45.5051963" lon="11.4852387"><ele>48.0</ele><time>2026-05-02T08:57:15.539Z</time></trkpt><trkpt lat="45.5052483" lon="11.485314"><ele>46.0</ele><time>2026-05-02T08:57:16.537Z</time></trkpt><trkpt lat="45.5052799" lon="11.4854081"><ele>48.0</ele><time>2026-05-02T08:57:17.538Z</time></trkpt><trkpt lat="45.505289" lon="11.4855229"><ele>50.0</ele><time>2026-05-02T08:57:18.538Z</time></trkpt><trkpt lat="45.5052786" lon="11.4856495"><ele>52.0</ele><time>2026-05-02T08:57:19.538Z</time></trkpt><trkpt lat="45.5052661" lon="11.4857845"><ele>54.0</ele><time>2026-05-02T08:57:20.539Z</time></trkpt><trkpt lat="45.505259" lon="11.4859134"><ele>55.99999999999999</ele><time>2026-05-02T08:57:21.538Z</time></trkpt><trkpt lat="45.5052636" lon="11.4860353"><ele>58.0</ele><time>2026-05-02T08:57:22.537Z</time></trkpt><trkpt lat="45.5052806" lon="11.4861535"><ele>56.49999999999999</ele><time>2026-05-02T08:57:23.538Z</time></trkpt><trkpt lat="45.5053022" lon="11.4862693"><ele>55.0</ele><time>2026-05-02T08:57:24.538Z</time></trkpt><trkpt lat="45.5053289" lon="11.4863784"><ele>53.5</ele><time>2026-05-02T08:57:25.538Z</time></trkpt><trkpt lat="45.50536" lon="11.4864836"><ele>52.0</ele><time>2026-05-02T08:57:26.538Z</time></trkpt><trkpt lat="45.5053937" lon="11.4865895"><ele>50.49999999999999</ele><time>2026-05-02T08:57:27.538Z</time></trkpt><trkpt lat="45.5054267" lon="11.4866987"><ele>49.0</ele><time>2026-05-02T08:57:28.538Z</time></trkpt><trkpt lat="45.5054589" lon="11.4868099"><ele>48.99999999999999</ele><time>2026-05-02T08:57:29.538Z</time></trkpt><trkpt lat="45.5054937" lon="11.4869206"><ele>49.0</ele><time>2026-05-02T08:57:30.538Z</time></trkpt><trkpt lat="45.5055272" lon="11.4870228"><ele>49.0</ele><time>2026-05-02T08:57:31.537Z</time></trkpt><trkpt lat="45.5055596" lon="11.4871055"><ele>49.0</ele><time>2026-05-02T08:57:32.538Z</time></trkpt><trkpt lat="45.5056525" lon="11.4872196"><ele>48.99999999999999</ele><time>2026-05-02T08:57:34.538Z</time></trkpt><trkpt lat="45.5057265" lon="11.4872302"><ele>49.0</ele><time>2026-05-02T08:57:35.539Z</time></trkpt><trkpt lat="45.5058204" lon="11.4871919"><ele>49.0</ele><time>2026-05-02T08:57:36.539Z</time></trkpt><trkpt lat="45.5059452" lon="11.4871239"><ele>49.0</ele><time>2026-05-02T08:57:37.539Z</time></trkpt><trkpt lat="45.50611" lon="11.4870359"><ele>49.0</ele><time>2026-05-02T08:57:38.537Z</time></trkpt><trkpt lat="45.5062591" lon="11.4869552"><ele>48.0</ele><time>2026-05-02T08:57:39.538Z</time></trkpt><trkpt lat="45.5063943" lon="11.4868809"><ele>47.0</ele><time>2026-05-02T08:57:40.538Z</time></trkpt><trkpt lat="45.5065088" lon="11.4868137"><ele>46.0</ele><time>2026-05-02T08:57:41.539Z</time></trkpt><trkpt lat="45.506601" lon="11.486757"><ele>45.0</ele><time>2026-05-02T08:57:42.538Z</time></trkpt><trkpt lat="45.5066738" lon="11.4867175"><ele>44.0</ele><time>2026-05-02T08:57:43.538Z</time></trkpt><trkpt lat="45.5067666" lon="11.4866592"><ele>44.0</ele><time>2026-05-02T08:57:45.538Z</time></trkpt><trkpt lat="45.5068386" lon="11.486491"><ele>44.0</ele><time>2026-05-02T08:57:47.537Z</time></trkpt><trkpt lat="45.5068469" lon="11.4863299"><ele>44.0</ele><time>2026-05-02T08:57:48.538Z</time></trkpt><trkpt lat="45.5068296" lon="11.4861325"><ele>44.0</ele><time>2026-05-02T08:57:49.538Z</time></trkpt><trkpt lat="45.5067847" lon="11.4859139"><ele>42.0</ele><time>2026-05-02T08:57:50.538Z</time></trkpt><trkpt lat="45.5067189" lon="11.4857164"><ele>40.0</ele><time>2026-05-02T08:57:51.538Z</time></trkpt><trkpt lat="45.5066431" lon="11.4855421"><ele>38.0</ele><time>2026-05-02T08:57:52.539Z</time></trkpt><trkpt lat="45.5065625" lon="11.4853878"><ele>36.0</ele><time>2026-05-02T08:57:53.537Z</time></trkpt><trkpt lat="45.5064822" lon="11.485252"><ele>35.4</ele><time>2026-05-02T08:57:54.539Z</time></trkpt><trkpt lat="45.5064058" lon="11.4851355"><ele>34.8</ele><time>2026-05-02T08:57:55.538Z</time></trkpt><trkpt lat="45.5063456" lon="11.4850337"><ele>34.199999999999996</ele><time>2026-05-02T08:57:56.538Z</time></trkpt><trkpt lat="45.5063137" lon="11.484933"><ele>33.6</ele><time>2026-05-02T08:57:57.538Z</time></trkpt><trkpt lat="45.5063086" lon="11.4848378"><ele>33.0</ele><time>2026-05-02T08:57:58.538Z</time></trkpt><trkpt lat="45.5064051" lon="11.4846964"><ele>33.0</ele><time>2026-05-02T08:58:00.537Z</time></trkpt><trkpt lat="45.5065014" lon="11.484644"><ele>33.0</ele><time>2026-05-02T08:58:01.537Z</time></trkpt><trkpt lat="45.5066256" lon="11.4845882"><ele>33.0</ele><time>2026-05-02T08:58:02.539Z</time></trkpt><trkpt lat="45.5067608" lon="11.4845037"><ele>33.0</ele><time>2026-05-02T08:58:03.538Z</time></trkpt><trkpt lat="45.5069067" lon="11.4844092"><ele>33.0</ele><time>2026-05-02T08:58:04.538Z</time></trkpt><trkpt lat="45.5070607" lon="11.4843036"><ele>33.0</ele><time>2026-05-02T08:58:05.538Z</time></trkpt><trkpt lat="45.5072184" lon="11.4841898"><ele>33.0</ele><time>2026-05-02T08:58:06.538Z</time></trkpt><trkpt lat="45.5073807" lon="11.4840753"><ele>33.333333333333336</ele><time>2026-05-02T08:58:07.538Z</time></trkpt><trkpt lat="45.5075459" lon="11.4839647"><ele>33.66666666666667</ele><time>2026-05-02T08:58:08.538Z</time></trkpt><trkpt lat="45.5077148" lon="11.483856"><ele>34.0</ele><time>2026-05-02T08:58:09.537Z</time></trkpt><trkpt lat="45.5078849" lon="11.4837489"><ele>33.333333333333336</ele><time>2026-05-02T08:58:10.538Z</time></trkpt><trkpt lat="45.5080461" lon="11.4836422"><ele>32.666666666666664</ele><time>2026-05-02T08:58:11.538Z</time></trkpt><trkpt lat="45.5082016" lon="11.4835378"><ele>32.0</ele><time>2026-05-02T08:58:12.538Z</time></trkpt><trkpt lat="45.5083543" lon="11.4834366"><ele>32.0</ele><time>2026-05-02T08:58:13.538Z</time></trkpt><trkpt lat="45.5085034" lon="11.4833253"><ele>32.0</ele><time>2026-05-02T08:58:14.538Z</time></trkpt><trkpt lat="45.508645" lon="11.4831993"><ele>32.0</ele><time>2026-05-02T08:58:15.537Z</time></trkpt><trkpt lat="45.5087765" lon="11.4830535"><ele>33.33333333333333</ele><time>2026-05-02T08:58:16.538Z</time></trkpt><trkpt lat="45.5088986" lon="11.4829024"><ele>34.666666666666664</ele><time>2026-05-02T08:58:17.538Z</time></trkpt><trkpt lat="45.5090172" lon="11.4827587"><ele>36.0</ele><time>2026-05-02T08:58:18.537Z</time></trkpt><trkpt lat="45.5091235" lon="11.4826252"><ele>36.0</ele><time>2026-05-02T08:58:19.537Z</time></trkpt><trkpt lat="45.5092063" lon="11.4824935"><ele>36.0</ele><time>2026-05-02T08:58:20.537Z</time></trkpt><trkpt lat="45.5092673" lon="11.4823407"><ele>36.0</ele><time>2026-05-02T08:58:21.538Z</time></trkpt><trkpt lat="45.5092998" lon="11.4821669"><ele>36.0</ele><time>2026-05-02T08:58:22.537Z</time></trkpt><trkpt lat="45.5092986" lon="11.4819723"><ele>36.5</ele><time>2026-05-02T08:58:23.538Z</time></trkpt><trkpt lat="45.5092724" lon="11.4817719"><ele>37.0</ele><time>2026-05-02T08:58:24.537Z</time></trkpt><trkpt lat="45.5092385" lon="11.4815667"><ele>37.5</ele><time>2026-05-02T08:58:25.537Z</time></trkpt><trkpt lat="45.5092102" lon="11.4813651"><ele>38.0</ele><time>2026-05-02T08:58:26.538Z</time></trkpt><trkpt lat="45.5091886" lon="11.4811594"><ele>38.33333333333333</ele><time>2026-05-02T08:58:27.539Z</time></trkpt><trkpt lat="45.5091841" lon="11.4809446"><ele>38.666666666666664</ele><time>2026-05-02T08:58:28.539Z</time></trkpt><trkpt lat="45.509202" lon="11.480724"><ele>39.0</ele><time>2026-05-02T08:58:29.539Z</time></trkpt><trkpt lat="45.5092373" lon="11.4804966"><ele>39.0</ele><time>2026-05-02T08:58:30.538Z</time></trkpt><trkpt lat="45.509282" lon="11.4802704"><ele>39.0</ele><time>2026-05-02T08:58:31.538Z</time></trkpt><trkpt lat="45.5093386" lon="11.4800514"><ele>39.0</ele><time>2026-05-02T08:58:32.538Z</time></trkpt><trkpt lat="45.5093992" lon="11.4798448"><ele>39.0</ele><time>2026-05-02T08:58:33.538Z</time></trkpt><trkpt lat="45.5094528" lon="11.4796396"><ele>39.0</ele><time>2026-05-02T08:58:34.538Z</time></trkpt><trkpt lat="45.5094969" lon="11.479429"><ele>39.0</ele><time>2026-05-02T08:58:35.537Z</time></trkpt><trkpt lat="45.5095294" lon="11.4792119"><ele>38.333333333333336</ele><time>2026-05-02T08:58:36.538Z</time></trkpt><trkpt lat="45.509546" lon="11.4789944"><ele>37.66666666666667</ele><time>2026-05-02T08:58:37.539Z</time></trkpt><trkpt lat="45.5095492" lon="11.4787755"><ele>37.0</ele><time>2026-05-02T08:58:38.538Z</time></trkpt><trkpt lat="45.5095355" lon="11.478556"><ele>37.0</ele><time>2026-05-02T08:58:39.538Z</time></trkpt><trkpt lat="45.509502" lon="11.4783377"><ele>37.0</ele><time>2026-05-02T08:58:40.538Z</time></trkpt><trkpt lat="45.5094523" lon="11.4781182"><ele>37.0</ele><time>2026-05-02T08:58:41.539Z</time></trkpt><trkpt lat="45.5093864" lon="11.477892"><ele>37.0</ele><time>2026-05-02T08:58:42.538Z</time></trkpt><trkpt lat="45.5093063" lon="11.4776573"><ele>37.0</ele><time>2026-05-02T08:58:43.538Z</time></trkpt><trkpt lat="45.5092236" lon="11.4774189"><ele>37.0</ele><time>2026-05-02T08:58:44.539Z</time></trkpt><trkpt lat="45.5091389" lon="11.4771807"><ele>37.333333333333336</ele><time>2026-05-02T08:58:45.538Z</time></trkpt><trkpt lat="45.5090545" lon="11.4769426"><ele>37.666666666666664</ele><time>2026-05-02T08:58:46.539Z</time></trkpt><trkpt lat="45.5089667" lon="11.4767034"><ele>38.0</ele><time>2026-05-02T08:58:47.538Z</time></trkpt><trkpt lat="45.5088786" lon="11.4764649"><ele>38.0</ele><time>2026-05-02T08:58:48.538Z</time></trkpt><trkpt lat="45.5087899" lon="11.4762271"><ele>38.0</ele><time>2026-05-02T08:58:49.537Z</time></trkpt><trkpt lat="45.5086997" lon="11.4759916"><ele>38.0</ele><time>2026-05-02T08:58:50.538Z</time></trkpt><trkpt lat="45.5086125" lon="11.4757563"><ele>38.0</ele><time>2026-05-02T08:58:51.539Z</time></trkpt><trkpt lat="45.5085264" lon="11.4755259"><ele>38.0</ele><time>2026-05-02T08:58:52.538Z</time></trkpt><trkpt lat="45.5084416" lon="11.475296"><ele>38.0</ele><time>2026-05-02T08:58:53.539Z</time></trkpt><trkpt lat="45.5083585" lon="11.475069"><ele>38.0</ele><time>2026-05-02T08:58:54.538Z</time></trkpt><trkpt lat="45.5082769" lon="11.474846"><ele>38.0</ele><time>2026-05-02T08:58:55.538Z</time></trkpt><trkpt lat="45.5081947" lon="11.4746242"><ele>38.0</ele><time>2026-05-02T08:58:56.539Z</time></trkpt><trkpt lat="45.5081162" lon="11.4744121"><ele>38.0</ele><time>2026-05-02T08:58:57.539Z</time></trkpt><trkpt lat="45.5080387" lon="11.474211"><ele>38.0</ele><time>2026-05-02T08:58:58.538Z</time></trkpt><trkpt lat="45.5079692" lon="11.4740231"><ele>38.0</ele><time>2026-05-02T08:58:59.538Z</time></trkpt><trkpt lat="45.5079038" lon="11.473853"><ele>38.0</ele><time>2026-05-02T08:59:00.539Z</time></trkpt><trkpt lat="45.5078464" lon="11.4737056"><ele>38.33333333333333</ele><time>2026-05-02T08:59:01.537Z</time></trkpt><trkpt lat="45.5077997" lon="11.4735821"><ele>38.666666666666664</ele><time>2026-05-02T08:59:02.537Z</time></trkpt><trkpt lat="45.5077605" lon="11.473476"><ele>39.0</ele><time>2026-05-02T08:59:03.538Z</time></trkpt><trkpt lat="45.5077333" lon="11.4733915"><ele>39.333333333333336</ele><time>2026-05-02T08:59:04.538Z</time></trkpt><trkpt lat="45.5077055" lon="11.4732906"><ele>39.66666666666667</ele><time>2026-05-02T08:59:06.538Z</time></trkpt><trkpt lat="45.5076859" lon="11.4731873"><ele>40.0</ele><time>2026-05-02T08:59:10.538Z</time></trkpt><trkpt lat="45.507643" lon="11.4731211"><ele>40.0</ele><time>2026-05-02T08:59:12.539Z</time></trkpt><trkpt lat="45.5075722" lon="11.4731269"><ele>40.0</ele><time>2026-05-02T08:59:14.538Z</time></trkpt><trkpt lat="45.5074726" lon="11.4732181"><ele>40.0</ele><time>2026-05-02T08:59:16.538Z</time></trkpt><trkpt lat="45.5074078" lon="11.4732748"><ele>40.0</ele><time>2026-05-02T08:59:17.538Z</time></trkpt><trkpt lat="45.5073325" lon="11.4733347"><ele>40.0</ele><time>2026-05-02T08:59:18.538Z</time></trkpt><trkpt lat="45.5072488" lon="11.4734016"><ele>40.0</ele><time>2026-05-02T08:59:19.538Z</time></trkpt><trkpt lat="45.5071588" lon="11.4734718"><ele>40.0</ele><time>2026-05-02T08:59:20.538Z</time></trkpt><trkpt lat="45.5070601" lon="11.4735452"><ele>40.0</ele><time>2026-05-02T08:59:21.538Z</time></trkpt><trkpt lat="45.5069579" lon="11.4736194"><ele>40.0</ele><time>2026-05-02T08:59:22.539Z</time></trkpt><trkpt lat="45.5068503" lon="11.4736938"><ele>40.0</ele><time>2026-05-02T08:59:23.538Z</time></trkpt><trkpt lat="45.5067472" lon="11.4737771"><ele>39.75</ele><time>2026-05-02T08:59:24.538Z</time></trkpt><trkpt lat="45.5066437" lon="11.4738753"><ele>39.5</ele><time>2026-05-02T08:59:25.537Z</time></trkpt><trkpt lat="45.5065454" lon="11.4739775"><ele>39.25</ele><time>2026-05-02T08:59:26.538Z</time></trkpt><trkpt lat="45.5064512" lon="11.4740814"><ele>39.0</ele><time>2026-05-02T08:59:27.538Z</time></trkpt><trkpt lat="45.5063546" lon="11.4741866"><ele>39.0</ele><time>2026-05-02T08:59:28.537Z</time></trkpt><trkpt lat="45.5062576" lon="11.4742856"><ele>39.0</ele><time>2026-05-02T08:59:29.539Z</time></trkpt><trkpt lat="45.5061612" lon="11.4743879"><ele>39.0</ele><time>2026-05-02T08:59:30.538Z</time></trkpt><trkpt lat="45.5060699" lon="11.4745002"><ele>39.0</ele><time>2026-05-02T08:59:31.537Z</time></trkpt><trkpt lat="45.5059935" lon="11.4746277"><ele>38.25</ele><time>2026-05-02T08:59:32.538Z</time></trkpt><trkpt lat="45.5059268" lon="11.4747693"><ele>37.5</ele><time>2026-05-02T08:59:33.539Z</time></trkpt><trkpt lat="45.5058676" lon="11.4749018"><ele>36.75</ele><time>2026-05-02T08:59:34.538Z</time></trkpt><trkpt lat="45.5058044" lon="11.4750413"><ele>36.0</ele><time>2026-05-02T08:59:35.538Z</time></trkpt><trkpt lat="45.5057305" lon="11.4751693"><ele>36.0</ele><time>2026-05-02T08:59:36.538Z</time></trkpt><trkpt lat="45.5056466" lon="11.4752937"><ele>36.0</ele><time>2026-05-02T08:59:37.537Z</time></trkpt><trkpt lat="45.505547" lon="11.4754011"><ele>36.0</ele><time>2026-05-02T08:59:38.538Z</time></trkpt><trkpt lat="45.5054333" lon="11.4754922"><ele>36.0</ele><time>2026-05-02T08:59:39.538Z</time></trkpt><trkpt lat="45.5053127" lon="11.4755719"><ele>36.75</ele><time>2026-05-02T08:59:40.539Z</time></trkpt><trkpt lat="45.5051948" lon="11.4756597"><ele>37.5</ele><time>2026-05-02T08:59:41.537Z</time></trkpt><trkpt lat="45.5050747" lon="11.4757431"><ele>38.25</ele><time>2026-05-02T08:59:42.538Z</time></trkpt><trkpt lat="45.5049521" lon="11.4758142"><ele>39.0</ele><time>2026-05-02T08:59:43.538Z</time></trkpt><trkpt lat="45.5048258" lon="11.4758838"><ele>39.0</ele><time>2026-05-02T08:59:44.538Z</time></trkpt><trkpt lat="45.5046964" lon="11.4759431"><ele>39.0</ele><time>2026-05-02T08:59:45.538Z</time></trkpt><trkpt lat="45.5045654" lon="11.4759907"><ele>39.0</ele><time>2026-05-02T08:59:46.539Z</time></trkpt><trkpt lat="45.5044304" lon="11.4760308"><ele>39.0</ele><time>2026-05-02T08:59:47.538Z</time></trkpt><trkpt lat="45.5042963" lon="11.4760664"><ele>38.75</ele><time>2026-05-02T08:59:48.537Z</time></trkpt><trkpt lat="45.5041669" lon="11.4761009"><ele>38.5</ele><time>2026-05-02T08:59:49.537Z</time></trkpt><trkpt lat="45.5040399" lon="11.4761338"><ele>38.25</ele><time>2026-05-02T08:59:50.537Z</time></trkpt><trkpt lat="45.503917" lon="11.4761659"><ele>38.0</ele><time>2026-05-02T08:59:51.538Z</time></trkpt><trkpt lat="45.5037997" lon="11.476196"><ele>37.75</ele><time>2026-05-02T08:59:52.539Z</time></trkpt><trkpt lat="45.5036835" lon="11.4762232"><ele>37.5</ele><time>2026-05-02T08:59:53.538Z</time></trkpt><trkpt lat="45.5035651" lon="11.4762485"><ele>37.25</ele><time>2026-05-02T08:59:54.54Z</time></trkpt><trkpt lat="45.5034475" lon="11.476274"><ele>37.0</ele><time>2026-05-02T08:59:55.539Z</time></trkpt><trkpt lat="45.5033262" lon="11.4763054"><ele>37.75</ele><time>2026-05-02T08:59:56.539Z</time></trkpt><trkpt lat="45.5032005" lon="11.4763357"><ele>38.5</ele><time>2026-05-02T08:59:57.538Z</time></trkpt><trkpt lat="45.5030692" lon="11.4763584"><ele>39.25</ele><time>2026-05-02T08:59:58.537Z</time></trkpt><trkpt lat="45.5029352" lon="11.4763832"><ele>40.0</ele><time>2026-05-02T08:59:59.538Z</time></trkpt><trkpt lat="45.5028034" lon="11.4764097"><ele>42.75</ele><time>2026-05-02T09:00:00.538Z</time></trkpt><trkpt lat="45.5026717" lon="11.4764471"><ele>45.5</ele><time>2026-05-02T09:00:01.538Z</time></trkpt><trkpt lat="45.5025416" lon="11.4764845"><ele>48.25</ele><time>2026-05-02T09:00:02.539Z</time></trkpt><trkpt lat="45.5024141" lon="11.4765126"><ele>51.0</ele><time>2026-05-02T09:00:03.538Z</time></trkpt><trkpt lat="45.5022807" lon="11.4765293"><ele>51.0</ele><time>2026-05-02T09:00:04.538Z</time></trkpt><trkpt lat="45.5021562" lon="11.4765132"><ele>51.0</ele><time>2026-05-02T09:00:05.538Z</time></trkpt><trkpt lat="45.5020271" lon="11.4764638"><ele>51.0</ele><time>2026-05-02T09:00:06.538Z</time></trkpt><trkpt lat="45.5019005" lon="11.4764125"><ele>51.0</ele><time>2026-05-02T09:00:07.539Z</time></trkpt><trkpt lat="45.501776" lon="11.476359"><ele>49.5</ele><time>2026-05-02T09:00:08.538Z</time></trkpt><trkpt lat="45.5016509" lon="11.4763091"><ele>48.0</ele><time>2026-05-02T09:00:09.538Z</time></trkpt><trkpt lat="45.5015311" lon="11.4762644"><ele>46.5</ele><time>2026-05-02T09:00:10.538Z</time></trkpt><trkpt lat="45.5014286" lon="11.4762"><ele>45.0</ele><time>2026-05-02T09:00:11.538Z</time></trkpt><trkpt lat="45.5013441" lon="11.4761352"><ele>45.0</ele><time>2026-05-02T09:00:12.539Z</time></trkpt><trkpt lat="45.5012805" lon="11.4760834"><ele>45.0</ele><time>2026-05-02T09:00:13.538Z</time></trkpt><trkpt lat="45.5011744" lon="11.4760469"><ele>45.0</ele><time>2026-05-02T09:00:15.538Z</time></trkpt><trkpt lat="45.501115" lon="11.4761655"><ele>45.0</ele><time>2026-05-02T09:00:17.538Z</time></trkpt><trkpt lat="45.5011223" lon="11.4762582"><ele>45.0</ele><time>2026-05-02T09:00:18.538Z</time></trkpt><trkpt lat="45.5011288" lon="11.4763697"><ele>45.0</ele><time>2026-05-02T09:00:19.539Z</time></trkpt><trkpt lat="45.5011303" lon="11.476492"><ele>48.0</ele><time>2026-05-02T09:00:20.537Z</time></trkpt><trkpt lat="45.5011198" lon="11.4766249"><ele>51.0</ele><time>2026-05-02T09:00:21.538Z</time></trkpt><trkpt lat="45.5010883" lon="11.4767642"><ele>54.0</ele><time>2026-05-02T09:00:22.539Z</time></trkpt><trkpt lat="45.5010415" lon="11.4768944"><ele>57.0</ele><time>2026-05-02T09:00:23.538Z</time></trkpt><trkpt lat="45.5009931" lon="11.4770036"><ele>60.0</ele><time>2026-05-02T09:00:24.538Z</time></trkpt><trkpt lat="45.5009567" lon="11.4770864"><ele>60.5</ele><time>2026-05-02T09:00:25.537Z</time></trkpt><trkpt lat="45.5009029" lon="11.4772221"><ele>61.0</ele><time>2026-05-02T09:00:27.538Z</time></trkpt><trkpt lat="45.5008651" lon="11.4772984"><ele>61.5</ele><time>2026-05-02T09:00:28.538Z</time></trkpt><trkpt lat="45.5008161" lon="11.4773787"><ele>62.0</ele><time>2026-05-02T09:00:29.539Z</time></trkpt><trkpt lat="45.5007526" lon="11.4774652"><ele>62.5</ele><time>2026-05-02T09:00:30.538Z</time></trkpt><trkpt lat="45.500677" lon="11.4775428"><ele>63.0</ele><time>2026-05-02T09:00:31.539Z</time></trkpt><trkpt lat="45.5005934" lon="11.4776087"><ele>63.0</ele><time>2026-05-02T09:00:32.539Z</time></trkpt><trkpt lat="45.5005154" lon="11.4776758"><ele>63.0</ele><time>2026-05-02T09:00:33.537Z</time></trkpt><trkpt lat="45.5004529" lon="11.4777594"><ele>63.0</ele><time>2026-05-02T09:00:34.538Z</time></trkpt><trkpt lat="45.5004115" lon="11.4778618"><ele>63.0</ele><time>2026-05-02T09:00:35.538Z</time></trkpt><trkpt lat="45.5003954" lon="11.4779745"><ele>63.0</ele><time>2026-05-02T09:00:36.537Z</time></trkpt><trkpt lat="45.5004056" lon="11.4781035"><ele>63.0</ele><time>2026-05-02T09:00:37.539Z</time></trkpt><trkpt lat="45.500421" lon="11.478241"><ele>64.2</ele><time>2026-05-02T09:00:38.538Z</time></trkpt><trkpt lat="45.5004349" lon="11.4783885"><ele>65.4</ele><time>2026-05-02T09:00:39.538Z</time></trkpt><trkpt lat="45.5004574" lon="11.4785334"><ele>66.60000000000001</ele><time>2026-05-02T09:00:40.537Z</time></trkpt><trkpt lat="45.5004917" lon="11.4786705"><ele>67.8</ele><time>2026-05-02T09:00:41.537Z</time></trkpt><trkpt lat="45.5005188" lon="11.4788075"><ele>69.0</ele><time>2026-05-02T09:00:42.538Z</time></trkpt><trkpt lat="45.5005311" lon="11.4789493"><ele>69.4</ele><time>2026-05-02T09:00:43.538Z</time></trkpt><trkpt lat="45.5005302" lon="11.4790826"><ele>69.80000000000001</ele><time>2026-05-02T09:00:44.538Z</time></trkpt><trkpt lat="45.5005154" lon="11.479214"><ele>70.19999999999999</ele><time>2026-05-02T09:00:45.539Z</time></trkpt><trkpt lat="45.5004896" lon="11.4793511"><ele>70.6</ele><time>2026-05-02T09:00:46.538Z</time></trkpt><trkpt lat="45.5004714" lon="11.4795138"><ele>71.0</ele><time>2026-05-02T09:00:47.539Z</time></trkpt><trkpt lat="45.5004602" lon="11.479686"><ele>71.39999999999999</ele><time>2026-05-02T09:00:48.538Z</time></trkpt><trkpt lat="45.5004473" lon="11.4798523"><ele>71.8</ele><time>2026-05-02T09:00:49.538Z</time></trkpt><trkpt lat="45.5004134" lon="11.4800067"><ele>72.19999999999999</ele><time>2026-05-02T09:00:50.538Z</time></trkpt><trkpt lat="45.5003815" lon="11.4801529"><ele>72.6</ele><time>2026-05-02T09:00:51.538Z</time></trkpt><trkpt lat="45.5003643" lon="11.4802882"><ele>73.0</ele><time>2026-05-02T09:00:52.538Z</time></trkpt><trkpt lat="45.5003637" lon="11.4804334"><ele>83.25</ele><time>2026-05-02T09:00:53.538Z</time></trkpt><trkpt lat="45.5003661" lon="11.4805858"><ele>93.5</ele><time>2026-05-02T09:00:54.537Z</time></trkpt><trkpt lat="45.5003691" lon="11.4807509"><ele>103.75</ele><time>2026-05-02T09:00:55.539Z</time></trkpt><trkpt lat="45.5003605" lon="11.4809236"><ele>114.0</ele><time>2026-05-02T09:00:56.538Z</time></trkpt><trkpt lat="45.5003547" lon="11.481099"><ele>114.0</ele><time>2026-05-02T09:00:57.538Z</time></trkpt><trkpt lat="45.5003495" lon="11.4812635"><ele>114.0</ele><time>2026-05-02T09:00:58.539Z</time></trkpt><trkpt lat="45.5003581" lon="11.4814275"><ele>114.0</ele><time>2026-05-02T09:00:59.539Z</time></trkpt><trkpt lat="45.5003903" lon="11.4815811"><ele>114.0</ele><time>2026-05-02T09:01:00.539Z</time></trkpt><trkpt lat="45.5004252" lon="11.4817321"><ele>114.80000000000001</ele><time>2026-05-02T09:01:01.538Z</time></trkpt><trkpt lat="45.5004379" lon="11.4818844"><ele>115.60000000000001</ele><time>2026-05-02T09:01:02.539Z</time></trkpt><trkpt lat="45.5004401" lon="11.4820272"><ele>116.4</ele><time>2026-05-02T09:01:03.538Z</time></trkpt><trkpt lat="45.5004398" lon="11.482149"><ele>117.2</ele><time>2026-05-02T09:01:04.538Z</time></trkpt><trkpt lat="45.500436" lon="11.4822485"><ele>118.0</ele><time>2026-05-02T09:01:05.538Z</time></trkpt><trkpt lat="45.5003856" lon="11.4823924"><ele>118.00000000000001</ele><time>2026-05-02T09:01:07.537Z</time></trkpt><trkpt lat="45.5002826" lon="11.4824703"><ele>118.0</ele><time>2026-05-02T09:01:09.539Z</time></trkpt><trkpt lat="45.5002083" lon="11.4824725"><ele>118.0</ele><time>2026-05-02T09:01:10.538Z</time></trkpt><trkpt lat="45.5001268" lon="11.4824728"><ele>118.0</ele><time>2026-05-02T09:01:11.538Z</time></trkpt><trkpt lat="45.5000396" lon="11.4824743"><ele>118.00000000000001</ele><time>2026-05-02T09:01:12.537Z</time></trkpt><trkpt lat="45.4999645" lon="11.4824589"><ele>118.0</ele><time>2026-05-02T09:01:13.538Z</time></trkpt><trkpt lat="45.4999014" lon="11.4824257"><ele>118.0</ele><time>2026-05-02T09:01:14.538Z</time></trkpt><trkpt lat="45.4997889" lon="11.4823777"><ele>118.00000000000001</ele><time>2026-05-02T09:01:16.538Z</time></trkpt><trkpt lat="45.4996869" lon="11.4824518"><ele>118.00000000000001</ele><time>2026-05-02T09:01:18.538Z</time></trkpt><trkpt lat="45.4996568" lon="11.4825509"><ele>118.0</ele><time>2026-05-02T09:01:19.538Z</time></trkpt><trkpt lat="45.499601" lon="11.4826081"><ele>118.0</ele><time>2026-05-02T09:01:20.538Z</time></trkpt><trkpt lat="45.4995285" lon="11.4826546"><ele>121.00000000000001</ele><time>2026-05-02T09:01:21.537Z</time></trkpt><trkpt lat="45.4994447" lon="11.482675"><ele>124.0</ele><time>2026-05-02T09:01:22.538Z</time></trkpt><trkpt lat="45.4993666" lon="11.4826762"><ele>127.0</ele><time>2026-05-02T09:01:23.539Z</time></trkpt><trkpt lat="45.4992592" lon="11.4826202"><ele>130.0</ele><time>2026-05-02T09:01:25.538Z</time></trkpt><trkpt lat="45.4992068" lon="11.4825645"><ele>133.0</ele><time>2026-05-02T09:01:26.538Z</time></trkpt><trkpt lat="45.4991458" lon="11.4825103"><ele>136.0</ele><time>2026-05-02T09:01:27.539Z</time></trkpt><trkpt lat="45.4990825" lon="11.4824483"><ele>136.0</ele><time>2026-05-02T09:01:28.538Z</time></trkpt><trkpt lat="45.4990419" lon="11.4823559"><ele>136.0</ele><time>2026-05-02T09:01:29.537Z</time></trkpt><trkpt lat="45.4990206" lon="11.4822437"><ele>136.0</ele><time>2026-05-02T09:01:30.537Z</time></trkpt><trkpt lat="45.4990014" lon="11.4821144"><ele>136.0</ele><time>2026-05-02T09:01:31.538Z</time></trkpt><trkpt lat="45.4989775" lon="11.4819808"><ele>136.0</ele><time>2026-05-02T09:01:32.538Z</time></trkpt><trkpt lat="45.4989513" lon="11.4818457"><ele>136.0</ele><time>2026-05-02T09:01:33.538Z</time></trkpt><trkpt lat="45.4989301" lon="11.4817178"><ele>136.0</ele><time>2026-05-02T09:01:34.539Z</time></trkpt><trkpt lat="45.498911" lon="11.4816011"><ele>136.0</ele><time>2026-05-02T09:01:35.539Z</time></trkpt><trkpt lat="45.4988902" lon="11.4814876"><ele>136.0</ele><time>2026-05-02T09:01:36.537Z</time></trkpt><trkpt lat="45.498857" lon="11.4813765"><ele>136.0</ele><time>2026-05-02T09:01:37.538Z</time></trkpt><trkpt lat="45.4988051" lon="11.4812765"><ele>136.0</ele><time>2026-05-02T09:01:38.539Z</time></trkpt><trkpt lat="45.4987444" lon="11.4811852"><ele>136.0</ele><time>2026-05-02T09:01:39.537Z</time></trkpt><trkpt lat="45.4986837" lon="11.4811049"><ele>139.0</ele><time>2026-05-02T09:01:40.538Z</time></trkpt><trkpt lat="45.4986241" lon="11.4810406"><ele>142.0</ele><time>2026-05-02T09:01:41.539Z</time></trkpt><trkpt lat="45.4985689" lon="11.4809788"><ele>145.0</ele><time>2026-05-02T09:01:42.538Z</time></trkpt><trkpt lat="45.4985173" lon="11.4809067"><ele>148.0</ele><time>2026-05-02T09:01:43.539Z</time></trkpt><trkpt lat="45.4984651" lon="11.4808253"><ele>151.0</ele><time>2026-05-02T09:01:44.538Z</time></trkpt><trkpt lat="45.4984056" lon="11.4807384"><ele>154.0</ele><time>2026-05-02T09:01:45.539Z</time></trkpt><trkpt lat="45.49835" lon="11.4806308"><ele>154.0</ele><time>2026-05-02T09:01:46.539Z</time></trkpt><trkpt lat="45.4982964" lon="11.4805062"><ele>154.0</ele><time>2026-05-02T09:01:47.538Z</time></trkpt><trkpt lat="45.4982318" lon="11.4803728"><ele>154.0</ele><time>2026-05-02T09:01:48.538Z</time></trkpt><trkpt lat="45.4981688" lon="11.480226"><ele>154.0</ele><time>2026-05-02T09:01:49.538Z</time></trkpt><trkpt lat="45.4981114" lon="11.4800712"><ele>153.2</ele><time>2026-05-02T09:01:50.538Z</time></trkpt><trkpt lat="45.4980479" lon="11.4799212"><ele>152.4</ele><time>2026-05-02T09:01:51.539Z</time></trkpt><trkpt lat="45.4979723" lon="11.4798"><ele>151.6</ele><time>2026-05-02T09:01:52.538Z</time></trkpt><trkpt lat="45.4978901" lon="11.479707"><ele>150.8</ele><time>2026-05-02T09:01:53.538Z</time></trkpt><trkpt lat="45.4977987" lon="11.4796531"><ele>150.0</ele><time>2026-05-02T09:01:54.538Z</time></trkpt><trkpt lat="45.4977005" lon="11.4796387"><ele>152.4</ele><time>2026-05-02T09:01:55.539Z</time></trkpt><trkpt lat="45.4976022" lon="11.4796536"><ele>154.8</ele><time>2026-05-02T09:01:56.537Z</time></trkpt><trkpt lat="45.4975085" lon="11.4796814"><ele>157.2</ele><time>2026-05-02T09:01:57.539Z</time></trkpt><trkpt lat="45.4974171" lon="11.4797227"><ele>159.6</ele><time>2026-05-02T09:01:58.538Z</time></trkpt><trkpt lat="45.4973326" lon="11.4797782"><ele>162.0</ele><time>2026-05-02T09:01:59.538Z</time></trkpt><trkpt lat="45.4972479" lon="11.4798255"><ele>162.0</ele><time>2026-05-02T09:02:00.538Z</time></trkpt><trkpt lat="45.4971779" lon="11.4799108"><ele>162.0</ele><time>2026-05-02T09:02:01.538Z</time></trkpt><trkpt lat="45.497117" lon="11.4800068"><ele>162.0</ele><time>2026-05-02T09:02:02.538Z</time></trkpt><trkpt lat="45.4970727" lon="11.4801034"><ele>162.0</ele><time>2026-05-02T09:02:03.537Z</time></trkpt><trkpt lat="45.4970474" lon="11.4801982"><ele>162.0</ele><time>2026-05-02T09:02:04.539Z</time></trkpt><trkpt lat="45.4970402" lon="11.4803085"><ele>162.0</ele><time>2026-05-02T09:02:05.539Z</time></trkpt><trkpt lat="45.4970467" lon="11.4804256"><ele>162.83333333333334</ele><time>2026-05-02T09:02:06.539Z</time></trkpt><trkpt lat="45.4970537" lon="11.4805517"><ele>163.66666666666666</ele><time>2026-05-02T09:02:07.538Z</time></trkpt><trkpt lat="45.4970608" lon="11.4806777"><ele>164.5</ele><time>2026-05-02T09:02:08.539Z</time></trkpt><trkpt lat="45.4970721" lon="11.4807983"><ele>165.33333333333331</ele><time>2026-05-02T09:02:09.538Z</time></trkpt><trkpt lat="45.4970845" lon="11.480909"><ele>166.16666666666666</ele><time>2026-05-02T09:02:10.538Z</time></trkpt><trkpt lat="45.4970891" lon="11.4810105"><ele>167.0</ele><time>2026-05-02T09:02:11.539Z</time></trkpt><trkpt lat="45.4970944" lon="11.4811147"><ele>167.0</ele><time>2026-05-02T09:02:12.537Z</time></trkpt><trkpt lat="45.4970907" lon="11.4812265"><ele>167.0</ele><time>2026-05-02T09:02:13.537Z</time></trkpt><trkpt lat="45.4970928" lon="11.4813485"><ele>167.0</ele><time>2026-05-02T09:02:14.538Z</time></trkpt><trkpt lat="45.4971014" lon="11.4814807"><ele>167.0</ele><time>2026-05-02T09:02:15.538Z</time></trkpt><trkpt lat="45.4971049" lon="11.4816264"><ele>167.0</ele><time>2026-05-02T09:02:16.538Z</time></trkpt><trkpt lat="45.4971034" lon="11.4817789"><ele>167.25</ele><time>2026-05-02T09:02:17.538Z</time></trkpt><trkpt lat="45.4970875" lon="11.481942"><ele>167.5</ele><time>2026-05-02T09:02:18.538Z</time></trkpt><trkpt lat="45.497061" lon="11.4821119"><ele>167.75</ele><time>2026-05-02T09:02:19.538Z</time></trkpt><trkpt lat="45.4970298" lon="11.482279"><ele>168.0</ele><time>2026-05-02T09:02:20.538Z</time></trkpt><trkpt lat="45.4969969" lon="11.4824412"><ele>167.8</ele><time>2026-05-02T09:02:21.539Z</time></trkpt><trkpt lat="45.4969653" lon="11.4825944"><ele>167.60000000000002</ele><time>2026-05-02T09:02:22.539Z</time></trkpt><trkpt lat="45.4969356" lon="11.4827399"><ele>167.39999999999998</ele><time>2026-05-02T09:02:23.538Z</time></trkpt><trkpt lat="45.4969083" lon="11.4828766"><ele>167.2</ele><time>2026-05-02T09:02:24.539Z</time></trkpt><trkpt lat="45.4968794" lon="11.4830032"><ele>167.0</ele><time>2026-05-02T09:02:25.538Z</time></trkpt><trkpt lat="45.4968512" lon="11.4831289"><ele>167.0</ele><time>2026-05-02T09:02:26.539Z</time></trkpt><trkpt lat="45.4968159" lon="11.4832591"><ele>167.0</ele><time>2026-05-02T09:02:27.538Z</time></trkpt><trkpt lat="45.4967732" lon="11.4833908"><ele>167.0</ele><time>2026-05-02T09:02:28.538Z</time></trkpt><trkpt lat="45.4967169" lon="11.4835278"><ele>167.0</ele><time>2026-05-02T09:02:29.538Z</time></trkpt><trkpt lat="45.4966453" lon="11.4836673"><ele>167.0</ele><time>2026-05-02T09:02:30.539Z</time></trkpt><trkpt lat="45.4965615" lon="11.4838047"><ele>165.25</ele><time>2026-05-02T09:02:31.538Z</time></trkpt><trkpt lat="45.4964674" lon="11.483932"><ele>163.5</ele><time>2026-05-02T09:02:32.538Z</time></trkpt><trkpt lat="45.496366" lon="11.4840489"><ele>161.75</ele><time>2026-05-02T09:02:33.538Z</time></trkpt><trkpt lat="45.4962633" lon="11.4841618"><ele>160.0</ele><time>2026-05-02T09:02:34.538Z</time></trkpt><trkpt lat="45.4961622" lon="11.4842693"><ele>160.0</ele><time>2026-05-02T09:02:35.538Z</time></trkpt><trkpt lat="45.4960575" lon="11.4843764"><ele>160.0</ele><time>2026-05-02T09:02:36.539Z</time></trkpt><trkpt lat="45.4959577" lon="11.4844829"><ele>160.0</ele><time>2026-05-02T09:02:37.538Z</time></trkpt><trkpt lat="45.4958646" lon="11.4845905"><ele>160.0</ele><time>2026-05-02T09:02:38.537Z</time></trkpt><trkpt lat="45.4957726" lon="11.4847011"><ele>159.75</ele><time>2026-05-02T09:02:39.537Z</time></trkpt><trkpt lat="45.4956904" lon="11.4848295"><ele>159.5</ele><time>2026-05-02T09:02:40.538Z</time></trkpt><trkpt lat="45.4956231" lon="11.4849833"><ele>159.25</ele><time>2026-05-02T09:02:41.538Z</time></trkpt><trkpt lat="45.4955794" lon="11.4851584"><ele>159.0</ele><time>2026-05-02T09:02:42.538Z</time></trkpt><trkpt lat="45.4955605" lon="11.4853489"><ele>158.0</ele><time>2026-05-02T09:02:43.539Z</time></trkpt><trkpt lat="45.4955698" lon="11.485547"><ele>157.0</ele><time>2026-05-02T09:02:44.538Z</time></trkpt><trkpt lat="45.495604" lon="11.4857479"><ele>156.0</ele><time>2026-05-02T09:02:45.538Z</time></trkpt><trkpt lat="45.4956533" lon="11.4859474"><ele>155.0</ele><time>2026-05-02T09:02:46.537Z</time></trkpt><trkpt lat="45.4957095" lon="11.486139"><ele>155.5</ele><time>2026-05-02T09:02:47.537Z</time></trkpt><trkpt lat="45.4957671" lon="11.4863166"><ele>156.0</ele><time>2026-05-02T09:02:48.539Z</time></trkpt><trkpt lat="45.4958227" lon="11.4864824"><ele>156.5</ele><time>2026-05-02T09:02:49.539Z</time></trkpt><trkpt lat="45.4958769" lon="11.4866375"><ele>157.0</ele><time>2026-05-02T09:02:50.538Z</time></trkpt><trkpt lat="45.4959305" lon="11.4867942"><ele>157.0</ele><time>2026-05-02T09:02:51.538Z</time></trkpt><trkpt lat="45.4959831" lon="11.486957"><ele>157.0</ele><time>2026-05-02T09:02:52.537Z</time></trkpt><trkpt lat="45.4960285" lon="11.4871249"><ele>157.0</ele><time>2026-05-02T09:02:53.539Z</time></trkpt><trkpt lat="45.4960645" lon="11.4872933"><ele>157.0</ele><time>2026-05-02T09:02:54.538Z</time></trkpt><trkpt lat="45.4960983" lon="11.4874683"><ele>156.5</ele><time>2026-05-02T09:02:55.538Z</time></trkpt><trkpt lat="45.4961338" lon="11.4876416"><ele>156.0</ele><time>2026-05-02T09:02:56.538Z</time></trkpt><trkpt lat="45.4961712" lon="11.4878107"><ele>155.5</ele><time>2026-05-02T09:02:57.539Z</time></trkpt><trkpt lat="45.4962071" lon="11.4879728"><ele>155.0</ele><time>2026-05-02T09:02:58.538Z</time></trkpt><trkpt lat="45.4962387" lon="11.4881287"><ele>154.4</ele><time>2026-05-02T09:02:59.538Z</time></trkpt><trkpt lat="45.4962682" lon="11.4882755"><ele>153.8</ele><time>2026-05-02T09:03:00.538Z</time></trkpt><trkpt lat="45.4962933" lon="11.4884106"><ele>153.2</ele><time>2026-05-02T09:03:01.538Z</time></trkpt><trkpt lat="45.496319" lon="11.488543"><ele>152.6</ele><time>2026-05-02T09:03:02.537Z</time></trkpt><trkpt lat="45.4963453" lon="11.4886687"><ele>152.0</ele><time>2026-05-02T09:03:03.538Z</time></trkpt><trkpt lat="45.496371" lon="11.488792"><ele>150.79999999999998</ele><time>2026-05-02T09:03:04.538Z</time></trkpt><trkpt lat="45.4963979" lon="11.4889135"><ele>149.6</ele><time>2026-05-02T09:03:05.537Z</time></trkpt><trkpt lat="45.4964235" lon="11.4890353"><ele>148.39999999999998</ele><time>2026-05-02T09:03:06.538Z</time></trkpt><trkpt lat="45.4964621" lon="11.4891608"><ele>147.2</ele><time>2026-05-02T09:03:07.538Z</time></trkpt><trkpt lat="45.4965207" lon="11.4892754"><ele>146.0</ele><time>2026-05-02T09:03:08.538Z</time></trkpt><trkpt lat="45.4966041" lon="11.4893661"><ele>146.0</ele><time>2026-05-02T09:03:09.539Z</time></trkpt><trkpt lat="45.496703" lon="11.4894233"><ele>146.0</ele><time>2026-05-02T09:03:10.539Z</time></trkpt><trkpt lat="45.4968134" lon="11.4894424"><ele>146.0</ele><time>2026-05-02T09:03:11.538Z</time></trkpt><trkpt lat="45.4969248" lon="11.4894394"><ele>146.0</ele><time>2026-05-02T09:03:12.538Z</time></trkpt><trkpt lat="45.4970432" lon="11.4894263"><ele>146.0</ele><time>2026-05-02T09:03:13.538Z</time></trkpt><trkpt lat="45.4971635" lon="11.4894125"><ele>146.25</ele><time>2026-05-02T09:03:14.538Z</time></trkpt><trkpt lat="45.4972832" lon="11.4893936"><ele>146.5</ele><time>2026-05-02T09:03:15.539Z</time></trkpt><trkpt lat="45.4974021" lon="11.4893737"><ele>146.75</ele><time>2026-05-02T09:03:16.538Z</time></trkpt><trkpt lat="45.4975194" lon="11.4893503"><ele>147.0</ele><time>2026-05-02T09:03:17.538Z</time></trkpt><trkpt lat="45.4976315" lon="11.4893328"><ele>147.0</ele><time>2026-05-02T09:03:18.537Z</time></trkpt><trkpt lat="45.4977406" lon="11.4893194"><ele>147.0</ele><time>2026-05-02T09:03:19.539Z</time></trkpt><trkpt lat="45.4978476" lon="11.4893056"><ele>147.0</ele><time>2026-05-02T09:03:20.538Z</time></trkpt><trkpt lat="45.4979574" lon="11.4892867"><ele>147.0</ele><time>2026-05-02T09:03:21.538Z</time></trkpt><trkpt lat="45.4980699" lon="11.4892615"><ele>147.0</ele><time>2026-05-02T09:03:22.538Z</time></trkpt><trkpt lat="45.4981853" lon="11.4892368"><ele>144.0</ele><time>2026-05-02T09:03:23.537Z</time></trkpt><trkpt lat="45.4983017" lon="11.4892139"><ele>141.0</ele><time>2026-05-02T09:03:24.538Z</time></trkpt><trkpt lat="45.4984196" lon="11.4891887"><ele>138.0</ele><time>2026-05-02T09:03:25.538Z</time></trkpt><trkpt lat="45.4985307" lon="11.4891655"><ele>135.0</ele><time>2026-05-02T09:03:26.538Z</time></trkpt><trkpt lat="45.498634" lon="11.4891514"><ele>135.0</ele><time>2026-05-02T09:03:27.538Z</time></trkpt><trkpt lat="45.4987408" lon="11.4891518"><ele>135.0</ele><time>2026-05-02T09:03:28.539Z</time></trkpt><trkpt lat="45.4988512" lon="11.4891648"><ele>135.0</ele><time>2026-05-02T09:03:29.537Z</time></trkpt><trkpt lat="45.4989649" lon="11.4891947"><ele>135.0</ele><time>2026-05-02T09:03:30.538Z</time></trkpt><trkpt lat="45.4990771" lon="11.4892454"><ele>133.25</ele><time>2026-05-02T09:03:31.539Z</time></trkpt><trkpt lat="45.4991857" lon="11.4893119"><ele>131.5</ele><time>2026-05-02T09:03:32.538Z</time></trkpt><trkpt lat="45.4992949" lon="11.4893867"><ele>129.75</ele><time>2026-05-02T09:03:33.538Z</time></trkpt><trkpt lat="45.4994048" lon="11.4894541"><ele>128.0</ele><time>2026-05-02T09:03:34.538Z</time></trkpt><trkpt lat="45.4995194" lon="11.4895093"><ele>126.75</ele><time>2026-05-02T09:03:35.539Z</time></trkpt><trkpt lat="45.4996406" lon="11.489549"><ele>125.5</ele><time>2026-05-02T09:03:36.538Z</time></trkpt><trkpt lat="45.4997643" lon="11.4895706"><ele>124.25</ele><time>2026-05-02T09:03:37.539Z</time></trkpt><trkpt lat="45.499887" lon="11.4895883"><ele>123.0</ele><time>2026-05-02T09:03:38.537Z</time></trkpt><trkpt lat="45.5000128" lon="11.4896111"><ele>123.0</ele><time>2026-05-02T09:03:39.538Z</time></trkpt><trkpt lat="45.5001386" lon="11.4896389"><ele>123.0</ele><time>2026-05-02T09:03:40.538Z</time></trkpt><trkpt lat="45.5002666" lon="11.4896766"><ele>123.0</ele><time>2026-05-02T09:03:41.538Z</time></trkpt><trkpt lat="45.5003921" lon="11.489728"><ele>123.0</ele><time>2026-05-02T09:03:42.539Z</time></trkpt><trkpt lat="45.5005075" lon="11.4898007"><ele>123.80000000000001</ele><time>2026-05-02T09:03:43.539Z</time></trkpt><trkpt lat="45.5006147" lon="11.4898915"><ele>124.60000000000001</ele><time>2026-05-02T09:03:44.538Z</time></trkpt><trkpt lat="45.5007137" lon="11.4899836"><ele>125.39999999999999</ele><time>2026-05-02T09:03:45.539Z</time></trkpt><trkpt lat="45.5007999" lon="11.4900752"><ele>126.19999999999999</ele><time>2026-05-02T09:03:46.538Z</time></trkpt><trkpt lat="45.5008692" lon="11.4901704"><ele>127.0</ele><time>2026-05-02T09:03:47.538Z</time></trkpt><trkpt lat="45.5009255" lon="11.4902652"><ele>127.0</ele><time>2026-05-02T09:03:48.539Z</time></trkpt><trkpt lat="45.5009682" lon="11.4903516"><ele>127.0</ele><time>2026-05-02T09:03:49.538Z</time></trkpt><trkpt lat="45.5010022" lon="11.4904366"><ele>127.0</ele><time>2026-05-02T09:03:50.538Z</time></trkpt><trkpt lat="45.5010251" lon="11.4905289"><ele>127.0</ele><time>2026-05-02T09:03:51.538Z</time></trkpt><trkpt lat="45.5010449" lon="11.4906296"><ele>127.0</ele><time>2026-05-02T09:03:52.538Z</time></trkpt><trkpt lat="45.5010575" lon="11.4907388"><ele>127.0</ele><time>2026-05-02T09:03:53.538Z</time></trkpt><trkpt lat="45.5010753" lon="11.4908537"><ele>127.0</ele><time>2026-05-02T09:03:54.539Z</time></trkpt><trkpt lat="45.501108" lon="11.4909747"><ele>127.0</ele><time>2026-05-02T09:03:55.539Z</time></trkpt><trkpt lat="45.5011559" lon="11.4911013"><ele>126.99999999999999</ele><time>2026-05-02T09:03:56.538Z</time></trkpt><trkpt lat="45.5012194" lon="11.4912255"><ele>126.99999999999999</ele><time>2026-05-02T09:03:57.537Z</time></trkpt><trkpt lat="45.5012925" lon="11.4913505"><ele>127.0</ele><time>2026-05-02T09:03:58.539Z</time></trkpt><trkpt lat="45.501373" lon="11.4914687"><ele>127.0</ele><time>2026-05-02T09:03:59.539Z</time></trkpt><trkpt lat="45.5014524" lon="11.491577"><ele>128.5</ele><time>2026-05-02T09:04:00.538Z</time></trkpt><trkpt lat="45.501532" lon="11.4916672"><ele>130.0</ele><time>2026-05-02T09:04:01.539Z</time></trkpt><trkpt lat="45.501612" lon="11.4917349"><ele>131.5</ele><time>2026-05-02T09:04:02.539Z</time></trkpt><trkpt lat="45.5016893" lon="11.4917782"><ele>133.0</ele><time>2026-05-02T09:04:03.538Z</time></trkpt><trkpt lat="45.5017622" lon="11.4918084"><ele>134.5</ele><time>2026-05-02T09:04:04.538Z</time></trkpt><trkpt lat="45.5018268" lon="11.4918321"><ele>136.0</ele><time>2026-05-02T09:04:05.538Z</time></trkpt><trkpt lat="45.5019158" lon="11.4919003"><ele>136.0</ele><time>2026-05-02T09:04:07.537Z</time></trkpt><trkpt lat="45.5019384" lon="11.4920681"><ele>136.0</ele><time>2026-05-02T09:04:09.538Z</time></trkpt><trkpt lat="45.5019279" lon="11.4921815"><ele>136.0</ele><time>2026-05-02T09:04:10.539Z</time></trkpt><trkpt lat="45.501892" lon="11.4922904"><ele>136.0</ele><time>2026-05-02T09:04:11.538Z</time></trkpt><trkpt lat="45.5018341" lon="11.4923988"><ele>136.0</ele><time>2026-05-02T09:04:12.538Z</time></trkpt><trkpt lat="45.5017554" lon="11.4925019"><ele>133.8</ele><time>2026-05-02T09:04:13.538Z</time></trkpt><trkpt lat="45.5016713" lon="11.4925967"><ele>131.6</ele><time>2026-05-02T09:04:14.538Z</time></trkpt><trkpt lat="45.5015847" lon="11.4926881"><ele>129.4</ele><time>2026-05-02T09:04:15.539Z</time></trkpt><trkpt lat="45.501499" lon="11.4927759"><ele>127.2</ele><time>2026-05-02T09:04:16.538Z</time></trkpt><trkpt lat="45.50141" lon="11.4928675"><ele>125.0</ele><time>2026-05-02T09:04:17.539Z</time></trkpt><trkpt lat="45.5013184" lon="11.492953"><ele>121.8</ele><time>2026-05-02T09:04:18.538Z</time></trkpt><trkpt lat="45.5012373" lon="11.4930247"><ele>118.6</ele><time>2026-05-02T09:04:19.538Z</time></trkpt><trkpt lat="45.5011564" lon="11.4930912"><ele>115.4</ele><time>2026-05-02T09:04:20.538Z</time></trkpt><trkpt lat="45.5010885" lon="11.4931486"><ele>112.2</ele><time>2026-05-02T09:04:21.538Z</time></trkpt><trkpt lat="45.5010266" lon="11.4932027"><ele>109.0</ele><time>2026-05-02T09:04:22.539Z</time></trkpt><trkpt lat="45.5009423" lon="11.4933181"><ele>109.0</ele><time>2026-05-02T09:04:24.538Z</time></trkpt><trkpt lat="45.5009086" lon="11.4934753"><ele>109.0</ele><time>2026-05-02T09:04:26.538Z</time></trkpt><trkpt lat="45.5009218" lon="11.493575"><ele>109.0</ele><time>2026-05-02T09:04:27.539Z</time></trkpt><trkpt lat="45.5009447" lon="11.4936716"><ele>109.0</ele><time>2026-05-02T09:04:28.539Z</time></trkpt><trkpt lat="45.5009565" lon="11.4938242"><ele>109.0</ele><time>2026-05-02T09:04:30.538Z</time></trkpt><trkpt lat="45.5008763" lon="11.4939339"><ele>107.00000000000001</ele><time>2026-05-02T09:04:32.538Z</time></trkpt><trkpt lat="45.5008079" lon="11.4939612"><ele>105.0</ele><time>2026-05-02T09:04:33.539Z</time></trkpt><trkpt lat="45.5007292" lon="11.4939632"><ele>103.0</ele><time>2026-05-02T09:04:34.539Z</time></trkpt><trkpt lat="45.5006456" lon="11.4939479"><ele>101.0</ele><time>2026-05-02T09:04:35.539Z</time></trkpt><trkpt lat="45.5005676" lon="11.4939231"><ele>99.00000000000001</ele><time>2026-05-02T09:04:36.539Z</time></trkpt><trkpt lat="45.500487" lon="11.4938916"><ele>97.0</ele><time>2026-05-02T09:04:37.538Z</time></trkpt><trkpt lat="45.5004212" lon="11.4938457"><ele>94.16666666666667</ele><time>2026-05-02T09:04:38.538Z</time></trkpt><trkpt lat="45.5003646" lon="11.4938054"><ele>91.33333333333334</ele><time>2026-05-02T09:04:39.539Z</time></trkpt><trkpt lat="45.5003079" lon="11.4937613"><ele>88.5</ele><time>2026-05-02T09:04:40.539Z</time></trkpt><trkpt lat="45.5002631" lon="11.4936065"><ele>85.66666666666667</ele><time>2026-05-02T09:04:42.538Z</time></trkpt><trkpt lat="45.5002311" lon="11.4935092"><ele>82.83333333333334</ele><time>2026-05-02T09:04:44.538Z</time></trkpt><trkpt lat="45.5001734" lon="11.4935729"><ele>80.0</ele><time>2026-05-02T09:04:46.538Z</time></trkpt><trkpt lat="45.5001635" lon="11.4937169"><ele>78.33333333333334</ele><time>2026-05-02T09:04:48.538Z</time></trkpt><trkpt lat="45.5001705" lon="11.4938406"><ele>76.66666666666667</ele><time>2026-05-02T09:04:49.538Z</time></trkpt><trkpt lat="45.5001774" lon="11.4939723"><ele>75.0</ele><time>2026-05-02T09:04:50.539Z</time></trkpt><trkpt lat="45.5001834" lon="11.4940997"><ele>73.33333333333333</ele><time>2026-05-02T09:04:51.538Z</time></trkpt><trkpt lat="45.500199" lon="11.4942156"><ele>71.66666666666666</ele><time>2026-05-02T09:04:52.538Z</time></trkpt><trkpt lat="45.5002326" lon="11.4943253"><ele>70.0</ele><time>2026-05-02T09:04:53.538Z</time></trkpt><trkpt lat="45.5002809" lon="11.4944325"><ele>70.0</ele><time>2026-05-02T09:04:54.538Z</time></trkpt><trkpt lat="45.5003367" lon="11.4945371"><ele>70.0</ele><time>2026-05-02T09:04:55.537Z</time></trkpt><trkpt lat="45.500388" lon="11.4946338"><ele>70.0</ele><time>2026-05-02T09:04:56.538Z</time></trkpt><trkpt lat="45.5004356" lon="11.4947261"><ele>70.0</ele><time>2026-05-02T09:04:57.538Z</time></trkpt><trkpt lat="45.5004834" lon="11.4948079"><ele>70.0</ele><time>2026-05-02T09:04:58.539Z</time></trkpt><trkpt lat="45.5005519" lon="11.4949255"><ele>70.0</ele><time>2026-05-02T09:05:00.539Z</time></trkpt><trkpt lat="45.5005805" lon="11.4950127"><ele>67.6</ele><time>2026-05-02T09:05:02.538Z</time></trkpt><trkpt lat="45.5004836" lon="11.4950488"><ele>65.2</ele><time>2026-05-02T09:05:05.538Z</time></trkpt><trkpt lat="45.5004083" lon="11.4950152"><ele>62.8</ele><time>2026-05-02T09:05:06.538Z</time></trkpt><trkpt lat="45.5003163" lon="11.4949851"><ele>60.4</ele><time>2026-05-02T09:05:07.539Z</time></trkpt><trkpt lat="45.5002222" lon="11.4949571"><ele>58.0</ele><time>2026-05-02T09:05:08.538Z</time></trkpt><trkpt lat="45.5001395" lon="11.4949208"><ele>57.99999999999999</ele><time>2026-05-02T09:05:09.538Z</time></trkpt><trkpt lat="45.5000615" lon="11.4948783"><ele>58.0</ele><time>2026-05-02T09:05:10.537Z</time></trkpt><trkpt lat="45.4999907" lon="11.4948195"><ele>58.0</ele><time>2026-05-02T09:05:11.538Z</time></trkpt><trkpt lat="45.4999216" lon="11.4947543"><ele>58.0</ele><time>2026-05-02T09:05:12.538Z</time></trkpt><trkpt lat="45.4998532" lon="11.4946919"><ele>57.99999999999999</ele><time>2026-05-02T09:05:13.538Z</time></trkpt><trkpt lat="45.4997884" lon="11.4946285"><ele>58.0</ele><time>2026-05-02T09:05:14.538Z</time></trkpt><trkpt lat="45.4997395" lon="11.4945442"><ele>59.99999999999999</ele><time>2026-05-02T09:05:15.539Z</time></trkpt><trkpt lat="45.4997014" lon="11.4944434"><ele>62.0</ele><time>2026-05-02T09:05:16.537Z</time></trkpt><trkpt lat="45.4996732" lon="11.4943278"><ele>64.0</ele><time>2026-05-02T09:05:17.539Z</time></trkpt><trkpt lat="45.4996492" lon="11.4941916"><ele>66.0</ele><time>2026-05-02T09:05:18.537Z</time></trkpt><trkpt lat="45.4996214" lon="11.4940588"><ele>68.0</ele><time>2026-05-02T09:05:19.539Z</time></trkpt><trkpt lat="45.4996006" lon="11.4939478"><ele>70.0</ele><time>2026-05-02T09:05:20.539Z</time></trkpt><trkpt lat="45.4995796" lon="11.4938488"><ele>66.2</ele><time>2026-05-02T09:05:21.538Z</time></trkpt><trkpt lat="45.4995458" lon="11.4937236"><ele>62.4</ele><time>2026-05-02T09:05:23.538Z</time></trkpt><trkpt lat="45.4994623" lon="11.4936899"><ele>58.599999999999994</ele><time>2026-05-02T09:05:25.538Z</time></trkpt><trkpt lat="45.4993405" lon="11.4937651"><ele>54.8</ele><time>2026-05-02T09:05:27.538Z</time></trkpt><trkpt lat="45.4992571" lon="11.4938231"><ele>51.0</ele><time>2026-05-02T09:05:28.539Z</time></trkpt><trkpt lat="45.49916" lon="11.493881"><ele>49.25</ele><time>2026-05-02T09:05:29.538Z</time></trkpt><trkpt lat="45.4990476" lon="11.4939443"><ele>47.5</ele><time>2026-05-02T09:05:30.539Z</time></trkpt><trkpt lat="45.4989279" lon="11.4940085"><ele>45.75</ele><time>2026-05-02T09:05:31.539Z</time></trkpt><trkpt lat="45.4988007" lon="11.4940811"><ele>44.0</ele><time>2026-05-02T09:05:32.537Z</time></trkpt><trkpt lat="45.4986733" lon="11.4941577"><ele>43.25</ele><time>2026-05-02T09:05:33.538Z</time></trkpt><trkpt lat="45.4985483" lon="11.4942295"><ele>42.5</ele><time>2026-05-02T09:05:34.538Z</time></trkpt><trkpt lat="45.4984338" lon="11.4942958"><ele>41.75</ele><time>2026-05-02T09:05:35.539Z</time></trkpt><trkpt lat="45.4983286" lon="11.4943557"><ele>41.0</ele><time>2026-05-02T09:05:36.539Z</time></trkpt><trkpt lat="45.4982322" lon="11.4944119"><ele>41.0</ele><time>2026-05-02T09:05:37.538Z</time></trkpt><trkpt lat="45.4981458" lon="11.4944659"><ele>41.0</ele><time>2026-05-02T09:05:38.539Z</time></trkpt><trkpt lat="45.4980751" lon="11.494516"><ele>41.0</ele><time>2026-05-02T09:05:39.538Z</time></trkpt><trkpt lat="45.4979876" lon="11.4945929"><ele>41.0</ele><time>2026-05-02T09:05:41.538Z</time></trkpt><trkpt lat="45.4979295" lon="11.4946468"><ele>41.0</ele><time>2026-05-02T09:05:44.538Z</time></trkpt><trkpt lat="45.4979158" lon="11.4947514"><ele>41.0</ele><time>2026-05-02T09:05:58.538Z</time></trkpt><trkpt lat="45.498034" lon="11.4948183"><ele>40.0</ele><time>2026-05-02T09:06:00.538Z</time></trkpt><trkpt lat="45.4981237" lon="11.4948743"><ele>39.0</ele><time>2026-05-02T09:06:01.538Z</time></trkpt><trkpt lat="45.498231" lon="11.4949478"><ele>38.0</ele><time>2026-05-02T09:06:02.538Z</time></trkpt><trkpt lat="45.4983465" lon="11.4950338"><ele>37.0</ele><time>2026-05-02T09:06:03.538Z</time></trkpt><trkpt lat="45.4984655" lon="11.495142"><ele>37.0</ele><time>2026-05-02T09:06:04.538Z</time></trkpt><trkpt lat="45.4985708" lon="11.4952601"><ele>37.0</ele><time>2026-05-02T09:06:05.538Z</time></trkpt><trkpt lat="45.4986516" lon="11.4953914"><ele>37.0</ele><time>2026-05-02T09:06:06.538Z</time></trkpt><trkpt lat="45.4987225" lon="11.4955306"><ele>37.0</ele><time>2026-05-02T09:06:07.538Z</time></trkpt><trkpt lat="45.4987766" lon="11.4956712"><ele>37.0</ele><time>2026-05-02T09:06:08.538Z</time></trkpt><trkpt lat="45.4988227" lon="11.4958117"><ele>37.0</ele><time>2026-05-02T09:06:09.538Z</time></trkpt><trkpt lat="45.4988596" lon="11.4959585"><ele>37.0</ele><time>2026-05-02T09:06:10.538Z</time></trkpt><trkpt lat="45.4988941" lon="11.496105"><ele>37.0</ele><time>2026-05-02T09:06:11.538Z</time></trkpt><trkpt lat="45.4989283" lon="11.4962507"><ele>37.0</ele><time>2026-05-02T09:06:12.538Z</time></trkpt><trkpt lat="45.498964" lon="11.4963981"><ele>37.0</ele><time>2026-05-02T09:06:13.537Z</time></trkpt><trkpt lat="45.4990033" lon="11.4965545"><ele>37.0</ele><time>2026-05-02T09:06:14.537Z</time></trkpt><trkpt lat="45.499048" lon="11.4967148"><ele>37.0</ele><time>2026-05-02T09:06:15.538Z</time></trkpt><trkpt lat="45.4991011" lon="11.4968731"><ele>37.0</ele><time>2026-05-02T09:06:16.538Z</time></trkpt><trkpt lat="45.4991614" lon="11.4970171"><ele>37.2</ele><time>2026-05-02T09:06:17.537Z</time></trkpt><trkpt lat="45.4992231" lon="11.4971507"><ele>37.400000000000006</ele><time>2026-05-02T09:06:18.538Z</time></trkpt><trkpt lat="45.4992883" lon="11.497275"><ele>37.599999999999994</ele><time>2026-05-02T09:06:19.538Z</time></trkpt><trkpt lat="45.4993521" lon="11.4973868"><ele>37.8</ele><time>2026-05-02T09:06:20.538Z</time></trkpt><trkpt lat="45.4994133" lon="11.4974991"><ele>38.0</ele><time>2026-05-02T09:06:21.538Z</time></trkpt><trkpt lat="45.4994758" lon="11.4976153"><ele>38.0</ele><time>2026-05-02T09:06:22.538Z</time></trkpt><trkpt lat="45.4995413" lon="11.497732"><ele>38.0</ele><time>2026-05-02T09:06:23.538Z</time></trkpt><trkpt lat="45.4996146" lon="11.4978472"><ele>38.0</ele><time>2026-05-02T09:06:24.537Z</time></trkpt><trkpt lat="45.4996935" lon="11.4979628"><ele>38.0</ele><time>2026-05-02T09:06:25.538Z</time></trkpt><trkpt lat="45.4997758" lon="11.4980816"><ele>38.0</ele><time>2026-05-02T09:06:26.538Z</time></trkpt><trkpt lat="45.499865" lon="11.4981954"><ele>38.5</ele><time>2026-05-02T09:06:27.539Z</time></trkpt><trkpt lat="45.4999634" lon="11.4983003"><ele>39.0</ele><time>2026-05-02T09:06:28.539Z</time></trkpt><trkpt lat="45.5000669" lon="11.4984021"><ele>39.5</ele><time>2026-05-02T09:06:29.538Z</time></trkpt><trkpt lat="45.5001668" lon="11.4985179"><ele>40.0</ele><time>2026-05-02T09:06:30.538Z</time></trkpt><trkpt lat="45.5002693" lon="11.4986708"><ele>38.333333333333336</ele><time>2026-05-02T09:06:31.538Z</time></trkpt><trkpt lat="45.5003667" lon="11.4988543"><ele>36.666666666666664</ele><time>2026-05-02T09:06:32.538Z</time></trkpt><trkpt lat="45.5004653" lon="11.4990386"><ele>35.0</ele><time>2026-05-02T09:06:33.538Z</time></trkpt><trkpt lat="45.5005741" lon="11.499188"><ele>35.5</ele><time>2026-05-02T09:06:34.538Z</time></trkpt><trkpt lat="45.5006891" lon="11.4993132"><ele>36.0</ele><time>2026-05-02T09:06:35.538Z</time></trkpt><trkpt lat="45.5008033" lon="11.4994162"><ele>36.5</ele><time>2026-05-02T09:06:36.538Z</time></trkpt><trkpt lat="45.500912" lon="11.4995082"><ele>37.0</ele><time>2026-05-02T09:06:37.538Z</time></trkpt><trkpt lat="45.5010181" lon="11.4995935"><ele>37.0</ele><time>2026-05-02T09:06:38.538Z</time></trkpt><trkpt lat="45.5011265" lon="11.4996764"><ele>37.0</ele><time>2026-05-02T09:06:39.539Z</time></trkpt><trkpt lat="45.501235" lon="11.4997695"><ele>37.0</ele><time>2026-05-02T09:06:40.538Z</time></trkpt><trkpt lat="45.5013321" lon="11.4998825"><ele>37.0</ele><time>2026-05-02T09:06:41.538Z</time></trkpt><trkpt lat="45.5014125" lon="11.5000143"><ele>40.5</ele><time>2026-05-02T09:06:42.538Z</time></trkpt><trkpt lat="45.5014713" lon="11.5001622"><ele>44.0</ele><time>2026-05-02T09:06:43.538Z</time></trkpt><trkpt lat="45.5015057" lon="11.5003232"><ele>47.5</ele><time>2026-05-02T09:06:44.538Z</time></trkpt><trkpt lat="45.5015118" lon="11.5005003"><ele>51.0</ele><time>2026-05-02T09:06:45.538Z</time></trkpt><trkpt lat="45.5014923" lon="11.5006823"><ele>51.0</ele><time>2026-05-02T09:06:46.538Z</time></trkpt><trkpt lat="45.5014606" lon="11.5008648"><ele>51.0</ele><time>2026-05-02T09:06:47.538Z</time></trkpt><trkpt lat="45.5014247" lon="11.5010483"><ele>51.0</ele><time>2026-05-02T09:06:48.537Z</time></trkpt><trkpt lat="45.5014108" lon="11.5012382"><ele>51.0</ele><time>2026-05-02T09:06:49.537Z</time></trkpt><trkpt lat="45.5014143" lon="11.5014301"><ele>50.5</ele><time>2026-05-02T09:06:50.537Z</time></trkpt><trkpt lat="45.5014439" lon="11.5016055"><ele>50.0</ele><time>2026-05-02T09:06:51.538Z</time></trkpt><trkpt lat="45.5015062" lon="11.5017594"><ele>49.5</ele><time>2026-05-02T09:06:52.538Z</time></trkpt><trkpt lat="45.5015942" lon="11.5018922"><ele>49.0</ele><time>2026-05-02T09:06:53.538Z</time></trkpt><trkpt lat="45.501704" lon="11.5020043"><ele>48.75</ele><time>2026-05-02T09:06:54.539Z</time></trkpt><trkpt lat="45.5018219" lon="11.5021118"><ele>48.5</ele><time>2026-05-02T09:06:55.538Z</time></trkpt><trkpt lat="45.5019335" lon="11.502234"><ele>48.25</ele><time>2026-05-02T09:06:56.539Z</time></trkpt><trkpt lat="45.5020224" lon="11.5023726"><ele>48.0</ele><time>2026-05-02T09:06:57.538Z</time></trkpt><trkpt lat="45.5020914" lon="11.5025304"><ele>48.0</ele><time>2026-05-02T09:06:58.538Z</time></trkpt><trkpt lat="45.5021371" lon="11.5027149"><ele>48.0</ele><time>2026-05-02T09:06:59.539Z</time></trkpt><trkpt lat="45.5021611" lon="11.5029144"><ele>48.0</ele><time>2026-05-02T09:07:00.539Z</time></trkpt><trkpt lat="45.5021849" lon="11.5031246"><ele>48.0</ele><time>2026-05-02T09:07:01.538Z</time></trkpt><trkpt lat="45.5022145" lon="11.503332"><ele>48.5</ele><time>2026-05-02T09:07:02.538Z</time></trkpt><trkpt lat="45.5022342" lon="11.5035344"><ele>49.0</ele><time>2026-05-02T09:07:03.537Z</time></trkpt><trkpt lat="45.5022294" lon="11.5037315"><ele>49.5</ele><time>2026-05-02T09:07:04.537Z</time></trkpt><trkpt lat="45.5021935" lon="11.503923"><ele>50.0</ele><time>2026-05-02T09:07:05.538Z</time></trkpt><trkpt lat="45.5021378" lon="11.5040987"><ele>50.0</ele><time>2026-05-02T09:07:06.539Z</time></trkpt><trkpt lat="45.5020825" lon="11.5042545"><ele>50.0</ele><time>2026-05-02T09:07:07.537Z</time></trkpt><trkpt lat="45.5020519" lon="11.5044165"><ele>50.0</ele><time>2026-05-02T09:07:08.537Z</time></trkpt><trkpt lat="45.5020388" lon="11.5045799"><ele>50.0</ele><time>2026-05-02T09:07:09.538Z</time></trkpt><trkpt lat="45.5020409" lon="11.504738"><ele>49.16666666666667</ele><time>2026-05-02T09:07:10.538Z</time></trkpt><trkpt lat="45.5020539" lon="11.5048902"><ele>48.333333333333336</ele><time>2026-05-02T09:07:11.538Z</time></trkpt><trkpt lat="45.5020709" lon="11.5050195"><ele>47.5</ele><time>2026-05-02T09:07:12.538Z</time></trkpt><trkpt lat="45.5020833" lon="11.5051242"><ele>46.66666666666667</ele><time>2026-05-02T09:07:13.538Z</time></trkpt><trkpt lat="45.5020791" lon="11.5052706"><ele>45.833333333333336</ele><time>2026-05-02T09:07:15.538Z</time></trkpt><trkpt lat="45.5020322" lon="11.505344"><ele>45.0</ele><time>2026-05-02T09:07:17.538Z</time></trkpt><trkpt lat="45.5019403" lon="11.5053628"><ele>42.0</ele><time>2026-05-02T09:07:19.538Z</time></trkpt><trkpt lat="45.5018751" lon="11.5053614"><ele>39.0</ele><time>2026-05-02T09:07:20.538Z</time></trkpt><trkpt lat="45.5017938" lon="11.5053643"><ele>36.0</ele><time>2026-05-02T09:07:21.538Z</time></trkpt><trkpt lat="45.5016886" lon="11.5053715"><ele>33.0</ele><time>2026-05-02T09:07:22.539Z</time></trkpt><trkpt lat="45.5015596" lon="11.5053821"><ele>30.0</ele><time>2026-05-02T09:07:23.538Z</time></trkpt><trkpt lat="45.5014131" lon="11.5053903"><ele>30.0</ele><time>2026-05-02T09:07:24.538Z</time></trkpt><trkpt lat="45.5012513" lon="11.5053987"><ele>30.0</ele><time>2026-05-02T09:07:25.539Z</time></trkpt><trkpt lat="45.5010823" lon="11.5054093"><ele>30.0</ele><time>2026-05-02T09:07:26.539Z</time></trkpt><trkpt lat="45.5009069" lon="11.5054167"><ele>30.333333333333336</ele><time>2026-05-02T09:07:27.538Z</time></trkpt><trkpt lat="45.500727" lon="11.5054242"><ele>30.666666666666668</ele><time>2026-05-02T09:07:28.538Z</time></trkpt><trkpt lat="45.500543" lon="11.5054343"><ele>31.0</ele><time>2026-05-02T09:07:29.537Z</time></trkpt><trkpt lat="45.5003583" lon="11.5054478"><ele>30.333333333333336</ele><time>2026-05-02T09:07:30.538Z</time></trkpt><trkpt lat="45.5001735" lon="11.5054591"><ele>29.666666666666664</ele><time>2026-05-02T09:07:31.538Z</time></trkpt><trkpt lat="45.4999968" lon="11.5054689"><ele>29.0</ele><time>2026-05-02T09:07:32.539Z</time></trkpt><trkpt lat="45.4998238" lon="11.5054734"><ele>29.0</ele><time>2026-05-02T09:07:33.538Z</time></trkpt><trkpt lat="45.4996497" lon="11.505481"><ele>29.0</ele><time>2026-05-02T09:07:34.538Z</time></trkpt><trkpt lat="45.4994751" lon="11.5054916"><ele>29.0</ele><time>2026-05-02T09:07:35.538Z</time></trkpt><trkpt lat="45.4993015" lon="11.5055072"><ele>29.0</ele><time>2026-05-02T09:07:36.538Z</time></trkpt><trkpt lat="45.4991318" lon="11.5055166"><ele>29.0</ele><time>2026-05-02T09:07:37.538Z</time></trkpt><trkpt lat="45.4989645" lon="11.5055227"><ele>29.0</ele><time>2026-05-02T09:07:38.538Z</time></trkpt><trkpt lat="45.4988028" lon="11.5055297"><ele>30.333333333333332</ele><time>2026-05-02T09:07:39.538Z</time></trkpt><trkpt lat="45.4986419" lon="11.5055363"><ele>31.666666666666664</ele><time>2026-05-02T09:07:40.537Z</time></trkpt><trkpt lat="45.4984803" lon="11.5055466"><ele>33.0</ele><time>2026-05-02T09:07:41.538Z</time></trkpt><trkpt lat="45.4983254" lon="11.505554"><ele>33.0</ele><time>2026-05-02T09:07:42.538Z</time></trkpt><trkpt lat="45.4981809" lon="11.5055587"><ele>33.0</ele><time>2026-05-02T09:07:43.539Z</time></trkpt><trkpt lat="45.4980405" lon="11.5055643"><ele>33.0</ele><time>2026-05-02T09:07:44.538Z</time></trkpt><trkpt lat="45.4979063" lon="11.5055631"><ele>33.0</ele><time>2026-05-02T09:07:45.539Z</time></trkpt><trkpt lat="45.497783" lon="11.5055673"><ele>33.199999999999996</ele><time>2026-05-02T09:07:46.538Z</time></trkpt><trkpt lat="45.4976834" lon="11.5055567"><ele>33.4</ele><time>2026-05-02T09:07:47.539Z</time></trkpt><trkpt lat="45.4976037" lon="11.5055286"><ele>33.599999999999994</ele><time>2026-05-02T09:07:48.538Z</time></trkpt><trkpt lat="45.4975426" lon="11.5054853"><ele>33.8</ele><time>2026-05-02T09:07:49.538Z</time></trkpt><trkpt lat="45.497465" lon="11.5053303"><ele>34.0</ele><time>2026-05-02T09:07:51.538Z</time></trkpt><trkpt lat="45.4974384" lon="11.5052103"><ele>34.0</ele><time>2026-05-02T09:07:52.538Z</time></trkpt><trkpt lat="45.4974094" lon="11.5050452"><ele>34.0</ele><time>2026-05-02T09:07:53.538Z</time></trkpt><trkpt lat="45.4973775" lon="11.5048668"><ele>34.0</ele><time>2026-05-02T09:07:54.538Z</time></trkpt><trkpt lat="45.4973478" lon="11.5046611"><ele>34.0</ele><time>2026-05-02T09:07:55.538Z</time></trkpt><trkpt lat="45.4973201" lon="11.5044524"><ele>34.0</ele><time>2026-05-02T09:07:56.538Z</time></trkpt><trkpt lat="45.4972935" lon="11.5042451"><ele>34.0</ele><time>2026-05-02T09:07:57.538Z</time></trkpt><trkpt lat="45.4972665" lon="11.5040428"><ele>34.0</ele><time>2026-05-02T09:07:58.537Z</time></trkpt><trkpt lat="45.4972328" lon="11.5038495"><ele>34.0</ele><time>2026-05-02T09:07:59.538Z</time></trkpt><trkpt lat="45.4971884" lon="11.503663"><ele>33.25</ele><time>2026-05-02T09:08:00.538Z</time></trkpt><trkpt lat="45.497127" lon="11.5034825"><ele>32.5</ele><time>2026-05-02T09:08:01.538Z</time></trkpt><trkpt lat="45.4970515" lon="11.5033034"><ele>31.75</ele><time>2026-05-02T09:08:02.538Z</time></trkpt><trkpt lat="45.4969664" lon="11.5031148"><ele>31.0</ele><time>2026-05-02T09:08:03.538Z</time></trkpt><trkpt lat="45.4968742" lon="11.5029173"><ele>37.0</ele><time>2026-05-02T09:08:04.538Z</time></trkpt><trkpt lat="45.4967801" lon="11.5027105"><ele>43.0</ele><time>2026-05-02T09:08:05.538Z</time></trkpt><trkpt lat="45.4966859" lon="11.5025017"><ele>49.0</ele><time>2026-05-02T09:08:06.538Z</time></trkpt><trkpt lat="45.496601" lon="11.5022813"><ele>45.0</ele><time>2026-05-02T09:08:07.537Z</time></trkpt><trkpt lat="45.4965237" lon="11.5020372"><ele>41.0</ele><time>2026-05-02T09:08:08.537Z</time></trkpt><trkpt lat="45.4964564" lon="11.5017735"><ele>37.0</ele><time>2026-05-02T09:08:09.538Z</time></trkpt><trkpt lat="45.4963882" lon="11.5015076"><ele>34.333333333333336</ele><time>2026-05-02T09:08:10.537Z</time></trkpt><trkpt lat="45.4963201" lon="11.5012366"><ele>31.666666666666664</ele><time>2026-05-02T09:08:11.539Z</time></trkpt><trkpt lat="45.4962557" lon="11.5009635"><ele>29.0</ele><time>2026-05-02T09:08:12.538Z</time></trkpt><trkpt lat="45.4961982" lon="11.5007112"><ele>32.0</ele><time>2026-05-02T09:08:13.539Z</time></trkpt><trkpt lat="45.4961459" lon="11.5004984"><ele>35.0</ele><time>2026-05-02T09:08:14.538Z</time></trkpt><trkpt lat="45.4960993" lon="11.5003148"><ele>38.0</ele><time>2026-05-02T09:08:15.538Z</time></trkpt><trkpt lat="45.4960445" lon="11.5001548"><ele>41.0</ele><time>2026-05-02T09:08:16.538Z</time></trkpt><trkpt lat="45.4959686" lon="11.5000129"><ele>41.0</ele><time>2026-05-02T09:08:17.538Z</time></trkpt><trkpt lat="45.4958769" lon="11.4998997"><ele>41.0</ele><time>2026-05-02T09:08:18.538Z</time></trkpt><trkpt lat="45.4957666" lon="11.4998227"><ele>41.0</ele><time>2026-05-02T09:08:19.539Z</time></trkpt><trkpt lat="45.4956312" lon="11.4997824"><ele>41.0</ele><time>2026-05-02T09:08:20.539Z</time></trkpt><trkpt lat="45.4954911" lon="11.4997588"><ele>46.0</ele><time>2026-05-02T09:08:21.538Z</time></trkpt><trkpt lat="45.4953378" lon="11.4997527"><ele>51.0</ele><time>2026-05-02T09:08:22.538Z</time></trkpt><trkpt lat="45.4951764" lon="11.4997603"><ele>56.0</ele><time>2026-05-02T09:08:23.538Z</time></trkpt><trkpt lat="45.495012" lon="11.4997776"><ele>56.0</ele><time>2026-05-02T09:08:24.539Z</time></trkpt><trkpt lat="45.4948438" lon="11.4997965"><ele>56.0</ele><time>2026-05-02T09:08:25.538Z</time></trkpt><trkpt lat="45.4946768" lon="11.4998023"><ele>56.0</ele><time>2026-05-02T09:08:26.538Z</time></trkpt><trkpt lat="45.4945118" lon="11.4997995"><ele>59.75</ele><time>2026-05-02T09:08:27.538Z</time></trkpt><trkpt lat="45.494358" lon="11.4997875"><ele>63.5</ele><time>2026-05-02T09:08:28.539Z</time></trkpt><trkpt lat="45.4942237" lon="11.4997629"><ele>67.25</ele><time>2026-05-02T09:08:29.538Z</time></trkpt><trkpt lat="45.4941133" lon="11.4997199"><ele>71.0</ele><time>2026-05-02T09:08:30.538Z</time></trkpt><trkpt lat="45.4940218" lon="11.4996796"><ele>71.0</ele><time>2026-05-02T09:08:31.538Z</time></trkpt><trkpt lat="45.4939522" lon="11.4996244"><ele>71.0</ele><time>2026-05-02T09:08:32.538Z</time></trkpt><trkpt lat="45.493913" lon="11.4995515"><ele>71.0</ele><time>2026-05-02T09:08:33.538Z</time></trkpt><trkpt lat="45.4939285" lon="11.4993714"><ele>71.0</ele><time>2026-05-02T09:08:35.539Z</time></trkpt><trkpt lat="45.4939759" lon="11.4992688"><ele>71.0</ele><time>2026-05-02T09:08:36.538Z</time></trkpt><trkpt lat="45.4940322" lon="11.4991588"><ele>69.6</ele><time>2026-05-02T09:08:37.538Z</time></trkpt><trkpt lat="45.4940934" lon="11.4990297"><ele>68.19999999999999</ele><time>2026-05-02T09:08:38.539Z</time></trkpt><trkpt lat="45.4941509" lon="11.4989008"><ele>66.80000000000001</ele><time>2026-05-02T09:08:39.538Z</time></trkpt><trkpt lat="45.4941968" lon="11.4987542"><ele>65.4</ele><time>2026-05-02T09:08:40.538Z</time></trkpt><trkpt lat="45.4942183" lon="11.4986032"><ele>64.0</ele><time>2026-05-02T09:08:41.538Z</time></trkpt><trkpt lat="45.4942191" lon="11.49846"><ele>63.99999999999999</ele><time>2026-05-02T09:08:42.537Z</time></trkpt><trkpt lat="45.4941989" lon="11.4983356"><ele>64.0</ele><time>2026-05-02T09:08:43.538Z</time></trkpt><trkpt lat="45.4941548" lon="11.4982439"><ele>64.0</ele><time>2026-05-02T09:08:44.538Z</time></trkpt><trkpt lat="45.4940906" lon="11.4981748"><ele>64.0</ele><time>2026-05-02T09:08:45.538Z</time></trkpt><trkpt lat="45.4940133" lon="11.4981317"><ele>63.99999999999999</ele><time>2026-05-02T09:08:46.538Z</time></trkpt><trkpt lat="45.4939213" lon="11.4981075"><ele>64.0</ele><time>2026-05-02T09:08:47.539Z</time></trkpt><trkpt lat="45.4938182" lon="11.4981133"><ele>69.75</ele><time>2026-05-02T09:08:48.539Z</time></trkpt><trkpt lat="45.4937094" lon="11.4981152"><ele>75.5</ele><time>2026-05-02T09:08:49.538Z</time></trkpt><trkpt lat="45.4935908" lon="11.4981306"><ele>81.25</ele><time>2026-05-02T09:08:50.538Z</time></trkpt><trkpt lat="45.4934705" lon="11.4981371"><ele>87.0</ele><time>2026-05-02T09:08:51.537Z</time></trkpt><trkpt lat="45.4933487" lon="11.4981504"><ele>87.0</ele><time>2026-05-02T09:08:52.538Z</time></trkpt><trkpt lat="45.4932268" lon="11.498164"><ele>87.0</ele><time>2026-05-02T09:08:53.539Z</time></trkpt><trkpt lat="45.4931136" lon="11.4981714"><ele>87.0</ele><time>2026-05-02T09:08:54.539Z</time></trkpt><trkpt lat="45.492994" lon="11.4981744"><ele>87.0</ele><time>2026-05-02T09:08:55.538Z</time></trkpt><trkpt lat="45.4928742" lon="11.4981547"><ele>91.0</ele><time>2026-05-02T09:08:56.538Z</time></trkpt><trkpt lat="45.4927468" lon="11.4981348"><ele>95.0</ele><time>2026-05-02T09:08:57.538Z</time></trkpt><trkpt lat="45.4926224" lon="11.4981085"><ele>99.0</ele><time>2026-05-02T09:08:58.538Z</time></trkpt><trkpt lat="45.4924928" lon="11.498087"><ele>103.0</ele><time>2026-05-02T09:08:59.539Z</time></trkpt><trkpt lat="45.4923624" lon="11.4980696"><ele>103.0</ele><time>2026-05-02T09:09:00.539Z</time></trkpt><trkpt lat="45.4922282" lon="11.4980378"><ele>103.0</ele><time>2026-05-02T09:09:01.539Z</time></trkpt><trkpt lat="45.4920939" lon="11.497987"><ele>103.0</ele><time>2026-05-02T09:09:02.539Z</time></trkpt><trkpt lat="45.4919544" lon="11.4979394"><ele>103.0</ele><time>2026-05-02T09:09:03.538Z</time></trkpt><trkpt lat="45.4918184" lon="11.4978701"><ele>102.5</ele><time>2026-05-02T09:09:04.539Z</time></trkpt><trkpt lat="45.4916926" lon="11.4977929"><ele>102.0</ele><time>2026-05-02T09:09:05.539Z</time></trkpt><trkpt lat="45.4915749" lon="11.4976884"><ele>101.5</ele><time>2026-05-02T09:09:06.538Z</time></trkpt><trkpt lat="45.4914699" lon="11.4975654"><ele>101.0</ele><time>2026-05-02T09:09:07.539Z</time></trkpt><trkpt lat="45.4913742" lon="11.4974512"><ele>101.0</ele><time>2026-05-02T09:09:08.538Z</time></trkpt><trkpt lat="45.4912891" lon="11.4973442"><ele>101.0</ele><time>2026-05-02T09:09:09.538Z</time></trkpt><trkpt lat="45.4912121" lon="11.4972407"><ele>101.0</ele><time>2026-05-02T09:09:10.537Z</time></trkpt><trkpt lat="45.4911423" lon="11.4971382"><ele>101.0</ele><time>2026-05-02T09:09:11.539Z</time></trkpt><trkpt lat="45.4910831" lon="11.49704"><ele>101.0</ele><time>2026-05-02T09:09:12.538Z</time></trkpt><trkpt lat="45.4910358" lon="11.4969469"><ele>103.83333333333333</ele><time>2026-05-02T09:09:13.539Z</time></trkpt><trkpt lat="45.4909887" lon="11.4968636"><ele>106.66666666666666</ele><time>2026-05-02T09:09:14.537Z</time></trkpt><trkpt lat="45.4908792" lon="11.4968274"><ele>109.5</ele><time>2026-05-02T09:09:16.538Z</time></trkpt><trkpt lat="45.4907738" lon="11.4969036"><ele>112.33333333333334</ele><time>2026-05-02T09:09:18.537Z</time></trkpt><trkpt lat="45.490705" lon="11.4969139"><ele>115.16666666666667</ele><time>2026-05-02T09:09:19.539Z</time></trkpt><trkpt lat="45.4906323" lon="11.4968945"><ele>118.0</ele><time>2026-05-02T09:09:20.538Z</time></trkpt><trkpt lat="45.4905484" lon="11.496873"><ele>118.0</ele><time>2026-05-02T09:09:21.538Z</time></trkpt><trkpt lat="45.4904478" lon="11.4968475"><ele>118.0</ele><time>2026-05-02T09:09:22.538Z</time></trkpt><trkpt lat="45.4903383" lon="11.4967975"><ele>118.0</ele><time>2026-05-02T09:09:23.538Z</time></trkpt><trkpt lat="45.4902199" lon="11.4967408"><ele>118.0</ele><time>2026-05-02T09:09:24.538Z</time></trkpt><trkpt lat="45.4900966" lon="11.4966963"><ele>121.5</ele><time>2026-05-02T09:09:25.538Z</time></trkpt><trkpt lat="45.4899744" lon="11.4966651"><ele>125.0</ele><time>2026-05-02T09:09:26.538Z</time></trkpt><trkpt lat="45.489861" lon="11.4966318"><ele>128.5</ele><time>2026-05-02T09:09:27.538Z</time></trkpt><trkpt lat="45.4897553" lon="11.4965767"><ele>132.0</ele><time>2026-05-02T09:09:28.539Z</time></trkpt><trkpt lat="45.4896544" lon="11.4964918"><ele>136.0</ele><time>2026-05-02T09:09:29.538Z</time></trkpt><trkpt lat="45.4895637" lon="11.4963769"><ele>140.0</ele><time>2026-05-02T09:09:30.539Z</time></trkpt><trkpt lat="45.4894822" lon="11.4962487"><ele>144.0</ele><time>2026-05-02T09:09:31.537Z</time></trkpt><trkpt lat="45.4894067" lon="11.4961184"><ele>148.0</ele><time>2026-05-02T09:09:32.538Z</time></trkpt><trkpt lat="45.4893448" lon="11.4959832"><ele>148.6</ele><time>2026-05-02T09:09:33.538Z</time></trkpt><trkpt lat="45.4892926" lon="11.4958537"><ele>149.20000000000002</ele><time>2026-05-02T09:09:34.538Z</time></trkpt><trkpt lat="45.4892456" lon="11.495736"><ele>149.8</ele><time>2026-05-02T09:09:35.539Z</time></trkpt><trkpt lat="45.4891958" lon="11.4956309"><ele>150.4</ele><time>2026-05-02T09:09:36.538Z</time></trkpt><trkpt lat="45.4891301" lon="11.4955355"><ele>151.0</ele><time>2026-05-02T09:09:37.538Z</time></trkpt><trkpt lat="45.4890514" lon="11.4954615"><ele>150.8</ele><time>2026-05-02T09:09:38.538Z</time></trkpt><trkpt lat="45.4889561" lon="11.4954167"><ele>150.6</ele><time>2026-05-02T09:09:39.538Z</time></trkpt><trkpt lat="45.4888565" lon="11.4953923"><ele>150.4</ele><time>2026-05-02T09:09:40.538Z</time></trkpt><trkpt lat="45.48875" lon="11.4953912"><ele>150.2</ele><time>2026-05-02T09:09:41.538Z</time></trkpt><trkpt lat="45.4886518" lon="11.4953941"><ele>150.0</ele><time>2026-05-02T09:09:42.538Z</time></trkpt><trkpt lat="45.4885607" lon="11.4954131"><ele>152.8</ele><time>2026-05-02T09:09:43.538Z</time></trkpt><trkpt lat="45.4884853" lon="11.4955057"><ele>155.6</ele><time>2026-05-02T09:09:44.539Z</time></trkpt><trkpt lat="45.4884187" lon="11.4955968"><ele>158.39999999999998</ele><time>2026-05-02T09:09:45.539Z</time></trkpt><trkpt lat="45.4883553" lon="11.4956975"><ele>161.2</ele><time>2026-05-02T09:09:46.539Z</time></trkpt><trkpt lat="45.488281" lon="11.4957744"><ele>164.0</ele><time>2026-05-02T09:09:47.539Z</time></trkpt><trkpt lat="45.4881928" lon="11.4958295"><ele>164.0</ele><time>2026-05-02T09:09:48.539Z</time></trkpt><trkpt lat="45.4880868" lon="11.4958771"><ele>164.0</ele><time>2026-05-02T09:09:49.538Z</time></trkpt><trkpt lat="45.4879702" lon="11.495913"><ele>164.0</ele><time>2026-05-02T09:09:50.539Z</time></trkpt><trkpt lat="45.4878503" lon="11.495951"><ele>164.0</ele><time>2026-05-02T09:09:51.538Z</time></trkpt><trkpt lat="45.4877254" lon="11.4959939"><ele>166.5</ele><time>2026-05-02T09:09:52.538Z</time></trkpt><trkpt lat="45.4876018" lon="11.4960449"><ele>169.0</ele><time>2026-05-02T09:09:53.537Z</time></trkpt><trkpt lat="45.4874774" lon="11.4960916"><ele>171.5</ele><time>2026-05-02T09:09:54.538Z</time></trkpt><trkpt lat="45.4873474" lon="11.4961295"><ele>174.0</ele><time>2026-05-02T09:09:55.538Z</time></trkpt><trkpt lat="45.4872177" lon="11.4961707"><ele>176.0</ele><time>2026-05-02T09:09:56.538Z</time></trkpt><trkpt lat="45.487087" lon="11.496223"><ele>178.0</ele><time>2026-05-02T09:09:57.537Z</time></trkpt><trkpt lat="45.4869598" lon="11.4962724"><ele>180.0</ele><time>2026-05-02T09:09:58.539Z</time></trkpt><trkpt lat="45.4868386" lon="11.4963197"><ele>182.0</ele><time>2026-05-02T09:09:59.538Z</time></trkpt><trkpt lat="45.4867233" lon="11.49636"><ele>183.6</ele><time>2026-05-02T09:10:00.538Z</time></trkpt><trkpt lat="45.4866319" lon="11.4964048"><ele>185.2</ele><time>2026-05-02T09:10:01.539Z</time></trkpt><trkpt lat="45.4865665" lon="11.4964628"><ele>186.8</ele><time>2026-05-02T09:10:02.537Z</time></trkpt><trkpt lat="45.4865095" lon="11.4965555"><ele>188.4</ele><time>2026-05-02T09:10:03.538Z</time></trkpt><trkpt lat="45.4864495" lon="11.4966651"><ele>190.0</ele><time>2026-05-02T09:10:04.539Z</time></trkpt><trkpt lat="45.4863745" lon="11.4967577"><ele>190.0</ele><time>2026-05-02T09:10:05.538Z</time></trkpt><trkpt lat="45.4862863" lon="11.496827"><ele>190.0</ele><time>2026-05-02T09:10:06.538Z</time></trkpt><trkpt lat="45.4861927" lon="11.4968817"><ele>190.0</ele><time>2026-05-02T09:10:07.538Z</time></trkpt><trkpt lat="45.4860971" lon="11.4969193"><ele>190.0</ele><time>2026-05-02T09:10:08.538Z</time></trkpt><trkpt lat="45.486" lon="11.4969266"><ele>190.0</ele><time>2026-05-02T09:10:09.538Z</time></trkpt><trkpt lat="45.4858991" lon="11.4969169"><ele>192.75</ele><time>2026-05-02T09:10:10.538Z</time></trkpt><trkpt lat="45.4857942" lon="11.4969101"><ele>195.5</ele><time>2026-05-02T09:10:11.538Z</time></trkpt><trkpt lat="45.4856864" lon="11.4968994"><ele>198.25</ele><time>2026-05-02T09:10:12.538Z</time></trkpt><trkpt lat="45.4855695" lon="11.4968931"><ele>201.0</ele><time>2026-05-02T09:10:13.538Z</time></trkpt><trkpt lat="45.4854473" lon="11.4968846"><ele>201.75</ele><time>2026-05-02T09:10:14.537Z</time></trkpt><trkpt lat="45.4853179" lon="11.496875"><ele>202.5</ele><time>2026-05-02T09:10:15.538Z</time></trkpt><trkpt lat="45.4851852" lon="11.4968878"><ele>203.25</ele><time>2026-05-02T09:10:16.538Z</time></trkpt><trkpt lat="45.4850576" lon="11.4969228"><ele>204.0</ele><time>2026-05-02T09:10:17.538Z</time></trkpt><trkpt lat="45.4849328" lon="11.4969518"><ele>204.0</ele><time>2026-05-02T09:10:18.539Z</time></trkpt><trkpt lat="45.4848252" lon="11.4969705"><ele>204.0</ele><time>2026-05-02T09:10:19.538Z</time></trkpt><trkpt lat="45.4847223" lon="11.4969719"><ele>204.0</ele><time>2026-05-02T09:10:20.537Z</time></trkpt><trkpt lat="45.4846174" lon="11.4969582"><ele>204.0</ele><time>2026-05-02T09:10:21.539Z</time></trkpt><trkpt lat="45.4845155" lon="11.4969259"><ele>204.0</ele><time>2026-05-02T09:10:22.539Z</time></trkpt><trkpt lat="45.48441" lon="11.4969029"><ele>204.2</ele><time>2026-05-02T09:10:23.537Z</time></trkpt><trkpt lat="45.4842987" lon="11.4968849"><ele>204.39999999999998</ele><time>2026-05-02T09:10:24.538Z</time></trkpt><trkpt lat="45.4841907" lon="11.4968775"><ele>204.6</ele><time>2026-05-02T09:10:25.538Z</time></trkpt><trkpt lat="45.4840925" lon="11.4968775"><ele>204.8</ele><time>2026-05-02T09:10:26.538Z</time></trkpt><trkpt lat="45.4840038" lon="11.4968828"><ele>205.0</ele><time>2026-05-02T09:10:27.538Z</time></trkpt><trkpt lat="45.4839175" lon="11.4969038"><ele>205.0</ele><time>2026-05-02T09:10:28.538Z</time></trkpt><trkpt lat="45.4838296" lon="11.4969357"><ele>205.0</ele><time>2026-05-02T09:10:29.538Z</time></trkpt><trkpt lat="45.4837347" lon="11.4969861"><ele>205.0</ele><time>2026-05-02T09:10:30.538Z</time></trkpt><trkpt lat="45.4836419" lon="11.4970457"><ele>205.0</ele><time>2026-05-02T09:10:31.537Z</time></trkpt><trkpt lat="45.4835562" lon="11.4971055"><ele>205.0</ele><time>2026-05-02T09:10:32.538Z</time></trkpt><trkpt lat="45.4834747" lon="11.4971625"><ele>206.16666666666666</ele><time>2026-05-02T09:10:33.538Z</time></trkpt><trkpt lat="45.4833966" lon="11.4972144"><ele>207.33333333333331</ele><time>2026-05-02T09:10:34.539Z</time></trkpt><trkpt lat="45.4833232" lon="11.4972551"><ele>208.5</ele><time>2026-05-02T09:10:35.538Z</time></trkpt><trkpt lat="45.4832493" lon="11.4972893"><ele>209.66666666666669</ele><time>2026-05-02T09:10:36.538Z</time></trkpt><trkpt lat="45.4831768" lon="11.4973089"><ele>210.83333333333334</ele><time>2026-05-02T09:10:37.539Z</time></trkpt><trkpt lat="45.4831103" lon="11.4973151"><ele>212.0</ele><time>2026-05-02T09:10:38.539Z</time></trkpt><trkpt lat="45.4830412" lon="11.4973103"><ele>212.00000000000003</ele><time>2026-05-02T09:10:39.537Z</time></trkpt><trkpt lat="45.4829693" lon="11.4972863"><ele>212.0</ele><time>2026-05-02T09:10:40.538Z</time></trkpt><trkpt lat="45.4828942" lon="11.4972464"><ele>212.0</ele><time>2026-05-02T09:10:41.539Z</time></trkpt><trkpt lat="45.4828206" lon="11.4972085"><ele>212.0</ele><time>2026-05-02T09:10:42.538Z</time></trkpt><trkpt lat="45.4827424" lon="11.4971716"><ele>212.00000000000003</ele><time>2026-05-02T09:10:43.538Z</time></trkpt><trkpt lat="45.4826586" lon="11.4971345"><ele>212.0</ele><time>2026-05-02T09:10:44.539Z</time></trkpt><trkpt lat="45.4825724" lon="11.4970911"><ele>213.2</ele><time>2026-05-02T09:10:45.538Z</time></trkpt><trkpt lat="45.482486" lon="11.4970408"><ele>214.39999999999998</ele><time>2026-05-02T09:10:46.538Z</time></trkpt><trkpt lat="45.4823935" lon="11.4969977"><ele>215.60000000000002</ele><time>2026-05-02T09:10:47.538Z</time></trkpt><trkpt lat="45.4823011" lon="11.4969582"><ele>216.8</ele><time>2026-05-02T09:10:48.539Z</time></trkpt><trkpt lat="45.4822095" lon="11.496925"><ele>218.0</ele><time>2026-05-02T09:10:49.539Z</time></trkpt><trkpt lat="45.4821177" lon="11.4968992"><ele>217.8</ele><time>2026-05-02T09:10:50.539Z</time></trkpt><trkpt lat="45.4820273" lon="11.4968668"><ele>217.60000000000002</ele><time>2026-05-02T09:10:51.538Z</time></trkpt><trkpt lat="45.4819335" lon="11.4968249"><ele>217.39999999999998</ele><time>2026-05-02T09:10:52.537Z</time></trkpt><trkpt lat="45.4818424" lon="11.4967747"><ele>217.2</ele><time>2026-05-02T09:10:53.537Z</time></trkpt><trkpt lat="45.4817477" lon="11.4967224"><ele>217.0</ele><time>2026-05-02T09:10:54.539Z</time></trkpt><trkpt lat="45.4816543" lon="11.49667"><ele>217.0</ele><time>2026-05-02T09:10:55.538Z</time></trkpt><trkpt lat="45.4815642" lon="11.4966089"><ele>217.0</ele><time>2026-05-02T09:10:56.538Z</time></trkpt><trkpt lat="45.4814723" lon="11.4965432"><ele>217.0</ele><time>2026-05-02T09:10:57.538Z</time></trkpt><trkpt lat="45.4813824" lon="11.4964574"><ele>217.0</ele><time>2026-05-02T09:10:58.539Z</time></trkpt><trkpt lat="45.4812944" lon="11.4963618"><ele>217.0</ele><time>2026-05-02T09:10:59.537Z</time></trkpt><trkpt lat="45.4812068" lon="11.4962673"><ele>219.25</ele><time>2026-05-02T09:11:00.538Z</time></trkpt><trkpt lat="45.4811147" lon="11.4961749"><ele>221.5</ele><time>2026-05-02T09:11:01.539Z</time></trkpt><trkpt lat="45.4810162" lon="11.4960927"><ele>223.75</ele><time>2026-05-02T09:11:02.538Z</time></trkpt><trkpt lat="45.4809194" lon="11.4960153"><ele>226.0</ele><time>2026-05-02T09:11:03.538Z</time></trkpt><trkpt lat="45.4808102" lon="11.4959474"><ele>226.0</ele><time>2026-05-02T09:11:04.538Z</time></trkpt><trkpt lat="45.4806893" lon="11.4958812"><ele>226.0</ele><time>2026-05-02T09:11:05.537Z</time></trkpt><trkpt lat="45.4805523" lon="11.4958175"><ele>226.0</ele><time>2026-05-02T09:11:06.538Z</time></trkpt><trkpt lat="45.4804108" lon="11.4957539"><ele>226.0</ele><time>2026-05-02T09:11:07.538Z</time></trkpt><trkpt lat="45.4802696" lon="11.495688"><ele>222.5</ele><time>2026-05-02T09:11:08.538Z</time></trkpt><trkpt lat="45.4801381" lon="11.4956309"><ele>219.0</ele><time>2026-05-02T09:11:09.538Z</time></trkpt><trkpt lat="45.4799954" lon="11.4955592"><ele>215.5</ele><time>2026-05-02T09:11:10.539Z</time></trkpt><trkpt lat="45.4798824" lon="11.4955291"><ele>212.0</ele><time>2026-05-02T09:11:11.538Z</time></trkpt><trkpt lat="45.4797609" lon="11.4954654"><ele>213.0</ele><time>2026-05-02T09:11:12.538Z</time></trkpt><trkpt lat="45.4796384" lon="11.4954003"><ele>214.0</ele><time>2026-05-02T09:11:13.538Z</time></trkpt><trkpt lat="45.4795189" lon="11.4953256"><ele>215.0</ele><time>2026-05-02T09:11:14.538Z</time></trkpt><trkpt lat="45.4794046" lon="11.495242"><ele>216.0</ele><time>2026-05-02T09:11:15.538Z</time></trkpt><trkpt lat="45.4792962" lon="11.4951674"><ele>216.0</ele><time>2026-05-02T09:11:16.538Z</time></trkpt><trkpt lat="45.4791948" lon="11.4950922"><ele>216.00000000000003</ele><time>2026-05-02T09:11:17.538Z</time></trkpt><trkpt lat="45.479101" lon="11.4950085"><ele>216.00000000000003</ele><time>2026-05-02T09:11:18.539Z</time></trkpt><trkpt lat="45.4790208" lon="11.4949115"><ele>216.0</ele><time>2026-05-02T09:11:19.537Z</time></trkpt><trkpt lat="45.4789582" lon="11.4948199"><ele>216.0</ele><time>2026-05-02T09:11:20.538Z</time></trkpt><trkpt lat="45.4789193" lon="11.4947459"><ele>216.0</ele><time>2026-05-02T09:11:21.539Z</time></trkpt><trkpt lat="45.4788798" lon="11.4946611"><ele>216.0</ele><time>2026-05-02T09:11:22.538Z</time></trkpt><trkpt lat="45.4789282" lon="11.4945767"><ele>216.0</ele><time>2026-05-02T09:11:23.538Z</time></trkpt><trkpt lat="45.4789673" lon="11.4944973"><ele>216.0</ele><time>2026-05-02T09:11:24.538Z</time></trkpt><trkpt lat="45.4790194" lon="11.4943986"><ele>216.0</ele><time>2026-05-02T09:11:25.538Z</time></trkpt><trkpt lat="45.4790648" lon="11.494283"><ele>216.0</ele><time>2026-05-02T09:11:26.537Z</time></trkpt><trkpt lat="45.4791118" lon="11.4941699"><ele>218.0</ele><time>2026-05-02T09:11:27.538Z</time></trkpt><trkpt lat="45.4791732" lon="11.4940638"><ele>220.00000000000003</ele><time>2026-05-02T09:11:28.538Z</time></trkpt><trkpt lat="45.4792361" lon="11.4939538"><ele>222.00000000000003</ele><time>2026-05-02T09:11:29.538Z</time></trkpt><trkpt lat="45.4793102" lon="11.4938595"><ele>224.0</ele><time>2026-05-02T09:11:30.538Z</time></trkpt><trkpt lat="45.4793848" lon="11.4937662"><ele>226.0</ele><time>2026-05-02T09:11:31.538Z</time></trkpt><trkpt lat="45.4794535" lon="11.4936856"><ele>225.83333333333331</ele><time>2026-05-02T09:11:32.539Z</time></trkpt><trkpt lat="45.479512" lon="11.4936241"><ele>225.66666666666666</ele><time>2026-05-02T09:11:33.539Z</time></trkpt><trkpt lat="45.4795645" lon="11.493573"><ele>225.5</ele><time>2026-05-02T09:11:34.538Z</time></trkpt><trkpt lat="45.4796359" lon="11.4934773"><ele>225.33333333333331</ele><time>2026-05-02T09:11:36.537Z</time></trkpt><trkpt lat="45.4796233" lon="11.4933826"><ele>225.16666666666666</ele><time>2026-05-02T09:11:38.538Z</time></trkpt><trkpt lat="45.4795197" lon="11.4933643"><ele>225.0</ele><time>2026-05-02T09:11:40.539Z</time></trkpt><trkpt lat="45.4794428" lon="11.4933635"><ele>226.0</ele><time>2026-05-02T09:11:41.538Z</time></trkpt><trkpt lat="45.4793577" lon="11.4933589"><ele>227.0</ele><time>2026-05-02T09:11:42.538Z</time></trkpt><trkpt lat="45.4792663" lon="11.4933593"><ele>228.0</ele><time>2026-05-02T09:11:43.538Z</time></trkpt><trkpt lat="45.479168" lon="11.493373"><ele>229.0</ele><time>2026-05-02T09:11:44.538Z</time></trkpt><trkpt lat="45.4790711" lon="11.493384"><ele>230.0</ele><time>2026-05-02T09:11:45.538Z</time></trkpt><trkpt lat="45.4789715" lon="11.4933892"><ele>230.0</ele><time>2026-05-02T09:11:46.538Z</time></trkpt><trkpt lat="45.4788697" lon="11.4933845"><ele>230.0</ele><time>2026-05-02T09:11:47.538Z</time></trkpt><trkpt lat="45.4787602" lon="11.4933728"><ele>230.0</ele><time>2026-05-02T09:11:48.538Z</time></trkpt><trkpt lat="45.4786472" lon="11.4933372"><ele>230.0</ele><time>2026-05-02T09:11:49.538Z</time></trkpt><trkpt lat="45.4785295" lon="11.4933015"><ele>230.0</ele><time>2026-05-02T09:11:50.539Z</time></trkpt><trkpt lat="45.4784155" lon="11.4932705"><ele>231.0</ele><time>2026-05-02T09:11:51.539Z</time></trkpt><trkpt lat="45.4783135" lon="11.4932368"><ele>232.0</ele><time>2026-05-02T09:11:52.538Z</time></trkpt><trkpt lat="45.4782179" lon="11.4932084"><ele>233.0</ele><time>2026-05-02T09:11:53.539Z</time></trkpt><trkpt lat="45.478131" lon="11.4931767"><ele>234.0</ele><time>2026-05-02T09:11:54.538Z</time></trkpt><trkpt lat="45.4780516" lon="11.4931302"><ele>235.0</ele><time>2026-05-02T09:11:55.539Z</time></trkpt><trkpt lat="45.4779866" lon="11.4930626"><ele>235.33333333333331</ele><time>2026-05-02T09:11:56.538Z</time></trkpt><trkpt lat="45.4779128" lon="11.4929883"><ele>235.66666666666666</ele><time>2026-05-02T09:11:57.538Z</time></trkpt><trkpt lat="45.4778637" lon="11.4929002"><ele>236.0</ele><time>2026-05-02T09:11:58.537Z</time></trkpt><trkpt lat="45.4779137" lon="11.4928249"><ele>236.33333333333331</ele><time>2026-05-02T09:11:59.538Z</time></trkpt><trkpt lat="45.4778987" lon="11.4927198"><ele>236.66666666666666</ele><time>2026-05-02T09:12:02.538Z</time></trkpt><trkpt lat="45.4779246" lon="11.4926226"><ele>237.0</ele><time>2026-05-02T09:12:14.539Z</time></trkpt><trkpt lat="45.4779556" lon="11.4925364"><ele>237.0</ele><time>2026-05-02T09:12:15.537Z</time></trkpt><trkpt lat="45.4779983" lon="11.4924052"><ele>237.0</ele><time>2026-05-02T09:12:16.538Z</time></trkpt><trkpt lat="45.4780461" lon="11.4922599"><ele>237.0</ele><time>2026-05-02T09:12:17.539Z</time></trkpt><trkpt lat="45.4780965" lon="11.492097"><ele>237.0</ele><time>2026-05-02T09:12:18.538Z</time></trkpt><trkpt lat="45.47815" lon="11.4919275"><ele>238.5</ele><time>2026-05-02T09:12:19.538Z</time></trkpt><trkpt lat="45.4782041" lon="11.4917559"><ele>240.0</ele><time>2026-05-02T09:12:20.538Z</time></trkpt><trkpt lat="45.4782573" lon="11.491589"><ele>241.5</ele><time>2026-05-02T09:12:21.538Z</time></trkpt><trkpt lat="45.4783045" lon="11.4914179"><ele>243.0</ele><time>2026-05-02T09:12:22.539Z</time></trkpt><trkpt lat="45.4783415" lon="11.4912501"><ele>244.4</ele><time>2026-05-02T09:12:23.538Z</time></trkpt><trkpt lat="45.4783664" lon="11.4910822"><ele>245.8</ele><time>2026-05-02T09:12:24.538Z</time></trkpt><trkpt lat="45.4783805" lon="11.4909254"><ele>247.2</ele><time>2026-05-02T09:12:25.538Z</time></trkpt><trkpt lat="45.4783851" lon="11.490779"><ele>248.6</ele><time>2026-05-02T09:12:26.538Z</time></trkpt><trkpt lat="45.4783862" lon="11.4906256"><ele>250.0</ele><time>2026-05-02T09:12:27.537Z</time></trkpt><trkpt lat="45.4783839" lon="11.4904682"><ele>249.8</ele><time>2026-05-02T09:12:28.538Z</time></trkpt><trkpt lat="45.4783859" lon="11.4903088"><ele>249.6</ele><time>2026-05-02T09:12:29.538Z</time></trkpt><trkpt lat="45.4783908" lon="11.4901517"><ele>249.39999999999998</ele><time>2026-05-02T09:12:30.537Z</time></trkpt><trkpt lat="45.478384" lon="11.4899957"><ele>249.2</ele><time>2026-05-02T09:12:31.538Z</time></trkpt><trkpt lat="45.4783601" lon="11.4898402"><ele>249.0</ele><time>2026-05-02T09:12:32.539Z</time></trkpt><trkpt lat="45.4783164" lon="11.4896812"><ele>248.0</ele><time>2026-05-02T09:12:33.538Z</time></trkpt><trkpt lat="45.4782685" lon="11.4895146"><ele>247.0</ele><time>2026-05-02T09:12:34.539Z</time></trkpt><trkpt lat="45.4782225" lon="11.4893299"><ele>246.0</ele><time>2026-05-02T09:12:35.537Z</time></trkpt><trkpt lat="45.4781822" lon="11.4891329"><ele>245.0</ele><time>2026-05-02T09:12:36.539Z</time></trkpt><trkpt lat="45.478146" lon="11.488935"><ele>245.5</ele><time>2026-05-02T09:12:37.537Z</time></trkpt><trkpt lat="45.4781128" lon="11.4887451"><ele>246.0</ele><time>2026-05-02T09:12:38.538Z</time></trkpt><trkpt lat="45.47808" lon="11.4885591"><ele>246.5</ele><time>2026-05-02T09:12:39.538Z</time></trkpt><trkpt lat="45.47805" lon="11.4883801"><ele>247.0</ele><time>2026-05-02T09:12:40.539Z</time></trkpt><trkpt lat="45.4780221" lon="11.4882122"><ele>247.0</ele><time>2026-05-02T09:12:41.538Z</time></trkpt><trkpt lat="45.4779977" lon="11.4880498"><ele>247.0</ele><time>2026-05-02T09:12:42.538Z</time></trkpt><trkpt lat="45.4779777" lon="11.4878865"><ele>247.0</ele><time>2026-05-02T09:12:43.538Z</time></trkpt><trkpt lat="45.4779726" lon="11.4877195"><ele>247.0</ele><time>2026-05-02T09:12:44.538Z</time></trkpt><trkpt lat="45.4779842" lon="11.4875449"><ele>248.25</ele><time>2026-05-02T09:12:45.537Z</time></trkpt><trkpt lat="45.4780095" lon="11.4873672"><ele>249.5</ele><time>2026-05-02T09:12:46.539Z</time></trkpt><trkpt lat="45.4780296" lon="11.4871949"><ele>250.75</ele><time>2026-05-02T09:12:47.538Z</time></trkpt><trkpt lat="45.4780491" lon="11.4870299"><ele>252.0</ele><time>2026-05-02T09:12:48.538Z</time></trkpt><trkpt lat="45.4780642" lon="11.4868709"><ele>252.0</ele><time>2026-05-02T09:12:49.538Z</time></trkpt><trkpt lat="45.4780824" lon="11.4867127"><ele>252.0</ele><time>2026-05-02T09:12:50.537Z</time></trkpt><trkpt lat="45.4781058" lon="11.4865432"><ele>252.0</ele><time>2026-05-02T09:12:51.539Z</time></trkpt><trkpt lat="45.4781403" lon="11.4863716"><ele>252.0</ele><time>2026-05-02T09:12:52.538Z</time></trkpt><trkpt lat="45.4781792" lon="11.4861964"><ele>251.0</ele><time>2026-05-02T09:12:53.538Z</time></trkpt><trkpt lat="45.4782195" lon="11.4860149"><ele>250.0</ele><time>2026-05-02T09:12:54.538Z</time></trkpt><trkpt lat="45.4782638" lon="11.4858302"><ele>249.0</ele><time>2026-05-02T09:12:55.538Z</time></trkpt><trkpt lat="45.4783118" lon="11.4856424"><ele>248.0</ele><time>2026-05-02T09:12:56.538Z</time></trkpt><trkpt lat="45.4783596" lon="11.4854647"><ele>246.5</ele><time>2026-05-02T09:12:57.538Z</time></trkpt><trkpt lat="45.4784031" lon="11.4852929"><ele>245.0</ele><time>2026-05-02T09:12:58.538Z</time></trkpt><trkpt lat="45.4784445" lon="11.4851179"><ele>243.5</ele><time>2026-05-02T09:12:59.538Z</time></trkpt><trkpt lat="45.4784843" lon="11.4849416"><ele>242.0</ele><time>2026-05-02T09:13:00.538Z</time></trkpt><trkpt lat="45.4785253" lon="11.4847491"><ele>240.75</ele><time>2026-05-02T09:13:01.538Z</time></trkpt><trkpt lat="45.4785646" lon="11.4845652"><ele>239.5</ele><time>2026-05-02T09:13:02.537Z</time></trkpt><trkpt lat="45.4785989" lon="11.4843784"><ele>238.25</ele><time>2026-05-02T09:13:03.538Z</time></trkpt><trkpt lat="45.4786281" lon="11.4841907"><ele>237.0</ele><time>2026-05-02T09:13:04.538Z</time></trkpt><trkpt lat="45.4786472" lon="11.4840037"><ele>237.0</ele><time>2026-05-02T09:13:05.537Z</time></trkpt><trkpt lat="45.4786624" lon="11.4838529"><ele>237.0</ele><time>2026-05-02T09:13:06.538Z</time></trkpt><trkpt lat="45.4786786" lon="11.4837144"><ele>237.0</ele><time>2026-05-02T09:13:07.538Z</time></trkpt><trkpt lat="45.4786956" lon="11.4835849"><ele>237.0</ele><time>2026-05-02T09:13:08.538Z</time></trkpt><trkpt lat="45.4787058" lon="11.4834516"><ele>237.0</ele><time>2026-05-02T09:13:09.538Z</time></trkpt><trkpt lat="45.478705" lon="11.4832753"><ele>236.5</ele><time>2026-05-02T09:13:10.538Z</time></trkpt><trkpt lat="45.478682" lon="11.4830715"><ele>236.0</ele><time>2026-05-02T09:13:11.538Z</time></trkpt><trkpt lat="45.4786515" lon="11.4828817"><ele>235.5</ele><time>2026-05-02T09:13:12.538Z</time></trkpt><trkpt lat="45.4786156" lon="11.4827036"><ele>235.0</ele><time>2026-05-02T09:13:13.538Z</time></trkpt><trkpt lat="45.4785846" lon="11.482538"><ele>235.99999999999997</ele><time>2026-05-02T09:13:14.537Z</time></trkpt><trkpt lat="45.4785511" lon="11.4823791"><ele>237.0</ele><time>2026-05-02T09:13:15.538Z</time></trkpt><trkpt lat="45.4785309" lon="11.4822431"><ele>238.0</ele><time>2026-05-02T09:13:16.538Z</time></trkpt><trkpt lat="45.4785062" lon="11.482115"><ele>239.0</ele><time>2026-05-02T09:13:17.538Z</time></trkpt><trkpt lat="45.4784675" lon="11.4820225"><ele>239.99999999999997</ele><time>2026-05-02T09:13:18.537Z</time></trkpt><trkpt lat="45.4784244" lon="11.481956"><ele>241.0</ele><time>2026-05-02T09:13:19.538Z</time></trkpt><trkpt lat="45.478365" lon="11.4819122"><ele>240.99999999999997</ele><time>2026-05-02T09:13:20.538Z</time></trkpt><trkpt lat="45.478298" lon="11.4818903"><ele>241.0</ele><time>2026-05-02T09:13:21.539Z</time></trkpt><trkpt lat="45.4782166" lon="11.4819069"><ele>241.0</ele><time>2026-05-02T09:13:22.538Z</time></trkpt><trkpt lat="45.4781429" lon="11.4819617"><ele>241.0</ele><time>2026-05-02T09:13:23.538Z</time></trkpt><trkpt lat="45.4780799" lon="11.4820544"><ele>240.99999999999997</ele><time>2026-05-02T09:13:24.538Z</time></trkpt><trkpt lat="45.478024" lon="11.4821826"><ele>241.0</ele><time>2026-05-02T09:13:25.539Z</time></trkpt><trkpt lat="45.4779714" lon="11.4823266"><ele>242.25</ele><time>2026-05-02T09:13:26.538Z</time></trkpt><trkpt lat="45.4779216" lon="11.4824855"><ele>243.5</ele><time>2026-05-02T09:13:27.538Z</time></trkpt><trkpt lat="45.4778681" lon="11.4826467"><ele>244.75</ele><time>2026-05-02T09:13:28.538Z</time></trkpt><trkpt lat="45.4778202" lon="11.4828025"><ele>246.0</ele><time>2026-05-02T09:13:29.539Z</time></trkpt><trkpt lat="45.4777744" lon="11.4829443"><ele>246.0</ele><time>2026-05-02T09:13:30.538Z</time></trkpt><trkpt lat="45.4777291" lon="11.4830741"><ele>246.00000000000003</ele><time>2026-05-02T09:13:31.538Z</time></trkpt><trkpt lat="45.4776879" lon="11.4831963"><ele>246.00000000000003</ele><time>2026-05-02T09:13:32.538Z</time></trkpt><trkpt lat="45.477643" lon="11.4833107"><ele>246.0</ele><time>2026-05-02T09:13:33.538Z</time></trkpt><trkpt lat="45.4776024" lon="11.4834127"><ele>246.0</ele><time>2026-05-02T09:13:34.537Z</time></trkpt><trkpt lat="45.477562" lon="11.4835126"><ele>246.0</ele><time>2026-05-02T09:13:35.538Z</time></trkpt><trkpt lat="45.4775235" lon="11.4836062"><ele>246.0</ele><time>2026-05-02T09:13:36.538Z</time></trkpt><trkpt lat="45.4774826" lon="11.4836991"><ele>246.0</ele><time>2026-05-02T09:13:37.538Z</time></trkpt><trkpt lat="45.4774415" lon="11.4837877"><ele>246.0</ele><time>2026-05-02T09:13:38.539Z</time></trkpt><trkpt lat="45.4774014" lon="11.4838728"><ele>246.0</ele><time>2026-05-02T09:13:39.538Z</time></trkpt><trkpt lat="45.4773537" lon="11.4839513"><ele>246.0</ele><time>2026-05-02T09:13:40.538Z</time></trkpt><trkpt lat="45.4772933" lon="11.4840258"><ele>243.66666666666666</ele><time>2026-05-02T09:13:41.539Z</time></trkpt><trkpt lat="45.4772286" lon="11.4840876"><ele>241.33333333333331</ele><time>2026-05-02T09:13:42.539Z</time></trkpt><trkpt lat="45.4771619" lon="11.4841379"><ele>239.0</ele><time>2026-05-02T09:13:43.537Z</time></trkpt><trkpt lat="45.4770821" lon="11.4841979"><ele>236.66666666666666</ele><time>2026-05-02T09:13:44.538Z</time></trkpt><trkpt lat="45.476991" lon="11.4842435"><ele>234.33333333333331</ele><time>2026-05-02T09:13:45.538Z</time></trkpt><trkpt lat="45.4768858" lon="11.4842671"><ele>232.0</ele><time>2026-05-02T09:13:46.539Z</time></trkpt><trkpt lat="45.4767676" lon="11.4842715"><ele>231.8</ele><time>2026-05-02T09:13:47.538Z</time></trkpt><trkpt lat="45.4766492" lon="11.4842169"><ele>231.6</ele><time>2026-05-02T09:13:48.538Z</time></trkpt><trkpt lat="45.4765371" lon="11.4841761"><ele>231.40000000000003</ele><time>2026-05-02T09:13:49.538Z</time></trkpt><trkpt lat="45.4764491" lon="11.4841153"><ele>231.20000000000002</ele><time>2026-05-02T09:13:50.539Z</time></trkpt><trkpt lat="45.4763874" lon="11.484026"><ele>231.0</ele><time>2026-05-02T09:13:51.538Z</time></trkpt><trkpt lat="45.4763625" lon="11.4839173"><ele>231.0</ele><time>2026-05-02T09:13:52.538Z</time></trkpt><trkpt lat="45.4763724" lon="11.4838078"><ele>231.00000000000003</ele><time>2026-05-02T09:13:53.538Z</time></trkpt><trkpt lat="45.4764028" lon="11.4836816"><ele>231.00000000000003</ele><time>2026-05-02T09:13:54.538Z</time></trkpt><trkpt lat="45.4764478" lon="11.4835367"><ele>231.0</ele><time>2026-05-02T09:13:55.537Z</time></trkpt><trkpt lat="45.4765012" lon="11.4833623"><ele>231.0</ele><time>2026-05-02T09:13:56.538Z</time></trkpt><trkpt lat="45.476558" lon="11.4831708"><ele>231.75</ele><time>2026-05-02T09:13:57.539Z</time></trkpt><trkpt lat="45.476615" lon="11.4829726"><ele>232.5</ele><time>2026-05-02T09:13:58.539Z</time></trkpt><trkpt lat="45.4766608" lon="11.4827734"><ele>233.25</ele><time>2026-05-02T09:13:59.538Z</time></trkpt><trkpt lat="45.4766904" lon="11.482562"><ele>234.0</ele><time>2026-05-02T09:14:00.537Z</time></trkpt><trkpt lat="45.4767101" lon="11.4823434"><ele>231.0</ele><time>2026-05-02T09:14:01.537Z</time></trkpt><trkpt lat="45.4767198" lon="11.48212"><ele>228.0</ele><time>2026-05-02T09:14:02.538Z</time></trkpt><trkpt lat="45.4767319" lon="11.481898"><ele>225.0</ele><time>2026-05-02T09:14:03.538Z</time></trkpt><trkpt lat="45.4767552" lon="11.481669"><ele>223.66666666666669</ele><time>2026-05-02T09:14:04.538Z</time></trkpt><trkpt lat="45.4767919" lon="11.4814256"><ele>222.33333333333334</ele><time>2026-05-02T09:14:05.538Z</time></trkpt><trkpt lat="45.4768357" lon="11.4811629"><ele>221.0</ele><time>2026-05-02T09:14:06.538Z</time></trkpt><trkpt lat="45.4768839" lon="11.4808773"><ele>217.33333333333334</ele><time>2026-05-02T09:14:07.538Z</time></trkpt><trkpt lat="45.4769353" lon="11.4805747"><ele>213.66666666666669</ele><time>2026-05-02T09:14:08.538Z</time></trkpt><trkpt lat="45.4769846" lon="11.4802996"><ele>210.0</ele><time>2026-05-02T09:14:09.538Z</time></trkpt><trkpt lat="45.4770357" lon="11.4800365"><ele>206.33333333333331</ele><time>2026-05-02T09:14:10.538Z</time></trkpt><trkpt lat="45.4770785" lon="11.4797867"><ele>202.66666666666666</ele><time>2026-05-02T09:14:11.538Z</time></trkpt><trkpt lat="45.4771151" lon="11.4795046"><ele>199.0</ele><time>2026-05-02T09:14:12.538Z</time></trkpt><trkpt lat="45.4771321" lon="11.4791948"><ele>214.66666666666666</ele><time>2026-05-02T09:14:13.538Z</time></trkpt><trkpt lat="45.477128" lon="11.4788858"><ele>230.33333333333331</ele><time>2026-05-02T09:14:14.539Z</time></trkpt><trkpt lat="45.4771204" lon="11.4785905"><ele>246.0</ele><time>2026-05-02T09:14:15.539Z</time></trkpt><trkpt lat="45.4771089" lon="11.4783113"><ele>228.33333333333331</ele><time>2026-05-02T09:14:16.538Z</time></trkpt><trkpt lat="45.477094" lon="11.4780677"><ele>210.66666666666666</ele><time>2026-05-02T09:14:17.538Z</time></trkpt><trkpt lat="45.4770784" lon="11.4778467"><ele>193.0</ele><time>2026-05-02T09:14:18.537Z</time></trkpt><trkpt lat="45.477079" lon="11.4776262"><ele>192.33333333333331</ele><time>2026-05-02T09:14:19.539Z</time></trkpt><trkpt lat="45.4770973" lon="11.4773737"><ele>191.66666666666666</ele><time>2026-05-02T09:14:20.539Z</time></trkpt><trkpt lat="45.4771215" lon="11.4770986"><ele>191.0</ele><time>2026-05-02T09:14:21.538Z</time></trkpt><trkpt lat="45.4771383" lon="11.4768102"><ele>215.5</ele><time>2026-05-02T09:14:22.538Z</time></trkpt><trkpt lat="45.4771437" lon="11.4764943"><ele>240.0</ele><time>2026-05-02T09:14:23.538Z</time></trkpt><trkpt lat="45.4771297" lon="11.4761505"><ele>240.0</ele><time>2026-05-02T09:14:24.539Z</time></trkpt><trkpt lat="45.4771086" lon="11.4758184"><ele>240.0</ele><time>2026-05-02T09:14:25.538Z</time></trkpt><trkpt lat="45.4770953" lon="11.4755044"><ele>224.0</ele><time>2026-05-02T09:14:26.538Z</time></trkpt><trkpt lat="45.4770864" lon="11.4751915"><ele>208.0</ele><time>2026-05-02T09:14:27.538Z</time></trkpt><trkpt lat="45.477081" lon="11.4749111"><ele>192.0</ele><time>2026-05-02T09:14:28.538Z</time></trkpt><trkpt lat="45.4770863" lon="11.4746601"><ele>191.33333333333334</ele><time>2026-05-02T09:14:29.538Z</time></trkpt><trkpt lat="45.4770991" lon="11.4744138"><ele>190.66666666666669</ele><time>2026-05-02T09:14:30.538Z</time></trkpt><trkpt lat="45.4771132" lon="11.4741679"><ele>190.0</ele><time>2026-05-02T09:14:31.538Z</time></trkpt><trkpt lat="45.4771708" lon="11.4739292"><ele>196.75</ele><time>2026-05-02T09:14:32.537Z</time></trkpt><trkpt lat="45.4771992" lon="11.4737134"><ele>203.5</ele><time>2026-05-02T09:14:33.538Z</time></trkpt><trkpt lat="45.477224" lon="11.4735062"><ele>210.25</ele><time>2026-05-02T09:14:34.539Z</time></trkpt><trkpt lat="45.4772316" lon="11.4732995"><ele>217.0</ele><time>2026-05-02T09:14:35.538Z</time></trkpt><trkpt lat="45.477221" lon="11.4730999"><ele>216.25</ele><time>2026-05-02T09:14:36.537Z</time></trkpt><trkpt lat="45.4771911" lon="11.472908"><ele>215.5</ele><time>2026-05-02T09:14:37.538Z</time></trkpt><trkpt lat="45.4771473" lon="11.4727391"><ele>214.75</ele><time>2026-05-02T09:14:38.538Z</time></trkpt><trkpt lat="45.4770834" lon="11.4725972"><ele>214.0</ele><time>2026-05-02T09:14:39.538Z</time></trkpt><trkpt lat="45.4770054" lon="11.4724862"><ele>208.2</ele><time>2026-05-02T09:14:40.538Z</time></trkpt><trkpt lat="45.4769279" lon="11.4723884"><ele>202.39999999999998</ele><time>2026-05-02T09:14:41.538Z</time></trkpt><trkpt lat="45.4768629" lon="11.4722912"><ele>196.6</ele><time>2026-05-02T09:14:42.538Z</time></trkpt><trkpt lat="45.4768123" lon="11.4721756"><ele>190.8</ele><time>2026-05-02T09:14:43.538Z</time></trkpt><trkpt lat="45.4767828" lon="11.4720351"><ele>185.0</ele><time>2026-05-02T09:14:44.539Z</time></trkpt><trkpt lat="45.4767692" lon="11.4718772"><ele>184.75</ele><time>2026-05-02T09:14:45.538Z</time></trkpt><trkpt lat="45.4767554" lon="11.4716943"><ele>184.5</ele><time>2026-05-02T09:14:46.539Z</time></trkpt><trkpt lat="45.4767398" lon="11.4714976"><ele>184.25</ele><time>2026-05-02T09:14:47.538Z</time></trkpt><trkpt lat="45.4767259" lon="11.4713046"><ele>184.0</ele><time>2026-05-02T09:14:48.538Z</time></trkpt><trkpt lat="45.4767128" lon="11.4711164"><ele>184.0</ele><time>2026-05-02T09:14:49.538Z</time></trkpt><trkpt lat="45.4766964" lon="11.4709374"><ele>184.0</ele><time>2026-05-02T09:14:50.538Z</time></trkpt><trkpt lat="45.4766797" lon="11.470765"><ele>184.0</ele><time>2026-05-02T09:14:51.539Z</time></trkpt><trkpt lat="45.4766641" lon="11.4705991"><ele>184.0</ele><time>2026-05-02T09:14:52.538Z</time></trkpt><trkpt lat="45.4766389" lon="11.4704252"><ele>184.0</ele><time>2026-05-02T09:14:53.537Z</time></trkpt><trkpt lat="45.4766026" lon="11.4702456"><ele>184.0</ele><time>2026-05-02T09:14:54.538Z</time></trkpt><trkpt lat="45.4765622" lon="11.4700619"><ele>184.0</ele><time>2026-05-02T09:14:55.537Z</time></trkpt><trkpt lat="45.4765362" lon="11.4698736"><ele>184.0</ele><time>2026-05-02T09:14:56.538Z</time></trkpt><trkpt lat="45.4765268" lon="11.4696906"><ele>185.2</ele><time>2026-05-02T09:14:57.537Z</time></trkpt><trkpt lat="45.4765099" lon="11.4695289"><ele>186.39999999999998</ele><time>2026-05-02T09:14:58.539Z</time></trkpt><trkpt lat="45.4764773" lon="11.4694054"><ele>187.6</ele><time>2026-05-02T09:14:59.538Z</time></trkpt><trkpt lat="45.4764265" lon="11.4692984"><ele>188.8</ele><time>2026-05-02T09:15:00.538Z</time></trkpt><trkpt lat="45.4763567" lon="11.4692071"><ele>190.0</ele><time>2026-05-02T09:15:01.538Z</time></trkpt><trkpt lat="45.4762743" lon="11.4691105"><ele>187.75</ele><time>2026-05-02T09:15:02.538Z</time></trkpt><trkpt lat="45.4761833" lon="11.4690058"><ele>185.5</ele><time>2026-05-02T09:15:03.538Z</time></trkpt><trkpt lat="45.4760873" lon="11.4688866"><ele>183.25</ele><time>2026-05-02T09:15:04.538Z</time></trkpt><trkpt lat="45.4759982" lon="11.4687498"><ele>181.0</ele><time>2026-05-02T09:15:05.539Z</time></trkpt><trkpt lat="45.4759141" lon="11.4686053"><ele>181.0</ele><time>2026-05-02T09:15:06.538Z</time></trkpt><trkpt lat="45.4758254" lon="11.4684678"><ele>181.0</ele><time>2026-05-02T09:15:07.539Z</time></trkpt><trkpt lat="45.4757461" lon="11.4683237"><ele>181.0</ele><time>2026-05-02T09:15:08.538Z</time></trkpt><trkpt lat="45.4756728" lon="11.4681725"><ele>181.0</ele><time>2026-05-02T09:15:09.537Z</time></trkpt><trkpt lat="45.4756037" lon="11.4680206"><ele>185.0</ele><time>2026-05-02T09:15:10.538Z</time></trkpt><trkpt lat="45.4755398" lon="11.4678747"><ele>189.0</ele><time>2026-05-02T09:15:11.537Z</time></trkpt><trkpt lat="45.4754768" lon="11.4677364"><ele>193.0</ele><time>2026-05-02T09:15:12.539Z</time></trkpt><trkpt lat="45.4754148" lon="11.467598"><ele>197.0</ele><time>2026-05-02T09:15:13.537Z</time></trkpt><trkpt lat="45.4753504" lon="11.4674648"><ele>190.5</ele><time>2026-05-02T09:15:14.539Z</time></trkpt><trkpt lat="45.4752874" lon="11.4673244"><ele>184.0</ele><time>2026-05-02T09:15:15.538Z</time></trkpt><trkpt lat="45.4752265" lon="11.4671806"><ele>177.5</ele><time>2026-05-02T09:15:16.537Z</time></trkpt><trkpt lat="45.4751678" lon="11.4670399"><ele>171.0</ele><time>2026-05-02T09:15:17.539Z</time></trkpt><trkpt lat="45.4751088" lon="11.4669074"><ele>171.0</ele><time>2026-05-02T09:15:18.539Z</time></trkpt><trkpt lat="45.4750618" lon="11.466771"><ele>171.0</ele><time>2026-05-02T09:15:19.538Z</time></trkpt><trkpt lat="45.4750338" lon="11.4666305"><ele>171.0</ele><time>2026-05-02T09:15:20.538Z</time></trkpt><trkpt lat="45.4750041" lon="11.4664919"><ele>171.0</ele><time>2026-05-02T09:15:21.538Z</time></trkpt><trkpt lat="45.4749802" lon="11.4663665"><ele>171.0</ele><time>2026-05-02T09:15:22.539Z</time></trkpt><trkpt lat="45.4749599" lon="11.4662773"><ele>172.16666666666666</ele><time>2026-05-02T09:15:23.538Z</time></trkpt><trkpt lat="45.4749343" lon="11.4661662"><ele>173.33333333333334</ele><time>2026-05-02T09:15:25.537Z</time></trkpt><trkpt lat="45.4749028" lon="11.4660743"><ele>174.5</ele><time>2026-05-02T09:15:40.538Z</time></trkpt><trkpt lat="45.4748229" lon="11.4659884"><ele>175.66666666666669</ele><time>2026-05-02T09:15:42.538Z</time></trkpt><trkpt lat="45.4747651" lon="11.4659298"><ele>176.83333333333334</ele><time>2026-05-02T09:15:43.539Z</time></trkpt><trkpt lat="45.4746957" lon="11.4658599"><ele>178.0</ele><time>2026-05-02T09:15:44.538Z</time></trkpt><trkpt lat="45.474625" lon="11.4657875"><ele>173.8</ele><time>2026-05-02T09:15:45.538Z</time></trkpt><trkpt lat="45.4745591" lon="11.4657072"><ele>169.60000000000002</ele><time>2026-05-02T09:15:46.538Z</time></trkpt><trkpt lat="45.4745017" lon="11.4656116"><ele>165.39999999999998</ele><time>2026-05-02T09:15:47.537Z</time></trkpt><trkpt lat="45.4744441" lon="11.4655044"><ele>161.2</ele><time>2026-05-02T09:15:48.538Z</time></trkpt><trkpt lat="45.4743849" lon="11.4653748"><ele>157.0</ele><time>2026-05-02T09:15:49.537Z</time></trkpt><trkpt lat="45.4743132" lon="11.4652467"><ele>157.0</ele><time>2026-05-02T09:15:50.537Z</time></trkpt><trkpt lat="45.4742337" lon="11.4651141"><ele>157.0</ele><time>2026-05-02T09:15:51.539Z</time></trkpt><trkpt lat="45.4741567" lon="11.46499"><ele>157.0</ele><time>2026-05-02T09:15:52.539Z</time></trkpt><trkpt lat="45.4740816" lon="11.464868"><ele>157.0</ele><time>2026-05-02T09:15:53.538Z</time></trkpt><trkpt lat="45.4740104" lon="11.4647586"><ele>157.0</ele><time>2026-05-02T09:15:54.538Z</time></trkpt><trkpt lat="45.4739419" lon="11.4646549"><ele>157.0</ele><time>2026-05-02T09:15:55.537Z</time></trkpt><trkpt lat="45.4738704" lon="11.4645567"><ele>157.0</ele><time>2026-05-02T09:15:56.538Z</time></trkpt><trkpt lat="45.4737968" lon="11.4644687"><ele>157.0</ele><time>2026-05-02T09:15:57.538Z</time></trkpt><trkpt lat="45.4737123" lon="11.4643964"><ele>157.0</ele><time>2026-05-02T09:15:58.538Z</time></trkpt><trkpt lat="45.473615" lon="11.4643253"><ele>155.2</ele><time>2026-05-02T09:15:59.538Z</time></trkpt><trkpt lat="45.4735138" lon="11.4642545"><ele>153.39999999999998</ele><time>2026-05-02T09:16:00.539Z</time></trkpt><trkpt lat="45.4734224" lon="11.4641871"><ele>151.60000000000002</ele><time>2026-05-02T09:16:01.538Z</time></trkpt><trkpt lat="45.4733245" lon="11.4641323"><ele>149.8</ele><time>2026-05-02T09:16:02.538Z</time></trkpt><trkpt lat="45.4732178" lon="11.464102"><ele>148.0</ele><time>2026-05-02T09:16:03.539Z</time></trkpt><trkpt lat="45.4731028" lon="11.464091"><ele>148.0</ele><time>2026-05-02T09:16:04.538Z</time></trkpt><trkpt lat="45.472988" lon="11.4640927"><ele>148.0</ele><time>2026-05-02T09:16:05.538Z</time></trkpt><trkpt lat="45.4728833" lon="11.464096"><ele>148.0</ele><time>2026-05-02T09:16:06.538Z</time></trkpt><trkpt lat="45.472786" lon="11.4640954"><ele>148.0</ele><time>2026-05-02T09:16:07.539Z</time></trkpt><trkpt lat="45.4726888" lon="11.4640857"><ele>148.0</ele><time>2026-05-02T09:16:08.537Z</time></trkpt><trkpt lat="45.4725992" lon="11.4640494"><ele>148.0</ele><time>2026-05-02T09:16:09.538Z</time></trkpt><trkpt lat="45.4725209" lon="11.4639894"><ele>148.0</ele><time>2026-05-02T09:16:10.538Z</time></trkpt><trkpt lat="45.4724441" lon="11.4639189"><ele>148.0</ele><time>2026-05-02T09:16:11.538Z</time></trkpt><trkpt lat="45.4723636" lon="11.4638447"><ele>148.0</ele><time>2026-05-02T09:16:12.539Z</time></trkpt><trkpt lat="45.4722887" lon="11.4637713"><ele>148.0</ele><time>2026-05-02T09:16:13.539Z</time></trkpt><trkpt lat="45.4722269" lon="11.4637013"><ele>148.0</ele><time>2026-05-02T09:16:14.539Z</time></trkpt><trkpt lat="45.4721717" lon="11.4636098"><ele>148.0</ele><time>2026-05-02T09:16:15.538Z</time></trkpt><trkpt lat="45.4721193" lon="11.463508"><ele>148.0</ele><time>2026-05-02T09:16:16.538Z</time></trkpt><trkpt lat="45.4720672" lon="11.463395"><ele>148.0</ele><time>2026-05-02T09:16:17.539Z</time></trkpt><trkpt lat="45.4720095" lon="11.4632687"><ele>148.0</ele><time>2026-05-02T09:16:18.538Z</time></trkpt><trkpt lat="45.4719458" lon="11.4631361"><ele>148.0</ele><time>2026-05-02T09:16:19.538Z</time></trkpt><trkpt lat="45.4718829" lon="11.462997"><ele>143.8</ele><time>2026-05-02T09:16:20.538Z</time></trkpt><trkpt lat="45.4718202" lon="11.4628536"><ele>139.60000000000002</ele><time>2026-05-02T09:16:21.538Z</time></trkpt><trkpt lat="45.4717585" lon="11.4627211"><ele>135.39999999999998</ele><time>2026-05-02T09:16:22.539Z</time></trkpt><trkpt lat="45.4717006" lon="11.4625939"><ele>131.2</ele><time>2026-05-02T09:16:23.538Z</time></trkpt><trkpt lat="45.4716593" lon="11.4624654"><ele>127.0</ele><time>2026-05-02T09:16:24.538Z</time></trkpt><trkpt lat="45.4716407" lon="11.4623392"><ele>127.0</ele><time>2026-05-02T09:16:25.537Z</time></trkpt><trkpt lat="45.4716272" lon="11.4621932"><ele>127.0</ele><time>2026-05-02T09:16:26.538Z</time></trkpt><trkpt lat="45.4716218" lon="11.4620357"><ele>127.0</ele><time>2026-05-02T09:16:27.538Z</time></trkpt><trkpt lat="45.4716231" lon="11.4618713"><ele>127.0</ele><time>2026-05-02T09:16:28.537Z</time></trkpt><trkpt lat="45.471623" lon="11.4616911"><ele>127.0</ele><time>2026-05-02T09:16:29.538Z</time></trkpt><trkpt lat="45.4716226" lon="11.4615165"><ele>127.0</ele><time>2026-05-02T09:16:30.538Z</time></trkpt><trkpt lat="45.471622" lon="11.4613488"><ele>127.0</ele><time>2026-05-02T09:16:31.537Z</time></trkpt><trkpt lat="45.4716181" lon="11.4611915"><ele>127.0</ele><time>2026-05-02T09:16:32.539Z</time></trkpt><trkpt lat="45.4716072" lon="11.4610351"><ele>126.5</ele><time>2026-05-02T09:16:33.538Z</time></trkpt><trkpt lat="45.4715775" lon="11.4608862"><ele>126.0</ele><time>2026-05-02T09:16:34.538Z</time></trkpt><trkpt lat="45.4715207" lon="11.4607426"><ele>125.5</ele><time>2026-05-02T09:16:35.538Z</time></trkpt><trkpt lat="45.4714438" lon="11.4606105"><ele>125.0</ele><time>2026-05-02T09:16:36.538Z</time></trkpt><trkpt lat="45.471356" lon="11.4604889"><ele>121.75</ele><time>2026-05-02T09:16:37.539Z</time></trkpt><trkpt lat="45.4712723" lon="11.460358"><ele>118.5</ele><time>2026-05-02T09:16:38.538Z</time></trkpt><trkpt lat="45.4712118" lon="11.4602087"><ele>115.25</ele><time>2026-05-02T09:16:39.539Z</time></trkpt><trkpt lat="45.4711563" lon="11.460051"><ele>112.0</ele><time>2026-05-02T09:16:40.538Z</time></trkpt><trkpt lat="45.471103" lon="11.4599063"><ele>112.0</ele><time>2026-05-02T09:16:41.537Z</time></trkpt><trkpt lat="45.4710332" lon="11.4597812"><ele>112.0</ele><time>2026-05-02T09:16:42.537Z</time></trkpt><trkpt lat="45.4709443" lon="11.4596744"><ele>112.0</ele><time>2026-05-02T09:16:43.539Z</time></trkpt><trkpt lat="45.4708411" lon="11.4595732"><ele>112.0</ele><time>2026-05-02T09:16:44.538Z</time></trkpt><trkpt lat="45.4707338" lon="11.4594696"><ele>111.0</ele><time>2026-05-02T09:16:45.538Z</time></trkpt><trkpt lat="45.4706253" lon="11.4593672"><ele>110.0</ele><time>2026-05-02T09:16:46.539Z</time></trkpt><trkpt lat="45.4705186" lon="11.4592774"><ele>109.0</ele><time>2026-05-02T09:16:47.537Z</time></trkpt><trkpt lat="45.4704141" lon="11.4591992"><ele>108.0</ele><time>2026-05-02T09:16:48.539Z</time></trkpt><trkpt lat="45.4703045" lon="11.4591394"><ele>108.0</ele><time>2026-05-02T09:16:49.538Z</time></trkpt><trkpt lat="45.4701969" lon="11.4590933"><ele>108.00000000000001</ele><time>2026-05-02T09:16:50.538Z</time></trkpt><trkpt lat="45.4700989" lon="11.4590587"><ele>108.00000000000001</ele><time>2026-05-02T09:16:51.537Z</time></trkpt><trkpt lat="45.4700057" lon="11.4590203"><ele>108.0</ele><time>2026-05-02T09:16:52.539Z</time></trkpt><trkpt lat="45.4699208" lon="11.4589683"><ele>108.0</ele><time>2026-05-02T09:16:53.537Z</time></trkpt><trkpt lat="45.4698468" lon="11.4589038"><ele>108.0</ele><time>2026-05-02T09:16:54.537Z</time></trkpt><trkpt lat="45.4697783" lon="11.4588258"><ele>108.00000000000001</ele><time>2026-05-02T09:16:55.539Z</time></trkpt><trkpt lat="45.469716" lon="11.4587328"><ele>108.00000000000001</ele><time>2026-05-02T09:16:56.538Z</time></trkpt><trkpt lat="45.469663" lon="11.4586175"><ele>108.0</ele><time>2026-05-02T09:16:57.539Z</time></trkpt><trkpt lat="45.4696139" lon="11.4584826"><ele>108.0</ele><time>2026-05-02T09:16:58.538Z</time></trkpt><trkpt lat="45.4695611" lon="11.4583461"><ele>103.4</ele><time>2026-05-02T09:16:59.538Z</time></trkpt><trkpt lat="45.4695138" lon="11.4582113"><ele>98.80000000000001</ele><time>2026-05-02T09:17:00.537Z</time></trkpt><trkpt lat="45.4694693" lon="11.4580873"><ele>94.2</ele><time>2026-05-02T09:17:01.539Z</time></trkpt><trkpt lat="45.4694289" lon="11.4579682"><ele>89.6</ele><time>2026-05-02T09:17:02.539Z</time></trkpt><trkpt lat="45.4693958" lon="11.457844"><ele>85.0</ele><time>2026-05-02T09:17:03.538Z</time></trkpt><trkpt lat="45.4693763" lon="11.4577166"><ele>84.6</ele><time>2026-05-02T09:17:04.538Z</time></trkpt><trkpt lat="45.4693771" lon="11.4575852"><ele>84.2</ele><time>2026-05-02T09:17:05.538Z</time></trkpt><trkpt lat="45.4693876" lon="11.4574457"><ele>83.80000000000001</ele><time>2026-05-02T09:17:06.537Z</time></trkpt><trkpt lat="45.4694175" lon="11.4573031"><ele>83.4</ele><time>2026-05-02T09:17:07.538Z</time></trkpt><trkpt lat="45.469452" lon="11.4571457"><ele>83.0</ele><time>2026-05-02T09:17:08.538Z</time></trkpt><trkpt lat="45.4694944" lon="11.4569766"><ele>81.75</ele><time>2026-05-02T09:17:09.538Z</time></trkpt><trkpt lat="45.4695409" lon="11.4568048"><ele>80.5</ele><time>2026-05-02T09:17:10.538Z</time></trkpt><trkpt lat="45.4695888" lon="11.4566309"><ele>79.25</ele><time>2026-05-02T09:17:11.538Z</time></trkpt><trkpt lat="45.4696392" lon="11.4564593"><ele>78.0</ele><time>2026-05-02T09:17:12.538Z</time></trkpt><trkpt lat="45.4696919" lon="11.4562899"><ele>82.75</ele><time>2026-05-02T09:17:13.538Z</time></trkpt><trkpt lat="45.4697452" lon="11.4561281"><ele>87.5</ele><time>2026-05-02T09:17:14.539Z</time></trkpt><trkpt lat="45.4697823" lon="11.4559621"><ele>92.25</ele><time>2026-05-02T09:17:15.538Z</time></trkpt><trkpt lat="45.4698107" lon="11.4557942"><ele>97.0</ele><time>2026-05-02T09:17:16.537Z</time></trkpt><trkpt lat="45.4698368" lon="11.4556234"><ele>96.75</ele><time>2026-05-02T09:17:17.538Z</time></trkpt><trkpt lat="45.4698403" lon="11.4554468"><ele>96.5</ele><time>2026-05-02T09:17:18.538Z</time></trkpt><trkpt lat="45.4698457" lon="11.4552771"><ele>96.25</ele><time>2026-05-02T09:17:19.539Z</time></trkpt><trkpt lat="45.4698467" lon="11.4551076"><ele>96.0</ele><time>2026-05-02T09:17:20.538Z</time></trkpt><trkpt lat="45.469846" lon="11.4549419"><ele>96.0</ele><time>2026-05-02T09:17:21.538Z</time></trkpt><trkpt lat="45.4698333" lon="11.4547784"><ele>96.0</ele><time>2026-05-02T09:17:22.538Z</time></trkpt><trkpt lat="45.4698027" lon="11.4546162"><ele>96.0</ele><time>2026-05-02T09:17:23.538Z</time></trkpt><trkpt lat="45.4697608" lon="11.4544631"><ele>96.0</ele><time>2026-05-02T09:17:24.538Z</time></trkpt><trkpt lat="45.4697211" lon="11.4543174"><ele>95.8</ele><time>2026-05-02T09:17:25.538Z</time></trkpt><trkpt lat="45.4696806" lon="11.4541892"><ele>95.6</ele><time>2026-05-02T09:17:26.538Z</time></trkpt><trkpt lat="45.4696423" lon="11.4540612"><ele>95.4</ele><time>2026-05-02T09:17:27.538Z</time></trkpt><trkpt lat="45.4696091" lon="11.4539424"><ele>95.2</ele><time>2026-05-02T09:17:28.538Z</time></trkpt><trkpt lat="45.4695804" lon="11.4538234"><ele>95.0</ele><time>2026-05-02T09:17:29.539Z</time></trkpt><trkpt lat="45.4695606" lon="11.4537083"><ele>93.16666666666667</ele><time>2026-05-02T09:17:30.538Z</time></trkpt><trkpt lat="45.4695514" lon="11.4535939"><ele>91.33333333333334</ele><time>2026-05-02T09:17:31.539Z</time></trkpt><trkpt lat="45.4695432" lon="11.4534855"><ele>89.5</ele><time>2026-05-02T09:17:32.538Z</time></trkpt><trkpt lat="45.469547" lon="11.4533872"><ele>87.66666666666667</ele><time>2026-05-02T09:17:33.538Z</time></trkpt><trkpt lat="45.4695546" lon="11.4532328"><ele>85.83333333333333</ele><time>2026-05-02T09:17:35.538Z</time></trkpt><trkpt lat="45.4695538" lon="11.4531385"><ele>84.0</ele><time>2026-05-02T09:17:37.539Z</time></trkpt><trkpt lat="45.4694956" lon="11.4530856"><ele>84.0</ele><time>2026-05-02T09:17:39.537Z</time></trkpt><trkpt lat="45.4693801" lon="11.453038"><ele>84.0</ele><time>2026-05-02T09:17:41.538Z</time></trkpt><trkpt lat="45.4693025" lon="11.4529879"><ele>84.0</ele><time>2026-05-02T09:17:42.537Z</time></trkpt><trkpt lat="45.4692134" lon="11.4529296"><ele>84.0</ele><time>2026-05-02T09:17:43.537Z</time></trkpt><trkpt lat="45.46911" lon="11.4528496"><ele>84.0</ele><time>2026-05-02T09:17:44.539Z</time></trkpt><trkpt lat="45.4689809" lon="11.4527366"><ele>85.33333333333333</ele><time>2026-05-02T09:17:45.539Z</time></trkpt><trkpt lat="45.4688328" lon="11.4526044"><ele>86.66666666666666</ele><time>2026-05-02T09:17:46.538Z</time></trkpt><trkpt lat="45.4686682" lon="11.4524759"><ele>88.0</ele><time>2026-05-02T09:17:47.538Z</time></trkpt><trkpt lat="45.4685084" lon="11.4523563"><ele>85.0</ele><time>2026-05-02T09:17:48.539Z</time></trkpt><trkpt lat="45.4683568" lon="11.4522486"><ele>82.0</ele><time>2026-05-02T09:17:49.538Z</time></trkpt><trkpt lat="45.4682185" lon="11.4521573"><ele>79.0</ele><time>2026-05-02T09:17:50.538Z</time></trkpt><trkpt lat="45.4680884" lon="11.4520722"><ele>78.25</ele><time>2026-05-02T09:17:51.538Z</time></trkpt><trkpt lat="45.4679628" lon="11.4520025"><ele>77.5</ele><time>2026-05-02T09:17:52.537Z</time></trkpt><trkpt lat="45.4678365" lon="11.4519617"><ele>76.75</ele><time>2026-05-02T09:17:53.538Z</time></trkpt><trkpt lat="45.4677085" lon="11.451956"><ele>76.0</ele><time>2026-05-02T09:17:54.538Z</time></trkpt><trkpt lat="45.467577" lon="11.4519899"><ele>76.25</ele><time>2026-05-02T09:17:55.539Z</time></trkpt><trkpt lat="45.4674492" lon="11.4520412"><ele>76.5</ele><time>2026-05-02T09:17:56.538Z</time></trkpt><trkpt lat="45.4673244" lon="11.4520909"><ele>76.75</ele><time>2026-05-02T09:17:57.538Z</time></trkpt><trkpt lat="45.4672089" lon="11.4521266"><ele>77.0</ele><time>2026-05-02T09:17:58.538Z</time></trkpt><trkpt lat="45.4670941" lon="11.4521486"><ele>76.0</ele><time>2026-05-02T09:17:59.538Z</time></trkpt><trkpt lat="45.4669702" lon="11.4521396"><ele>75.0</ele><time>2026-05-02T09:18:00.538Z</time></trkpt><trkpt lat="45.4668557" lon="11.4521073"><ele>74.0</ele><time>2026-05-02T09:18:01.538Z</time></trkpt><trkpt lat="45.4667355" lon="11.4520616"><ele>73.0</ele><time>2026-05-02T09:18:02.538Z</time></trkpt><trkpt lat="45.4666145" lon="11.4519842"><ele>73.66666666666666</ele><time>2026-05-02T09:18:03.538Z</time></trkpt><trkpt lat="45.4664868" lon="11.4518796"><ele>74.33333333333333</ele><time>2026-05-02T09:18:04.539Z</time></trkpt><trkpt lat="45.4663524" lon="11.4517453"><ele>75.0</ele><time>2026-05-02T09:18:05.538Z</time></trkpt><trkpt lat="45.4662086" lon="11.4516115"><ele>75.0</ele><time>2026-05-02T09:18:06.538Z</time></trkpt><trkpt lat="45.4660742" lon="11.451486"><ele>75.0</ele><time>2026-05-02T09:18:07.538Z</time></trkpt><trkpt lat="45.4659652" lon="11.4513807"><ele>75.0</ele><time>2026-05-02T09:18:08.537Z</time></trkpt><trkpt lat="45.465851" lon="11.4512919"><ele>75.0</ele><time>2026-05-02T09:18:09.538Z</time></trkpt><trkpt lat="45.465726" lon="11.4512254"><ele>75.0</ele><time>2026-05-02T09:18:10.539Z</time></trkpt><trkpt lat="45.4655847" lon="11.4511901"><ele>75.0</ele><time>2026-05-02T09:18:11.537Z</time></trkpt><trkpt lat="45.4654245" lon="11.4511889"><ele>75.0</ele><time>2026-05-02T09:18:12.538Z</time></trkpt><trkpt lat="45.4652539" lon="11.451202"><ele>75.33333333333333</ele><time>2026-05-02T09:18:13.538Z</time></trkpt><trkpt lat="45.4650674" lon="11.4512179"><ele>75.66666666666666</ele><time>2026-05-02T09:18:14.538Z</time></trkpt><trkpt lat="45.4648786" lon="11.451233"><ele>76.0</ele><time>2026-05-02T09:18:15.538Z</time></trkpt><trkpt lat="45.4646884" lon="11.4512506"><ele>76.66666666666666</ele><time>2026-05-02T09:18:16.538Z</time></trkpt><trkpt lat="45.4645017" lon="11.4512682"><ele>77.33333333333333</ele><time>2026-05-02T09:18:17.538Z</time></trkpt><trkpt lat="45.4643237" lon="11.4512852"><ele>78.0</ele><time>2026-05-02T09:18:18.538Z</time></trkpt><trkpt lat="45.4641585" lon="11.4513058"><ele>78.0</ele><time>2026-05-02T09:18:19.539Z</time></trkpt><trkpt lat="45.4639978" lon="11.4513279"><ele>78.0</ele><time>2026-05-02T09:18:20.538Z</time></trkpt><trkpt lat="45.4638399" lon="11.4513511"><ele>78.0</ele><time>2026-05-02T09:18:21.537Z</time></trkpt><trkpt lat="45.4636873" lon="11.4513757"><ele>79.0</ele><time>2026-05-02T09:18:22.537Z</time></trkpt><trkpt lat="45.4635359" lon="11.4514011"><ele>80.0</ele><time>2026-05-02T09:18:23.539Z</time></trkpt><trkpt lat="45.4633869" lon="11.4514279"><ele>81.0</ele><time>2026-05-02T09:18:24.538Z</time></trkpt><trkpt lat="45.4632342" lon="11.4514682"><ele>81.0</ele><time>2026-05-02T09:18:25.538Z</time></trkpt><trkpt lat="45.4630824" lon="11.4515092"><ele>81.0</ele><time>2026-05-02T09:18:26.538Z</time></trkpt><trkpt lat="45.4629395" lon="11.4515403"><ele>81.0</ele><time>2026-05-02T09:18:27.539Z</time></trkpt><trkpt lat="45.4628091" lon="11.4515644"><ele>81.0</ele><time>2026-05-02T09:18:28.539Z</time></trkpt><trkpt lat="45.4626906" lon="11.451582"><ele>82.25</ele><time>2026-05-02T09:18:29.537Z</time></trkpt><trkpt lat="45.462573" lon="11.4515907"><ele>83.5</ele><time>2026-05-02T09:18:30.538Z</time></trkpt><trkpt lat="45.4624503" lon="11.4515888"><ele>84.75</ele><time>2026-05-02T09:18:31.537Z</time></trkpt><trkpt lat="45.4623228" lon="11.4515649"><ele>86.0</ele><time>2026-05-02T09:18:32.538Z</time></trkpt><trkpt lat="45.4621898" lon="11.4515311"><ele>84.25</ele><time>2026-05-02T09:18:33.538Z</time></trkpt><trkpt lat="45.4620562" lon="11.4515046"><ele>82.5</ele><time>2026-05-02T09:18:34.539Z</time></trkpt><trkpt lat="45.4619238" lon="11.4514878"><ele>80.75</ele><time>2026-05-02T09:18:35.538Z</time></trkpt><trkpt lat="45.4617921" lon="11.4514824"><ele>79.0</ele><time>2026-05-02T09:18:36.537Z</time></trkpt><trkpt lat="45.4616654" lon="11.4514844"><ele>79.0</ele><time>2026-05-02T09:18:37.539Z</time></trkpt><trkpt lat="45.4615558" lon="11.4514876"><ele>79.0</ele><time>2026-05-02T09:18:38.538Z</time></trkpt><trkpt lat="45.4614572" lon="11.4514827"><ele>79.0</ele><time>2026-05-02T09:18:39.538Z</time></trkpt><trkpt lat="45.461361" lon="11.4514713"><ele>79.0</ele><time>2026-05-02T09:18:40.539Z</time></trkpt><trkpt lat="45.4612663" lon="11.4514533"><ele>79.0</ele><time>2026-05-02T09:18:41.538Z</time></trkpt><trkpt lat="45.4612004" lon="11.4513333"><ele>77.5</ele><time>2026-05-02T09:18:42.538Z</time></trkpt><trkpt lat="45.4611262" lon="11.451215"><ele>76.0</ele><time>2026-05-02T09:18:43.538Z</time></trkpt><trkpt lat="45.4610493" lon="11.45107"><ele>74.5</ele><time>2026-05-02T09:18:44.539Z</time></trkpt><trkpt lat="45.4609615" lon="11.4509305"><ele>73.0</ele><time>2026-05-02T09:18:45.538Z</time></trkpt><trkpt lat="45.4608566" lon="11.4508086"><ele>73.0</ele><time>2026-05-02T09:18:46.539Z</time></trkpt><trkpt lat="45.460744" lon="11.4507044"><ele>73.0</ele><time>2026-05-02T09:18:47.538Z</time></trkpt><trkpt lat="45.4606255" lon="11.4506047"><ele>73.0</ele><time>2026-05-02T09:18:48.538Z</time></trkpt><trkpt lat="45.46051" lon="11.4504962"><ele>73.0</ele><time>2026-05-02T09:18:49.536Z</time></trkpt><trkpt lat="45.4603936" lon="11.4503582"><ele>71.33333333333333</ele><time>2026-05-02T09:18:50.538Z</time></trkpt><trkpt lat="45.4602775" lon="11.4501981"><ele>69.66666666666667</ele><time>2026-05-02T09:18:51.538Z</time></trkpt><trkpt lat="45.4601538" lon="11.4500228"><ele>68.0</ele><time>2026-05-02T09:18:52.538Z</time></trkpt><trkpt lat="45.4600168" lon="11.4498225"><ele>74.33333333333334</ele><time>2026-05-02T09:18:53.539Z</time></trkpt><trkpt lat="45.4598784" lon="11.4496182"><ele>80.66666666666667</ele><time>2026-05-02T09:18:54.537Z</time></trkpt><trkpt lat="45.4597454" lon="11.4494216"><ele>87.0</ele><time>2026-05-02T09:18:55.539Z</time></trkpt><trkpt lat="45.4596242" lon="11.4492436"><ele>83.0</ele><time>2026-05-02T09:18:56.538Z</time></trkpt><trkpt lat="45.4595094" lon="11.4490882"><ele>79.0</ele><time>2026-05-02T09:18:57.537Z</time></trkpt><trkpt lat="45.4594029" lon="11.4489551"><ele>75.0</ele><time>2026-05-02T09:18:58.538Z</time></trkpt><trkpt lat="45.4592967" lon="11.4488448"><ele>71.0</ele><time>2026-05-02T09:18:59.539Z</time></trkpt><trkpt lat="45.459194" lon="11.44874"><ele>71.0</ele><time>2026-05-02T09:19:00.538Z</time></trkpt><trkpt lat="45.4591004" lon="11.4486221"><ele>71.0</ele><time>2026-05-02T09:19:01.538Z</time></trkpt><trkpt lat="45.4590216" lon="11.448479"><ele>71.0</ele><time>2026-05-02T09:19:02.539Z</time></trkpt><trkpt lat="45.4589449" lon="11.4483249"><ele>71.0</ele><time>2026-05-02T09:19:03.538Z</time></trkpt><trkpt lat="45.458867" lon="11.4481623"><ele>71.0</ele><time>2026-05-02T09:19:04.538Z</time></trkpt><trkpt lat="45.4587899" lon="11.4479914"><ele>71.0</ele><time>2026-05-02T09:19:05.539Z</time></trkpt><trkpt lat="45.4587162" lon="11.4478216"><ele>71.0</ele><time>2026-05-02T09:19:06.539Z</time></trkpt><trkpt lat="45.4586466" lon="11.4476549"><ele>71.0</ele><time>2026-05-02T09:19:07.538Z</time></trkpt><trkpt lat="45.45858" lon="11.4474923"><ele>67.5</ele><time>2026-05-02T09:19:08.537Z</time></trkpt><trkpt lat="45.4585176" lon="11.4473322"><ele>64.0</ele><time>2026-05-02T09:19:09.538Z</time></trkpt><trkpt lat="45.4584613" lon="11.4471846"><ele>60.5</ele><time>2026-05-02T09:19:10.539Z</time></trkpt><trkpt lat="45.4584093" lon="11.4470429"><ele>57.0</ele><time>2026-05-02T09:19:11.538Z</time></trkpt><trkpt lat="45.4583632" lon="11.4469053"><ele>57.0</ele><time>2026-05-02T09:19:12.538Z</time></trkpt><trkpt lat="45.4583201" lon="11.4467744"><ele>57.0</ele><time>2026-05-02T09:19:13.537Z</time></trkpt><trkpt lat="45.4582771" lon="11.4466494"><ele>57.0</ele><time>2026-05-02T09:19:14.539Z</time></trkpt><trkpt lat="45.4582294" lon="11.4465283"><ele>57.0</ele><time>2026-05-02T09:19:15.538Z</time></trkpt><trkpt lat="45.4581749" lon="11.4464121"><ele>57.0</ele><time>2026-05-02T09:19:16.538Z</time></trkpt><trkpt lat="45.4581142" lon="11.4463029"><ele>55.8</ele><time>2026-05-02T09:19:17.538Z</time></trkpt><trkpt lat="45.4580442" lon="11.4462001"><ele>54.6</ele><time>2026-05-02T09:19:18.538Z</time></trkpt><trkpt lat="45.4579741" lon="11.4460945"><ele>53.4</ele><time>2026-05-02T09:19:19.538Z</time></trkpt><trkpt lat="45.4579063" lon="11.4459862"><ele>52.199999999999996</ele><time>2026-05-02T09:19:20.538Z</time></trkpt><trkpt lat="45.4578425" lon="11.4458901"><ele>51.0</ele><time>2026-05-02T09:19:21.539Z</time></trkpt><trkpt lat="45.4577884" lon="11.4457997"><ele>50.166666666666664</ele><time>2026-05-02T09:19:22.538Z</time></trkpt><trkpt lat="45.4577427" lon="11.4457349"><ele>49.333333333333336</ele><time>2026-05-02T09:19:23.538Z</time></trkpt><trkpt lat="45.457668" lon="11.4456539"><ele>48.5</ele><time>2026-05-02T09:19:25.538Z</time></trkpt><trkpt lat="45.4575893" lon="11.4456986"><ele>47.66666666666667</ele><time>2026-05-02T09:19:27.538Z</time></trkpt><trkpt lat="45.4575607" lon="11.4457801"><ele>46.833333333333336</ele><time>2026-05-02T09:19:28.538Z</time></trkpt><trkpt lat="45.4575235" lon="11.4458859"><ele>46.0</ele><time>2026-05-02T09:19:29.537Z</time></trkpt><trkpt lat="45.4574697" lon="11.4459957"><ele>46.0</ele><time>2026-05-02T09:19:30.538Z</time></trkpt><trkpt lat="45.4574068" lon="11.4461137"><ele>46.0</ele><time>2026-05-02T09:19:31.538Z</time></trkpt><trkpt lat="45.45734" lon="11.4462279"><ele>46.0</ele><time>2026-05-02T09:19:32.538Z</time></trkpt><trkpt lat="45.4572698" lon="11.4463329"><ele>46.0</ele><time>2026-05-02T09:19:33.539Z</time></trkpt><trkpt lat="45.457189" lon="11.4464133"><ele>46.0</ele><time>2026-05-02T09:19:34.538Z</time></trkpt><trkpt lat="45.4571116" lon="11.4464852"><ele>45.5</ele><time>2026-05-02T09:19:35.538Z</time></trkpt><trkpt lat="45.4570252" lon="11.446492"><ele>45.0</ele><time>2026-05-02T09:19:36.538Z</time></trkpt><trkpt lat="45.4569597" lon="11.4465121"><ele>44.5</ele><time>2026-05-02T09:19:37.538Z</time></trkpt><trkpt lat="45.4568889" lon="11.4465295"><ele>44.0</ele><time>2026-05-02T09:19:39.538Z</time></trkpt><trkpt lat="45.4568" lon="11.4465399"><ele>43.5</ele><time>2026-05-02T09:19:42.537Z</time></trkpt><trkpt lat="45.4567143" lon="11.4465974"><ele>43.0</ele><time>2026-05-02T09:19:44.538Z</time></trkpt><trkpt lat="45.4566961" lon="11.4466856"><ele>43.0</ele><time>2026-05-02T09:19:45.538Z</time></trkpt><trkpt lat="45.4566875" lon="11.4468057"><ele>43.0</ele><time>2026-05-02T09:19:46.538Z</time></trkpt><trkpt lat="45.456663" lon="11.4469769"><ele>43.0</ele><time>2026-05-02T09:19:47.538Z</time></trkpt><trkpt lat="45.4566223" lon="11.4471816"><ele>43.0</ele><time>2026-05-02T09:19:48.539Z</time></trkpt><trkpt lat="45.4565772" lon="11.4474047"><ele>43.333333333333336</ele><time>2026-05-02T09:19:49.539Z</time></trkpt><trkpt lat="45.4565307" lon="11.4476326"><ele>43.666666666666664</ele><time>2026-05-02T09:19:50.537Z</time></trkpt><trkpt lat="45.4564904" lon="11.4478434"><ele>44.0</ele><time>2026-05-02T09:19:51.538Z</time></trkpt><trkpt lat="45.4564558" lon="11.4480412"><ele>43.75</ele><time>2026-05-02T09:19:52.538Z</time></trkpt><trkpt lat="45.4564077" lon="11.4482311"><ele>43.5</ele><time>2026-05-02T09:19:53.539Z</time></trkpt><trkpt lat="45.4563372" lon="11.44842"><ele>43.25</ele><time>2026-05-02T09:19:54.537Z</time></trkpt><trkpt lat="45.456245" lon="11.4486022"><ele>43.0</ele><time>2026-05-02T09:19:55.539Z</time></trkpt><trkpt lat="45.4561509" lon="11.4487825"><ele>42.75</ele><time>2026-05-02T09:19:56.538Z</time></trkpt><trkpt lat="45.4560595" lon="11.4489455"><ele>42.5</ele><time>2026-05-02T09:19:57.538Z</time></trkpt><trkpt lat="45.4559759" lon="11.4491056"><ele>42.25</ele><time>2026-05-02T09:19:58.539Z</time></trkpt><trkpt lat="45.4558919" lon="11.4492583"><ele>42.0</ele><time>2026-05-02T09:19:59.538Z</time></trkpt><trkpt lat="45.4558112" lon="11.4494054"><ele>42.0</ele><time>2026-05-02T09:20:00.538Z</time></trkpt><trkpt lat="45.4557327" lon="11.4495491"><ele>42.0</ele><time>2026-05-02T09:20:01.538Z</time></trkpt><trkpt lat="45.4556547" lon="11.4496943"><ele>42.0</ele><time>2026-05-02T09:20:02.539Z</time></trkpt><trkpt lat="45.4555735" lon="11.4498411"><ele>42.0</ele><time>2026-05-02T09:20:03.538Z</time></trkpt><trkpt lat="45.4554941" lon="11.4499917"><ele>42.0</ele><time>2026-05-02T09:20:04.538Z</time></trkpt><trkpt lat="45.4554145" lon="11.4501441"><ele>42.0</ele><time>2026-05-02T09:20:05.538Z</time></trkpt><trkpt lat="45.4553315" lon="11.4502982"><ele>42.0</ele><time>2026-05-02T09:20:06.538Z</time></trkpt><trkpt lat="45.4552482" lon="11.4504538"><ele>42.0</ele><time>2026-05-02T09:20:07.538Z</time></trkpt><trkpt lat="45.4551632" lon="11.4506086"><ele>42.25</ele><time>2026-05-02T09:20:08.538Z</time></trkpt><trkpt lat="45.4550806" lon="11.4507655"><ele>42.5</ele><time>2026-05-02T09:20:09.537Z</time></trkpt><trkpt lat="45.4549964" lon="11.4509203"><ele>42.75</ele><time>2026-05-02T09:20:10.538Z</time></trkpt><trkpt lat="45.4549107" lon="11.4510771"><ele>43.0</ele><time>2026-05-02T09:20:11.538Z</time></trkpt><trkpt lat="45.4548234" lon="11.4512364"><ele>42.75</ele><time>2026-05-02T09:20:12.538Z</time></trkpt><trkpt lat="45.4547356" lon="11.4514003"><ele>42.5</ele><time>2026-05-02T09:20:13.538Z</time></trkpt><trkpt lat="45.4546465" lon="11.4515655"><ele>42.25</ele><time>2026-05-02T09:20:14.539Z</time></trkpt><trkpt lat="45.4545572" lon="11.4517312"><ele>42.0</ele><time>2026-05-02T09:20:15.538Z</time></trkpt><trkpt lat="45.4544686" lon="11.4519002"><ele>41.666666666666664</ele><time>2026-05-02T09:20:16.538Z</time></trkpt><trkpt lat="45.4543885" lon="11.4520813"><ele>41.33333333333333</ele><time>2026-05-02T09:20:17.539Z</time></trkpt><trkpt lat="45.4543214" lon="11.4522835"><ele>41.0</ele><time>2026-05-02T09:20:18.537Z</time></trkpt><trkpt lat="45.4542643" lon="11.4524994"><ele>41.0</ele><time>2026-05-02T09:20:19.538Z</time></trkpt><trkpt lat="45.454224" lon="11.4527302"><ele>41.0</ele><time>2026-05-02T09:20:20.538Z</time></trkpt><trkpt lat="45.4542022" lon="11.4529711"><ele>41.0</ele><time>2026-05-02T09:20:21.538Z</time></trkpt><trkpt lat="45.4541979" lon="11.4532191"><ele>41.666666666666664</ele><time>2026-05-02T09:20:22.538Z</time></trkpt><trkpt lat="45.4542023" lon="11.4534704"><ele>42.333333333333336</ele><time>2026-05-02T09:20:23.539Z</time></trkpt><trkpt lat="45.4542073" lon="11.4537266"><ele>43.0</ele><time>2026-05-02T09:20:24.538Z</time></trkpt><trkpt lat="45.4542106" lon="11.4539874"><ele>43.0</ele><time>2026-05-02T09:20:25.539Z</time></trkpt><trkpt lat="45.4542161" lon="11.4542545"><ele>43.0</ele><time>2026-05-02T09:20:26.537Z</time></trkpt><trkpt lat="45.454223" lon="11.4545328"><ele>43.0</ele><time>2026-05-02T09:20:27.539Z</time></trkpt><trkpt lat="45.4542315" lon="11.4548223"><ele>41.333333333333336</ele><time>2026-05-02T09:20:28.539Z</time></trkpt><trkpt lat="45.4542364" lon="11.455117"><ele>39.666666666666664</ele><time>2026-05-02T09:20:29.538Z</time></trkpt><trkpt lat="45.4542416" lon="11.4554086"><ele>38.0</ele><time>2026-05-02T09:20:30.538Z</time></trkpt><trkpt lat="45.4542482" lon="11.4556826"><ele>38.33333333333333</ele><time>2026-05-02T09:20:31.538Z</time></trkpt><trkpt lat="45.4542486" lon="11.455918"><ele>38.666666666666664</ele><time>2026-05-02T09:20:32.538Z</time></trkpt><trkpt lat="45.4542358" lon="11.4561294"><ele>39.0</ele><time>2026-05-02T09:20:33.537Z</time></trkpt><trkpt lat="45.4541875" lon="11.4563343"><ele>39.0</ele><time>2026-05-02T09:20:34.538Z</time></trkpt><trkpt lat="45.4541053" lon="11.456526"><ele>39.0</ele><time>2026-05-02T09:20:35.537Z</time></trkpt><trkpt lat="45.4540011" lon="11.4567072"><ele>39.0</ele><time>2026-05-02T09:20:36.538Z</time></trkpt><trkpt lat="45.4538839" lon="11.4568982"><ele>38.666666666666664</ele><time>2026-05-02T09:20:37.537Z</time></trkpt><trkpt lat="45.4537529" lon="11.4571048"><ele>38.33333333333333</ele><time>2026-05-02T09:20:38.539Z</time></trkpt><trkpt lat="45.4536111" lon="11.4573249"><ele>38.0</ele><time>2026-05-02T09:20:39.538Z</time></trkpt><trkpt lat="45.4534605" lon="11.4575565"><ele>39.0</ele><time>2026-05-02T09:20:40.538Z</time></trkpt><trkpt lat="45.4533061" lon="11.4577935"><ele>40.0</ele><time>2026-05-02T09:20:41.538Z</time></trkpt><trkpt lat="45.4531541" lon="11.4580306"><ele>40.66666666666667</ele><time>2026-05-02T09:20:42.537Z</time></trkpt><trkpt lat="45.4530102" lon="11.458255"><ele>41.333333333333336</ele><time>2026-05-02T09:20:43.539Z</time></trkpt><trkpt lat="45.452873" lon="11.4584708"><ele>42.0</ele><time>2026-05-02T09:20:44.539Z</time></trkpt><trkpt lat="45.4527367" lon="11.4586847"><ele>41.0</ele><time>2026-05-02T09:20:45.537Z</time></trkpt><trkpt lat="45.452601" lon="11.4588997"><ele>40.0</ele><time>2026-05-02T09:20:46.538Z</time></trkpt><trkpt lat="45.452464" lon="11.4591147"><ele>39.0</ele><time>2026-05-02T09:20:47.538Z</time></trkpt><trkpt lat="45.4523266" lon="11.4593291"><ele>39.0</ele><time>2026-05-02T09:20:48.538Z</time></trkpt><trkpt lat="45.4521903" lon="11.4595442"><ele>39.0</ele><time>2026-05-02T09:20:49.539Z</time></trkpt><trkpt lat="45.4520505" lon="11.4597502"><ele>39.0</ele><time>2026-05-02T09:20:50.538Z</time></trkpt><trkpt lat="45.4518965" lon="11.4599377"><ele>39.0</ele><time>2026-05-02T09:20:51.538Z</time></trkpt><trkpt lat="45.4517333" lon="11.4601111"><ele>39.0</ele><time>2026-05-02T09:20:52.538Z</time></trkpt><trkpt lat="45.4515568" lon="11.4602607"><ele>39.0</ele><time>2026-05-02T09:20:53.538Z</time></trkpt><trkpt lat="45.4513681" lon="11.4603861"><ele>39.333333333333336</ele><time>2026-05-02T09:20:54.538Z</time></trkpt><trkpt lat="45.4511629" lon="11.4604886"><ele>39.66666666666667</ele><time>2026-05-02T09:20:55.539Z</time></trkpt><trkpt lat="45.4509452" lon="11.4605641"><ele>40.0</ele><time>2026-05-02T09:20:56.538Z</time></trkpt><trkpt lat="45.4507254" lon="11.4606039"><ele>40.0</ele><time>2026-05-02T09:20:57.537Z</time></trkpt><trkpt lat="45.4505071" lon="11.4606124"><ele>40.0</ele><time>2026-05-02T09:20:58.537Z</time></trkpt><trkpt lat="45.4502893" lon="11.4606033"><ele>40.0</ele><time>2026-05-02T09:20:59.538Z</time></trkpt><trkpt lat="45.4500729" lon="11.4605951"><ele>41.0</ele><time>2026-05-02T09:21:00.538Z</time></trkpt><trkpt lat="45.4498581" lon="11.4605898"><ele>42.0</ele><time>2026-05-02T09:21:01.538Z</time></trkpt><trkpt lat="45.4496483" lon="11.4605857"><ele>43.0</ele><time>2026-05-02T09:21:02.538Z</time></trkpt><trkpt lat="45.449442" lon="11.4605778"><ele>43.333333333333336</ele><time>2026-05-02T09:21:03.538Z</time></trkpt><trkpt lat="45.4492393" lon="11.4605692"><ele>43.666666666666664</ele><time>2026-05-02T09:21:04.539Z</time></trkpt><trkpt lat="45.4490427" lon="11.4605603"><ele>44.0</ele><time>2026-05-02T09:21:05.537Z</time></trkpt><trkpt lat="45.448854" lon="11.4605516"><ele>43.0</ele><time>2026-05-02T09:21:06.538Z</time></trkpt><trkpt lat="45.4486822" lon="11.4605523"><ele>42.0</ele><time>2026-05-02T09:21:07.538Z</time></trkpt><trkpt lat="45.4485147" lon="11.4605804"><ele>41.0</ele><time>2026-05-02T09:21:08.539Z</time></trkpt><trkpt lat="45.4483501" lon="11.4606471"><ele>41.0</ele><time>2026-05-02T09:21:09.538Z</time></trkpt><trkpt lat="45.4481935" lon="11.4607513"><ele>41.0</ele><time>2026-05-02T09:21:10.538Z</time></trkpt><trkpt lat="45.4480466" lon="11.4608885"><ele>41.0</ele><time>2026-05-02T09:21:11.538Z</time></trkpt><trkpt lat="45.4479061" lon="11.461042"><ele>40.666666666666664</ele><time>2026-05-02T09:21:12.538Z</time></trkpt><trkpt lat="45.4477779" lon="11.4611971"><ele>40.333333333333336</ele><time>2026-05-02T09:21:13.538Z</time></trkpt><trkpt lat="45.4476573" lon="11.4613483"><ele>40.0</ele><time>2026-05-02T09:21:14.539Z</time></trkpt><trkpt lat="45.4475415" lon="11.4614826"><ele>41.5</ele><time>2026-05-02T09:21:15.539Z</time></trkpt><trkpt lat="45.4474233" lon="11.4615865"><ele>43.0</ele><time>2026-05-02T09:21:16.539Z</time></trkpt><trkpt lat="45.4472967" lon="11.4616539"><ele>44.5</ele><time>2026-05-02T09:21:17.538Z</time></trkpt><trkpt lat="45.4471598" lon="11.4616754"><ele>46.0</ele><time>2026-05-02T09:21:18.538Z</time></trkpt><trkpt lat="45.4470162" lon="11.4616536"><ele>47.333333333333336</ele><time>2026-05-02T09:21:19.538Z</time></trkpt><trkpt lat="45.446869" lon="11.4616015"><ele>48.66666666666667</ele><time>2026-05-02T09:21:20.539Z</time></trkpt><trkpt lat="45.4467123" lon="11.461536"><ele>50.0</ele><time>2026-05-02T09:21:21.538Z</time></trkpt><trkpt lat="45.4465531" lon="11.4614684"><ele>50.0</ele><time>2026-05-02T09:21:22.538Z</time></trkpt><trkpt lat="45.4463899" lon="11.4613963"><ele>50.0</ele><time>2026-05-02T09:21:23.538Z</time></trkpt><trkpt lat="45.4462259" lon="11.4613186"><ele>50.0</ele><time>2026-05-02T09:21:24.538Z</time></trkpt><trkpt lat="45.4460593" lon="11.4612499"><ele>49.66666666666667</ele><time>2026-05-02T09:21:25.538Z</time></trkpt><trkpt lat="45.445885" lon="11.461202"><ele>49.33333333333333</ele><time>2026-05-02T09:21:26.538Z</time></trkpt><trkpt lat="45.4457133" lon="11.4611882"><ele>49.0</ele><time>2026-05-02T09:21:27.538Z</time></trkpt><trkpt lat="45.4455423" lon="11.4611974"><ele>48.666666666666664</ele><time>2026-05-02T09:21:28.538Z</time></trkpt><trkpt lat="45.4453712" lon="11.4612109"><ele>48.33333333333333</ele><time>2026-05-02T09:21:29.538Z</time></trkpt><trkpt lat="45.445206" lon="11.461225"><ele>48.0</ele><time>2026-05-02T09:21:30.538Z</time></trkpt><trkpt lat="45.4450467" lon="11.4612375"><ele>48.0</ele><time>2026-05-02T09:21:31.537Z</time></trkpt><trkpt lat="45.4448921" lon="11.4612388"><ele>48.0</ele><time>2026-05-02T09:21:32.538Z</time></trkpt><trkpt lat="45.4447399" lon="11.4612092"><ele>48.0</ele><time>2026-05-02T09:21:33.539Z</time></trkpt><trkpt lat="45.4445902" lon="11.4611507"><ele>48.33333333333333</ele><time>2026-05-02T09:21:34.539Z</time></trkpt><trkpt lat="45.444445" lon="11.461059"><ele>48.666666666666664</ele><time>2026-05-02T09:21:35.538Z</time></trkpt><trkpt lat="45.4443029" lon="11.4609362"><ele>49.0</ele><time>2026-05-02T09:21:36.538Z</time></trkpt><trkpt lat="45.4441716" lon="11.4607789"><ele>49.0</ele><time>2026-05-02T09:21:37.538Z</time></trkpt><trkpt lat="45.4440533" lon="11.4605981"><ele>49.0</ele><time>2026-05-02T09:21:38.539Z</time></trkpt><trkpt lat="45.4439425" lon="11.4604015"><ele>49.0</ele><time>2026-05-02T09:21:39.538Z</time></trkpt><trkpt lat="45.443828" lon="11.4602103"><ele>52.0</ele><time>2026-05-02T09:21:40.538Z</time></trkpt><trkpt lat="45.4437235" lon="11.4600309"><ele>55.0</ele><time>2026-05-02T09:21:41.538Z</time></trkpt><trkpt lat="45.4436275" lon="11.4598681"><ele>58.0</ele><time>2026-05-02T09:21:42.537Z</time></trkpt><trkpt lat="45.4435226" lon="11.4597223"><ele>55.75</ele><time>2026-05-02T09:21:43.538Z</time></trkpt><trkpt lat="45.4433962" lon="11.4596166"><ele>53.5</ele><time>2026-05-02T09:21:44.537Z</time></trkpt><trkpt lat="45.4432545" lon="11.4595565"><ele>51.25</ele><time>2026-05-02T09:21:45.538Z</time></trkpt><trkpt lat="45.443104" lon="11.4595431"><ele>49.0</ele><time>2026-05-02T09:21:46.537Z</time></trkpt><trkpt lat="45.4429458" lon="11.4595522"><ele>49.0</ele><time>2026-05-02T09:21:47.538Z</time></trkpt><trkpt lat="45.4427856" lon="11.4595652"><ele>49.0</ele><time>2026-05-02T09:21:48.538Z</time></trkpt><trkpt lat="45.4426266" lon="11.4595993"><ele>49.0</ele><time>2026-05-02T09:21:49.538Z</time></trkpt><trkpt lat="45.4424696" lon="11.4596785"><ele>53.666666666666664</ele><time>2026-05-02T09:21:50.537Z</time></trkpt><trkpt lat="45.4423182" lon="11.4597975"><ele>58.33333333333333</ele><time>2026-05-02T09:21:51.538Z</time></trkpt><trkpt lat="45.4421582" lon="11.4599145"><ele>63.0</ele><time>2026-05-02T09:21:52.538Z</time></trkpt><trkpt lat="45.4419806" lon="11.4600124"><ele>63.0</ele><time>2026-05-02T09:21:53.539Z</time></trkpt><trkpt lat="45.4417871" lon="11.4601025"><ele>63.0</ele><time>2026-05-02T09:21:54.538Z</time></trkpt><trkpt lat="45.4415808" lon="11.4601952"><ele>63.0</ele><time>2026-05-02T09:21:55.539Z</time></trkpt><trkpt lat="45.4413675" lon="11.4602892"><ele>62.0</ele><time>2026-05-02T09:21:56.538Z</time></trkpt><trkpt lat="45.4411538" lon="11.4603808"><ele>61.0</ele><time>2026-05-02T09:21:57.538Z</time></trkpt><trkpt lat="45.4409423" lon="11.460476"><ele>60.0</ele><time>2026-05-02T09:21:58.538Z</time></trkpt><trkpt lat="45.4407312" lon="11.4605713"><ele>67.33333333333333</ele><time>2026-05-02T09:21:59.539Z</time></trkpt><trkpt lat="45.4405218" lon="11.4606635"><ele>74.66666666666666</ele><time>2026-05-02T09:22:00.537Z</time></trkpt><trkpt lat="45.4403123" lon="11.4607509"><ele>82.0</ele><time>2026-05-02T09:22:01.537Z</time></trkpt><trkpt lat="45.4400978" lon="11.4608101"><ele>82.0</ele><time>2026-05-02T09:22:02.538Z</time></trkpt><trkpt lat="45.4398785" lon="11.4608318"><ele>82.0</ele><time>2026-05-02T09:22:03.538Z</time></trkpt><trkpt lat="45.4396591" lon="11.4608285"><ele>82.0</ele><time>2026-05-02T09:22:04.538Z</time></trkpt><trkpt lat="45.4394406" lon="11.460822"><ele>80.0</ele><time>2026-05-02T09:22:05.539Z</time></trkpt><trkpt lat="45.4392213" lon="11.460828"><ele>78.0</ele><time>2026-05-02T09:22:06.537Z</time></trkpt><trkpt lat="45.4389996" lon="11.4608487"><ele>76.0</ele><time>2026-05-02T09:22:07.537Z</time></trkpt><trkpt lat="45.4387795" lon="11.4608659"><ele>76.0</ele><time>2026-05-02T09:22:08.537Z</time></trkpt><trkpt lat="45.4385589" lon="11.4608854"><ele>76.0</ele><time>2026-05-02T09:22:09.538Z</time></trkpt><trkpt lat="45.4383387" lon="11.4609057"><ele>76.0</ele><time>2026-05-02T09:22:10.538Z</time></trkpt><trkpt lat="45.4381202" lon="11.460926"><ele>77.0</ele><time>2026-05-02T09:22:11.538Z</time></trkpt><trkpt lat="45.4379025" lon="11.460947"><ele>78.0</ele><time>2026-05-02T09:22:12.539Z</time></trkpt><trkpt lat="45.4376888" lon="11.4609687"><ele>79.0</ele><time>2026-05-02T09:22:13.538Z</time></trkpt><trkpt lat="45.4374809" lon="11.461003"><ele>79.0</ele><time>2026-05-02T09:22:14.538Z</time></trkpt><trkpt lat="45.437291" lon="11.4610616"><ele>79.0</ele><time>2026-05-02T09:22:15.538Z</time></trkpt><trkpt lat="45.4371127" lon="11.4611519"><ele>79.0</ele><time>2026-05-02T09:22:16.538Z</time></trkpt><trkpt lat="45.4369416" lon="11.4612599"><ele>84.66666666666666</ele><time>2026-05-02T09:22:17.538Z</time></trkpt><trkpt lat="45.4367704" lon="11.4613786"><ele>90.33333333333333</ele><time>2026-05-02T09:22:18.539Z</time></trkpt><trkpt lat="45.4366037" lon="11.4614928"><ele>96.0</ele><time>2026-05-02T09:22:19.539Z</time></trkpt><trkpt lat="45.4364514" lon="11.4616027"><ele>96.0</ele><time>2026-05-02T09:22:20.538Z</time></trkpt><trkpt lat="45.4363124" lon="11.4617026"><ele>96.0</ele><time>2026-05-02T09:22:21.537Z</time></trkpt><trkpt lat="45.4361861" lon="11.4617901"><ele>96.0</ele><time>2026-05-02T09:22:22.538Z</time></trkpt><trkpt lat="45.4360687" lon="11.4618725"><ele>96.0</ele><time>2026-05-02T09:22:23.539Z</time></trkpt><trkpt lat="45.4359788" lon="11.461961"><ele>96.0</ele><time>2026-05-02T09:22:24.538Z</time></trkpt><trkpt lat="45.4359276" lon="11.4620828"><ele>96.0</ele><time>2026-05-02T09:22:25.538Z</time></trkpt><trkpt lat="45.4359222" lon="11.462213"><ele>96.0</ele><time>2026-05-02T09:22:26.537Z</time></trkpt><trkpt lat="45.4359606" lon="11.462328"><ele>96.0</ele><time>2026-05-02T09:22:27.538Z</time></trkpt><trkpt lat="45.4360367" lon="11.4624091"><ele>96.0</ele><time>2026-05-02T09:22:28.539Z</time></trkpt><trkpt lat="45.4361352" lon="11.4624189"><ele>96.0</ele><time>2026-05-02T09:22:29.537Z</time></trkpt><trkpt lat="45.4362437" lon="11.4623755"><ele>96.0</ele><time>2026-05-02T09:22:30.538Z</time></trkpt><trkpt lat="45.4363635" lon="11.4622939"><ele>96.0</ele><time>2026-05-02T09:22:31.538Z</time></trkpt><trkpt lat="45.4364913" lon="11.4621942"><ele>96.0</ele><time>2026-05-02T09:22:32.538Z</time></trkpt><trkpt lat="45.4366329" lon="11.4620937"><ele>96.0</ele><time>2026-05-02T09:22:33.537Z</time></trkpt><trkpt lat="45.4367812" lon="11.4619923"><ele>96.0</ele><time>2026-05-02T09:22:34.538Z</time></trkpt><trkpt lat="45.4369137" lon="11.4618943"><ele>96.0</ele><time>2026-05-02T09:22:35.539Z</time></trkpt><trkpt lat="45.4370344" lon="11.4618004"><ele>97.25</ele><time>2026-05-02T09:22:36.538Z</time></trkpt><trkpt lat="45.4371463" lon="11.46172"><ele>98.5</ele><time>2026-05-02T09:22:37.538Z</time></trkpt><trkpt lat="45.4372583" lon="11.4616557"><ele>99.75</ele><time>2026-05-02T09:22:38.538Z</time></trkpt><trkpt lat="45.4373684" lon="11.4616502"><ele>101.0</ele><time>2026-05-02T09:22:39.538Z</time></trkpt><trkpt lat="45.4374621" lon="11.4617027"><ele>101.0</ele><time>2026-05-02T09:22:40.538Z</time></trkpt><trkpt lat="45.4375327" lon="11.4618042"><ele>101.0</ele><time>2026-05-02T09:22:41.539Z</time></trkpt><trkpt lat="45.4375598" lon="11.4619404"><ele>101.0</ele><time>2026-05-02T09:22:42.537Z</time></trkpt><trkpt lat="45.4375393" lon="11.4620733"><ele>101.0</ele><time>2026-05-02T09:22:43.538Z</time></trkpt><trkpt lat="45.4374784" lon="11.4621616"><ele>101.0</ele><time>2026-05-02T09:22:44.538Z</time></trkpt><trkpt lat="45.4373907" lon="11.4622238"><ele>104.0</ele><time>2026-05-02T09:22:45.538Z</time></trkpt><trkpt lat="45.4372838" lon="11.4623015"><ele>107.0</ele><time>2026-05-02T09:22:46.537Z</time></trkpt><trkpt lat="45.4371652" lon="11.4623882"><ele>110.0</ele><time>2026-05-02T09:22:47.539Z</time></trkpt><trkpt lat="45.4370427" lon="11.4624845"><ele>113.0</ele><time>2026-05-02T09:22:48.539Z</time></trkpt><trkpt lat="45.4369176" lon="11.4625955"><ele>113.0</ele><time>2026-05-02T09:22:49.539Z</time></trkpt><trkpt lat="45.4367969" lon="11.4627258"><ele>113.0</ele><time>2026-05-02T09:22:50.538Z</time></trkpt><trkpt lat="45.4366718" lon="11.4628691"><ele>113.0</ele><time>2026-05-02T09:22:51.538Z</time></trkpt><trkpt lat="45.4365389" lon="11.463006"><ele>118.0</ele><time>2026-05-02T09:22:52.539Z</time></trkpt><trkpt lat="45.4363952" lon="11.4631336"><ele>123.0</ele><time>2026-05-02T09:22:53.538Z</time></trkpt><trkpt lat="45.4362396" lon="11.4632404"><ele>128.0</ele><time>2026-05-02T09:22:54.538Z</time></trkpt><trkpt lat="45.4360688" lon="11.4633092"><ele>128.0</ele><time>2026-05-02T09:22:55.538Z</time></trkpt><trkpt lat="45.4358923" lon="11.463358"><ele>128.0</ele><time>2026-05-02T09:22:56.538Z</time></trkpt><trkpt lat="45.4357097" lon="11.4634069"><ele>128.0</ele><time>2026-05-02T09:22:57.539Z</time></trkpt><trkpt lat="45.4355298" lon="11.4634587"><ele>129.33333333333331</ele><time>2026-05-02T09:22:58.538Z</time></trkpt><trkpt lat="45.4353553" lon="11.4635234"><ele>130.66666666666666</ele><time>2026-05-02T09:22:59.538Z</time></trkpt><trkpt lat="45.4351847" lon="11.4636046"><ele>132.0</ele><time>2026-05-02T09:23:00.538Z</time></trkpt><trkpt lat="45.4350262" lon="11.4636941"><ele>137.0</ele><time>2026-05-02T09:23:01.538Z</time></trkpt><trkpt lat="45.434886" lon="11.4638004"><ele>142.0</ele><time>2026-05-02T09:23:02.539Z</time></trkpt><trkpt lat="45.4347565" lon="11.4639124"><ele>147.0</ele><time>2026-05-02T09:23:03.539Z</time></trkpt><trkpt lat="45.4346354" lon="11.4640158"><ele>147.25</ele><time>2026-05-02T09:23:04.538Z</time></trkpt><trkpt lat="45.4345189" lon="11.4641198"><ele>147.5</ele><time>2026-05-02T09:23:05.538Z</time></trkpt><trkpt lat="45.4344105" lon="11.4642223"><ele>147.75</ele><time>2026-05-02T09:23:06.538Z</time></trkpt><trkpt lat="45.4342893" lon="11.4643288"><ele>148.0</ele><time>2026-05-02T09:23:07.538Z</time></trkpt><trkpt lat="45.4341574" lon="11.4644219"><ele>148.0</ele><time>2026-05-02T09:23:08.538Z</time></trkpt><trkpt lat="45.4340107" lon="11.4645173"><ele>148.0</ele><time>2026-05-02T09:23:09.537Z</time></trkpt><trkpt lat="45.433858" lon="11.4646201"><ele>148.0</ele><time>2026-05-02T09:23:10.539Z</time></trkpt><trkpt lat="45.4336962" lon="11.464723"><ele>144.33333333333334</ele><time>2026-05-02T09:23:11.538Z</time></trkpt><trkpt lat="45.4335318" lon="11.4648269"><ele>140.66666666666666</ele><time>2026-05-02T09:23:12.538Z</time></trkpt><trkpt lat="45.4333734" lon="11.4649278"><ele>137.0</ele><time>2026-05-02T09:23:13.538Z</time></trkpt><trkpt lat="45.4332201" lon="11.4650314"><ele>137.0</ele><time>2026-05-02T09:23:14.538Z</time></trkpt><trkpt lat="45.4330733" lon="11.4651359"><ele>137.0</ele><time>2026-05-02T09:23:15.539Z</time></trkpt><trkpt lat="45.4329365" lon="11.4652579"><ele>137.0</ele><time>2026-05-02T09:23:16.538Z</time></trkpt><trkpt lat="45.4328076" lon="11.4654008"><ele>134.25</ele><time>2026-05-02T09:23:17.538Z</time></trkpt><trkpt lat="45.4326889" lon="11.4655387"><ele>131.5</ele><time>2026-05-02T09:23:18.537Z</time></trkpt><trkpt lat="45.4325808" lon="11.4656682"><ele>128.75</ele><time>2026-05-02T09:23:19.539Z</time></trkpt><trkpt lat="45.4324864" lon="11.4657712"><ele>126.0</ele><time>2026-05-02T09:23:20.539Z</time></trkpt><trkpt lat="45.4324102" lon="11.4658658"><ele>126.0</ele><time>2026-05-02T09:23:21.538Z</time></trkpt><trkpt lat="45.432365" lon="11.4659656"><ele>126.0</ele><time>2026-05-02T09:23:22.538Z</time></trkpt><trkpt lat="45.4323528" lon="11.4660767"><ele>126.0</ele><time>2026-05-02T09:23:23.538Z</time></trkpt><trkpt lat="45.4323809" lon="11.4661774"><ele>126.0</ele><time>2026-05-02T09:23:24.538Z</time></trkpt><trkpt lat="45.432435" lon="11.4662374"><ele>126.0</ele><time>2026-05-02T09:23:25.538Z</time></trkpt><trkpt lat="45.4325107" lon="11.4662466"><ele>126.0</ele><time>2026-05-02T09:23:26.539Z</time></trkpt><trkpt lat="45.4325837" lon="11.4661981"><ele>126.0</ele><time>2026-05-02T09:23:27.538Z</time></trkpt><trkpt lat="45.4326719" lon="11.46611"><ele>126.0</ele><time>2026-05-02T09:23:28.538Z</time></trkpt><trkpt lat="45.4327772" lon="11.4660137"><ele>126.0</ele><time>2026-05-02T09:23:29.539Z</time></trkpt><trkpt lat="45.4328919" lon="11.4659091"><ele>126.0</ele><time>2026-05-02T09:23:30.538Z</time></trkpt><trkpt lat="45.4330182" lon="11.4658297"><ele>123.0</ele><time>2026-05-02T09:23:31.538Z</time></trkpt><trkpt lat="45.4331617" lon="11.4657925"><ele>120.0</ele><time>2026-05-02T09:23:32.539Z</time></trkpt><trkpt lat="45.4333127" lon="11.4658017"><ele>117.0</ele><time>2026-05-02T09:23:33.539Z</time></trkpt><trkpt lat="45.4334722" lon="11.4658258"><ele>117.0</ele><time>2026-05-02T09:23:34.539Z</time></trkpt><trkpt lat="45.4336358" lon="11.465849"><ele>117.0</ele><time>2026-05-02T09:23:35.538Z</time></trkpt><trkpt lat="45.4337957" lon="11.4658693"><ele>117.0</ele><time>2026-05-02T09:23:36.538Z</time></trkpt><trkpt lat="45.4339384" lon="11.4658896"><ele>117.0</ele><time>2026-05-02T09:23:37.537Z</time></trkpt><trkpt lat="45.4340612" lon="11.465903"><ele>116.99999999999999</ele><time>2026-05-02T09:23:38.537Z</time></trkpt><trkpt lat="45.4341607" lon="11.4659165"><ele>116.99999999999999</ele><time>2026-05-02T09:23:39.538Z</time></trkpt><trkpt lat="45.4342332" lon="11.4659402"><ele>117.0</ele><time>2026-05-02T09:23:40.537Z</time></trkpt><trkpt lat="45.4342811" lon="11.4660008"><ele>117.0</ele><time>2026-05-02T09:23:41.538Z</time></trkpt><trkpt lat="45.4342462" lon="11.4661385"><ele>117.0</ele><time>2026-05-02T09:23:43.538Z</time></trkpt><trkpt lat="45.4341724" lon="11.466184"><ele>117.0</ele><time>2026-05-02T09:23:44.539Z</time></trkpt><trkpt lat="45.4340599" lon="11.4662293"><ele>117.0</ele><time>2026-05-02T09:23:45.538Z</time></trkpt><trkpt lat="45.4339237" lon="11.4662852"><ele>117.0</ele><time>2026-05-02T09:23:46.539Z</time></trkpt><trkpt lat="45.4337664" lon="11.4663531"><ele>111.66666666666666</ele><time>2026-05-02T09:23:47.537Z</time></trkpt><trkpt lat="45.4336042" lon="11.4664183"><ele>106.33333333333333</ele><time>2026-05-02T09:23:48.538Z</time></trkpt><trkpt lat="45.4334459" lon="11.4664779"><ele>101.0</ele><time>2026-05-02T09:23:49.538Z</time></trkpt><trkpt lat="45.4333034" lon="11.466535"><ele>101.0</ele><time>2026-05-02T09:23:50.539Z</time></trkpt><trkpt lat="45.4331777" lon="11.4666066"><ele>101.0</ele><time>2026-05-02T09:23:51.539Z</time></trkpt><trkpt lat="45.4330736" lon="11.4667303"><ele>101.0</ele><time>2026-05-02T09:23:52.538Z</time></trkpt><trkpt lat="45.4329882" lon="11.4668944"><ele>101.0</ele><time>2026-05-02T09:23:53.537Z</time></trkpt><trkpt lat="45.4329278" lon="11.4670649"><ele>100.25</ele><time>2026-05-02T09:23:54.538Z</time></trkpt><trkpt lat="45.4328516" lon="11.4672087"><ele>99.5</ele><time>2026-05-02T09:23:55.537Z</time></trkpt><trkpt lat="45.4327473" lon="11.467335"><ele>98.75</ele><time>2026-05-02T09:23:56.539Z</time></trkpt><trkpt lat="45.432624" lon="11.4674391"><ele>98.0</ele><time>2026-05-02T09:23:57.537Z</time></trkpt><trkpt lat="45.4324754" lon="11.4675181"><ele>98.0</ele><time>2026-05-02T09:23:58.538Z</time></trkpt><trkpt lat="45.4323171" lon="11.4676"><ele>98.0</ele><time>2026-05-02T09:23:59.538Z</time></trkpt><trkpt lat="45.4321464" lon="11.4676851"><ele>98.0</ele><time>2026-05-02T09:24:00.537Z</time></trkpt><trkpt lat="45.4319717" lon="11.4677722"><ele>97.33333333333333</ele><time>2026-05-02T09:24:01.538Z</time></trkpt><trkpt lat="45.4317987" lon="11.467856"><ele>96.66666666666666</ele><time>2026-05-02T09:24:02.539Z</time></trkpt><trkpt lat="45.4316293" lon="11.4679369"><ele>96.0</ele><time>2026-05-02T09:24:03.538Z</time></trkpt><trkpt lat="45.4314673" lon="11.468019"><ele>92.0</ele><time>2026-05-02T09:24:04.538Z</time></trkpt><trkpt lat="45.431312" lon="11.4681063"><ele>88.0</ele><time>2026-05-02T09:24:05.537Z</time></trkpt><trkpt lat="45.4311608" lon="11.4682009"><ele>84.0</ele><time>2026-05-02T09:24:06.538Z</time></trkpt><trkpt lat="45.431019" lon="11.4683095"><ele>84.0</ele><time>2026-05-02T09:24:07.538Z</time></trkpt><trkpt lat="45.4308818" lon="11.4684295"><ele>84.0</ele><time>2026-05-02T09:24:08.538Z</time></trkpt><trkpt lat="45.4307479" lon="11.4685605"><ele>84.0</ele><time>2026-05-02T09:24:09.538Z</time></trkpt><trkpt lat="45.430607" lon="11.4686744"><ele>79.33333333333333</ele><time>2026-05-02T09:24:10.537Z</time></trkpt><trkpt lat="45.4304501" lon="11.4687613"><ele>74.66666666666666</ele><time>2026-05-02T09:24:11.538Z</time></trkpt><trkpt lat="45.4302937" lon="11.4688176"><ele>70.0</ele><time>2026-05-02T09:24:12.538Z</time></trkpt><trkpt lat="45.430156" lon="11.4688968"><ele>70.0</ele><time>2026-05-02T09:24:13.538Z</time></trkpt><trkpt lat="45.4300291" lon="11.4690292"><ele>70.0</ele><time>2026-05-02T09:24:14.539Z</time></trkpt><trkpt lat="45.4299136" lon="11.4691855"><ele>70.0</ele><time>2026-05-02T09:24:15.538Z</time></trkpt><trkpt lat="45.4297977" lon="11.4693309"><ele>70.0</ele><time>2026-05-02T09:24:16.538Z</time></trkpt><trkpt lat="45.4296592" lon="11.4694596"><ele>70.0</ele><time>2026-05-02T09:24:17.538Z</time></trkpt><trkpt lat="45.4295024" lon="11.4695598"><ele>70.0</ele><time>2026-05-02T09:24:18.538Z</time></trkpt><trkpt lat="45.4293368" lon="11.4696565"><ele>66.66666666666666</ele><time>2026-05-02T09:24:19.538Z</time></trkpt><trkpt lat="45.4291662" lon="11.4697679"><ele>63.33333333333333</ele><time>2026-05-02T09:24:20.539Z</time></trkpt><trkpt lat="45.4289895" lon="11.4698725"><ele>60.0</ele><time>2026-05-02T09:24:21.537Z</time></trkpt><trkpt lat="45.4288159" lon="11.4699764"><ele>65.0</ele><time>2026-05-02T09:24:22.538Z</time></trkpt><trkpt lat="45.4286475" lon="11.4700763"><ele>70.0</ele><time>2026-05-02T09:24:23.538Z</time></trkpt><trkpt lat="45.4284872" lon="11.4701697"><ele>75.0</ele><time>2026-05-02T09:24:24.538Z</time></trkpt><trkpt lat="45.4283333" lon="11.4702562"><ele>75.0</ele><time>2026-05-02T09:24:25.538Z</time></trkpt><trkpt lat="45.4281907" lon="11.4703493"><ele>75.0</ele><time>2026-05-02T09:24:26.538Z</time></trkpt><trkpt lat="45.4280589" lon="11.4704706"><ele>75.0</ele><time>2026-05-02T09:24:27.538Z</time></trkpt><trkpt lat="45.4279412" lon="11.4706104"><ele>68.66666666666667</ele><time>2026-05-02T09:24:28.538Z</time></trkpt><trkpt lat="45.4278412" lon="11.4707716"><ele>62.333333333333336</ele><time>2026-05-02T09:24:29.539Z</time></trkpt><trkpt lat="45.427758" lon="11.4709672"><ele>56.0</ele><time>2026-05-02T09:24:30.537Z</time></trkpt><trkpt lat="45.4276931" lon="11.4711845"><ele>53.66666666666667</ele><time>2026-05-02T09:24:31.538Z</time></trkpt><trkpt lat="45.4276404" lon="11.4714211"><ele>51.33333333333333</ele><time>2026-05-02T09:24:32.539Z</time></trkpt><trkpt lat="45.4275851" lon="11.4716574"><ele>49.0</ele><time>2026-05-02T09:24:33.538Z</time></trkpt><trkpt lat="45.4275275" lon="11.4718822"><ele>49.0</ele><time>2026-05-02T09:24:34.538Z</time></trkpt><trkpt lat="45.4274576" lon="11.4720924"><ele>49.0</ele><time>2026-05-02T09:24:35.538Z</time></trkpt><trkpt lat="45.4273655" lon="11.4722848"><ele>49.0</ele><time>2026-05-02T09:24:36.539Z</time></trkpt><trkpt lat="45.4272414" lon="11.4724458"><ele>49.666666666666664</ele><time>2026-05-02T09:24:37.538Z</time></trkpt><trkpt lat="45.4271171" lon="11.4725941"><ele>50.33333333333333</ele><time>2026-05-02T09:24:38.538Z</time></trkpt><trkpt lat="45.4269926" lon="11.4727235"><ele>51.0</ele><time>2026-05-02T09:24:39.538Z</time></trkpt><trkpt lat="45.4268721" lon="11.4728385"><ele>49.25</ele><time>2026-05-02T09:24:40.538Z</time></trkpt><trkpt lat="45.4267537" lon="11.4729528"><ele>47.5</ele><time>2026-05-02T09:24:41.538Z</time></trkpt><trkpt lat="45.4266386" lon="11.4730648"><ele>45.75</ele><time>2026-05-02T09:24:42.538Z</time></trkpt><trkpt lat="45.4265277" lon="11.4731733"><ele>44.0</ele><time>2026-05-02T09:24:43.538Z</time></trkpt><trkpt lat="45.4264236" lon="11.4732769"><ele>44.0</ele><time>2026-05-02T09:24:44.539Z</time></trkpt><trkpt lat="45.4263215" lon="11.4733821"><ele>44.0</ele><time>2026-05-02T09:24:45.539Z</time></trkpt><trkpt lat="45.4262152" lon="11.4734895"><ele>44.0</ele><time>2026-05-02T09:24:46.538Z</time></trkpt><trkpt lat="45.4261072" lon="11.4735925"><ele>44.0</ele><time>2026-05-02T09:24:47.538Z</time></trkpt><trkpt lat="45.425994" lon="11.4736871"><ele>43.25</ele><time>2026-05-02T09:24:48.538Z</time></trkpt><trkpt lat="45.4258744" lon="11.4737698"><ele>42.5</ele><time>2026-05-02T09:24:49.538Z</time></trkpt><trkpt lat="45.4257543" lon="11.4738367"><ele>41.75</ele><time>2026-05-02T09:24:50.538Z</time></trkpt><trkpt lat="45.4256315" lon="11.473881"><ele>41.0</ele><time>2026-05-02T09:24:51.538Z</time></trkpt><trkpt lat="45.4255036" lon="11.4739043"><ele>41.0</ele><time>2026-05-02T09:24:52.538Z</time></trkpt><trkpt lat="45.4253752" lon="11.4739139"><ele>41.0</ele><time>2026-05-02T09:24:53.537Z</time></trkpt><trkpt lat="45.4252504" lon="11.4739056"><ele>41.0</ele><time>2026-05-02T09:24:54.538Z</time></trkpt><trkpt lat="45.4251417" lon="11.4738776"><ele>41.0</ele><time>2026-05-02T09:24:55.538Z</time></trkpt><trkpt lat="45.4250503" lon="11.4738385"><ele>41.0</ele><time>2026-05-02T09:24:56.539Z</time></trkpt><trkpt lat="45.4249789" lon="11.4737998"><ele>41.0</ele><time>2026-05-02T09:24:57.538Z</time></trkpt><trkpt lat="45.4248655" lon="11.4737665"><ele>41.0</ele><time>2026-05-02T09:24:59.539Z</time></trkpt><trkpt lat="45.4247896" lon="11.4738757"><ele>41.0</ele><time>2026-05-02T09:25:01.538Z</time></trkpt><trkpt lat="45.4247755" lon="11.4739864"><ele>41.0</ele><time>2026-05-02T09:25:02.539Z</time></trkpt><trkpt lat="45.4247665" lon="11.4741261"><ele>41.0</ele><time>2026-05-02T09:25:03.537Z</time></trkpt><trkpt lat="45.4247596" lon="11.4742838"><ele>41.0</ele><time>2026-05-02T09:25:04.537Z</time></trkpt><trkpt lat="45.424757" lon="11.474452"><ele>41.0</ele><time>2026-05-02T09:25:05.538Z</time></trkpt><trkpt lat="45.424749" lon="11.4746341"><ele>41.0</ele><time>2026-05-02T09:25:06.538Z</time></trkpt><trkpt lat="45.4247314" lon="11.4748185"><ele>41.0</ele><time>2026-05-02T09:25:07.537Z</time></trkpt><trkpt lat="45.4247008" lon="11.4750052"><ele>41.0</ele><time>2026-05-02T09:25:08.538Z</time></trkpt><trkpt lat="45.4246745" lon="11.4751818"><ele>41.0</ele><time>2026-05-02T09:25:09.537Z</time></trkpt><trkpt lat="45.4246705" lon="11.475364"><ele>41.0</ele><time>2026-05-02T09:25:10.538Z</time></trkpt><trkpt lat="45.4246828" lon="11.4755513"><ele>41.0</ele><time>2026-05-02T09:25:11.539Z</time></trkpt><trkpt lat="45.4247022" lon="11.475743"><ele>41.0</ele><time>2026-05-02T09:25:12.538Z</time></trkpt><trkpt lat="45.4247227" lon="11.4759372"><ele>41.0</ele><time>2026-05-02T09:25:13.538Z</time></trkpt><trkpt lat="45.4247595" lon="11.4761277"><ele>41.0</ele><time>2026-05-02T09:25:14.539Z</time></trkpt><trkpt lat="45.4248256" lon="11.4763079"><ele>41.33333333333333</ele><time>2026-05-02T09:25:15.539Z</time></trkpt><trkpt lat="45.4249178" lon="11.4764952"><ele>41.666666666666664</ele><time>2026-05-02T09:25:16.538Z</time></trkpt><trkpt lat="45.4250458" lon="11.4766869"><ele>42.0</ele><time>2026-05-02T09:25:17.537Z</time></trkpt><trkpt lat="45.4252059" lon="11.476877"><ele>42.0</ele><time>2026-05-02T09:25:18.538Z</time></trkpt><trkpt lat="45.4253812" lon="11.4770681"><ele>42.0</ele><time>2026-05-02T09:25:19.538Z</time></trkpt><trkpt lat="45.4255464" lon="11.4772551"><ele>42.0</ele><time>2026-05-02T09:25:20.538Z</time></trkpt><trkpt lat="45.4256903" lon="11.4774069"><ele>44.0</ele><time>2026-05-02T09:25:21.537Z</time></trkpt><trkpt lat="45.425833" lon="11.477522"><ele>46.0</ele><time>2026-05-02T09:25:22.539Z</time></trkpt><trkpt lat="45.4259821" lon="11.4775896"><ele>48.0</ele><time>2026-05-02T09:25:23.537Z</time></trkpt><trkpt lat="45.4261241" lon="11.4776122"><ele>48.0</ele><time>2026-05-02T09:25:24.539Z</time></trkpt><trkpt lat="45.4262486" lon="11.4776138"><ele>48.0</ele><time>2026-05-02T09:25:25.539Z</time></trkpt><trkpt lat="45.4263537" lon="11.4776198"><ele>48.0</ele><time>2026-05-02T09:25:26.538Z</time></trkpt><trkpt lat="45.4264368" lon="11.4776234"><ele>48.0</ele><time>2026-05-02T09:25:27.537Z</time></trkpt><trkpt lat="45.4265003" lon="11.4776218"><ele>48.0</ele><time>2026-05-02T09:25:28.539Z</time></trkpt><trkpt lat="45.4265865" lon="11.4776292"><ele>48.0</ele><time>2026-05-02T09:25:30.537Z</time></trkpt><trkpt lat="45.4266054" lon="11.477724"><ele>48.0</ele><time>2026-05-02T09:25:32.538Z</time></trkpt><trkpt lat="45.4265242" lon="11.4778049"><ele>48.0</ele><time>2026-05-02T09:25:34.539Z</time></trkpt><trkpt lat="45.426449" lon="11.4778051"><ele>48.0</ele><time>2026-05-02T09:25:35.538Z</time></trkpt><trkpt lat="45.4263664" lon="11.4778295"><ele>48.0</ele><time>2026-05-02T09:25:36.538Z</time></trkpt><trkpt lat="45.4262707" lon="11.4778763"><ele>48.0</ele><time>2026-05-02T09:25:37.539Z</time></trkpt><trkpt lat="45.4261716" lon="11.4779429"><ele>50.599999999999994</ele><time>2026-05-02T09:25:38.537Z</time></trkpt><trkpt lat="45.4260852" lon="11.4780321"><ele>53.199999999999996</ele><time>2026-05-02T09:25:39.538Z</time></trkpt><trkpt lat="45.4260227" lon="11.4781456"><ele>55.8</ele><time>2026-05-02T09:25:40.538Z</time></trkpt><trkpt lat="45.4259881" lon="11.4782811"><ele>58.4</ele><time>2026-05-02T09:25:41.538Z</time></trkpt><trkpt lat="45.4259814" lon="11.4784389"><ele>61.0</ele><time>2026-05-02T09:25:42.537Z</time></trkpt><trkpt lat="45.4259888" lon="11.4786035"><ele>62.599999999999994</ele><time>2026-05-02T09:25:43.538Z</time></trkpt><trkpt lat="45.4260055" lon="11.4787721"><ele>64.19999999999999</ele><time>2026-05-02T09:25:44.538Z</time></trkpt><trkpt lat="45.4260296" lon="11.4789311"><ele>65.80000000000001</ele><time>2026-05-02T09:25:45.538Z</time></trkpt><trkpt lat="45.426053" lon="11.479081"><ele>67.4</ele><time>2026-05-02T09:25:46.538Z</time></trkpt><trkpt lat="45.4260716" lon="11.4792237"><ele>69.0</ele><time>2026-05-02T09:25:47.538Z</time></trkpt><trkpt lat="45.4260851" lon="11.4793571"><ele>69.0</ele><time>2026-05-02T09:25:48.538Z</time></trkpt><trkpt lat="45.4260945" lon="11.4794846"><ele>69.0</ele><time>2026-05-02T09:25:49.538Z</time></trkpt><trkpt lat="45.4260999" lon="11.4796122"><ele>69.0</ele><time>2026-05-02T09:25:50.539Z</time></trkpt><trkpt lat="45.4261037" lon="11.4797402"><ele>69.0</ele><time>2026-05-02T09:25:51.539Z</time></trkpt><trkpt lat="45.4261008" lon="11.4798688"><ele>69.0</ele><time>2026-05-02T09:25:52.537Z</time></trkpt><trkpt lat="45.4260965" lon="11.479996"><ele>69.0</ele><time>2026-05-02T09:25:53.537Z</time></trkpt><trkpt lat="45.4260919" lon="11.4801255"><ele>71.4</ele><time>2026-05-02T09:25:54.538Z</time></trkpt><trkpt lat="45.4260734" lon="11.4802533"><ele>73.80000000000001</ele><time>2026-05-02T09:25:55.537Z</time></trkpt><trkpt lat="45.4260313" lon="11.4803654"><ele>76.19999999999999</ele><time>2026-05-02T09:25:56.539Z</time></trkpt><trkpt lat="45.4259636" lon="11.4804515"><ele>78.6</ele><time>2026-05-02T09:25:57.538Z</time></trkpt><trkpt lat="45.4258806" lon="11.4805143"><ele>81.0</ele><time>2026-05-02T09:25:58.538Z</time></trkpt><trkpt lat="45.4257872" lon="11.4805718"><ele>83.5</ele><time>2026-05-02T09:25:59.538Z</time></trkpt><trkpt lat="45.4256761" lon="11.4806395"><ele>86.0</ele><time>2026-05-02T09:26:00.539Z</time></trkpt><trkpt lat="45.4255526" lon="11.4807198"><ele>88.5</ele><time>2026-05-02T09:26:01.538Z</time></trkpt><trkpt lat="45.4254221" lon="11.4808047"><ele>91.0</ele><time>2026-05-02T09:26:02.537Z</time></trkpt><trkpt lat="45.4252844" lon="11.480889"><ele>91.0</ele><time>2026-05-02T09:26:03.539Z</time></trkpt><trkpt lat="45.4251494" lon="11.4809766"><ele>91.0</ele><time>2026-05-02T09:26:04.538Z</time></trkpt><trkpt lat="45.4250207" lon="11.4810784"><ele>91.0</ele><time>2026-05-02T09:26:05.538Z</time></trkpt><trkpt lat="45.4249052" lon="11.4811942"><ele>91.0</ele><time>2026-05-02T09:26:06.538Z</time></trkpt><trkpt lat="45.4248013" lon="11.4813182"><ele>95.0</ele><time>2026-05-02T09:26:07.538Z</time></trkpt><trkpt lat="45.4247046" lon="11.48144"><ele>99.0</ele><time>2026-05-02T09:26:08.539Z</time></trkpt><trkpt lat="45.424612" lon="11.4815526"><ele>103.0</ele><time>2026-05-02T09:26:09.538Z</time></trkpt><trkpt lat="45.4245148" lon="11.4816314"><ele>107.0</ele><time>2026-05-02T09:26:10.538Z</time></trkpt><trkpt lat="45.4244092" lon="11.4816673"><ele>107.0</ele><time>2026-05-02T09:26:11.538Z</time></trkpt><trkpt lat="45.4243002" lon="11.4816617"><ele>106.99999999999999</ele><time>2026-05-02T09:26:12.538Z</time></trkpt><trkpt lat="45.4241912" lon="11.4816402"><ele>106.99999999999999</ele><time>2026-05-02T09:26:13.538Z</time></trkpt><trkpt lat="45.4240822" lon="11.4816168"><ele>107.0</ele><time>2026-05-02T09:26:14.538Z</time></trkpt><trkpt lat="45.4239927" lon="11.4815927"><ele>107.0</ele><time>2026-05-02T09:26:15.538Z</time></trkpt><trkpt lat="45.4239186" lon="11.4815861"><ele>106.99999999999999</ele><time>2026-05-02T09:26:16.539Z</time></trkpt><trkpt lat="45.4238558" lon="11.4816059"><ele>107.0</ele><time>2026-05-02T09:26:17.538Z</time></trkpt><trkpt lat="45.4238026" lon="11.4816616"><ele>107.0</ele><time>2026-05-02T09:26:18.539Z</time></trkpt><trkpt lat="45.4237609" lon="11.4817613"><ele>107.0</ele><time>2026-05-02T09:26:19.538Z</time></trkpt><trkpt lat="45.4237323" lon="11.4819056"><ele>106.99999999999999</ele><time>2026-05-02T09:26:20.539Z</time></trkpt><trkpt lat="45.4237025" lon="11.4820776"><ele>107.0</ele><time>2026-05-02T09:26:21.539Z</time></trkpt><trkpt lat="45.4236688" lon="11.4822673"><ele>106.66666666666666</ele><time>2026-05-02T09:26:22.538Z</time></trkpt><trkpt lat="45.4236353" lon="11.4824701"><ele>106.33333333333334</ele><time>2026-05-02T09:26:23.538Z</time></trkpt><trkpt lat="45.4236025" lon="11.482683"><ele>106.0</ele><time>2026-05-02T09:26:24.539Z</time></trkpt><trkpt lat="45.4235681" lon="11.4829025"><ele>108.5</ele><time>2026-05-02T09:26:25.539Z</time></trkpt><trkpt lat="45.4235316" lon="11.4831133"><ele>111.0</ele><time>2026-05-02T09:26:26.539Z</time></trkpt><trkpt lat="45.4234995" lon="11.4833066"><ele>113.5</ele><time>2026-05-02T09:26:27.539Z</time></trkpt><trkpt lat="45.423472" lon="11.4834715"><ele>116.0</ele><time>2026-05-02T09:26:28.539Z</time></trkpt><trkpt lat="45.4234505" lon="11.4836127"><ele>115.99999999999999</ele><time>2026-05-02T09:26:29.538Z</time></trkpt><trkpt lat="45.4234406" lon="11.4837317"><ele>116.0</ele><time>2026-05-02T09:26:30.537Z</time></trkpt><trkpt lat="45.4234615" lon="11.4838292"><ele>116.0</ele><time>2026-05-02T09:26:31.538Z</time></trkpt><trkpt lat="45.4235098" lon="11.483902"><ele>116.0</ele><time>2026-05-02T09:26:32.539Z</time></trkpt><trkpt lat="45.4235791" lon="11.4839271"><ele>115.99999999999999</ele><time>2026-05-02T09:26:33.539Z</time></trkpt><trkpt lat="45.4236602" lon="11.4839001"><ele>116.0</ele><time>2026-05-02T09:26:34.538Z</time></trkpt><trkpt lat="45.4237505" lon="11.4838355"><ele>120.75</ele><time>2026-05-02T09:26:35.538Z</time></trkpt><trkpt lat="45.4238567" lon="11.4837529"><ele>125.5</ele><time>2026-05-02T09:26:36.539Z</time></trkpt><trkpt lat="45.4239746" lon="11.4836618"><ele>130.25</ele><time>2026-05-02T09:26:37.538Z</time></trkpt><trkpt lat="45.4241008" lon="11.4835621"><ele>135.0</ele><time>2026-05-02T09:26:38.538Z</time></trkpt><trkpt lat="45.4242332" lon="11.483458"><ele>135.0</ele><time>2026-05-02T09:26:39.539Z</time></trkpt><trkpt lat="45.4243745" lon="11.4833516"><ele>135.0</ele><time>2026-05-02T09:26:40.539Z</time></trkpt><trkpt lat="45.4245188" lon="11.4832411"><ele>135.0</ele><time>2026-05-02T09:26:41.537Z</time></trkpt><trkpt lat="45.4246641" lon="11.48312"><ele>136.33333333333334</ele><time>2026-05-02T09:26:42.538Z</time></trkpt><trkpt lat="45.4248036" lon="11.4829881"><ele>137.66666666666669</ele><time>2026-05-02T09:26:43.537Z</time></trkpt><trkpt lat="45.4249392" lon="11.482847"><ele>139.0</ele><time>2026-05-02T09:26:44.539Z</time></trkpt><trkpt lat="45.4250669" lon="11.4827048"><ele>139.0</ele><time>2026-05-02T09:26:45.539Z</time></trkpt><trkpt lat="45.4251929" lon="11.4825673"><ele>139.0</ele><time>2026-05-02T09:26:46.538Z</time></trkpt><trkpt lat="45.425322" lon="11.4824411"><ele>139.0</ele><time>2026-05-02T09:26:47.538Z</time></trkpt><trkpt lat="45.4254604" lon="11.4823301"><ele>139.5</ele><time>2026-05-02T09:26:48.538Z</time></trkpt><trkpt lat="45.4256027" lon="11.4822349"><ele>140.0</ele><time>2026-05-02T09:26:49.538Z</time></trkpt><trkpt lat="45.4257312" lon="11.4821551"><ele>140.5</ele><time>2026-05-02T09:26:50.538Z</time></trkpt><trkpt lat="45.4258597" lon="11.4820899"><ele>141.0</ele><time>2026-05-02T09:26:51.538Z</time></trkpt><trkpt lat="45.425999" lon="11.4820529"><ele>141.0</ele><time>2026-05-02T09:26:52.539Z</time></trkpt><trkpt lat="45.426146" lon="11.4820441"><ele>141.0</ele><time>2026-05-02T09:26:53.539Z</time></trkpt><trkpt lat="45.4262984" lon="11.482045"><ele>141.0</ele><time>2026-05-02T09:26:54.538Z</time></trkpt><trkpt lat="45.4264571" lon="11.4820169"><ele>146.33333333333334</ele><time>2026-05-02T09:26:55.539Z</time></trkpt><trkpt lat="45.4266243" lon="11.4819639"><ele>151.66666666666669</ele><time>2026-05-02T09:26:56.539Z</time></trkpt><trkpt lat="45.4267875" lon="11.4818938"><ele>157.0</ele><time>2026-05-02T09:26:57.538Z</time></trkpt><trkpt lat="45.4269362" lon="11.4818147"><ele>157.0</ele><time>2026-05-02T09:26:58.538Z</time></trkpt><trkpt lat="45.42707" lon="11.4817316"><ele>157.0</ele><time>2026-05-02T09:26:59.538Z</time></trkpt><trkpt lat="45.4271915" lon="11.481636"><ele>157.0</ele><time>2026-05-02T09:27:00.538Z</time></trkpt><trkpt lat="45.4273083" lon="11.4815362"><ele>157.0</ele><time>2026-05-02T09:27:01.539Z</time></trkpt><trkpt lat="45.4274337" lon="11.4814494"><ele>162.25</ele><time>2026-05-02T09:27:02.538Z</time></trkpt><trkpt lat="45.4275701" lon="11.4813797"><ele>167.5</ele><time>2026-05-02T09:27:03.538Z</time></trkpt><trkpt lat="45.4277087" lon="11.481335"><ele>172.75</ele><time>2026-05-02T09:27:04.538Z</time></trkpt><trkpt lat="45.4278475" lon="11.4813155"><ele>178.0</ele><time>2026-05-02T09:27:05.538Z</time></trkpt><trkpt lat="45.4279911" lon="11.4813366"><ele>179.66666666666669</ele><time>2026-05-02T09:27:06.538Z</time></trkpt><trkpt lat="45.4281432" lon="11.4813863"><ele>181.33333333333334</ele><time>2026-05-02T09:27:07.538Z</time></trkpt><trkpt lat="45.4282967" lon="11.4814383"><ele>183.0</ele><time>2026-05-02T09:27:08.538Z</time></trkpt><trkpt lat="45.4284415" lon="11.4814945"><ele>183.0</ele><time>2026-05-02T09:27:09.539Z</time></trkpt><trkpt lat="45.4285715" lon="11.481548"><ele>183.0</ele><time>2026-05-02T09:27:10.538Z</time></trkpt><trkpt lat="45.4286864" lon="11.4815874"><ele>183.0</ele><time>2026-05-02T09:27:11.538Z</time></trkpt><trkpt lat="45.4287874" lon="11.4816205"><ele>183.0</ele><time>2026-05-02T09:27:12.538Z</time></trkpt><trkpt lat="45.4288769" lon="11.4816501"><ele>183.0</ele><time>2026-05-02T09:27:13.537Z</time></trkpt><trkpt lat="45.4289429" lon="11.4816767"><ele>183.0</ele><time>2026-05-02T09:27:14.539Z</time></trkpt><trkpt lat="45.4290044" lon="11.4817945"><ele>183.0</ele><time>2026-05-02T09:27:16.538Z</time></trkpt><trkpt lat="45.4289487" lon="11.4819065"><ele>183.0</ele><time>2026-05-02T09:27:18.538Z</time></trkpt><trkpt lat="45.4288837" lon="11.481934"><ele>183.0</ele><time>2026-05-02T09:27:19.538Z</time></trkpt><trkpt lat="45.4288034" lon="11.4819485"><ele>183.0</ele><time>2026-05-02T09:27:20.539Z</time></trkpt><trkpt lat="45.4287039" lon="11.4819602"><ele>183.0</ele><time>2026-05-02T09:27:21.539Z</time></trkpt><trkpt lat="45.4285878" lon="11.4819864"><ele>183.0</ele><time>2026-05-02T09:27:22.539Z</time></trkpt><trkpt lat="45.4284579" lon="11.4820246"><ele>183.0</ele><time>2026-05-02T09:27:23.537Z</time></trkpt><trkpt lat="45.4283184" lon="11.4820769"><ele>183.0</ele><time>2026-05-02T09:27:24.537Z</time></trkpt><trkpt lat="45.4281775" lon="11.4821456"><ele>183.0</ele><time>2026-05-02T09:27:25.538Z</time></trkpt><trkpt lat="45.4280382" lon="11.4822406"><ele>187.33333333333331</ele><time>2026-05-02T09:27:26.538Z</time></trkpt><trkpt lat="45.4278986" lon="11.4823569"><ele>191.66666666666666</ele><time>2026-05-02T09:27:27.538Z</time></trkpt><trkpt lat="45.4277611" lon="11.4824963"><ele>196.0</ele><time>2026-05-02T09:27:28.539Z</time></trkpt><trkpt lat="45.4276205" lon="11.4826477"><ele>196.0</ele><time>2026-05-02T09:27:29.538Z</time></trkpt><trkpt lat="45.4274794" lon="11.4828002"><ele>196.0</ele><time>2026-05-02T09:27:30.538Z</time></trkpt><trkpt lat="45.4273469" lon="11.482942"><ele>196.0</ele><time>2026-05-02T09:27:31.538Z</time></trkpt><trkpt lat="45.4272273" lon="11.483071"><ele>197.25</ele><time>2026-05-02T09:27:32.537Z</time></trkpt><trkpt lat="45.4271178" lon="11.4831883"><ele>198.5</ele><time>2026-05-02T09:27:33.538Z</time></trkpt><trkpt lat="45.4270205" lon="11.483291"><ele>199.75</ele><time>2026-05-02T09:27:34.539Z</time></trkpt><trkpt lat="45.426937" lon="11.4833833"><ele>201.0</ele><time>2026-05-02T09:27:35.539Z</time></trkpt><trkpt lat="45.4268698" lon="11.4834655"><ele>201.0</ele><time>2026-05-02T09:27:36.538Z</time></trkpt><trkpt lat="45.4268264" lon="11.4835542"><ele>201.0</ele><time>2026-05-02T09:27:37.538Z</time></trkpt><trkpt lat="45.4268145" lon="11.4836525"><ele>201.0</ele><time>2026-05-02T09:27:38.539Z</time></trkpt><trkpt lat="45.4268433" lon="11.4837443"><ele>201.0</ele><time>2026-05-02T09:27:39.539Z</time></trkpt><trkpt lat="45.4269098" lon="11.4838035"><ele>201.0</ele><time>2026-05-02T09:27:40.538Z</time></trkpt><trkpt lat="45.4269968" lon="11.4838254"><ele>201.0</ele><time>2026-05-02T09:27:41.539Z</time></trkpt><trkpt lat="45.4271024" lon="11.4838284"><ele>206.25</ele><time>2026-05-02T09:27:42.538Z</time></trkpt><trkpt lat="45.4272227" lon="11.4838353"><ele>211.5</ele><time>2026-05-02T09:27:43.539Z</time></trkpt><trkpt lat="45.4273535" lon="11.483845"><ele>216.75</ele><time>2026-05-02T09:27:44.539Z</time></trkpt><trkpt lat="45.427487" lon="11.4838528"><ele>222.0</ele><time>2026-05-02T09:27:45.539Z</time></trkpt><trkpt lat="45.4276208" lon="11.4838573"><ele>222.0</ele><time>2026-05-02T09:27:46.538Z</time></trkpt><trkpt lat="45.4277593" lon="11.4838615"><ele>222.0</ele><time>2026-05-02T09:27:47.538Z</time></trkpt><trkpt lat="45.4278977" lon="11.4838656"><ele>222.0</ele><time>2026-05-02T09:27:48.538Z</time></trkpt><trkpt lat="45.4279987" lon="11.4838843"><ele>222.0</ele><time>2026-05-02T09:27:49.538Z</time></trkpt><trkpt lat="45.4280823" lon="11.4839342"><ele>222.8</ele><time>2026-05-02T09:27:50.539Z</time></trkpt><trkpt lat="45.4281442" lon="11.484024"><ele>223.6</ele><time>2026-05-02T09:27:51.538Z</time></trkpt><trkpt lat="45.4281684" lon="11.4841329"><ele>224.40000000000003</ele><time>2026-05-02T09:27:52.539Z</time></trkpt><trkpt lat="45.4281541" lon="11.4842539"><ele>225.20000000000002</ele><time>2026-05-02T09:27:53.537Z</time></trkpt><trkpt lat="45.428103" lon="11.4843749"><ele>226.0</ele><time>2026-05-02T09:27:54.538Z</time></trkpt><trkpt lat="45.4280178" lon="11.484486"><ele>225.0</ele><time>2026-05-02T09:27:55.538Z</time></trkpt><trkpt lat="45.4279133" lon="11.4845939"><ele>224.0</ele><time>2026-05-02T09:27:56.538Z</time></trkpt><trkpt lat="45.4277952" lon="11.4847217"><ele>223.0</ele><time>2026-05-02T09:27:57.538Z</time></trkpt><trkpt lat="45.4276685" lon="11.4848614"><ele>222.0</ele><time>2026-05-02T09:27:58.537Z</time></trkpt><trkpt lat="45.427532" lon="11.4850076"><ele>226.0</ele><time>2026-05-02T09:27:59.538Z</time></trkpt><trkpt lat="45.4273899" lon="11.4851652"><ele>230.0</ele><time>2026-05-02T09:28:00.539Z</time></trkpt><trkpt lat="45.4272547" lon="11.4853168"><ele>234.0</ele><time>2026-05-02T09:28:01.539Z</time></trkpt><trkpt lat="45.4271232" lon="11.48546"><ele>238.33333333333331</ele><time>2026-05-02T09:28:02.538Z</time></trkpt><trkpt lat="45.426989" lon="11.4855992"><ele>242.66666666666666</ele><time>2026-05-02T09:28:03.538Z</time></trkpt><trkpt lat="45.4268522" lon="11.4857267"><ele>247.0</ele><time>2026-05-02T09:28:04.538Z</time></trkpt><trkpt lat="45.4267146" lon="11.485845"><ele>247.0</ele><time>2026-05-02T09:28:05.539Z</time></trkpt><trkpt lat="45.4265774" lon="11.4859531"><ele>247.0</ele><time>2026-05-02T09:28:06.537Z</time></trkpt><trkpt lat="45.4264396" lon="11.4860547"><ele>247.0</ele><time>2026-05-02T09:28:07.538Z</time></trkpt><trkpt lat="45.4263047" lon="11.4861557"><ele>249.25</ele><time>2026-05-02T09:28:08.538Z</time></trkpt><trkpt lat="45.4261761" lon="11.4862504"><ele>251.5</ele><time>2026-05-02T09:28:09.537Z</time></trkpt><trkpt lat="45.426049" lon="11.4863432"><ele>253.75</ele><time>2026-05-02T09:28:10.537Z</time></trkpt><trkpt lat="45.4259264" lon="11.4864326"><ele>256.0</ele><time>2026-05-02T09:28:11.539Z</time></trkpt><trkpt lat="45.4258214" lon="11.4865237"><ele>256.0</ele><time>2026-05-02T09:28:12.538Z</time></trkpt><trkpt lat="45.4257268" lon="11.4866401"><ele>256.0</ele><time>2026-05-02T09:28:13.537Z</time></trkpt><trkpt lat="45.4256367" lon="11.4867698"><ele>256.0</ele><time>2026-05-02T09:28:14.538Z</time></trkpt><trkpt lat="45.4255546" lon="11.4869116"><ele>256.0</ele><time>2026-05-02T09:28:15.537Z</time></trkpt><trkpt lat="45.4254767" lon="11.4870618"><ele>254.25</ele><time>2026-05-02T09:28:16.539Z</time></trkpt><trkpt lat="45.4254016" lon="11.4872136"><ele>252.5</ele><time>2026-05-02T09:28:17.538Z</time></trkpt><trkpt lat="45.4253363" lon="11.4873604"><ele>250.75</ele><time>2026-05-02T09:28:18.538Z</time></trkpt><trkpt lat="45.4252746" lon="11.4874923"><ele>249.0</ele><time>2026-05-02T09:28:19.538Z</time></trkpt><trkpt lat="45.4252267" lon="11.4876141"><ele>249.0</ele><time>2026-05-02T09:28:20.538Z</time></trkpt><trkpt lat="45.4252009" lon="11.4877414"><ele>248.99999999999997</ele><time>2026-05-02T09:28:21.539Z</time></trkpt><trkpt lat="45.4251954" lon="11.4878748"><ele>248.99999999999997</ele><time>2026-05-02T09:28:22.538Z</time></trkpt><trkpt lat="45.4252229" lon="11.4880216"><ele>249.0</ele><time>2026-05-02T09:28:23.538Z</time></trkpt><trkpt lat="45.4252657" lon="11.4881806"><ele>249.0</ele><time>2026-05-02T09:28:24.538Z</time></trkpt><trkpt lat="45.425313" lon="11.4883477"><ele>250.25</ele><time>2026-05-02T09:28:25.538Z</time></trkpt><trkpt lat="45.4253594" lon="11.4885212"><ele>251.5</ele><time>2026-05-02T09:28:26.538Z</time></trkpt><trkpt lat="45.4254079" lon="11.4886982"><ele>252.75</ele><time>2026-05-02T09:28:27.538Z</time></trkpt><trkpt lat="45.4254628" lon="11.4888755"><ele>254.0</ele><time>2026-05-02T09:28:28.539Z</time></trkpt><trkpt lat="45.4255087" lon="11.4890635"><ele>258.0</ele><time>2026-05-02T09:28:29.538Z</time></trkpt><trkpt lat="45.4255571" lon="11.4892602"><ele>262.0</ele><time>2026-05-02T09:28:30.538Z</time></trkpt><trkpt lat="45.4256203" lon="11.4894578"><ele>266.0</ele><time>2026-05-02T09:28:31.538Z</time></trkpt><trkpt lat="45.4256951" lon="11.4896558"><ele>266.0</ele><time>2026-05-02T09:28:32.538Z</time></trkpt><trkpt lat="45.4257773" lon="11.4898518"><ele>266.0</ele><time>2026-05-02T09:28:33.537Z</time></trkpt><trkpt lat="45.4258579" lon="11.4900411"><ele>266.0</ele><time>2026-05-02T09:28:34.538Z</time></trkpt><trkpt lat="45.4259406" lon="11.490228"><ele>266.0</ele><time>2026-05-02T09:28:35.537Z</time></trkpt><trkpt lat="45.426019" lon="11.4904049"><ele>266.0</ele><time>2026-05-02T09:28:36.538Z</time></trkpt><trkpt lat="45.426095" lon="11.4905768"><ele>266.0</ele><time>2026-05-02T09:28:37.537Z</time></trkpt><trkpt lat="45.4261753" lon="11.4907418"><ele>266.0</ele><time>2026-05-02T09:28:38.537Z</time></trkpt><trkpt lat="45.4262583" lon="11.4909048"><ele>268.6666666666667</ele><time>2026-05-02T09:28:39.538Z</time></trkpt><trkpt lat="45.4263471" lon="11.4910661"><ele>271.3333333333333</ele><time>2026-05-02T09:28:40.538Z</time></trkpt><trkpt lat="45.4264552" lon="11.4912225"><ele>274.0</ele><time>2026-05-02T09:28:41.537Z</time></trkpt><trkpt lat="45.4265759" lon="11.491378"><ele>275.66666666666663</ele><time>2026-05-02T09:28:42.539Z</time></trkpt><trkpt lat="45.4266975" lon="11.4915337"><ele>277.3333333333333</ele><time>2026-05-02T09:28:43.538Z</time></trkpt><trkpt lat="45.4268234" lon="11.4916882"><ele>279.0</ele><time>2026-05-02T09:28:44.539Z</time></trkpt><trkpt lat="45.4269535" lon="11.4918391"><ele>279.0</ele><time>2026-05-02T09:28:45.539Z</time></trkpt><trkpt lat="45.4270841" lon="11.4919891"><ele>279.0</ele><time>2026-05-02T09:28:46.539Z</time></trkpt><trkpt lat="45.4272149" lon="11.4921381"><ele>279.0</ele><time>2026-05-02T09:28:47.538Z</time></trkpt><trkpt lat="45.4273449" lon="11.4922843"><ele>280.6666666666667</ele><time>2026-05-02T09:28:48.538Z</time></trkpt><trkpt lat="45.4274744" lon="11.4924314"><ele>282.33333333333337</ele><time>2026-05-02T09:28:49.537Z</time></trkpt><trkpt lat="45.4276049" lon="11.4925797"><ele>284.0</ele><time>2026-05-02T09:28:50.539Z</time></trkpt><trkpt lat="45.4277357" lon="11.4927257"><ele>284.0</ele><time>2026-05-02T09:28:51.537Z</time></trkpt><trkpt lat="45.4278657" lon="11.4928724"><ele>284.0</ele><time>2026-05-02T09:28:52.539Z</time></trkpt><trkpt lat="45.4279961" lon="11.4930178"><ele>284.0</ele><time>2026-05-02T09:28:53.539Z</time></trkpt><trkpt lat="45.4281247" lon="11.4931604"><ele>285.0</ele><time>2026-05-02T09:28:54.539Z</time></trkpt><trkpt lat="45.428244" lon="11.4932917"><ele>286.0</ele><time>2026-05-02T09:28:55.538Z</time></trkpt><trkpt lat="45.4283562" lon="11.4934155"><ele>287.0</ele><time>2026-05-02T09:28:56.538Z</time></trkpt><trkpt lat="45.428466" lon="11.4935407"><ele>288.0</ele><time>2026-05-02T09:28:57.539Z</time></trkpt><trkpt lat="45.4285694" lon="11.4936827"><ele>286.25</ele><time>2026-05-02T09:28:58.538Z</time></trkpt><trkpt lat="45.4286588" lon="11.4938473"><ele>284.5</ele><time>2026-05-02T09:28:59.539Z</time></trkpt><trkpt lat="45.428721" lon="11.4940124"><ele>282.75</ele><time>2026-05-02T09:29:00.538Z</time></trkpt><trkpt lat="45.428753" lon="11.4941832"><ele>281.0</ele><time>2026-05-02T09:29:01.538Z</time></trkpt><trkpt lat="45.4287574" lon="11.4943658"><ele>281.0</ele><time>2026-05-02T09:29:02.538Z</time></trkpt><trkpt lat="45.4287353" lon="11.4945572"><ele>281.0</ele><time>2026-05-02T09:29:03.539Z</time></trkpt><trkpt lat="45.4286906" lon="11.4947471"><ele>281.0</ele><time>2026-05-02T09:29:04.537Z</time></trkpt><trkpt lat="45.4286242" lon="11.4949224"><ele>281.0</ele><time>2026-05-02T09:29:05.538Z</time></trkpt><trkpt lat="45.428558" lon="11.4950638"><ele>282.0</ele><time>2026-05-02T09:29:06.538Z</time></trkpt><trkpt lat="45.4284986" lon="11.4951884"><ele>283.0</ele><time>2026-05-02T09:29:07.538Z</time></trkpt><trkpt lat="45.4284478" lon="11.4953066"><ele>284.0</ele><time>2026-05-02T09:29:08.538Z</time></trkpt><trkpt lat="45.4284117" lon="11.4954281"><ele>285.0</ele><time>2026-05-02T09:29:09.539Z</time></trkpt><trkpt lat="45.4283954" lon="11.4955442"><ele>286.0</ele><time>2026-05-02T09:29:10.539Z</time></trkpt><trkpt lat="45.4284007" lon="11.4956488"><ele>286.2</ele><time>2026-05-02T09:29:11.538Z</time></trkpt><trkpt lat="45.4284406" lon="11.4957453"><ele>286.40000000000003</ele><time>2026-05-02T09:29:12.538Z</time></trkpt><trkpt lat="45.4285067" lon="11.4958249"><ele>286.6</ele><time>2026-05-02T09:29:13.538Z</time></trkpt><trkpt lat="45.4285911" lon="11.4958766"><ele>286.8</ele><time>2026-05-02T09:29:14.538Z</time></trkpt><trkpt lat="45.4286903" lon="11.4958894"><ele>287.0</ele><time>2026-05-02T09:29:15.539Z</time></trkpt><trkpt lat="45.4287992" lon="11.4958706"><ele>286.4</ele><time>2026-05-02T09:29:16.538Z</time></trkpt><trkpt lat="45.4289154" lon="11.4958316"><ele>285.79999999999995</ele><time>2026-05-02T09:29:17.537Z</time></trkpt><trkpt lat="45.4290324" lon="11.4957861"><ele>285.2</ele><time>2026-05-02T09:29:18.538Z</time></trkpt><trkpt lat="45.4291337" lon="11.4957527"><ele>284.59999999999997</ele><time>2026-05-02T09:29:19.538Z</time></trkpt><trkpt lat="45.4292301" lon="11.4957181"><ele>284.0</ele><time>2026-05-02T09:29:20.538Z</time></trkpt><trkpt lat="45.429323" lon="11.4956854"><ele>284.0</ele><time>2026-05-02T09:29:21.537Z</time></trkpt><trkpt lat="45.4294032" lon="11.4956562"><ele>284.0</ele><time>2026-05-02T09:29:22.538Z</time></trkpt><trkpt lat="45.4294751" lon="11.4956427"><ele>284.0</ele><time>2026-05-02T09:29:23.537Z</time></trkpt><trkpt lat="45.429578" lon="11.4957322"><ele>284.0</ele><time>2026-05-02T09:29:25.539Z</time></trkpt><trkpt lat="45.4295945" lon="11.4958188"><ele>284.0</ele><time>2026-05-02T09:29:26.538Z</time></trkpt><trkpt lat="45.4295849" lon="11.4959225"><ele>284.0</ele><time>2026-05-02T09:29:27.538Z</time></trkpt><trkpt lat="45.4295474" lon="11.4960184"><ele>284.0</ele><time>2026-05-02T09:29:28.539Z</time></trkpt><trkpt lat="45.4294991" lon="11.4961105"><ele>284.0</ele><time>2026-05-02T09:29:29.539Z</time></trkpt><trkpt lat="45.4294526" lon="11.496209"><ele>284.0</ele><time>2026-05-02T09:29:30.537Z</time></trkpt><trkpt lat="45.4294068" lon="11.4963212"><ele>284.0</ele><time>2026-05-02T09:29:31.539Z</time></trkpt><trkpt lat="45.4293631" lon="11.4964535"><ele>284.0</ele><time>2026-05-02T09:29:32.537Z</time></trkpt><trkpt lat="45.429328" lon="11.4966111"><ele>281.75</ele><time>2026-05-02T09:29:33.538Z</time></trkpt><trkpt lat="45.429292" lon="11.4967847"><ele>279.5</ele><time>2026-05-02T09:29:34.538Z</time></trkpt><trkpt lat="45.4292535" lon="11.4969645"><ele>277.25</ele><time>2026-05-02T09:29:35.538Z</time></trkpt><trkpt lat="45.4292148" lon="11.497145"><ele>275.0</ele><time>2026-05-02T09:29:36.539Z</time></trkpt><trkpt lat="45.4291754" lon="11.4973217"><ele>274.75</ele><time>2026-05-02T09:29:37.538Z</time></trkpt><trkpt lat="45.4291208" lon="11.4975015"><ele>274.5</ele><time>2026-05-02T09:29:38.538Z</time></trkpt><trkpt lat="45.429056" lon="11.4976914"><ele>274.25</ele><time>2026-05-02T09:29:39.538Z</time></trkpt><trkpt lat="45.4289798" lon="11.4978895"><ele>274.0</ele><time>2026-05-02T09:29:40.538Z</time></trkpt><trkpt lat="45.4288924" lon="11.4980958"><ele>267.3333333333333</ele><time>2026-05-02T09:29:41.537Z</time></trkpt><trkpt lat="45.4287993" lon="11.4983027"><ele>260.6666666666667</ele><time>2026-05-02T09:29:42.538Z</time></trkpt><trkpt lat="45.4287037" lon="11.498502"><ele>254.0</ele><time>2026-05-02T09:29:43.539Z</time></trkpt><trkpt lat="45.4286172" lon="11.4986919"><ele>256.0</ele><time>2026-05-02T09:29:44.538Z</time></trkpt><trkpt lat="45.4285369" lon="11.4988609"><ele>258.0</ele><time>2026-05-02T09:29:45.538Z</time></trkpt><trkpt lat="45.4284623" lon="11.499021"><ele>260.0</ele><time>2026-05-02T09:29:46.539Z</time></trkpt><trkpt lat="45.4283912" lon="11.4991702"><ele>262.0</ele><time>2026-05-02T09:29:47.538Z</time></trkpt><trkpt lat="45.4283262" lon="11.4993154"><ele>262.0</ele><time>2026-05-02T09:29:48.538Z</time></trkpt><trkpt lat="45.4282741" lon="11.4994705"><ele>262.0</ele><time>2026-05-02T09:29:49.538Z</time></trkpt><trkpt lat="45.428238" lon="11.499635"><ele>262.0</ele><time>2026-05-02T09:29:50.538Z</time></trkpt><trkpt lat="45.428219" lon="11.4997986"><ele>262.0</ele><time>2026-05-02T09:29:51.538Z</time></trkpt><trkpt lat="45.4282181" lon="11.4999604"><ele>262.6</ele><time>2026-05-02T09:29:52.537Z</time></trkpt><trkpt lat="45.4282398" lon="11.5001141"><ele>263.2</ele><time>2026-05-02T09:29:53.538Z</time></trkpt><trkpt lat="45.4282863" lon="11.5002595"><ele>263.8</ele><time>2026-05-02T09:29:54.538Z</time></trkpt><trkpt lat="45.4283425" lon="11.5003957"><ele>264.4</ele><time>2026-05-02T09:29:55.538Z</time></trkpt><trkpt lat="45.4284048" lon="11.500522"><ele>265.0</ele><time>2026-05-02T09:29:56.539Z</time></trkpt><trkpt lat="45.4284727" lon="11.5006388"><ele>265.0</ele><time>2026-05-02T09:29:57.538Z</time></trkpt><trkpt lat="45.4285414" lon="11.5007487"><ele>265.0</ele><time>2026-05-02T09:29:58.539Z</time></trkpt><trkpt lat="45.428598" lon="11.5008362"><ele>265.0</ele><time>2026-05-02T09:29:59.538Z</time></trkpt><trkpt lat="45.428655" lon="11.5009332"><ele>265.0</ele><time>2026-05-02T09:30:01.538Z</time></trkpt><trkpt lat="45.4286837" lon="11.5010368"><ele>265.0</ele><time>2026-05-02T09:30:04.538Z</time></trkpt><trkpt lat="45.428752" lon="11.5010967"><ele>265.0</ele><time>2026-05-02T09:30:08.538Z</time></trkpt><trkpt lat="45.4288293" lon="11.5010913"><ele>266.0</ele><time>2026-05-02T09:30:10.538Z</time></trkpt><trkpt lat="45.428947" lon="11.5011481"><ele>267.0</ele><time>2026-05-02T09:30:12.538Z</time></trkpt><trkpt lat="45.4290164" lon="11.501174"><ele>268.0</ele><time>2026-05-02T09:30:13.538Z</time></trkpt><trkpt lat="45.4290885" lon="11.5012026"><ele>269.0</ele><time>2026-05-02T09:30:14.537Z</time></trkpt><trkpt lat="45.4291478" lon="11.5012478"><ele>270.0</ele><time>2026-05-02T09:30:15.538Z</time></trkpt><trkpt lat="45.4291847" lon="11.5014037"><ele>270.0</ele><time>2026-05-02T09:30:17.538Z</time></trkpt><trkpt lat="45.4291085" lon="11.5015473"><ele>270.0</ele><time>2026-05-02T09:30:19.539Z</time></trkpt><trkpt lat="45.4290399" lon="11.501615"><ele>270.0</ele><time>2026-05-02T09:30:20.537Z</time></trkpt><trkpt lat="45.4289556" lon="11.5016726"><ele>270.0</ele><time>2026-05-02T09:30:21.538Z</time></trkpt><trkpt lat="45.42886" lon="11.5017275"><ele>270.0</ele><time>2026-05-02T09:30:22.538Z</time></trkpt><trkpt lat="45.4287686" lon="11.5017867"><ele>270.0</ele><time>2026-05-02T09:30:23.538Z</time></trkpt><trkpt lat="45.4286805" lon="11.5018504"><ele>270.0</ele><time>2026-05-02T09:30:24.539Z</time></trkpt><trkpt lat="45.4285944" lon="11.5019234"><ele>270.0</ele><time>2026-05-02T09:30:25.538Z</time></trkpt><trkpt lat="45.428507" lon="11.5020089"><ele>270.0</ele><time>2026-05-02T09:30:26.537Z</time></trkpt><trkpt lat="45.4284188" lon="11.502105"><ele>270.0</ele><time>2026-05-02T09:30:27.539Z</time></trkpt><trkpt lat="45.4283289" lon="11.5021968"><ele>272.4</ele><time>2026-05-02T09:30:28.538Z</time></trkpt><trkpt lat="45.4282335" lon="11.5022679"><ele>274.8</ele><time>2026-05-02T09:30:29.539Z</time></trkpt><trkpt lat="45.4281356" lon="11.5023152"><ele>277.2</ele><time>2026-05-02T09:30:30.538Z</time></trkpt><trkpt lat="45.4280392" lon="11.5023065"><ele>279.6</ele><time>2026-05-02T09:30:31.538Z</time></trkpt><trkpt lat="45.4279484" lon="11.5022526"><ele>282.0</ele><time>2026-05-02T09:30:32.539Z</time></trkpt><trkpt lat="45.427865" lon="11.5021773"><ele>282.0</ele><time>2026-05-02T09:30:33.538Z</time></trkpt><trkpt lat="45.4277964" lon="11.5020923"><ele>282.0</ele><time>2026-05-02T09:30:34.539Z</time></trkpt><trkpt lat="45.427735" lon="11.5020295"><ele>282.0</ele><time>2026-05-02T09:30:35.537Z</time></trkpt><trkpt lat="45.4276737" lon="11.5020041"><ele>282.0</ele><time>2026-05-02T09:30:36.539Z</time></trkpt><trkpt lat="45.4276072" lon="11.5020347"><ele>282.0</ele><time>2026-05-02T09:30:38.537Z</time></trkpt><trkpt lat="45.4276233" lon="11.5021386"><ele>282.0</ele><time>2026-05-02T09:30:41.538Z</time></trkpt><trkpt lat="45.4276682" lon="11.5022409"><ele>282.0</ele><time>2026-05-02T09:30:43.538Z</time></trkpt><trkpt lat="45.4277048" lon="11.5023152"><ele>282.0</ele><time>2026-05-02T09:30:44.538Z</time></trkpt><trkpt lat="45.4277518" lon="11.5024073"><ele>282.0</ele><time>2026-05-02T09:30:45.538Z</time></trkpt><trkpt lat="45.4278041" lon="11.5025087"><ele>282.0</ele><time>2026-05-02T09:30:46.539Z</time></trkpt><trkpt lat="45.427865" lon="11.5026043"><ele>282.0</ele><time>2026-05-02T09:30:47.537Z</time></trkpt><trkpt lat="45.4279354" lon="11.5026846"><ele>282.0</ele><time>2026-05-02T09:30:48.538Z</time></trkpt><trkpt lat="45.4280152" lon="11.5027455"><ele>282.8333333333333</ele><time>2026-05-02T09:30:49.538Z</time></trkpt><trkpt lat="45.4280942" lon="11.5027824"><ele>283.6666666666667</ele><time>2026-05-02T09:30:50.538Z</time></trkpt><trkpt lat="45.4281929" lon="11.502802"><ele>284.5</ele><time>2026-05-02T09:30:52.538Z</time></trkpt><trkpt lat="45.4282769" lon="11.5028063"><ele>285.33333333333337</ele><time>2026-05-02T09:30:55.538Z</time></trkpt><trkpt lat="45.4283277" lon="11.5028842"><ele>286.1666666666667</ele><time>2026-05-02T09:30:57.538Z</time></trkpt><trkpt lat="45.4282833" lon="11.5029686"><ele>287.0</ele><time>2026-05-02T09:30:59.538Z</time></trkpt><trkpt lat="45.4281556" lon="11.5029833"><ele>286.6666666666667</ele><time>2026-05-02T09:31:01.539Z</time></trkpt><trkpt lat="45.4280789" lon="11.5029832"><ele>286.33333333333337</ele><time>2026-05-02T09:31:02.538Z</time></trkpt><trkpt lat="45.4280105" lon="11.5029861"><ele>286.0</ele><time>2026-05-02T09:31:03.538Z</time></trkpt><trkpt lat="45.4279457" lon="11.503016"><ele>285.6666666666667</ele><time>2026-05-02T09:31:04.538Z</time></trkpt><trkpt lat="45.4278887" lon="11.5030854"><ele>285.3333333333333</ele><time>2026-05-02T09:31:05.538Z</time></trkpt><trkpt lat="45.427836" lon="11.5031811"><ele>285.0</ele><time>2026-05-02T09:31:06.538Z</time></trkpt><trkpt lat="45.4277837" lon="11.5032903"><ele>285.0</ele><time>2026-05-02T09:31:07.538Z</time></trkpt><trkpt lat="45.4277308" lon="11.5033976"><ele>285.0</ele><time>2026-05-02T09:31:08.539Z</time></trkpt><trkpt lat="45.4276911" lon="11.5034944"><ele>285.0</ele><time>2026-05-02T09:31:09.538Z</time></trkpt><trkpt lat="45.4276697" lon="11.5035865"><ele>285.0</ele><time>2026-05-02T09:31:10.537Z</time></trkpt><trkpt lat="45.4276684" lon="11.5036861"><ele>285.0</ele><time>2026-05-02T09:31:11.537Z</time></trkpt><trkpt lat="45.4276962" lon="11.5037756"><ele>285.0</ele><time>2026-05-02T09:31:12.537Z</time></trkpt><trkpt lat="45.4277472" lon="11.5038469"><ele>285.0</ele><time>2026-05-02T09:31:13.539Z</time></trkpt><trkpt lat="45.4278117" lon="11.5039002"><ele>283.0</ele><time>2026-05-02T09:31:14.539Z</time></trkpt><trkpt lat="45.4278922" lon="11.5039324"><ele>281.0</ele><time>2026-05-02T09:31:15.538Z</time></trkpt><trkpt lat="45.4279809" lon="11.5039431"><ele>279.0</ele><time>2026-05-02T09:31:16.538Z</time></trkpt><trkpt lat="45.4280746" lon="11.5039492"><ele>277.0</ele><time>2026-05-02T09:31:17.538Z</time></trkpt><trkpt lat="45.4281723" lon="11.5039607"><ele>275.0</ele><time>2026-05-02T09:31:18.538Z</time></trkpt><trkpt lat="45.4282741" lon="11.5039896"><ele>282.5</ele><time>2026-05-02T09:31:19.538Z</time></trkpt><trkpt lat="45.4283794" lon="11.504042"><ele>290.0</ele><time>2026-05-02T09:31:20.539Z</time></trkpt><trkpt lat="45.4284871" lon="11.5041203"><ele>297.5</ele><time>2026-05-02T09:31:21.538Z</time></trkpt><trkpt lat="45.4285971" lon="11.5042178"><ele>305.0</ele><time>2026-05-02T09:31:22.538Z</time></trkpt><trkpt lat="45.4287079" lon="11.5043209"><ele>306.0</ele><time>2026-05-02T09:31:23.538Z</time></trkpt><trkpt lat="45.4288265" lon="11.5044181"><ele>307.0</ele><time>2026-05-02T09:31:24.538Z</time></trkpt><trkpt lat="45.4289471" lon="11.5045119"><ele>308.0</ele><time>2026-05-02T09:31:25.538Z</time></trkpt><trkpt lat="45.4290713" lon="11.5045957"><ele>309.0</ele><time>2026-05-02T09:31:26.537Z</time></trkpt><trkpt lat="45.4292002" lon="11.5046641"><ele>310.75</ele><time>2026-05-02T09:31:27.539Z</time></trkpt><trkpt lat="45.42933" lon="11.5047041"><ele>312.5</ele><time>2026-05-02T09:31:28.538Z</time></trkpt><trkpt lat="45.4294492" lon="11.5046966"><ele>314.25</ele><time>2026-05-02T09:31:29.538Z</time></trkpt><trkpt lat="45.4295518" lon="11.5046914"><ele>316.0</ele><time>2026-05-02T09:31:30.538Z</time></trkpt><trkpt lat="45.4296452" lon="11.5047173"><ele>316.8</ele><time>2026-05-02T09:31:31.539Z</time></trkpt><trkpt lat="45.4297278" lon="11.5047825"><ele>317.6</ele><time>2026-05-02T09:31:32.538Z</time></trkpt><trkpt lat="45.4297908" lon="11.5048855"><ele>318.4</ele><time>2026-05-02T09:31:33.538Z</time></trkpt><trkpt lat="45.4298467" lon="11.5050271"><ele>319.2</ele><time>2026-05-02T09:31:34.539Z</time></trkpt><trkpt lat="45.4298867" lon="11.5052007"><ele>320.0</ele><time>2026-05-02T09:31:35.538Z</time></trkpt><trkpt lat="45.4299224" lon="11.5053845"><ele>321.75</ele><time>2026-05-02T09:31:36.538Z</time></trkpt><trkpt lat="45.4299636" lon="11.5055689"><ele>323.5</ele><time>2026-05-02T09:31:37.538Z</time></trkpt><trkpt lat="45.4299993" lon="11.5057565"><ele>325.25</ele><time>2026-05-02T09:31:38.539Z</time></trkpt><trkpt lat="45.4300262" lon="11.505949"><ele>327.0</ele><time>2026-05-02T09:31:39.538Z</time></trkpt><trkpt lat="45.4300492" lon="11.506144"><ele>328.5</ele><time>2026-05-02T09:31:40.539Z</time></trkpt><trkpt lat="45.4300618" lon="11.506335"><ele>330.0</ele><time>2026-05-02T09:31:41.539Z</time></trkpt><trkpt lat="45.4300576" lon="11.5065134"><ele>331.5</ele><time>2026-05-02T09:31:42.538Z</time></trkpt><trkpt lat="45.430056" lon="11.5066896"><ele>333.0</ele><time>2026-05-02T09:31:43.539Z</time></trkpt><trkpt lat="45.430065" lon="11.5068492"><ele>333.0</ele><time>2026-05-02T09:31:44.537Z</time></trkpt><trkpt lat="45.4301055" lon="11.5069883"><ele>333.0</ele><time>2026-05-02T09:31:45.538Z</time></trkpt><trkpt lat="45.4301761" lon="11.5071101"><ele>333.0</ele><time>2026-05-02T09:31:46.539Z</time></trkpt><trkpt lat="45.4302726" lon="11.507217"><ele>333.0</ele><time>2026-05-02T09:31:47.538Z</time></trkpt><trkpt lat="45.4303818" lon="11.5073099"><ele>336.5</ele><time>2026-05-02T09:31:48.538Z</time></trkpt><trkpt lat="45.4304903" lon="11.5073954"><ele>340.0</ele><time>2026-05-02T09:31:49.538Z</time></trkpt><trkpt lat="45.430589" lon="11.5074968"><ele>343.5</ele><time>2026-05-02T09:31:50.538Z</time></trkpt><trkpt lat="45.430689" lon="11.5075897"><ele>347.0</ele><time>2026-05-02T09:31:51.539Z</time></trkpt><trkpt lat="45.4308017" lon="11.5076563"><ele>347.0</ele><time>2026-05-02T09:31:52.538Z</time></trkpt><trkpt lat="45.4309149" lon="11.5077175"><ele>347.0</ele><time>2026-05-02T09:31:53.538Z</time></trkpt><trkpt lat="45.4310218" lon="11.5077759"><ele>347.0</ele><time>2026-05-02T09:31:54.539Z</time></trkpt><trkpt lat="45.4311189" lon="11.5078497"><ele>347.0</ele><time>2026-05-02T09:31:55.538Z</time></trkpt><trkpt lat="45.4312142" lon="11.5079396"><ele>347.0</ele><time>2026-05-02T09:31:56.538Z</time></trkpt><trkpt lat="45.4313046" lon="11.5080479"><ele>347.0</ele><time>2026-05-02T09:31:57.538Z</time></trkpt><trkpt lat="45.4313844" lon="11.5081546"><ele>347.0</ele><time>2026-05-02T09:31:58.538Z</time></trkpt><trkpt lat="45.431452" lon="11.5082498"><ele>347.0</ele><time>2026-05-02T09:31:59.537Z</time></trkpt><trkpt lat="45.4315051" lon="11.5083499"><ele>347.0</ele><time>2026-05-02T09:32:00.538Z</time></trkpt><trkpt lat="45.4315441" lon="11.5084646"><ele>347.6</ele><time>2026-05-02T09:32:01.537Z</time></trkpt><trkpt lat="45.4315757" lon="11.5085931"><ele>348.20000000000005</ele><time>2026-05-02T09:32:02.538Z</time></trkpt><trkpt lat="45.4316025" lon="11.5087302"><ele>348.8</ele><time>2026-05-02T09:32:03.539Z</time></trkpt><trkpt lat="45.4316222" lon="11.5088686"><ele>349.4</ele><time>2026-05-02T09:32:04.539Z</time></trkpt><trkpt lat="45.4316353" lon="11.5090131"><ele>350.0</ele><time>2026-05-02T09:32:05.538Z</time></trkpt><trkpt lat="45.4316462" lon="11.5091528"><ele>350.33333333333337</ele><time>2026-05-02T09:32:06.538Z</time></trkpt><trkpt lat="45.431653" lon="11.509286"><ele>350.6666666666667</ele><time>2026-05-02T09:32:07.538Z</time></trkpt><trkpt lat="45.4316684" lon="11.5094115"><ele>351.0</ele><time>2026-05-02T09:32:08.538Z</time></trkpt><trkpt lat="45.4316759" lon="11.5095319"><ele>351.3333333333333</ele><time>2026-05-02T09:32:09.538Z</time></trkpt><trkpt lat="45.4316687" lon="11.5096452"><ele>351.66666666666663</ele><time>2026-05-02T09:32:10.538Z</time></trkpt><trkpt lat="45.4316417" lon="11.509765"><ele>352.0</ele><time>2026-05-02T09:32:11.538Z</time></trkpt><trkpt lat="45.4316042" lon="11.5098982"><ele>352.75</ele><time>2026-05-02T09:32:12.539Z</time></trkpt><trkpt lat="45.4315588" lon="11.5100487"><ele>353.5</ele><time>2026-05-02T09:32:13.539Z</time></trkpt><trkpt lat="45.4315083" lon="11.5102164"><ele>354.25</ele><time>2026-05-02T09:32:14.537Z</time></trkpt><trkpt lat="45.4314495" lon="11.5103945"><ele>355.0</ele><time>2026-05-02T09:32:15.538Z</time></trkpt><trkpt lat="45.4313686" lon="11.5105679"><ele>353.3333333333333</ele><time>2026-05-02T09:32:16.538Z</time></trkpt><trkpt lat="45.4312678" lon="11.5107321"><ele>351.6666666666667</ele><time>2026-05-02T09:32:17.538Z</time></trkpt><trkpt lat="45.4311627" lon="11.5109002"><ele>350.0</ele><time>2026-05-02T09:32:18.537Z</time></trkpt><trkpt lat="45.4310725" lon="11.5110834"><ele>354.0</ele><time>2026-05-02T09:32:19.538Z</time></trkpt><trkpt lat="45.4309837" lon="11.5112809"><ele>358.0</ele><time>2026-05-02T09:32:20.538Z</time></trkpt><trkpt lat="45.4308948" lon="11.5114807"><ele>362.0</ele><time>2026-05-02T09:32:21.538Z</time></trkpt><trkpt lat="45.4308108" lon="11.5116554"><ele>362.0</ele><time>2026-05-02T09:32:22.539Z</time></trkpt><trkpt lat="45.430706" lon="11.5117991"><ele>362.0</ele><time>2026-05-02T09:32:23.537Z</time></trkpt><trkpt lat="45.4305791" lon="11.5119062"><ele>362.0</ele><time>2026-05-02T09:32:24.538Z</time></trkpt><trkpt lat="45.4304285" lon="11.5119786"><ele>361.33333333333337</ele><time>2026-05-02T09:32:25.538Z</time></trkpt><trkpt lat="45.430265" lon="11.5120433"><ele>360.6666666666667</ele><time>2026-05-02T09:32:26.538Z</time></trkpt><trkpt lat="45.4301075" lon="11.5121189"><ele>360.0</ele><time>2026-05-02T09:32:27.538Z</time></trkpt><trkpt lat="45.4299627" lon="11.5121899"><ele>360.0</ele><time>2026-05-02T09:32:28.539Z</time></trkpt><trkpt lat="45.4298384" lon="11.5122675"><ele>360.0</ele><time>2026-05-02T09:32:29.539Z</time></trkpt><trkpt lat="45.4297325" lon="11.5123871"><ele>360.0</ele><time>2026-05-02T09:32:30.538Z</time></trkpt><trkpt lat="45.4296548" lon="11.5125392"><ele>360.0</ele><time>2026-05-02T09:32:31.538Z</time></trkpt><trkpt lat="45.4295767" lon="11.5127042"><ele>360.75</ele><time>2026-05-02T09:32:32.538Z</time></trkpt><trkpt lat="45.4294964" lon="11.5128732"><ele>361.5</ele><time>2026-05-02T09:32:33.537Z</time></trkpt><trkpt lat="45.4294045" lon="11.5130195"><ele>362.25</ele><time>2026-05-02T09:32:34.538Z</time></trkpt><trkpt lat="45.4293315" lon="11.5131817"><ele>363.0</ele><time>2026-05-02T09:32:35.537Z</time></trkpt><trkpt lat="45.4292795" lon="11.5133542"><ele>363.0</ele><time>2026-05-02T09:32:36.538Z</time></trkpt><trkpt lat="45.4292614" lon="11.5135219"><ele>363.0</ele><time>2026-05-02T09:32:37.539Z</time></trkpt><trkpt lat="45.4292816" lon="11.5137054"><ele>363.0</ele><time>2026-05-02T09:32:38.537Z</time></trkpt><trkpt lat="45.4293175" lon="11.5138792"><ele>363.0</ele><time>2026-05-02T09:32:39.537Z</time></trkpt><trkpt lat="45.4293585" lon="11.514044"><ele>364.5</ele><time>2026-05-02T09:32:40.539Z</time></trkpt><trkpt lat="45.4293995" lon="11.5142023"><ele>366.0</ele><time>2026-05-02T09:32:41.537Z</time></trkpt><trkpt lat="45.4294176" lon="11.514363"><ele>367.5</ele><time>2026-05-02T09:32:42.538Z</time></trkpt><trkpt lat="45.4294177" lon="11.5145386"><ele>369.0</ele><time>2026-05-02T09:32:43.538Z</time></trkpt><trkpt lat="45.4294044" lon="11.5147363"><ele>369.25</ele><time>2026-05-02T09:32:44.539Z</time></trkpt><trkpt lat="45.42939" lon="11.5149347"><ele>369.5</ele><time>2026-05-02T09:32:45.538Z</time></trkpt><trkpt lat="45.4293797" lon="11.515123"><ele>369.75</ele><time>2026-05-02T09:32:46.538Z</time></trkpt><trkpt lat="45.4293716" lon="11.5153029"><ele>370.0</ele><time>2026-05-02T09:32:47.538Z</time></trkpt><trkpt lat="45.4293948" lon="11.515462"><ele>370.0</ele><time>2026-05-02T09:32:48.538Z</time></trkpt><trkpt lat="45.4294435" lon="11.5156092"><ele>370.0</ele><time>2026-05-02T09:32:49.539Z</time></trkpt><trkpt lat="45.4295283" lon="11.5157537"><ele>370.0</ele><time>2026-05-02T09:32:50.538Z</time></trkpt><trkpt lat="45.4296141" lon="11.5158963"><ele>370.0</ele><time>2026-05-02T09:32:51.538Z</time></trkpt><trkpt lat="45.4297001" lon="11.516036"><ele>369.25</ele><time>2026-05-02T09:32:52.539Z</time></trkpt><trkpt lat="45.4297795" lon="11.5161542"><ele>368.5</ele><time>2026-05-02T09:32:53.538Z</time></trkpt><trkpt lat="45.4298653" lon="11.516244"><ele>367.75</ele><time>2026-05-02T09:32:54.539Z</time></trkpt><trkpt lat="45.4299742" lon="11.5163016"><ele>367.0</ele><time>2026-05-02T09:32:55.538Z</time></trkpt><trkpt lat="45.4301" lon="11.5163426"><ele>364.25</ele><time>2026-05-02T09:32:56.538Z</time></trkpt><trkpt lat="45.4302376" lon="11.5163686"><ele>361.5</ele><time>2026-05-02T09:32:57.537Z</time></trkpt><trkpt lat="45.4303661" lon="11.5163992"><ele>358.75</ele><time>2026-05-02T09:32:58.538Z</time></trkpt><trkpt lat="45.4304814" lon="11.516428"><ele>356.0</ele><time>2026-05-02T09:32:59.538Z</time></trkpt><trkpt lat="45.4305719" lon="11.5164652"><ele>356.0</ele><time>2026-05-02T09:33:00.538Z</time></trkpt><trkpt lat="45.4306428" lon="11.5165229"><ele>356.0</ele><time>2026-05-02T09:33:01.537Z</time></trkpt><trkpt lat="45.4306807" lon="11.5166164"><ele>356.0</ele><time>2026-05-02T09:33:02.538Z</time></trkpt><trkpt lat="45.4306923" lon="11.5167277"><ele>356.0</ele><time>2026-05-02T09:33:03.538Z</time></trkpt><trkpt lat="45.430656" lon="11.5168299"><ele>356.0</ele><time>2026-05-02T09:33:04.538Z</time></trkpt><trkpt lat="45.4305855" lon="11.5169337"><ele>356.0</ele><time>2026-05-02T09:33:05.538Z</time></trkpt><trkpt lat="45.4304834" lon="11.5170454"><ele>351.0</ele><time>2026-05-02T09:33:06.538Z</time></trkpt><trkpt lat="45.4303534" lon="11.5171968"><ele>346.0</ele><time>2026-05-02T09:33:07.538Z</time></trkpt><trkpt lat="45.4302104" lon="11.5173833"><ele>341.0</ele><time>2026-05-02T09:33:08.537Z</time></trkpt><trkpt lat="45.4300688" lon="11.517575"><ele>341.0</ele><time>2026-05-02T09:33:09.538Z</time></trkpt><trkpt lat="45.4299296" lon="11.5177628"><ele>341.0</ele><time>2026-05-02T09:33:10.538Z</time></trkpt><trkpt lat="45.4297999" lon="11.5179578"><ele>341.0</ele><time>2026-05-02T09:33:11.538Z</time></trkpt><trkpt lat="45.429688" lon="11.5181642"><ele>339.6666666666667</ele><time>2026-05-02T09:33:12.539Z</time></trkpt><trkpt lat="45.4295906" lon="11.5183783"><ele>338.3333333333333</ele><time>2026-05-02T09:33:13.538Z</time></trkpt><trkpt lat="45.4295145" lon="11.5186044"><ele>337.0</ele><time>2026-05-02T09:33:14.539Z</time></trkpt><trkpt lat="45.4294573" lon="11.5188354"><ele>334.75</ele><time>2026-05-02T09:33:15.538Z</time></trkpt><trkpt lat="45.4294137" lon="11.519063"><ele>332.5</ele><time>2026-05-02T09:33:16.538Z</time></trkpt><trkpt lat="45.4293778" lon="11.5192657"><ele>330.25</ele><time>2026-05-02T09:33:17.539Z</time></trkpt><trkpt lat="45.4293465" lon="11.5194454"><ele>328.0</ele><time>2026-05-02T09:33:18.538Z</time></trkpt><trkpt lat="45.429318" lon="11.5196004"><ele>328.0</ele><time>2026-05-02T09:33:19.538Z</time></trkpt><trkpt lat="45.429276" lon="11.5197322"><ele>328.0</ele><time>2026-05-02T09:33:20.539Z</time></trkpt><trkpt lat="45.4292119" lon="11.5198233"><ele>328.0</ele><time>2026-05-02T09:33:21.538Z</time></trkpt><trkpt lat="45.4291301" lon="11.5198778"><ele>328.0</ele><time>2026-05-02T09:33:22.539Z</time></trkpt><trkpt lat="45.4290296" lon="11.5199206"><ele>328.0</ele><time>2026-05-02T09:33:23.538Z</time></trkpt><trkpt lat="45.4289066" lon="11.5199414"><ele>329.0</ele><time>2026-05-02T09:33:24.539Z</time></trkpt><trkpt lat="45.4287649" lon="11.5199461"><ele>330.0</ele><time>2026-05-02T09:33:25.539Z</time></trkpt><trkpt lat="45.4286061" lon="11.5199379"><ele>331.0</ele><time>2026-05-02T09:33:26.538Z</time></trkpt><trkpt lat="45.4284397" lon="11.5199151"><ele>331.0</ele><time>2026-05-02T09:33:27.538Z</time></trkpt><trkpt lat="45.428267" lon="11.5198805"><ele>331.0</ele><time>2026-05-02T09:33:28.538Z</time></trkpt><trkpt lat="45.4280963" lon="11.5198353"><ele>331.0</ele><time>2026-05-02T09:33:29.537Z</time></trkpt><trkpt lat="45.4279283" lon="11.519788"><ele>333.0</ele><time>2026-05-02T09:33:30.538Z</time></trkpt><trkpt lat="45.4277631" lon="11.519748"><ele>335.0</ele><time>2026-05-02T09:33:31.538Z</time></trkpt><trkpt lat="45.4276029" lon="11.5197129"><ele>337.0</ele><time>2026-05-02T09:33:32.539Z</time></trkpt><trkpt lat="45.4274493" lon="11.5196832"><ele>337.0</ele><time>2026-05-02T09:33:33.537Z</time></trkpt><trkpt lat="45.4272999" lon="11.519667"><ele>337.0</ele><time>2026-05-02T09:33:34.538Z</time></trkpt><trkpt lat="45.4271547" lon="11.5196615"><ele>337.0</ele><time>2026-05-02T09:33:35.538Z</time></trkpt><trkpt lat="45.4270143" lon="11.5196694"><ele>337.0</ele><time>2026-05-02T09:33:36.538Z</time></trkpt><trkpt lat="45.4268753" lon="11.5196823"><ele>336.0</ele><time>2026-05-02T09:33:37.538Z</time></trkpt><trkpt lat="45.4267403" lon="11.5197031"><ele>335.0</ele><time>2026-05-02T09:33:38.539Z</time></trkpt><trkpt lat="45.4266032" lon="11.519719"><ele>334.0</ele><time>2026-05-02T09:33:39.538Z</time></trkpt><trkpt lat="45.4264606" lon="11.5197168"><ele>333.0</ele><time>2026-05-02T09:33:40.538Z</time></trkpt><trkpt lat="45.4263126" lon="11.5196953"><ele>331.0</ele><time>2026-05-02T09:33:41.538Z</time></trkpt><trkpt lat="45.4261572" lon="11.5196584"><ele>329.0</ele><time>2026-05-02T09:33:42.537Z</time></trkpt><trkpt lat="45.4259975" lon="11.5196181"><ele>327.0</ele><time>2026-05-02T09:33:43.538Z</time></trkpt><trkpt lat="45.4258387" lon="11.5195826"><ele>326.75</ele><time>2026-05-02T09:33:44.538Z</time></trkpt><trkpt lat="45.4256896" lon="11.5195493"><ele>326.5</ele><time>2026-05-02T09:33:45.538Z</time></trkpt><trkpt lat="45.4255498" lon="11.5195251"><ele>326.25</ele><time>2026-05-02T09:33:46.538Z</time></trkpt><trkpt lat="45.4254186" lon="11.5195055"><ele>326.0</ele><time>2026-05-02T09:33:47.538Z</time></trkpt><trkpt lat="45.4253007" lon="11.5194659"><ele>326.0</ele><time>2026-05-02T09:33:48.537Z</time></trkpt><trkpt lat="45.4251943" lon="11.5193978"><ele>326.0</ele><time>2026-05-02T09:33:49.538Z</time></trkpt><trkpt lat="45.4250939" lon="11.5192993"><ele>326.0</ele><time>2026-05-02T09:33:50.538Z</time></trkpt><trkpt lat="45.4250009" lon="11.5191686"><ele>326.0</ele><time>2026-05-02T09:33:51.538Z</time></trkpt><trkpt lat="45.4249073" lon="11.5190361"><ele>326.0</ele><time>2026-05-02T09:33:52.538Z</time></trkpt><trkpt lat="45.4247942" lon="11.5189372"><ele>326.0</ele><time>2026-05-02T09:33:53.538Z</time></trkpt><trkpt lat="45.4246686" lon="11.5188637"><ele>326.0</ele><time>2026-05-02T09:33:54.537Z</time></trkpt><trkpt lat="45.4245366" lon="11.5188017"><ele>326.0</ele><time>2026-05-02T09:33:55.538Z</time></trkpt><trkpt lat="45.4244128" lon="11.5187046"><ele>325.33333333333337</ele><time>2026-05-02T09:33:56.538Z</time></trkpt><trkpt lat="45.4242941" lon="11.5185833"><ele>324.6666666666667</ele><time>2026-05-02T09:33:57.538Z</time></trkpt><trkpt lat="45.4241657" lon="11.5184725"><ele>324.0</ele><time>2026-05-02T09:33:58.538Z</time></trkpt><trkpt lat="45.4240193" lon="11.5183918"><ele>324.0</ele><time>2026-05-02T09:33:59.538Z</time></trkpt><trkpt lat="45.4238692" lon="11.5183434"><ele>324.0</ele><time>2026-05-02T09:34:00.538Z</time></trkpt><trkpt lat="45.4237242" lon="11.5183372"><ele>324.0</ele><time>2026-05-02T09:34:01.538Z</time></trkpt><trkpt lat="45.4235876" lon="11.5183506"><ele>324.0</ele><time>2026-05-02T09:34:02.538Z</time></trkpt><trkpt lat="45.4234584" lon="11.5183455"><ele>320.5</ele><time>2026-05-02T09:34:03.539Z</time></trkpt><trkpt lat="45.4233326" lon="11.5183125"><ele>317.0</ele><time>2026-05-02T09:34:04.537Z</time></trkpt><trkpt lat="45.4232115" lon="11.5182548"><ele>313.5</ele><time>2026-05-02T09:34:05.539Z</time></trkpt><trkpt lat="45.4231116" lon="11.5181553"><ele>310.0</ele><time>2026-05-02T09:34:06.537Z</time></trkpt><trkpt lat="45.4230317" lon="11.5180423"><ele>310.0</ele><time>2026-05-02T09:34:07.538Z</time></trkpt><trkpt lat="45.4229863" lon="11.5179122"><ele>310.0</ele><time>2026-05-02T09:34:08.537Z</time></trkpt><trkpt lat="45.4229673" lon="11.517762"><ele>310.0</ele><time>2026-05-02T09:34:09.539Z</time></trkpt><trkpt lat="45.4229639" lon="11.5175962"><ele>310.0</ele><time>2026-05-02T09:34:10.54Z</time></trkpt><trkpt lat="45.4229516" lon="11.5174383"><ele>310.0</ele><time>2026-05-02T09:34:11.538Z</time></trkpt><trkpt lat="45.4229108" lon="11.5173008"><ele>308.2</ele><time>2026-05-02T09:34:12.538Z</time></trkpt><trkpt lat="45.4228468" lon="11.5171933"><ele>306.4</ele><time>2026-05-02T09:34:13.539Z</time></trkpt><trkpt lat="45.422774" lon="11.5171082"><ele>304.6</ele><time>2026-05-02T09:34:14.539Z</time></trkpt><trkpt lat="45.4226942" lon="11.5170427"><ele>302.8</ele><time>2026-05-02T09:34:15.538Z</time></trkpt><trkpt lat="45.4226074" lon="11.5170159"><ele>301.0</ele><time>2026-05-02T09:34:16.538Z</time></trkpt><trkpt lat="45.4225163" lon="11.5170295"><ele>301.40000000000003</ele><time>2026-05-02T09:34:17.538Z</time></trkpt><trkpt lat="45.4224291" lon="11.5170946"><ele>301.8</ele><time>2026-05-02T09:34:18.539Z</time></trkpt><trkpt lat="45.4223396" lon="11.5171814"><ele>302.20000000000005</ele><time>2026-05-02T09:34:19.539Z</time></trkpt><trkpt lat="45.4222518" lon="11.5172925"><ele>302.6</ele><time>2026-05-02T09:34:20.539Z</time></trkpt><trkpt lat="45.4221701" lon="11.5174238"><ele>303.0</ele><time>2026-05-02T09:34:21.54Z</time></trkpt><trkpt lat="45.4220906" lon="11.5175595"><ele>303.0</ele><time>2026-05-02T09:34:22.539Z</time></trkpt><trkpt lat="45.4220127" lon="11.5176981"><ele>303.0</ele><time>2026-05-02T09:34:23.539Z</time></trkpt><trkpt lat="45.42194" lon="11.5178381"><ele>303.0</ele><time>2026-05-02T09:34:24.539Z</time></trkpt><trkpt lat="45.4218703" lon="11.5179653"><ele>303.0</ele><time>2026-05-02T09:34:25.539Z</time></trkpt><trkpt lat="45.4218088" lon="11.5180828"><ele>301.6</ele><time>2026-05-02T09:34:26.538Z</time></trkpt><trkpt lat="45.4217514" lon="11.5181956"><ele>300.20000000000005</ele><time>2026-05-02T09:34:27.539Z</time></trkpt><trkpt lat="45.421691" lon="11.5183034"><ele>298.8</ele><time>2026-05-02T09:34:28.538Z</time></trkpt><trkpt lat="45.4216193" lon="11.5183979"><ele>297.40000000000003</ele><time>2026-05-02T09:34:29.538Z</time></trkpt><trkpt lat="45.4215373" lon="11.518486"><ele>296.0</ele><time>2026-05-02T09:34:30.539Z</time></trkpt><trkpt lat="45.4214486" lon="11.5185627"><ele>296.0</ele><time>2026-05-02T09:34:31.539Z</time></trkpt><trkpt lat="45.4213586" lon="11.5186282"><ele>296.0</ele><time>2026-05-02T09:34:32.539Z</time></trkpt><trkpt lat="45.4212591" lon="11.5186713"><ele>296.0</ele><time>2026-05-02T09:34:33.539Z</time></trkpt><trkpt lat="45.4211469" lon="11.5186922"><ele>296.0</ele><time>2026-05-02T09:34:34.54Z</time></trkpt><trkpt lat="45.4210288" lon="11.5186692"><ele>296.0</ele><time>2026-05-02T09:34:35.539Z</time></trkpt><trkpt lat="45.4209159" lon="11.5186499"><ele>295.25</ele><time>2026-05-02T09:34:36.538Z</time></trkpt><trkpt lat="45.4208054" lon="11.518628"><ele>294.5</ele><time>2026-05-02T09:34:37.539Z</time></trkpt><trkpt lat="45.420701" lon="11.518564"><ele>293.75</ele><time>2026-05-02T09:34:38.539Z</time></trkpt><trkpt lat="45.4206002" lon="11.5184662"><ele>293.0</ele><time>2026-05-02T09:34:39.539Z</time></trkpt><trkpt lat="45.4205035" lon="11.5183418"><ele>288.0</ele><time>2026-05-02T09:34:40.538Z</time></trkpt><trkpt lat="45.4204041" lon="11.5182058"><ele>283.0</ele><time>2026-05-02T09:34:41.54Z</time></trkpt><trkpt lat="45.4203073" lon="11.5180868"><ele>278.0</ele><time>2026-05-02T09:34:42.539Z</time></trkpt><trkpt lat="45.4202089" lon="11.5180023"><ele>273.0</ele><time>2026-05-02T09:34:43.539Z</time></trkpt><trkpt lat="45.4201021" lon="11.5179435"><ele>273.0</ele><time>2026-05-02T09:34:44.539Z</time></trkpt><trkpt lat="45.4199877" lon="11.5179116"><ele>273.0</ele><time>2026-05-02T09:34:45.54Z</time></trkpt><trkpt lat="45.4198804" lon="11.5179249"><ele>273.0</ele><time>2026-05-02T09:34:46.539Z</time></trkpt><trkpt lat="45.4197695" lon="11.5179742"><ele>273.0</ele><time>2026-05-02T09:34:47.538Z</time></trkpt><trkpt lat="45.4196637" lon="11.518065"><ele>276.0</ele><time>2026-05-02T09:34:48.539Z</time></trkpt><trkpt lat="45.4195662" lon="11.5181661"><ele>279.0</ele><time>2026-05-02T09:34:49.539Z</time></trkpt><trkpt lat="45.4194785" lon="11.5182726"><ele>282.0</ele><time>2026-05-02T09:34:50.54Z</time></trkpt><trkpt lat="45.4193999" lon="11.5183653"><ele>285.0</ele><time>2026-05-02T09:34:51.54Z</time></trkpt><trkpt lat="45.4193315" lon="11.5184511"><ele>288.0</ele><time>2026-05-02T09:34:52.54Z</time></trkpt><trkpt lat="45.419275" lon="11.5185376"><ele>288.0</ele><time>2026-05-02T09:34:53.539Z</time></trkpt><trkpt lat="45.4192801" lon="11.5186539"><ele>288.0</ele><time>2026-05-02T09:34:55.539Z</time></trkpt><trkpt lat="45.4193536" lon="11.5186713"><ele>288.0</ele><time>2026-05-02T09:34:57.539Z</time></trkpt><trkpt lat="45.4194653" lon="11.5185242"><ele>288.0</ele><time>2026-05-02T09:34:59.539Z</time></trkpt><trkpt lat="45.4195404" lon="11.5184345"><ele>288.0</ele><time>2026-05-02T09:35:00.539Z</time></trkpt><trkpt lat="45.4196339" lon="11.5183666"><ele>284.25</ele><time>2026-05-02T09:35:01.539Z</time></trkpt><trkpt lat="45.4197346" lon="11.5183322"><ele>280.5</ele><time>2026-05-02T09:35:02.539Z</time></trkpt><trkpt lat="45.419848" lon="11.5183422"><ele>276.75</ele><time>2026-05-02T09:35:03.538Z</time></trkpt><trkpt lat="45.4199602" lon="11.5183958"><ele>273.0</ele><time>2026-05-02T09:35:04.539Z</time></trkpt><trkpt lat="45.4200586" lon="11.5184828"><ele>273.0</ele><time>2026-05-02T09:35:05.539Z</time></trkpt><trkpt lat="45.4201403" lon="11.5185839"><ele>273.0</ele><time>2026-05-02T09:35:06.539Z</time></trkpt><trkpt lat="45.4202117" lon="11.5186906"><ele>273.0</ele><time>2026-05-02T09:35:07.539Z</time></trkpt><trkpt lat="45.4202659" lon="11.5188025"><ele>273.0</ele><time>2026-05-02T09:35:08.539Z</time></trkpt><trkpt lat="45.4202904" lon="11.5189132"><ele>273.0</ele><time>2026-05-02T09:35:09.539Z</time></trkpt><trkpt lat="45.4202776" lon="11.5190153"><ele>270.6</ele><time>2026-05-02T09:35:10.539Z</time></trkpt><trkpt lat="45.4202319" lon="11.5190945"><ele>268.20000000000005</ele><time>2026-05-02T09:35:11.539Z</time></trkpt><trkpt lat="45.4201562" lon="11.5191567"><ele>265.8</ele><time>2026-05-02T09:35:12.539Z</time></trkpt><trkpt lat="45.4200629" lon="11.5192089"><ele>263.40000000000003</ele><time>2026-05-02T09:35:13.539Z</time></trkpt><trkpt lat="45.4199578" lon="11.5192882"><ele>261.0</ele><time>2026-05-02T09:35:14.539Z</time></trkpt><trkpt lat="45.4198462" lon="11.5193912"><ele>261.0</ele><time>2026-05-02T09:35:15.538Z</time></trkpt><trkpt lat="45.4197339" lon="11.5195021"><ele>261.0</ele><time>2026-05-02T09:35:16.539Z</time></trkpt><trkpt lat="45.4196257" lon="11.5196254"><ele>261.0</ele><time>2026-05-02T09:35:17.54Z</time></trkpt><trkpt lat="45.4195259" lon="11.5197492"><ele>261.0</ele><time>2026-05-02T09:35:18.539Z</time></trkpt><trkpt lat="45.4194298" lon="11.5198738"><ele>260.75</ele><time>2026-05-02T09:35:19.539Z</time></trkpt><trkpt lat="45.4193451" lon="11.5200084"><ele>260.5</ele><time>2026-05-02T09:35:20.539Z</time></trkpt><trkpt lat="45.4192675" lon="11.5201513"><ele>260.25</ele><time>2026-05-02T09:35:21.538Z</time></trkpt><trkpt lat="45.4191964" lon="11.5203013"><ele>260.0</ele><time>2026-05-02T09:35:22.538Z</time></trkpt><trkpt lat="45.4191319" lon="11.5204534"><ele>260.0</ele><time>2026-05-02T09:35:23.539Z</time></trkpt><trkpt lat="45.4190795" lon="11.5206159"><ele>260.0</ele><time>2026-05-02T09:35:24.539Z</time></trkpt><trkpt lat="45.4190256" lon="11.5207768"><ele>260.0</ele><time>2026-05-02T09:35:25.54Z</time></trkpt><trkpt lat="45.4189724" lon="11.5209316"><ele>260.0</ele><time>2026-05-02T09:35:26.539Z</time></trkpt><trkpt lat="45.4189174" lon="11.5210892"><ele>259.25</ele><time>2026-05-02T09:35:27.539Z</time></trkpt><trkpt lat="45.4188686" lon="11.5212527"><ele>258.5</ele><time>2026-05-02T09:35:28.54Z</time></trkpt><trkpt lat="45.4188234" lon="11.5214165"><ele>257.75</ele><time>2026-05-02T09:35:29.539Z</time></trkpt><trkpt lat="45.4187801" lon="11.5215806"><ele>257.0</ele><time>2026-05-02T09:35:30.539Z</time></trkpt><trkpt lat="45.418734" lon="11.521753"><ele>257.0</ele><time>2026-05-02T09:35:31.539Z</time></trkpt><trkpt lat="45.4186866" lon="11.5219247"><ele>257.0</ele><time>2026-05-02T09:35:32.539Z</time></trkpt><trkpt lat="45.4186416" lon="11.5221051"><ele>257.0</ele><time>2026-05-02T09:35:33.538Z</time></trkpt><trkpt lat="45.4186015" lon="11.5222871"><ele>257.0</ele><time>2026-05-02T09:35:34.54Z</time></trkpt><trkpt lat="45.4185598" lon="11.5224693"><ele>253.0</ele><time>2026-05-02T09:35:35.539Z</time></trkpt><trkpt lat="45.418519" lon="11.5226505"><ele>249.0</ele><time>2026-05-02T09:35:36.539Z</time></trkpt><trkpt lat="45.4184764" lon="11.5228251"><ele>245.0</ele><time>2026-05-02T09:35:37.539Z</time></trkpt><trkpt lat="45.4184297" lon="11.5229913"><ele>241.0</ele><time>2026-05-02T09:35:38.539Z</time></trkpt><trkpt lat="45.4183723" lon="11.5231652"><ele>241.0</ele><time>2026-05-02T09:35:39.539Z</time></trkpt><trkpt lat="45.4183091" lon="11.5233553"><ele>241.0</ele><time>2026-05-02T09:35:40.54Z</time></trkpt><trkpt lat="45.418239" lon="11.523546"><ele>241.0</ele><time>2026-05-02T09:35:41.539Z</time></trkpt><trkpt lat="45.4181635" lon="11.5237481"><ele>241.0</ele><time>2026-05-02T09:35:42.539Z</time></trkpt><trkpt lat="45.4180842" lon="11.5239638"><ele>241.0</ele><time>2026-05-02T09:35:43.539Z</time></trkpt><trkpt lat="45.4180002" lon="11.5241731"><ele>241.0</ele><time>2026-05-02T09:35:44.539Z</time></trkpt><trkpt lat="45.417924" lon="11.5243987"><ele>233.66666666666666</ele><time>2026-05-02T09:35:45.539Z</time></trkpt><trkpt lat="45.4178505" lon="11.5246162"><ele>226.33333333333331</ele><time>2026-05-02T09:35:46.54Z</time></trkpt><trkpt lat="45.4177749" lon="11.5248338"><ele>219.0</ele><time>2026-05-02T09:35:47.539Z</time></trkpt><trkpt lat="45.417716" lon="11.5250484"><ele>219.0</ele><time>2026-05-02T09:35:48.54Z</time></trkpt><trkpt lat="45.4176767" lon="11.5252526"><ele>219.0</ele><time>2026-05-02T09:35:49.54Z</time></trkpt><trkpt lat="45.4176408" lon="11.5254235"><ele>219.0</ele><time>2026-05-02T09:35:50.539Z</time></trkpt><trkpt lat="45.4175813" lon="11.5255793"><ele>219.0</ele><time>2026-05-02T09:35:51.539Z</time></trkpt><trkpt lat="45.4174963" lon="11.5257313"><ele>216.66666666666669</ele><time>2026-05-02T09:35:52.539Z</time></trkpt><trkpt lat="45.4173867" lon="11.525888"><ele>214.33333333333334</ele><time>2026-05-02T09:35:53.54Z</time></trkpt><trkpt lat="45.4172964" lon="11.5260723"><ele>212.0</ele><time>2026-05-02T09:35:54.539Z</time></trkpt><trkpt lat="45.4172113" lon="11.5262571"><ele>210.33333333333334</ele><time>2026-05-02T09:35:55.538Z</time></trkpt><trkpt lat="45.4171074" lon="11.5264278"><ele>208.66666666666669</ele><time>2026-05-02T09:35:56.54Z</time></trkpt><trkpt lat="45.4169852" lon="11.5265858"><ele>207.0</ele><time>2026-05-02T09:35:57.54Z</time></trkpt><trkpt lat="45.4168648" lon="11.5267378"><ele>207.0</ele><time>2026-05-02T09:35:58.538Z</time></trkpt><trkpt lat="45.41672" lon="11.5268969"><ele>207.0</ele><time>2026-05-02T09:35:59.539Z</time></trkpt><trkpt lat="45.4166089" lon="11.5270513"><ele>207.0</ele><time>2026-05-02T09:36:00.54Z</time></trkpt><trkpt lat="45.4165006" lon="11.5271977"><ele>207.75</ele><time>2026-05-02T09:36:01.54Z</time></trkpt><trkpt lat="45.416399" lon="11.5273326"><ele>208.5</ele><time>2026-05-02T09:36:02.539Z</time></trkpt><trkpt lat="45.4162974" lon="11.5274477"><ele>209.25</ele><time>2026-05-02T09:36:03.539Z</time></trkpt><trkpt lat="45.4161977" lon="11.5275509"><ele>210.0</ele><time>2026-05-02T09:36:04.539Z</time></trkpt><trkpt lat="45.4160964" lon="11.5276607"><ele>208.5</ele><time>2026-05-02T09:36:05.539Z</time></trkpt><trkpt lat="45.4160304" lon="11.527809"><ele>207.0</ele><time>2026-05-02T09:36:06.539Z</time></trkpt><trkpt lat="45.4159664" lon="11.5279621"><ele>205.5</ele><time>2026-05-02T09:36:07.538Z</time></trkpt><trkpt lat="45.4159284" lon="11.5281269"><ele>204.0</ele><time>2026-05-02T09:36:08.54Z</time></trkpt><trkpt lat="45.415906" lon="11.5283028"><ele>199.0</ele><time>2026-05-02T09:36:09.539Z</time></trkpt><trkpt lat="45.4159016" lon="11.5284906"><ele>194.0</ele><time>2026-05-02T09:36:10.539Z</time></trkpt><trkpt lat="45.4159056" lon="11.5286805"><ele>189.0</ele><time>2026-05-02T09:36:11.539Z</time></trkpt><trkpt lat="45.4159075" lon="11.5288765"><ele>184.0</ele><time>2026-05-02T09:36:12.538Z</time></trkpt><trkpt lat="45.4159095" lon="11.5290743"><ele>181.0</ele><time>2026-05-02T09:36:13.539Z</time></trkpt><trkpt lat="45.4159122" lon="11.5292761"><ele>178.0</ele><time>2026-05-02T09:36:14.54Z</time></trkpt><trkpt lat="45.4159164" lon="11.5294752"><ele>175.0</ele><time>2026-05-02T09:36:15.538Z</time></trkpt><trkpt lat="45.4159185" lon="11.529676"><ele>172.0</ele><time>2026-05-02T09:36:16.54Z</time></trkpt><trkpt lat="45.4159086" lon="11.5298836"><ele>172.0</ele><time>2026-05-02T09:36:17.538Z</time></trkpt><trkpt lat="45.4158885" lon="11.5300957"><ele>172.0</ele><time>2026-05-02T09:36:18.539Z</time></trkpt><trkpt lat="45.4158581" lon="11.5303076"><ele>172.0</ele><time>2026-05-02T09:36:19.538Z</time></trkpt><trkpt lat="45.4158201" lon="11.5305148"><ele>172.0</ele><time>2026-05-02T09:36:20.539Z</time></trkpt><trkpt lat="45.4157777" lon="11.530716"><ele>172.0</ele><time>2026-05-02T09:36:21.539Z</time></trkpt><trkpt lat="45.4157375" lon="11.5309029"><ele>172.0</ele><time>2026-05-02T09:36:22.54Z</time></trkpt><trkpt lat="45.4156924" lon="11.5310831"><ele>172.0</ele><time>2026-05-02T09:36:23.539Z</time></trkpt><trkpt lat="45.4156407" lon="11.5312566"><ele>173.5</ele><time>2026-05-02T09:36:24.539Z</time></trkpt><trkpt lat="45.415583" lon="11.5314269"><ele>175.0</ele><time>2026-05-02T09:36:25.54Z</time></trkpt><trkpt lat="45.4155236" lon="11.5315897"><ele>176.5</ele><time>2026-05-02T09:36:26.539Z</time></trkpt><trkpt lat="45.415459" lon="11.5317451"><ele>178.0</ele><time>2026-05-02T09:36:27.539Z</time></trkpt><trkpt lat="45.4153913" lon="11.5318936"><ele>172.6</ele><time>2026-05-02T09:36:28.54Z</time></trkpt><trkpt lat="45.4153268" lon="11.5320402"><ele>167.20000000000002</ele><time>2026-05-02T09:36:29.538Z</time></trkpt><trkpt lat="45.4152653" lon="11.5321811"><ele>161.8</ele><time>2026-05-02T09:36:30.539Z</time></trkpt><trkpt lat="45.4152062" lon="11.5323092"><ele>156.4</ele><time>2026-05-02T09:36:31.54Z</time></trkpt><trkpt lat="45.4151423" lon="11.5324212"><ele>151.0</ele><time>2026-05-02T09:36:32.54Z</time></trkpt><trkpt lat="45.4150506" lon="11.5325032"><ele>151.0</ele><time>2026-05-02T09:36:33.538Z</time></trkpt><trkpt lat="45.4149321" lon="11.5325488"><ele>151.0</ele><time>2026-05-02T09:36:34.539Z</time></trkpt><trkpt lat="45.4148061" lon="11.5325637"><ele>151.0</ele><time>2026-05-02T09:36:35.539Z</time></trkpt><trkpt lat="45.4146944" lon="11.532557"><ele>151.0</ele><time>2026-05-02T09:36:36.539Z</time></trkpt><trkpt lat="45.414587" lon="11.5325546"><ele>146.5</ele><time>2026-05-02T09:36:37.54Z</time></trkpt><trkpt lat="45.4144775" lon="11.5325772"><ele>142.0</ele><time>2026-05-02T09:36:38.539Z</time></trkpt><trkpt lat="45.4143626" lon="11.5326353"><ele>137.5</ele><time>2026-05-02T09:36:39.54Z</time></trkpt><trkpt lat="45.414245" lon="11.5327215"><ele>133.0</ele><time>2026-05-02T09:36:40.539Z</time></trkpt><trkpt lat="45.4141253" lon="11.5328106"><ele>130.75</ele><time>2026-05-02T09:36:41.539Z</time></trkpt><trkpt lat="45.4140041" lon="11.5328901"><ele>128.5</ele><time>2026-05-02T09:36:42.539Z</time></trkpt><trkpt lat="45.4138875" lon="11.53295"><ele>126.25</ele><time>2026-05-02T09:36:43.539Z</time></trkpt><trkpt lat="45.4137704" lon="11.533011"><ele>124.0</ele><time>2026-05-02T09:36:44.538Z</time></trkpt><trkpt lat="45.4136599" lon="11.5330827"><ele>124.0</ele><time>2026-05-02T09:36:45.539Z</time></trkpt><trkpt lat="45.4135573" lon="11.533167"><ele>124.0</ele><time>2026-05-02T09:36:46.539Z</time></trkpt><trkpt lat="45.4134616" lon="11.5332732"><ele>124.0</ele><time>2026-05-02T09:36:47.539Z</time></trkpt><trkpt lat="45.4133713" lon="11.5334156"><ele>124.0</ele><time>2026-05-02T09:36:48.539Z</time></trkpt><trkpt lat="45.4132896" lon="11.5335818"><ele>128.25</ele><time>2026-05-02T09:36:49.54Z</time></trkpt><trkpt lat="45.4132089" lon="11.5337608"><ele>132.5</ele><time>2026-05-02T09:36:50.539Z</time></trkpt><trkpt lat="45.4131284" lon="11.5339415"><ele>136.75</ele><time>2026-05-02T09:36:51.539Z</time></trkpt><trkpt lat="45.4130608" lon="11.5340925"><ele>141.0</ele><time>2026-05-02T09:36:52.539Z</time></trkpt><trkpt lat="45.412998" lon="11.5342244"><ele>135.2</ele><time>2026-05-02T09:36:53.539Z</time></trkpt><trkpt lat="45.4129362" lon="11.5343594"><ele>129.39999999999998</ele><time>2026-05-02T09:36:54.539Z</time></trkpt><trkpt lat="45.4128713" lon="11.5344873"><ele>123.6</ele><time>2026-05-02T09:36:55.539Z</time></trkpt><trkpt lat="45.4127973" lon="11.5346052"><ele>117.8</ele><time>2026-05-02T09:36:56.539Z</time></trkpt><trkpt lat="45.4127223" lon="11.5347231"><ele>112.0</ele><time>2026-05-02T09:36:57.538Z</time></trkpt><trkpt lat="45.4126553" lon="11.5348527"><ele>112.0</ele><time>2026-05-02T09:36:58.54Z</time></trkpt><trkpt lat="45.4125941" lon="11.5349862"><ele>111.99999999999999</ele><time>2026-05-02T09:36:59.538Z</time></trkpt><trkpt lat="45.4125339" lon="11.5351235"><ele>111.99999999999999</ele><time>2026-05-02T09:37:00.539Z</time></trkpt><trkpt lat="45.4124782" lon="11.5352576"><ele>112.0</ele><time>2026-05-02T09:37:01.539Z</time></trkpt><trkpt lat="45.4124268" lon="11.5353877"><ele>112.0</ele><time>2026-05-02T09:37:02.539Z</time></trkpt><trkpt lat="45.4123786" lon="11.5355102"><ele>114.19999999999999</ele><time>2026-05-02T09:37:03.538Z</time></trkpt><trkpt lat="45.412332" lon="11.535632"><ele>116.39999999999999</ele><time>2026-05-02T09:37:04.538Z</time></trkpt><trkpt lat="45.4122845" lon="11.5357555"><ele>118.60000000000001</ele><time>2026-05-02T09:37:05.539Z</time></trkpt><trkpt lat="45.4122371" lon="11.5358802"><ele>120.80000000000001</ele><time>2026-05-02T09:37:06.539Z</time></trkpt><trkpt lat="45.4121803" lon="11.5360022"><ele>123.0</ele><time>2026-05-02T09:37:07.539Z</time></trkpt><trkpt lat="45.4121168" lon="11.536115"><ele>117.33333333333333</ele><time>2026-05-02T09:37:08.539Z</time></trkpt><trkpt lat="45.4120547" lon="11.536222"><ele>111.66666666666667</ele><time>2026-05-02T09:37:09.538Z</time></trkpt><trkpt lat="45.4119948" lon="11.5363176"><ele>106.0</ele><time>2026-05-02T09:37:10.539Z</time></trkpt><trkpt lat="45.4119473" lon="11.5364057"><ele>100.33333333333334</ele><time>2026-05-02T09:37:11.54Z</time></trkpt><trkpt lat="45.4119184" lon="11.5364954"><ele>94.66666666666667</ele><time>2026-05-02T09:37:12.539Z</time></trkpt><trkpt lat="45.4119165" lon="11.536594"><ele>89.0</ele><time>2026-05-02T09:37:13.539Z</time></trkpt><trkpt lat="45.4119453" lon="11.5366908"><ele>89.0</ele><time>2026-05-02T09:37:14.539Z</time></trkpt><trkpt lat="45.411985" lon="11.5368008"><ele>89.0</ele><time>2026-05-02T09:37:15.539Z</time></trkpt><trkpt lat="45.4120253" lon="11.5369235"><ele>89.0</ele><time>2026-05-02T09:37:16.539Z</time></trkpt><trkpt lat="45.4120596" lon="11.5370614"><ele>89.0</ele><time>2026-05-02T09:37:17.539Z</time></trkpt><trkpt lat="45.4120908" lon="11.5372111"><ele>89.0</ele><time>2026-05-02T09:37:18.54Z</time></trkpt><trkpt lat="45.4121115" lon="11.5373711"><ele>88.2</ele><time>2026-05-02T09:37:19.539Z</time></trkpt><trkpt lat="45.4121273" lon="11.5375331"><ele>87.4</ele><time>2026-05-02T09:37:20.539Z</time></trkpt><trkpt lat="45.4121396" lon="11.5376927"><ele>86.6</ele><time>2026-05-02T09:37:21.539Z</time></trkpt><trkpt lat="45.4121632" lon="11.5378463"><ele>85.8</ele><time>2026-05-02T09:37:22.539Z</time></trkpt><trkpt lat="45.4121985" lon="11.5379867"><ele>85.0</ele><time>2026-05-02T09:37:23.539Z</time></trkpt><trkpt lat="45.4122369" lon="11.5381085"><ele>84.16666666666666</ele><time>2026-05-02T09:37:24.54Z</time></trkpt><trkpt lat="45.4122626" lon="11.5382192"><ele>83.33333333333333</ele><time>2026-05-02T09:37:25.539Z</time></trkpt><trkpt lat="45.4122661" lon="11.5383436"><ele>82.5</ele><time>2026-05-02T09:37:26.539Z</time></trkpt><trkpt lat="45.4122508" lon="11.5384614"><ele>81.66666666666667</ele><time>2026-05-02T09:37:27.539Z</time></trkpt><trkpt lat="45.4121982" lon="11.5385689"><ele>80.83333333333334</ele><time>2026-05-02T09:37:28.539Z</time></trkpt><trkpt lat="45.4121285" lon="11.5386544"><ele>80.0</ele><time>2026-05-02T09:37:29.539Z</time></trkpt><trkpt lat="45.4120493" lon="11.538703"><ele>80.0</ele><time>2026-05-02T09:37:30.539Z</time></trkpt><trkpt lat="45.4119807" lon="11.5387008"><ele>80.0</ele><time>2026-05-02T09:37:31.539Z</time></trkpt><trkpt lat="45.411919" lon="11.5386482"><ele>80.0</ele><time>2026-05-02T09:37:32.539Z</time></trkpt><trkpt lat="45.411871" lon="11.5385573"><ele>80.0</ele><time>2026-05-02T09:37:33.539Z</time></trkpt><trkpt lat="45.4118076" lon="11.5384653"><ele>80.0</ele><time>2026-05-02T09:37:34.539Z</time></trkpt><trkpt lat="45.4117241" lon="11.5383965"><ele>80.0</ele><time>2026-05-02T09:37:35.539Z</time></trkpt><trkpt lat="45.4116331" lon="11.5383594"><ele>80.0</ele><time>2026-05-02T09:37:36.539Z</time></trkpt><trkpt lat="45.4115466" lon="11.538358"><ele>80.0</ele><time>2026-05-02T09:37:37.539Z</time></trkpt><trkpt lat="45.411463" lon="11.5383929"><ele>80.0</ele><time>2026-05-02T09:37:38.539Z</time></trkpt><trkpt lat="45.4113939" lon="11.5384727"><ele>80.0</ele><time>2026-05-02T09:37:39.539Z</time></trkpt><trkpt lat="45.4113527" lon="11.5385862"><ele>80.0</ele><time>2026-05-02T09:37:40.539Z</time></trkpt><trkpt lat="45.4113293" lon="11.538721"><ele>77.6</ele><time>2026-05-02T09:37:41.539Z</time></trkpt><trkpt lat="45.4112998" lon="11.5388639"><ele>75.2</ele><time>2026-05-02T09:37:42.539Z</time></trkpt><trkpt lat="45.4112652" lon="11.5390125"><ele>72.8</ele><time>2026-05-02T09:37:43.54Z</time></trkpt><trkpt lat="45.4112209" lon="11.539158"><ele>70.4</ele><time>2026-05-02T09:37:44.539Z</time></trkpt><trkpt lat="45.4111687" lon="11.5392969"><ele>68.0</ele><time>2026-05-02T09:37:45.539Z</time></trkpt><trkpt lat="45.4111126" lon="11.5394253"><ele>68.0</ele><time>2026-05-02T09:37:46.539Z</time></trkpt><trkpt lat="45.4110652" lon="11.5395307"><ele>68.0</ele><time>2026-05-02T09:37:47.54Z</time></trkpt><trkpt lat="45.4110226" lon="11.5396088"><ele>68.0</ele><time>2026-05-02T09:37:48.539Z</time></trkpt><trkpt lat="45.4109524" lon="11.5397014"><ele>68.0</ele><time>2026-05-02T09:37:50.539Z</time></trkpt><trkpt lat="45.4108959" lon="11.539796"><ele>68.0</ele><time>2026-05-02T09:37:53.538Z</time></trkpt><trkpt lat="45.4109373" lon="11.5399011"><ele>68.0</ele><time>2026-05-02T09:37:55.539Z</time></trkpt><trkpt lat="45.4110075" lon="11.540064"><ele>67.83333333333334</ele><time>2026-05-02T09:37:57.539Z</time></trkpt><trkpt lat="45.4110255" lon="11.5401678"><ele>67.66666666666667</ele><time>2026-05-02T09:37:58.538Z</time></trkpt><trkpt lat="45.4110431" lon="11.5402925"><ele>67.5</ele><time>2026-05-02T09:37:59.539Z</time></trkpt><trkpt lat="45.4110542" lon="11.540419"><ele>67.33333333333333</ele><time>2026-05-02T09:38:00.54Z</time></trkpt><trkpt lat="45.4110625" lon="11.5405361"><ele>67.16666666666666</ele><time>2026-05-02T09:38:01.538Z</time></trkpt><trkpt lat="45.4110689" lon="11.5406447"><ele>67.0</ele><time>2026-05-02T09:38:02.539Z</time></trkpt><trkpt lat="45.4110767" lon="11.5407367"><ele>66.83333333333333</ele><time>2026-05-02T09:38:03.539Z</time></trkpt><trkpt lat="45.4110905" lon="11.540909"><ele>66.66666666666666</ele><time>2026-05-02T09:38:05.539Z</time></trkpt><trkpt lat="45.4111013" lon="11.5410035"><ele>66.5</ele><time>2026-05-02T09:38:06.539Z</time></trkpt><trkpt lat="45.4111127" lon="11.5411003"><ele>66.33333333333333</ele><time>2026-05-02T09:38:07.539Z</time></trkpt><trkpt lat="45.4111221" lon="11.5411993"><ele>66.16666666666667</ele><time>2026-05-02T09:38:08.539Z</time></trkpt><trkpt lat="45.4111297" lon="11.5412989"><ele>66.0</ele><time>2026-05-02T09:38:09.539Z</time></trkpt><trkpt lat="45.4111345" lon="11.5413982"><ele>65.85714285714286</ele><time>2026-05-02T09:38:10.539Z</time></trkpt><trkpt lat="45.4111434" lon="11.5414979"><ele>65.71428571428572</ele><time>2026-05-02T09:38:11.539Z</time></trkpt><trkpt lat="45.4111566" lon="11.5415954"><ele>65.57142857142858</ele><time>2026-05-02T09:38:12.539Z</time></trkpt><trkpt lat="45.4111759" lon="11.5416966"><ele>65.42857142857143</ele><time>2026-05-02T09:38:13.539Z</time></trkpt><trkpt lat="45.4111991" lon="11.5417986"><ele>65.28571428571429</ele><time>2026-05-02T09:38:14.539Z</time></trkpt><trkpt lat="45.4112253" lon="11.5418991"><ele>65.14285714285715</ele><time>2026-05-02T09:38:15.539Z</time></trkpt><trkpt lat="45.4112455" lon="11.5419987"><ele>65.0</ele><time>2026-05-02T09:38:16.538Z</time></trkpt><trkpt lat="45.4112616" lon="11.5420956"><ele>64.33333333333334</ele><time>2026-05-02T09:38:17.54Z</time></trkpt><trkpt lat="45.4112778" lon="11.5421971"><ele>63.66666666666667</ele><time>2026-05-02T09:38:18.539Z</time></trkpt><trkpt lat="45.4112953" lon="11.5423038"><ele>63.0</ele><time>2026-05-02T09:38:19.538Z</time></trkpt><trkpt lat="45.4113236" lon="11.5424135"><ele>62.33333333333333</ele><time>2026-05-02T09:38:20.539Z</time></trkpt><trkpt lat="45.4113636" lon="11.5425233"><ele>61.666666666666664</ele><time>2026-05-02T09:38:21.538Z</time></trkpt><trkpt lat="45.4114166" lon="11.5426369"><ele>61.0</ele><time>2026-05-02T09:38:22.538Z</time></trkpt><trkpt lat="45.4114682" lon="11.5427567"><ele>65.5</ele><time>2026-05-02T09:38:23.538Z</time></trkpt><trkpt lat="45.4115254" lon="11.5428869"><ele>70.0</ele><time>2026-05-02T09:38:24.54Z</time></trkpt><trkpt lat="45.4115849" lon="11.5430291"><ele>74.5</ele><time>2026-05-02T09:38:25.539Z</time></trkpt><trkpt lat="45.4116367" lon="11.5431831"><ele>79.0</ele><time>2026-05-02T09:38:26.539Z</time></trkpt><trkpt lat="45.4116774" lon="11.543349"><ele>79.0</ele><time>2026-05-02T09:38:27.539Z</time></trkpt><trkpt lat="45.4117131" lon="11.5435231"><ele>79.0</ele><time>2026-05-02T09:38:28.539Z</time></trkpt><trkpt lat="45.4117404" lon="11.5436961"><ele>79.0</ele><time>2026-05-02T09:38:29.539Z</time></trkpt><trkpt lat="45.4117514" lon="11.5438714"><ele>79.0</ele><time>2026-05-02T09:38:30.54Z</time></trkpt><trkpt lat="45.4117481" lon="11.5440362"><ele>77.60000000000001</ele><time>2026-05-02T09:38:31.539Z</time></trkpt><trkpt lat="45.4117426" lon="11.544188"><ele>76.2</ele><time>2026-05-02T09:38:32.539Z</time></trkpt><trkpt lat="45.4117434" lon="11.544319"><ele>74.80000000000001</ele><time>2026-05-02T09:38:33.539Z</time></trkpt><trkpt lat="45.4117612" lon="11.5444414"><ele>73.4</ele><time>2026-05-02T09:38:34.54Z</time></trkpt><trkpt lat="45.4117979" lon="11.5445599"><ele>72.0</ele><time>2026-05-02T09:38:35.54Z</time></trkpt><trkpt lat="45.4118594" lon="11.544661"><ele>72.2</ele><time>2026-05-02T09:38:36.539Z</time></trkpt><trkpt lat="45.4119441" lon="11.5447402"><ele>72.4</ele><time>2026-05-02T09:38:37.539Z</time></trkpt><trkpt lat="45.4120354" lon="11.5447942"><ele>72.6</ele><time>2026-05-02T09:38:38.54Z</time></trkpt><trkpt lat="45.4121306" lon="11.5448219"><ele>72.8</ele><time>2026-05-02T09:38:39.539Z</time></trkpt><trkpt lat="45.4122175" lon="11.5448474"><ele>73.0</ele><time>2026-05-02T09:38:40.54Z</time></trkpt><trkpt lat="45.4122903" lon="11.5448987"><ele>73.0</ele><time>2026-05-02T09:38:41.539Z</time></trkpt><trkpt lat="45.412354" lon="11.544973"><ele>73.0</ele><time>2026-05-02T09:38:42.539Z</time></trkpt><trkpt lat="45.4124028" lon="11.5450901"><ele>73.0</ele><time>2026-05-02T09:38:43.539Z</time></trkpt><trkpt lat="45.4124443" lon="11.5452404"><ele>73.0</ele><time>2026-05-02T09:38:44.539Z</time></trkpt><trkpt lat="45.4124843" lon="11.5453978"><ele>73.0</ele><time>2026-05-02T09:38:45.539Z</time></trkpt><trkpt lat="45.4125338" lon="11.5455536"><ele>72.8</ele><time>2026-05-02T09:38:46.539Z</time></trkpt><trkpt lat="45.41258" lon="11.5457092"><ele>72.6</ele><time>2026-05-02T09:38:47.538Z</time></trkpt><trkpt lat="45.4125949" lon="11.5458668"><ele>72.4</ele><time>2026-05-02T09:38:48.539Z</time></trkpt><trkpt lat="45.4125726" lon="11.5460188"><ele>72.2</ele><time>2026-05-02T09:38:49.539Z</time></trkpt><trkpt lat="45.4125209" lon="11.546152"><ele>72.0</ele><time>2026-05-02T09:38:50.54Z</time></trkpt><trkpt lat="45.4124563" lon="11.5462757"><ele>74.0</ele><time>2026-05-02T09:38:51.539Z</time></trkpt><trkpt lat="45.4123887" lon="11.546401"><ele>76.0</ele><time>2026-05-02T09:38:52.539Z</time></trkpt><trkpt lat="45.4123228" lon="11.5465261"><ele>78.0</ele><time>2026-05-02T09:38:53.539Z</time></trkpt><trkpt lat="45.4122705" lon="11.5466496"><ele>80.0</ele><time>2026-05-02T09:38:54.54Z</time></trkpt><trkpt lat="45.4122416" lon="11.5467668"><ele>82.0</ele><time>2026-05-02T09:38:55.539Z</time></trkpt><trkpt lat="45.412244" lon="11.5468826"><ele>82.0</ele><time>2026-05-02T09:38:56.54Z</time></trkpt><trkpt lat="45.4122744" lon="11.5470019"><ele>82.0</ele><time>2026-05-02T09:38:57.539Z</time></trkpt><trkpt lat="45.412327" lon="11.5471154"><ele>82.0</ele><time>2026-05-02T09:38:58.539Z</time></trkpt><trkpt lat="45.412393" lon="11.5472262"><ele>82.0</ele><time>2026-05-02T09:38:59.54Z</time></trkpt><trkpt lat="45.4124664" lon="11.5473382"><ele>82.0</ele><time>2026-05-02T09:39:00.54Z</time></trkpt><trkpt lat="45.4125469" lon="11.5474475"><ele>82.0</ele><time>2026-05-02T09:39:01.54Z</time></trkpt><trkpt lat="45.4126339" lon="11.5475561"><ele>82.0</ele><time>2026-05-02T09:39:02.538Z</time></trkpt><trkpt lat="45.4127211" lon="11.5476666"><ele>82.0</ele><time>2026-05-02T09:39:03.539Z</time></trkpt><trkpt lat="45.4127957" lon="11.5477764"><ele>82.0</ele><time>2026-05-02T09:39:04.539Z</time></trkpt><trkpt lat="45.4128609" lon="11.5478866"><ele>82.0</ele><time>2026-05-02T09:39:05.539Z</time></trkpt><trkpt lat="45.4129185" lon="11.5479975"><ele>80.19999999999999</ele><time>2026-05-02T09:39:06.539Z</time></trkpt><trkpt lat="45.4129676" lon="11.5481202"><ele>78.39999999999999</ele><time>2026-05-02T09:39:07.539Z</time></trkpt><trkpt lat="45.4130002" lon="11.5482605"><ele>76.6</ele><time>2026-05-02T09:39:08.538Z</time></trkpt><trkpt lat="45.4130154" lon="11.5484101"><ele>74.8</ele><time>2026-05-02T09:39:09.539Z</time></trkpt><trkpt lat="45.4130218" lon="11.5485576"><ele>73.0</ele><time>2026-05-02T09:39:10.538Z</time></trkpt><trkpt lat="45.4130357" lon="11.5486848"><ele>76.0</ele><time>2026-05-02T09:39:11.539Z</time></trkpt><trkpt lat="45.4130513" lon="11.5488062"><ele>79.0</ele><time>2026-05-02T09:39:12.539Z</time></trkpt><trkpt lat="45.4130781" lon="11.548933"><ele>82.0</ele><time>2026-05-02T09:39:13.539Z</time></trkpt><trkpt lat="45.413122" lon="11.5490438"><ele>85.0</ele><time>2026-05-02T09:39:14.539Z</time></trkpt><trkpt lat="45.4131838" lon="11.549126"><ele>88.0</ele><time>2026-05-02T09:39:15.539Z</time></trkpt><trkpt lat="45.4132629" lon="11.549175"><ele>91.0</ele><time>2026-05-02T09:39:16.539Z</time></trkpt><trkpt lat="45.4133542" lon="11.5491801"><ele>91.0</ele><time>2026-05-02T09:39:17.538Z</time></trkpt><trkpt lat="45.4134511" lon="11.5491486"><ele>91.0</ele><time>2026-05-02T09:39:18.539Z</time></trkpt><trkpt lat="45.4135491" lon="11.5490835"><ele>91.0</ele><time>2026-05-02T09:39:19.54Z</time></trkpt><trkpt lat="45.4136443" lon="11.5489985"><ele>91.0</ele><time>2026-05-02T09:39:20.539Z</time></trkpt><trkpt lat="45.4137389" lon="11.5488951"><ele>91.0</ele><time>2026-05-02T09:39:21.538Z</time></trkpt><trkpt lat="45.4138288" lon="11.5487819"><ele>95.5</ele><time>2026-05-02T09:39:22.54Z</time></trkpt><trkpt lat="45.4139222" lon="11.5486792"><ele>100.0</ele><time>2026-05-02T09:39:23.539Z</time></trkpt><trkpt lat="45.4140292" lon="11.548595"><ele>104.5</ele><time>2026-05-02T09:39:24.539Z</time></trkpt><trkpt lat="45.4141437" lon="11.5485265"><ele>109.0</ele><time>2026-05-02T09:39:25.539Z</time></trkpt><trkpt lat="45.4142559" lon="11.5484569"><ele>109.0</ele><time>2026-05-02T09:39:26.539Z</time></trkpt><trkpt lat="45.4143594" lon="11.5483873"><ele>109.0</ele><time>2026-05-02T09:39:27.539Z</time></trkpt><trkpt lat="45.4144542" lon="11.5483227"><ele>109.0</ele><time>2026-05-02T09:39:28.538Z</time></trkpt><trkpt lat="45.414551" lon="11.548272"><ele>109.0</ele><time>2026-05-02T09:39:29.539Z</time></trkpt><trkpt lat="45.4146509" lon="11.5482435"><ele>109.0</ele><time>2026-05-02T09:39:30.539Z</time></trkpt><trkpt lat="45.4147556" lon="11.5482392"><ele>106.80000000000001</ele><time>2026-05-02T09:39:31.539Z</time></trkpt><trkpt lat="45.414858" lon="11.548258"><ele>104.60000000000001</ele><time>2026-05-02T09:39:32.539Z</time></trkpt><trkpt lat="45.414956" lon="11.5483125"><ele>102.4</ele><time>2026-05-02T09:39:33.539Z</time></trkpt><trkpt lat="45.4150428" lon="11.5483863"><ele>100.2</ele><time>2026-05-02T09:39:34.539Z</time></trkpt><trkpt lat="45.415122" lon="11.5484583"><ele>98.0</ele><time>2026-05-02T09:39:35.539Z</time></trkpt><trkpt lat="45.4152014" lon="11.5485314"><ele>98.0</ele><time>2026-05-02T09:39:36.539Z</time></trkpt><trkpt lat="45.4152902" lon="11.5486139"><ele>98.0</ele><time>2026-05-02T09:39:37.54Z</time></trkpt><trkpt lat="45.4153839" lon="11.5487051"><ele>98.0</ele><time>2026-05-02T09:39:38.539Z</time></trkpt><trkpt lat="45.4154805" lon="11.5487934"><ele>98.0</ele><time>2026-05-02T09:39:39.538Z</time></trkpt><trkpt lat="45.4155881" lon="11.5488742"><ele>97.0</ele><time>2026-05-02T09:39:40.539Z</time></trkpt><trkpt lat="45.4157044" lon="11.5489411"><ele>96.0</ele><time>2026-05-02T09:39:41.539Z</time></trkpt><trkpt lat="45.4158306" lon="11.548995"><ele>95.0</ele><time>2026-05-02T09:39:42.539Z</time></trkpt><trkpt lat="45.4159593" lon="11.5490314"><ele>94.0</ele><time>2026-05-02T09:39:43.539Z</time></trkpt><trkpt lat="45.4160877" lon="11.5490419"><ele>94.0</ele><time>2026-05-02T09:39:44.54Z</time></trkpt><trkpt lat="45.4162086" lon="11.5490258"><ele>94.0</ele><time>2026-05-02T09:39:45.539Z</time></trkpt><trkpt lat="45.4163192" lon="11.5489872"><ele>94.0</ele><time>2026-05-02T09:39:46.539Z</time></trkpt><trkpt lat="45.4164193" lon="11.5489521"><ele>94.0</ele><time>2026-05-02T09:39:47.54Z</time></trkpt><trkpt lat="45.4165167" lon="11.5489388"><ele>94.0</ele><time>2026-05-02T09:39:48.539Z</time></trkpt><trkpt lat="45.4166062" lon="11.5489489"><ele>93.80000000000001</ele><time>2026-05-02T09:39:49.538Z</time></trkpt><trkpt lat="45.4166912" lon="11.5489481"><ele>93.60000000000001</ele><time>2026-05-02T09:39:50.539Z</time></trkpt><trkpt lat="45.4167789" lon="11.5489017"><ele>93.4</ele><time>2026-05-02T09:39:51.539Z</time></trkpt><trkpt lat="45.4168573" lon="11.5488121"><ele>93.2</ele><time>2026-05-02T09:39:52.539Z</time></trkpt><trkpt lat="45.4169194" lon="11.548704"><ele>93.0</ele><time>2026-05-02T09:39:53.539Z</time></trkpt><trkpt lat="45.416977" lon="11.5486013"><ele>93.80000000000001</ele><time>2026-05-02T09:39:54.54Z</time></trkpt><trkpt lat="45.4170548" lon="11.5485305"><ele>94.6</ele><time>2026-05-02T09:39:55.539Z</time></trkpt><trkpt lat="45.4171515" lon="11.5484695"><ele>95.4</ele><time>2026-05-02T09:39:56.539Z</time></trkpt><trkpt lat="45.4172635" lon="11.5484324"><ele>96.19999999999999</ele><time>2026-05-02T09:39:57.539Z</time></trkpt><trkpt lat="45.4173832" lon="11.5484153"><ele>97.0</ele><time>2026-05-02T09:39:58.539Z</time></trkpt><trkpt lat="45.4175081" lon="11.548407"><ele>97.5</ele><time>2026-05-02T09:39:59.538Z</time></trkpt><trkpt lat="45.4176296" lon="11.5484058"><ele>98.0</ele><time>2026-05-02T09:40:00.539Z</time></trkpt><trkpt lat="45.4177437" lon="11.5484245"><ele>98.5</ele><time>2026-05-02T09:40:01.539Z</time></trkpt><trkpt lat="45.417852" lon="11.548465"><ele>99.0</ele><time>2026-05-02T09:40:02.539Z</time></trkpt><trkpt lat="45.4179513" lon="11.5485249"><ele>98.6</ele><time>2026-05-02T09:40:03.54Z</time></trkpt><trkpt lat="45.4180426" lon="11.5485974"><ele>98.2</ele><time>2026-05-02T09:40:04.538Z</time></trkpt><trkpt lat="45.4181368" lon="11.5486621"><ele>97.8</ele><time>2026-05-02T09:40:05.539Z</time></trkpt><trkpt lat="45.4182379" lon="11.5487047"><ele>97.39999999999999</ele><time>2026-05-02T09:40:06.539Z</time></trkpt><trkpt lat="45.4183464" lon="11.5487227"><ele>97.0</ele><time>2026-05-02T09:40:07.539Z</time></trkpt><trkpt lat="45.418456" lon="11.54872"><ele>94.19999999999999</ele><time>2026-05-02T09:40:08.539Z</time></trkpt><trkpt lat="45.4185626" lon="11.5487136"><ele>91.4</ele><time>2026-05-02T09:40:09.539Z</time></trkpt><trkpt lat="45.4186654" lon="11.5487127"><ele>88.6</ele><time>2026-05-02T09:40:10.539Z</time></trkpt><trkpt lat="45.4187676" lon="11.5487246"><ele>85.80000000000001</ele><time>2026-05-02T09:40:11.54Z</time></trkpt><trkpt lat="45.4188633" lon="11.5487521"><ele>83.0</ele><time>2026-05-02T09:40:12.539Z</time></trkpt><trkpt lat="45.4189519" lon="11.5487808"><ele>83.0</ele><time>2026-05-02T09:40:13.539Z</time></trkpt><trkpt lat="45.4190392" lon="11.5487923"><ele>83.0</ele><time>2026-05-02T09:40:14.539Z</time></trkpt><trkpt lat="45.4191253" lon="11.5487728"><ele>83.0</ele><time>2026-05-02T09:40:15.539Z</time></trkpt><trkpt lat="45.4191894" lon="11.5487089"><ele>83.0</ele><time>2026-05-02T09:40:16.539Z</time></trkpt><trkpt lat="45.4192349" lon="11.5486072"><ele>83.0</ele><time>2026-05-02T09:40:17.539Z</time></trkpt><trkpt lat="45.4192743" lon="11.5484959"><ele>83.0</ele><time>2026-05-02T09:40:18.54Z</time></trkpt><trkpt lat="45.4193235" lon="11.548413"><ele>85.16666666666667</ele><time>2026-05-02T09:40:19.538Z</time></trkpt><trkpt lat="45.4193905" lon="11.5483754"><ele>87.33333333333334</ele><time>2026-05-02T09:40:20.539Z</time></trkpt><trkpt lat="45.4194605" lon="11.5483693"><ele>89.5</ele><time>2026-05-02T09:40:21.539Z</time></trkpt><trkpt lat="45.4195362" lon="11.5483884"><ele>91.66666666666667</ele><time>2026-05-02T09:40:22.539Z</time></trkpt><trkpt lat="45.4196138" lon="11.5484196"><ele>93.83333333333333</ele><time>2026-05-02T09:40:23.539Z</time></trkpt><trkpt lat="45.419687" lon="11.548458"><ele>96.0</ele><time>2026-05-02T09:40:24.54Z</time></trkpt><trkpt lat="45.4197431" lon="11.548529"><ele>96.33333333333333</ele><time>2026-05-02T09:40:25.539Z</time></trkpt><trkpt lat="45.4197799" lon="11.5486253"><ele>96.66666666666666</ele><time>2026-05-02T09:40:26.539Z</time></trkpt><trkpt lat="45.4197836" lon="11.548739"><ele>97.0</ele><time>2026-05-02T09:40:27.539Z</time></trkpt><trkpt lat="45.4197612" lon="11.5488583"><ele>97.33333333333333</ele><time>2026-05-02T09:40:28.54Z</time></trkpt><trkpt lat="45.4197155" lon="11.5489761"><ele>97.66666666666666</ele><time>2026-05-02T09:40:29.538Z</time></trkpt><trkpt lat="45.4196637" lon="11.5490963"><ele>98.0</ele><time>2026-05-02T09:40:30.539Z</time></trkpt><trkpt lat="45.4196151" lon="11.5492134"><ele>95.2</ele><time>2026-05-02T09:40:31.539Z</time></trkpt><trkpt lat="45.419572" lon="11.5493357"><ele>92.4</ele><time>2026-05-02T09:40:32.538Z</time></trkpt><trkpt lat="45.4195482" lon="11.5494687"><ele>89.60000000000001</ele><time>2026-05-02T09:40:33.539Z</time></trkpt><trkpt lat="45.4195552" lon="11.5496106"><ele>86.80000000000001</ele><time>2026-05-02T09:40:34.539Z</time></trkpt><trkpt lat="45.4195777" lon="11.5497482"><ele>84.0</ele><time>2026-05-02T09:40:35.539Z</time></trkpt><trkpt lat="45.4196062" lon="11.5498891"><ele>84.0</ele><time>2026-05-02T09:40:36.54Z</time></trkpt><trkpt lat="45.4196339" lon="11.5500377"><ele>84.0</ele><time>2026-05-02T09:40:37.539Z</time></trkpt><trkpt lat="45.4196543" lon="11.5502003"><ele>84.0</ele><time>2026-05-02T09:40:38.539Z</time></trkpt><trkpt lat="45.4196875" lon="11.5503664"><ele>84.0</ele><time>2026-05-02T09:40:39.539Z</time></trkpt><trkpt lat="45.4197244" lon="11.5505405"><ele>86.5</ele><time>2026-05-02T09:40:40.539Z</time></trkpt><trkpt lat="45.4197601" lon="11.5507131"><ele>89.0</ele><time>2026-05-02T09:40:41.54Z</time></trkpt><trkpt lat="45.4197953" lon="11.5508884"><ele>91.5</ele><time>2026-05-02T09:40:42.539Z</time></trkpt><trkpt lat="45.4198272" lon="11.551062"><ele>94.0</ele><time>2026-05-02T09:40:43.539Z</time></trkpt><trkpt lat="45.4198528" lon="11.5512319"><ele>94.0</ele><time>2026-05-02T09:40:44.539Z</time></trkpt><trkpt lat="45.4198749" lon="11.5513984"><ele>94.0</ele><time>2026-05-02T09:40:45.54Z</time></trkpt><trkpt lat="45.4198971" lon="11.5515555"><ele>94.0</ele><time>2026-05-02T09:40:46.539Z</time></trkpt><trkpt lat="45.4199152" lon="11.5517048"><ele>94.0</ele><time>2026-05-02T09:40:47.539Z</time></trkpt><trkpt lat="45.4199294" lon="11.5518513"><ele>94.0</ele><time>2026-05-02T09:40:48.539Z</time></trkpt><trkpt lat="45.419929" lon="11.5519994"><ele>94.4</ele><time>2026-05-02T09:40:49.539Z</time></trkpt><trkpt lat="45.4199145" lon="11.5521474"><ele>94.80000000000001</ele><time>2026-05-02T09:40:50.539Z</time></trkpt><trkpt lat="45.4198913" lon="11.5522966"><ele>95.19999999999999</ele><time>2026-05-02T09:40:51.539Z</time></trkpt><trkpt lat="45.4198644" lon="11.5524516"><ele>95.6</ele><time>2026-05-02T09:40:52.538Z</time></trkpt><trkpt lat="45.4198341" lon="11.5526082"><ele>96.0</ele><time>2026-05-02T09:40:53.539Z</time></trkpt><trkpt lat="45.4198003" lon="11.552756"><ele>96.8</ele><time>2026-05-02T09:40:54.539Z</time></trkpt><trkpt lat="45.41977" lon="11.5528989"><ele>97.6</ele><time>2026-05-02T09:40:55.539Z</time></trkpt><trkpt lat="45.4197417" lon="11.5530385"><ele>98.4</ele><time>2026-05-02T09:40:56.54Z</time></trkpt><trkpt lat="45.4197133" lon="11.5531704"><ele>99.2</ele><time>2026-05-02T09:40:57.539Z</time></trkpt><trkpt lat="45.4196852" lon="11.5532983"><ele>100.0</ele><time>2026-05-02T09:40:58.539Z</time></trkpt><trkpt lat="45.4196576" lon="11.5534275"><ele>95.0</ele><time>2026-05-02T09:40:59.539Z</time></trkpt><trkpt lat="45.4196323" lon="11.5535644"><ele>90.0</ele><time>2026-05-02T09:41:00.54Z</time></trkpt><trkpt lat="45.4196072" lon="11.5537069"><ele>85.0</ele><time>2026-05-02T09:41:01.54Z</time></trkpt><trkpt lat="45.4195837" lon="11.5538505"><ele>80.0</ele><time>2026-05-02T09:41:02.539Z</time></trkpt><trkpt lat="45.4195624" lon="11.5539916"><ele>75.0</ele><time>2026-05-02T09:41:03.54Z</time></trkpt><trkpt lat="45.4195426" lon="11.5541316"><ele>74.66666666666667</ele><time>2026-05-02T09:41:04.539Z</time></trkpt><trkpt lat="45.4195249" lon="11.5542671"><ele>74.33333333333333</ele><time>2026-05-02T09:41:05.539Z</time></trkpt><trkpt lat="45.4195133" lon="11.5543953"><ele>74.0</ele><time>2026-05-02T09:41:06.54Z</time></trkpt><trkpt lat="45.4195022" lon="11.5545192"><ele>73.66666666666666</ele><time>2026-05-02T09:41:07.538Z</time></trkpt><trkpt lat="45.4194908" lon="11.5546417"><ele>73.33333333333333</ele><time>2026-05-02T09:41:08.539Z</time></trkpt><trkpt lat="45.4194848" lon="11.55476"><ele>73.0</ele><time>2026-05-02T09:41:09.538Z</time></trkpt><trkpt lat="45.4194784" lon="11.5548781"><ele>72.83333333333333</ele><time>2026-05-02T09:41:10.539Z</time></trkpt><trkpt lat="45.4194718" lon="11.5550023"><ele>72.66666666666666</ele><time>2026-05-02T09:41:11.538Z</time></trkpt><trkpt lat="45.4194657" lon="11.5551235"><ele>72.5</ele><time>2026-05-02T09:41:12.539Z</time></trkpt><trkpt lat="45.4194565" lon="11.5552408"><ele>72.33333333333333</ele><time>2026-05-02T09:41:13.539Z</time></trkpt><trkpt lat="45.4194438" lon="11.5553595"><ele>72.16666666666667</ele><time>2026-05-02T09:41:14.539Z</time></trkpt><trkpt lat="45.4194255" lon="11.5554766"><ele>72.0</ele><time>2026-05-02T09:41:15.54Z</time></trkpt><trkpt lat="45.4193963" lon="11.5555931"><ele>71.8</ele><time>2026-05-02T09:41:16.539Z</time></trkpt><trkpt lat="45.4193633" lon="11.555708"><ele>71.6</ele><time>2026-05-02T09:41:17.54Z</time></trkpt><trkpt lat="45.4193243" lon="11.5558236"><ele>71.39999999999999</ele><time>2026-05-02T09:41:18.539Z</time></trkpt><trkpt lat="45.4192816" lon="11.5559377"><ele>71.2</ele><time>2026-05-02T09:41:19.538Z</time></trkpt><trkpt lat="45.4192387" lon="11.5560538"><ele>71.0</ele><time>2026-05-02T09:41:20.539Z</time></trkpt><trkpt lat="45.4191926" lon="11.5561727"><ele>70.16666666666667</ele><time>2026-05-02T09:41:21.539Z</time></trkpt><trkpt lat="45.4191424" lon="11.5562877"><ele>69.33333333333334</ele><time>2026-05-02T09:41:22.539Z</time></trkpt><trkpt lat="45.4190923" lon="11.5563975"><ele>68.5</ele><time>2026-05-02T09:41:23.538Z</time></trkpt><trkpt lat="45.4190444" lon="11.5565001"><ele>67.66666666666667</ele><time>2026-05-02T09:41:24.539Z</time></trkpt><trkpt lat="45.4190008" lon="11.5565912"><ele>66.83333333333333</ele><time>2026-05-02T09:41:25.539Z</time></trkpt><trkpt lat="45.4189568" lon="11.5566792"><ele>66.0</ele><time>2026-05-02T09:41:26.54Z</time></trkpt><trkpt lat="45.418895" lon="11.5568134"><ele>66.0</ele><time>2026-05-02T09:41:28.539Z</time></trkpt><trkpt lat="45.4188713" lon="11.5569154"><ele>66.0</ele><time>2026-05-02T09:41:30.538Z</time></trkpt><trkpt lat="45.4189211" lon="11.5570125"><ele>66.0</ele><time>2026-05-02T09:41:32.54Z</time></trkpt><trkpt lat="45.4189845" lon="11.5570445"><ele>66.0</ele><time>2026-05-02T09:41:33.539Z</time></trkpt><trkpt lat="45.4190574" lon="11.5570881"><ele>66.0</ele><time>2026-05-02T09:41:34.54Z</time></trkpt><trkpt lat="45.4191424" lon="11.5571422"><ele>66.0</ele><time>2026-05-02T09:41:35.539Z</time></trkpt><trkpt lat="45.4192393" lon="11.5571993"><ele>65.39999999999999</ele><time>2026-05-02T09:41:36.538Z</time></trkpt><trkpt lat="45.419344" lon="11.5572574"><ele>64.8</ele><time>2026-05-02T09:41:37.54Z</time></trkpt><trkpt lat="45.4194485" lon="11.5573058"><ele>64.19999999999999</ele><time>2026-05-02T09:41:38.539Z</time></trkpt><trkpt lat="45.4195511" lon="11.5573411"><ele>63.599999999999994</ele><time>2026-05-02T09:41:39.538Z</time></trkpt><trkpt lat="45.4196586" lon="11.5573552"><ele>63.0</ele><time>2026-05-02T09:41:40.539Z</time></trkpt><trkpt lat="45.4197691" lon="11.5573434"><ele>63.0</ele><time>2026-05-02T09:41:41.539Z</time></trkpt><trkpt lat="45.4198765" lon="11.5573195"><ele>63.0</ele><time>2026-05-02T09:41:42.539Z</time></trkpt><trkpt lat="45.4199828" lon="11.5572942"><ele>63.0</ele><time>2026-05-02T09:41:43.539Z</time></trkpt><trkpt lat="45.4200861" lon="11.5572694"><ele>63.0</ele><time>2026-05-02T09:41:44.54Z</time></trkpt><trkpt lat="45.420183" lon="11.5572549"><ele>63.0</ele><time>2026-05-02T09:41:45.539Z</time></trkpt><trkpt lat="45.420278" lon="11.5572676"><ele>63.0</ele><time>2026-05-02T09:41:46.539Z</time></trkpt><trkpt lat="45.4203742" lon="11.5573"><ele>63.0</ele><time>2026-05-02T09:41:47.539Z</time></trkpt><trkpt lat="45.4204674" lon="11.5573551"><ele>63.0</ele><time>2026-05-02T09:41:48.539Z</time></trkpt><trkpt lat="45.4205632" lon="11.557419"><ele>63.0</ele><time>2026-05-02T09:41:49.54Z</time></trkpt><trkpt lat="45.4206613" lon="11.5574908"><ele>63.0</ele><time>2026-05-02T09:41:50.539Z</time></trkpt><trkpt lat="45.4207546" lon="11.5575617"><ele>63.0</ele><time>2026-05-02T09:41:51.539Z</time></trkpt><trkpt lat="45.4208415" lon="11.557619"><ele>63.0</ele><time>2026-05-02T09:41:52.54Z</time></trkpt><trkpt lat="45.4209257" lon="11.5576625"><ele>63.0</ele><time>2026-05-02T09:41:53.539Z</time></trkpt><trkpt lat="45.4209983" lon="11.5576931"><ele>63.0</ele><time>2026-05-02T09:41:54.539Z</time></trkpt><trkpt lat="45.4210947" lon="11.5577819"><ele>63.0</ele><time>2026-05-02T09:41:56.539Z</time></trkpt><trkpt lat="45.4210943" lon="11.5579168"><ele>61.0</ele><time>2026-05-02T09:41:58.539Z</time></trkpt><trkpt lat="45.4210304" lon="11.5580287"><ele>59.0</ele><time>2026-05-02T09:42:00.54Z</time></trkpt><trkpt lat="45.4210558" lon="11.5581326"><ele>57.0</ele><time>2026-05-02T09:42:02.539Z</time></trkpt><trkpt lat="45.4211335" lon="11.5580932"><ele>55.0</ele><time>2026-05-02T09:42:04.54Z</time></trkpt><trkpt lat="45.421243" lon="11.5579937"><ele>53.0</ele><time>2026-05-02T09:42:06.539Z</time></trkpt><trkpt lat="45.4213268" lon="11.5579532"><ele>51.2</ele><time>2026-05-02T09:42:07.539Z</time></trkpt><trkpt lat="45.4214265" lon="11.5579473"><ele>49.4</ele><time>2026-05-02T09:42:08.539Z</time></trkpt><trkpt lat="45.4215323" lon="11.5579625"><ele>47.6</ele><time>2026-05-02T09:42:09.539Z</time></trkpt><trkpt lat="45.4216379" lon="11.5579936"><ele>45.800000000000004</ele><time>2026-05-02T09:42:10.539Z</time></trkpt><trkpt lat="45.4217389" lon="11.5580337"><ele>44.0</ele><time>2026-05-02T09:42:11.539Z</time></trkpt><trkpt lat="45.4218364" lon="11.5580745"><ele>44.0</ele><time>2026-05-02T09:42:12.538Z</time></trkpt><trkpt lat="45.4219344" lon="11.5581048"><ele>44.0</ele><time>2026-05-02T09:42:13.54Z</time></trkpt><trkpt lat="45.4220344" lon="11.5580975"><ele>44.0</ele><time>2026-05-02T09:42:14.538Z</time></trkpt><trkpt lat="45.4221286" lon="11.558084"><ele>44.0</ele><time>2026-05-02T09:42:15.54Z</time></trkpt><trkpt lat="45.4222179" lon="11.5580876"><ele>44.0</ele><time>2026-05-02T09:42:16.539Z</time></trkpt><trkpt lat="45.4223044" lon="11.5581236"><ele>42.6</ele><time>2026-05-02T09:42:17.539Z</time></trkpt><trkpt lat="45.4223787" lon="11.5581945"><ele>41.2</ele><time>2026-05-02T09:42:18.54Z</time></trkpt><trkpt lat="45.4224362" lon="11.5582974"><ele>39.800000000000004</ele><time>2026-05-02T09:42:19.54Z</time></trkpt><trkpt lat="45.4224745" lon="11.5584235"><ele>38.400000000000006</ele><time>2026-05-02T09:42:20.538Z</time></trkpt><trkpt lat="45.4224929" lon="11.5585597"><ele>37.0</ele><time>2026-05-02T09:42:21.539Z</time></trkpt><trkpt lat="45.4224857" lon="11.5586952"><ele>35.0</ele><time>2026-05-02T09:42:22.538Z</time></trkpt><trkpt lat="45.4224661" lon="11.5588018"><ele>33.0</ele><time>2026-05-02T09:42:23.539Z</time></trkpt><trkpt lat="45.4224494" lon="11.5588913"><ele>31.000000000000004</ele><time>2026-05-02T09:42:24.54Z</time></trkpt><trkpt lat="45.4224757" lon="11.5590543"><ele>29.0</ele><time>2026-05-02T09:42:26.54Z</time></trkpt><trkpt lat="45.4225995" lon="11.559101"><ele>27.0</ele><time>2026-05-02T09:42:28.539Z</time></trkpt><trkpt lat="45.4226765" lon="11.5591019"><ele>27.0</ele><time>2026-05-02T09:42:29.539Z</time></trkpt><trkpt lat="45.4227475" lon="11.5591087"><ele>27.0</ele><time>2026-05-02T09:42:30.54Z</time></trkpt><trkpt lat="45.4228095" lon="11.5591427"><ele>27.0</ele><time>2026-05-02T09:42:31.54Z</time></trkpt><trkpt lat="45.4228451" lon="11.5592795"><ele>27.0</ele><time>2026-05-02T09:42:33.539Z</time></trkpt><trkpt lat="45.4227687" lon="11.5593916"><ele>27.0</ele><time>2026-05-02T09:42:35.539Z</time></trkpt><trkpt lat="45.422704" lon="11.5594591"><ele>27.0</ele><time>2026-05-02T09:42:36.54Z</time></trkpt><trkpt lat="45.4226334" lon="11.5595241"><ele>26.166666666666668</ele><time>2026-05-02T09:42:37.54Z</time></trkpt><trkpt lat="45.4225681" lon="11.5595763"><ele>25.333333333333332</ele><time>2026-05-02T09:42:38.539Z</time></trkpt><trkpt lat="45.4225128" lon="11.5596282"><ele>24.5</ele><time>2026-05-02T09:42:39.539Z</time></trkpt><trkpt lat="45.4224393" lon="11.5597591"><ele>23.666666666666664</ele><time>2026-05-02T09:42:41.539Z</time></trkpt><trkpt lat="45.4224025" lon="11.5599123"><ele>22.833333333333332</ele><time>2026-05-02T09:42:43.539Z</time></trkpt><trkpt lat="45.4223894" lon="11.5600016"><ele>22.0</ele><time>2026-05-02T09:42:44.54Z</time></trkpt><trkpt lat="45.4223725" lon="11.5601247"><ele>22.0</ele><time>2026-05-02T09:42:45.539Z</time></trkpt><trkpt lat="45.4223491" lon="11.5602571"><ele>22.0</ele><time>2026-05-02T09:42:46.539Z</time></trkpt><trkpt lat="45.4223219" lon="11.5603942"><ele>22.0</ele><time>2026-05-02T09:42:47.539Z</time></trkpt><trkpt lat="45.4222936" lon="11.560525"><ele>22.0</ele><time>2026-05-02T09:42:48.539Z</time></trkpt><trkpt lat="45.422268" lon="11.5606528"><ele>22.0</ele><time>2026-05-02T09:42:49.54Z</time></trkpt><trkpt lat="45.4222546" lon="11.5608027"><ele>22.0</ele><time>2026-05-02T09:42:50.539Z</time></trkpt><trkpt lat="45.4222494" lon="11.560956"><ele>22.0</ele><time>2026-05-02T09:42:51.539Z</time></trkpt><trkpt lat="45.4222513" lon="11.5611077"><ele>22.0</ele><time>2026-05-02T09:42:52.539Z</time></trkpt><trkpt lat="45.4222569" lon="11.5612477"><ele>22.0</ele><time>2026-05-02T09:42:53.539Z</time></trkpt><trkpt lat="45.4222569" lon="11.5613778"><ele>22.0</ele><time>2026-05-02T09:42:54.539Z</time></trkpt><trkpt lat="45.422236" lon="11.5614948"><ele>22.0</ele><time>2026-05-02T09:42:55.539Z</time></trkpt><trkpt lat="45.4221982" lon="11.5616137"><ele>22.0</ele><time>2026-05-02T09:42:56.54Z</time></trkpt><trkpt lat="45.4221499" lon="11.5617359"><ele>22.0</ele><time>2026-05-02T09:42:57.539Z</time></trkpt><trkpt lat="45.4220959" lon="11.5618561"><ele>22.0</ele><time>2026-05-02T09:42:58.539Z</time></trkpt><trkpt lat="45.4220406" lon="11.5619828"><ele>22.0</ele><time>2026-05-02T09:42:59.539Z</time></trkpt><trkpt lat="45.4219835" lon="11.5621098"><ele>21.25</ele><time>2026-05-02T09:43:00.539Z</time></trkpt><trkpt lat="45.4219229" lon="11.5622502"><ele>20.5</ele><time>2026-05-02T09:43:01.539Z</time></trkpt><trkpt lat="45.4218614" lon="11.5623981"><ele>19.75</ele><time>2026-05-02T09:43:02.54Z</time></trkpt><trkpt lat="45.4218026" lon="11.5625589"><ele>19.0</ele><time>2026-05-02T09:43:03.538Z</time></trkpt><trkpt lat="45.4217466" lon="11.5627363"><ele>18.666666666666664</ele><time>2026-05-02T09:43:04.539Z</time></trkpt><trkpt lat="45.4216864" lon="11.5629382"><ele>18.333333333333332</ele><time>2026-05-02T09:43:05.539Z</time></trkpt><trkpt lat="45.4216197" lon="11.5631586"><ele>18.0</ele><time>2026-05-02T09:43:06.539Z</time></trkpt><trkpt lat="45.4215549" lon="11.5633858"><ele>18.0</ele><time>2026-05-02T09:43:07.539Z</time></trkpt><trkpt lat="45.4214847" lon="11.5636088"><ele>18.0</ele><time>2026-05-02T09:43:08.54Z</time></trkpt><trkpt lat="45.4214056" lon="11.5638104"><ele>18.0</ele><time>2026-05-02T09:43:09.539Z</time></trkpt><trkpt lat="45.4213233" lon="11.5639928"><ele>17.75</ele><time>2026-05-02T09:43:10.538Z</time></trkpt><trkpt lat="45.4212385" lon="11.5641592"><ele>17.5</ele><time>2026-05-02T09:43:11.539Z</time></trkpt><trkpt lat="45.4211563" lon="11.5643199"><ele>17.25</ele><time>2026-05-02T09:43:12.539Z</time></trkpt><trkpt lat="45.4210721" lon="11.5644955"><ele>17.0</ele><time>2026-05-02T09:43:13.54Z</time></trkpt><trkpt lat="45.4209941" lon="11.564682"><ele>17.0</ele><time>2026-05-02T09:43:14.54Z</time></trkpt><trkpt lat="45.4209271" lon="11.5648844"><ele>17.0</ele><time>2026-05-02T09:43:15.54Z</time></trkpt><trkpt lat="45.4208763" lon="11.5650915"><ele>17.0</ele><time>2026-05-02T09:43:16.539Z</time></trkpt><trkpt lat="45.4208332" lon="11.5652955"><ele>17.333333333333336</ele><time>2026-05-02T09:43:17.539Z</time></trkpt><trkpt lat="45.4207939" lon="11.565504"><ele>17.666666666666668</ele><time>2026-05-02T09:43:18.539Z</time></trkpt><trkpt lat="45.4207485" lon="11.5657324"><ele>18.0</ele><time>2026-05-02T09:43:19.54Z</time></trkpt><trkpt lat="45.4206917" lon="11.5659911"><ele>17.333333333333332</ele><time>2026-05-02T09:43:20.539Z</time></trkpt><trkpt lat="45.420623" lon="11.5662731"><ele>16.666666666666664</ele><time>2026-05-02T09:43:21.54Z</time></trkpt><trkpt lat="45.4205313" lon="11.5665819"><ele>16.0</ele><time>2026-05-02T09:43:22.539Z</time></trkpt><trkpt lat="45.4204299" lon="11.5669114"><ele>16.0</ele><time>2026-05-02T09:43:23.539Z</time></trkpt><trkpt lat="45.4203326" lon="11.5672541"><ele>16.0</ele><time>2026-05-02T09:43:24.539Z</time></trkpt><trkpt lat="45.4202374" lon="11.5676088"><ele>16.5</ele><time>2026-05-02T09:43:25.538Z</time></trkpt><trkpt lat="45.4201502" lon="11.5679521"><ele>17.0</ele><time>2026-05-02T09:43:26.539Z</time></trkpt><trkpt lat="45.4200694" lon="11.5682779"><ele>17.0</ele><time>2026-05-02T09:43:27.539Z</time></trkpt><trkpt lat="45.4199893" lon="11.5685827"><ele>17.0</ele><time>2026-05-02T09:43:28.54Z</time></trkpt><trkpt lat="45.4199098" lon="11.5688485"><ele>17.0</ele><time>2026-05-02T09:43:29.54Z</time></trkpt><trkpt lat="45.4198431" lon="11.5690656"><ele>17.0</ele><time>2026-05-02T09:43:30.54Z</time></trkpt><trkpt lat="45.4197915" lon="11.5692452"><ele>17.0</ele><time>2026-05-02T09:43:31.539Z</time></trkpt><trkpt lat="45.4197523" lon="11.5693941"><ele>17.0</ele><time>2026-05-02T09:43:32.538Z</time></trkpt><trkpt lat="45.4197495" lon="11.5695308"><ele>17.0</ele><time>2026-05-02T09:43:33.539Z</time></trkpt><trkpt lat="45.4197866" lon="11.5696738"><ele>17.75</ele><time>2026-05-02T09:43:34.539Z</time></trkpt><trkpt lat="45.4198694" lon="11.5697986"><ele>18.5</ele><time>2026-05-02T09:43:35.539Z</time></trkpt><trkpt lat="45.4199753" lon="11.5699168"><ele>19.25</ele><time>2026-05-02T09:43:36.539Z</time></trkpt><trkpt lat="45.4200833" lon="11.570037"><ele>20.0</ele><time>2026-05-02T09:43:37.54Z</time></trkpt><trkpt lat="45.4201851" lon="11.5701496"><ele>20.0</ele><time>2026-05-02T09:43:38.539Z</time></trkpt><trkpt lat="45.420256" lon="11.5702688"><ele>20.0</ele><time>2026-05-02T09:43:39.539Z</time></trkpt><trkpt lat="45.4202949" lon="11.570412"><ele>20.0</ele><time>2026-05-02T09:43:40.54Z</time></trkpt><trkpt lat="45.4203017" lon="11.5705741"><ele>20.0</ele><time>2026-05-02T09:43:41.539Z</time></trkpt><trkpt lat="45.4202702" lon="11.5707449"><ele>21.0</ele><time>2026-05-02T09:43:42.54Z</time></trkpt><trkpt lat="45.4202052" lon="11.5709098"><ele>22.0</ele><time>2026-05-02T09:43:43.539Z</time></trkpt><trkpt lat="45.4201295" lon="11.5710774"><ele>23.0</ele><time>2026-05-02T09:43:44.54Z</time></trkpt><trkpt lat="45.4200495" lon="11.5712566"><ele>24.0</ele><time>2026-05-02T09:43:45.539Z</time></trkpt><trkpt lat="45.4199647" lon="11.5714425"><ele>26.0</ele><time>2026-05-02T09:43:46.54Z</time></trkpt><trkpt lat="45.4198778" lon="11.5716339"><ele>28.0</ele><time>2026-05-02T09:43:47.539Z</time></trkpt><trkpt lat="45.4197901" lon="11.571825"><ele>30.0</ele><time>2026-05-02T09:43:48.539Z</time></trkpt><trkpt lat="45.4197055" lon="11.5720136"><ele>27.666666666666668</ele><time>2026-05-02T09:43:49.539Z</time></trkpt><trkpt lat="45.4196178" lon="11.5721986"><ele>25.333333333333336</ele><time>2026-05-02T09:43:50.538Z</time></trkpt><trkpt lat="45.4195395" lon="11.5723857"><ele>23.0</ele><time>2026-05-02T09:43:51.539Z</time></trkpt><trkpt lat="45.419468" lon="11.5725604"><ele>23.0</ele><time>2026-05-02T09:43:52.54Z</time></trkpt><trkpt lat="45.4194057" lon="11.572726"><ele>23.0</ele><time>2026-05-02T09:43:53.539Z</time></trkpt><trkpt lat="45.4193579" lon="11.5728869"><ele>23.0</ele><time>2026-05-02T09:43:54.539Z</time></trkpt><trkpt lat="45.4193246" lon="11.573075"><ele>23.0</ele><time>2026-05-02T09:43:55.539Z</time></trkpt><trkpt lat="45.4193001" lon="11.5732797"><ele>23.333333333333336</ele><time>2026-05-02T09:43:56.539Z</time></trkpt><trkpt lat="45.4192835" lon="11.5734989"><ele>23.666666666666668</ele><time>2026-05-02T09:43:57.539Z</time></trkpt><trkpt lat="45.4192651" lon="11.5737255"><ele>24.0</ele><time>2026-05-02T09:43:58.539Z</time></trkpt><trkpt lat="45.4192497" lon="11.573956"><ele>24.5</ele><time>2026-05-02T09:43:59.538Z</time></trkpt><trkpt lat="45.4192409" lon="11.5741771"><ele>25.0</ele><time>2026-05-02T09:44:00.539Z</time></trkpt><trkpt lat="45.4192244" lon="11.5743889"><ele>25.5</ele><time>2026-05-02T09:44:01.539Z</time></trkpt><trkpt lat="45.419201" lon="11.5745919"><ele>26.0</ele><time>2026-05-02T09:44:02.539Z</time></trkpt><trkpt lat="45.4191598" lon="11.5747913"><ele>26.75</ele><time>2026-05-02T09:44:03.538Z</time></trkpt><trkpt lat="45.4191043" lon="11.5749816"><ele>27.5</ele><time>2026-05-02T09:44:04.539Z</time></trkpt><trkpt lat="45.4190383" lon="11.57516"><ele>28.25</ele><time>2026-05-02T09:44:05.539Z</time></trkpt><trkpt lat="45.4189611" lon="11.5753348"><ele>29.0</ele><time>2026-05-02T09:44:06.539Z</time></trkpt><trkpt lat="45.4188683" lon="11.5754897"><ele>27.5</ele><time>2026-05-02T09:44:07.539Z</time></trkpt><trkpt lat="45.4187663" lon="11.5756281"><ele>26.0</ele><time>2026-05-02T09:44:08.539Z</time></trkpt><trkpt lat="45.4186574" lon="11.5757557"><ele>24.5</ele><time>2026-05-02T09:44:09.539Z</time></trkpt><trkpt lat="45.4185491" lon="11.5758888"><ele>23.0</ele><time>2026-05-02T09:44:10.539Z</time></trkpt><trkpt lat="45.4184446" lon="11.5760329"><ele>24.0</ele><time>2026-05-02T09:44:11.538Z</time></trkpt><trkpt lat="45.4183465" lon="11.5761905"><ele>25.0</ele><time>2026-05-02T09:44:12.54Z</time></trkpt><trkpt lat="45.4182575" lon="11.576362"><ele>26.0</ele><time>2026-05-02T09:44:13.539Z</time></trkpt><trkpt lat="45.4181722" lon="11.5765355"><ele>27.0</ele><time>2026-05-02T09:44:14.54Z</time></trkpt><trkpt lat="45.4180925" lon="11.5767092"><ele>27.0</ele><time>2026-05-02T09:44:15.539Z</time></trkpt><trkpt lat="45.4180142" lon="11.5768786"><ele>27.0</ele><time>2026-05-02T09:44:16.538Z</time></trkpt><trkpt lat="45.4179404" lon="11.5770378"><ele>27.0</ele><time>2026-05-02T09:44:17.538Z</time></trkpt><trkpt lat="45.4178862" lon="11.5771562"><ele>27.0</ele><time>2026-05-02T09:44:18.538Z</time></trkpt><trkpt lat="45.4178344" lon="11.5772712"><ele>25.6</ele><time>2026-05-02T09:44:19.539Z</time></trkpt><trkpt lat="45.4177846" lon="11.5773856"><ele>24.200000000000003</ele><time>2026-05-02T09:44:20.539Z</time></trkpt><trkpt lat="45.4177364" lon="11.5775078"><ele>22.8</ele><time>2026-05-02T09:44:21.539Z</time></trkpt><trkpt lat="45.417683" lon="11.5776354"><ele>21.4</ele><time>2026-05-02T09:44:22.538Z</time></trkpt><trkpt lat="45.4176284" lon="11.5777714"><ele>20.0</ele><time>2026-05-02T09:44:23.539Z</time></trkpt><trkpt lat="45.4175771" lon="11.5779222"><ele>19.75</ele><time>2026-05-02T09:44:24.539Z</time></trkpt><trkpt lat="45.4175254" lon="11.5780795"><ele>19.5</ele><time>2026-05-02T09:44:25.538Z</time></trkpt><trkpt lat="45.417471" lon="11.5782432"><ele>19.25</ele><time>2026-05-02T09:44:26.54Z</time></trkpt><trkpt lat="45.417416" lon="11.5784158"><ele>19.0</ele><time>2026-05-02T09:44:27.54Z</time></trkpt><trkpt lat="45.4173618" lon="11.5785975"><ele>19.0</ele><time>2026-05-02T09:44:28.539Z</time></trkpt><trkpt lat="45.4173072" lon="11.5787881"><ele>19.0</ele><time>2026-05-02T09:44:29.539Z</time></trkpt><trkpt lat="45.417257" lon="11.5789893"><ele>19.0</ele><time>2026-05-02T09:44:30.54Z</time></trkpt><trkpt lat="45.4172232" lon="11.5792107"><ele>19.0</ele><time>2026-05-02T09:44:31.539Z</time></trkpt><trkpt lat="45.4171932" lon="11.5794492"><ele>19.0</ele><time>2026-05-02T09:44:32.54Z</time></trkpt><trkpt lat="45.4171315" lon="11.5796959"><ele>19.0</ele><time>2026-05-02T09:44:33.539Z</time></trkpt><trkpt lat="45.4170553" lon="11.5799684"><ele>18.5</ele><time>2026-05-02T09:44:34.539Z</time></trkpt><trkpt lat="45.4169777" lon="11.5802748"><ele>18.0</ele><time>2026-05-02T09:44:35.539Z</time></trkpt><trkpt lat="45.4168934" lon="11.5806016"><ele>18.0</ele><time>2026-05-02T09:44:36.539Z</time></trkpt><trkpt lat="45.4168148" lon="11.5809308"><ele>18.0</ele><time>2026-05-02T09:44:37.539Z</time></trkpt><trkpt lat="45.4167384" lon="11.5812456"><ele>18.333333333333332</ele><time>2026-05-02T09:44:38.539Z</time></trkpt><trkpt lat="45.4166641" lon="11.5815462"><ele>18.666666666666664</ele><time>2026-05-02T09:44:39.539Z</time></trkpt><trkpt lat="45.4165876" lon="11.5818284"><ele>19.0</ele><time>2026-05-02T09:44:40.539Z</time></trkpt><trkpt lat="45.4165098" lon="11.5820898"><ele>19.0</ele><time>2026-05-02T09:44:41.538Z</time></trkpt><trkpt lat="45.4164474" lon="11.5823054"><ele>19.0</ele><time>2026-05-02T09:44:42.539Z</time></trkpt><trkpt lat="45.4163994" lon="11.582493"><ele>19.0</ele><time>2026-05-02T09:44:43.538Z</time></trkpt><trkpt lat="45.4163724" lon="11.5826621"><ele>19.0</ele><time>2026-05-02T09:44:44.538Z</time></trkpt><trkpt lat="45.4163829" lon="11.5827997"><ele>18.599999999999998</ele><time>2026-05-02T09:44:45.539Z</time></trkpt><trkpt lat="45.416429" lon="11.5829117"><ele>18.2</ele><time>2026-05-02T09:44:46.539Z</time></trkpt><trkpt lat="45.4165077" lon="11.5829995"><ele>17.799999999999997</ele><time>2026-05-02T09:44:47.538Z</time></trkpt><trkpt lat="45.4166092" lon="11.5830571"><ele>17.4</ele><time>2026-05-02T09:44:48.538Z</time></trkpt><trkpt lat="45.4167216" lon="11.5831043"><ele>17.0</ele><time>2026-05-02T09:44:49.54Z</time></trkpt><trkpt lat="45.4168355" lon="11.5831393"><ele>17.0</ele><time>2026-05-02T09:44:50.54Z</time></trkpt><trkpt lat="45.4169312" lon="11.5831867"><ele>17.0</ele><time>2026-05-02T09:44:51.54Z</time></trkpt><trkpt lat="45.4170081" lon="11.5832632"><ele>17.0</ele><time>2026-05-02T09:44:52.54Z</time></trkpt><trkpt lat="45.4170535" lon="11.583373"><ele>17.0</ele><time>2026-05-02T09:44:53.539Z</time></trkpt><trkpt lat="45.4170657" lon="11.5835005"><ele>17.0</ele><time>2026-05-02T09:44:54.539Z</time></trkpt><trkpt lat="45.4170482" lon="11.5836434"><ele>16.75</ele><time>2026-05-02T09:44:55.539Z</time></trkpt><trkpt lat="45.4170198" lon="11.583804"><ele>16.5</ele><time>2026-05-02T09:44:56.539Z</time></trkpt><trkpt lat="45.4170057" lon="11.5839808"><ele>16.25</ele><time>2026-05-02T09:44:57.539Z</time></trkpt><trkpt lat="45.4170124" lon="11.5841608"><ele>16.0</ele><time>2026-05-02T09:44:58.539Z</time></trkpt><trkpt lat="45.4170406" lon="11.5843341"><ele>16.0</ele><time>2026-05-02T09:44:59.539Z</time></trkpt><trkpt lat="45.4170831" lon="11.5845048"><ele>16.0</ele><time>2026-05-02T09:45:00.54Z</time></trkpt><trkpt lat="45.4171278" lon="11.5846844"><ele>16.0</ele><time>2026-05-02T09:45:01.54Z</time></trkpt><trkpt lat="45.4171701" lon="11.5848736"><ele>16.0</ele><time>2026-05-02T09:45:02.539Z</time></trkpt><trkpt lat="45.4172038" lon="11.5850732"><ele>15.75</ele><time>2026-05-02T09:45:03.539Z</time></trkpt><trkpt lat="45.4172253" lon="11.5852842"><ele>15.5</ele><time>2026-05-02T09:45:04.539Z</time></trkpt><trkpt lat="45.4172359" lon="11.5854993"><ele>15.25</ele><time>2026-05-02T09:45:05.54Z</time></trkpt><trkpt lat="45.4172465" lon="11.585704"><ele>15.0</ele><time>2026-05-02T09:45:06.54Z</time></trkpt><trkpt lat="45.4172527" lon="11.5858937"><ele>15.4</ele><time>2026-05-02T09:45:07.539Z</time></trkpt><trkpt lat="45.4172423" lon="11.5860729"><ele>15.8</ele><time>2026-05-02T09:45:08.539Z</time></trkpt><trkpt lat="45.4172197" lon="11.5862385"><ele>16.2</ele><time>2026-05-02T09:45:09.54Z</time></trkpt><trkpt lat="45.4171947" lon="11.5863848"><ele>16.6</ele><time>2026-05-02T09:45:10.538Z</time></trkpt><trkpt lat="45.4171783" lon="11.5865009"><ele>17.0</ele><time>2026-05-02T09:45:11.539Z</time></trkpt><trkpt lat="45.4171768" lon="11.5865932"><ele>17.0</ele><time>2026-05-02T09:45:12.539Z</time></trkpt><trkpt lat="45.4172345" lon="11.586721"><ele>17.0</ele><time>2026-05-02T09:45:14.539Z</time></trkpt><trkpt lat="45.4173484" lon="11.5867793"><ele>17.0</ele><time>2026-05-02T09:45:16.538Z</time></trkpt><trkpt lat="45.4174214" lon="11.586811"><ele>17.0</ele><time>2026-05-02T09:45:17.539Z</time></trkpt><trkpt lat="45.4175026" lon="11.5868505"><ele>17.0</ele><time>2026-05-02T09:45:18.538Z</time></trkpt><trkpt lat="45.4175879" lon="11.586893"><ele>17.0</ele><time>2026-05-02T09:45:19.539Z</time></trkpt><trkpt lat="45.4176701" lon="11.5869381"><ele>17.0</ele><time>2026-05-02T09:45:20.539Z</time></trkpt><trkpt lat="45.4177457" lon="11.5869838"><ele>17.0</ele><time>2026-05-02T09:45:21.54Z</time></trkpt><trkpt lat="45.417822" lon="11.5870036"><ele>17.0</ele><time>2026-05-02T09:45:22.539Z</time></trkpt><trkpt lat="45.4178869" lon="11.5869764"><ele>17.0</ele><time>2026-05-02T09:45:23.539Z</time></trkpt><trkpt lat="45.4179433" lon="11.5869125"><ele>17.0</ele><time>2026-05-02T09:45:24.538Z</time></trkpt><trkpt lat="45.4179874" lon="11.5868113"><ele>17.0</ele><time>2026-05-02T09:45:25.54Z</time></trkpt><trkpt lat="45.4180247" lon="11.5866826"><ele>17.0</ele><time>2026-05-02T09:45:26.538Z</time></trkpt><trkpt lat="45.4180632" lon="11.5865319"><ele>17.0</ele><time>2026-05-02T09:45:27.539Z</time></trkpt><trkpt lat="45.4181082" lon="11.586359"><ele>17.0</ele><time>2026-05-02T09:45:28.538Z</time></trkpt><trkpt lat="45.4181589" lon="11.5861593"><ele>17.333333333333336</ele><time>2026-05-02T09:45:29.539Z</time></trkpt><trkpt lat="45.4182144" lon="11.5859519"><ele>17.666666666666668</ele><time>2026-05-02T09:45:30.54Z</time></trkpt><trkpt lat="45.4182704" lon="11.5857418"><ele>18.0</ele><time>2026-05-02T09:45:31.538Z</time></trkpt><trkpt lat="45.4183269" lon="11.5855424"><ele>18.0</ele><time>2026-05-02T09:45:32.54Z</time></trkpt><trkpt lat="45.4183798" lon="11.5853576"><ele>18.0</ele><time>2026-05-02T09:45:33.54Z</time></trkpt><trkpt lat="45.4184237" lon="11.5851999"><ele>18.0</ele><time>2026-05-02T09:45:34.539Z</time></trkpt><trkpt lat="45.4184602" lon="11.5850679"><ele>18.0</ele><time>2026-05-02T09:45:35.538Z</time></trkpt><trkpt lat="45.4184861" lon="11.5849663"><ele>18.0</ele><time>2026-05-02T09:45:36.539Z</time></trkpt><trkpt lat="45.418499" lon="11.5848752"><ele>17.833333333333332</ele><time>2026-05-02T09:45:37.538Z</time></trkpt><trkpt lat="45.4184887" lon="11.584713"><ele>17.666666666666668</ele><time>2026-05-02T09:45:39.539Z</time></trkpt><trkpt lat="45.4184333" lon="11.5846232"><ele>17.5</ele><time>2026-05-02T09:45:41.539Z</time></trkpt><trkpt lat="45.4183704" lon="11.5846336"><ele>17.333333333333336</ele><time>2026-05-02T09:45:43.539Z</time></trkpt><trkpt lat="45.4183499" lon="11.5847258"><ele>17.166666666666668</ele><time>2026-05-02T09:45:45.539Z</time></trkpt><trkpt lat="45.4183931" lon="11.5848484"><ele>17.0</ele><time>2026-05-02T09:45:47.538Z</time></trkpt><trkpt lat="45.4184371" lon="11.5850097"><ele>17.0</ele><time>2026-05-02T09:45:49.54Z</time></trkpt><trkpt lat="45.4184289" lon="11.5851207"><ele>17.0</ele><time>2026-05-02T09:45:50.539Z</time></trkpt><trkpt lat="45.4183992" lon="11.5852604"><ele>17.0</ele><time>2026-05-02T09:45:51.539Z</time></trkpt><trkpt lat="45.4183437" lon="11.58542"><ele>17.0</ele><time>2026-05-02T09:45:52.539Z</time></trkpt><trkpt lat="45.4182809" lon="11.5856008"><ele>17.0</ele><time>2026-05-02T09:45:53.539Z</time></trkpt><trkpt lat="45.4182256" lon="11.585807"><ele>17.0</ele><time>2026-05-02T09:45:54.538Z</time></trkpt><trkpt lat="45.4181721" lon="11.5860176"><ele>17.0</ele><time>2026-05-02T09:45:55.539Z</time></trkpt><trkpt lat="45.4181202" lon="11.5862137"><ele>17.0</ele><time>2026-05-02T09:45:56.539Z</time></trkpt><trkpt lat="45.4180698" lon="11.5864008"><ele>17.0</ele><time>2026-05-02T09:45:57.54Z</time></trkpt><trkpt lat="45.4180244" lon="11.5865697"><ele>17.0</ele><time>2026-05-02T09:45:58.54Z</time></trkpt><trkpt lat="45.4179913" lon="11.5867094"><ele>17.0</ele><time>2026-05-02T09:45:59.539Z</time></trkpt><trkpt lat="45.4179577" lon="11.5868156"><ele>17.0</ele><time>2026-05-02T09:46:00.539Z</time></trkpt><trkpt lat="45.417905" lon="11.5868895"><ele>17.0</ele><time>2026-05-02T09:46:01.539Z</time></trkpt><trkpt lat="45.4178324" lon="11.5869257"><ele>17.0</ele><time>2026-05-02T09:46:02.539Z</time></trkpt><trkpt lat="45.4177494" lon="11.5869203"><ele>17.0</ele><time>2026-05-02T09:46:03.539Z</time></trkpt><trkpt lat="45.4176588" lon="11.5868737"><ele>17.0</ele><time>2026-05-02T09:46:04.539Z</time></trkpt><trkpt lat="45.4175623" lon="11.5868149"><ele>17.0</ele><time>2026-05-02T09:46:05.538Z</time></trkpt><trkpt lat="45.4174696" lon="11.5867654"><ele>17.0</ele><time>2026-05-02T09:46:06.538Z</time></trkpt><trkpt lat="45.4173878" lon="11.5867254"><ele>17.0</ele><time>2026-05-02T09:46:07.539Z</time></trkpt><trkpt lat="45.4173178" lon="11.5866926"><ele>17.0</ele><time>2026-05-02T09:46:08.539Z</time></trkpt><trkpt lat="45.4172358" lon="11.5866488"><ele>17.0</ele><time>2026-05-02T09:46:10.539Z</time></trkpt><trkpt lat="45.4172016" lon="11.5865516"><ele>17.0</ele><time>2026-05-02T09:46:12.539Z</time></trkpt><trkpt lat="45.4172077" lon="11.5864581"><ele>17.0</ele><time>2026-05-02T09:46:13.538Z</time></trkpt><trkpt lat="45.417233" lon="11.5863267"><ele>17.0</ele><time>2026-05-02T09:46:14.539Z</time></trkpt><trkpt lat="45.4172564" lon="11.586168"><ele>17.0</ele><time>2026-05-02T09:46:15.539Z</time></trkpt><trkpt lat="45.4172704" lon="11.5859719"><ele>17.25</ele><time>2026-05-02T09:46:16.54Z</time></trkpt><trkpt lat="45.417271" lon="11.5857592"><ele>17.5</ele><time>2026-05-02T09:46:17.539Z</time></trkpt><trkpt lat="45.4172605" lon="11.5855466"><ele>17.75</ele><time>2026-05-02T09:46:18.539Z</time></trkpt><trkpt lat="45.4172474" lon="11.5853451"><ele>18.0</ele><time>2026-05-02T09:46:19.539Z</time></trkpt><trkpt lat="45.417232" lon="11.5851612"><ele>17.5</ele><time>2026-05-02T09:46:20.539Z</time></trkpt><trkpt lat="45.4172098" lon="11.584988"><ele>17.0</ele><time>2026-05-02T09:46:21.54Z</time></trkpt><trkpt lat="45.4171744" lon="11.5848208"><ele>16.5</ele><time>2026-05-02T09:46:22.539Z</time></trkpt><trkpt lat="45.4171258" lon="11.5846562"><ele>16.0</ele><time>2026-05-02T09:46:23.539Z</time></trkpt><trkpt lat="45.4170738" lon="11.5844886"><ele>16.0</ele><time>2026-05-02T09:46:24.539Z</time></trkpt><trkpt lat="45.4170324" lon="11.584306"><ele>16.0</ele><time>2026-05-02T09:46:25.539Z</time></trkpt><trkpt lat="45.4170128" lon="11.584109"><ele>16.0</ele><time>2026-05-02T09:46:26.538Z</time></trkpt><trkpt lat="45.417018" lon="11.5839049"><ele>16.0</ele><time>2026-05-02T09:46:27.54Z</time></trkpt><trkpt lat="45.4170464" lon="11.5837089"><ele>16.2</ele><time>2026-05-02T09:46:28.539Z</time></trkpt><trkpt lat="45.4170657" lon="11.5835411"><ele>16.400000000000002</ele><time>2026-05-02T09:46:29.539Z</time></trkpt><trkpt lat="45.417054" lon="11.5833946"><ele>16.6</ele><time>2026-05-02T09:46:30.54Z</time></trkpt><trkpt lat="45.4170059" lon="11.5832688"><ele>16.8</ele><time>2026-05-02T09:46:31.54Z</time></trkpt><trkpt lat="45.4169169" lon="11.5831826"><ele>17.0</ele><time>2026-05-02T09:46:32.539Z</time></trkpt><trkpt lat="45.4168024" lon="11.5831388"><ele>17.0</ele><time>2026-05-02T09:46:33.539Z</time></trkpt><trkpt lat="45.4166773" lon="11.5831011"><ele>17.0</ele><time>2026-05-02T09:46:34.539Z</time></trkpt><trkpt lat="45.4165556" lon="11.583041"><ele>17.0</ele><time>2026-05-02T09:46:35.538Z</time></trkpt><trkpt lat="45.4164568" lon="11.5829594"><ele>17.0</ele><time>2026-05-02T09:46:36.539Z</time></trkpt><trkpt lat="45.4163895" lon="11.5828398"><ele>17.5</ele><time>2026-05-02T09:46:37.539Z</time></trkpt><trkpt lat="45.4163626" lon="11.5826947"><ele>18.0</ele><time>2026-05-02T09:46:38.539Z</time></trkpt><trkpt lat="45.4163779" lon="11.5825471"><ele>18.5</ele><time>2026-05-02T09:46:39.54Z</time></trkpt><trkpt lat="45.416425" lon="11.5823934"><ele>19.0</ele><time>2026-05-02T09:46:40.539Z</time></trkpt><trkpt lat="45.416483" lon="11.5822113"><ele>19.333333333333332</ele><time>2026-05-02T09:46:41.54Z</time></trkpt><trkpt lat="45.4165412" lon="11.5820015"><ele>19.666666666666668</ele><time>2026-05-02T09:46:42.538Z</time></trkpt><trkpt lat="45.4166037" lon="11.5817697"><ele>20.0</ele><time>2026-05-02T09:46:43.539Z</time></trkpt><trkpt lat="45.4166716" lon="11.5815081"><ele>20.0</ele><time>2026-05-02T09:46:44.539Z</time></trkpt><trkpt lat="45.4167385" lon="11.5812236"><ele>20.0</ele><time>2026-05-02T09:46:45.539Z</time></trkpt><trkpt lat="45.4168072" lon="11.5809298"><ele>20.0</ele><time>2026-05-02T09:46:46.539Z</time></trkpt><trkpt lat="45.4168835" lon="11.580629"><ele>19.333333333333336</ele><time>2026-05-02T09:46:47.539Z</time></trkpt><trkpt lat="45.4169606" lon="11.5803363"><ele>18.666666666666668</ele><time>2026-05-02T09:46:48.538Z</time></trkpt><trkpt lat="45.4170372" lon="11.5800594"><ele>18.0</ele><time>2026-05-02T09:46:49.539Z</time></trkpt><trkpt lat="45.4171113" lon="11.5797908"><ele>18.333333333333332</ele><time>2026-05-02T09:46:50.54Z</time></trkpt><trkpt lat="45.4171717" lon="11.5795277"><ele>18.666666666666664</ele><time>2026-05-02T09:46:51.539Z</time></trkpt><trkpt lat="45.4172123" lon="11.5792638"><ele>19.0</ele><time>2026-05-02T09:46:52.539Z</time></trkpt><trkpt lat="45.4172552" lon="11.5790033"><ele>19.0</ele><time>2026-05-02T09:46:53.539Z</time></trkpt><trkpt lat="45.4173258" lon="11.5787543"><ele>19.0</ele><time>2026-05-02T09:46:54.539Z</time></trkpt><trkpt lat="45.4174024" lon="11.5785092"><ele>19.0</ele><time>2026-05-02T09:46:55.538Z</time></trkpt><trkpt lat="45.4174759" lon="11.5782746"><ele>19.0</ele><time>2026-05-02T09:46:56.539Z</time></trkpt><trkpt lat="45.4175441" lon="11.578064"><ele>19.0</ele><time>2026-05-02T09:46:57.539Z</time></trkpt><trkpt lat="45.4175975" lon="11.5779"><ele>19.0</ele><time>2026-05-02T09:46:58.539Z</time></trkpt><trkpt lat="45.4176442" lon="11.5777684"><ele>19.0</ele><time>2026-05-02T09:46:59.539Z</time></trkpt><trkpt lat="45.4176842" lon="11.5776608"><ele>19.2</ele><time>2026-05-02T09:47:00.54Z</time></trkpt><trkpt lat="45.4177217" lon="11.5775751"><ele>19.4</ele><time>2026-05-02T09:47:01.539Z</time></trkpt><trkpt lat="45.4178198" lon="11.5775256"><ele>19.6</ele><time>2026-05-02T09:47:03.54Z</time></trkpt><trkpt lat="45.4179554" lon="11.5775909"><ele>19.8</ele><time>2026-05-02T09:47:05.539Z</time></trkpt><trkpt lat="45.4180462" lon="11.5776296"><ele>20.0</ele><time>2026-05-02T09:47:06.539Z</time></trkpt><trkpt lat="45.4181521" lon="11.577644"><ele>20.75</ele><time>2026-05-02T09:47:07.539Z</time></trkpt><trkpt lat="45.4182664" lon="11.5776337"><ele>21.5</ele><time>2026-05-02T09:47:08.539Z</time></trkpt><trkpt lat="45.4183836" lon="11.5776117"><ele>22.25</ele><time>2026-05-02T09:47:09.538Z</time></trkpt><trkpt lat="45.4185001" lon="11.5775733"><ele>23.0</ele><time>2026-05-02T09:47:10.539Z</time></trkpt><trkpt lat="45.4186073" lon="11.5775239"><ele>23.0</ele><time>2026-05-02T09:47:11.539Z</time></trkpt><trkpt lat="45.4187119" lon="11.5774545"><ele>23.0</ele><time>2026-05-02T09:47:12.539Z</time></trkpt><trkpt lat="45.4188153" lon="11.577372"><ele>23.0</ele><time>2026-05-02T09:47:13.54Z</time></trkpt><trkpt lat="45.4189237" lon="11.5772831"><ele>23.0</ele><time>2026-05-02T09:47:14.54Z</time></trkpt><trkpt lat="45.419035" lon="11.5771878"><ele>23.5</ele><time>2026-05-02T09:47:15.539Z</time></trkpt><trkpt lat="45.4191396" lon="11.5770918"><ele>24.0</ele><time>2026-05-02T09:47:16.538Z</time></trkpt><trkpt lat="45.4192602" lon="11.5769961"><ele>24.5</ele><time>2026-05-02T09:47:17.538Z</time></trkpt><trkpt lat="45.4193825" lon="11.576913"><ele>25.0</ele><time>2026-05-02T09:47:18.539Z</time></trkpt><trkpt lat="45.4195127" lon="11.5768377"><ele>25.75</ele><time>2026-05-02T09:47:19.539Z</time></trkpt><trkpt lat="45.4196439" lon="11.5767747"><ele>26.5</ele><time>2026-05-02T09:47:20.54Z</time></trkpt><trkpt lat="45.4197842" lon="11.5767202"><ele>27.25</ele><time>2026-05-02T09:47:21.539Z</time></trkpt><trkpt lat="45.419923" lon="11.5766751"><ele>28.0</ele><time>2026-05-02T09:47:22.539Z</time></trkpt><trkpt lat="45.4200565" lon="11.5766473"><ele>28.0</ele><time>2026-05-02T09:47:23.539Z</time></trkpt><trkpt lat="45.4201897" lon="11.5765915"><ele>28.0</ele><time>2026-05-02T09:47:24.539Z</time></trkpt><trkpt lat="45.4203251" lon="11.576525"><ele>28.0</ele><time>2026-05-02T09:47:25.538Z</time></trkpt><trkpt lat="45.4204525" lon="11.5764437"><ele>28.0</ele><time>2026-05-02T09:47:26.539Z</time></trkpt><trkpt lat="45.4205763" lon="11.5763648"><ele>28.75</ele><time>2026-05-02T09:47:27.539Z</time></trkpt><trkpt lat="45.4206874" lon="11.5762541"><ele>29.5</ele><time>2026-05-02T09:47:28.539Z</time></trkpt><trkpt lat="45.4207909" lon="11.5761349"><ele>30.25</ele><time>2026-05-02T09:47:29.54Z</time></trkpt><trkpt lat="45.4208918" lon="11.5760028"><ele>31.0</ele><time>2026-05-02T09:47:30.54Z</time></trkpt><trkpt lat="45.4209953" lon="11.5758608"><ele>31.0</ele><time>2026-05-02T09:47:31.538Z</time></trkpt><trkpt lat="45.4210951" lon="11.5757185"><ele>31.0</ele><time>2026-05-02T09:47:32.539Z</time></trkpt><trkpt lat="45.4211926" lon="11.5755798"><ele>31.0</ele><time>2026-05-02T09:47:33.539Z</time></trkpt><trkpt lat="45.4212898" lon="11.5754606"><ele>31.0</ele><time>2026-05-02T09:47:34.539Z</time></trkpt><trkpt lat="45.4213863" lon="11.5753632"><ele>32.2</ele><time>2026-05-02T09:47:35.54Z</time></trkpt><trkpt lat="45.4214855" lon="11.5753068"><ele>33.400000000000006</ele><time>2026-05-02T09:47:36.539Z</time></trkpt><trkpt lat="45.4215866" lon="11.5752751"><ele>34.6</ele><time>2026-05-02T09:47:37.539Z</time></trkpt><trkpt lat="45.4216857" lon="11.5752723"><ele>35.800000000000004</ele><time>2026-05-02T09:47:38.539Z</time></trkpt><trkpt lat="45.421791" lon="11.575294"><ele>37.0</ele><time>2026-05-02T09:47:39.539Z</time></trkpt><trkpt lat="45.4219039" lon="11.5753338"><ele>34.0</ele><time>2026-05-02T09:47:40.54Z</time></trkpt><trkpt lat="45.4220285" lon="11.57537"><ele>31.0</ele><time>2026-05-02T09:47:41.539Z</time></trkpt><trkpt lat="45.4221591" lon="11.5754094"><ele>28.0</ele><time>2026-05-02T09:47:42.538Z</time></trkpt><trkpt lat="45.4222928" lon="11.5754435"><ele>25.0</ele><time>2026-05-02T09:47:43.539Z</time></trkpt><trkpt lat="45.4224254" lon="11.5754839"><ele>24.75</ele><time>2026-05-02T09:47:44.539Z</time></trkpt><trkpt lat="45.4225608" lon="11.5755325"><ele>24.5</ele><time>2026-05-02T09:47:45.54Z</time></trkpt><trkpt lat="45.4226969" lon="11.5755847"><ele>24.25</ele><time>2026-05-02T09:47:46.538Z</time></trkpt><trkpt lat="45.4228253" lon="11.5756406"><ele>24.0</ele><time>2026-05-02T09:47:47.54Z</time></trkpt><trkpt lat="45.4229527" lon="11.5756938"><ele>23.5</ele><time>2026-05-02T09:47:48.539Z</time></trkpt><trkpt lat="45.4230741" lon="11.5757384"><ele>23.0</ele><time>2026-05-02T09:47:49.539Z</time></trkpt><trkpt lat="45.4231938" lon="11.5757638"><ele>22.5</ele><time>2026-05-02T09:47:50.539Z</time></trkpt><trkpt lat="45.4233102" lon="11.5757777"><ele>22.0</ele><time>2026-05-02T09:47:51.539Z</time></trkpt><trkpt lat="45.4234253" lon="11.5757857"><ele>22.0</ele><time>2026-05-02T09:47:52.539Z</time></trkpt><trkpt lat="45.4235437" lon="11.5757908"><ele>22.0</ele><time>2026-05-02T09:47:53.539Z</time></trkpt><trkpt lat="45.4236646" lon="11.5757975"><ele>22.0</ele><time>2026-05-02T09:47:54.539Z</time></trkpt><trkpt lat="45.4237816" lon="11.5757978"><ele>22.0</ele><time>2026-05-02T09:47:55.539Z</time></trkpt><trkpt lat="45.4238889" lon="11.5757992"><ele>22.200000000000003</ele><time>2026-05-02T09:47:56.539Z</time></trkpt><trkpt lat="45.4239906" lon="11.5757951"><ele>22.4</ele><time>2026-05-02T09:47:57.539Z</time></trkpt><trkpt lat="45.4240826" lon="11.5757845"><ele>22.6</ele><time>2026-05-02T09:47:58.539Z</time></trkpt><trkpt lat="45.4241759" lon="11.5757457"><ele>22.799999999999997</ele><time>2026-05-02T09:47:59.538Z</time></trkpt><trkpt lat="45.4242681" lon="11.575682"><ele>23.0</ele><time>2026-05-02T09:48:00.539Z</time></trkpt><trkpt lat="45.4243682" lon="11.5756109"><ele>23.0</ele><time>2026-05-02T09:48:01.539Z</time></trkpt><trkpt lat="45.4244789" lon="11.5755369"><ele>23.0</ele><time>2026-05-02T09:48:02.54Z</time></trkpt><trkpt lat="45.4246021" lon="11.5754874"><ele>23.0</ele><time>2026-05-02T09:48:03.54Z</time></trkpt><trkpt lat="45.4247282" lon="11.5754526"><ele>23.0</ele><time>2026-05-02T09:48:04.539Z</time></trkpt><trkpt lat="45.4248495" lon="11.5754239"><ele>22.666666666666668</ele><time>2026-05-02T09:48:05.538Z</time></trkpt><trkpt lat="45.4249426" lon="11.5754069"><ele>22.333333333333336</ele><time>2026-05-02T09:48:06.539Z</time></trkpt><trkpt lat="45.425006" lon="11.5753982"><ele>22.0</ele><time>2026-05-02T09:48:07.538Z</time></trkpt><trkpt lat="45.4250909" lon="11.5754075"><ele>21.666666666666668</ele><time>2026-05-02T09:48:09.539Z</time></trkpt><trkpt lat="45.4251658" lon="11.575443"><ele>21.333333333333332</ele><time>2026-05-02T09:48:11.539Z</time></trkpt><trkpt lat="45.4252661" lon="11.5755099"><ele>21.0</ele><time>2026-05-02T09:48:13.539Z</time></trkpt><trkpt lat="45.4253286" lon="11.5755746"><ele>21.0</ele><time>2026-05-02T09:48:14.54Z</time></trkpt><trkpt lat="45.4253914" lon="11.5756474"><ele>21.0</ele><time>2026-05-02T09:48:15.539Z</time></trkpt><trkpt lat="45.425454" lon="11.5757273"><ele>21.0</ele><time>2026-05-02T09:48:16.54Z</time></trkpt><trkpt lat="45.425518" lon="11.5757968"><ele>21.0</ele><time>2026-05-02T09:48:17.54Z</time></trkpt><trkpt lat="45.4255783" lon="11.5758537"><ele>21.0</ele><time>2026-05-02T09:48:18.539Z</time></trkpt><trkpt lat="45.4256306" lon="11.5759042"><ele>21.0</ele><time>2026-05-02T09:48:19.54Z</time></trkpt><trkpt lat="45.425729" lon="11.575937"><ele>21.6</ele><time>2026-05-02T09:48:21.539Z</time></trkpt><trkpt lat="45.4258092" lon="11.5758234"><ele>22.200000000000003</ele><time>2026-05-02T09:48:23.539Z</time></trkpt><trkpt lat="45.425851" lon="11.5757151"><ele>22.799999999999997</ele><time>2026-05-02T09:48:24.539Z</time></trkpt><trkpt lat="45.4259061" lon="11.5755794"><ele>23.4</ele><time>2026-05-02T09:48:25.539Z</time></trkpt><trkpt lat="45.425967" lon="11.5754208"><ele>24.0</ele><time>2026-05-02T09:48:26.539Z</time></trkpt><trkpt lat="45.4260285" lon="11.5752401"><ele>26.0</ele><time>2026-05-02T09:48:27.539Z</time></trkpt><trkpt lat="45.4260964" lon="11.5750532"><ele>28.0</ele><time>2026-05-02T09:48:28.54Z</time></trkpt><trkpt lat="45.4261693" lon="11.5748628"><ele>30.0</ele><time>2026-05-02T09:48:29.539Z</time></trkpt><trkpt lat="45.4262405" lon="11.5746705"><ele>28.333333333333336</ele><time>2026-05-02T09:48:30.539Z</time></trkpt><trkpt lat="45.4263032" lon="11.5744762"><ele>26.666666666666668</ele><time>2026-05-02T09:48:31.539Z</time></trkpt><trkpt lat="45.4263578" lon="11.5742635"><ele>25.0</ele><time>2026-05-02T09:48:32.54Z</time></trkpt><trkpt lat="45.4264044" lon="11.5740349"><ele>25.0</ele><time>2026-05-02T09:48:33.539Z</time></trkpt><trkpt lat="45.4264502" lon="11.5738002"><ele>25.0</ele><time>2026-05-02T09:48:34.539Z</time></trkpt><trkpt lat="45.4264983" lon="11.5735781"><ele>25.0</ele><time>2026-05-02T09:48:35.539Z</time></trkpt><trkpt lat="45.4265474" lon="11.5733727"><ele>24.5</ele><time>2026-05-02T09:48:36.539Z</time></trkpt><trkpt lat="45.4265979" lon="11.573178"><ele>24.0</ele><time>2026-05-02T09:48:37.538Z</time></trkpt><trkpt lat="45.4266492" lon="11.5729872"><ele>23.5</ele><time>2026-05-02T09:48:38.539Z</time></trkpt><trkpt lat="45.4267046" lon="11.5728147"><ele>23.0</ele><time>2026-05-02T09:48:39.539Z</time></trkpt><trkpt lat="45.4267662" lon="11.5726738"><ele>22.799999999999997</ele><time>2026-05-02T09:48:40.539Z</time></trkpt><trkpt lat="45.4268375" lon="11.5725652"><ele>22.6</ele><time>2026-05-02T09:48:41.539Z</time></trkpt><trkpt lat="45.4269233" lon="11.5724895"><ele>22.4</ele><time>2026-05-02T09:48:42.54Z</time></trkpt><trkpt lat="45.4270208" lon="11.5724412"><ele>22.200000000000003</ele><time>2026-05-02T09:48:43.54Z</time></trkpt><trkpt lat="45.4271333" lon="11.5724247"><ele>22.0</ele><time>2026-05-02T09:48:44.539Z</time></trkpt><trkpt lat="45.4272535" lon="11.5724292"><ele>22.0</ele><time>2026-05-02T09:48:45.539Z</time></trkpt><trkpt lat="45.4273721" lon="11.5724552"><ele>22.0</ele><time>2026-05-02T09:48:46.539Z</time></trkpt><trkpt lat="45.4274955" lon="11.5725035"><ele>22.0</ele><time>2026-05-02T09:48:47.539Z</time></trkpt><trkpt lat="45.427622" lon="11.572571"><ele>22.0</ele><time>2026-05-02T09:48:48.539Z</time></trkpt><trkpt lat="45.4277516" lon="11.5726462"><ele>22.0</ele><time>2026-05-02T09:48:49.539Z</time></trkpt><trkpt lat="45.4278877" lon="11.5727104"><ele>22.0</ele><time>2026-05-02T09:48:50.539Z</time></trkpt><trkpt lat="45.4280257" lon="11.5727586"><ele>22.0</ele><time>2026-05-02T09:48:51.539Z</time></trkpt><trkpt lat="45.4281669" lon="11.5728001"><ele>22.0</ele><time>2026-05-02T09:48:52.539Z</time></trkpt><trkpt lat="45.4283082" lon="11.5728386"><ele>21.25</ele><time>2026-05-02T09:48:53.54Z</time></trkpt><trkpt lat="45.428444" lon="11.5728974"><ele>20.5</ele><time>2026-05-02T09:48:54.54Z</time></trkpt><trkpt lat="45.4285775" lon="11.5729793"><ele>19.75</ele><time>2026-05-02T09:48:55.539Z</time></trkpt><trkpt lat="45.4287134" lon="11.5730637"><ele>19.0</ele><time>2026-05-02T09:48:56.538Z</time></trkpt><trkpt lat="45.4288507" lon="11.5731503"><ele>19.0</ele><time>2026-05-02T09:48:57.539Z</time></trkpt><trkpt lat="45.4289883" lon="11.5732219"><ele>19.0</ele><time>2026-05-02T09:48:58.539Z</time></trkpt><trkpt lat="45.4291348" lon="11.573263"><ele>19.0</ele><time>2026-05-02T09:48:59.54Z</time></trkpt><trkpt lat="45.4292844" lon="11.5732715"><ele>19.0</ele><time>2026-05-02T09:49:00.539Z</time></trkpt><trkpt lat="45.4294289" lon="11.5732563"><ele>19.0</ele><time>2026-05-02T09:49:01.539Z</time></trkpt><trkpt lat="45.4295647" lon="11.5732593"><ele>19.0</ele><time>2026-05-02T09:49:02.539Z</time></trkpt><trkpt lat="45.4296911" lon="11.5733126"><ele>19.0</ele><time>2026-05-02T09:49:03.539Z</time></trkpt><trkpt lat="45.4298165" lon="11.5734072"><ele>19.0</ele><time>2026-05-02T09:49:04.54Z</time></trkpt><trkpt lat="45.4299335" lon="11.5735272"><ele>19.75</ele><time>2026-05-02T09:49:05.538Z</time></trkpt><trkpt lat="45.4300484" lon="11.5736604"><ele>20.5</ele><time>2026-05-02T09:49:06.539Z</time></trkpt><trkpt lat="45.4301659" lon="11.5737907"><ele>21.25</ele><time>2026-05-02T09:49:07.54Z</time></trkpt><trkpt lat="45.4302782" lon="11.5739101"><ele>22.0</ele><time>2026-05-02T09:49:08.54Z</time></trkpt><trkpt lat="45.4303861" lon="11.5740226"><ele>22.0</ele><time>2026-05-02T09:49:09.54Z</time></trkpt><trkpt lat="45.4304957" lon="11.5741257"><ele>22.0</ele><time>2026-05-02T09:49:10.539Z</time></trkpt><trkpt lat="45.4306022" lon="11.5742508"><ele>22.0</ele><time>2026-05-02T09:49:11.538Z</time></trkpt><trkpt lat="45.4307021" lon="11.5743974"><ele>22.0</ele><time>2026-05-02T09:49:12.538Z</time></trkpt><trkpt lat="45.4308014" lon="11.574545"><ele>22.0</ele><time>2026-05-02T09:49:13.54Z</time></trkpt><trkpt lat="45.4308981" lon="11.5746882"><ele>22.0</ele><time>2026-05-02T09:49:14.539Z</time></trkpt><trkpt lat="45.4309925" lon="11.5748299"><ele>22.0</ele><time>2026-05-02T09:49:15.539Z</time></trkpt><trkpt lat="45.4310783" lon="11.5749682"><ele>22.0</ele><time>2026-05-02T09:49:16.539Z</time></trkpt><trkpt lat="45.4311669" lon="11.5750905"><ele>22.0</ele><time>2026-05-02T09:49:17.539Z</time></trkpt><trkpt lat="45.4312767" lon="11.5751919"><ele>22.0</ele><time>2026-05-02T09:49:18.54Z</time></trkpt><trkpt lat="45.4313986" lon="11.5752822"><ele>22.0</ele><time>2026-05-02T09:49:19.54Z</time></trkpt><trkpt lat="45.4315246" lon="11.5753773"><ele>22.0</ele><time>2026-05-02T09:49:20.539Z</time></trkpt><trkpt lat="45.431657" lon="11.5754734"><ele>22.25</ele><time>2026-05-02T09:49:21.539Z</time></trkpt><trkpt lat="45.4317883" lon="11.5755714"><ele>22.5</ele><time>2026-05-02T09:49:22.539Z</time></trkpt><trkpt lat="45.4319129" lon="11.5756616"><ele>22.75</ele><time>2026-05-02T09:49:23.54Z</time></trkpt><trkpt lat="45.432029" lon="11.5757495"><ele>23.0</ele><time>2026-05-02T09:49:24.539Z</time></trkpt><trkpt lat="45.4321432" lon="11.5758362"><ele>23.0</ele><time>2026-05-02T09:49:25.538Z</time></trkpt><trkpt lat="45.4322519" lon="11.5759237"><ele>23.0</ele><time>2026-05-02T09:49:26.539Z</time></trkpt><trkpt lat="45.4323539" lon="11.5760085"><ele>23.0</ele><time>2026-05-02T09:49:27.539Z</time></trkpt><trkpt lat="45.4324501" lon="11.5760953"><ele>23.0</ele><time>2026-05-02T09:49:28.54Z</time></trkpt><trkpt lat="45.4325423" lon="11.5761841"><ele>22.75</ele><time>2026-05-02T09:49:29.539Z</time></trkpt><trkpt lat="45.4326379" lon="11.5762812"><ele>22.5</ele><time>2026-05-02T09:49:30.539Z</time></trkpt><trkpt lat="45.432737" lon="11.5763829"><ele>22.25</ele><time>2026-05-02T09:49:31.539Z</time></trkpt><trkpt lat="45.4328398" lon="11.5764886"><ele>22.0</ele><time>2026-05-02T09:49:32.539Z</time></trkpt><trkpt lat="45.4329428" lon="11.5765988"><ele>22.25</ele><time>2026-05-02T09:49:33.54Z</time></trkpt><trkpt lat="45.4330479" lon="11.5766927"><ele>22.5</ele><time>2026-05-02T09:49:34.54Z</time></trkpt><trkpt lat="45.4331571" lon="11.5767744"><ele>22.75</ele><time>2026-05-02T09:49:35.539Z</time></trkpt><trkpt lat="45.4332683" lon="11.5768419"><ele>23.0</ele><time>2026-05-02T09:49:36.538Z</time></trkpt><trkpt lat="45.4333718" lon="11.5769055"><ele>23.0</ele><time>2026-05-02T09:49:37.539Z</time></trkpt><trkpt lat="45.4334688" lon="11.576969"><ele>23.0</ele><time>2026-05-02T09:49:38.539Z</time></trkpt><trkpt lat="45.4335475" lon="11.5770479"><ele>23.0</ele><time>2026-05-02T09:49:39.538Z</time></trkpt><trkpt lat="45.4335909" lon="11.5771596"><ele>23.0</ele><time>2026-05-02T09:49:40.539Z</time></trkpt><trkpt lat="45.433608" lon="11.5772846"><ele>23.0</ele><time>2026-05-02T09:49:41.538Z</time></trkpt><trkpt lat="45.4336015" lon="11.577415"><ele>23.0</ele><time>2026-05-02T09:49:42.54Z</time></trkpt><trkpt lat="45.4335979" lon="11.577555"><ele>23.0</ele><time>2026-05-02T09:49:43.54Z</time></trkpt><trkpt lat="45.4336075" lon="11.5776988"><ele>23.0</ele><time>2026-05-02T09:49:44.539Z</time></trkpt><trkpt lat="45.4336246" lon="11.5778301"><ele>23.0</ele><time>2026-05-02T09:49:45.538Z</time></trkpt><trkpt lat="45.4336512" lon="11.5779469"><ele>23.0</ele><time>2026-05-02T09:49:46.539Z</time></trkpt><trkpt lat="45.433702" lon="11.5780443"><ele>23.0</ele><time>2026-05-02T09:49:47.539Z</time></trkpt><trkpt lat="45.4337738" lon="11.5781255"><ele>23.0</ele><time>2026-05-02T09:49:48.539Z</time></trkpt><trkpt lat="45.4338574" lon="11.5782069"><ele>23.0</ele><time>2026-05-02T09:49:49.539Z</time></trkpt><trkpt lat="45.4339476" lon="11.5782944"><ele>23.0</ele><time>2026-05-02T09:49:50.54Z</time></trkpt><trkpt lat="45.4340406" lon="11.5783787"><ele>23.0</ele><time>2026-05-02T09:49:51.54Z</time></trkpt><trkpt lat="45.4341355" lon="11.5784591"><ele>23.599999999999998</ele><time>2026-05-02T09:49:52.54Z</time></trkpt><trkpt lat="45.4342271" lon="11.5785343"><ele>24.2</ele><time>2026-05-02T09:49:53.54Z</time></trkpt><trkpt lat="45.4343142" lon="11.5786064"><ele>24.8</ele><time>2026-05-02T09:49:54.539Z</time></trkpt><trkpt lat="45.4343968" lon="11.5786738"><ele>25.4</ele><time>2026-05-02T09:49:55.539Z</time></trkpt><trkpt lat="45.4344744" lon="11.5787349"><ele>26.0</ele><time>2026-05-02T09:49:56.538Z</time></trkpt><trkpt lat="45.4345398" lon="11.5787947"><ele>26.333333333333332</ele><time>2026-05-02T09:49:57.54Z</time></trkpt><trkpt lat="45.4345853" lon="11.5788586"><ele>26.666666666666664</ele><time>2026-05-02T09:49:58.539Z</time></trkpt><trkpt lat="45.4346032" lon="11.5789929"><ele>27.0</ele><time>2026-05-02T09:50:00.539Z</time></trkpt><trkpt lat="45.4345461" lon="11.5791476"><ele>27.333333333333336</ele><time>2026-05-02T09:50:02.539Z</time></trkpt><trkpt lat="45.4345237" lon="11.5792473"><ele>27.666666666666668</ele><time>2026-05-02T09:50:03.54Z</time></trkpt><trkpt lat="45.4345072" lon="11.5793566"><ele>28.0</ele><time>2026-05-02T09:50:04.539Z</time></trkpt><trkpt lat="45.4344937" lon="11.5794725"><ele>28.833333333333336</ele><time>2026-05-02T09:50:05.539Z</time></trkpt><trkpt lat="45.434485" lon="11.5795925"><ele>29.666666666666668</ele><time>2026-05-02T09:50:06.54Z</time></trkpt><trkpt lat="45.4344869" lon="11.5797128"><ele>30.5</ele><time>2026-05-02T09:50:07.539Z</time></trkpt><trkpt lat="45.4344922" lon="11.5798193"><ele>31.333333333333336</ele><time>2026-05-02T09:50:08.539Z</time></trkpt><trkpt lat="45.4345003" lon="11.5799705"><ele>32.166666666666664</ele><time>2026-05-02T09:50:10.539Z</time></trkpt><trkpt lat="45.4345308" lon="11.5800737"><ele>33.0</ele><time>2026-05-02T09:50:13.539Z</time></trkpt><trkpt lat="45.4345992" lon="11.5801081"><ele>35.599999999999994</ele><time>2026-05-02T09:50:15.539Z</time></trkpt><trkpt lat="45.4347149" lon="11.5800797"><ele>38.199999999999996</ele><time>2026-05-02T09:50:17.539Z</time></trkpt><trkpt lat="45.4347767" lon="11.580009"><ele>40.8</ele><time>2026-05-02T09:50:18.539Z</time></trkpt><trkpt lat="45.4348326" lon="11.5799164"><ele>43.4</ele><time>2026-05-02T09:50:19.539Z</time></trkpt><trkpt lat="45.4348885" lon="11.5797772"><ele>46.0</ele><time>2026-05-02T09:50:20.539Z</time></trkpt><trkpt lat="45.4349443" lon="11.579626"><ele>44.333333333333336</ele><time>2026-05-02T09:50:21.539Z</time></trkpt><trkpt lat="45.4350093" lon="11.5794423"><ele>42.666666666666664</ele><time>2026-05-02T09:50:22.539Z</time></trkpt><trkpt lat="45.4350768" lon="11.57925"><ele>41.0</ele><time>2026-05-02T09:50:23.538Z</time></trkpt><trkpt lat="45.4351463" lon="11.5790456"><ele>41.0</ele><time>2026-05-02T09:50:24.539Z</time></trkpt><trkpt lat="45.4352202" lon="11.5788417"><ele>41.0</ele><time>2026-05-02T09:50:25.539Z</time></trkpt><trkpt lat="45.4352842" lon="11.5786304"><ele>41.0</ele><time>2026-05-02T09:50:26.54Z</time></trkpt><trkpt lat="45.4353257" lon="11.5784162"><ele>40.0</ele><time>2026-05-02T09:50:27.54Z</time></trkpt><trkpt lat="45.4353543" lon="11.5782137"><ele>39.0</ele><time>2026-05-02T09:50:28.54Z</time></trkpt><trkpt lat="45.4353799" lon="11.5780341"><ele>38.0</ele><time>2026-05-02T09:50:29.539Z</time></trkpt><trkpt lat="45.4354147" lon="11.5778765"><ele>37.0</ele><time>2026-05-02T09:50:30.538Z</time></trkpt><trkpt lat="45.4354628" lon="11.577738"><ele>41.6</ele><time>2026-05-02T09:50:31.54Z</time></trkpt><trkpt lat="45.4355302" lon="11.5776061"><ele>46.2</ele><time>2026-05-02T09:50:32.538Z</time></trkpt><trkpt lat="45.435604" lon="11.5774805"><ele>50.8</ele><time>2026-05-02T09:50:33.539Z</time></trkpt><trkpt lat="45.4356747" lon="11.5773821"><ele>55.4</ele><time>2026-05-02T09:50:34.54Z</time></trkpt><trkpt lat="45.4357656" lon="11.5773465"><ele>60.0</ele><time>2026-05-02T09:50:35.54Z</time></trkpt><trkpt lat="45.4358677" lon="11.5773252"><ele>60.0</ele><time>2026-05-02T09:50:36.539Z</time></trkpt><trkpt lat="45.4359856" lon="11.5773364"><ele>60.0</ele><time>2026-05-02T09:50:37.54Z</time></trkpt><trkpt lat="45.4361173" lon="11.5773507"><ele>60.0</ele><time>2026-05-02T09:50:38.539Z</time></trkpt><trkpt lat="45.4362481" lon="11.5773483"><ele>60.0</ele><time>2026-05-02T09:50:39.539Z</time></trkpt><trkpt lat="45.4363969" lon="11.5773237"><ele>62.0</ele><time>2026-05-02T09:50:40.539Z</time></trkpt><trkpt lat="45.4365542" lon="11.5772772"><ele>64.0</ele><time>2026-05-02T09:50:41.538Z</time></trkpt><trkpt lat="45.4367154" lon="11.5772067"><ele>66.0</ele><time>2026-05-02T09:50:42.539Z</time></trkpt><trkpt lat="45.4368783" lon="11.5771171"><ele>66.0</ele><time>2026-05-02T09:50:43.539Z</time></trkpt><trkpt lat="45.437041" lon="11.5770278"><ele>66.0</ele><time>2026-05-02T09:50:44.539Z</time></trkpt><trkpt lat="45.4372061" lon="11.5769487"><ele>66.0</ele><time>2026-05-02T09:50:45.539Z</time></trkpt><trkpt lat="45.4373755" lon="11.5768837"><ele>68.0</ele><time>2026-05-02T09:50:46.54Z</time></trkpt><trkpt lat="45.4375426" lon="11.5768377"><ele>70.0</ele><time>2026-05-02T09:50:47.54Z</time></trkpt><trkpt lat="45.4377119" lon="11.57682"><ele>72.0</ele><time>2026-05-02T09:50:48.539Z</time></trkpt><trkpt lat="45.4378823" lon="11.5768344"><ele>76.0</ele><time>2026-05-02T09:50:49.54Z</time></trkpt><trkpt lat="45.4380531" lon="11.5768647"><ele>80.0</ele><time>2026-05-02T09:50:50.539Z</time></trkpt><trkpt lat="45.4382205" lon="11.5768886"><ele>84.0</ele><time>2026-05-02T09:50:51.539Z</time></trkpt><trkpt lat="45.4383909" lon="11.5768859"><ele>84.0</ele><time>2026-05-02T09:50:52.54Z</time></trkpt><trkpt lat="45.4385557" lon="11.5768549"><ele>84.0</ele><time>2026-05-02T09:50:53.54Z</time></trkpt><trkpt lat="45.4387002" lon="11.5768224"><ele>84.0</ele><time>2026-05-02T09:50:54.539Z</time></trkpt><trkpt lat="45.4388257" lon="11.5767741"><ele>84.0</ele><time>2026-05-02T09:50:55.54Z</time></trkpt><trkpt lat="45.4389347" lon="11.576688"><ele>85.25</ele><time>2026-05-02T09:50:56.538Z</time></trkpt><trkpt lat="45.4390307" lon="11.5765708"><ele>86.5</ele><time>2026-05-02T09:50:57.539Z</time></trkpt><trkpt lat="45.4391146" lon="11.5764309"><ele>87.75</ele><time>2026-05-02T09:50:58.54Z</time></trkpt><trkpt lat="45.4391846" lon="11.5762985"><ele>89.0</ele><time>2026-05-02T09:50:59.539Z</time></trkpt><trkpt lat="45.4392338" lon="11.5761786"><ele>91.0</ele><time>2026-05-02T09:51:00.54Z</time></trkpt><trkpt lat="45.4392723" lon="11.5760545"><ele>93.0</ele><time>2026-05-02T09:51:01.539Z</time></trkpt><trkpt lat="45.4392878" lon="11.5759092"><ele>95.0</ele><time>2026-05-02T09:51:02.538Z</time></trkpt><trkpt lat="45.4392739" lon="11.5757427"><ele>97.0</ele><time>2026-05-02T09:51:03.539Z</time></trkpt><trkpt lat="45.4392235" lon="11.5755559"><ele>97.0</ele><time>2026-05-02T09:51:04.538Z</time></trkpt><trkpt lat="45.4391567" lon="11.5753691"><ele>97.0</ele><time>2026-05-02T09:51:05.54Z</time></trkpt><trkpt lat="45.4390871" lon="11.5751665"><ele>97.0</ele><time>2026-05-02T09:51:06.538Z</time></trkpt><trkpt lat="45.4390277" lon="11.5749351"><ele>100.0</ele><time>2026-05-02T09:51:07.539Z</time></trkpt><trkpt lat="45.4389799" lon="11.5746909"><ele>103.0</ele><time>2026-05-02T09:51:08.539Z</time></trkpt><trkpt lat="45.4389249" lon="11.5744454"><ele>106.0</ele><time>2026-05-02T09:51:09.539Z</time></trkpt><trkpt lat="45.4388571" lon="11.5742368"><ele>105.5</ele><time>2026-05-02T09:51:10.539Z</time></trkpt><trkpt lat="45.4387847" lon="11.5740492"><ele>105.0</ele><time>2026-05-02T09:51:11.54Z</time></trkpt><trkpt lat="45.4387144" lon="11.5738695"><ele>104.5</ele><time>2026-05-02T09:51:12.539Z</time></trkpt><trkpt lat="45.4386604" lon="11.573703"><ele>104.0</ele><time>2026-05-02T09:51:13.539Z</time></trkpt><trkpt lat="45.4386163" lon="11.5735373"><ele>106.5</ele><time>2026-05-02T09:51:14.538Z</time></trkpt><trkpt lat="45.4385889" lon="11.5733641"><ele>109.0</ele><time>2026-05-02T09:51:15.539Z</time></trkpt><trkpt lat="45.4385872" lon="11.5731738"><ele>111.5</ele><time>2026-05-02T09:51:16.538Z</time></trkpt><trkpt lat="45.438592" lon="11.5729563"><ele>114.0</ele><time>2026-05-02T09:51:17.538Z</time></trkpt><trkpt lat="45.4385983" lon="11.5727212"><ele>114.0</ele><time>2026-05-02T09:51:18.538Z</time></trkpt><trkpt lat="45.438608" lon="11.5724753"><ele>114.0</ele><time>2026-05-02T09:51:19.538Z</time></trkpt><trkpt lat="45.4386224" lon="11.5722244"><ele>114.0</ele><time>2026-05-02T09:51:20.538Z</time></trkpt><trkpt lat="45.4386391" lon="11.5719813"><ele>115.0</ele><time>2026-05-02T09:51:21.538Z</time></trkpt><trkpt lat="45.4386443" lon="11.571753"><ele>116.0</ele><time>2026-05-02T09:51:22.537Z</time></trkpt><trkpt lat="45.4386262" lon="11.5715087"><ele>117.0</ele><time>2026-05-02T09:51:23.537Z</time></trkpt><trkpt lat="45.438586" lon="11.5712581"><ele>119.33333333333334</ele><time>2026-05-02T09:51:24.538Z</time></trkpt><trkpt lat="45.4385366" lon="11.5710056"><ele>121.66666666666667</ele><time>2026-05-02T09:51:25.537Z</time></trkpt><trkpt lat="45.438491" lon="11.5707528"><ele>124.0</ele><time>2026-05-02T09:51:26.538Z</time></trkpt><trkpt lat="45.4384546" lon="11.5704943"><ele>126.66666666666667</ele><time>2026-05-02T09:51:27.539Z</time></trkpt><trkpt lat="45.4384406" lon="11.5702223"><ele>129.33333333333334</ele><time>2026-05-02T09:51:28.538Z</time></trkpt><trkpt lat="45.4384494" lon="11.5699289"><ele>132.0</ele><time>2026-05-02T09:51:29.538Z</time></trkpt><trkpt lat="45.438454" lon="11.5696179"><ele>134.0</ele><time>2026-05-02T09:51:30.537Z</time></trkpt><trkpt lat="45.4384401" lon="11.5692943"><ele>136.0</ele><time>2026-05-02T09:51:31.539Z</time></trkpt><trkpt lat="45.4384249" lon="11.5689937"><ele>138.0</ele><time>2026-05-02T09:51:32.538Z</time></trkpt><trkpt lat="45.4384211" lon="11.5687067"><ele>141.33333333333334</ele><time>2026-05-02T09:51:33.538Z</time></trkpt><trkpt lat="45.4383915" lon="11.5684338"><ele>144.66666666666669</ele><time>2026-05-02T09:51:34.538Z</time></trkpt><trkpt lat="45.4383352" lon="11.5681508"><ele>148.0</ele><time>2026-05-02T09:51:35.539Z</time></trkpt><trkpt lat="45.4382735" lon="11.5678603"><ele>153.33333333333334</ele><time>2026-05-02T09:51:36.538Z</time></trkpt><trkpt lat="45.4382137" lon="11.5675658"><ele>158.66666666666666</ele><time>2026-05-02T09:51:37.538Z</time></trkpt><trkpt lat="45.4381531" lon="11.5672645"><ele>164.0</ele><time>2026-05-02T09:51:38.538Z</time></trkpt><trkpt lat="45.4380994" lon="11.5669633"><ele>165.0</ele><time>2026-05-02T09:51:39.538Z</time></trkpt><trkpt lat="45.4380489" lon="11.5666585"><ele>166.0</ele><time>2026-05-02T09:51:40.538Z</time></trkpt><trkpt lat="45.4379995" lon="11.566366"><ele>167.0</ele><time>2026-05-02T09:51:41.538Z</time></trkpt><trkpt lat="45.4379541" lon="11.566101"><ele>167.0</ele><time>2026-05-02T09:51:42.538Z</time></trkpt><trkpt lat="45.4379105" lon="11.5658598"><ele>167.0</ele><time>2026-05-02T09:51:43.538Z</time></trkpt><trkpt lat="45.437865" lon="11.565649"><ele>167.0</ele><time>2026-05-02T09:51:44.538Z</time></trkpt><trkpt lat="45.4378196" lon="11.5654737"><ele>170.6</ele><time>2026-05-02T09:51:45.538Z</time></trkpt><trkpt lat="45.4377667" lon="11.5653319"><ele>174.2</ele><time>2026-05-02T09:51:46.538Z</time></trkpt><trkpt lat="45.4376943" lon="11.5652252"><ele>177.8</ele><time>2026-05-02T09:51:47.538Z</time></trkpt><trkpt lat="45.4375933" lon="11.5651726"><ele>181.4</ele><time>2026-05-02T09:51:48.538Z</time></trkpt><trkpt lat="45.4374741" lon="11.5651658"><ele>185.0</ele><time>2026-05-02T09:51:49.539Z</time></trkpt><trkpt lat="45.4373407" lon="11.5651788"><ele>185.0</ele><time>2026-05-02T09:51:50.538Z</time></trkpt><trkpt lat="45.4371975" lon="11.5652007"><ele>185.0</ele><time>2026-05-02T09:51:51.538Z</time></trkpt><trkpt lat="45.4370548" lon="11.5652395"><ele>185.0</ele><time>2026-05-02T09:51:52.539Z</time></trkpt><trkpt lat="45.4369251" lon="11.5652979"><ele>185.0</ele><time>2026-05-02T09:51:53.538Z</time></trkpt><trkpt lat="45.43681" lon="11.5653914"><ele>185.66666666666666</ele><time>2026-05-02T09:51:54.537Z</time></trkpt><trkpt lat="45.4366984" lon="11.5655364"><ele>186.33333333333334</ele><time>2026-05-02T09:51:55.537Z</time></trkpt><trkpt lat="45.4365972" lon="11.5657205"><ele>187.0</ele><time>2026-05-02T09:51:56.539Z</time></trkpt><trkpt lat="45.436505" lon="11.5659243"><ele>187.0</ele><time>2026-05-02T09:51:57.538Z</time></trkpt><trkpt lat="45.4364179" lon="11.5661313"><ele>187.0</ele><time>2026-05-02T09:51:58.538Z</time></trkpt><trkpt lat="45.4363353" lon="11.5663443"><ele>187.0</ele><time>2026-05-02T09:51:59.538Z</time></trkpt><trkpt lat="45.4362532" lon="11.5665537"><ele>189.0</ele><time>2026-05-02T09:52:00.538Z</time></trkpt><trkpt lat="45.4361667" lon="11.566752"><ele>191.0</ele><time>2026-05-02T09:52:01.538Z</time></trkpt><trkpt lat="45.436073" lon="11.5669316"><ele>193.0</ele><time>2026-05-02T09:52:02.537Z</time></trkpt><trkpt lat="45.4359781" lon="11.5670865"><ele>193.0</ele><time>2026-05-02T09:52:03.538Z</time></trkpt><trkpt lat="45.4358823" lon="11.5672158"><ele>193.0</ele><time>2026-05-02T09:52:04.539Z</time></trkpt><trkpt lat="45.4357785" lon="11.5673198"><ele>193.0</ele><time>2026-05-02T09:52:05.538Z</time></trkpt><trkpt lat="45.4356817" lon="11.5673919"><ele>193.0</ele><time>2026-05-02T09:52:06.538Z</time></trkpt><trkpt lat="45.4356028" lon="11.5674366"><ele>192.99999999999997</ele><time>2026-05-02T09:52:07.538Z</time></trkpt><trkpt lat="45.4355301" lon="11.5674749"><ele>193.0</ele><time>2026-05-02T09:52:08.539Z</time></trkpt><trkpt lat="45.4354221" lon="11.567494"><ele>193.0</ele><time>2026-05-02T09:52:10.539Z</time></trkpt><trkpt lat="45.4353779" lon="11.5674185"><ele>193.0</ele><time>2026-05-02T09:52:12.537Z</time></trkpt><trkpt lat="45.4354149" lon="11.5673301"><ele>192.99999999999997</ele><time>2026-05-02T09:52:14.538Z</time></trkpt><trkpt lat="45.4355183" lon="11.5672683"><ele>193.0</ele><time>2026-05-02T09:52:16.538Z</time></trkpt><trkpt lat="45.4355791" lon="11.5672331"><ele>193.0</ele><time>2026-05-02T09:52:17.537Z</time></trkpt><trkpt lat="45.4356718" lon="11.5671396"><ele>193.0</ele><time>2026-05-02T09:52:19.538Z</time></trkpt><trkpt lat="45.4356708" lon="11.5670092"><ele>193.0</ele><time>2026-05-02T09:52:21.538Z</time></trkpt><trkpt lat="45.4355709" lon="11.5669628"><ele>193.0</ele><time>2026-05-02T09:52:23.539Z</time></trkpt><trkpt lat="45.4354471" lon="11.5669406"><ele>193.0</ele><time>2026-05-02T09:52:25.538Z</time></trkpt><trkpt lat="45.4353827" lon="11.5669043"><ele>195.66666666666666</ele><time>2026-05-02T09:52:26.537Z</time></trkpt><trkpt lat="45.435322" lon="11.5668498"><ele>198.33333333333331</ele><time>2026-05-02T09:52:27.538Z</time></trkpt><trkpt lat="45.435266" lon="11.5667792"><ele>201.0</ele><time>2026-05-02T09:52:28.538Z</time></trkpt><trkpt lat="45.4352153" lon="11.5666897"><ele>203.66666666666669</ele><time>2026-05-02T09:52:29.538Z</time></trkpt><trkpt lat="45.4351653" lon="11.5665885"><ele>206.33333333333334</ele><time>2026-05-02T09:52:30.538Z</time></trkpt><trkpt lat="45.4351125" lon="11.5664828"><ele>209.0</ele><time>2026-05-02T09:52:31.538Z</time></trkpt><trkpt lat="45.4350518" lon="11.5663855"><ele>209.0</ele><time>2026-05-02T09:52:32.539Z</time></trkpt><trkpt lat="45.4349771" lon="11.5663034"><ele>209.0</ele><time>2026-05-02T09:52:33.539Z</time></trkpt><trkpt lat="45.4348952" lon="11.5662298"><ele>209.0</ele><time>2026-05-02T09:52:34.538Z</time></trkpt><trkpt lat="45.4348092" lon="11.5661601"><ele>209.0</ele><time>2026-05-02T09:52:35.538Z</time></trkpt><trkpt lat="45.4347201" lon="11.566088"><ele>209.0</ele><time>2026-05-02T09:52:36.539Z</time></trkpt><trkpt lat="45.43463" lon="11.5660117"><ele>211.0</ele><time>2026-05-02T09:52:37.538Z</time></trkpt><trkpt lat="45.4345364" lon="11.5659242"><ele>213.0</ele><time>2026-05-02T09:52:38.537Z</time></trkpt><trkpt lat="45.4344402" lon="11.5658455"><ele>214.99999999999997</ele><time>2026-05-02T09:52:39.539Z</time></trkpt><trkpt lat="45.434346" lon="11.5657736"><ele>217.0</ele><time>2026-05-02T09:52:40.537Z</time></trkpt><trkpt lat="45.434257" lon="11.5657031"><ele>219.0</ele><time>2026-05-02T09:52:41.537Z</time></trkpt><trkpt lat="45.4341742" lon="11.5656273"><ele>219.0</ele><time>2026-05-02T09:52:42.538Z</time></trkpt><trkpt lat="45.4341081" lon="11.5655457"><ele>219.0</ele><time>2026-05-02T09:52:43.538Z</time></trkpt><trkpt lat="45.434065" lon="11.5654548"><ele>219.0</ele><time>2026-05-02T09:52:44.538Z</time></trkpt><trkpt lat="45.4340433" lon="11.565346"><ele>219.0</ele><time>2026-05-02T09:52:45.539Z</time></trkpt><trkpt lat="45.4340385" lon="11.5652267"><ele>219.0</ele><time>2026-05-02T09:52:46.538Z</time></trkpt><trkpt lat="45.4340456" lon="11.5650916"><ele>219.0</ele><time>2026-05-02T09:52:47.538Z</time></trkpt><trkpt lat="45.4340734" lon="11.5649406"><ele>223.0</ele><time>2026-05-02T09:52:48.538Z</time></trkpt><trkpt lat="45.434127" lon="11.564769"><ele>227.0</ele><time>2026-05-02T09:52:49.538Z</time></trkpt><trkpt lat="45.4341934" lon="11.5645827"><ele>231.0</ele><time>2026-05-02T09:52:50.537Z</time></trkpt><trkpt lat="45.4342773" lon="11.5643781"><ele>235.0</ele><time>2026-05-02T09:52:51.539Z</time></trkpt><trkpt lat="45.4343802" lon="11.5641669"><ele>235.33333333333331</ele><time>2026-05-02T09:52:52.539Z</time></trkpt><trkpt lat="45.4344964" lon="11.5639404"><ele>235.66666666666669</ele><time>2026-05-02T09:52:53.537Z</time></trkpt><trkpt lat="45.4346142" lon="11.5637006"><ele>236.0</ele><time>2026-05-02T09:52:54.538Z</time></trkpt><trkpt lat="45.4347264" lon="11.5634569"><ele>242.33333333333334</ele><time>2026-05-02T09:52:55.538Z</time></trkpt><trkpt lat="45.4348228" lon="11.5632227"><ele>248.66666666666669</ele><time>2026-05-02T09:52:56.539Z</time></trkpt><trkpt lat="45.4349003" lon="11.5629988"><ele>255.0</ele><time>2026-05-02T09:52:57.538Z</time></trkpt><trkpt lat="45.4349655" lon="11.5627806"><ele>255.0</ele><time>2026-05-02T09:52:58.538Z</time></trkpt><trkpt lat="45.4350307" lon="11.5625902"><ele>255.0</ele><time>2026-05-02T09:52:59.538Z</time></trkpt><trkpt lat="45.4351056" lon="11.5624119"><ele>255.0</ele><time>2026-05-02T09:53:00.538Z</time></trkpt><trkpt lat="45.4351958" lon="11.5622446"><ele>255.0</ele><time>2026-05-02T09:53:01.538Z</time></trkpt><trkpt lat="45.4352995" lon="11.5621008"><ele>252.25</ele><time>2026-05-02T09:53:02.538Z</time></trkpt><trkpt lat="45.4354057" lon="11.5619681"><ele>249.5</ele><time>2026-05-02T09:53:03.538Z</time></trkpt><trkpt lat="45.435502" lon="11.5618194"><ele>246.75</ele><time>2026-05-02T09:53:04.537Z</time></trkpt><trkpt lat="45.435584" lon="11.5616489"><ele>244.0</ele><time>2026-05-02T09:53:05.538Z</time></trkpt><trkpt lat="45.4356568" lon="11.5614677"><ele>251.25</ele><time>2026-05-02T09:53:06.539Z</time></trkpt><trkpt lat="45.435722" lon="11.5612818"><ele>258.5</ele><time>2026-05-02T09:53:07.538Z</time></trkpt><trkpt lat="45.4357803" lon="11.5610956"><ele>265.75</ele><time>2026-05-02T09:53:08.537Z</time></trkpt><trkpt lat="45.4358246" lon="11.5609028"><ele>273.0</ele><time>2026-05-02T09:53:09.537Z</time></trkpt><trkpt lat="45.4358647" lon="11.5606959"><ele>273.0</ele><time>2026-05-02T09:53:10.537Z</time></trkpt><trkpt lat="45.435905" lon="11.5604837"><ele>273.0</ele><time>2026-05-02T09:53:11.539Z</time></trkpt><trkpt lat="45.4359386" lon="11.5602633"><ele>273.0</ele><time>2026-05-02T09:53:12.538Z</time></trkpt><trkpt lat="45.435971" lon="11.5600393"><ele>271.3333333333333</ele><time>2026-05-02T09:53:13.538Z</time></trkpt><trkpt lat="45.4360048" lon="11.55982"><ele>269.66666666666663</ele><time>2026-05-02T09:53:14.538Z</time></trkpt><trkpt lat="45.4360451" lon="11.559608"><ele>268.0</ele><time>2026-05-02T09:53:15.538Z</time></trkpt><trkpt lat="45.4360918" lon="11.559399"><ele>266.25</ele><time>2026-05-02T09:53:16.538Z</time></trkpt><trkpt lat="45.4361434" lon="11.559192"><ele>264.5</ele><time>2026-05-02T09:53:17.538Z</time></trkpt><trkpt lat="45.4361982" lon="11.558992"><ele>262.75</ele><time>2026-05-02T09:53:18.538Z</time></trkpt><trkpt lat="45.4362514" lon="11.5588139"><ele>261.0</ele><time>2026-05-02T09:53:19.538Z</time></trkpt><trkpt lat="45.4363095" lon="11.5586395"><ele>269.75</ele><time>2026-05-02T09:53:20.538Z</time></trkpt><trkpt lat="45.4363841" lon="11.5584733"><ele>278.5</ele><time>2026-05-02T09:53:21.538Z</time></trkpt><trkpt lat="45.43648" lon="11.5583253"><ele>287.25</ele><time>2026-05-02T09:53:22.539Z</time></trkpt><trkpt lat="45.4365867" lon="11.5581869"><ele>296.0</ele><time>2026-05-02T09:53:23.538Z</time></trkpt><trkpt lat="45.4367008" lon="11.558052"><ele>296.0</ele><time>2026-05-02T09:53:24.537Z</time></trkpt><trkpt lat="45.4368247" lon="11.557927"><ele>296.0</ele><time>2026-05-02T09:53:25.539Z</time></trkpt><trkpt lat="45.4369528" lon="11.5578136"><ele>296.0</ele><time>2026-05-02T09:53:26.538Z</time></trkpt><trkpt lat="45.4370817" lon="11.5577075"><ele>298.75</ele><time>2026-05-02T09:53:27.538Z</time></trkpt><trkpt lat="45.4372046" lon="11.5576038"><ele>301.5</ele><time>2026-05-02T09:53:28.538Z</time></trkpt><trkpt lat="45.4373214" lon="11.5575126"><ele>304.25</ele><time>2026-05-02T09:53:29.537Z</time></trkpt><trkpt lat="45.4374288" lon="11.5574365"><ele>307.0</ele><time>2026-05-02T09:53:30.539Z</time></trkpt><trkpt lat="45.4375257" lon="11.5573684"><ele>307.0</ele><time>2026-05-02T09:53:31.539Z</time></trkpt><trkpt lat="45.4376261" lon="11.5573213"><ele>307.0</ele><time>2026-05-02T09:53:32.538Z</time></trkpt><trkpt lat="45.4377303" lon="11.5573035"><ele>307.0</ele><time>2026-05-02T09:53:33.538Z</time></trkpt><trkpt lat="45.4378367" lon="11.5573391"><ele>307.0</ele><time>2026-05-02T09:53:34.539Z</time></trkpt><trkpt lat="45.4379418" lon="11.5573864"><ele>307.0</ele><time>2026-05-02T09:53:35.538Z</time></trkpt><trkpt lat="45.438049" lon="11.5574285"><ele>307.0</ele><time>2026-05-02T09:53:36.538Z</time></trkpt><trkpt lat="45.4381529" lon="11.5574773"><ele>307.0</ele><time>2026-05-02T09:53:37.539Z</time></trkpt><trkpt lat="45.4382578" lon="11.5575198"><ele>307.0</ele><time>2026-05-02T09:53:38.539Z</time></trkpt><trkpt lat="45.4383579" lon="11.5575412"><ele>307.0</ele><time>2026-05-02T09:53:39.538Z</time></trkpt><trkpt lat="45.4384484" lon="11.5575369"><ele>307.0</ele><time>2026-05-02T09:53:40.538Z</time></trkpt><trkpt lat="45.438532" lon="11.5575154"><ele>307.0</ele><time>2026-05-02T09:53:41.538Z</time></trkpt><trkpt lat="45.4386113" lon="11.5574761"><ele>307.0</ele><time>2026-05-02T09:53:42.538Z</time></trkpt><trkpt lat="45.4386911" lon="11.5574275"><ele>307.0</ele><time>2026-05-02T09:53:43.538Z</time></trkpt><trkpt lat="45.4387789" lon="11.5573822"><ele>307.0</ele><time>2026-05-02T09:53:44.538Z</time></trkpt><trkpt lat="45.4388657" lon="11.5573246"><ele>307.0</ele><time>2026-05-02T09:53:45.537Z</time></trkpt><trkpt lat="45.438945" lon="11.5572342"><ele>306.6</ele><time>2026-05-02T09:53:46.539Z</time></trkpt><trkpt lat="45.4390207" lon="11.5571369"><ele>306.2</ele><time>2026-05-02T09:53:47.538Z</time></trkpt><trkpt lat="45.4390811" lon="11.5570498"><ele>305.8</ele><time>2026-05-02T09:53:48.538Z</time></trkpt><trkpt lat="45.4391364" lon="11.556967"><ele>305.4</ele><time>2026-05-02T09:53:49.538Z</time></trkpt><trkpt lat="45.439207" lon="11.556893"><ele>305.0</ele><time>2026-05-02T09:53:50.538Z</time></trkpt><trkpt lat="45.4392904" lon="11.5568211"><ele>306.2</ele><time>2026-05-02T09:53:51.538Z</time></trkpt><trkpt lat="45.4393808" lon="11.5567536"><ele>307.4</ele><time>2026-05-02T09:53:52.538Z</time></trkpt><trkpt lat="45.4394748" lon="11.5566876"><ele>308.6</ele><time>2026-05-02T09:53:53.538Z</time></trkpt><trkpt lat="45.4395729" lon="11.5566177"><ele>309.8</ele><time>2026-05-02T09:53:54.538Z</time></trkpt><trkpt lat="45.4396749" lon="11.5565583"><ele>311.0</ele><time>2026-05-02T09:53:55.537Z</time></trkpt><trkpt lat="45.4397807" lon="11.5565143"><ele>311.0</ele><time>2026-05-02T09:53:56.538Z</time></trkpt><trkpt lat="45.4398879" lon="11.5564784"><ele>311.0</ele><time>2026-05-02T09:53:57.539Z</time></trkpt><trkpt lat="45.4400009" lon="11.5564588"><ele>311.0</ele><time>2026-05-02T09:53:58.539Z</time></trkpt><trkpt lat="45.4401163" lon="11.5564462"><ele>311.0</ele><time>2026-05-02T09:53:59.538Z</time></trkpt><trkpt lat="45.4402352" lon="11.5564183"><ele>311.0</ele><time>2026-05-02T09:54:00.537Z</time></trkpt><trkpt lat="45.4403512" lon="11.5563671"><ele>311.0</ele><time>2026-05-02T09:54:01.537Z</time></trkpt><trkpt lat="45.4404606" lon="11.5562976"><ele>311.0</ele><time>2026-05-02T09:54:02.538Z</time></trkpt><trkpt lat="45.4405662" lon="11.5562248"><ele>311.0</ele><time>2026-05-02T09:54:03.539Z</time></trkpt><trkpt lat="45.4406611" lon="11.5561616"><ele>312.25</ele><time>2026-05-02T09:54:04.538Z</time></trkpt><trkpt lat="45.4407605" lon="11.5561078"><ele>313.5</ele><time>2026-05-02T09:54:05.538Z</time></trkpt><trkpt lat="45.4408548" lon="11.5560141"><ele>314.75</ele><time>2026-05-02T09:54:06.538Z</time></trkpt><trkpt lat="45.440915" lon="11.5558291"><ele>316.0</ele><time>2026-05-02T09:54:07.538Z</time></trkpt><trkpt lat="45.4409997" lon="11.5557278"><ele>316.0</ele><time>2026-05-02T09:54:08.538Z</time></trkpt><trkpt lat="45.4410844" lon="11.5556448"><ele>316.0</ele><time>2026-05-02T09:54:09.538Z</time></trkpt><trkpt lat="45.4411541" lon="11.5555425"><ele>316.0</ele><time>2026-05-02T09:54:10.538Z</time></trkpt><trkpt lat="45.4412177" lon="11.5554162"><ele>316.0</ele><time>2026-05-02T09:54:11.539Z</time></trkpt><trkpt lat="45.4412611" lon="11.5552719"><ele>316.0</ele><time>2026-05-02T09:54:12.538Z</time></trkpt><trkpt lat="45.4412904" lon="11.5551202"><ele>313.8</ele><time>2026-05-02T09:54:13.538Z</time></trkpt><trkpt lat="45.4413146" lon="11.55497"><ele>311.6</ele><time>2026-05-02T09:54:14.538Z</time></trkpt><trkpt lat="45.4413557" lon="11.5548332"><ele>309.4</ele><time>2026-05-02T09:54:15.539Z</time></trkpt><trkpt lat="45.4414116" lon="11.5547119"><ele>307.2</ele><time>2026-05-02T09:54:16.537Z</time></trkpt><trkpt lat="45.4414889" lon="11.5546145"><ele>305.0</ele><time>2026-05-02T09:54:17.539Z</time></trkpt><trkpt lat="45.4415847" lon="11.5545485"><ele>308.0</ele><time>2026-05-02T09:54:18.539Z</time></trkpt><trkpt lat="45.4416933" lon="11.5545049"><ele>311.0</ele><time>2026-05-02T09:54:19.538Z</time></trkpt><trkpt lat="45.4418105" lon="11.5544807"><ele>314.0</ele><time>2026-05-02T09:54:20.539Z</time></trkpt><trkpt lat="45.4419264" lon="11.5544709"><ele>317.0</ele><time>2026-05-02T09:54:21.538Z</time></trkpt><trkpt lat="45.4420349" lon="11.5544837"><ele>317.0</ele><time>2026-05-02T09:54:22.538Z</time></trkpt><trkpt lat="45.4421343" lon="11.5545385"><ele>317.0</ele><time>2026-05-02T09:54:23.539Z</time></trkpt><trkpt lat="45.442216" lon="11.5546304"><ele>317.0</ele><time>2026-05-02T09:54:24.537Z</time></trkpt><trkpt lat="45.4422861" lon="11.5547505"><ele>317.0</ele><time>2026-05-02T09:54:25.539Z</time></trkpt><trkpt lat="45.44234" lon="11.5548896"><ele>317.0</ele><time>2026-05-02T09:54:26.538Z</time></trkpt><trkpt lat="45.4423851" lon="11.5550421"><ele>317.0</ele><time>2026-05-02T09:54:27.538Z</time></trkpt><trkpt lat="45.442419" lon="11.5552028"><ele>317.0</ele><time>2026-05-02T09:54:28.538Z</time></trkpt><trkpt lat="45.4424321" lon="11.555369"><ele>317.0</ele><time>2026-05-02T09:54:29.538Z</time></trkpt><trkpt lat="45.4424383" lon="11.5555353"><ele>317.0</ele><time>2026-05-02T09:54:30.538Z</time></trkpt><trkpt lat="45.4424444" lon="11.5557102"><ele>317.0</ele><time>2026-05-02T09:54:31.538Z</time></trkpt><trkpt lat="45.4424492" lon="11.5558755"><ele>317.0</ele><time>2026-05-02T09:54:32.539Z</time></trkpt><trkpt lat="45.4424727" lon="11.5560242"><ele>317.0</ele><time>2026-05-02T09:54:33.538Z</time></trkpt><trkpt lat="45.4425187" lon="11.5561747"><ele>317.0</ele><time>2026-05-02T09:54:34.538Z</time></trkpt><trkpt lat="45.442587" lon="11.5563218"><ele>315.25</ele><time>2026-05-02T09:54:35.538Z</time></trkpt><trkpt lat="45.4426655" lon="11.5564662"><ele>313.5</ele><time>2026-05-02T09:54:36.538Z</time></trkpt><trkpt lat="45.442746" lon="11.5566096"><ele>311.75</ele><time>2026-05-02T09:54:37.538Z</time></trkpt><trkpt lat="45.442825" lon="11.5567432"><ele>310.0</ele><time>2026-05-02T09:54:38.538Z</time></trkpt><trkpt lat="45.4429167" lon="11.5568568"><ele>310.25</ele><time>2026-05-02T09:54:39.538Z</time></trkpt><trkpt lat="45.4430288" lon="11.5569377"><ele>310.5</ele><time>2026-05-02T09:54:40.539Z</time></trkpt><trkpt lat="45.4431536" lon="11.5570002"><ele>310.75</ele><time>2026-05-02T09:54:41.538Z</time></trkpt><trkpt lat="45.4432862" lon="11.5570535"><ele>311.0</ele><time>2026-05-02T09:54:42.538Z</time></trkpt><trkpt lat="45.4434211" lon="11.5571062"><ele>311.0</ele><time>2026-05-02T09:54:43.538Z</time></trkpt><trkpt lat="45.4435545" lon="11.5571548"><ele>311.0</ele><time>2026-05-02T09:54:44.537Z</time></trkpt><trkpt lat="45.4436705" lon="11.5571916"><ele>311.0</ele><time>2026-05-02T09:54:45.537Z</time></trkpt><trkpt lat="45.4437889" lon="11.5571994"><ele>311.0</ele><time>2026-05-02T09:54:46.538Z</time></trkpt><trkpt lat="45.4439051" lon="11.5571963"><ele>311.75</ele><time>2026-05-02T09:54:47.538Z</time></trkpt><trkpt lat="45.4440246" lon="11.5571796"><ele>312.5</ele><time>2026-05-02T09:54:48.538Z</time></trkpt><trkpt lat="45.4441391" lon="11.5571439"><ele>313.25</ele><time>2026-05-02T09:54:49.538Z</time></trkpt><trkpt lat="45.4442541" lon="11.5570832"><ele>314.0</ele><time>2026-05-02T09:54:50.538Z</time></trkpt><trkpt lat="45.4443695" lon="11.5569874"><ele>316.0</ele><time>2026-05-02T09:54:51.538Z</time></trkpt><trkpt lat="45.444485" lon="11.5569216"><ele>318.0</ele><time>2026-05-02T09:54:52.538Z</time></trkpt><trkpt lat="45.4446025" lon="11.5568615"><ele>320.0</ele><time>2026-05-02T09:54:53.539Z</time></trkpt><trkpt lat="45.4446945" lon="11.5568135"><ele>322.0</ele><time>2026-05-02T09:54:54.538Z</time></trkpt><trkpt lat="45.4447979" lon="11.5567922"><ele>322.0</ele><time>2026-05-02T09:54:55.539Z</time></trkpt><trkpt lat="45.444897" lon="11.5568197"><ele>322.0</ele><time>2026-05-02T09:54:56.538Z</time></trkpt><trkpt lat="45.4449893" lon="11.5568862"><ele>322.0</ele><time>2026-05-02T09:54:57.539Z</time></trkpt><trkpt lat="45.4450689" lon="11.5570019"><ele>322.0</ele><time>2026-05-02T09:54:58.538Z</time></trkpt><trkpt lat="45.445139" lon="11.5571455"><ele>322.0</ele><time>2026-05-02T09:54:59.537Z</time></trkpt><trkpt lat="45.4452194" lon="11.5572841"><ele>321.0</ele><time>2026-05-02T09:55:00.538Z</time></trkpt><trkpt lat="45.4453193" lon="11.5574012"><ele>320.0</ele><time>2026-05-02T09:55:01.537Z</time></trkpt><trkpt lat="45.4454262" lon="11.5575083"><ele>319.0</ele><time>2026-05-02T09:55:02.537Z</time></trkpt><trkpt lat="45.4455315" lon="11.5576004"><ele>318.0</ele><time>2026-05-02T09:55:03.538Z</time></trkpt><trkpt lat="45.4456301" lon="11.5576627"><ele>318.0</ele><time>2026-05-02T09:55:04.538Z</time></trkpt><trkpt lat="45.4457268" lon="11.5576922"><ele>318.0</ele><time>2026-05-02T09:55:05.537Z</time></trkpt><trkpt lat="45.4458198" lon="11.5576812"><ele>318.0</ele><time>2026-05-02T09:55:06.538Z</time></trkpt><trkpt lat="45.4459192" lon="11.5576329"><ele>318.0</ele><time>2026-05-02T09:55:07.538Z</time></trkpt><trkpt lat="45.4460205" lon="11.5575525"><ele>318.0</ele><time>2026-05-02T09:55:08.539Z</time></trkpt><trkpt lat="45.4461266" lon="11.5574483"><ele>318.0</ele><time>2026-05-02T09:55:09.537Z</time></trkpt><trkpt lat="45.446241" lon="11.5573592"><ele>318.0</ele><time>2026-05-02T09:55:10.539Z</time></trkpt><trkpt lat="45.4463516" lon="11.5573162"><ele>318.0</ele><time>2026-05-02T09:55:11.538Z</time></trkpt><trkpt lat="45.4464679" lon="11.5573138"><ele>318.0</ele><time>2026-05-02T09:55:12.538Z</time></trkpt><trkpt lat="45.4465927" lon="11.5573364"><ele>319.75</ele><time>2026-05-02T09:55:13.538Z</time></trkpt><trkpt lat="45.4467207" lon="11.5573803"><ele>321.5</ele><time>2026-05-02T09:55:14.538Z</time></trkpt><trkpt lat="45.4468519" lon="11.5574204"><ele>323.25</ele><time>2026-05-02T09:55:15.538Z</time></trkpt><trkpt lat="45.446985" lon="11.5574568"><ele>325.0</ele><time>2026-05-02T09:55:16.538Z</time></trkpt><trkpt lat="45.4471203" lon="11.557486"><ele>326.75</ele><time>2026-05-02T09:55:17.538Z</time></trkpt><trkpt lat="45.4472564" lon="11.5575121"><ele>328.5</ele><time>2026-05-02T09:55:18.538Z</time></trkpt><trkpt lat="45.4473919" lon="11.5575347"><ele>330.25</ele><time>2026-05-02T09:55:19.537Z</time></trkpt><trkpt lat="45.4475187" lon="11.5575478"><ele>332.0</ele><time>2026-05-02T09:55:20.538Z</time></trkpt><trkpt lat="45.4476349" lon="11.5575515"><ele>332.0</ele><time>2026-05-02T09:55:21.538Z</time></trkpt><trkpt lat="45.447754" lon="11.557572"><ele>332.0</ele><time>2026-05-02T09:55:22.538Z</time></trkpt><trkpt lat="45.4478787" lon="11.5576096"><ele>332.0</ele><time>2026-05-02T09:55:23.537Z</time></trkpt><trkpt lat="45.4480048" lon="11.5576452"><ele>332.0</ele><time>2026-05-02T09:55:24.539Z</time></trkpt><trkpt lat="45.4481344" lon="11.5576727"><ele>332.0</ele><time>2026-05-02T09:55:25.537Z</time></trkpt><trkpt lat="45.4482693" lon="11.5576835"><ele>332.0</ele><time>2026-05-02T09:55:26.538Z</time></trkpt><trkpt lat="45.4484149" lon="11.5576821"><ele>332.0</ele><time>2026-05-02T09:55:27.539Z</time></trkpt><trkpt lat="45.4485632" lon="11.5576683"><ele>332.0</ele><time>2026-05-02T09:55:28.538Z</time></trkpt><trkpt lat="45.4487088" lon="11.5576392"><ele>333.25</ele><time>2026-05-02T09:55:29.537Z</time></trkpt><trkpt lat="45.4488437" lon="11.5575769"><ele>334.5</ele><time>2026-05-02T09:55:30.538Z</time></trkpt><trkpt lat="45.4489693" lon="11.5574796"><ele>335.75</ele><time>2026-05-02T09:55:31.539Z</time></trkpt><trkpt lat="45.4490886" lon="11.557357"><ele>337.0</ele><time>2026-05-02T09:55:32.538Z</time></trkpt><trkpt lat="45.4492165" lon="11.5572278"><ele>337.0</ele><time>2026-05-02T09:55:33.538Z</time></trkpt><trkpt lat="45.4493598" lon="11.5571297"><ele>337.0</ele><time>2026-05-02T09:55:34.539Z</time></trkpt><trkpt lat="45.4495091" lon="11.5570364"><ele>337.0</ele><time>2026-05-02T09:55:35.538Z</time></trkpt><trkpt lat="45.4496527" lon="11.5569235"><ele>337.0</ele><time>2026-05-02T09:55:36.539Z</time></trkpt><trkpt lat="45.4497872" lon="11.5567961"><ele>337.0</ele><time>2026-05-02T09:55:37.538Z</time></trkpt><trkpt lat="45.4499049" lon="11.556664"><ele>337.0</ele><time>2026-05-02T09:55:38.539Z</time></trkpt><trkpt lat="45.4500066" lon="11.5565227"><ele>337.0</ele><time>2026-05-02T09:55:39.538Z</time></trkpt><trkpt lat="45.450099" lon="11.5563908"><ele>337.0</ele><time>2026-05-02T09:55:40.538Z</time></trkpt><trkpt lat="45.4501958" lon="11.5562744"><ele>337.0</ele><time>2026-05-02T09:55:41.538Z</time></trkpt><trkpt lat="45.4503036" lon="11.5561717"><ele>337.0</ele><time>2026-05-02T09:55:42.538Z</time></trkpt><trkpt lat="45.4504208" lon="11.5560828"><ele>334.75</ele><time>2026-05-02T09:55:43.538Z</time></trkpt><trkpt lat="45.4505519" lon="11.556016"><ele>332.5</ele><time>2026-05-02T09:55:44.538Z</time></trkpt><trkpt lat="45.4506927" lon="11.5559651"><ele>330.25</ele><time>2026-05-02T09:55:45.538Z</time></trkpt><trkpt lat="45.4508207" lon="11.5559247"><ele>328.0</ele><time>2026-05-02T09:55:46.538Z</time></trkpt><trkpt lat="45.4509341" lon="11.5558998"><ele>328.0</ele><time>2026-05-02T09:55:47.539Z</time></trkpt><trkpt lat="45.451038" lon="11.5558895"><ele>328.0</ele><time>2026-05-02T09:55:48.538Z</time></trkpt><trkpt lat="45.4511382" lon="11.5559083"><ele>328.0</ele><time>2026-05-02T09:55:49.538Z</time></trkpt><trkpt lat="45.4512313" lon="11.5559545"><ele>328.0</ele><time>2026-05-02T09:55:50.537Z</time></trkpt><trkpt lat="45.4513137" lon="11.5560809"><ele>328.0</ele><time>2026-05-02T09:55:51.539Z</time></trkpt><trkpt lat="45.4514061" lon="11.5561679"><ele>327.5</ele><time>2026-05-02T09:55:52.537Z</time></trkpt><trkpt lat="45.4515196" lon="11.556226"><ele>327.0</ele><time>2026-05-02T09:55:53.539Z</time></trkpt><trkpt lat="45.4516403" lon="11.5562426"><ele>326.5</ele><time>2026-05-02T09:55:54.539Z</time></trkpt><trkpt lat="45.4517622" lon="11.5562224"><ele>326.0</ele><time>2026-05-02T09:55:55.538Z</time></trkpt><trkpt lat="45.4518701" lon="11.5561845"><ele>326.0</ele><time>2026-05-02T09:55:56.537Z</time></trkpt><trkpt lat="45.4519698" lon="11.5561562"><ele>326.0</ele><time>2026-05-02T09:55:57.539Z</time></trkpt><trkpt lat="45.4520696" lon="11.5561633"><ele>326.0</ele><time>2026-05-02T09:55:58.538Z</time></trkpt><trkpt lat="45.4521712" lon="11.556211"><ele>326.0</ele><time>2026-05-02T09:55:59.538Z</time></trkpt><trkpt lat="45.4522772" lon="11.55628"><ele>326.0</ele><time>2026-05-02T09:56:00.538Z</time></trkpt><trkpt lat="45.4523892" lon="11.5563416"><ele>327.0</ele><time>2026-05-02T09:56:01.539Z</time></trkpt><trkpt lat="45.4525023" lon="11.5563747"><ele>328.0</ele><time>2026-05-02T09:56:02.538Z</time></trkpt><trkpt lat="45.4526144" lon="11.5563629"><ele>329.0</ele><time>2026-05-02T09:56:03.538Z</time></trkpt><trkpt lat="45.4527241" lon="11.55631"><ele>330.0</ele><time>2026-05-02T09:56:04.538Z</time></trkpt><trkpt lat="45.452815" lon="11.5562007"><ele>330.0</ele><time>2026-05-02T09:56:05.538Z</time></trkpt><trkpt lat="45.4528865" lon="11.5560537"><ele>330.0</ele><time>2026-05-02T09:56:06.538Z</time></trkpt><trkpt lat="45.452948" lon="11.5558916"><ele>330.0</ele><time>2026-05-02T09:56:07.539Z</time></trkpt><trkpt lat="45.4530078" lon="11.5557364"><ele>330.0</ele><time>2026-05-02T09:56:08.539Z</time></trkpt><trkpt lat="45.4530721" lon="11.5556076"><ele>332.2</ele><time>2026-05-02T09:56:09.538Z</time></trkpt><trkpt lat="45.4531472" lon="11.5555091"><ele>334.4</ele><time>2026-05-02T09:56:10.538Z</time></trkpt><trkpt lat="45.453232" lon="11.5554453"><ele>336.6</ele><time>2026-05-02T09:56:11.538Z</time></trkpt><trkpt lat="45.4533337" lon="11.5554059"><ele>338.8</ele><time>2026-05-02T09:56:12.538Z</time></trkpt><trkpt lat="45.4534474" lon="11.5553934"><ele>341.0</ele><time>2026-05-02T09:56:13.538Z</time></trkpt><trkpt lat="45.4535476" lon="11.5554106"><ele>341.0</ele><time>2026-05-02T09:56:14.539Z</time></trkpt><trkpt lat="45.4536125" lon="11.5554538"><ele>341.0</ele><time>2026-05-02T09:56:15.537Z</time></trkpt><trkpt lat="45.4536523" lon="11.5555414"><ele>341.0</ele><time>2026-05-02T09:56:16.538Z</time></trkpt><trkpt lat="45.4536812" lon="11.5556543"><ele>341.0</ele><time>2026-05-02T09:56:17.538Z</time></trkpt><trkpt lat="45.4537056" lon="11.5557863"><ele>341.0</ele><time>2026-05-02T09:56:18.538Z</time></trkpt><trkpt lat="45.4537474" lon="11.5559249"><ele>341.0</ele><time>2026-05-02T09:56:19.539Z</time></trkpt><trkpt lat="45.4538188" lon="11.5560433"><ele>340.6</ele><time>2026-05-02T09:56:20.538Z</time></trkpt><trkpt lat="45.4539061" lon="11.5561326"><ele>340.20000000000005</ele><time>2026-05-02T09:56:21.537Z</time></trkpt><trkpt lat="45.4540024" lon="11.5561893"><ele>339.79999999999995</ele><time>2026-05-02T09:56:22.539Z</time></trkpt><trkpt lat="45.4541077" lon="11.5562118"><ele>339.4</ele><time>2026-05-02T09:56:23.538Z</time></trkpt><trkpt lat="45.4542226" lon="11.5561967"><ele>339.0</ele><time>2026-05-02T09:56:24.537Z</time></trkpt><trkpt lat="45.4543416" lon="11.5561741"><ele>337.5</ele><time>2026-05-02T09:56:25.538Z</time></trkpt><trkpt lat="45.4544551" lon="11.5561456"><ele>336.0</ele><time>2026-05-02T09:56:26.538Z</time></trkpt><trkpt lat="45.4545791" lon="11.5561675"><ele>334.5</ele><time>2026-05-02T09:56:27.538Z</time></trkpt><trkpt lat="45.4546961" lon="11.5562222"><ele>333.0</ele><time>2026-05-02T09:56:28.537Z</time></trkpt><trkpt lat="45.4548062" lon="11.5563065"><ele>331.5</ele><time>2026-05-02T09:56:29.537Z</time></trkpt><trkpt lat="45.4549064" lon="11.5564335"><ele>330.0</ele><time>2026-05-02T09:56:30.538Z</time></trkpt><trkpt lat="45.4549913" lon="11.5565785"><ele>328.5</ele><time>2026-05-02T09:56:31.537Z</time></trkpt><trkpt lat="45.4550889" lon="11.5567039"><ele>327.0</ele><time>2026-05-02T09:56:32.539Z</time></trkpt><trkpt lat="45.4551863" lon="11.5568018"><ele>327.0</ele><time>2026-05-02T09:56:33.539Z</time></trkpt><trkpt lat="45.4552731" lon="11.5569025"><ele>327.0</ele><time>2026-05-02T09:56:34.538Z</time></trkpt><trkpt lat="45.4553395" lon="11.5570143"><ele>327.0</ele><time>2026-05-02T09:56:35.538Z</time></trkpt><trkpt lat="45.45538" lon="11.5571404"><ele>327.0</ele><time>2026-05-02T09:56:36.539Z</time></trkpt><trkpt lat="45.4553906" lon="11.5572646"><ele>327.0</ele><time>2026-05-02T09:56:37.538Z</time></trkpt><trkpt lat="45.4553753" lon="11.5573987"><ele>327.6</ele><time>2026-05-02T09:56:38.538Z</time></trkpt><trkpt lat="45.4553494" lon="11.5575414"><ele>328.20000000000005</ele><time>2026-05-02T09:56:39.538Z</time></trkpt><trkpt lat="45.4553472" lon="11.5577008"><ele>328.8</ele><time>2026-05-02T09:56:40.538Z</time></trkpt><trkpt lat="45.4553806" lon="11.5578555"><ele>329.4</ele><time>2026-05-02T09:56:41.537Z</time></trkpt><trkpt lat="45.4554493" lon="11.5579896"><ele>330.0</ele><time>2026-05-02T09:56:42.538Z</time></trkpt><trkpt lat="45.4555455" lon="11.55809"><ele>330.25</ele><time>2026-05-02T09:56:43.538Z</time></trkpt><trkpt lat="45.4556604" lon="11.5581669"><ele>330.5</ele><time>2026-05-02T09:56:44.538Z</time></trkpt><trkpt lat="45.4557796" lon="11.5582387"><ele>330.75</ele><time>2026-05-02T09:56:45.538Z</time></trkpt><trkpt lat="45.4559004" lon="11.558311"><ele>331.0</ele><time>2026-05-02T09:56:46.538Z</time></trkpt><trkpt lat="45.456032" lon="11.5583695"><ele>331.0</ele><time>2026-05-02T09:56:47.538Z</time></trkpt><trkpt lat="45.4561803" lon="11.5584277"><ele>331.0</ele><time>2026-05-02T09:56:48.538Z</time></trkpt><trkpt lat="45.4563498" lon="11.5584873"><ele>331.0</ele><time>2026-05-02T09:56:49.538Z</time></trkpt><trkpt lat="45.4565354" lon="11.5585255"><ele>328.3333333333333</ele><time>2026-05-02T09:56:50.538Z</time></trkpt><trkpt lat="45.4567243" lon="11.5585652"><ele>325.6666666666667</ele><time>2026-05-02T09:56:51.538Z</time></trkpt><trkpt lat="45.4568992" lon="11.5586004"><ele>323.0</ele><time>2026-05-02T09:56:52.539Z</time></trkpt><trkpt lat="45.4570619" lon="11.5586203"><ele>321.5</ele><time>2026-05-02T09:56:53.538Z</time></trkpt><trkpt lat="45.4572145" lon="11.5586309"><ele>320.0</ele><time>2026-05-02T09:56:54.538Z</time></trkpt><trkpt lat="45.4573603" lon="11.5586433"><ele>318.5</ele><time>2026-05-02T09:56:55.538Z</time></trkpt><trkpt lat="45.4575084" lon="11.5586827"><ele>317.0</ele><time>2026-05-02T09:56:56.537Z</time></trkpt><trkpt lat="45.4576533" lon="11.5587404"><ele>321.25</ele><time>2026-05-02T09:56:57.538Z</time></trkpt><trkpt lat="45.4577967" lon="11.5587884"><ele>325.5</ele><time>2026-05-02T09:56:58.538Z</time></trkpt><trkpt lat="45.4579332" lon="11.5588438"><ele>329.75</ele><time>2026-05-02T09:56:59.538Z</time></trkpt><trkpt lat="45.4580518" lon="11.5588916"><ele>334.0</ele><time>2026-05-02T09:57:00.538Z</time></trkpt><trkpt lat="45.4581611" lon="11.5589419"><ele>334.0</ele><time>2026-05-02T09:57:01.537Z</time></trkpt><trkpt lat="45.4582765" lon="11.5589881"><ele>334.0</ele><time>2026-05-02T09:57:02.539Z</time></trkpt><trkpt lat="45.4584006" lon="11.5590046"><ele>334.0</ele><time>2026-05-02T09:57:03.538Z</time></trkpt><trkpt lat="45.4585262" lon="11.5589949"><ele>334.0</ele><time>2026-05-02T09:57:04.537Z</time></trkpt><trkpt lat="45.458657" lon="11.5589674"><ele>335.25</ele><time>2026-05-02T09:57:05.538Z</time></trkpt><trkpt lat="45.4587916" lon="11.5589374"><ele>336.5</ele><time>2026-05-02T09:57:06.538Z</time></trkpt><trkpt lat="45.4589294" lon="11.5589096"><ele>337.75</ele><time>2026-05-02T09:57:07.537Z</time></trkpt><trkpt lat="45.4590717" lon="11.5588777"><ele>339.0</ele><time>2026-05-02T09:57:08.538Z</time></trkpt><trkpt lat="45.4592181" lon="11.5588419"><ele>339.0</ele><time>2026-05-02T09:57:09.538Z</time></trkpt><trkpt lat="45.4593648" lon="11.5588059"><ele>339.0</ele><time>2026-05-02T09:57:10.537Z</time></trkpt><trkpt lat="45.4595127" lon="11.55876"><ele>339.0</ele><time>2026-05-02T09:57:11.538Z</time></trkpt><trkpt lat="45.4596605" lon="11.5587059"><ele>336.5</ele><time>2026-05-02T09:57:12.538Z</time></trkpt><trkpt lat="45.4598009" lon="11.5586524"><ele>334.0</ele><time>2026-05-02T09:57:13.539Z</time></trkpt><trkpt lat="45.4599184" lon="11.5585784"><ele>331.5</ele><time>2026-05-02T09:57:14.539Z</time></trkpt><trkpt lat="45.4600081" lon="11.558497"><ele>329.0</ele><time>2026-05-02T09:57:15.539Z</time></trkpt><trkpt lat="45.4600832" lon="11.5584305"><ele>329.0</ele><time>2026-05-02T09:57:16.539Z</time></trkpt><trkpt lat="45.4601569" lon="11.558399"><ele>329.0</ele><time>2026-05-02T09:57:17.538Z</time></trkpt><trkpt lat="45.4602219" lon="11.5584114"><ele>329.0</ele><time>2026-05-02T09:57:18.539Z</time></trkpt><trkpt lat="45.46027" lon="11.5585711"><ele>329.0</ele><time>2026-05-02T09:57:20.539Z</time></trkpt><trkpt lat="45.4602502" lon="11.5587049"><ele>329.0</ele><time>2026-05-02T09:57:21.538Z</time></trkpt><trkpt lat="45.460207" lon="11.5588704"><ele>332.6666666666667</ele><time>2026-05-02T09:57:22.539Z</time></trkpt><trkpt lat="45.4601513" lon="11.5590707"><ele>336.3333333333333</ele><time>2026-05-02T09:57:23.538Z</time></trkpt><trkpt lat="45.4601035" lon="11.5592916"><ele>340.0</ele><time>2026-05-02T09:57:24.539Z</time></trkpt><trkpt lat="45.4600855" lon="11.5595293"><ele>341.75</ele><time>2026-05-02T09:57:25.538Z</time></trkpt><trkpt lat="45.4600759" lon="11.5597605"><ele>343.5</ele><time>2026-05-02T09:57:26.539Z</time></trkpt><trkpt lat="45.4600806" lon="11.5599803"><ele>345.25</ele><time>2026-05-02T09:57:27.537Z</time></trkpt><trkpt lat="45.4600936" lon="11.5601671"><ele>347.0</ele><time>2026-05-02T09:57:28.539Z</time></trkpt><trkpt lat="45.460102" lon="11.560324"><ele>346.40000000000003</ele><time>2026-05-02T09:57:29.537Z</time></trkpt><trkpt lat="45.4600731" lon="11.5604506"><ele>345.8</ele><time>2026-05-02T09:57:30.539Z</time></trkpt><trkpt lat="45.4600184" lon="11.560569"><ele>345.2</ele><time>2026-05-02T09:57:31.538Z</time></trkpt><trkpt lat="45.4599501" lon="11.560696"><ele>344.6</ele><time>2026-05-02T09:57:32.538Z</time></trkpt><trkpt lat="45.4598977" lon="11.5608519"><ele>344.0</ele><time>2026-05-02T09:57:33.538Z</time></trkpt><trkpt lat="45.4598689" lon="11.5610304"><ele>343.0</ele><time>2026-05-02T09:57:34.538Z</time></trkpt><trkpt lat="45.4598627" lon="11.5612246"><ele>342.0</ele><time>2026-05-02T09:57:35.539Z</time></trkpt><trkpt lat="45.4598777" lon="11.5614173"><ele>341.0</ele><time>2026-05-02T09:57:36.538Z</time></trkpt><trkpt lat="45.4599073" lon="11.5616107"><ele>340.0</ele><time>2026-05-02T09:57:37.538Z</time></trkpt><trkpt lat="45.4599329" lon="11.5618027"><ele>340.0</ele><time>2026-05-02T09:57:38.539Z</time></trkpt><trkpt lat="45.4599505" lon="11.5619664"><ele>340.0</ele><time>2026-05-02T09:57:39.538Z</time></trkpt><trkpt lat="45.4599759" lon="11.5620971"><ele>340.0</ele><time>2026-05-02T09:57:40.539Z</time></trkpt><trkpt lat="45.4600335" lon="11.5622216"><ele>340.0</ele><time>2026-05-02T09:57:41.538Z</time></trkpt><trkpt lat="45.4601247" lon="11.5623109"><ele>340.0</ele><time>2026-05-02T09:57:42.539Z</time></trkpt><trkpt lat="45.460224" lon="11.5623682"><ele>339.5</ele><time>2026-05-02T09:57:43.538Z</time></trkpt><trkpt lat="45.4603103" lon="11.5624147"><ele>339.0</ele><time>2026-05-02T09:57:44.537Z</time></trkpt><trkpt lat="45.4603806" lon="11.5624877"><ele>338.5</ele><time>2026-05-02T09:57:45.537Z</time></trkpt><trkpt lat="45.4604204" lon="11.5625787"><ele>338.0</ele><time>2026-05-02T09:57:46.539Z</time></trkpt><trkpt lat="45.4604211" lon="11.5626922"><ele>337.5</ele><time>2026-05-02T09:57:47.538Z</time></trkpt><trkpt lat="45.4603952" lon="11.5628338"><ele>337.0</ele><time>2026-05-02T09:57:48.538Z</time></trkpt><trkpt lat="45.4603621" lon="11.5629921"><ele>336.75</ele><time>2026-05-02T09:57:49.538Z</time></trkpt><trkpt lat="45.4603377" lon="11.5631705"><ele>336.5</ele><time>2026-05-02T09:57:50.538Z</time></trkpt><trkpt lat="45.4603237" lon="11.5633387"><ele>336.25</ele><time>2026-05-02T09:57:51.537Z</time></trkpt><trkpt lat="45.4603229" lon="11.5634942"><ele>336.0</ele><time>2026-05-02T09:57:52.538Z</time></trkpt><trkpt lat="45.4603293" lon="11.5636295"><ele>335.20000000000005</ele><time>2026-05-02T09:57:53.538Z</time></trkpt><trkpt lat="45.4603507" lon="11.5637578"><ele>334.40000000000003</ele><time>2026-05-02T09:57:54.538Z</time></trkpt><trkpt lat="45.4603816" lon="11.5638774"><ele>333.6</ele><time>2026-05-02T09:57:55.538Z</time></trkpt><trkpt lat="45.4604241" lon="11.563986"><ele>332.8</ele><time>2026-05-02T09:57:56.538Z</time></trkpt><trkpt lat="45.460488" lon="11.5640793"><ele>332.0</ele><time>2026-05-02T09:57:57.538Z</time></trkpt><trkpt lat="45.4605644" lon="11.5641615"><ele>330.40000000000003</ele><time>2026-05-02T09:57:58.538Z</time></trkpt><trkpt lat="45.4606501" lon="11.5642388"><ele>328.8</ele><time>2026-05-02T09:57:59.538Z</time></trkpt><trkpt lat="45.4607445" lon="11.5643178"><ele>327.2</ele><time>2026-05-02T09:58:00.538Z</time></trkpt><trkpt lat="45.460844" lon="11.5643976"><ele>325.6</ele><time>2026-05-02T09:58:01.538Z</time></trkpt><trkpt lat="45.4609502" lon="11.5644823"><ele>324.0</ele><time>2026-05-02T09:58:02.538Z</time></trkpt><trkpt lat="45.4610555" lon="11.5645812"><ele>324.0</ele><time>2026-05-02T09:58:03.538Z</time></trkpt><trkpt lat="45.4611628" lon="11.5646842"><ele>324.0</ele><time>2026-05-02T09:58:04.538Z</time></trkpt><trkpt lat="45.4612749" lon="11.5647813"><ele>324.0</ele><time>2026-05-02T09:58:05.538Z</time></trkpt><trkpt lat="45.4613849" lon="11.5648692"><ele>324.0</ele><time>2026-05-02T09:58:06.538Z</time></trkpt><trkpt lat="45.4614833" lon="11.5649465"><ele>323.6</ele><time>2026-05-02T09:58:07.538Z</time></trkpt><trkpt lat="45.4615724" lon="11.5650248"><ele>323.2</ele><time>2026-05-02T09:58:08.538Z</time></trkpt><trkpt lat="45.4616502" lon="11.5651154"><ele>322.8</ele><time>2026-05-02T09:58:09.538Z</time></trkpt><trkpt lat="45.4617148" lon="11.5652275"><ele>322.40000000000003</ele><time>2026-05-02T09:58:10.538Z</time></trkpt><trkpt lat="45.4617575" lon="11.5653656"><ele>322.0</ele><time>2026-05-02T09:58:11.538Z</time></trkpt><trkpt lat="45.4617981" lon="11.5655016"><ele>322.0</ele><time>2026-05-02T09:58:12.539Z</time></trkpt><trkpt lat="45.4618424" lon="11.5656129"><ele>322.0</ele><time>2026-05-02T09:58:13.538Z</time></trkpt><trkpt lat="45.4618996" lon="11.5657116"><ele>322.0</ele><time>2026-05-02T09:58:14.538Z</time></trkpt><trkpt lat="45.4619792" lon="11.5658159"><ele>322.0</ele><time>2026-05-02T09:58:15.538Z</time></trkpt><trkpt lat="45.462057" lon="11.5659335"><ele>322.0</ele><time>2026-05-02T09:58:16.537Z</time></trkpt><trkpt lat="45.4621405" lon="11.5660601"><ele>323.0</ele><time>2026-05-02T09:58:17.539Z</time></trkpt><trkpt lat="45.4622237" lon="11.5661877"><ele>324.0</ele><time>2026-05-02T09:58:18.539Z</time></trkpt><trkpt lat="45.4622984" lon="11.566313"><ele>325.0</ele><time>2026-05-02T09:58:19.537Z</time></trkpt><trkpt lat="45.4623602" lon="11.5664395"><ele>326.0</ele><time>2026-05-02T09:58:20.538Z</time></trkpt><trkpt lat="45.4624095" lon="11.5665563"><ele>327.0</ele><time>2026-05-02T09:58:21.537Z</time></trkpt><trkpt lat="45.4624469" lon="11.5666517"><ele>327.0</ele><time>2026-05-02T09:58:22.537Z</time></trkpt><trkpt lat="45.4624969" lon="11.5667159"><ele>327.0</ele><time>2026-05-02T09:58:23.538Z</time></trkpt><trkpt lat="45.4626039" lon="11.5667207"><ele>327.0</ele><time>2026-05-02T09:58:25.538Z</time></trkpt><trkpt lat="45.4626736" lon="11.5665381"><ele>327.0</ele><time>2026-05-02T09:58:27.539Z</time></trkpt><trkpt lat="45.4626952" lon="11.5664015"><ele>327.0</ele><time>2026-05-02T09:58:28.539Z</time></trkpt><trkpt lat="45.4627075" lon="11.5662508"><ele>326.40000000000003</ele><time>2026-05-02T09:58:29.539Z</time></trkpt><trkpt lat="45.4627299" lon="11.5661103"><ele>325.8</ele><time>2026-05-02T09:58:30.538Z</time></trkpt><trkpt lat="45.4627776" lon="11.5659875"><ele>325.2</ele><time>2026-05-02T09:58:31.538Z</time></trkpt><trkpt lat="45.4628443" lon="11.5658877"><ele>324.6</ele><time>2026-05-02T09:58:32.538Z</time></trkpt><trkpt lat="45.4629332" lon="11.5658038"><ele>324.0</ele><time>2026-05-02T09:58:33.537Z</time></trkpt><trkpt lat="45.4630415" lon="11.565737"><ele>324.0</ele><time>2026-05-02T09:58:34.537Z</time></trkpt><trkpt lat="45.4631521" lon="11.565698"><ele>324.0</ele><time>2026-05-02T09:58:35.539Z</time></trkpt><trkpt lat="45.4632573" lon="11.5656987"><ele>324.0</ele><time>2026-05-02T09:58:36.538Z</time></trkpt><trkpt lat="45.463343" lon="11.5657343"><ele>324.0</ele><time>2026-05-02T09:58:37.538Z</time></trkpt><trkpt lat="45.4634034" lon="11.5658044"><ele>324.0</ele><time>2026-05-02T09:58:38.539Z</time></trkpt><trkpt lat="45.4634368" lon="11.565899"><ele>324.0</ele><time>2026-05-02T09:58:39.537Z</time></trkpt><trkpt lat="45.4634479" lon="11.5660124"><ele>324.0</ele><time>2026-05-02T09:58:40.538Z</time></trkpt><trkpt lat="45.4634309" lon="11.5661528"><ele>324.0</ele><time>2026-05-02T09:58:41.538Z</time></trkpt><trkpt lat="45.4634102" lon="11.5662952"><ele>324.0</ele><time>2026-05-02T09:58:42.537Z</time></trkpt><trkpt lat="45.463386" lon="11.566427"><ele>324.0</ele><time>2026-05-02T09:58:43.537Z</time></trkpt><trkpt lat="45.4633767" lon="11.5665535"><ele>322.4</ele><time>2026-05-02T09:58:44.538Z</time></trkpt><trkpt lat="45.4633959" lon="11.5666724"><ele>320.79999999999995</ele><time>2026-05-02T09:58:45.538Z</time></trkpt><trkpt lat="45.4634368" lon="11.5667653"><ele>319.20000000000005</ele><time>2026-05-02T09:58:46.538Z</time></trkpt><trkpt lat="45.463513" lon="11.566839"><ele>317.6</ele><time>2026-05-02T09:58:47.539Z</time></trkpt><trkpt lat="45.4636136" lon="11.5668943"><ele>316.0</ele><time>2026-05-02T09:58:48.538Z</time></trkpt><trkpt lat="45.4637251" lon="11.566957"><ele>312.25</ele><time>2026-05-02T09:58:49.538Z</time></trkpt><trkpt lat="45.4638448" lon="11.5670448"><ele>308.5</ele><time>2026-05-02T09:58:50.538Z</time></trkpt><trkpt lat="45.4639693" lon="11.5671394"><ele>304.75</ele><time>2026-05-02T09:58:51.538Z</time></trkpt><trkpt lat="45.4640863" lon="11.5672387"><ele>301.0</ele><time>2026-05-02T09:58:52.538Z</time></trkpt><trkpt lat="45.4641997" lon="11.5673371"><ele>301.0</ele><time>2026-05-02T09:58:53.538Z</time></trkpt><trkpt lat="45.4643075" lon="11.567425"><ele>301.0</ele><time>2026-05-02T09:58:54.539Z</time></trkpt><trkpt lat="45.4644042" lon="11.567507"><ele>301.0</ele><time>2026-05-02T09:58:55.538Z</time></trkpt><trkpt lat="45.4644843" lon="11.5675717"><ele>301.0</ele><time>2026-05-02T09:58:56.537Z</time></trkpt><trkpt lat="45.4645555" lon="11.5676084"><ele>301.0</ele><time>2026-05-02T09:58:57.538Z</time></trkpt><trkpt lat="45.464629" lon="11.5676"><ele>299.2</ele><time>2026-05-02T09:58:58.538Z</time></trkpt><trkpt lat="45.4646959" lon="11.5675548"><ele>297.40000000000003</ele><time>2026-05-02T09:58:59.538Z</time></trkpt><trkpt lat="45.4647651" lon="11.567488"><ele>295.6</ele><time>2026-05-02T09:59:00.538Z</time></trkpt><trkpt lat="45.4648349" lon="11.567393"><ele>293.8</ele><time>2026-05-02T09:59:01.537Z</time></trkpt><trkpt lat="45.4649121" lon="11.5672929"><ele>292.0</ele><time>2026-05-02T09:59:02.538Z</time></trkpt><trkpt lat="45.4649988" lon="11.5672091"><ele>292.0</ele><time>2026-05-02T09:59:03.539Z</time></trkpt><trkpt lat="45.4650938" lon="11.5671423"><ele>292.0</ele><time>2026-05-02T09:59:04.538Z</time></trkpt><trkpt lat="45.4652005" lon="11.5670802"><ele>292.0</ele><time>2026-05-02T09:59:05.538Z</time></trkpt><trkpt lat="45.4653549" lon="11.5671201"><ele>292.0</ele><time>2026-05-02T09:59:06.538Z</time></trkpt><trkpt lat="45.4654925" lon="11.5671147"><ele>291.0</ele><time>2026-05-02T09:59:07.538Z</time></trkpt><trkpt lat="45.4656412" lon="11.5671186"><ele>290.0</ele><time>2026-05-02T09:59:08.539Z</time></trkpt><trkpt lat="45.4657877" lon="11.5671261"><ele>289.0</ele><time>2026-05-02T09:59:09.538Z</time></trkpt><trkpt lat="45.4659235" lon="11.5671328"><ele>288.0</ele><time>2026-05-02T09:59:10.538Z</time></trkpt><trkpt lat="45.4660534" lon="11.5671448"><ele>288.0</ele><time>2026-05-02T09:59:11.538Z</time></trkpt><trkpt lat="45.4661743" lon="11.5671762"><ele>288.0</ele><time>2026-05-02T09:59:12.538Z</time></trkpt><trkpt lat="45.4662825" lon="11.5672356"><ele>288.0</ele><time>2026-05-02T09:59:13.538Z</time></trkpt><trkpt lat="45.4663829" lon="11.5672971"><ele>288.0</ele><time>2026-05-02T09:59:14.537Z</time></trkpt><trkpt lat="45.4664938" lon="11.5673304"><ele>287.8</ele><time>2026-05-02T09:59:15.539Z</time></trkpt><trkpt lat="45.4666067" lon="11.5673429"><ele>287.6</ele><time>2026-05-02T09:59:16.538Z</time></trkpt><trkpt lat="45.4667122" lon="11.5673249"><ele>287.4</ele><time>2026-05-02T09:59:17.538Z</time></trkpt><trkpt lat="45.4668096" lon="11.56728"><ele>287.2</ele><time>2026-05-02T09:59:18.538Z</time></trkpt><trkpt lat="45.4669051" lon="11.5672043"><ele>287.0</ele><time>2026-05-02T09:59:19.539Z</time></trkpt><trkpt lat="45.4669942" lon="11.5671048"><ele>287.8</ele><time>2026-05-02T09:59:20.539Z</time></trkpt><trkpt lat="45.4670695" lon="11.5669967"><ele>288.6</ele><time>2026-05-02T09:59:21.538Z</time></trkpt><trkpt lat="45.4671415" lon="11.566921"><ele>289.40000000000003</ele><time>2026-05-02T09:59:22.538Z</time></trkpt><trkpt lat="45.4672317" lon="11.5668596"><ele>290.2</ele><time>2026-05-02T09:59:23.538Z</time></trkpt><trkpt lat="45.4673326" lon="11.5668106"><ele>291.0</ele><time>2026-05-02T09:59:24.539Z</time></trkpt><trkpt lat="45.4674418" lon="11.5667673"><ele>291.0</ele><time>2026-05-02T09:59:25.538Z</time></trkpt><trkpt lat="45.467554" lon="11.566724"><ele>291.0</ele><time>2026-05-02T09:59:26.537Z</time></trkpt><trkpt lat="45.4676669" lon="11.5666829"><ele>291.0</ele><time>2026-05-02T09:59:27.538Z</time></trkpt><trkpt lat="45.4677741" lon="11.5666748"><ele>291.0</ele><time>2026-05-02T09:59:28.538Z</time></trkpt><trkpt lat="45.4678748" lon="11.5667178"><ele>291.0</ele><time>2026-05-02T09:59:29.538Z</time></trkpt><trkpt lat="45.4679685" lon="11.5667825"><ele>291.8</ele><time>2026-05-02T09:59:30.539Z</time></trkpt><trkpt lat="45.4680459" lon="11.5668811"><ele>292.6</ele><time>2026-05-02T09:59:31.538Z</time></trkpt><trkpt lat="45.4681072" lon="11.5669985"><ele>293.4</ele><time>2026-05-02T09:59:32.538Z</time></trkpt><trkpt lat="45.4681521" lon="11.5671268"><ele>294.2</ele><time>2026-05-02T09:59:33.539Z</time></trkpt><trkpt lat="45.4681858" lon="11.5672689"><ele>295.0</ele><time>2026-05-02T09:59:34.538Z</time></trkpt><trkpt lat="45.4682193" lon="11.5674223"><ele>295.75</ele><time>2026-05-02T09:59:35.538Z</time></trkpt><trkpt lat="45.4682392" lon="11.567582"><ele>296.5</ele><time>2026-05-02T09:59:36.538Z</time></trkpt><trkpt lat="45.4682568" lon="11.5677447"><ele>297.25</ele><time>2026-05-02T09:59:37.538Z</time></trkpt><trkpt lat="45.4682904" lon="11.5679116"><ele>298.0</ele><time>2026-05-02T09:59:38.539Z</time></trkpt><trkpt lat="45.4683337" lon="11.5680902"><ele>295.3333333333333</ele><time>2026-05-02T09:59:39.538Z</time></trkpt><trkpt lat="45.4684023" lon="11.5682718"><ele>292.6666666666667</ele><time>2026-05-02T09:59:40.538Z</time></trkpt><trkpt lat="45.4684952" lon="11.5684468"><ele>290.0</ele><time>2026-05-02T09:59:41.538Z</time></trkpt><trkpt lat="45.4685927" lon="11.5686208"><ele>291.25</ele><time>2026-05-02T09:59:42.538Z</time></trkpt><trkpt lat="45.468687" lon="11.5687906"><ele>292.5</ele><time>2026-05-02T09:59:43.538Z</time></trkpt><trkpt lat="45.4687753" lon="11.5689425"><ele>293.75</ele><time>2026-05-02T09:59:44.539Z</time></trkpt><trkpt lat="45.4688547" lon="11.5690668"><ele>295.0</ele><time>2026-05-02T09:59:45.538Z</time></trkpt><trkpt lat="45.4689437" lon="11.569159"><ele>295.0</ele><time>2026-05-02T09:59:46.538Z</time></trkpt><trkpt lat="45.4690498" lon="11.5692164"><ele>295.0</ele><time>2026-05-02T09:59:47.538Z</time></trkpt><trkpt lat="45.4691643" lon="11.569251"><ele>295.0</ele><time>2026-05-02T09:59:48.538Z</time></trkpt><trkpt lat="45.4692824" lon="11.5692786"><ele>295.0</ele><time>2026-05-02T09:59:49.538Z</time></trkpt><trkpt lat="45.4693978" lon="11.5693166"><ele>295.0</ele><time>2026-05-02T09:59:50.538Z</time></trkpt><trkpt lat="45.4695049" lon="11.5693808"><ele>295.0</ele><time>2026-05-02T09:59:51.538Z</time></trkpt><trkpt lat="45.4695918" lon="11.5694694"><ele>295.0</ele><time>2026-05-02T09:59:52.539Z</time></trkpt><trkpt lat="45.4696553" lon="11.5695674"><ele>295.0</ele><time>2026-05-02T09:59:53.538Z</time></trkpt><trkpt lat="45.4696939" lon="11.5696746"><ele>295.0</ele><time>2026-05-02T09:59:54.538Z</time></trkpt><trkpt lat="45.4697335" lon="11.5697974"><ele>295.0</ele><time>2026-05-02T09:59:55.539Z</time></trkpt><trkpt lat="45.4697779" lon="11.5699342"><ele>295.0</ele><time>2026-05-02T09:59:56.538Z</time></trkpt><trkpt lat="45.4698322" lon="11.5700792"><ele>295.0</ele><time>2026-05-02T09:59:57.538Z</time></trkpt><trkpt lat="45.4698924" lon="11.5702324"><ele>295.0</ele><time>2026-05-02T09:59:58.538Z</time></trkpt><trkpt lat="45.4699558" lon="11.5703848"><ele>295.0</ele><time>2026-05-02T09:59:59.538Z</time></trkpt><trkpt lat="45.4700247" lon="11.5705288"><ele>295.0</ele><time>2026-05-02T10:00:00.538Z</time></trkpt><trkpt lat="45.4700994" lon="11.5706617"><ele>295.0</ele><time>2026-05-02T10:00:01.538Z</time></trkpt><trkpt lat="45.4701744" lon="11.570785"><ele>295.0</ele><time>2026-05-02T10:00:02.538Z</time></trkpt><trkpt lat="45.4702506" lon="11.5708955"><ele>295.0</ele><time>2026-05-02T10:00:03.539Z</time></trkpt><trkpt lat="45.4703278" lon="11.5709926"><ele>295.0</ele><time>2026-05-02T10:00:04.538Z</time></trkpt><trkpt lat="45.4704046" lon="11.5710757"><ele>295.0</ele><time>2026-05-02T10:00:05.539Z</time></trkpt><trkpt lat="45.4704712" lon="11.5711612"><ele>295.0</ele><time>2026-05-02T10:00:06.539Z</time></trkpt><trkpt lat="45.470516" lon="11.5712712"><ele>295.0</ele><time>2026-05-02T10:00:07.538Z</time></trkpt><trkpt lat="45.4705414" lon="11.5713963"><ele>292.8</ele><time>2026-05-02T10:00:08.538Z</time></trkpt><trkpt lat="45.4705619" lon="11.571536"><ele>290.6</ele><time>2026-05-02T10:00:09.538Z</time></trkpt><trkpt lat="45.4705837" lon="11.5716823"><ele>288.4</ele><time>2026-05-02T10:00:10.538Z</time></trkpt><trkpt lat="45.4706122" lon="11.5718171"><ele>286.2</ele><time>2026-05-02T10:00:11.539Z</time></trkpt><trkpt lat="45.4706567" lon="11.5719354"><ele>284.0</ele><time>2026-05-02T10:00:12.538Z</time></trkpt><trkpt lat="45.4707256" lon="11.5720381"><ele>284.0</ele><time>2026-05-02T10:00:13.538Z</time></trkpt><trkpt lat="45.4708126" lon="11.5721279"><ele>284.0</ele><time>2026-05-02T10:00:14.539Z</time></trkpt><trkpt lat="45.4709189" lon="11.5722125"><ele>284.0</ele><time>2026-05-02T10:00:15.538Z</time></trkpt><trkpt lat="45.4710421" lon="11.5722901"><ele>284.0</ele><time>2026-05-02T10:00:16.539Z</time></trkpt><trkpt lat="45.4711723" lon="11.5723587"><ele>281.5</ele><time>2026-05-02T10:00:17.538Z</time></trkpt><trkpt lat="45.471303" lon="11.5724315"><ele>279.0</ele><time>2026-05-02T10:00:18.539Z</time></trkpt><trkpt lat="45.4714293" lon="11.5725514"><ele>276.5</ele><time>2026-05-02T10:00:19.539Z</time></trkpt><trkpt lat="45.4715505" lon="11.572668"><ele>274.0</ele><time>2026-05-02T10:00:20.538Z</time></trkpt><trkpt lat="45.4716831" lon="11.57277"><ele>274.0</ele><time>2026-05-02T10:00:21.537Z</time></trkpt><trkpt lat="45.4718248" lon="11.5728473"><ele>274.0</ele><time>2026-05-02T10:00:22.538Z</time></trkpt><trkpt lat="45.4719651" lon="11.5729104"><ele>274.0</ele><time>2026-05-02T10:00:23.538Z</time></trkpt><trkpt lat="45.4721032" lon="11.5729679"><ele>274.0</ele><time>2026-05-02T10:00:24.539Z</time></trkpt><trkpt lat="45.4722406" lon="11.5729916"><ele>272.5</ele><time>2026-05-02T10:00:25.538Z</time></trkpt><trkpt lat="45.4723791" lon="11.5729684"><ele>271.0</ele><time>2026-05-02T10:00:26.538Z</time></trkpt><trkpt lat="45.4725096" lon="11.5729326"><ele>269.5</ele><time>2026-05-02T10:00:27.538Z</time></trkpt><trkpt lat="45.4726376" lon="11.5729247"><ele>268.0</ele><time>2026-05-02T10:00:28.538Z</time></trkpt><trkpt lat="45.4727596" lon="11.5729494"><ele>268.0</ele><time>2026-05-02T10:00:29.539Z</time></trkpt><trkpt lat="45.4728772" lon="11.5730017"><ele>268.0</ele><time>2026-05-02T10:00:30.538Z</time></trkpt><trkpt lat="45.4729843" lon="11.5730529"><ele>268.0</ele><time>2026-05-02T10:00:31.538Z</time></trkpt><trkpt lat="45.4730888" lon="11.5730945"><ele>268.0</ele><time>2026-05-02T10:00:32.538Z</time></trkpt><trkpt lat="45.473188" lon="11.5731295"><ele>268.0</ele><time>2026-05-02T10:00:33.538Z</time></trkpt><trkpt lat="45.4732795" lon="11.5731849"><ele>268.0</ele><time>2026-05-02T10:00:34.538Z</time></trkpt><trkpt lat="45.4733505" lon="11.5733228"><ele>268.0</ele><time>2026-05-02T10:00:35.539Z</time></trkpt><trkpt lat="45.473423" lon="11.5734402"><ele>268.0</ele><time>2026-05-02T10:00:36.538Z</time></trkpt><trkpt lat="45.4735098" lon="11.5735446"><ele>268.0</ele><time>2026-05-02T10:00:37.538Z</time></trkpt><trkpt lat="45.4736134" lon="11.5736214"><ele>268.0</ele><time>2026-05-02T10:00:38.538Z</time></trkpt><trkpt lat="45.4737032" lon="11.5736661"><ele>268.0</ele><time>2026-05-02T10:00:39.537Z</time></trkpt><trkpt lat="45.4737778" lon="11.573702"><ele>268.0</ele><time>2026-05-02T10:00:40.538Z</time></trkpt><trkpt lat="45.4738728" lon="11.573746"><ele>268.0</ele><time>2026-05-02T10:00:42.539Z</time></trkpt><trkpt lat="45.4739698" lon="11.573731"><ele>268.0</ele><time>2026-05-02T10:00:44.539Z</time></trkpt><trkpt lat="45.4740285" lon="11.573569"><ele>267.2</ele><time>2026-05-02T10:00:46.539Z</time></trkpt><trkpt lat="45.4740516" lon="11.573442"><ele>266.4</ele><time>2026-05-02T10:00:47.538Z</time></trkpt><trkpt lat="45.4740949" lon="11.5733048"><ele>265.59999999999997</ele><time>2026-05-02T10:00:48.539Z</time></trkpt><trkpt lat="45.4741492" lon="11.5731677"><ele>264.8</ele><time>2026-05-02T10:00:49.538Z</time></trkpt><trkpt lat="45.4742137" lon="11.5730338"><ele>264.0</ele><time>2026-05-02T10:00:50.538Z</time></trkpt><trkpt lat="45.4742877" lon="11.5729189"><ele>263.25</ele><time>2026-05-02T10:00:51.538Z</time></trkpt><trkpt lat="45.4743703" lon="11.5728161"><ele>262.5</ele><time>2026-05-02T10:00:52.539Z</time></trkpt><trkpt lat="45.474466" lon="11.5727396"><ele>261.75</ele><time>2026-05-02T10:00:53.538Z</time></trkpt><trkpt lat="45.4745766" lon="11.57269"><ele>261.0</ele><time>2026-05-02T10:00:54.538Z</time></trkpt><trkpt lat="45.474692" lon="11.5726848"><ele>261.0</ele><time>2026-05-02T10:00:55.538Z</time></trkpt><trkpt lat="45.474804" lon="11.5727356"><ele>261.0</ele><time>2026-05-02T10:00:56.538Z</time></trkpt><trkpt lat="45.4749034" lon="11.5728234"><ele>261.0</ele><time>2026-05-02T10:00:57.539Z</time></trkpt><trkpt lat="45.4749901" lon="11.5729248"><ele>261.0</ele><time>2026-05-02T10:00:58.538Z</time></trkpt><trkpt lat="45.4750796" lon="11.5729923"><ele>261.0</ele><time>2026-05-02T10:00:59.539Z</time></trkpt><trkpt lat="45.475179" lon="11.5730279"><ele>258.5</ele><time>2026-05-02T10:01:00.538Z</time></trkpt><trkpt lat="45.4752879" lon="11.5730172"><ele>256.0</ele><time>2026-05-02T10:01:01.537Z</time></trkpt><trkpt lat="45.4754028" lon="11.5729747"><ele>253.5</ele><time>2026-05-02T10:01:02.538Z</time></trkpt><trkpt lat="45.4755296" lon="11.5729171"><ele>251.0</ele><time>2026-05-02T10:01:03.539Z</time></trkpt><trkpt lat="45.4756542" lon="11.5729029"><ele>249.8</ele><time>2026-05-02T10:01:04.538Z</time></trkpt><trkpt lat="45.4757551" lon="11.5729008"><ele>248.60000000000002</ele><time>2026-05-02T10:01:05.538Z</time></trkpt><trkpt lat="45.4758512" lon="11.5729308"><ele>247.4</ele><time>2026-05-02T10:01:06.538Z</time></trkpt><trkpt lat="45.4759393" lon="11.5730077"><ele>246.2</ele><time>2026-05-02T10:01:07.538Z</time></trkpt><trkpt lat="45.4760116" lon="11.5731339"><ele>245.0</ele><time>2026-05-02T10:01:08.538Z</time></trkpt><trkpt lat="45.4760832" lon="11.5732539"><ele>245.0</ele><time>2026-05-02T10:01:09.537Z</time></trkpt><trkpt lat="45.4761833" lon="11.5733224"><ele>245.0</ele><time>2026-05-02T10:01:10.539Z</time></trkpt><trkpt lat="45.476282" lon="11.5733654"><ele>245.0</ele><time>2026-05-02T10:01:11.539Z</time></trkpt><trkpt lat="45.4764087" lon="11.5733421"><ele>245.0</ele><time>2026-05-02T10:01:12.538Z</time></trkpt><trkpt lat="45.4765321" lon="11.5733259"><ele>242.5</ele><time>2026-05-02T10:01:13.537Z</time></trkpt><trkpt lat="45.4766672" lon="11.5733017"><ele>240.0</ele><time>2026-05-02T10:01:14.538Z</time></trkpt><trkpt lat="45.4768086" lon="11.573292"><ele>237.5</ele><time>2026-05-02T10:01:15.538Z</time></trkpt><trkpt lat="45.4769491" lon="11.5732881"><ele>235.0</ele><time>2026-05-02T10:01:16.538Z</time></trkpt><trkpt lat="45.4770937" lon="11.5732814"><ele>233.75</ele><time>2026-05-02T10:01:17.538Z</time></trkpt><trkpt lat="45.4772268" lon="11.5732675"><ele>232.5</ele><time>2026-05-02T10:01:18.538Z</time></trkpt><trkpt lat="45.4773586" lon="11.57325"><ele>231.25</ele><time>2026-05-02T10:01:19.538Z</time></trkpt><trkpt lat="45.4774891" lon="11.5732327"><ele>230.0</ele><time>2026-05-02T10:01:20.537Z</time></trkpt><trkpt lat="45.4776173" lon="11.5732165"><ele>230.0</ele><time>2026-05-02T10:01:21.538Z</time></trkpt><trkpt lat="45.4777441" lon="11.5732048"><ele>230.0</ele><time>2026-05-02T10:01:22.539Z</time></trkpt><trkpt lat="45.4778704" lon="11.5732079"><ele>230.0</ele><time>2026-05-02T10:01:23.539Z</time></trkpt><trkpt lat="45.4779989" lon="11.5732306"><ele>230.0</ele><time>2026-05-02T10:01:24.538Z</time></trkpt><trkpt lat="45.4781332" lon="11.5732588"><ele>227.5</ele><time>2026-05-02T10:01:25.538Z</time></trkpt><trkpt lat="45.4782678" lon="11.5732813"><ele>225.0</ele><time>2026-05-02T10:01:26.539Z</time></trkpt><trkpt lat="45.4783927" lon="11.5733052"><ele>222.5</ele><time>2026-05-02T10:01:27.538Z</time></trkpt><trkpt lat="45.4785012" lon="11.5733253"><ele>220.0</ele><time>2026-05-02T10:01:28.538Z</time></trkpt><trkpt lat="45.4786012" lon="11.5733744"><ele>220.0</ele><time>2026-05-02T10:01:29.538Z</time></trkpt><trkpt lat="45.4786959" lon="11.5734574"><ele>220.0</ele><time>2026-05-02T10:01:30.538Z</time></trkpt><trkpt lat="45.4787892" lon="11.5735579"><ele>220.0</ele><time>2026-05-02T10:01:31.538Z</time></trkpt><trkpt lat="45.4788781" lon="11.5736723"><ele>220.0</ele><time>2026-05-02T10:01:32.537Z</time></trkpt><trkpt lat="45.4789543" lon="11.5737953"><ele>218.25</ele><time>2026-05-02T10:01:33.539Z</time></trkpt><trkpt lat="45.4790147" lon="11.5739323"><ele>216.5</ele><time>2026-05-02T10:01:34.538Z</time></trkpt><trkpt lat="45.4790679" lon="11.57409"><ele>214.75</ele><time>2026-05-02T10:01:35.537Z</time></trkpt><trkpt lat="45.4791212" lon="11.5742712"><ele>213.0</ele><time>2026-05-02T10:01:36.538Z</time></trkpt><trkpt lat="45.4791645" lon="11.5744655"><ele>213.0</ele><time>2026-05-02T10:01:37.538Z</time></trkpt><trkpt lat="45.4791988" lon="11.5746417"><ele>213.0</ele><time>2026-05-02T10:01:38.539Z</time></trkpt><trkpt lat="45.4792473" lon="11.5748151"><ele>213.0</ele><time>2026-05-02T10:01:39.538Z</time></trkpt><trkpt lat="45.4793163" lon="11.5749751"><ele>213.0</ele><time>2026-05-02T10:01:40.538Z</time></trkpt><trkpt lat="45.4794001" lon="11.5751051"><ele>213.0</ele><time>2026-05-02T10:01:41.538Z</time></trkpt><trkpt lat="45.4795013" lon="11.5751926"><ele>213.0</ele><time>2026-05-02T10:01:42.537Z</time></trkpt><trkpt lat="45.4796168" lon="11.5752451"><ele>213.0</ele><time>2026-05-02T10:01:43.538Z</time></trkpt><trkpt lat="45.4797367" lon="11.5752586"><ele>213.0</ele><time>2026-05-02T10:01:44.537Z</time></trkpt><trkpt lat="45.4798481" lon="11.5752487"><ele>214.4</ele><time>2026-05-02T10:01:45.539Z</time></trkpt><trkpt lat="45.4799569" lon="11.5752482"><ele>215.8</ele><time>2026-05-02T10:01:46.538Z</time></trkpt><trkpt lat="45.4800642" lon="11.5752753"><ele>217.2</ele><time>2026-05-02T10:01:47.538Z</time></trkpt><trkpt lat="45.4801618" lon="11.5753194"><ele>218.6</ele><time>2026-05-02T10:01:48.538Z</time></trkpt><trkpt lat="45.4802515" lon="11.5753846"><ele>220.0</ele><time>2026-05-02T10:01:49.537Z</time></trkpt><trkpt lat="45.4803259" lon="11.5754711"><ele>220.0</ele><time>2026-05-02T10:01:50.538Z</time></trkpt><trkpt lat="45.4803856" lon="11.5755807"><ele>220.0</ele><time>2026-05-02T10:01:51.538Z</time></trkpt><trkpt lat="45.4804348" lon="11.5757203"><ele>220.0</ele><time>2026-05-02T10:01:52.538Z</time></trkpt><trkpt lat="45.4804867" lon="11.5758772"><ele>220.0</ele><time>2026-05-02T10:01:53.538Z</time></trkpt><trkpt lat="45.4805624" lon="11.5760257"><ele>218.75</ele><time>2026-05-02T10:01:54.539Z</time></trkpt><trkpt lat="45.4806579" lon="11.5761551"><ele>217.5</ele><time>2026-05-02T10:01:55.538Z</time></trkpt><trkpt lat="45.4807702" lon="11.5762573"><ele>216.25</ele><time>2026-05-02T10:01:56.539Z</time></trkpt><trkpt lat="45.480886" lon="11.5763375"><ele>215.0</ele><time>2026-05-02T10:01:57.537Z</time></trkpt><trkpt lat="45.4809961" lon="11.5764204"><ele>215.0</ele><time>2026-05-02T10:01:58.538Z</time></trkpt><trkpt lat="45.4810979" lon="11.5765237"><ele>215.0</ele><time>2026-05-02T10:01:59.538Z</time></trkpt><trkpt lat="45.4811926" lon="11.5766375"><ele>215.0</ele><time>2026-05-02T10:02:00.539Z</time></trkpt><trkpt lat="45.4812868" lon="11.5767597"><ele>215.0</ele><time>2026-05-02T10:02:01.538Z</time></trkpt><trkpt lat="45.4813763" lon="11.5768822"><ele>212.25</ele><time>2026-05-02T10:02:02.538Z</time></trkpt><trkpt lat="45.4814728" lon="11.5769946"><ele>209.5</ele><time>2026-05-02T10:02:03.538Z</time></trkpt><trkpt lat="45.4815679" lon="11.5771045"><ele>206.75</ele><time>2026-05-02T10:02:04.538Z</time></trkpt><trkpt lat="45.4816579" lon="11.5772096"><ele>204.0</ele><time>2026-05-02T10:02:05.538Z</time></trkpt><trkpt lat="45.4817368" lon="11.5773189"><ele>204.0</ele><time>2026-05-02T10:02:06.538Z</time></trkpt><trkpt lat="45.4818104" lon="11.5774326"><ele>204.0</ele><time>2026-05-02T10:02:07.538Z</time></trkpt><trkpt lat="45.4818734" lon="11.577559"><ele>204.0</ele><time>2026-05-02T10:02:08.538Z</time></trkpt><trkpt lat="45.4819291" lon="11.5777055"><ele>204.0</ele><time>2026-05-02T10:02:09.537Z</time></trkpt><trkpt lat="45.4819747" lon="11.5778763"><ele>204.75</ele><time>2026-05-02T10:02:10.537Z</time></trkpt><trkpt lat="45.4820118" lon="11.5780574"><ele>205.5</ele><time>2026-05-02T10:02:11.538Z</time></trkpt><trkpt lat="45.4820439" lon="11.578236"><ele>206.25</ele><time>2026-05-02T10:02:12.538Z</time></trkpt><trkpt lat="45.4820786" lon="11.5784055"><ele>207.0</ele><time>2026-05-02T10:02:13.537Z</time></trkpt><trkpt lat="45.4821247" lon="11.5785579"><ele>204.5</ele><time>2026-05-02T10:02:14.538Z</time></trkpt><trkpt lat="45.4821883" lon="11.5786877"><ele>202.0</ele><time>2026-05-02T10:02:15.538Z</time></trkpt><trkpt lat="45.4822753" lon="11.5787909"><ele>199.5</ele><time>2026-05-02T10:02:16.538Z</time></trkpt><trkpt lat="45.4823799" lon="11.5788643"><ele>197.0</ele><time>2026-05-02T10:02:17.538Z</time></trkpt><trkpt lat="45.4824949" lon="11.5789192"><ele>197.0</ele><time>2026-05-02T10:02:18.538Z</time></trkpt><trkpt lat="45.4826075" lon="11.5789637"><ele>197.0</ele><time>2026-05-02T10:02:19.538Z</time></trkpt><trkpt lat="45.4827188" lon="11.5790008"><ele>197.0</ele><time>2026-05-02T10:02:20.538Z</time></trkpt><trkpt lat="45.4828227" lon="11.5790346"><ele>197.0</ele><time>2026-05-02T10:02:21.538Z</time></trkpt><trkpt lat="45.4829188" lon="11.5790657"><ele>197.0</ele><time>2026-05-02T10:02:22.538Z</time></trkpt><trkpt lat="45.483007" lon="11.5790945"><ele>194.50000000000003</ele><time>2026-05-02T10:02:23.538Z</time></trkpt><trkpt lat="45.4830937" lon="11.5791228"><ele>192.0</ele><time>2026-05-02T10:02:24.538Z</time></trkpt><trkpt lat="45.4831749" lon="11.5791322"><ele>189.5</ele><time>2026-05-02T10:02:25.538Z</time></trkpt><trkpt lat="45.4832562" lon="11.5791162"><ele>187.0</ele><time>2026-05-02T10:02:26.538Z</time></trkpt><trkpt lat="45.4833334" lon="11.5790695"><ele>184.5</ele><time>2026-05-02T10:02:27.538Z</time></trkpt><trkpt lat="45.4834072" lon="11.5790023"><ele>182.0</ele><time>2026-05-02T10:02:28.538Z</time></trkpt><trkpt lat="45.4834716" lon="11.5789175"><ele>182.0</ele><time>2026-05-02T10:02:29.538Z</time></trkpt><trkpt lat="45.4835346" lon="11.5788308"><ele>182.0</ele><time>2026-05-02T10:02:30.538Z</time></trkpt><trkpt lat="45.4836081" lon="11.5787446"><ele>182.0</ele><time>2026-05-02T10:02:31.539Z</time></trkpt><trkpt lat="45.4836974" lon="11.5786523"><ele>182.0</ele><time>2026-05-02T10:02:32.539Z</time></trkpt><trkpt lat="45.4838062" lon="11.5785639"><ele>182.0</ele><time>2026-05-02T10:02:33.539Z</time></trkpt><trkpt lat="45.4839263" lon="11.5784774"><ele>180.5</ele><time>2026-05-02T10:02:34.539Z</time></trkpt><trkpt lat="45.4840508" lon="11.578386"><ele>179.0</ele><time>2026-05-02T10:02:35.539Z</time></trkpt><trkpt lat="45.4841671" lon="11.5783036"><ele>177.5</ele><time>2026-05-02T10:02:36.538Z</time></trkpt><trkpt lat="45.4842695" lon="11.5782155"><ele>176.0</ele><time>2026-05-02T10:02:37.538Z</time></trkpt><trkpt lat="45.4843708" lon="11.57814"><ele>176.0</ele><time>2026-05-02T10:02:38.537Z</time></trkpt><trkpt lat="45.4845488" lon="11.5779886"><ele>176.0</ele><time>2026-05-02T10:02:40.538Z</time></trkpt><trkpt lat="45.4846397" lon="11.5779288"><ele>176.0</ele><time>2026-05-02T10:02:41.539Z</time></trkpt><trkpt lat="45.4847341" lon="11.5778959"><ele>176.0</ele><time>2026-05-02T10:02:42.538Z</time></trkpt><trkpt lat="45.4848206" lon="11.5778836"><ele>176.60000000000002</ele><time>2026-05-02T10:02:43.538Z</time></trkpt><trkpt lat="45.4849182" lon="11.5779103"><ele>177.2</ele><time>2026-05-02T10:02:44.539Z</time></trkpt><trkpt lat="45.4850173" lon="11.5779386"><ele>177.8</ele><time>2026-05-02T10:02:45.538Z</time></trkpt><trkpt lat="45.4851191" lon="11.5779704"><ele>178.39999999999998</ele><time>2026-05-02T10:02:46.538Z</time></trkpt><trkpt lat="45.4852242" lon="11.5780059"><ele>179.0</ele><time>2026-05-02T10:02:47.537Z</time></trkpt><trkpt lat="45.4853244" lon="11.5780215"><ele>179.39999999999998</ele><time>2026-05-02T10:02:48.538Z</time></trkpt><trkpt lat="45.4854297" lon="11.5780153"><ele>179.8</ele><time>2026-05-02T10:02:49.538Z</time></trkpt><trkpt lat="45.4855296" lon="11.5780001"><ele>180.2</ele><time>2026-05-02T10:02:50.538Z</time></trkpt><trkpt lat="45.4856283" lon="11.5779754"><ele>180.60000000000002</ele><time>2026-05-02T10:02:51.538Z</time></trkpt><trkpt lat="45.4857194" lon="11.5779503"><ele>181.0</ele><time>2026-05-02T10:02:52.538Z</time></trkpt><trkpt lat="45.4858052" lon="11.5779227"><ele>181.0</ele><time>2026-05-02T10:02:53.538Z</time></trkpt><trkpt lat="45.4858916" lon="11.5778834"><ele>181.0</ele><time>2026-05-02T10:02:54.538Z</time></trkpt><trkpt lat="45.4859762" lon="11.5778327"><ele>181.0</ele><time>2026-05-02T10:02:55.538Z</time></trkpt><trkpt lat="45.486054" lon="11.5777687"><ele>181.0</ele><time>2026-05-02T10:02:56.537Z</time></trkpt><trkpt lat="45.486126" lon="11.5776851"><ele>181.0</ele><time>2026-05-02T10:02:57.538Z</time></trkpt><trkpt lat="45.4861968" lon="11.5775999"><ele>180.0</ele><time>2026-05-02T10:02:58.539Z</time></trkpt><trkpt lat="45.4862726" lon="11.5775111"><ele>179.0</ele><time>2026-05-02T10:02:59.539Z</time></trkpt><trkpt lat="45.4863597" lon="11.5774283"><ele>178.0</ele><time>2026-05-02T10:03:00.538Z</time></trkpt><trkpt lat="45.4864599" lon="11.5773642"><ele>177.0</ele><time>2026-05-02T10:03:01.538Z</time></trkpt><trkpt lat="45.4865725" lon="11.5773153"><ele>176.0</ele><time>2026-05-02T10:03:02.538Z</time></trkpt><trkpt lat="45.4866853" lon="11.5772764"><ele>176.0</ele><time>2026-05-02T10:03:03.538Z</time></trkpt><trkpt lat="45.4867942" lon="11.5772611"><ele>176.0</ele><time>2026-05-02T10:03:04.539Z</time></trkpt><trkpt lat="45.4869094" lon="11.5772605"><ele>176.0</ele><time>2026-05-02T10:03:05.539Z</time></trkpt><trkpt lat="45.4870268" lon="11.5772825"><ele>176.0</ele><time>2026-05-02T10:03:06.538Z</time></trkpt><trkpt lat="45.4871428" lon="11.5773077"><ele>174.4</ele><time>2026-05-02T10:03:07.538Z</time></trkpt><trkpt lat="45.4872645" lon="11.5773262"><ele>172.8</ele><time>2026-05-02T10:03:08.538Z</time></trkpt><trkpt lat="45.4873801" lon="11.577336"><ele>171.20000000000002</ele><time>2026-05-02T10:03:09.538Z</time></trkpt><trkpt lat="45.4874865" lon="11.5773342"><ele>169.60000000000002</ele><time>2026-05-02T10:03:10.537Z</time></trkpt><trkpt lat="45.4875767" lon="11.5773057"><ele>168.0</ele><time>2026-05-02T10:03:11.537Z</time></trkpt><trkpt lat="45.487672" lon="11.5772592"><ele>168.0</ele><time>2026-05-02T10:03:12.538Z</time></trkpt><trkpt lat="45.4877999" lon="11.5771739"><ele>168.0</ele><time>2026-05-02T10:03:13.538Z</time></trkpt><trkpt lat="45.4879572" lon="11.577087"><ele>168.0</ele><time>2026-05-02T10:03:14.538Z</time></trkpt><trkpt lat="45.4881101" lon="11.5770175"><ele>164.0</ele><time>2026-05-02T10:03:15.538Z</time></trkpt><trkpt lat="45.4882619" lon="11.5769393"><ele>160.0</ele><time>2026-05-02T10:03:16.537Z</time></trkpt><trkpt lat="45.4884058" lon="11.5768542"><ele>156.0</ele><time>2026-05-02T10:03:17.538Z</time></trkpt><trkpt lat="45.4885353" lon="11.5767526"><ele>156.0</ele><time>2026-05-02T10:03:18.538Z</time></trkpt><trkpt lat="45.4886517" lon="11.5766393"><ele>156.0</ele><time>2026-05-02T10:03:19.538Z</time></trkpt><trkpt lat="45.4887564" lon="11.5765273"><ele>156.0</ele><time>2026-05-02T10:03:20.538Z</time></trkpt><trkpt lat="45.4888466" lon="11.5764058"><ele>156.0</ele><time>2026-05-02T10:03:21.539Z</time></trkpt><trkpt lat="45.4889291" lon="11.5762776"><ele>155.75</ele><time>2026-05-02T10:03:22.538Z</time></trkpt><trkpt lat="45.4890006" lon="11.576142"><ele>155.5</ele><time>2026-05-02T10:03:23.539Z</time></trkpt><trkpt lat="45.4890672" lon="11.5760072"><ele>155.25</ele><time>2026-05-02T10:03:24.538Z</time></trkpt><trkpt lat="45.4891291" lon="11.5758752"><ele>155.0</ele><time>2026-05-02T10:03:25.539Z</time></trkpt><trkpt lat="45.4891989" lon="11.5757538"><ele>155.0</ele><time>2026-05-02T10:03:26.538Z</time></trkpt><trkpt lat="45.4892678" lon="11.5756395"><ele>155.0</ele><time>2026-05-02T10:03:27.538Z</time></trkpt><trkpt lat="45.4893418" lon="11.5755374"><ele>155.0</ele><time>2026-05-02T10:03:28.539Z</time></trkpt><trkpt lat="45.4894267" lon="11.5754552"><ele>155.0</ele><time>2026-05-02T10:03:29.538Z</time></trkpt><trkpt lat="45.4895192" lon="11.5753884"><ele>155.0</ele><time>2026-05-02T10:03:30.539Z</time></trkpt><trkpt lat="45.4896193" lon="11.5753244"><ele>154.6</ele><time>2026-05-02T10:03:31.539Z</time></trkpt><trkpt lat="45.4897208" lon="11.5752624"><ele>154.2</ele><time>2026-05-02T10:03:32.539Z</time></trkpt><trkpt lat="45.4898236" lon="11.5752031"><ele>153.8</ele><time>2026-05-02T10:03:33.538Z</time></trkpt><trkpt lat="45.4899253" lon="11.575157"><ele>153.4</ele><time>2026-05-02T10:03:34.539Z</time></trkpt><trkpt lat="45.4900272" lon="11.5751278"><ele>153.0</ele><time>2026-05-02T10:03:35.537Z</time></trkpt><trkpt lat="45.4901224" lon="11.5751028"><ele>153.0</ele><time>2026-05-02T10:03:36.539Z</time></trkpt><trkpt lat="45.4902128" lon="11.575079"><ele>153.0</ele><time>2026-05-02T10:03:37.538Z</time></trkpt><trkpt lat="45.4903" lon="11.5750574"><ele>153.0</ele><time>2026-05-02T10:03:38.539Z</time></trkpt><trkpt lat="45.4903871" lon="11.575049"><ele>153.0</ele><time>2026-05-02T10:03:39.538Z</time></trkpt><trkpt lat="45.4904728" lon="11.5750338"><ele>153.0</ele><time>2026-05-02T10:03:40.538Z</time></trkpt><trkpt lat="45.4905478" lon="11.575006"><ele>153.0</ele><time>2026-05-02T10:03:41.538Z</time></trkpt><trkpt lat="45.4906159" lon="11.5749726"><ele>152.5</ele><time>2026-05-02T10:03:42.538Z</time></trkpt><trkpt lat="45.4906821" lon="11.5749334"><ele>152.0</ele><time>2026-05-02T10:03:43.539Z</time></trkpt><trkpt lat="45.4907495" lon="11.5748942"><ele>151.5</ele><time>2026-05-02T10:03:44.538Z</time></trkpt><trkpt lat="45.490817" lon="11.5748515"><ele>151.0</ele><time>2026-05-02T10:03:45.538Z</time></trkpt><trkpt lat="45.4908856" lon="11.5748049"><ele>150.5</ele><time>2026-05-02T10:03:46.539Z</time></trkpt><trkpt lat="45.4909599" lon="11.5747615"><ele>150.0</ele><time>2026-05-02T10:03:47.539Z</time></trkpt><trkpt lat="45.4910331" lon="11.5747183"><ele>150.0</ele><time>2026-05-02T10:03:48.539Z</time></trkpt><trkpt lat="45.4911063" lon="11.5746726"><ele>150.0</ele><time>2026-05-02T10:03:49.538Z</time></trkpt><trkpt lat="45.4911801" lon="11.5746337"><ele>150.0</ele><time>2026-05-02T10:03:50.538Z</time></trkpt><trkpt lat="45.4912571" lon="11.5746153"><ele>150.0</ele><time>2026-05-02T10:03:51.539Z</time></trkpt><trkpt lat="45.491338" lon="11.5746462"><ele>150.0</ele><time>2026-05-02T10:03:52.539Z</time></trkpt><trkpt lat="45.491405" lon="11.5747091"><ele>150.0</ele><time>2026-05-02T10:03:53.538Z</time></trkpt><trkpt lat="45.4914532" lon="11.5748032"><ele>149.66666666666666</ele><time>2026-05-02T10:03:54.537Z</time></trkpt><trkpt lat="45.4914839" lon="11.5749127"><ele>149.33333333333334</ele><time>2026-05-02T10:03:55.537Z</time></trkpt><trkpt lat="45.491498" lon="11.5750328"><ele>149.0</ele><time>2026-05-02T10:03:56.538Z</time></trkpt><trkpt lat="45.4914952" lon="11.5751558"><ele>148.66666666666669</ele><time>2026-05-02T10:03:57.538Z</time></trkpt><trkpt lat="45.4914823" lon="11.5752683"><ele>148.33333333333334</ele><time>2026-05-02T10:03:58.538Z</time></trkpt><trkpt lat="45.4914666" lon="11.5753759"><ele>148.0</ele><time>2026-05-02T10:03:59.538Z</time></trkpt><trkpt lat="45.4914563" lon="11.5754874"><ele>146.5</ele><time>2026-05-02T10:04:00.537Z</time></trkpt><trkpt lat="45.4914557" lon="11.5755956"><ele>145.0</ele><time>2026-05-02T10:04:01.538Z</time></trkpt><trkpt lat="45.4914692" lon="11.5756982"><ele>143.5</ele><time>2026-05-02T10:04:02.538Z</time></trkpt><trkpt lat="45.4915081" lon="11.5757869"><ele>142.0</ele><time>2026-05-02T10:04:03.538Z</time></trkpt><trkpt lat="45.4915684" lon="11.5758438"><ele>140.5</ele><time>2026-05-02T10:04:04.538Z</time></trkpt><trkpt lat="45.4916421" lon="11.5758615"><ele>139.0</ele><time>2026-05-02T10:04:05.537Z</time></trkpt><trkpt lat="45.4917251" lon="11.5758423"><ele>139.0</ele><time>2026-05-02T10:04:06.538Z</time></trkpt><trkpt lat="45.4918173" lon="11.5757896"><ele>139.0</ele><time>2026-05-02T10:04:07.538Z</time></trkpt><trkpt lat="45.4919039" lon="11.5757423"><ele>139.0</ele><time>2026-05-02T10:04:08.538Z</time></trkpt><trkpt lat="45.4919893" lon="11.5757014"><ele>139.0</ele><time>2026-05-02T10:04:09.538Z</time></trkpt><trkpt lat="45.4920808" lon="11.5756626"><ele>139.0</ele><time>2026-05-02T10:04:10.538Z</time></trkpt><trkpt lat="45.4921715" lon="11.5756308"><ele>136.8</ele><time>2026-05-02T10:04:11.539Z</time></trkpt><trkpt lat="45.4922676" lon="11.5756094"><ele>134.60000000000002</ele><time>2026-05-02T10:04:12.539Z</time></trkpt><trkpt lat="45.4923655" lon="11.5755886"><ele>132.4</ele><time>2026-05-02T10:04:13.538Z</time></trkpt><trkpt lat="45.4924633" lon="11.5755705"><ele>130.20000000000002</ele><time>2026-05-02T10:04:14.538Z</time></trkpt><trkpt lat="45.4925635" lon="11.5755598"><ele>128.0</ele><time>2026-05-02T10:04:15.538Z</time></trkpt><trkpt lat="45.4926697" lon="11.5755502"><ele>128.0</ele><time>2026-05-02T10:04:16.538Z</time></trkpt><trkpt lat="45.4927807" lon="11.5755432"><ele>128.0</ele><time>2026-05-02T10:04:17.538Z</time></trkpt><trkpt lat="45.4928962" lon="11.5755411"><ele>128.0</ele><time>2026-05-02T10:04:18.537Z</time></trkpt><trkpt lat="45.4930127" lon="11.5755472"><ele>128.0</ele><time>2026-05-02T10:04:19.538Z</time></trkpt><trkpt lat="45.4931289" lon="11.575548"><ele>124.75</ele><time>2026-05-02T10:04:20.538Z</time></trkpt><trkpt lat="45.4932558" lon="11.5755385"><ele>121.5</ele><time>2026-05-02T10:04:21.538Z</time></trkpt><trkpt lat="45.4933961" lon="11.5755067"><ele>118.25</ele><time>2026-05-02T10:04:22.538Z</time></trkpt><trkpt lat="45.4935672" lon="11.5754396"><ele>115.0</ele><time>2026-05-02T10:04:23.537Z</time></trkpt><trkpt lat="45.4937475" lon="11.5753718"><ele>115.25</ele><time>2026-05-02T10:04:24.538Z</time></trkpt><trkpt lat="45.4939081" lon="11.5753213"><ele>115.5</ele><time>2026-05-02T10:04:25.538Z</time></trkpt><trkpt lat="45.4940447" lon="11.5752743"><ele>115.75</ele><time>2026-05-02T10:04:26.538Z</time></trkpt><trkpt lat="45.4941681" lon="11.5752324"><ele>116.0</ele><time>2026-05-02T10:04:27.538Z</time></trkpt><trkpt lat="45.4942886" lon="11.5751881"><ele>116.0</ele><time>2026-05-02T10:04:28.538Z</time></trkpt><trkpt lat="45.4944078" lon="11.5751332"><ele>116.0</ele><time>2026-05-02T10:04:29.538Z</time></trkpt><trkpt lat="45.494545" lon="11.5750264"><ele>116.0</ele><time>2026-05-02T10:04:30.538Z</time></trkpt><trkpt lat="45.4947048" lon="11.5748987"><ele>114.33333333333333</ele><time>2026-05-02T10:04:31.538Z</time></trkpt><trkpt lat="45.4948972" lon="11.5747633"><ele>112.66666666666666</ele><time>2026-05-02T10:04:32.538Z</time></trkpt><trkpt lat="45.4950957" lon="11.5746199"><ele>111.0</ele><time>2026-05-02T10:04:33.538Z</time></trkpt><trkpt lat="45.4952755" lon="11.5744643"><ele>109.0</ele><time>2026-05-02T10:04:34.538Z</time></trkpt><trkpt lat="45.4954358" lon="11.5743214"><ele>107.0</ele><time>2026-05-02T10:04:35.538Z</time></trkpt><trkpt lat="45.4955779" lon="11.5742139"><ele>105.0</ele><time>2026-05-02T10:04:36.538Z</time></trkpt><trkpt lat="45.4957217" lon="11.5741431"><ele>105.0</ele><time>2026-05-02T10:04:37.537Z</time></trkpt><trkpt lat="45.4958574" lon="11.5740976"><ele>105.0</ele><time>2026-05-02T10:04:38.538Z</time></trkpt><trkpt lat="45.4959843" lon="11.5740416"><ele>105.0</ele><time>2026-05-02T10:04:39.537Z</time></trkpt><trkpt lat="45.4960925" lon="11.5739724"><ele>105.0</ele><time>2026-05-02T10:04:40.537Z</time></trkpt><trkpt lat="45.4961813" lon="11.5738878"><ele>103.0</ele><time>2026-05-02T10:04:41.538Z</time></trkpt><trkpt lat="45.4962606" lon="11.5737537"><ele>101.0</ele><time>2026-05-02T10:04:42.538Z</time></trkpt><trkpt lat="45.4963473" lon="11.5736003"><ele>99.0</ele><time>2026-05-02T10:04:43.538Z</time></trkpt><trkpt lat="45.4964457" lon="11.5734453"><ele>97.0</ele><time>2026-05-02T10:04:44.539Z</time></trkpt><trkpt lat="45.4965655" lon="11.573303"><ele>97.0</ele><time>2026-05-02T10:04:45.539Z</time></trkpt><trkpt lat="45.4966997" lon="11.5731885"><ele>97.0</ele><time>2026-05-02T10:04:46.537Z</time></trkpt><trkpt lat="45.4968288" lon="11.5730888"><ele>97.0</ele><time>2026-05-02T10:04:47.538Z</time></trkpt><trkpt lat="45.4969571" lon="11.5730042"><ele>97.0</ele><time>2026-05-02T10:04:48.538Z</time></trkpt><trkpt lat="45.4970844" lon="11.5729359"><ele>97.0</ele><time>2026-05-02T10:04:49.538Z</time></trkpt><trkpt lat="45.497209" lon="11.5728756"><ele>97.0</ele><time>2026-05-02T10:04:50.538Z</time></trkpt><trkpt lat="45.4973309" lon="11.5728297"><ele>97.0</ele><time>2026-05-02T10:04:51.538Z</time></trkpt><trkpt lat="45.4974584" lon="11.5728263"><ele>97.0</ele><time>2026-05-02T10:04:52.538Z</time></trkpt><trkpt lat="45.4975915" lon="11.5728463"><ele>95.0</ele><time>2026-05-02T10:04:53.538Z</time></trkpt><trkpt lat="45.4977339" lon="11.572868"><ele>93.0</ele><time>2026-05-02T10:04:54.537Z</time></trkpt><trkpt lat="45.4978837" lon="11.572891"><ele>91.0</ele><time>2026-05-02T10:04:55.538Z</time></trkpt><trkpt lat="45.4980331" lon="11.5729075"><ele>89.0</ele><time>2026-05-02T10:04:56.538Z</time></trkpt><trkpt lat="45.4981721" lon="11.5729269"><ele>87.25</ele><time>2026-05-02T10:04:57.538Z</time></trkpt><trkpt lat="45.4982948" lon="11.5729503"><ele>85.5</ele><time>2026-05-02T10:04:58.539Z</time></trkpt><trkpt lat="45.4984121" lon="11.5729725"><ele>83.75</ele><time>2026-05-02T10:04:59.538Z</time></trkpt><trkpt lat="45.4985268" lon="11.572979"><ele>82.0</ele><time>2026-05-02T10:05:00.539Z</time></trkpt><trkpt lat="45.4986468" lon="11.5729505"><ele>81.5</ele><time>2026-05-02T10:05:01.539Z</time></trkpt><trkpt lat="45.4987695" lon="11.5728896"><ele>81.0</ele><time>2026-05-02T10:05:02.538Z</time></trkpt><trkpt lat="45.4988875" lon="11.5728258"><ele>80.5</ele><time>2026-05-02T10:05:03.538Z</time></trkpt><trkpt lat="45.4990091" lon="11.5727902"><ele>80.0</ele><time>2026-05-02T10:05:04.538Z</time></trkpt><trkpt lat="45.4991309" lon="11.5727894"><ele>80.0</ele><time>2026-05-02T10:05:05.539Z</time></trkpt><trkpt lat="45.4992474" lon="11.5727944"><ele>80.0</ele><time>2026-05-02T10:05:06.537Z</time></trkpt><trkpt lat="45.4993607" lon="11.5727723"><ele>80.0</ele><time>2026-05-02T10:05:07.537Z</time></trkpt><trkpt lat="45.4994833" lon="11.5727156"><ele>80.0</ele><time>2026-05-02T10:05:08.539Z</time></trkpt><trkpt lat="45.4996112" lon="11.5726524"><ele>76.5</ele><time>2026-05-02T10:05:09.538Z</time></trkpt><trkpt lat="45.4997361" lon="11.572529"><ele>73.0</ele><time>2026-05-02T10:05:10.539Z</time></trkpt><trkpt lat="45.4998702" lon="11.5724663"><ele>69.5</ele><time>2026-05-02T10:05:11.538Z</time></trkpt><trkpt lat="45.5000133" lon="11.5724164"><ele>66.0</ele><time>2026-05-02T10:05:12.537Z</time></trkpt><trkpt lat="45.5001701" lon="11.5723575"><ele>66.0</ele><time>2026-05-02T10:05:13.538Z</time></trkpt><trkpt lat="45.5003253" lon="11.5722963"><ele>66.0</ele><time>2026-05-02T10:05:14.538Z</time></trkpt><trkpt lat="45.5004839" lon="11.5722451"><ele>66.0</ele><time>2026-05-02T10:05:15.538Z</time></trkpt><trkpt lat="45.500643" lon="11.572177"><ele>66.66666666666667</ele><time>2026-05-02T10:05:16.538Z</time></trkpt><trkpt lat="45.5007955" lon="11.572115"><ele>67.33333333333334</ele><time>2026-05-02T10:05:17.538Z</time></trkpt><trkpt lat="45.5009457" lon="11.5720518"><ele>68.0</ele><time>2026-05-02T10:05:18.538Z</time></trkpt><trkpt lat="45.501092" lon="11.5719851"><ele>68.0</ele><time>2026-05-02T10:05:19.539Z</time></trkpt><trkpt lat="45.5012374" lon="11.5719198"><ele>68.0</ele><time>2026-05-02T10:05:20.538Z</time></trkpt><trkpt lat="45.5013737" lon="11.5718468"><ele>68.0</ele><time>2026-05-02T10:05:21.538Z</time></trkpt><trkpt lat="45.5015052" lon="11.5717671"><ele>68.0</ele><time>2026-05-02T10:05:22.539Z</time></trkpt><trkpt lat="45.5016367" lon="11.5716789"><ele>63.5</ele><time>2026-05-02T10:05:23.538Z</time></trkpt><trkpt lat="45.5017635" lon="11.5715889"><ele>59.0</ele><time>2026-05-02T10:05:24.538Z</time></trkpt><trkpt lat="45.5018797" lon="11.5714873"><ele>54.5</ele><time>2026-05-02T10:05:25.538Z</time></trkpt><trkpt lat="45.5019877" lon="11.5713717"><ele>50.0</ele><time>2026-05-02T10:05:26.538Z</time></trkpt><trkpt lat="45.5020803" lon="11.5712289"><ele>48.0</ele><time>2026-05-02T10:05:27.538Z</time></trkpt><trkpt lat="45.5021574" lon="11.5710873"><ele>46.0</ele><time>2026-05-02T10:05:28.537Z</time></trkpt><trkpt lat="45.5022222" lon="11.5709538"><ele>44.0</ele><time>2026-05-02T10:05:29.538Z</time></trkpt><trkpt lat="45.5022971" lon="11.5708429"><ele>42.0</ele><time>2026-05-02T10:05:30.539Z</time></trkpt><trkpt lat="45.5023943" lon="11.5707577"><ele>42.0</ele><time>2026-05-02T10:05:31.538Z</time></trkpt><trkpt lat="45.502487" lon="11.5706694"><ele>42.0</ele><time>2026-05-02T10:05:32.538Z</time></trkpt><trkpt lat="45.502597" lon="11.5706206"><ele>42.0</ele><time>2026-05-02T10:05:33.538Z</time></trkpt><trkpt lat="45.5026991" lon="11.5705678"><ele>42.0</ele><time>2026-05-02T10:05:34.538Z</time></trkpt><trkpt lat="45.5027981" lon="11.570496"><ele>42.0</ele><time>2026-05-02T10:05:35.537Z</time></trkpt><trkpt lat="45.502891" lon="11.5704046"><ele>41.0</ele><time>2026-05-02T10:05:36.538Z</time></trkpt><trkpt lat="45.5029774" lon="11.5703119"><ele>40.0</ele><time>2026-05-02T10:05:37.539Z</time></trkpt><trkpt lat="45.5030657" lon="11.5702128"><ele>39.0</ele><time>2026-05-02T10:05:38.537Z</time></trkpt><trkpt lat="45.503152" lon="11.570117"><ele>38.0</ele><time>2026-05-02T10:05:39.538Z</time></trkpt><trkpt lat="45.5032348" lon="11.5700213"><ele>37.0</ele><time>2026-05-02T10:05:40.538Z</time></trkpt><trkpt lat="45.5033133" lon="11.5699285"><ele>37.0</ele><time>2026-05-02T10:05:41.538Z</time></trkpt><trkpt lat="45.5033885" lon="11.569842"><ele>37.0</ele><time>2026-05-02T10:05:42.538Z</time></trkpt><trkpt lat="45.503462" lon="11.5697617"><ele>37.0</ele><time>2026-05-02T10:05:43.538Z</time></trkpt><trkpt lat="45.5035354" lon="11.5696856"><ele>37.0</ele><time>2026-05-02T10:05:44.537Z</time></trkpt><trkpt lat="45.5036076" lon="11.5696084"><ele>37.0</ele><time>2026-05-02T10:05:45.538Z</time></trkpt><trkpt lat="45.5036789" lon="11.5695366"><ele>35.66666666666667</ele><time>2026-05-02T10:05:46.538Z</time></trkpt><trkpt lat="45.5037484" lon="11.5694716"><ele>34.333333333333336</ele><time>2026-05-02T10:05:47.537Z</time></trkpt><trkpt lat="45.5038154" lon="11.5694142"><ele>33.0</ele><time>2026-05-02T10:05:48.539Z</time></trkpt><trkpt lat="45.5038823" lon="11.5693617"><ele>31.666666666666664</ele><time>2026-05-02T10:05:49.539Z</time></trkpt><trkpt lat="45.503952" lon="11.5693151"><ele>30.333333333333332</ele><time>2026-05-02T10:05:50.538Z</time></trkpt><trkpt lat="45.5040168" lon="11.569284"><ele>29.0</ele><time>2026-05-02T10:05:51.538Z</time></trkpt><trkpt lat="45.5041232" lon="11.5692808"><ele>28.999999999999996</ele><time>2026-05-02T10:05:53.538Z</time></trkpt><trkpt lat="45.5041848" lon="11.5693884"><ele>29.0</ele><time>2026-05-02T10:05:55.538Z</time></trkpt><trkpt lat="45.5042111" lon="11.5694708"><ele>29.0</ele><time>2026-05-02T10:05:56.537Z</time></trkpt><trkpt lat="45.5042301" lon="11.5695655"><ele>29.0</ele><time>2026-05-02T10:05:57.538Z</time></trkpt><trkpt lat="45.504245" lon="11.5696734"><ele>28.999999999999996</ele><time>2026-05-02T10:05:58.538Z</time></trkpt><trkpt lat="45.5042568" lon="11.5697793"><ele>29.0</ele><time>2026-05-02T10:05:59.537Z</time></trkpt><trkpt lat="45.5042823" lon="11.5699383"><ele>29.166666666666664</ele><time>2026-05-02T10:06:01.538Z</time></trkpt><trkpt lat="45.5043024" lon="11.5700276"><ele>29.333333333333332</ele><time>2026-05-02T10:06:12.538Z</time></trkpt><trkpt lat="45.504405" lon="11.5700021"><ele>29.5</ele><time>2026-05-02T10:06:15.538Z</time></trkpt><trkpt lat="45.5044612" lon="11.5699569"><ele>29.666666666666664</ele><time>2026-05-02T10:06:16.538Z</time></trkpt><trkpt lat="45.5045318" lon="11.5699115"><ele>29.833333333333332</ele><time>2026-05-02T10:06:17.538Z</time></trkpt><trkpt lat="45.5046188" lon="11.5698726"><ele>30.0</ele><time>2026-05-02T10:06:18.538Z</time></trkpt><trkpt lat="45.5047158" lon="11.5698427"><ele>29.5</ele><time>2026-05-02T10:06:19.538Z</time></trkpt><trkpt lat="45.5048182" lon="11.5698199"><ele>29.0</ele><time>2026-05-02T10:06:20.538Z</time></trkpt><trkpt lat="45.5049277" lon="11.5697993"><ele>28.5</ele><time>2026-05-02T10:06:21.538Z</time></trkpt><trkpt lat="45.5050449" lon="11.5697717"><ele>28.0</ele><time>2026-05-02T10:06:22.539Z</time></trkpt><trkpt lat="45.50516" lon="11.5697401"><ele>28.0</ele><time>2026-05-02T10:06:23.538Z</time></trkpt><trkpt lat="45.5052792" lon="11.5697094"><ele>28.0</ele><time>2026-05-02T10:06:24.538Z</time></trkpt><trkpt lat="45.5054018" lon="11.5696814"><ele>28.0</ele><time>2026-05-02T10:06:25.538Z</time></trkpt><trkpt lat="45.5055327" lon="11.5696533"><ele>28.0</ele><time>2026-05-02T10:06:26.538Z</time></trkpt><trkpt lat="45.505663" lon="11.5696311"><ele>28.5</ele><time>2026-05-02T10:06:27.538Z</time></trkpt><trkpt lat="45.505795" lon="11.5696153"><ele>29.0</ele><time>2026-05-02T10:06:28.538Z</time></trkpt><trkpt lat="45.5059249" lon="11.5695995"><ele>29.5</ele><time>2026-05-02T10:06:29.538Z</time></trkpt><trkpt lat="45.5060592" lon="11.5695885"><ele>30.0</ele><time>2026-05-02T10:06:30.537Z</time></trkpt><trkpt lat="45.5061959" lon="11.56957"><ele>29.75</ele><time>2026-05-02T10:06:31.538Z</time></trkpt><trkpt lat="45.506333" lon="11.5695444"><ele>29.5</ele><time>2026-05-02T10:06:32.538Z</time></trkpt><trkpt lat="45.5064586" lon="11.56951"><ele>29.25</ele><time>2026-05-02T10:06:33.538Z</time></trkpt><trkpt lat="45.5065825" lon="11.5694645"><ele>29.0</ele><time>2026-05-02T10:06:34.538Z</time></trkpt><trkpt lat="45.5067114" lon="11.569407"><ele>29.0</ele><time>2026-05-02T10:06:35.538Z</time></trkpt><trkpt lat="45.5068397" lon="11.5693444"><ele>29.0</ele><time>2026-05-02T10:06:36.538Z</time></trkpt><trkpt lat="45.506969" lon="11.5692764"><ele>29.0</ele><time>2026-05-02T10:06:37.539Z</time></trkpt><trkpt lat="45.5070952" lon="11.5692148"><ele>29.0</ele><time>2026-05-02T10:06:38.539Z</time></trkpt><trkpt lat="45.5072126" lon="11.5691585"><ele>28.799999999999997</ele><time>2026-05-02T10:06:39.538Z</time></trkpt><trkpt lat="45.5073172" lon="11.5691059"><ele>28.599999999999998</ele><time>2026-05-02T10:06:40.538Z</time></trkpt><trkpt lat="45.5074072" lon="11.5690608"><ele>28.4</ele><time>2026-05-02T10:06:41.538Z</time></trkpt><trkpt lat="45.5074951" lon="11.569014"><ele>28.2</ele><time>2026-05-02T10:06:42.538Z</time></trkpt><trkpt lat="45.5075793" lon="11.5689698"><ele>28.0</ele><time>2026-05-02T10:06:43.538Z</time></trkpt><trkpt lat="45.507662" lon="11.5689279"><ele>28.000000000000004</ele><time>2026-05-02T10:06:44.539Z</time></trkpt><trkpt lat="45.5077463" lon="11.5688836"><ele>28.0</ele><time>2026-05-02T10:06:45.539Z</time></trkpt><trkpt lat="45.5078305" lon="11.568839"><ele>28.0</ele><time>2026-05-02T10:06:46.538Z</time></trkpt><trkpt lat="45.5079144" lon="11.5687907"><ele>28.0</ele><time>2026-05-02T10:06:47.538Z</time></trkpt><trkpt lat="45.5079924" lon="11.5687479"><ele>28.000000000000004</ele><time>2026-05-02T10:06:48.539Z</time></trkpt><trkpt lat="45.5080571" lon="11.568713"><ele>28.0</ele><time>2026-05-02T10:06:49.539Z</time></trkpt><trkpt lat="45.5081541" lon="11.5686655"><ele>28.2</ele><time>2026-05-02T10:06:51.538Z</time></trkpt><trkpt lat="45.5082544" lon="11.5686512"><ele>28.4</ele><time>2026-05-02T10:06:53.538Z</time></trkpt><trkpt lat="45.5083795" lon="11.5686169"><ele>28.599999999999998</ele><time>2026-05-02T10:06:55.538Z</time></trkpt><trkpt lat="45.508447" lon="11.5685617"><ele>28.799999999999997</ele><time>2026-05-02T10:06:56.539Z</time></trkpt><trkpt lat="45.5085279" lon="11.5684944"><ele>29.0</ele><time>2026-05-02T10:06:57.539Z</time></trkpt><trkpt lat="45.5086268" lon="11.5684287"><ele>29.0</ele><time>2026-05-02T10:06:58.539Z</time></trkpt><trkpt lat="45.5087375" lon="11.5683654"><ele>29.0</ele><time>2026-05-02T10:06:59.537Z</time></trkpt><trkpt lat="45.5088581" lon="11.5683007"><ele>29.0</ele><time>2026-05-02T10:07:00.539Z</time></trkpt><trkpt lat="45.5089851" lon="11.5682348"><ele>29.0</ele><time>2026-05-02T10:07:01.538Z</time></trkpt><trkpt lat="45.509116" lon="11.5681692"><ele>29.25</ele><time>2026-05-02T10:07:02.539Z</time></trkpt><trkpt lat="45.5092467" lon="11.5681055"><ele>29.5</ele><time>2026-05-02T10:07:03.538Z</time></trkpt><trkpt lat="45.5093774" lon="11.5680336"><ele>29.75</ele><time>2026-05-02T10:07:04.539Z</time></trkpt><trkpt lat="45.5095088" lon="11.5679552"><ele>30.0</ele><time>2026-05-02T10:07:05.538Z</time></trkpt><trkpt lat="45.5096382" lon="11.5678655"><ele>30.0</ele><time>2026-05-02T10:07:06.538Z</time></trkpt><trkpt lat="45.5097671" lon="11.5677628"><ele>30.0</ele><time>2026-05-02T10:07:07.539Z</time></trkpt><trkpt lat="45.5098938" lon="11.5676501"><ele>30.0</ele><time>2026-05-02T10:07:08.538Z</time></trkpt><trkpt lat="45.5100159" lon="11.5675316"><ele>30.0</ele><time>2026-05-02T10:07:09.538Z</time></trkpt><trkpt lat="45.5101301" lon="11.5674156"><ele>30.0</ele><time>2026-05-02T10:07:10.538Z</time></trkpt><trkpt lat="45.5102396" lon="11.5673042"><ele>30.0</ele><time>2026-05-02T10:07:11.539Z</time></trkpt><trkpt lat="45.5103456" lon="11.5671985"><ele>30.0</ele><time>2026-05-02T10:07:12.539Z</time></trkpt><trkpt lat="45.5104505" lon="11.567098"><ele>30.0</ele><time>2026-05-02T10:07:13.538Z</time></trkpt><trkpt lat="45.5105556" lon="11.5670007"><ele>30.0</ele><time>2026-05-02T10:07:14.537Z</time></trkpt><trkpt lat="45.5106614" lon="11.5669111"><ele>30.0</ele><time>2026-05-02T10:07:15.538Z</time></trkpt><trkpt lat="45.5107695" lon="11.5668248"><ele>30.0</ele><time>2026-05-02T10:07:16.538Z</time></trkpt><trkpt lat="45.5108791" lon="11.5667454"><ele>30.0</ele><time>2026-05-02T10:07:17.538Z</time></trkpt><trkpt lat="45.5109885" lon="11.5666687"><ele>30.0</ele><time>2026-05-02T10:07:18.539Z</time></trkpt><trkpt lat="45.5110962" lon="11.5665974"><ele>30.0</ele><time>2026-05-02T10:07:19.539Z</time></trkpt><trkpt lat="45.511199" lon="11.5665326"><ele>30.0</ele><time>2026-05-02T10:07:20.539Z</time></trkpt><trkpt lat="45.5112983" lon="11.5664698"><ele>30.0</ele><time>2026-05-02T10:07:21.539Z</time></trkpt><trkpt lat="45.5113911" lon="11.5664053"><ele>30.0</ele><time>2026-05-02T10:07:22.539Z</time></trkpt><trkpt lat="45.5114535" lon="11.5663657"><ele>30.0</ele><time>2026-05-02T10:07:23.538Z</time></trkpt><trkpt lat="45.5115108" lon="11.5663256"><ele>30.0</ele><time>2026-05-02T10:07:24.538Z</time></trkpt><trkpt lat="45.5116166" lon="11.5662531"><ele>30.0</ele><time>2026-05-02T10:07:26.539Z</time></trkpt><trkpt lat="45.5117069" lon="11.566195"><ele>30.0</ele><time>2026-05-02T10:07:28.538Z</time></trkpt><trkpt lat="45.5117938" lon="11.5661275"><ele>30.0</ele><time>2026-05-02T10:07:30.538Z</time></trkpt><trkpt lat="45.5118836" lon="11.5660702"><ele>30.0</ele><time>2026-05-02T10:07:32.538Z</time></trkpt><trkpt lat="45.5119653" lon="11.5660176"><ele>30.0</ele><time>2026-05-02T10:07:34.537Z</time></trkpt><trkpt lat="45.5120307" lon="11.5659758"><ele>30.0</ele><time>2026-05-02T10:07:36.539Z</time></trkpt><trkpt lat="45.512092" lon="11.565941"><ele>30.0</ele><time>2026-05-02T10:07:43.539Z</time></trkpt><trkpt lat="45.5121545" lon="11.5659047"><ele>30.0</ele><time>2026-05-02T10:07:44.537Z</time></trkpt><trkpt lat="45.5122263" lon="11.5658733"><ele>30.0</ele><time>2026-05-02T10:07:45.537Z</time></trkpt><trkpt lat="45.5123002" lon="11.5658443"><ele>30.0</ele><time>2026-05-02T10:07:46.538Z</time></trkpt><trkpt lat="45.512377" lon="11.5658232"><ele>30.0</ele><time>2026-05-02T10:07:47.538Z</time></trkpt><trkpt lat="45.5124605" lon="11.5658059"><ele>30.0</ele><time>2026-05-02T10:07:48.539Z</time></trkpt><trkpt lat="45.5125528" lon="11.5657948"><ele>30.0</ele><time>2026-05-02T10:07:49.538Z</time></trkpt><trkpt lat="45.5126551" lon="11.5657899"><ele>30.0</ele><time>2026-05-02T10:07:50.538Z</time></trkpt><trkpt lat="45.5127557" lon="11.5657883"><ele>30.0</ele><time>2026-05-02T10:07:51.538Z</time></trkpt><trkpt lat="45.5128546" lon="11.5657883"><ele>30.0</ele><time>2026-05-02T10:07:52.538Z</time></trkpt><trkpt lat="45.5129548" lon="11.5657914"><ele>30.0</ele><time>2026-05-02T10:07:53.537Z</time></trkpt><trkpt lat="45.5130549" lon="11.5657975"><ele>30.0</ele><time>2026-05-02T10:07:54.539Z</time></trkpt><trkpt lat="45.5131569" lon="11.5658053"><ele>30.0</ele><time>2026-05-02T10:07:55.539Z</time></trkpt><trkpt lat="45.5132608" lon="11.565813"><ele>30.0</ele><time>2026-05-02T10:07:56.538Z</time></trkpt><trkpt lat="45.5133661" lon="11.565815"><ele>30.0</ele><time>2026-05-02T10:07:57.538Z</time></trkpt><trkpt lat="45.5134792" lon="11.5658204"><ele>30.0</ele><time>2026-05-02T10:07:58.539Z</time></trkpt><trkpt lat="45.5135888" lon="11.565831"><ele>30.0</ele><time>2026-05-02T10:07:59.539Z</time></trkpt><trkpt lat="45.513688" lon="11.5658406"><ele>30.0</ele><time>2026-05-02T10:08:00.539Z</time></trkpt><trkpt lat="45.5137732" lon="11.5658488"><ele>30.0</ele><time>2026-05-02T10:08:01.538Z</time></trkpt><trkpt lat="45.5138871" lon="11.5658608"><ele>30.2</ele><time>2026-05-02T10:08:03.538Z</time></trkpt><trkpt lat="45.5139776" lon="11.5658764"><ele>30.4</ele><time>2026-05-02T10:08:05.539Z</time></trkpt><trkpt lat="45.5140904" lon="11.5658952"><ele>30.6</ele><time>2026-05-02T10:08:07.538Z</time></trkpt><trkpt lat="45.5141683" lon="11.5659095"><ele>30.8</ele><time>2026-05-02T10:08:08.537Z</time></trkpt><trkpt lat="45.5142584" lon="11.5659274"><ele>31.0</ele><time>2026-05-02T10:08:09.538Z</time></trkpt><trkpt lat="45.5143579" lon="11.5659485"><ele>31.0</ele><time>2026-05-02T10:08:10.538Z</time></trkpt><trkpt lat="45.514458" lon="11.5659718"><ele>31.0</ele><time>2026-05-02T10:08:11.538Z</time></trkpt><trkpt lat="45.5145554" lon="11.5659868"><ele>31.0</ele><time>2026-05-02T10:08:12.539Z</time></trkpt><trkpt lat="45.5146505" lon="11.5659995"><ele>31.0</ele><time>2026-05-02T10:08:13.538Z</time></trkpt><trkpt lat="45.5147482" lon="11.5660111"><ele>31.0</ele><time>2026-05-02T10:08:14.539Z</time></trkpt><trkpt lat="45.514844" lon="11.5660222"><ele>31.0</ele><time>2026-05-02T10:08:15.538Z</time></trkpt><trkpt lat="45.5149384" lon="11.5660335"><ele>31.0</ele><time>2026-05-02T10:08:16.538Z</time></trkpt><trkpt lat="45.5150341" lon="11.5660438"><ele>31.0</ele><time>2026-05-02T10:08:17.538Z</time></trkpt><trkpt lat="45.5151281" lon="11.5660534"><ele>31.0</ele><time>2026-05-02T10:08:18.537Z</time></trkpt><trkpt lat="45.5152257" lon="11.5660579"><ele>31.0</ele><time>2026-05-02T10:08:19.538Z</time></trkpt><trkpt lat="45.5153266" lon="11.566058"><ele>31.0</ele><time>2026-05-02T10:08:20.538Z</time></trkpt><trkpt lat="45.5154327" lon="11.5660553"><ele>31.0</ele><time>2026-05-02T10:08:21.538Z</time></trkpt><trkpt lat="45.5155437" lon="11.5660453"><ele>31.0</ele><time>2026-05-02T10:08:22.538Z</time></trkpt><trkpt lat="45.5156561" lon="11.5660316"><ele>31.0</ele><time>2026-05-02T10:08:23.538Z</time></trkpt><trkpt lat="45.5157709" lon="11.5660163"><ele>31.0</ele><time>2026-05-02T10:08:24.539Z</time></trkpt><trkpt lat="45.5158837" lon="11.5659966"><ele>31.0</ele><time>2026-05-02T10:08:25.538Z</time></trkpt><trkpt lat="45.5159931" lon="11.5659837"><ele>31.0</ele><time>2026-05-02T10:08:26.538Z</time></trkpt><trkpt lat="45.516114" lon="11.5659587"><ele>31.0</ele><time>2026-05-02T10:08:27.537Z</time></trkpt><trkpt lat="45.5162291" lon="11.5659363"><ele>31.0</ele><time>2026-05-02T10:08:28.538Z</time></trkpt><trkpt lat="45.5163232" lon="11.5659101"><ele>31.0</ele><time>2026-05-02T10:08:29.537Z</time></trkpt><trkpt lat="45.5164124" lon="11.5658397"><ele>30.666666666666668</ele><time>2026-05-02T10:08:30.538Z</time></trkpt><trkpt lat="45.5164787" lon="11.5658004"><ele>30.333333333333336</ele><time>2026-05-02T10:08:31.538Z</time></trkpt><trkpt lat="45.5165471" lon="11.5657475"><ele>30.0</ele><time>2026-05-02T10:08:32.539Z</time></trkpt><trkpt lat="45.5166244" lon="11.5657182"><ele>29.666666666666664</ele><time>2026-05-02T10:08:33.539Z</time></trkpt><trkpt lat="45.5167046" lon="11.5656814"><ele>29.333333333333332</ele><time>2026-05-02T10:08:34.539Z</time></trkpt><trkpt lat="45.516775" lon="11.5656314"><ele>29.0</ele><time>2026-05-02T10:08:35.539Z</time></trkpt><trkpt lat="45.5168241" lon="11.5655542"><ele>28.999999999999996</ele><time>2026-05-02T10:08:36.539Z</time></trkpt><trkpt lat="45.5168492" lon="11.5654526"><ele>29.0</ele><time>2026-05-02T10:08:37.538Z</time></trkpt><trkpt lat="45.5168464" lon="11.5653395"><ele>29.0</ele><time>2026-05-02T10:08:38.538Z</time></trkpt><trkpt lat="45.516824" lon="11.5652242"><ele>29.0</ele><time>2026-05-02T10:08:39.538Z</time></trkpt><trkpt lat="45.516803" lon="11.5650918"><ele>28.999999999999996</ele><time>2026-05-02T10:08:40.539Z</time></trkpt><trkpt lat="45.5168037" lon="11.5649381"><ele>29.0</ele><time>2026-05-02T10:08:41.539Z</time></trkpt><trkpt lat="45.5168246" lon="11.5647578"><ele>29.333333333333332</ele><time>2026-05-02T10:08:42.539Z</time></trkpt><trkpt lat="45.5168696" lon="11.5645588"><ele>29.666666666666664</ele><time>2026-05-02T10:08:43.539Z</time></trkpt><trkpt lat="45.516936" lon="11.5643519"><ele>30.0</ele><time>2026-05-02T10:08:44.539Z</time></trkpt><trkpt lat="45.5170215" lon="11.5641444"><ele>30.0</ele><time>2026-05-02T10:08:45.538Z</time></trkpt><trkpt lat="45.517106" lon="11.56394"><ele>30.0</ele><time>2026-05-02T10:08:46.537Z</time></trkpt><trkpt lat="45.5171863" lon="11.5637481"><ele>30.0</ele><time>2026-05-02T10:08:47.538Z</time></trkpt><trkpt lat="45.5172601" lon="11.56357"><ele>29.5</ele><time>2026-05-02T10:08:48.538Z</time></trkpt><trkpt lat="45.5173158" lon="11.5634036"><ele>29.0</ele><time>2026-05-02T10:08:49.539Z</time></trkpt><trkpt lat="45.5173491" lon="11.5632401"><ele>28.5</ele><time>2026-05-02T10:08:50.539Z</time></trkpt><trkpt lat="45.5173485" lon="11.5630787"><ele>28.0</ele><time>2026-05-02T10:08:51.538Z</time></trkpt><trkpt lat="45.5173113" lon="11.562926"><ele>28.0</ele><time>2026-05-02T10:08:52.538Z</time></trkpt><trkpt lat="45.5172445" lon="11.5627914"><ele>27.999999999999996</ele><time>2026-05-02T10:08:53.538Z</time></trkpt><trkpt lat="45.5171597" lon="11.5626922"><ele>27.999999999999996</ele><time>2026-05-02T10:08:54.537Z</time></trkpt><trkpt lat="45.5170757" lon="11.562608"><ele>28.0</ele><time>2026-05-02T10:08:55.538Z</time></trkpt><trkpt lat="45.5169963" lon="11.5625029"><ele>28.0</ele><time>2026-05-02T10:08:56.538Z</time></trkpt><trkpt lat="45.5169278" lon="11.5623805"><ele>28.0</ele><time>2026-05-02T10:08:57.538Z</time></trkpt><trkpt lat="45.5168568" lon="11.5622398"><ele>28.0</ele><time>2026-05-02T10:08:58.537Z</time></trkpt><trkpt lat="45.5167904" lon="11.5620688"><ele>28.0</ele><time>2026-05-02T10:08:59.538Z</time></trkpt><trkpt lat="45.5167295" lon="11.5618583"><ele>28.0</ele><time>2026-05-02T10:09:00.539Z</time></trkpt><trkpt lat="45.5166655" lon="11.5616199"><ele>28.333333333333336</ele><time>2026-05-02T10:09:01.538Z</time></trkpt><trkpt lat="45.5165979" lon="11.5613573"><ele>28.666666666666664</ele><time>2026-05-02T10:09:02.539Z</time></trkpt><trkpt lat="45.5165273" lon="11.5610783"><ele>29.0</ele><time>2026-05-02T10:09:03.538Z</time></trkpt><trkpt lat="45.5164574" lon="11.5608104"><ele>29.0</ele><time>2026-05-02T10:09:04.538Z</time></trkpt><trkpt lat="45.5163892" lon="11.5605375"><ele>29.0</ele><time>2026-05-02T10:09:05.538Z</time></trkpt><trkpt lat="45.5163279" lon="11.5602607"><ele>29.0</ele><time>2026-05-02T10:09:06.538Z</time></trkpt><trkpt lat="45.5162712" lon="11.5599683"><ele>29.5</ele><time>2026-05-02T10:09:07.538Z</time></trkpt><trkpt lat="45.5162263" lon="11.5596574"><ele>30.0</ele><time>2026-05-02T10:09:08.538Z</time></trkpt><trkpt lat="45.5161907" lon="11.5593262"><ele>30.5</ele><time>2026-05-02T10:09:09.539Z</time></trkpt><trkpt lat="45.516159" lon="11.5589757"><ele>31.0</ele><time>2026-05-02T10:09:10.539Z</time></trkpt><trkpt lat="45.5161265" lon="11.5586209"><ele>31.5</ele><time>2026-05-02T10:09:11.538Z</time></trkpt><trkpt lat="45.5161073" lon="11.5582631"><ele>32.0</ele><time>2026-05-02T10:09:12.538Z</time></trkpt><trkpt lat="45.5160991" lon="11.5578983"><ele>33.5</ele><time>2026-05-02T10:09:13.538Z</time></trkpt><trkpt lat="45.5160999" lon="11.5575253"><ele>35.0</ele><time>2026-05-02T10:09:14.538Z</time></trkpt><trkpt lat="45.5161085" lon="11.5571499"><ele>36.5</ele><time>2026-05-02T10:09:15.538Z</time></trkpt><trkpt lat="45.516119" lon="11.5567747"><ele>38.0</ele><time>2026-05-02T10:09:16.538Z</time></trkpt><trkpt lat="45.5161302" lon="11.5564024"><ele>38.5</ele><time>2026-05-02T10:09:17.538Z</time></trkpt><trkpt lat="45.5161411" lon="11.5560351"><ele>39.0</ele><time>2026-05-02T10:09:18.538Z</time></trkpt><trkpt lat="45.5161495" lon="11.5556707"><ele>38.0</ele><time>2026-05-02T10:09:19.539Z</time></trkpt><trkpt lat="45.5161537" lon="11.5553118"><ele>37.0</ele><time>2026-05-02T10:09:20.539Z</time></trkpt><trkpt lat="45.5161539" lon="11.5549538"><ele>37.0</ele><time>2026-05-02T10:09:21.538Z</time></trkpt><trkpt lat="45.5161509" lon="11.5545926"><ele>37.0</ele><time>2026-05-02T10:09:22.538Z</time></trkpt><trkpt lat="45.5161449" lon="11.5542307"><ele>36.5</ele><time>2026-05-02T10:09:23.538Z</time></trkpt><trkpt lat="45.5161374" lon="11.5538684"><ele>36.0</ele><time>2026-05-02T10:09:24.538Z</time></trkpt><trkpt lat="45.516131" lon="11.5535072"><ele>36.0</ele><time>2026-05-02T10:09:25.538Z</time></trkpt><trkpt lat="45.5161271" lon="11.5531423"><ele>36.0</ele><time>2026-05-02T10:09:26.537Z</time></trkpt><trkpt lat="45.5161243" lon="11.5527797"><ele>36.5</ele><time>2026-05-02T10:09:27.539Z</time></trkpt><trkpt lat="45.5161308" lon="11.5524131"><ele>37.0</ele><time>2026-05-02T10:09:28.538Z</time></trkpt><trkpt lat="45.5161443" lon="11.5520483"><ele>37.5</ele><time>2026-05-02T10:09:29.538Z</time></trkpt><trkpt lat="45.5161566" lon="11.5516851"><ele>38.0</ele><time>2026-05-02T10:09:30.538Z</time></trkpt><trkpt lat="45.5161739" lon="11.5513224"><ele>39.5</ele><time>2026-05-02T10:09:31.538Z</time></trkpt><trkpt lat="45.5161957" lon="11.5509579"><ele>41.0</ele><time>2026-05-02T10:09:32.537Z</time></trkpt><trkpt lat="45.5162174" lon="11.5505937"><ele>50.0</ele><time>2026-05-02T10:09:33.538Z</time></trkpt><trkpt lat="45.5162442" lon="11.5502287"><ele>59.0</ele><time>2026-05-02T10:09:34.538Z</time></trkpt><trkpt lat="45.5162759" lon="11.549861"><ele>60.5</ele><time>2026-05-02T10:09:35.538Z</time></trkpt><trkpt lat="45.516307" lon="11.5494874"><ele>62.0</ele><time>2026-05-02T10:09:36.538Z</time></trkpt><trkpt lat="45.5163373" lon="11.5491098"><ele>62.0</ele><time>2026-05-02T10:09:37.538Z</time></trkpt><trkpt lat="45.5163678" lon="11.5487271"><ele>62.0</ele><time>2026-05-02T10:09:38.537Z</time></trkpt><trkpt lat="45.5163985" lon="11.5483498"><ele>69.5</ele><time>2026-05-02T10:09:39.538Z</time></trkpt><trkpt lat="45.5164369" lon="11.5479793"><ele>77.0</ele><time>2026-05-02T10:09:40.539Z</time></trkpt><trkpt lat="45.5164732" lon="11.5476071"><ele>45.0</ele><time>2026-05-02T10:09:41.538Z</time></trkpt><trkpt lat="45.5169488" lon="11.5411201"><ele>45.0</ele><time>2026-05-02T10:09:57.538Z</time></trkpt><trkpt lat="45.5169901" lon="11.5407112"><ele>45.0</ele><time>2026-05-02T10:09:58.538Z</time></trkpt><trkpt lat="45.5170218" lon="11.5403165"><ele>42.5</ele><time>2026-05-02T10:09:59.539Z</time></trkpt><trkpt lat="45.5170537" lon="11.5399144"><ele>40.0</ele><time>2026-05-02T10:10:00.537Z</time></trkpt><trkpt lat="45.5170844" lon="11.539513"><ele>39.0</ele><time>2026-05-02T10:10:01.539Z</time></trkpt><trkpt lat="45.5171154" lon="11.5391116"><ele>38.0</ele><time>2026-05-02T10:10:02.537Z</time></trkpt><trkpt lat="45.5171471" lon="11.5387037"><ele>36.0</ele><time>2026-05-02T10:10:03.538Z</time></trkpt><trkpt lat="45.5171744" lon="11.5382952"><ele>34.0</ele><time>2026-05-02T10:10:04.538Z</time></trkpt><trkpt lat="45.5172055" lon="11.537887"><ele>33.0</ele><time>2026-05-02T10:10:05.538Z</time></trkpt><trkpt lat="45.5172391" lon="11.5374795"><ele>32.0</ele><time>2026-05-02T10:10:06.538Z</time></trkpt><trkpt lat="45.5172703" lon="11.5370706"><ele>32.0</ele><time>2026-05-02T10:10:07.538Z</time></trkpt><trkpt lat="45.5173005" lon="11.5366658"><ele>32.0</ele><time>2026-05-02T10:10:08.538Z</time></trkpt><trkpt lat="45.5173293" lon="11.5362628"><ele>34.0</ele><time>2026-05-02T10:10:09.538Z</time></trkpt><trkpt lat="45.5173603" lon="11.5358656"><ele>36.0</ele><time>2026-05-02T10:10:10.539Z</time></trkpt><trkpt lat="45.5173894" lon="11.5354736"><ele>42.0</ele><time>2026-05-02T10:10:11.538Z</time></trkpt><trkpt lat="45.5174142" lon="11.5350833"><ele>48.0</ele><time>2026-05-02T10:10:12.538Z</time></trkpt><trkpt lat="45.5174437" lon="11.5347004"><ele>53.0</ele><time>2026-05-02T10:10:13.539Z</time></trkpt><trkpt lat="45.5174841" lon="11.5343139"><ele>58.0</ele><time>2026-05-02T10:10:14.538Z</time></trkpt><trkpt lat="45.5175203" lon="11.5339292"><ele>54.5</ele><time>2026-05-02T10:10:15.537Z</time></trkpt><trkpt lat="45.5175596" lon="11.5335387"><ele>51.0</ele><time>2026-05-02T10:10:16.538Z</time></trkpt><trkpt lat="45.5175719" lon="11.5331106"><ele>42.0</ele><time>2026-05-02T10:10:17.539Z</time></trkpt><trkpt lat="45.5175967" lon="11.53271"><ele>33.0</ele><time>2026-05-02T10:10:18.539Z</time></trkpt><trkpt lat="45.5176199" lon="11.5323477"><ele>31.5</ele><time>2026-05-02T10:10:19.539Z</time></trkpt><trkpt lat="45.5176523" lon="11.5319811"><ele>30.0</ele><time>2026-05-02T10:10:20.539Z</time></trkpt><trkpt lat="45.5176769" lon="11.5316046"><ele>30.0</ele><time>2026-05-02T10:10:21.538Z</time></trkpt><trkpt lat="45.5176945" lon="11.5312318"><ele>30.0</ele><time>2026-05-02T10:10:22.538Z</time></trkpt><trkpt lat="45.5177093" lon="11.5308629"><ele>30.0</ele><time>2026-05-02T10:10:23.537Z</time></trkpt><trkpt lat="45.5177281" lon="11.530503"><ele>30.0</ele><time>2026-05-02T10:10:24.539Z</time></trkpt><trkpt lat="45.517752" lon="11.5301487"><ele>30.0</ele><time>2026-05-02T10:10:25.539Z</time></trkpt><trkpt lat="45.5177782" lon="11.5297922"><ele>30.0</ele><time>2026-05-02T10:10:26.538Z</time></trkpt><trkpt lat="45.517808" lon="11.5294421"><ele>31.5</ele><time>2026-05-02T10:10:27.538Z</time></trkpt><trkpt lat="45.5178444" lon="11.529091"><ele>33.0</ele><time>2026-05-02T10:10:28.539Z</time></trkpt><trkpt lat="45.5178868" lon="11.5287393"><ele>31.0</ele><time>2026-05-02T10:10:29.538Z</time></trkpt><trkpt lat="45.5179318" lon="11.5283851"><ele>29.0</ele><time>2026-05-02T10:10:30.539Z</time></trkpt><trkpt lat="45.5179824" lon="11.5280334"><ele>28.5</ele><time>2026-05-02T10:10:31.538Z</time></trkpt><trkpt lat="45.5180328" lon="11.5276844"><ele>28.0</ele><time>2026-05-02T10:10:32.539Z</time></trkpt><trkpt lat="45.518083" lon="11.5273328"><ele>27.5</ele><time>2026-05-02T10:10:33.539Z</time></trkpt><trkpt lat="45.5181314" lon="11.5269755"><ele>27.0</ele><time>2026-05-02T10:10:34.538Z</time></trkpt><trkpt lat="45.5181769" lon="11.5266205"><ele>27.0</ele><time>2026-05-02T10:10:35.538Z</time></trkpt><trkpt lat="45.5182171" lon="11.5262577"><ele>27.0</ele><time>2026-05-02T10:10:36.539Z</time></trkpt><trkpt lat="45.5182533" lon="11.5258961"><ele>28.0</ele><time>2026-05-02T10:10:37.539Z</time></trkpt><trkpt lat="45.5182881" lon="11.5255301"><ele>29.0</ele><time>2026-05-02T10:10:38.539Z</time></trkpt><trkpt lat="45.5183216" lon="11.525164"><ele>29.0</ele><time>2026-05-02T10:10:39.538Z</time></trkpt><trkpt lat="45.518351" lon="11.5247965"><ele>29.0</ele><time>2026-05-02T10:10:40.538Z</time></trkpt><trkpt lat="45.5183768" lon="11.5244234"><ele>29.0</ele><time>2026-05-02T10:10:41.538Z</time></trkpt><trkpt lat="45.5183956" lon="11.5240541"><ele>29.0</ele><time>2026-05-02T10:10:42.538Z</time></trkpt><trkpt lat="45.5184132" lon="11.5236842"><ele>29.0</ele><time>2026-05-02T10:10:43.539Z</time></trkpt><trkpt lat="45.5184246" lon="11.5233166"><ele>29.0</ele><time>2026-05-02T10:10:44.538Z</time></trkpt><trkpt lat="45.5184306" lon="11.5229496"><ele>29.5</ele><time>2026-05-02T10:10:45.538Z</time></trkpt><trkpt lat="45.5184322" lon="11.5225863"><ele>30.0</ele><time>2026-05-02T10:10:46.537Z</time></trkpt><trkpt lat="45.5184335" lon="11.5222256"><ele>30.5</ele><time>2026-05-02T10:10:47.539Z</time></trkpt><trkpt lat="45.5184331" lon="11.5218611"><ele>31.0</ele><time>2026-05-02T10:10:48.539Z</time></trkpt><trkpt lat="45.5184339" lon="11.5214933"><ele>31.5</ele><time>2026-05-02T10:10:49.539Z</time></trkpt><trkpt lat="45.5184328" lon="11.5211275"><ele>32.0</ele><time>2026-05-02T10:10:50.538Z</time></trkpt><trkpt lat="45.518432" lon="11.5207581"><ele>31.5</ele><time>2026-05-02T10:10:51.538Z</time></trkpt><trkpt lat="45.5184297" lon="11.5203875"><ele>31.0</ele><time>2026-05-02T10:10:52.539Z</time></trkpt><trkpt lat="45.5184287" lon="11.5200185"><ele>31.0</ele><time>2026-05-02T10:10:53.538Z</time></trkpt><trkpt lat="45.5184257" lon="11.5196514"><ele>31.0</ele><time>2026-05-02T10:10:54.537Z</time></trkpt><trkpt lat="45.5184211" lon="11.5192792"><ele>29.5</ele><time>2026-05-02T10:10:55.538Z</time></trkpt><trkpt lat="45.5184168" lon="11.518908"><ele>28.0</ele><time>2026-05-02T10:10:56.538Z</time></trkpt><trkpt lat="45.518415" lon="11.5185394"><ele>28.0</ele><time>2026-05-02T10:10:57.538Z</time></trkpt><trkpt lat="45.5184142" lon="11.518169"><ele>28.0</ele><time>2026-05-02T10:10:58.538Z</time></trkpt><trkpt lat="45.5184086" lon="11.5178001"><ele>28.0</ele><time>2026-05-02T10:10:59.538Z</time></trkpt><trkpt lat="45.5184071" lon="11.5174306"><ele>28.0</ele><time>2026-05-02T10:11:00.538Z</time></trkpt><trkpt lat="45.5184054" lon="11.5170629"><ele>28.0</ele><time>2026-05-02T10:11:01.537Z</time></trkpt><trkpt lat="45.5184027" lon="11.5167006"><ele>28.0</ele><time>2026-05-02T10:11:02.538Z</time></trkpt><trkpt lat="45.5183982" lon="11.5163497"><ele>28.5</ele><time>2026-05-02T10:11:03.538Z</time></trkpt><trkpt lat="45.5183946" lon="11.5159994"><ele>29.0</ele><time>2026-05-02T10:11:04.537Z</time></trkpt><trkpt lat="45.5183926" lon="11.5156518"><ele>29.0</ele><time>2026-05-02T10:11:05.538Z</time></trkpt><trkpt lat="45.5183902" lon="11.5153019"><ele>29.0</ele><time>2026-05-02T10:11:06.538Z</time></trkpt><trkpt lat="45.5183869" lon="11.5149556"><ele>29.0</ele><time>2026-05-02T10:11:07.539Z</time></trkpt><trkpt lat="45.5183777" lon="11.514604"><ele>29.0</ele><time>2026-05-02T10:11:08.539Z</time></trkpt><trkpt lat="45.5183666" lon="11.5142492"><ele>30.5</ele><time>2026-05-02T10:11:09.539Z</time></trkpt><trkpt lat="45.5183527" lon="11.5138766"><ele>32.0</ele><time>2026-05-02T10:11:10.538Z</time></trkpt><trkpt lat="45.5183404" lon="11.5134864"><ele>32.0</ele><time>2026-05-02T10:11:11.539Z</time></trkpt><trkpt lat="45.5183323" lon="11.5130875"><ele>32.0</ele><time>2026-05-02T10:11:12.539Z</time></trkpt><trkpt lat="45.5183239" lon="11.5126931"><ele>32.0</ele><time>2026-05-02T10:11:13.537Z</time></trkpt><trkpt lat="45.5183136" lon="11.5123066"><ele>32.0</ele><time>2026-05-02T10:11:14.538Z</time></trkpt><trkpt lat="45.5183074" lon="11.511933"><ele>31.5</ele><time>2026-05-02T10:11:15.538Z</time></trkpt><trkpt lat="45.5183064" lon="11.5115754"><ele>31.0</ele><time>2026-05-02T10:11:16.539Z</time></trkpt><trkpt lat="45.5183125" lon="11.5112379"><ele>31.0</ele><time>2026-05-02T10:11:17.539Z</time></trkpt><trkpt lat="45.5183224" lon="11.5109156"><ele>31.0</ele><time>2026-05-02T10:11:18.539Z</time></trkpt><trkpt lat="45.518331" lon="11.510598"><ele>31.0</ele><time>2026-05-02T10:11:19.539Z</time></trkpt><trkpt lat="45.5183398" lon="11.5102789"><ele>31.0</ele><time>2026-05-02T10:11:20.539Z</time></trkpt><trkpt lat="45.5183465" lon="11.5099657"><ele>31.0</ele><time>2026-05-02T10:11:21.538Z</time></trkpt><trkpt lat="45.518354" lon="11.5096533"><ele>31.0</ele><time>2026-05-02T10:11:22.539Z</time></trkpt><trkpt lat="45.5183616" lon="11.5093427"><ele>31.333333333333336</ele><time>2026-05-02T10:11:23.539Z</time></trkpt><trkpt lat="45.5183692" lon="11.5090386"><ele>31.666666666666664</ele><time>2026-05-02T10:11:24.539Z</time></trkpt><trkpt lat="45.5183776" lon="11.508735"><ele>32.0</ele><time>2026-05-02T10:11:25.538Z</time></trkpt><trkpt lat="45.5183873" lon="11.5084492"><ele>32.0</ele><time>2026-05-02T10:11:26.537Z</time></trkpt><trkpt lat="45.518403" lon="11.5081841"><ele>32.0</ele><time>2026-05-02T10:11:27.538Z</time></trkpt><trkpt lat="45.51843" lon="11.5079333"><ele>32.0</ele><time>2026-05-02T10:11:28.538Z</time></trkpt><trkpt lat="45.5184639" lon="11.5076972"><ele>32.0</ele><time>2026-05-02T10:11:29.538Z</time></trkpt><trkpt lat="45.518512" lon="11.5074788"><ele>32.0</ele><time>2026-05-02T10:11:30.538Z</time></trkpt><trkpt lat="45.5185803" lon="11.5072758"><ele>32.0</ele><time>2026-05-02T10:11:31.538Z</time></trkpt><trkpt lat="45.5186735" lon="11.5070922"><ele>30.666666666666664</ele><time>2026-05-02T10:11:32.538Z</time></trkpt><trkpt lat="45.5187883" lon="11.5069288"><ele>29.333333333333336</ele><time>2026-05-02T10:11:33.539Z</time></trkpt><trkpt lat="45.5189219" lon="11.5067852"><ele>28.0</ele><time>2026-05-02T10:11:34.539Z</time></trkpt><trkpt lat="45.5190756" lon="11.5066788"><ele>28.0</ele><time>2026-05-02T10:11:35.538Z</time></trkpt><trkpt lat="45.5192456" lon="11.5066087"><ele>28.0</ele><time>2026-05-02T10:11:36.538Z</time></trkpt><trkpt lat="45.5194267" lon="11.506578"><ele>28.0</ele><time>2026-05-02T10:11:37.537Z</time></trkpt><trkpt lat="45.5196159" lon="11.5065781"><ele>29.0</ele><time>2026-05-02T10:11:38.539Z</time></trkpt><trkpt lat="45.5198085" lon="11.5065787"><ele>30.0</ele><time>2026-05-02T10:11:39.538Z</time></trkpt><trkpt lat="45.519999" lon="11.5065502"><ele>31.0</ele><time>2026-05-02T10:11:40.538Z</time></trkpt><trkpt lat="45.5201799" lon="11.506498"><ele>31.0</ele><time>2026-05-02T10:11:41.539Z</time></trkpt><trkpt lat="45.5203496" lon="11.5064446"><ele>31.0</ele><time>2026-05-02T10:11:42.538Z</time></trkpt><trkpt lat="45.5205101" lon="11.5063921"><ele>31.0</ele><time>2026-05-02T10:11:43.539Z</time></trkpt><trkpt lat="45.5206667" lon="11.5063483"><ele>31.666666666666668</ele><time>2026-05-02T10:11:44.538Z</time></trkpt><trkpt lat="45.520825" lon="11.5063382"><ele>32.333333333333336</ele><time>2026-05-02T10:11:45.539Z</time></trkpt><trkpt lat="45.5209886" lon="11.5063576"><ele>33.0</ele><time>2026-05-02T10:11:46.538Z</time></trkpt><trkpt lat="45.5211555" lon="11.5064119"><ele>32.666666666666664</ele><time>2026-05-02T10:11:47.538Z</time></trkpt><trkpt lat="45.5213286" lon="11.5064923"><ele>32.33333333333333</ele><time>2026-05-02T10:11:48.539Z</time></trkpt><trkpt lat="45.52151" lon="11.5065857"><ele>32.0</ele><time>2026-05-02T10:11:49.539Z</time></trkpt><trkpt lat="45.521699" lon="11.5066775"><ele>32.0</ele><time>2026-05-02T10:11:50.539Z</time></trkpt><trkpt lat="45.5218957" lon="11.5067647"><ele>32.0</ele><time>2026-05-02T10:11:51.539Z</time></trkpt><trkpt lat="45.5220979" lon="11.5068468"><ele>32.0</ele><time>2026-05-02T10:11:52.538Z</time></trkpt><trkpt lat="45.5223046" lon="11.5069278"><ele>31.666666666666664</ele><time>2026-05-02T10:11:53.538Z</time></trkpt><trkpt lat="45.5225139" lon="11.5070083"><ele>31.333333333333336</ele><time>2026-05-02T10:11:54.538Z</time></trkpt><trkpt lat="45.5227234" lon="11.5070898"><ele>31.0</ele><time>2026-05-02T10:11:55.538Z</time></trkpt><trkpt lat="45.52294" lon="11.5071682"><ele>32.0</ele><time>2026-05-02T10:11:56.539Z</time></trkpt><trkpt lat="45.5231646" lon="11.5072457"><ele>33.0</ele><time>2026-05-02T10:11:57.538Z</time></trkpt><trkpt lat="45.5233952" lon="11.5073279"><ele>33.0</ele><time>2026-05-02T10:11:58.539Z</time></trkpt><trkpt lat="45.5236322" lon="11.5074139"><ele>33.0</ele><time>2026-05-02T10:11:59.538Z</time></trkpt><trkpt lat="45.5238736" lon="11.5075048"><ele>32.5</ele><time>2026-05-02T10:12:00.537Z</time></trkpt><trkpt lat="45.5241195" lon="11.5075983"><ele>32.0</ele><time>2026-05-02T10:12:01.538Z</time></trkpt><trkpt lat="45.5243679" lon="11.5076916"><ele>33.0</ele><time>2026-05-02T10:12:02.538Z</time></trkpt><trkpt lat="45.5246175" lon="11.5077852"><ele>34.0</ele><time>2026-05-02T10:12:03.538Z</time></trkpt><trkpt lat="45.524868" lon="11.5078788"><ele>33.0</ele><time>2026-05-02T10:12:04.538Z</time></trkpt><trkpt lat="45.525118" lon="11.5079705"><ele>32.0</ele><time>2026-05-02T10:12:05.539Z</time></trkpt><trkpt lat="45.5253661" lon="11.5080616"><ele>32.5</ele><time>2026-05-02T10:12:06.539Z</time></trkpt><trkpt lat="45.5256128" lon="11.5081532"><ele>33.0</ele><time>2026-05-02T10:12:07.539Z</time></trkpt><trkpt lat="45.5258559" lon="11.508244"><ele>33.0</ele><time>2026-05-02T10:12:08.538Z</time></trkpt><trkpt lat="45.5260977" lon="11.508335"><ele>33.0</ele><time>2026-05-02T10:12:09.539Z</time></trkpt><trkpt lat="45.5263393" lon="11.5084223"><ele>33.0</ele><time>2026-05-02T10:12:10.538Z</time></trkpt><trkpt lat="45.5265812" lon="11.508508"><ele>33.0</ele><time>2026-05-02T10:12:11.538Z</time></trkpt><trkpt lat="45.5268238" lon="11.5085931"><ele>32.0</ele><time>2026-05-02T10:12:12.537Z</time></trkpt><trkpt lat="45.5270689" lon="11.508679"><ele>31.0</ele><time>2026-05-02T10:12:13.538Z</time></trkpt><trkpt lat="45.5273133" lon="11.5087661"><ele>31.0</ele><time>2026-05-02T10:12:14.538Z</time></trkpt><trkpt lat="45.5275606" lon="11.5088567"><ele>31.0</ele><time>2026-05-02T10:12:15.538Z</time></trkpt><trkpt lat="45.5278087" lon="11.5089406"><ele>31.5</ele><time>2026-05-02T10:12:16.538Z</time></trkpt><trkpt lat="45.5280582" lon="11.5090217"><ele>32.0</ele><time>2026-05-02T10:12:17.538Z</time></trkpt><trkpt lat="45.5283066" lon="11.5091191"><ele>32.0</ele><time>2026-05-02T10:12:18.538Z</time></trkpt><trkpt lat="45.5285517" lon="11.5092323"><ele>32.0</ele><time>2026-05-02T10:12:19.537Z</time></trkpt><trkpt lat="45.5287968" lon="11.5093459"><ele>33.0</ele><time>2026-05-02T10:12:20.539Z</time></trkpt><trkpt lat="45.5290444" lon="11.5094476"><ele>34.0</ele><time>2026-05-02T10:12:21.538Z</time></trkpt><trkpt lat="45.5292938" lon="11.5095461"><ele>34.0</ele><time>2026-05-02T10:12:22.537Z</time></trkpt><trkpt lat="45.5295418" lon="11.5096396"><ele>34.0</ele><time>2026-05-02T10:12:23.538Z</time></trkpt><trkpt lat="45.5297862" lon="11.5097308"><ele>32.0</ele><time>2026-05-02T10:12:24.538Z</time></trkpt><trkpt lat="45.5300294" lon="11.5098141"><ele>30.0</ele><time>2026-05-02T10:12:25.538Z</time></trkpt><trkpt lat="45.5302696" lon="11.5098837"><ele>29.5</ele><time>2026-05-02T10:12:26.538Z</time></trkpt><trkpt lat="45.530506" lon="11.509926"><ele>29.0</ele><time>2026-05-02T10:12:27.538Z</time></trkpt><trkpt lat="45.5307419" lon="11.5099314"><ele>29.0</ele><time>2026-05-02T10:12:28.539Z</time></trkpt><trkpt lat="45.5309783" lon="11.5099096"><ele>29.0</ele><time>2026-05-02T10:12:29.538Z</time></trkpt><trkpt lat="45.5312111" lon="11.5098582"><ele>30.5</ele><time>2026-05-02T10:12:30.539Z</time></trkpt><trkpt lat="45.531438" lon="11.5097771"><ele>32.0</ele><time>2026-05-02T10:12:31.538Z</time></trkpt><trkpt lat="45.5316574" lon="11.5096672"><ele>32.33333333333333</ele><time>2026-05-02T10:12:32.538Z</time></trkpt><trkpt lat="45.5318651" lon="11.509536"><ele>32.666666666666664</ele><time>2026-05-02T10:12:33.537Z</time></trkpt><trkpt lat="45.5320591" lon="11.5094046"><ele>33.0</ele><time>2026-05-02T10:12:34.538Z</time></trkpt><trkpt lat="45.5322398" lon="11.5092808"><ele>33.0</ele><time>2026-05-02T10:12:35.538Z</time></trkpt><trkpt lat="45.5324109" lon="11.5091586"><ele>33.0</ele><time>2026-05-02T10:12:36.539Z</time></trkpt><trkpt lat="45.5325701" lon="11.5090439"><ele>33.0</ele><time>2026-05-02T10:12:37.538Z</time></trkpt><trkpt lat="45.5327218" lon="11.5089307"><ele>33.0</ele><time>2026-05-02T10:12:38.538Z</time></trkpt><trkpt lat="45.5328713" lon="11.508828"><ele>33.0</ele><time>2026-05-02T10:12:39.538Z</time></trkpt><trkpt lat="45.5330201" lon="11.5087273"><ele>33.0</ele><time>2026-05-02T10:12:40.538Z</time></trkpt><trkpt lat="45.5331676" lon="11.5086285"><ele>33.666666666666664</ele><time>2026-05-02T10:12:41.538Z</time></trkpt><trkpt lat="45.533311" lon="11.508533"><ele>34.33333333333333</ele><time>2026-05-02T10:12:42.538Z</time></trkpt><trkpt lat="45.533454" lon="11.5084469"><ele>35.0</ele><time>2026-05-02T10:12:43.539Z</time></trkpt><trkpt lat="45.5335997" lon="11.5083652"><ele>34.666666666666664</ele><time>2026-05-02T10:12:44.538Z</time></trkpt><trkpt lat="45.533749" lon="11.5082849"><ele>34.333333333333336</ele><time>2026-05-02T10:12:45.538Z</time></trkpt><trkpt lat="45.5339049" lon="11.5082193"><ele>34.0</ele><time>2026-05-02T10:12:46.538Z</time></trkpt><trkpt lat="45.534067" lon="11.5081666"><ele>34.0</ele><time>2026-05-02T10:12:47.539Z</time></trkpt><trkpt lat="45.5342357" lon="11.5081281"><ele>34.0</ele><time>2026-05-02T10:12:48.537Z</time></trkpt><trkpt lat="45.5344109" lon="11.5081025"><ele>34.0</ele><time>2026-05-02T10:12:49.539Z</time></trkpt><trkpt lat="45.5345916" lon="11.5080867"><ele>34.0</ele><time>2026-05-02T10:12:50.538Z</time></trkpt><trkpt lat="45.534777" lon="11.5080664"><ele>34.0</ele><time>2026-05-02T10:12:51.538Z</time></trkpt><trkpt lat="45.5349654" lon="11.508042"><ele>34.0</ele><time>2026-05-02T10:12:52.538Z</time></trkpt><trkpt lat="45.5351564" lon="11.5080186"><ele>34.0</ele><time>2026-05-02T10:12:53.538Z</time></trkpt><trkpt lat="45.5353464" lon="11.5079942"><ele>34.0</ele><time>2026-05-02T10:12:54.538Z</time></trkpt><trkpt lat="45.5355278" lon="11.5079711"><ele>34.0</ele><time>2026-05-02T10:12:55.539Z</time></trkpt><trkpt lat="45.5357033" lon="11.5079507"><ele>35.333333333333336</ele><time>2026-05-02T10:12:56.538Z</time></trkpt><trkpt lat="45.5358782" lon="11.5079335"><ele>36.666666666666664</ele><time>2026-05-02T10:12:57.537Z</time></trkpt><trkpt lat="45.5360539" lon="11.5079185"><ele>38.0</ele><time>2026-05-02T10:12:58.538Z</time></trkpt><trkpt lat="45.5362273" lon="11.5079033"><ele>38.0</ele><time>2026-05-02T10:12:59.539Z</time></trkpt><trkpt lat="45.5364009" lon="11.5078907"><ele>38.0</ele><time>2026-05-02T10:13:00.538Z</time></trkpt><trkpt lat="45.5365761" lon="11.5078888"><ele>38.0</ele><time>2026-05-02T10:13:01.538Z</time></trkpt><trkpt lat="45.5367493" lon="11.5078977"><ele>38.0</ele><time>2026-05-02T10:13:02.538Z</time></trkpt><trkpt lat="45.5369223" lon="11.5079136"><ele>38.0</ele><time>2026-05-02T10:13:03.538Z</time></trkpt><trkpt lat="45.537095" lon="11.5079319"><ele>38.0</ele><time>2026-05-02T10:13:04.538Z</time></trkpt><trkpt lat="45.5372674" lon="11.5079563"><ele>37.33333333333333</ele><time>2026-05-02T10:13:05.538Z</time></trkpt><trkpt lat="45.5374429" lon="11.5079832"><ele>36.666666666666664</ele><time>2026-05-02T10:13:06.538Z</time></trkpt><trkpt lat="45.5376194" lon="11.5080131"><ele>36.0</ele><time>2026-05-02T10:13:07.538Z</time></trkpt><trkpt lat="45.5377868" lon="11.5080388"><ele>35.75</ele><time>2026-05-02T10:13:08.538Z</time></trkpt><trkpt lat="45.5379379" lon="11.5080658"><ele>35.5</ele><time>2026-05-02T10:13:09.538Z</time></trkpt><trkpt lat="45.5380785" lon="11.5080989"><ele>35.25</ele><time>2026-05-02T10:13:10.538Z</time></trkpt><trkpt lat="45.5382073" lon="11.5081442"><ele>35.0</ele><time>2026-05-02T10:13:11.538Z</time></trkpt><trkpt lat="45.5383191" lon="11.5082308"><ele>35.0</ele><time>2026-05-02T10:13:12.538Z</time></trkpt><trkpt lat="45.5384122" lon="11.5083541"><ele>35.0</ele><time>2026-05-02T10:13:13.538Z</time></trkpt><trkpt lat="45.5384765" lon="11.5085138"><ele>35.0</ele><time>2026-05-02T10:13:14.538Z</time></trkpt><trkpt lat="45.5385004" lon="11.5086917"><ele>35.0</ele><time>2026-05-02T10:13:15.538Z</time></trkpt><trkpt lat="45.538482" lon="11.5088617"><ele>34.5</ele><time>2026-05-02T10:13:16.537Z</time></trkpt><trkpt lat="45.5384245" lon="11.5090019"><ele>34.0</ele><time>2026-05-02T10:13:17.539Z</time></trkpt><trkpt lat="45.5383371" lon="11.5090973"><ele>33.5</ele><time>2026-05-02T10:13:18.538Z</time></trkpt><trkpt lat="45.5382259" lon="11.5091471"><ele>33.0</ele><time>2026-05-02T10:13:19.538Z</time></trkpt><trkpt lat="45.5380948" lon="11.5091496"><ele>33.0</ele><time>2026-05-02T10:13:20.537Z</time></trkpt><trkpt lat="45.5379505" lon="11.5091024"><ele>33.0</ele><time>2026-05-02T10:13:21.538Z</time></trkpt><trkpt lat="45.5378033" lon="11.5090011"><ele>33.0</ele><time>2026-05-02T10:13:22.539Z</time></trkpt><trkpt lat="45.5376504" lon="11.5088693"><ele>34.0</ele><time>2026-05-02T10:13:23.539Z</time></trkpt><trkpt lat="45.5374786" lon="11.5087329"><ele>35.0</ele><time>2026-05-02T10:13:24.538Z</time></trkpt><trkpt lat="45.5373" lon="11.5085896"><ele>36.0</ele><time>2026-05-02T10:13:25.539Z</time></trkpt><trkpt lat="45.5371156" lon="11.5084387"><ele>36.666666666666664</ele><time>2026-05-02T10:13:26.537Z</time></trkpt><trkpt lat="45.5369353" lon="11.5083005"><ele>37.33333333333333</ele><time>2026-05-02T10:13:27.537Z</time></trkpt><trkpt lat="45.5367531" lon="11.5081915"><ele>38.0</ele><time>2026-05-02T10:13:28.538Z</time></trkpt><trkpt lat="45.5365716" lon="11.5081177"><ele>38.0</ele><time>2026-05-02T10:13:29.538Z</time></trkpt><trkpt lat="45.5363873" lon="11.5080747"><ele>38.0</ele><time>2026-05-02T10:13:30.538Z</time></trkpt><trkpt lat="45.5362017" lon="11.5080705"><ele>38.0</ele><time>2026-05-02T10:13:31.539Z</time></trkpt><trkpt lat="45.536027" lon="11.5080886"><ele>38.0</ele><time>2026-05-02T10:13:32.539Z</time></trkpt><trkpt lat="45.5358707" lon="11.508136"><ele>38.0</ele><time>2026-05-02T10:13:33.538Z</time></trkpt><trkpt lat="45.5357391" lon="11.5081932"><ele>38.0</ele><time>2026-05-02T10:13:34.538Z</time></trkpt><trkpt lat="45.5356249" lon="11.5082483"><ele>38.0</ele><time>2026-05-02T10:13:35.538Z</time></trkpt><trkpt lat="45.5355294" lon="11.5082723"><ele>38.0</ele><time>2026-05-02T10:13:36.538Z</time></trkpt><trkpt lat="45.5354532" lon="11.5082668"><ele>38.0</ele><time>2026-05-02T10:13:37.538Z</time></trkpt><trkpt lat="45.5353831" lon="11.5082542"><ele>38.0</ele><time>2026-05-02T10:13:39.538Z</time></trkpt><trkpt lat="45.5352989" lon="11.5082076"><ele>38.0</ele><time>2026-05-02T10:13:41.538Z</time></trkpt><trkpt lat="45.5352306" lon="11.5081856"><ele>38.0</ele><time>2026-05-02T10:13:42.538Z</time></trkpt><trkpt lat="45.5351532" lon="11.5081949"><ele>38.0</ele><time>2026-05-02T10:13:43.538Z</time></trkpt><trkpt lat="45.5350779" lon="11.5082276"><ele>37.33333333333333</ele><time>2026-05-02T10:13:44.538Z</time></trkpt><trkpt lat="45.5350025" lon="11.50826"><ele>36.666666666666664</ele><time>2026-05-02T10:13:45.538Z</time></trkpt><trkpt lat="45.5349266" lon="11.5082667"><ele>36.0</ele><time>2026-05-02T10:13:46.538Z</time></trkpt><trkpt lat="45.5348543" lon="11.5082417"><ele>35.333333333333336</ele><time>2026-05-02T10:13:47.537Z</time></trkpt><trkpt lat="45.5347905" lon="11.5081806"><ele>34.66666666666667</ele><time>2026-05-02T10:13:48.539Z</time></trkpt><trkpt lat="45.5347268" lon="11.508102"><ele>34.0</ele><time>2026-05-02T10:13:49.538Z</time></trkpt><trkpt lat="45.5346712" lon="11.5080078"><ele>33.8</ele><time>2026-05-02T10:13:50.538Z</time></trkpt><trkpt lat="45.5346142" lon="11.5078976"><ele>33.599999999999994</ele><time>2026-05-02T10:13:51.539Z</time></trkpt><trkpt lat="45.5345502" lon="11.5077622"><ele>33.4</ele><time>2026-05-02T10:13:52.538Z</time></trkpt><trkpt lat="45.5344872" lon="11.5076327"><ele>33.199999999999996</ele><time>2026-05-02T10:13:53.538Z</time></trkpt><trkpt lat="45.5344148" lon="11.5075015"><ele>33.0</ele><time>2026-05-02T10:13:54.538Z</time></trkpt><trkpt lat="45.5343432" lon="11.5073696"><ele>33.0</ele><time>2026-05-02T10:13:55.538Z</time></trkpt><trkpt lat="45.5342725" lon="11.5072373"><ele>33.0</ele><time>2026-05-02T10:13:56.539Z</time></trkpt><trkpt lat="45.5342015" lon="11.5071081"><ele>33.0</ele><time>2026-05-02T10:13:57.538Z</time></trkpt><trkpt lat="45.5341359" lon="11.5069813"><ele>33.0</ele><time>2026-05-02T10:13:58.537Z</time></trkpt><trkpt lat="45.5340903" lon="11.5068543"><ele>33.0</ele><time>2026-05-02T10:13:59.537Z</time></trkpt><trkpt lat="45.5340754" lon="11.5067194"><ele>33.0</ele><time>2026-05-02T10:14:00.537Z</time></trkpt><trkpt lat="45.5340864" lon="11.5065929"><ele>33.0</ele><time>2026-05-02T10:14:01.538Z</time></trkpt><trkpt lat="45.534128" lon="11.5064825"><ele>33.0</ele><time>2026-05-02T10:14:02.538Z</time></trkpt><trkpt lat="45.5341949" lon="11.5064032"><ele>33.0</ele><time>2026-05-02T10:14:03.538Z</time></trkpt><trkpt lat="45.5342797" lon="11.5063574"><ele>33.0</ele><time>2026-05-02T10:14:04.538Z</time></trkpt><trkpt lat="45.5343816" lon="11.5063368"><ele>33.0</ele><time>2026-05-02T10:14:05.538Z</time></trkpt><trkpt lat="45.5344971" lon="11.5063362"><ele>33.0</ele><time>2026-05-02T10:14:06.538Z</time></trkpt><trkpt lat="45.5346202" lon="11.5063427"><ele>33.0</ele><time>2026-05-02T10:14:07.538Z</time></trkpt><trkpt lat="45.5347505" lon="11.5063443"><ele>33.0</ele><time>2026-05-02T10:14:08.538Z</time></trkpt><trkpt lat="45.5348713" lon="11.5063343"><ele>33.0</ele><time>2026-05-02T10:14:09.539Z</time></trkpt><trkpt lat="45.5350339" lon="11.5062658"><ele>33.0</ele><time>2026-05-02T10:14:10.537Z</time></trkpt><trkpt lat="45.5351846" lon="11.5062062"><ele>33.0</ele><time>2026-05-02T10:14:11.538Z</time></trkpt><trkpt lat="45.5353345" lon="11.5061251"><ele>33.666666666666664</ele><time>2026-05-02T10:14:12.538Z</time></trkpt><trkpt lat="45.535485" lon="11.5060296"><ele>34.33333333333333</ele><time>2026-05-02T10:14:13.538Z</time></trkpt><trkpt lat="45.5356322" lon="11.5059227"><ele>35.0</ele><time>2026-05-02T10:14:14.537Z</time></trkpt><trkpt lat="45.5357761" lon="11.5058103"><ele>35.0</ele><time>2026-05-02T10:14:15.537Z</time></trkpt><trkpt lat="45.535912" lon="11.505706"><ele>35.0</ele><time>2026-05-02T10:14:16.539Z</time></trkpt><trkpt lat="45.5360406" lon="11.5056063"><ele>35.0</ele><time>2026-05-02T10:14:17.539Z</time></trkpt><trkpt lat="45.53616" lon="11.5055127"><ele>35.0</ele><time>2026-05-02T10:14:18.537Z</time></trkpt><trkpt lat="45.5362679" lon="11.505419"><ele>35.0</ele><time>2026-05-02T10:14:19.538Z</time></trkpt><trkpt lat="45.536369" lon="11.5053313"><ele>35.0</ele><time>2026-05-02T10:14:20.538Z</time></trkpt><trkpt lat="45.5364746" lon="11.5052457"><ele>35.0</ele><time>2026-05-02T10:14:21.538Z</time></trkpt><trkpt lat="45.5365844" lon="11.5051763"><ele>35.0</ele><time>2026-05-02T10:14:22.538Z</time></trkpt><trkpt lat="45.5366954" lon="11.5051211"><ele>35.0</ele><time>2026-05-02T10:14:23.537Z</time></trkpt><trkpt lat="45.536808" lon="11.5050705"><ele>35.0</ele><time>2026-05-02T10:14:24.538Z</time></trkpt><trkpt lat="45.5369203" lon="11.5050199"><ele>35.0</ele><time>2026-05-02T10:14:25.539Z</time></trkpt><trkpt lat="45.5370281" lon="11.5049757"><ele>35.0</ele><time>2026-05-02T10:14:26.538Z</time></trkpt><trkpt lat="45.5371232" lon="11.5049382"><ele>35.0</ele><time>2026-05-02T10:14:27.538Z</time></trkpt><trkpt lat="45.5372008" lon="11.5049027"><ele>34.4</ele><time>2026-05-02T10:14:28.537Z</time></trkpt><trkpt lat="45.5372541" lon="11.5048527"><ele>33.8</ele><time>2026-05-02T10:14:29.538Z</time></trkpt><trkpt lat="45.5372794" lon="11.5046983"><ele>33.2</ele><time>2026-05-02T10:14:31.537Z</time></trkpt><trkpt lat="45.5372485" lon="11.5045155"><ele>32.6</ele><time>2026-05-02T10:14:33.538Z</time></trkpt><trkpt lat="45.5372259" lon="11.504403"><ele>32.0</ele><time>2026-05-02T10:14:34.538Z</time></trkpt><trkpt lat="45.5371995" lon="11.5042829"><ele>31.833333333333332</ele><time>2026-05-02T10:14:35.538Z</time></trkpt><trkpt lat="45.5371696" lon="11.5041662"><ele>31.666666666666664</ele><time>2026-05-02T10:14:36.539Z</time></trkpt><trkpt lat="45.5371414" lon="11.5040521"><ele>31.5</ele><time>2026-05-02T10:14:37.538Z</time></trkpt><trkpt lat="45.5371145" lon="11.5039357"><ele>31.333333333333336</ele><time>2026-05-02T10:14:38.538Z</time></trkpt><trkpt lat="45.5370907" lon="11.5038333"><ele>31.166666666666668</ele><time>2026-05-02T10:14:39.538Z</time></trkpt><trkpt lat="45.5370611" lon="11.5036863"><ele>31.0</ele><time>2026-05-02T10:14:41.538Z</time></trkpt><trkpt lat="45.5370635" lon="11.5035818"><ele>31.0</ele><time>2026-05-02T10:14:44.537Z</time></trkpt><trkpt lat="45.5371386" lon="11.5035193"><ele>31.0</ele><time>2026-05-02T10:14:46.539Z</time></trkpt><trkpt lat="45.5372309" lon="11.5034899"><ele>31.0</ele><time>2026-05-02T10:14:47.539Z</time></trkpt><trkpt lat="45.5373482" lon="11.5034429"><ele>31.0</ele><time>2026-05-02T10:14:48.539Z</time></trkpt><trkpt lat="45.5374917" lon="11.5033855"><ele>31.0</ele><time>2026-05-02T10:14:49.538Z</time></trkpt><trkpt lat="45.5376613" lon="11.5033131"><ele>31.0</ele><time>2026-05-02T10:14:50.538Z</time></trkpt><trkpt lat="45.5378514" lon="11.5032321"><ele>31.0</ele><time>2026-05-02T10:14:51.538Z</time></trkpt><trkpt lat="45.5380555" lon="11.5031481"><ele>30.666666666666668</ele><time>2026-05-02T10:14:52.539Z</time></trkpt><trkpt lat="45.5382671" lon="11.503063"><ele>30.333333333333336</ele><time>2026-05-02T10:14:53.537Z</time></trkpt><trkpt lat="45.5384811" lon="11.5029756"><ele>30.0</ele><time>2026-05-02T10:14:54.539Z</time></trkpt><trkpt lat="45.5386967" lon="11.5028857"><ele>30.666666666666664</ele><time>2026-05-02T10:14:55.538Z</time></trkpt><trkpt lat="45.5389094" lon="11.5027989"><ele>31.333333333333332</ele><time>2026-05-02T10:14:56.538Z</time></trkpt><trkpt lat="45.5391164" lon="11.5027166"><ele>32.0</ele><time>2026-05-02T10:14:57.538Z</time></trkpt><trkpt lat="45.5393177" lon="11.5026407"><ele>32.0</ele><time>2026-05-02T10:14:58.538Z</time></trkpt><trkpt lat="45.539516" lon="11.5025734"><ele>32.0</ele><time>2026-05-02T10:14:59.538Z</time></trkpt><trkpt lat="45.539709" lon="11.5025176"><ele>32.0</ele><time>2026-05-02T10:15:00.538Z</time></trkpt><trkpt lat="45.5398964" lon="11.5024664"><ele>31.666666666666664</ele><time>2026-05-02T10:15:01.538Z</time></trkpt><trkpt lat="45.540078" lon="11.5024199"><ele>31.333333333333336</ele><time>2026-05-02T10:15:02.538Z</time></trkpt><trkpt lat="45.5402551" lon="11.5023782"><ele>31.0</ele><time>2026-05-02T10:15:03.538Z</time></trkpt><trkpt lat="45.5404261" lon="11.5023341"><ele>31.0</ele><time>2026-05-02T10:15:04.539Z</time></trkpt><trkpt lat="45.5405908" lon="11.5022935"><ele>31.0</ele><time>2026-05-02T10:15:05.538Z</time></trkpt><trkpt lat="45.5407424" lon="11.5022588"><ele>31.0</ele><time>2026-05-02T10:15:06.539Z</time></trkpt><trkpt lat="45.5408848" lon="11.5022236"><ele>31.0</ele><time>2026-05-02T10:15:07.538Z</time></trkpt><trkpt lat="45.5410127" lon="11.5021927"><ele>31.0</ele><time>2026-05-02T10:15:08.538Z</time></trkpt><trkpt lat="45.5411236" lon="11.502169"><ele>31.0</ele><time>2026-05-02T10:15:09.538Z</time></trkpt><trkpt lat="45.5412043" lon="11.5021438"><ele>31.0</ele><time>2026-05-02T10:15:10.538Z</time></trkpt><trkpt lat="45.5412716" lon="11.5020898"><ele>31.0</ele><time>2026-05-02T10:15:11.538Z</time></trkpt><trkpt lat="45.5413154" lon="11.5019965"><ele>31.4</ele><time>2026-05-02T10:15:12.539Z</time></trkpt><trkpt lat="45.5413285" lon="11.5018777"><ele>31.8</ele><time>2026-05-02T10:15:13.539Z</time></trkpt><trkpt lat="45.5413182" lon="11.5017381"><ele>32.199999999999996</ele><time>2026-05-02T10:15:14.538Z</time></trkpt><trkpt lat="45.5412937" lon="11.5015721"><ele>32.6</ele><time>2026-05-02T10:15:15.538Z</time></trkpt><trkpt lat="45.5412598" lon="11.5013944"><ele>33.0</ele><time>2026-05-02T10:15:16.537Z</time></trkpt><trkpt lat="45.5412203" lon="11.5012047"><ele>33.25</ele><time>2026-05-02T10:15:17.538Z</time></trkpt><trkpt lat="45.5411809" lon="11.5010083"><ele>33.5</ele><time>2026-05-02T10:15:18.538Z</time></trkpt><trkpt lat="45.5411442" lon="11.5008169"><ele>33.75</ele><time>2026-05-02T10:15:19.538Z</time></trkpt><trkpt lat="45.5411017" lon="11.5006118"><ele>34.0</ele><time>2026-05-02T10:15:20.537Z</time></trkpt><trkpt lat="45.5410603" lon="11.500401"><ele>33.333333333333336</ele><time>2026-05-02T10:15:21.538Z</time></trkpt><trkpt lat="45.5410184" lon="11.5001847"><ele>32.666666666666664</ele><time>2026-05-02T10:15:22.538Z</time></trkpt><trkpt lat="45.540974" lon="11.4999711"><ele>32.0</ele><time>2026-05-02T10:15:23.538Z</time></trkpt><trkpt lat="45.540932" lon="11.4997628"><ele>32.5</ele><time>2026-05-02T10:15:24.538Z</time></trkpt><trkpt lat="45.5408922" lon="11.4995665"><ele>33.0</ele><time>2026-05-02T10:15:25.538Z</time></trkpt><trkpt lat="45.5408515" lon="11.4993848"><ele>33.5</ele><time>2026-05-02T10:15:26.538Z</time></trkpt><trkpt lat="45.5407994" lon="11.4992121"><ele>34.0</ele><time>2026-05-02T10:15:27.538Z</time></trkpt><trkpt lat="45.5407281" lon="11.4990416"><ele>34.0</ele><time>2026-05-02T10:15:28.537Z</time></trkpt><trkpt lat="45.540643" lon="11.4988738"><ele>34.0</ele><time>2026-05-02T10:15:29.539Z</time></trkpt><trkpt lat="45.5405502" lon="11.4986989"><ele>34.0</ele><time>2026-05-02T10:15:30.537Z</time></trkpt><trkpt lat="45.5404537" lon="11.4985157"><ele>34.333333333333336</ele><time>2026-05-02T10:15:31.538Z</time></trkpt><trkpt lat="45.540354" lon="11.4983281"><ele>34.666666666666664</ele><time>2026-05-02T10:15:32.537Z</time></trkpt><trkpt lat="45.5402497" lon="11.4981401"><ele>35.0</ele><time>2026-05-02T10:15:33.538Z</time></trkpt><trkpt lat="45.540148" lon="11.4979516"><ele>34.666666666666664</ele><time>2026-05-02T10:15:34.537Z</time></trkpt><trkpt lat="45.5400486" lon="11.4977655"><ele>34.333333333333336</ele><time>2026-05-02T10:15:35.538Z</time></trkpt><trkpt lat="45.5399519" lon="11.4975807"><ele>34.0</ele><time>2026-05-02T10:15:36.537Z</time></trkpt><trkpt lat="45.5398612" lon="11.4973967"><ele>34.0</ele><time>2026-05-02T10:15:37.538Z</time></trkpt><trkpt lat="45.539777" lon="11.4972092"><ele>34.0</ele><time>2026-05-02T10:15:38.538Z</time></trkpt><trkpt lat="45.5396939" lon="11.4970204"><ele>34.0</ele><time>2026-05-02T10:15:39.538Z</time></trkpt><trkpt lat="45.539612" lon="11.496828"><ele>33.66666666666667</ele><time>2026-05-02T10:15:40.538Z</time></trkpt><trkpt lat="45.5395302" lon="11.4966343"><ele>33.333333333333336</ele><time>2026-05-02T10:15:41.537Z</time></trkpt><trkpt lat="45.5394468" lon="11.4964429"><ele>33.0</ele><time>2026-05-02T10:15:42.537Z</time></trkpt><trkpt lat="45.5393657" lon="11.4962497"><ele>33.0</ele><time>2026-05-02T10:15:43.538Z</time></trkpt><trkpt lat="45.539284" lon="11.4960589"><ele>33.0</ele><time>2026-05-02T10:15:44.538Z</time></trkpt><trkpt lat="45.5392049" lon="11.4958683"><ele>33.0</ele><time>2026-05-02T10:15:45.537Z</time></trkpt><trkpt lat="45.5391269" lon="11.4956772"><ele>33.0</ele><time>2026-05-02T10:15:46.538Z</time></trkpt><trkpt lat="45.5390472" lon="11.4954833"><ele>33.0</ele><time>2026-05-02T10:15:47.538Z</time></trkpt><trkpt lat="45.5389694" lon="11.4952881"><ele>33.0</ele><time>2026-05-02T10:15:48.538Z</time></trkpt><trkpt lat="45.5388933" lon="11.495092"><ele>33.0</ele><time>2026-05-02T10:15:49.538Z</time></trkpt><trkpt lat="45.5388145" lon="11.4949007"><ele>33.0</ele><time>2026-05-02T10:15:50.538Z</time></trkpt><trkpt lat="45.5387275" lon="11.4947124"><ele>33.0</ele><time>2026-05-02T10:15:51.538Z</time></trkpt><trkpt lat="45.5386303" lon="11.4945337"><ele>33.0</ele><time>2026-05-02T10:15:52.538Z</time></trkpt><trkpt lat="45.5385257" lon="11.4943673"><ele>33.0</ele><time>2026-05-02T10:15:53.539Z</time></trkpt><trkpt lat="45.5384197" lon="11.4942154"><ele>33.0</ele><time>2026-05-02T10:15:54.538Z</time></trkpt><trkpt lat="45.5383176" lon="11.4940737"><ele>33.0</ele><time>2026-05-02T10:15:55.539Z</time></trkpt><trkpt lat="45.5382142" lon="11.4939278"><ele>33.0</ele><time>2026-05-02T10:15:56.539Z</time></trkpt><trkpt lat="45.5381069" lon="11.4937766"><ele>33.0</ele><time>2026-05-02T10:15:57.538Z</time></trkpt><trkpt lat="45.5380031" lon="11.4936142"><ele>33.0</ele><time>2026-05-02T10:15:58.538Z</time></trkpt><trkpt lat="45.5379043" lon="11.4934405"><ele>32.666666666666664</ele><time>2026-05-02T10:15:59.538Z</time></trkpt><trkpt lat="45.5378112" lon="11.4932566"><ele>32.33333333333333</ele><time>2026-05-02T10:16:00.538Z</time></trkpt><trkpt lat="45.5377244" lon="11.4930731"><ele>32.0</ele><time>2026-05-02T10:16:01.538Z</time></trkpt><trkpt lat="45.5376442" lon="11.4928891"><ele>32.0</ele><time>2026-05-02T10:16:02.539Z</time></trkpt><trkpt lat="45.5375652" lon="11.492716"><ele>32.0</ele><time>2026-05-02T10:16:03.537Z</time></trkpt><trkpt lat="45.537492" lon="11.4925551"><ele>32.0</ele><time>2026-05-02T10:16:04.538Z</time></trkpt><trkpt lat="45.5374292" lon="11.4924151"><ele>32.0</ele><time>2026-05-02T10:16:05.538Z</time></trkpt><trkpt lat="45.5373766" lon="11.4922801"><ele>32.0</ele><time>2026-05-02T10:16:06.537Z</time></trkpt><trkpt lat="45.5373525" lon="11.4921386"><ele>32.0</ele><time>2026-05-02T10:16:07.538Z</time></trkpt><trkpt lat="45.5373336" lon="11.4919913"><ele>32.0</ele><time>2026-05-02T10:16:08.538Z</time></trkpt><trkpt lat="45.5372865" lon="11.4918502"><ele>32.0</ele><time>2026-05-02T10:16:09.538Z</time></trkpt><trkpt lat="45.5372283" lon="11.4917064"><ele>32.0</ele><time>2026-05-02T10:16:10.537Z</time></trkpt><trkpt lat="45.5371957" lon="11.4915365"><ele>31.75</ele><time>2026-05-02T10:16:11.538Z</time></trkpt><trkpt lat="45.5371775" lon="11.4913469"><ele>31.5</ele><time>2026-05-02T10:16:12.538Z</time></trkpt><trkpt lat="45.5371623" lon="11.4911407"><ele>31.25</ele><time>2026-05-02T10:16:13.539Z</time></trkpt><trkpt lat="45.5371643" lon="11.4909292"><ele>31.0</ele><time>2026-05-02T10:16:14.538Z</time></trkpt><trkpt lat="45.537192" lon="11.4907214"><ele>31.0</ele><time>2026-05-02T10:16:15.538Z</time></trkpt><trkpt lat="45.5372426" lon="11.4905231"><ele>31.0</ele><time>2026-05-02T10:16:16.538Z</time></trkpt><trkpt lat="45.5373031" lon="11.4903301"><ele>31.0</ele><time>2026-05-02T10:16:17.538Z</time></trkpt><trkpt lat="45.5373616" lon="11.4901404"><ele>31.0</ele><time>2026-05-02T10:16:18.538Z</time></trkpt><trkpt lat="45.5374102" lon="11.4899443"><ele>31.333333333333336</ele><time>2026-05-02T10:16:19.538Z</time></trkpt><trkpt lat="45.5374438" lon="11.4897403"><ele>31.666666666666664</ele><time>2026-05-02T10:16:20.538Z</time></trkpt><trkpt lat="45.5374491" lon="11.4895222"><ele>32.0</ele><time>2026-05-02T10:16:21.539Z</time></trkpt><trkpt lat="45.5374351" lon="11.4893023"><ele>32.0</ele><time>2026-05-02T10:16:22.538Z</time></trkpt><trkpt lat="45.5373974" lon="11.489088"><ele>32.0</ele><time>2026-05-02T10:16:23.537Z</time></trkpt><trkpt lat="45.537338" lon="11.4888818"><ele>32.0</ele><time>2026-05-02T10:16:24.538Z</time></trkpt><trkpt lat="45.5372689" lon="11.4886818"><ele>32.33333333333333</ele><time>2026-05-02T10:16:25.538Z</time></trkpt><trkpt lat="45.5371959" lon="11.488464"><ele>32.666666666666664</ele><time>2026-05-02T10:16:26.538Z</time></trkpt><trkpt lat="45.5371184" lon="11.4882367"><ele>33.0</ele><time>2026-05-02T10:16:27.539Z</time></trkpt><trkpt lat="45.5370416" lon="11.4880136"><ele>33.333333333333336</ele><time>2026-05-02T10:16:28.538Z</time></trkpt><trkpt lat="45.5369753" lon="11.4877948"><ele>33.66666666666667</ele><time>2026-05-02T10:16:29.538Z</time></trkpt><trkpt lat="45.5369155" lon="11.4875875"><ele>34.0</ele><time>2026-05-02T10:16:30.538Z</time></trkpt><trkpt lat="45.5368569" lon="11.4873809"><ele>34.0</ele><time>2026-05-02T10:16:31.537Z</time></trkpt><trkpt lat="45.5368038" lon="11.4871843"><ele>34.0</ele><time>2026-05-02T10:16:32.539Z</time></trkpt><trkpt lat="45.5367466" lon="11.4869727"><ele>34.0</ele><time>2026-05-02T10:16:33.539Z</time></trkpt><trkpt lat="45.5366825" lon="11.4867455"><ele>34.0</ele><time>2026-05-02T10:16:34.538Z</time></trkpt><trkpt lat="45.5366129" lon="11.486531"><ele>34.0</ele><time>2026-05-02T10:16:35.537Z</time></trkpt><trkpt lat="45.5365393" lon="11.4863216"><ele>34.0</ele><time>2026-05-02T10:16:36.538Z</time></trkpt><trkpt lat="45.5364603" lon="11.4861117"><ele>34.333333333333336</ele><time>2026-05-02T10:16:37.538Z</time></trkpt><trkpt lat="45.5363801" lon="11.4859127"><ele>34.666666666666664</ele><time>2026-05-02T10:16:38.538Z</time></trkpt><trkpt lat="45.5363013" lon="11.4857205"><ele>35.0</ele><time>2026-05-02T10:16:39.538Z</time></trkpt><trkpt lat="45.5362264" lon="11.4855351"><ele>34.33333333333333</ele><time>2026-05-02T10:16:40.538Z</time></trkpt><trkpt lat="45.5361558" lon="11.4853455"><ele>33.666666666666664</ele><time>2026-05-02T10:16:41.538Z</time></trkpt><trkpt lat="45.5360868" lon="11.485151"><ele>33.0</ele><time>2026-05-02T10:16:42.538Z</time></trkpt><trkpt lat="45.5360202" lon="11.4849548"><ele>33.0</ele><time>2026-05-02T10:16:43.537Z</time></trkpt><trkpt lat="45.5359582" lon="11.4847498"><ele>33.0</ele><time>2026-05-02T10:16:44.539Z</time></trkpt><trkpt lat="45.5358908" lon="11.4845411"><ele>33.0</ele><time>2026-05-02T10:16:45.539Z</time></trkpt><trkpt lat="45.5358234" lon="11.484327"><ele>33.666666666666664</ele><time>2026-05-02T10:16:46.539Z</time></trkpt><trkpt lat="45.53576" lon="11.4841056"><ele>34.33333333333333</ele><time>2026-05-02T10:16:47.538Z</time></trkpt><trkpt lat="45.5356969" lon="11.4838823"><ele>35.0</ele><time>2026-05-02T10:16:48.538Z</time></trkpt><trkpt lat="45.5356334" lon="11.4836575"><ele>35.0</ele><time>2026-05-02T10:16:49.538Z</time></trkpt><trkpt lat="45.5355696" lon="11.4834359"><ele>35.0</ele><time>2026-05-02T10:16:50.538Z</time></trkpt><trkpt lat="45.5355084" lon="11.4832262"><ele>35.0</ele><time>2026-05-02T10:16:51.538Z</time></trkpt><trkpt lat="45.5354471" lon="11.4830141"><ele>35.33333333333333</ele><time>2026-05-02T10:16:52.538Z</time></trkpt><trkpt lat="45.5353851" lon="11.4828031"><ele>35.666666666666664</ele><time>2026-05-02T10:16:53.538Z</time></trkpt><trkpt lat="45.5353269" lon="11.4825913"><ele>36.0</ele><time>2026-05-02T10:16:54.538Z</time></trkpt><trkpt lat="45.5352659" lon="11.4823862"><ele>36.0</ele><time>2026-05-02T10:16:55.538Z</time></trkpt><trkpt lat="45.5352046" lon="11.4821824"><ele>36.0</ele><time>2026-05-02T10:16:56.538Z</time></trkpt><trkpt lat="45.5351445" lon="11.4819873"><ele>36.0</ele><time>2026-05-02T10:16:57.539Z</time></trkpt><trkpt lat="45.5350845" lon="11.4817902"><ele>35.333333333333336</ele><time>2026-05-02T10:16:58.538Z</time></trkpt><trkpt lat="45.5350187" lon="11.481594"><ele>34.66666666666667</ele><time>2026-05-02T10:16:59.538Z</time></trkpt><trkpt lat="45.5349472" lon="11.4814011"><ele>34.0</ele><time>2026-05-02T10:17:00.538Z</time></trkpt><trkpt lat="45.5348718" lon="11.4812167"><ele>34.0</ele><time>2026-05-02T10:17:01.538Z</time></trkpt><trkpt lat="45.5347898" lon="11.4810513"><ele>34.0</ele><time>2026-05-02T10:17:02.539Z</time></trkpt><trkpt lat="45.5346991" lon="11.4808959"><ele>34.0</ele><time>2026-05-02T10:17:03.538Z</time></trkpt><trkpt lat="45.5346108" lon="11.4807346"><ele>34.0</ele><time>2026-05-02T10:17:04.538Z</time></trkpt><trkpt lat="45.5345228" lon="11.4805674"><ele>34.25</ele><time>2026-05-02T10:17:05.537Z</time></trkpt><trkpt lat="45.5344373" lon="11.4804045"><ele>34.5</ele><time>2026-05-02T10:17:06.538Z</time></trkpt><trkpt lat="45.534354" lon="11.4802556"><ele>34.75</ele><time>2026-05-02T10:17:07.538Z</time></trkpt><trkpt lat="45.5342724" lon="11.4801109"><ele>35.0</ele><time>2026-05-02T10:17:08.539Z</time></trkpt><trkpt lat="45.534187" lon="11.4799663"><ele>35.0</ele><time>2026-05-02T10:17:09.538Z</time></trkpt><trkpt lat="45.534099" lon="11.4798258"><ele>35.0</ele><time>2026-05-02T10:17:10.539Z</time></trkpt><trkpt lat="45.5340126" lon="11.4796958"><ele>35.0</ele><time>2026-05-02T10:17:11.538Z</time></trkpt><trkpt lat="45.5339324" lon="11.4795795"><ele>35.0</ele><time>2026-05-02T10:17:12.538Z</time></trkpt><trkpt lat="45.5338578" lon="11.4794742"><ele>35.166666666666664</ele><time>2026-05-02T10:17:13.537Z</time></trkpt><trkpt lat="45.53379" lon="11.4793781"><ele>35.33333333333333</ele><time>2026-05-02T10:17:14.539Z</time></trkpt><trkpt lat="45.5337278" lon="11.4792892"><ele>35.5</ele><time>2026-05-02T10:17:15.538Z</time></trkpt><trkpt lat="45.5336697" lon="11.4792052"><ele>35.666666666666664</ele><time>2026-05-02T10:17:16.538Z</time></trkpt><trkpt lat="45.5336175" lon="11.4791239"><ele>35.833333333333336</ele><time>2026-05-02T10:17:17.537Z</time></trkpt><trkpt lat="45.5335676" lon="11.4790476"><ele>36.0</ele><time>2026-05-02T10:17:18.537Z</time></trkpt><trkpt lat="45.5335218" lon="11.4789751"><ele>36.0</ele><time>2026-05-02T10:17:19.539Z</time></trkpt><trkpt lat="45.5334783" lon="11.4789087"><ele>36.0</ele><time>2026-05-02T10:17:20.538Z</time></trkpt><trkpt lat="45.5334048" lon="11.4787711"><ele>36.0</ele><time>2026-05-02T10:17:22.538Z</time></trkpt><trkpt lat="45.5333638" lon="11.4786783"><ele>36.0</ele><time>2026-05-02T10:17:24.538Z</time></trkpt><trkpt lat="45.5333457" lon="11.4785854"><ele>36.0</ele><time>2026-05-02T10:17:27.538Z</time></trkpt><trkpt lat="45.5333167" lon="11.4784596"><ele>36.0</ele><time>2026-05-02T10:17:29.539Z</time></trkpt><trkpt lat="45.5332315" lon="11.4783411"><ele>36.0</ele><time>2026-05-02T10:17:31.539Z</time></trkpt><trkpt lat="45.533116" lon="11.4783323"><ele>36.0</ele><time>2026-05-02T10:17:33.539Z</time></trkpt><trkpt lat="45.5329928" lon="11.4783975"><ele>36.0</ele><time>2026-05-02T10:17:35.538Z</time></trkpt><trkpt lat="45.5329205" lon="11.4784092"><ele>36.0</ele><time>2026-05-02T10:17:36.538Z</time></trkpt><trkpt lat="45.532849" lon="11.4783794"><ele>36.0</ele><time>2026-05-02T10:17:37.538Z</time></trkpt><trkpt lat="45.5327778" lon="11.4783189"><ele>36.0</ele><time>2026-05-02T10:17:38.538Z</time></trkpt><trkpt lat="45.5327078" lon="11.478239"><ele>36.0</ele><time>2026-05-02T10:17:39.537Z</time></trkpt><trkpt lat="45.5326387" lon="11.478158"><ele>36.0</ele><time>2026-05-02T10:17:40.537Z</time></trkpt><trkpt lat="45.532571" lon="11.4780764"><ele>36.0</ele><time>2026-05-02T10:17:41.538Z</time></trkpt><trkpt lat="45.5325081" lon="11.4779824"><ele>36.0</ele><time>2026-05-02T10:17:42.538Z</time></trkpt><trkpt lat="45.5324575" lon="11.4778761"><ele>36.0</ele><time>2026-05-02T10:17:43.538Z</time></trkpt><trkpt lat="45.5324251" lon="11.4777765"><ele>36.166666666666664</ele><time>2026-05-02T10:17:44.537Z</time></trkpt><trkpt lat="45.5324051" lon="11.4776865"><ele>36.333333333333336</ele><time>2026-05-02T10:17:46.538Z</time></trkpt><trkpt lat="45.5323956" lon="11.4775764"><ele>36.5</ele><time>2026-05-02T10:17:49.538Z</time></trkpt><trkpt lat="45.5323953" lon="11.477464"><ele>36.66666666666667</ele><time>2026-05-02T10:17:51.537Z</time></trkpt><trkpt lat="45.5323963" lon="11.4773694"><ele>36.833333333333336</ele><time>2026-05-02T10:17:52.539Z</time></trkpt><trkpt lat="45.5323943" lon="11.4772497"><ele>37.0</ele><time>2026-05-02T10:17:53.539Z</time></trkpt><trkpt lat="45.5323905" lon="11.4771084"><ele>37.2</ele><time>2026-05-02T10:17:54.539Z</time></trkpt><trkpt lat="45.5323866" lon="11.476958"><ele>37.400000000000006</ele><time>2026-05-02T10:17:55.539Z</time></trkpt><trkpt lat="45.5323837" lon="11.4768051"><ele>37.599999999999994</ele><time>2026-05-02T10:17:56.539Z</time></trkpt><trkpt lat="45.5323823" lon="11.4766528"><ele>37.8</ele><time>2026-05-02T10:17:57.538Z</time></trkpt><trkpt lat="45.5323814" lon="11.4765181"><ele>38.0</ele><time>2026-05-02T10:17:58.539Z</time></trkpt><trkpt lat="45.5323802" lon="11.4763975"><ele>38.0</ele><time>2026-05-02T10:17:59.538Z</time></trkpt><trkpt lat="45.5323791" lon="11.4762896"><ele>38.0</ele><time>2026-05-02T10:18:00.539Z</time></trkpt><trkpt lat="45.5323795" lon="11.4761855"><ele>38.0</ele><time>2026-05-02T10:18:01.539Z</time></trkpt><trkpt lat="45.5323807" lon="11.4760874"><ele>38.0</ele><time>2026-05-02T10:18:02.538Z</time></trkpt><trkpt lat="45.5323801" lon="11.4759255"><ele>38.0</ele><time>2026-05-02T10:18:04.539Z</time></trkpt><trkpt lat="45.5323814" lon="11.4757645"><ele>38.0</ele><time>2026-05-02T10:18:06.538Z</time></trkpt><trkpt lat="45.5323725" lon="11.4756601"><ele>37.75</ele><time>2026-05-02T10:18:07.538Z</time></trkpt><trkpt lat="45.5323442" lon="11.475539"><ele>37.5</ele><time>2026-05-02T10:18:08.539Z</time></trkpt><trkpt lat="45.5322994" lon="11.475395"><ele>37.25</ele><time>2026-05-02T10:18:09.539Z</time></trkpt><trkpt lat="45.532249" lon="11.4752362"><ele>37.0</ele><time>2026-05-02T10:18:10.538Z</time></trkpt><trkpt lat="45.5321954" lon="11.4750577"><ele>36.66666666666667</ele><time>2026-05-02T10:18:11.538Z</time></trkpt><trkpt lat="45.5321368" lon="11.474869"><ele>36.333333333333336</ele><time>2026-05-02T10:18:12.538Z</time></trkpt><trkpt lat="45.5320751" lon="11.4746711"><ele>36.0</ele><time>2026-05-02T10:18:13.538Z</time></trkpt><trkpt lat="45.5320111" lon="11.4744688"><ele>36.0</ele><time>2026-05-02T10:18:14.538Z</time></trkpt><trkpt lat="45.5319503" lon="11.4742661"><ele>36.0</ele><time>2026-05-02T10:18:15.538Z</time></trkpt><trkpt lat="45.5318918" lon="11.4740682"><ele>36.0</ele><time>2026-05-02T10:18:16.538Z</time></trkpt><trkpt lat="45.5318363" lon="11.4738799"><ele>36.0</ele><time>2026-05-02T10:18:17.537Z</time></trkpt><trkpt lat="45.531782" lon="11.4737005"><ele>36.25</ele><time>2026-05-02T10:18:18.538Z</time></trkpt><trkpt lat="45.5317298" lon="11.473529"><ele>36.5</ele><time>2026-05-02T10:18:19.539Z</time></trkpt><trkpt lat="45.5316798" lon="11.4733608"><ele>36.75</ele><time>2026-05-02T10:18:20.538Z</time></trkpt><trkpt lat="45.5316259" lon="11.4731893"><ele>37.0</ele><time>2026-05-02T10:18:21.539Z</time></trkpt><trkpt lat="45.5315722" lon="11.4730136"><ele>36.75</ele><time>2026-05-02T10:18:22.538Z</time></trkpt><trkpt lat="45.5315178" lon="11.4728373"><ele>36.5</ele><time>2026-05-02T10:18:23.538Z</time></trkpt><trkpt lat="45.5314619" lon="11.4726564"><ele>36.25</ele><time>2026-05-02T10:18:24.538Z</time></trkpt><trkpt lat="45.5314073" lon="11.4724731"><ele>36.0</ele><time>2026-05-02T10:18:25.539Z</time></trkpt><trkpt lat="45.5313513" lon="11.4722862"><ele>35.75</ele><time>2026-05-02T10:18:26.538Z</time></trkpt><trkpt lat="45.5312934" lon="11.472097"><ele>35.5</ele><time>2026-05-02T10:18:27.538Z</time></trkpt><trkpt lat="45.5312359" lon="11.4719105"><ele>35.25</ele><time>2026-05-02T10:18:28.539Z</time></trkpt><trkpt lat="45.5311793" lon="11.4717287"><ele>35.0</ele><time>2026-05-02T10:18:29.538Z</time></trkpt><trkpt lat="45.5311251" lon="11.4715545"><ele>35.0</ele><time>2026-05-02T10:18:30.537Z</time></trkpt><trkpt lat="45.5310737" lon="11.4713848"><ele>35.0</ele><time>2026-05-02T10:18:31.539Z</time></trkpt><trkpt lat="45.5310229" lon="11.4712135"><ele>35.0</ele><time>2026-05-02T10:18:32.538Z</time></trkpt><trkpt lat="45.5309739" lon="11.4710329"><ele>35.0</ele><time>2026-05-02T10:18:33.538Z</time></trkpt><trkpt lat="45.5309357" lon="11.4708436"><ele>35.0</ele><time>2026-05-02T10:18:34.539Z</time></trkpt><trkpt lat="45.5309147" lon="11.4706451"><ele>35.0</ele><time>2026-05-02T10:18:35.538Z</time></trkpt><trkpt lat="45.5309081" lon="11.4704407"><ele>35.0</ele><time>2026-05-02T10:18:36.537Z</time></trkpt><trkpt lat="45.530918" lon="11.4702314"><ele>35.0</ele><time>2026-05-02T10:18:37.538Z</time></trkpt><trkpt lat="45.5309439" lon="11.4700219"><ele>35.0</ele><time>2026-05-02T10:18:38.538Z</time></trkpt><trkpt lat="45.5309823" lon="11.4698111"><ele>35.0</ele><time>2026-05-02T10:18:39.537Z</time></trkpt><trkpt lat="45.5310222" lon="11.4696002"><ele>35.0</ele><time>2026-05-02T10:18:40.538Z</time></trkpt><trkpt lat="45.5310614" lon="11.4693925"><ele>35.0</ele><time>2026-05-02T10:18:41.538Z</time></trkpt><trkpt lat="45.5310983" lon="11.4691888"><ele>35.0</ele><time>2026-05-02T10:18:42.538Z</time></trkpt><trkpt lat="45.5311376" lon="11.4689943"><ele>35.0</ele><time>2026-05-02T10:18:43.538Z</time></trkpt><trkpt lat="45.5311777" lon="11.4688081"><ele>35.0</ele><time>2026-05-02T10:18:44.538Z</time></trkpt><trkpt lat="45.5312155" lon="11.4686345"><ele>35.0</ele><time>2026-05-02T10:18:45.539Z</time></trkpt><trkpt lat="45.5312502" lon="11.4684715"><ele>35.0</ele><time>2026-05-02T10:18:46.538Z</time></trkpt><trkpt lat="45.5312799" lon="11.4683191"><ele>35.0</ele><time>2026-05-02T10:18:47.538Z</time></trkpt><trkpt lat="45.5313054" lon="11.4681762"><ele>35.0</ele><time>2026-05-02T10:18:48.538Z</time></trkpt><trkpt lat="45.5313281" lon="11.4680445"><ele>35.0</ele><time>2026-05-02T10:18:49.538Z</time></trkpt><trkpt lat="45.5313574" lon="11.4679243"><ele>35.33333333333333</ele><time>2026-05-02T10:18:50.538Z</time></trkpt><trkpt lat="45.5314056" lon="11.4678397"><ele>35.666666666666664</ele><time>2026-05-02T10:18:51.539Z</time></trkpt><trkpt lat="45.5314668" lon="11.4677844"><ele>36.0</ele><time>2026-05-02T10:18:52.539Z</time></trkpt><trkpt lat="45.531514" lon="11.4677122"><ele>36.333333333333336</ele><time>2026-05-02T10:18:53.538Z</time></trkpt><trkpt lat="45.5315383" lon="11.4675216"><ele>36.66666666666667</ele><time>2026-05-02T10:18:55.538Z</time></trkpt><trkpt lat="45.5315272" lon="11.4673861"><ele>37.0</ele><time>2026-05-02T10:18:56.539Z</time></trkpt><trkpt lat="45.5315146" lon="11.4672331"><ele>37.0</ele><time>2026-05-02T10:18:57.538Z</time></trkpt><trkpt lat="45.5314962" lon="11.467066"><ele>37.0</ele><time>2026-05-02T10:18:58.538Z</time></trkpt><trkpt lat="45.5314753" lon="11.4668897"><ele>37.0</ele><time>2026-05-02T10:18:59.538Z</time></trkpt><trkpt lat="45.5314544" lon="11.466707"><ele>37.0</ele><time>2026-05-02T10:19:00.537Z</time></trkpt><trkpt lat="45.5314335" lon="11.4665165"><ele>37.0</ele><time>2026-05-02T10:19:01.539Z</time></trkpt><trkpt lat="45.5314124" lon="11.4663225"><ele>37.0</ele><time>2026-05-02T10:19:02.539Z</time></trkpt><trkpt lat="45.5313907" lon="11.4661238"><ele>37.0</ele><time>2026-05-02T10:19:03.538Z</time></trkpt><trkpt lat="45.531369" lon="11.4659228"><ele>37.0</ele><time>2026-05-02T10:19:04.537Z</time></trkpt><trkpt lat="45.5313475" lon="11.4657222"><ele>36.75</ele><time>2026-05-02T10:19:05.538Z</time></trkpt><trkpt lat="45.5313274" lon="11.4655227"><ele>36.5</ele><time>2026-05-02T10:19:06.538Z</time></trkpt><trkpt lat="45.5313096" lon="11.4653262"><ele>36.25</ele><time>2026-05-02T10:19:07.537Z</time></trkpt><trkpt lat="45.5312859" lon="11.4651336"><ele>36.0</ele><time>2026-05-02T10:19:08.538Z</time></trkpt><trkpt lat="45.5312545" lon="11.4649435"><ele>36.0</ele><time>2026-05-02T10:19:09.537Z</time></trkpt><trkpt lat="45.5312194" lon="11.4647595"><ele>36.0</ele><time>2026-05-02T10:19:10.537Z</time></trkpt><trkpt lat="45.5311832" lon="11.4645832"><ele>36.0</ele><time>2026-05-02T10:19:11.538Z</time></trkpt><trkpt lat="45.5311458" lon="11.4644121"><ele>36.0</ele><time>2026-05-02T10:19:12.538Z</time></trkpt><trkpt lat="45.5311115" lon="11.4642414"><ele>36.0</ele><time>2026-05-02T10:19:13.537Z</time></trkpt><trkpt lat="45.5310794" lon="11.4640685"><ele>36.0</ele><time>2026-05-02T10:19:14.538Z</time></trkpt><trkpt lat="45.5310497" lon="11.4638951"><ele>36.0</ele><time>2026-05-02T10:19:15.537Z</time></trkpt><trkpt lat="45.5310254" lon="11.4637264"><ele>36.0</ele><time>2026-05-02T10:19:16.537Z</time></trkpt><trkpt lat="45.5310141" lon="11.4635622"><ele>36.0</ele><time>2026-05-02T10:19:17.539Z</time></trkpt><trkpt lat="45.5310185" lon="11.4634144"><ele>36.0</ele><time>2026-05-02T10:19:18.538Z</time></trkpt><trkpt lat="45.5310129" lon="11.4632925"><ele>36.0</ele><time>2026-05-02T10:19:19.538Z</time></trkpt><trkpt lat="45.5309789" lon="11.463184"><ele>36.0</ele><time>2026-05-02T10:19:20.539Z</time></trkpt><trkpt lat="45.5309201" lon="11.4630953"><ele>36.0</ele><time>2026-05-02T10:19:21.539Z</time></trkpt><trkpt lat="45.5308595" lon="11.4630125"><ele>36.0</ele><time>2026-05-02T10:19:22.537Z</time></trkpt><trkpt lat="45.530828" lon="11.4629067"><ele>36.6</ele><time>2026-05-02T10:19:23.538Z</time></trkpt><trkpt lat="45.5307969" lon="11.4627917"><ele>37.2</ele><time>2026-05-02T10:19:24.538Z</time></trkpt><trkpt lat="45.5307652" lon="11.462662"><ele>37.8</ele><time>2026-05-02T10:19:25.538Z</time></trkpt><trkpt lat="45.5307353" lon="11.4625259"><ele>38.4</ele><time>2026-05-02T10:19:26.538Z</time></trkpt><trkpt lat="45.5307045" lon="11.4623843"><ele>39.0</ele><time>2026-05-02T10:19:27.538Z</time></trkpt><trkpt lat="45.5306729" lon="11.4622278"><ele>39.5</ele><time>2026-05-02T10:19:28.538Z</time></trkpt><trkpt lat="45.5306362" lon="11.4620627"><ele>40.0</ele><time>2026-05-02T10:19:29.538Z</time></trkpt><trkpt lat="45.5305972" lon="11.4618912"><ele>40.5</ele><time>2026-05-02T10:19:30.537Z</time></trkpt><trkpt lat="45.5305552" lon="11.4617097"><ele>41.0</ele><time>2026-05-02T10:19:31.538Z</time></trkpt><trkpt lat="45.5305131" lon="11.4615201"><ele>41.0</ele><time>2026-05-02T10:19:32.538Z</time></trkpt><trkpt lat="45.530469" lon="11.4613196"><ele>41.0</ele><time>2026-05-02T10:19:33.538Z</time></trkpt><trkpt lat="45.5304245" lon="11.4611182"><ele>41.0</ele><time>2026-05-02T10:19:34.538Z</time></trkpt><trkpt lat="45.5303821" lon="11.460918"><ele>41.0</ele><time>2026-05-02T10:19:35.539Z</time></trkpt><trkpt lat="45.5303384" lon="11.4607115"><ele>40.33333333333333</ele><time>2026-05-02T10:19:36.539Z</time></trkpt><trkpt lat="45.5302913" lon="11.4605007"><ele>39.666666666666664</ele><time>2026-05-02T10:19:37.538Z</time></trkpt><trkpt lat="45.5302419" lon="11.460286"><ele>39.0</ele><time>2026-05-02T10:19:38.538Z</time></trkpt><trkpt lat="45.5301938" lon="11.4600626"><ele>39.0</ele><time>2026-05-02T10:19:39.538Z</time></trkpt><trkpt lat="45.5301466" lon="11.4598321"><ele>39.0</ele><time>2026-05-02T10:19:40.538Z</time></trkpt><trkpt lat="45.5300991" lon="11.4595976"><ele>39.0</ele><time>2026-05-02T10:19:41.538Z</time></trkpt><trkpt lat="45.5300478" lon="11.4593619"><ele>40.0</ele><time>2026-05-02T10:19:42.538Z</time></trkpt><trkpt lat="45.5299936" lon="11.4591251"><ele>41.0</ele><time>2026-05-02T10:19:43.539Z</time></trkpt><trkpt lat="45.5299434" lon="11.4588905"><ele>42.0</ele><time>2026-05-02T10:19:44.538Z</time></trkpt><trkpt lat="45.5298917" lon="11.4586566"><ele>42.0</ele><time>2026-05-02T10:19:45.538Z</time></trkpt><trkpt lat="45.5298405" lon="11.4584205"><ele>42.0</ele><time>2026-05-02T10:19:46.538Z</time></trkpt><trkpt lat="45.5297901" lon="11.458185"><ele>42.0</ele><time>2026-05-02T10:19:47.537Z</time></trkpt><trkpt lat="45.5297397" lon="11.4579475"><ele>41.666666666666664</ele><time>2026-05-02T10:19:48.539Z</time></trkpt><trkpt lat="45.5296874" lon="11.45771"><ele>41.33333333333333</ele><time>2026-05-02T10:19:49.537Z</time></trkpt><trkpt lat="45.5296423" lon="11.4574691"><ele>41.0</ele><time>2026-05-02T10:19:50.537Z</time></trkpt><trkpt lat="45.5296097" lon="11.4572242"><ele>41.33333333333333</ele><time>2026-05-02T10:19:51.538Z</time></trkpt><trkpt lat="45.5295862" lon="11.4569734"><ele>41.666666666666664</ele><time>2026-05-02T10:19:52.538Z</time></trkpt><trkpt lat="45.5295699" lon="11.4567203"><ele>42.0</ele><time>2026-05-02T10:19:53.538Z</time></trkpt><trkpt lat="45.5295682" lon="11.456464"><ele>42.666666666666664</ele><time>2026-05-02T10:19:54.538Z</time></trkpt><trkpt lat="45.5295754" lon="11.4562158"><ele>43.33333333333333</ele><time>2026-05-02T10:19:55.538Z</time></trkpt><trkpt lat="45.5295964" lon="11.4559763"><ele>44.0</ele><time>2026-05-02T10:19:56.537Z</time></trkpt><trkpt lat="45.5296271" lon="11.4557499"><ele>44.0</ele><time>2026-05-02T10:19:57.539Z</time></trkpt><trkpt lat="45.5296625" lon="11.4555301"><ele>44.0</ele><time>2026-05-02T10:19:58.539Z</time></trkpt><trkpt lat="45.5297029" lon="11.4553125"><ele>44.0</ele><time>2026-05-02T10:19:59.537Z</time></trkpt><trkpt lat="45.5297396" lon="11.455095"><ele>43.75</ele><time>2026-05-02T10:20:00.538Z</time></trkpt><trkpt lat="45.5297737" lon="11.4548892"><ele>43.5</ele><time>2026-05-02T10:20:01.539Z</time></trkpt><trkpt lat="45.5298063" lon="11.4546975"><ele>43.25</ele><time>2026-05-02T10:20:02.538Z</time></trkpt><trkpt lat="45.5298384" lon="11.4545151"><ele>43.0</ele><time>2026-05-02T10:20:03.539Z</time></trkpt><trkpt lat="45.5298676" lon="11.454329"><ele>43.0</ele><time>2026-05-02T10:20:04.538Z</time></trkpt><trkpt lat="45.5299009" lon="11.4541403"><ele>43.0</ele><time>2026-05-02T10:20:05.539Z</time></trkpt><trkpt lat="45.5299316" lon="11.453944"><ele>43.0</ele><time>2026-05-02T10:20:06.538Z</time></trkpt><trkpt lat="45.5299466" lon="11.4537362"><ele>43.0</ele><time>2026-05-02T10:20:07.538Z</time></trkpt><trkpt lat="45.5299459" lon="11.4535201"><ele>42.25</ele><time>2026-05-02T10:20:08.539Z</time></trkpt><trkpt lat="45.5299232" lon="11.4533045"><ele>41.5</ele><time>2026-05-02T10:20:09.539Z</time></trkpt><trkpt lat="45.5298841" lon="11.4531053"><ele>40.75</ele><time>2026-05-02T10:20:10.538Z</time></trkpt><trkpt lat="45.5298358" lon="11.4529178"><ele>40.0</ele><time>2026-05-02T10:20:11.538Z</time></trkpt><trkpt lat="45.5297849" lon="11.452745"><ele>40.0</ele><time>2026-05-02T10:20:12.539Z</time></trkpt><trkpt lat="45.5297361" lon="11.4525857"><ele>40.0</ele><time>2026-05-02T10:20:13.539Z</time></trkpt><trkpt lat="45.5296956" lon="11.4524449"><ele>40.0</ele><time>2026-05-02T10:20:14.537Z</time></trkpt><trkpt lat="45.5296746" lon="11.4523162"><ele>40.0</ele><time>2026-05-02T10:20:15.539Z</time></trkpt><trkpt lat="45.529673" lon="11.4522125"><ele>40.0</ele><time>2026-05-02T10:20:16.538Z</time></trkpt><trkpt lat="45.5296852" lon="11.452085"><ele>40.4</ele><time>2026-05-02T10:20:18.539Z</time></trkpt><trkpt lat="45.5297189" lon="11.4519651"><ele>40.8</ele><time>2026-05-02T10:20:20.539Z</time></trkpt><trkpt lat="45.5297588" lon="11.4518857"><ele>41.2</ele><time>2026-05-02T10:20:21.539Z</time></trkpt><trkpt lat="45.5298118" lon="11.4517821"><ele>41.6</ele><time>2026-05-02T10:20:22.538Z</time></trkpt><trkpt lat="45.5298708" lon="11.4516313"><ele>42.0</ele><time>2026-05-02T10:20:23.538Z</time></trkpt><trkpt lat="45.5299517" lon="11.451437"><ele>42.0</ele><time>2026-05-02T10:20:24.538Z</time></trkpt><trkpt lat="45.5300642" lon="11.4512232"><ele>42.0</ele><time>2026-05-02T10:20:25.537Z</time></trkpt><trkpt lat="45.5301987" lon="11.4509922"><ele>42.0</ele><time>2026-05-02T10:20:26.538Z</time></trkpt><trkpt lat="45.5303183" lon="11.4507349"><ele>42.5</ele><time>2026-05-02T10:20:27.539Z</time></trkpt><trkpt lat="45.5304288" lon="11.4504426"><ele>43.0</ele><time>2026-05-02T10:20:28.539Z</time></trkpt><trkpt lat="45.5305371" lon="11.450112"><ele>43.0</ele><time>2026-05-02T10:20:29.537Z</time></trkpt><trkpt lat="45.5306591" lon="11.4497645"><ele>43.0</ele><time>2026-05-02T10:20:30.537Z</time></trkpt><trkpt lat="45.5307958" lon="11.4494053"><ele>42.0</ele><time>2026-05-02T10:20:31.538Z</time></trkpt><trkpt lat="45.5309482" lon="11.4490464"><ele>41.0</ele><time>2026-05-02T10:20:32.539Z</time></trkpt><trkpt lat="45.5311133" lon="11.4487049"><ele>40.0</ele><time>2026-05-02T10:20:33.539Z</time></trkpt><trkpt lat="45.5312914" lon="11.4483787"><ele>39.0</ele><time>2026-05-02T10:20:34.538Z</time></trkpt><trkpt lat="45.5314845" lon="11.4480741"><ele>39.5</ele><time>2026-05-02T10:20:35.538Z</time></trkpt><trkpt lat="45.5316951" lon="11.4477946"><ele>40.0</ele><time>2026-05-02T10:20:36.538Z</time></trkpt><trkpt lat="45.5319232" lon="11.4475398"><ele>40.0</ele><time>2026-05-02T10:20:37.539Z</time></trkpt><trkpt lat="45.5321656" lon="11.4473049"><ele>40.0</ele><time>2026-05-02T10:20:38.538Z</time></trkpt><trkpt lat="45.5324143" lon="11.44709"><ele>40.0</ele><time>2026-05-02T10:20:39.538Z</time></trkpt><trkpt lat="45.532658" lon="11.4468954"><ele>40.0</ele><time>2026-05-02T10:20:40.538Z</time></trkpt><trkpt lat="45.5328883" lon="11.4467161"><ele>39.0</ele><time>2026-05-02T10:20:41.538Z</time></trkpt><trkpt lat="45.5331005" lon="11.4465473"><ele>38.0</ele><time>2026-05-02T10:20:42.538Z</time></trkpt><trkpt lat="45.5332981" lon="11.4463861"><ele>38.666666666666664</ele><time>2026-05-02T10:20:43.538Z</time></trkpt><trkpt lat="45.5334774" lon="11.4462348"><ele>39.333333333333336</ele><time>2026-05-02T10:20:44.538Z</time></trkpt><trkpt lat="45.533642" lon="11.4460748"><ele>40.0</ele><time>2026-05-02T10:20:45.537Z</time></trkpt><trkpt lat="45.5337806" lon="11.4459079"><ele>40.25</ele><time>2026-05-02T10:20:46.538Z</time></trkpt><trkpt lat="45.5338898" lon="11.4457487"><ele>40.5</ele><time>2026-05-02T10:20:47.538Z</time></trkpt><trkpt lat="45.5339778" lon="11.4455821"><ele>40.75</ele><time>2026-05-02T10:20:48.539Z</time></trkpt><trkpt lat="45.5340473" lon="11.4454094"><ele>41.0</ele><time>2026-05-02T10:20:49.538Z</time></trkpt><trkpt lat="45.5341192" lon="11.4452602"><ele>41.83333333333333</ele><time>2026-05-02T10:20:50.539Z</time></trkpt><trkpt lat="45.53419" lon="11.445147"><ele>42.666666666666664</ele><time>2026-05-02T10:20:51.539Z</time></trkpt><trkpt lat="45.5342409" lon="11.4450409"><ele>43.5</ele><time>2026-05-02T10:20:52.537Z</time></trkpt><trkpt lat="45.5342595" lon="11.4449242"><ele>44.333333333333336</ele><time>2026-05-02T10:20:53.538Z</time></trkpt><trkpt lat="45.5342388" lon="11.444818"><ele>45.16666666666667</ele><time>2026-05-02T10:20:54.538Z</time></trkpt><trkpt lat="45.5341815" lon="11.4447436"><ele>46.0</ele><time>2026-05-02T10:20:55.538Z</time></trkpt><trkpt lat="45.5341047" lon="11.4447225"><ele>46.0</ele><time>2026-05-02T10:20:56.539Z</time></trkpt><trkpt lat="45.5340216" lon="11.444752"><ele>46.0</ele><time>2026-05-02T10:20:57.538Z</time></trkpt><trkpt lat="45.5339297" lon="11.4448161"><ele>46.0</ele><time>2026-05-02T10:20:58.537Z</time></trkpt><trkpt lat="45.5338089" lon="11.4448527"><ele>46.0</ele><time>2026-05-02T10:20:59.538Z</time></trkpt><trkpt lat="45.5336689" lon="11.4448425"><ele>45.333333333333336</ele><time>2026-05-02T10:21:00.538Z</time></trkpt><trkpt lat="45.5335138" lon="11.4448072"><ele>44.666666666666664</ele><time>2026-05-02T10:21:01.538Z</time></trkpt><trkpt lat="45.5333519" lon="11.4447563"><ele>44.0</ele><time>2026-05-02T10:21:02.538Z</time></trkpt><trkpt lat="45.5331921" lon="11.4446817"><ele>44.33333333333333</ele><time>2026-05-02T10:21:03.538Z</time></trkpt><trkpt lat="45.5330381" lon="11.4445864"><ele>44.666666666666664</ele><time>2026-05-02T10:21:04.539Z</time></trkpt><trkpt lat="45.5328943" lon="11.4444981"><ele>45.0</ele><time>2026-05-02T10:21:05.538Z</time></trkpt><trkpt lat="45.5327575" lon="11.4444171"><ele>45.0</ele><time>2026-05-02T10:21:06.538Z</time></trkpt><trkpt lat="45.5326298" lon="11.4443388"><ele>45.0</ele><time>2026-05-02T10:21:07.538Z</time></trkpt><trkpt lat="45.532509" lon="11.4442679"><ele>45.0</ele><time>2026-05-02T10:21:08.538Z</time></trkpt><trkpt lat="45.5323961" lon="11.4442012"><ele>45.0</ele><time>2026-05-02T10:21:09.538Z</time></trkpt><trkpt lat="45.5322863" lon="11.4441367"><ele>45.0</ele><time>2026-05-02T10:21:10.538Z</time></trkpt><trkpt lat="45.532184" lon="11.4440723"><ele>45.0</ele><time>2026-05-02T10:21:11.539Z</time></trkpt><trkpt lat="45.5320988" lon="11.44402"><ele>45.0</ele><time>2026-05-02T10:21:12.538Z</time></trkpt><trkpt lat="45.5320194" lon="11.4439728"><ele>45.0</ele><time>2026-05-02T10:21:13.537Z</time></trkpt><trkpt lat="45.5319466" lon="11.4439288"><ele>45.0</ele><time>2026-05-02T10:21:14.537Z</time></trkpt><trkpt lat="45.5318815" lon="11.4438851"><ele>45.0</ele><time>2026-05-02T10:21:15.537Z</time></trkpt><trkpt lat="45.5318222" lon="11.4438462"><ele>45.166666666666664</ele><time>2026-05-02T10:21:16.538Z</time></trkpt><trkpt lat="45.5317261" lon="11.4437831"><ele>45.333333333333336</ele><time>2026-05-02T10:21:18.539Z</time></trkpt><trkpt lat="45.5316446" lon="11.443752"><ele>45.5</ele><time>2026-05-02T10:22:01.539Z</time></trkpt><trkpt lat="45.5315809" lon="11.4437164"><ele>45.66666666666667</ele><time>2026-05-02T10:22:03.538Z</time></trkpt><trkpt lat="45.5315073" lon="11.443679"><ele>45.833333333333336</ele><time>2026-05-02T10:22:05.537Z</time></trkpt><trkpt lat="45.5314415" lon="11.4436237"><ele>46.0</ele><time>2026-05-02T10:22:07.539Z</time></trkpt><trkpt lat="45.5314296" lon="11.443524"><ele>46.0</ele><time>2026-05-02T10:22:09.538Z</time></trkpt><trkpt lat="45.5314821" lon="11.4434732"><ele>46.0</ele><time>2026-05-02T10:22:10.538Z</time></trkpt><trkpt lat="45.5315499" lon="11.4434294"><ele>46.0</ele><time>2026-05-02T10:22:11.538Z</time></trkpt><trkpt lat="45.5316391" lon="11.4433795"><ele>46.0</ele><time>2026-05-02T10:22:12.537Z</time></trkpt><trkpt lat="45.5317374" lon="11.4433188"><ele>46.0</ele><time>2026-05-02T10:22:13.538Z</time></trkpt><trkpt lat="45.5318391" lon="11.4432531"><ele>46.0</ele><time>2026-05-02T10:22:14.538Z</time></trkpt><trkpt lat="45.5319417" lon="11.443191"><ele>46.0</ele><time>2026-05-02T10:22:15.538Z</time></trkpt><trkpt lat="45.5320466" lon="11.4431307"><ele>46.0</ele><time>2026-05-02T10:22:16.538Z</time></trkpt><trkpt lat="45.5321536" lon="11.4430684"><ele>46.0</ele><time>2026-05-02T10:22:17.538Z</time></trkpt><trkpt lat="45.5322639" lon="11.4430013"><ele>46.0</ele><time>2026-05-02T10:22:18.538Z</time></trkpt><trkpt lat="45.532379" lon="11.4429332"><ele>46.0</ele><time>2026-05-02T10:22:19.537Z</time></trkpt><trkpt lat="45.5324908" lon="11.4428655"><ele>46.0</ele><time>2026-05-02T10:22:20.539Z</time></trkpt><trkpt lat="45.5325924" lon="11.4428034"><ele>46.0</ele><time>2026-05-02T10:22:21.539Z</time></trkpt><trkpt lat="45.5326913" lon="11.4427446"><ele>46.0</ele><time>2026-05-02T10:22:22.539Z</time></trkpt><trkpt lat="45.5327887" lon="11.4426834"><ele>46.0</ele><time>2026-05-02T10:22:23.538Z</time></trkpt><trkpt lat="45.53288" lon="11.4426223"><ele>46.0</ele><time>2026-05-02T10:22:24.539Z</time></trkpt><trkpt lat="45.5329617" lon="11.4425565"><ele>46.0</ele><time>2026-05-02T10:22:25.538Z</time></trkpt><trkpt lat="45.5330329" lon="11.4424683"><ele>46.0</ele><time>2026-05-02T10:22:26.537Z</time></trkpt><trkpt lat="45.5330914" lon="11.4423472"><ele>46.75</ele><time>2026-05-02T10:22:27.539Z</time></trkpt><trkpt lat="45.5331411" lon="11.4422058"><ele>47.5</ele><time>2026-05-02T10:22:28.539Z</time></trkpt><trkpt lat="45.5331871" lon="11.4420402"><ele>48.25</ele><time>2026-05-02T10:22:29.538Z</time></trkpt><trkpt lat="45.5332378" lon="11.4418631"><ele>49.0</ele><time>2026-05-02T10:22:30.538Z</time></trkpt><trkpt lat="45.5332954" lon="11.4416803"><ele>49.0</ele><time>2026-05-02T10:22:31.538Z</time></trkpt><trkpt lat="45.5333606" lon="11.4414959"><ele>49.0</ele><time>2026-05-02T10:22:32.539Z</time></trkpt><trkpt lat="45.5334266" lon="11.4413144"><ele>49.0</ele><time>2026-05-02T10:22:33.537Z</time></trkpt><trkpt lat="45.5334903" lon="11.4411345"><ele>49.0</ele><time>2026-05-02T10:22:34.538Z</time></trkpt><trkpt lat="45.5335602" lon="11.4409526"><ele>48.0</ele><time>2026-05-02T10:22:35.538Z</time></trkpt><trkpt lat="45.5336343" lon="11.4407699"><ele>47.0</ele><time>2026-05-02T10:22:36.538Z</time></trkpt><trkpt lat="45.5337149" lon="11.4406"><ele>46.0</ele><time>2026-05-02T10:22:37.538Z</time></trkpt><trkpt lat="45.5338094" lon="11.4404408"><ele>45.0</ele><time>2026-05-02T10:22:38.538Z</time></trkpt><trkpt lat="45.5339198" lon="11.4402971"><ele>45.0</ele><time>2026-05-02T10:22:39.537Z</time></trkpt><trkpt lat="45.5340369" lon="11.4401605"><ele>45.0</ele><time>2026-05-02T10:22:40.538Z</time></trkpt><trkpt lat="45.5341513" lon="11.4400256"><ele>45.0</ele><time>2026-05-02T10:22:41.539Z</time></trkpt><trkpt lat="45.5342681" lon="11.4398918"><ele>45.0</ele><time>2026-05-02T10:22:42.538Z</time></trkpt><trkpt lat="45.5343835" lon="11.4397612"><ele>45.0</ele><time>2026-05-02T10:22:43.539Z</time></trkpt><trkpt lat="45.5344937" lon="11.4396334"><ele>45.0</ele><time>2026-05-02T10:22:44.539Z</time></trkpt><trkpt lat="45.5345989" lon="11.4395087"><ele>45.0</ele><time>2026-05-02T10:22:45.538Z</time></trkpt><trkpt lat="45.5347055" lon="11.439383"><ele>45.0</ele><time>2026-05-02T10:22:46.538Z</time></trkpt><trkpt lat="45.5348146" lon="11.4392499"><ele>45.0</ele><time>2026-05-02T10:22:47.539Z</time></trkpt><trkpt lat="45.5349255" lon="11.4391082"><ele>45.0</ele><time>2026-05-02T10:22:48.538Z</time></trkpt><trkpt lat="45.5350377" lon="11.4389604"><ele>45.0</ele><time>2026-05-02T10:22:49.538Z</time></trkpt><trkpt lat="45.5351491" lon="11.438808"><ele>45.0</ele><time>2026-05-02T10:22:50.538Z</time></trkpt><trkpt lat="45.5352626" lon="11.438658"><ele>45.0</ele><time>2026-05-02T10:22:51.537Z</time></trkpt><trkpt lat="45.535383" lon="11.4385344"><ele>45.0</ele><time>2026-05-02T10:22:52.538Z</time></trkpt><trkpt lat="45.535515" lon="11.4384365"><ele>45.0</ele><time>2026-05-02T10:22:53.538Z</time></trkpt><trkpt lat="45.5356561" lon="11.4383605"><ele>45.0</ele><time>2026-05-02T10:22:54.538Z</time></trkpt><trkpt lat="45.5357948" lon="11.4383106"><ele>45.0</ele><time>2026-05-02T10:22:55.539Z</time></trkpt><trkpt lat="45.5359275" lon="11.4382887"><ele>45.0</ele><time>2026-05-02T10:22:56.539Z</time></trkpt><trkpt lat="45.5360582" lon="11.4382822"><ele>45.0</ele><time>2026-05-02T10:22:57.539Z</time></trkpt><trkpt lat="45.5361923" lon="11.4382776"><ele>45.0</ele><time>2026-05-02T10:22:58.539Z</time></trkpt><trkpt lat="45.5363337" lon="11.4382617"><ele>45.0</ele><time>2026-05-02T10:22:59.539Z</time></trkpt><trkpt lat="45.5364781" lon="11.4382237"><ele>45.0</ele><time>2026-05-02T10:23:00.537Z</time></trkpt><trkpt lat="45.5366232" lon="11.4381605"><ele>44.333333333333336</ele><time>2026-05-02T10:23:01.538Z</time></trkpt><trkpt lat="45.5367663" lon="11.4380746"><ele>43.66666666666667</ele><time>2026-05-02T10:23:02.537Z</time></trkpt><trkpt lat="45.5369044" lon="11.4379762"><ele>43.0</ele><time>2026-05-02T10:23:03.538Z</time></trkpt><trkpt lat="45.5370368" lon="11.4378746"><ele>46.66666666666667</ele><time>2026-05-02T10:23:04.537Z</time></trkpt><trkpt lat="45.5371702" lon="11.437775"><ele>50.333333333333336</ele><time>2026-05-02T10:23:05.538Z</time></trkpt><trkpt lat="45.5373069" lon="11.4376756"><ele>54.0</ele><time>2026-05-02T10:23:06.539Z</time></trkpt><trkpt lat="45.5374508" lon="11.4375845"><ele>54.0</ele><time>2026-05-02T10:23:07.539Z</time></trkpt><trkpt lat="45.537597" lon="11.4374973"><ele>54.0</ele><time>2026-05-02T10:23:08.538Z</time></trkpt><trkpt lat="45.5377398" lon="11.4374169"><ele>54.0</ele><time>2026-05-02T10:23:09.538Z</time></trkpt><trkpt lat="45.5378803" lon="11.4373437"><ele>52.0</ele><time>2026-05-02T10:23:10.537Z</time></trkpt><trkpt lat="45.5380205" lon="11.437271"><ele>50.0</ele><time>2026-05-02T10:23:11.539Z</time></trkpt><trkpt lat="45.5381594" lon="11.437203"><ele>48.0</ele><time>2026-05-02T10:23:12.538Z</time></trkpt><trkpt lat="45.5383017" lon="11.4371351"><ele>46.0</ele><time>2026-05-02T10:23:13.539Z</time></trkpt><trkpt lat="45.5384499" lon="11.4370642"><ele>46.0</ele><time>2026-05-02T10:23:14.539Z</time></trkpt><trkpt lat="45.538603" lon="11.4369908"><ele>46.0</ele><time>2026-05-02T10:23:15.538Z</time></trkpt><trkpt lat="45.538763" lon="11.4369107"><ele>46.0</ele><time>2026-05-02T10:23:16.539Z</time></trkpt><trkpt lat="45.5389282" lon="11.4368202"><ele>49.333333333333336</ele><time>2026-05-02T10:23:17.539Z</time></trkpt><trkpt lat="45.539094" lon="11.4367275"><ele>52.66666666666667</ele><time>2026-05-02T10:23:18.538Z</time></trkpt><trkpt lat="45.5392604" lon="11.4366353"><ele>56.0</ele><time>2026-05-02T10:23:19.538Z</time></trkpt><trkpt lat="45.5394197" lon="11.4365488"><ele>52.66666666666667</ele><time>2026-05-02T10:23:20.538Z</time></trkpt><trkpt lat="45.5395759" lon="11.4364637"><ele>49.333333333333336</ele><time>2026-05-02T10:23:21.538Z</time></trkpt><trkpt lat="45.5397295" lon="11.4363758"><ele>46.0</ele><time>2026-05-02T10:23:22.538Z</time></trkpt><trkpt lat="45.5398829" lon="11.436289"><ele>46.0</ele><time>2026-05-02T10:23:23.537Z</time></trkpt><trkpt lat="45.5400411" lon="11.4362022"><ele>46.0</ele><time>2026-05-02T10:23:24.538Z</time></trkpt><trkpt lat="45.5402045" lon="11.4361182"><ele>46.0</ele><time>2026-05-02T10:23:25.538Z</time></trkpt><trkpt lat="45.5403745" lon="11.436041"><ele>47.66666666666667</ele><time>2026-05-02T10:23:26.539Z</time></trkpt><trkpt lat="45.5405492" lon="11.4359696"><ele>49.333333333333336</ele><time>2026-05-02T10:23:27.539Z</time></trkpt><trkpt lat="45.5407282" lon="11.4359088"><ele>51.0</ele><time>2026-05-02T10:23:28.538Z</time></trkpt><trkpt lat="45.5409022" lon="11.4358495"><ele>51.0</ele><time>2026-05-02T10:23:29.538Z</time></trkpt><trkpt lat="45.541073" lon="11.4357875"><ele>51.0</ele><time>2026-05-02T10:23:30.538Z</time></trkpt><trkpt lat="45.5412451" lon="11.4357198"><ele>51.0</ele><time>2026-05-02T10:23:31.538Z</time></trkpt><trkpt lat="45.5414226" lon="11.4356466"><ele>48.666666666666664</ele><time>2026-05-02T10:23:32.537Z</time></trkpt><trkpt lat="45.5416054" lon="11.4355655"><ele>46.33333333333333</ele><time>2026-05-02T10:23:33.538Z</time></trkpt><trkpt lat="45.5417906" lon="11.4354723"><ele>44.0</ele><time>2026-05-02T10:23:34.539Z</time></trkpt><trkpt lat="45.5419774" lon="11.4353664"><ele>44.0</ele><time>2026-05-02T10:23:35.538Z</time></trkpt><trkpt lat="45.5421628" lon="11.4352447"><ele>44.0</ele><time>2026-05-02T10:23:36.538Z</time></trkpt><trkpt lat="45.5423439" lon="11.4351109"><ele>44.0</ele><time>2026-05-02T10:23:37.539Z</time></trkpt><trkpt lat="45.5425172" lon="11.4349865"><ele>44.0</ele><time>2026-05-02T10:23:38.538Z</time></trkpt><trkpt lat="45.5426933" lon="11.4348744"><ele>44.0</ele><time>2026-05-02T10:23:39.538Z</time></trkpt><trkpt lat="45.5428901" lon="11.4347387"><ele>44.0</ele><time>2026-05-02T10:23:40.537Z</time></trkpt><trkpt lat="45.5431001" lon="11.4345925"><ele>43.5</ele><time>2026-05-02T10:23:41.538Z</time></trkpt><trkpt lat="45.5433134" lon="11.4344553"><ele>43.0</ele><time>2026-05-02T10:23:42.537Z</time></trkpt><trkpt lat="45.5435177" lon="11.434334"><ele>43.0</ele><time>2026-05-02T10:23:43.537Z</time></trkpt><trkpt lat="45.5437083" lon="11.4342206"><ele>43.0</ele><time>2026-05-02T10:23:44.539Z</time></trkpt><trkpt lat="45.543884" lon="11.4341087"><ele>43.0</ele><time>2026-05-02T10:23:45.538Z</time></trkpt><trkpt lat="45.5440438" lon="11.4340045"><ele>43.66666666666667</ele><time>2026-05-02T10:23:46.538Z</time></trkpt><trkpt lat="45.5441905" lon="11.4339082"><ele>44.333333333333336</ele><time>2026-05-02T10:23:47.538Z</time></trkpt><trkpt lat="45.5443258" lon="11.4338093"><ele>45.0</ele><time>2026-05-02T10:23:48.539Z</time></trkpt><trkpt lat="45.5444591" lon="11.4337025"><ele>46.33333333333333</ele><time>2026-05-02T10:23:49.538Z</time></trkpt><trkpt lat="45.544592" lon="11.4335817"><ele>47.666666666666664</ele><time>2026-05-02T10:23:50.537Z</time></trkpt><trkpt lat="45.5447171" lon="11.4334458"><ele>49.0</ele><time>2026-05-02T10:23:51.539Z</time></trkpt><trkpt lat="45.5448325" lon="11.433302"><ele>49.0</ele><time>2026-05-02T10:23:52.538Z</time></trkpt><trkpt lat="45.5449483" lon="11.433149"><ele>49.0</ele><time>2026-05-02T10:23:53.538Z</time></trkpt><trkpt lat="45.5450605" lon="11.4329874"><ele>49.0</ele><time>2026-05-02T10:23:54.538Z</time></trkpt><trkpt lat="45.5451693" lon="11.4328262"><ele>50.33333333333333</ele><time>2026-05-02T10:23:55.539Z</time></trkpt><trkpt lat="45.5452781" lon="11.4326664"><ele>51.66666666666667</ele><time>2026-05-02T10:23:56.539Z</time></trkpt><trkpt lat="45.5453867" lon="11.4325075"><ele>53.0</ele><time>2026-05-02T10:23:57.539Z</time></trkpt><trkpt lat="45.5454902" lon="11.432349"><ele>53.0</ele><time>2026-05-02T10:23:58.538Z</time></trkpt><trkpt lat="45.5455871" lon="11.4321799"><ele>53.0</ele><time>2026-05-02T10:23:59.539Z</time></trkpt><trkpt lat="45.5456737" lon="11.4319944"><ele>53.0</ele><time>2026-05-02T10:24:00.538Z</time></trkpt><trkpt lat="45.5457537" lon="11.4318049"><ele>50.66666666666667</ele><time>2026-05-02T10:24:01.539Z</time></trkpt><trkpt lat="45.5458297" lon="11.4316119"><ele>48.333333333333336</ele><time>2026-05-02T10:24:02.538Z</time></trkpt><trkpt lat="45.5459031" lon="11.4314116"><ele>46.0</ele><time>2026-05-02T10:24:03.539Z</time></trkpt><trkpt lat="45.5459688" lon="11.4312138"><ele>46.0</ele><time>2026-05-02T10:24:04.538Z</time></trkpt><trkpt lat="45.5460393" lon="11.4310252"><ele>46.0</ele><time>2026-05-02T10:24:05.539Z</time></trkpt><trkpt lat="45.5461223" lon="11.4308401"><ele>46.0</ele><time>2026-05-02T10:24:06.537Z</time></trkpt><trkpt lat="45.5462251" lon="11.4306738"><ele>46.0</ele><time>2026-05-02T10:24:07.537Z</time></trkpt><trkpt lat="45.5463502" lon="11.4305252"><ele>46.0</ele><time>2026-05-02T10:24:08.538Z</time></trkpt><trkpt lat="45.5465083" lon="11.4303601"><ele>46.0</ele><time>2026-05-02T10:24:09.538Z</time></trkpt><trkpt lat="45.5466923" lon="11.4301927"><ele>44.5</ele><time>2026-05-02T10:24:10.539Z</time></trkpt><trkpt lat="45.5469051" lon="11.43002"><ele>43.0</ele><time>2026-05-02T10:24:11.539Z</time></trkpt><trkpt lat="45.5471341" lon="11.4298251"><ele>43.5</ele><time>2026-05-02T10:24:12.537Z</time></trkpt><trkpt lat="45.547373" lon="11.4295992"><ele>44.0</ele><time>2026-05-02T10:24:13.538Z</time></trkpt><trkpt lat="45.5476146" lon="11.4293472"><ele>44.0</ele><time>2026-05-02T10:24:14.538Z</time></trkpt><trkpt lat="45.5478606" lon="11.4290781"><ele>44.0</ele><time>2026-05-02T10:24:15.538Z</time></trkpt><trkpt lat="45.5481045" lon="11.4288088"><ele>43.5</ele><time>2026-05-02T10:24:16.538Z</time></trkpt><trkpt lat="45.5483474" lon="11.4285443"><ele>43.0</ele><time>2026-05-02T10:24:17.538Z</time></trkpt><trkpt lat="45.5485871" lon="11.4282973"><ele>42.5</ele><time>2026-05-02T10:24:18.538Z</time></trkpt><trkpt lat="45.5488326" lon="11.4280765"><ele>42.0</ele><time>2026-05-02T10:24:19.538Z</time></trkpt><trkpt lat="45.5490898" lon="11.4278923"><ele>42.0</ele><time>2026-05-02T10:24:20.537Z</time></trkpt><trkpt lat="45.5493496" lon="11.4277227"><ele>42.0</ele><time>2026-05-02T10:24:21.538Z</time></trkpt><trkpt lat="45.5496036" lon="11.4275569"><ele>44.0</ele><time>2026-05-02T10:24:22.537Z</time></trkpt><trkpt lat="45.5498503" lon="11.4273862"><ele>46.0</ele><time>2026-05-02T10:24:23.538Z</time></trkpt><trkpt lat="45.5500854" lon="11.427198"><ele>45.0</ele><time>2026-05-02T10:24:24.538Z</time></trkpt><trkpt lat="45.5503028" lon="11.4269839"><ele>44.0</ele><time>2026-05-02T10:24:25.538Z</time></trkpt><trkpt lat="45.5505086" lon="11.4267527"><ele>45.0</ele><time>2026-05-02T10:24:26.538Z</time></trkpt><trkpt lat="45.550702" lon="11.4265059"><ele>46.0</ele><time>2026-05-02T10:24:27.538Z</time></trkpt><trkpt lat="45.5508861" lon="11.4262515"><ele>46.0</ele><time>2026-05-02T10:24:28.539Z</time></trkpt><trkpt lat="45.551069" lon="11.4260224"><ele>46.0</ele><time>2026-05-02T10:24:29.539Z</time></trkpt><trkpt lat="45.55126" lon="11.4258206"><ele>45.5</ele><time>2026-05-02T10:24:30.537Z</time></trkpt><trkpt lat="45.5514635" lon="11.4256359"><ele>45.0</ele><time>2026-05-02T10:24:31.537Z</time></trkpt><trkpt lat="45.5516775" lon="11.4254642"><ele>45.0</ele><time>2026-05-02T10:24:32.538Z</time></trkpt><trkpt lat="45.5518974" lon="11.4253002"><ele>45.0</ele><time>2026-05-02T10:24:33.537Z</time></trkpt><trkpt lat="45.5521213" lon="11.425141"><ele>49.5</ele><time>2026-05-02T10:24:34.538Z</time></trkpt><trkpt lat="45.5523475" lon="11.4249938"><ele>54.0</ele><time>2026-05-02T10:24:35.538Z</time></trkpt><trkpt lat="45.5525699" lon="11.4248553"><ele>54.0</ele><time>2026-05-02T10:24:36.539Z</time></trkpt><trkpt lat="45.5527804" lon="11.4247239"><ele>54.0</ele><time>2026-05-02T10:24:37.539Z</time></trkpt><trkpt lat="45.5529811" lon="11.4245981"><ele>54.0</ele><time>2026-05-02T10:24:38.538Z</time></trkpt><trkpt lat="45.5531778" lon="11.4244934"><ele>52.0</ele><time>2026-05-02T10:24:39.538Z</time></trkpt><trkpt lat="45.5533803" lon="11.4244154"><ele>50.0</ele><time>2026-05-02T10:24:40.538Z</time></trkpt><trkpt lat="45.5535928" lon="11.4243522"><ele>48.0</ele><time>2026-05-02T10:24:41.538Z</time></trkpt><trkpt lat="45.5538128" lon="11.4242999"><ele>47.5</ele><time>2026-05-02T10:24:42.537Z</time></trkpt><trkpt lat="45.5540374" lon="11.4242473"><ele>47.0</ele><time>2026-05-02T10:24:43.538Z</time></trkpt><trkpt lat="45.55427" lon="11.4242001"><ele>47.0</ele><time>2026-05-02T10:24:44.538Z</time></trkpt><trkpt lat="45.5545062" lon="11.4241504"><ele>47.0</ele><time>2026-05-02T10:24:45.538Z</time></trkpt><trkpt lat="45.5547428" lon="11.4240978"><ele>49.5</ele><time>2026-05-02T10:24:46.538Z</time></trkpt><trkpt lat="45.5549786" lon="11.4240446"><ele>52.0</ele><time>2026-05-02T10:24:47.539Z</time></trkpt><trkpt lat="45.5552104" lon="11.4239945"><ele>58.5</ele><time>2026-05-02T10:24:48.539Z</time></trkpt><trkpt lat="45.5554383" lon="11.4239432"><ele>65.0</ele><time>2026-05-02T10:24:49.538Z</time></trkpt><trkpt lat="45.5556654" lon="11.4238962"><ele>65.0</ele><time>2026-05-02T10:24:50.538Z</time></trkpt><trkpt lat="45.555891" lon="11.4238591"><ele>65.0</ele><time>2026-05-02T10:24:51.537Z</time></trkpt><trkpt lat="45.5561132" lon="11.4238378"><ele>62.66666666666667</ele><time>2026-05-02T10:24:52.538Z</time></trkpt><trkpt lat="45.5563266" lon="11.4238249"><ele>60.33333333333333</ele><time>2026-05-02T10:24:53.538Z</time></trkpt><trkpt lat="45.5565252" lon="11.4238217"><ele>58.0</ele><time>2026-05-02T10:24:54.537Z</time></trkpt><trkpt lat="45.5567158" lon="11.4238382"><ele>58.0</ele><time>2026-05-02T10:24:55.538Z</time></trkpt><trkpt lat="45.5568922" lon="11.4239006"><ele>58.0</ele><time>2026-05-02T10:24:56.539Z</time></trkpt><trkpt lat="45.5570559" lon="11.4240063"><ele>58.0</ele><time>2026-05-02T10:24:57.538Z</time></trkpt><trkpt lat="45.5572094" lon="11.4241521"><ele>54.33333333333333</ele><time>2026-05-02T10:24:58.538Z</time></trkpt><trkpt lat="45.557352" lon="11.4243193"><ele>50.666666666666664</ele><time>2026-05-02T10:24:59.538Z</time></trkpt><trkpt lat="45.5574905" lon="11.4244938"><ele>47.0</ele><time>2026-05-02T10:25:00.539Z</time></trkpt><trkpt lat="45.5576138" lon="11.424649"><ele>47.0</ele><time>2026-05-02T10:25:01.537Z</time></trkpt><trkpt lat="45.5577193" lon="11.4247768"><ele>47.0</ele><time>2026-05-02T10:25:02.539Z</time></trkpt><trkpt lat="45.5578096" lon="11.4248952"><ele>47.0</ele><time>2026-05-02T10:25:03.538Z</time></trkpt><trkpt lat="45.5579033" lon="11.4250154"><ele>47.0</ele><time>2026-05-02T10:25:04.538Z</time></trkpt><trkpt lat="45.5580054" lon="11.4251384"><ele>46.75</ele><time>2026-05-02T10:25:05.537Z</time></trkpt><trkpt lat="45.5581129" lon="11.4252681"><ele>46.5</ele><time>2026-05-02T10:25:06.538Z</time></trkpt><trkpt lat="45.5582223" lon="11.4254063"><ele>46.25</ele><time>2026-05-02T10:25:07.538Z</time></trkpt><trkpt lat="45.5583346" lon="11.4255494"><ele>46.0</ele><time>2026-05-02T10:25:08.537Z</time></trkpt><trkpt lat="45.5584489" lon="11.4256951"><ele>46.0</ele><time>2026-05-02T10:25:09.538Z</time></trkpt><trkpt lat="45.5585655" lon="11.4258422"><ele>46.0</ele><time>2026-05-02T10:25:10.538Z</time></trkpt><trkpt lat="45.5586839" lon="11.4259915"><ele>46.0</ele><time>2026-05-02T10:25:11.538Z</time></trkpt><trkpt lat="45.5587958" lon="11.4261349"><ele>46.0</ele><time>2026-05-02T10:25:12.537Z</time></trkpt><trkpt lat="45.5589016" lon="11.4262701"><ele>46.0</ele><time>2026-05-02T10:25:13.538Z</time></trkpt><trkpt lat="45.5590015" lon="11.4263965"><ele>46.0</ele><time>2026-05-02T10:25:14.538Z</time></trkpt><trkpt lat="45.5590987" lon="11.4265091"><ele>46.0</ele><time>2026-05-02T10:25:15.538Z</time></trkpt><trkpt lat="45.5591896" lon="11.4266137"><ele>46.25</ele><time>2026-05-02T10:25:16.538Z</time></trkpt><trkpt lat="45.5592874" lon="11.4267126"><ele>46.5</ele><time>2026-05-02T10:25:17.539Z</time></trkpt><trkpt lat="45.5593982" lon="11.4267874"><ele>46.75</ele><time>2026-05-02T10:25:18.537Z</time></trkpt><trkpt lat="45.559524" lon="11.4268275"><ele>47.0</ele><time>2026-05-02T10:25:19.538Z</time></trkpt><trkpt lat="45.5596481" lon="11.4268289"><ele>47.0</ele><time>2026-05-02T10:25:20.538Z</time></trkpt><trkpt lat="45.5597698" lon="11.426804"><ele>47.0</ele><time>2026-05-02T10:25:21.538Z</time></trkpt><trkpt lat="45.5598867" lon="11.4267581"><ele>47.0</ele><time>2026-05-02T10:25:22.538Z</time></trkpt><trkpt lat="45.5600048" lon="11.4267124"><ele>47.0</ele><time>2026-05-02T10:25:23.538Z</time></trkpt><trkpt lat="45.5601259" lon="11.4266649"><ele>47.0</ele><time>2026-05-02T10:25:24.538Z</time></trkpt><trkpt lat="45.5602523" lon="11.4266239"><ele>47.0</ele><time>2026-05-02T10:25:25.539Z</time></trkpt><trkpt lat="45.5603808" lon="11.4265818"><ele>47.0</ele><time>2026-05-02T10:25:26.538Z</time></trkpt><trkpt lat="45.5605116" lon="11.426533"><ele>47.0</ele><time>2026-05-02T10:25:27.538Z</time></trkpt><trkpt lat="45.5606487" lon="11.4264798"><ele>46.75</ele><time>2026-05-02T10:25:28.538Z</time></trkpt><trkpt lat="45.5607907" lon="11.4264262"><ele>46.5</ele><time>2026-05-02T10:25:29.537Z</time></trkpt><trkpt lat="45.560932" lon="11.4263746"><ele>46.25</ele><time>2026-05-02T10:25:30.538Z</time></trkpt><trkpt lat="45.5610703" lon="11.4263208"><ele>46.0</ele><time>2026-05-02T10:25:31.537Z</time></trkpt><trkpt lat="45.5612082" lon="11.4262667"><ele>46.75</ele><time>2026-05-02T10:25:32.538Z</time></trkpt><trkpt lat="45.5613406" lon="11.4262177"><ele>47.5</ele><time>2026-05-02T10:25:33.538Z</time></trkpt><trkpt lat="45.5614679" lon="11.4261648"><ele>48.25</ele><time>2026-05-02T10:25:34.538Z</time></trkpt><trkpt lat="45.5615892" lon="11.4260825"><ele>49.0</ele><time>2026-05-02T10:25:35.539Z</time></trkpt><trkpt lat="45.5617" lon="11.4259643"><ele>49.0</ele><time>2026-05-02T10:25:36.538Z</time></trkpt><trkpt lat="45.561788" lon="11.425807"><ele>49.0</ele><time>2026-05-02T10:25:37.538Z</time></trkpt><trkpt lat="45.5618577" lon="11.4256387"><ele>49.0</ele><time>2026-05-02T10:25:38.539Z</time></trkpt><trkpt lat="45.561923" lon="11.4254631"><ele>49.0</ele><time>2026-05-02T10:25:39.538Z</time></trkpt><trkpt lat="45.5619841" lon="11.4252829"><ele>48.5</ele><time>2026-05-02T10:25:40.537Z</time></trkpt><trkpt lat="45.5620508" lon="11.4251044"><ele>48.0</ele><time>2026-05-02T10:25:41.538Z</time></trkpt><trkpt lat="45.5621272" lon="11.4249439"><ele>47.5</ele><time>2026-05-02T10:25:42.538Z</time></trkpt><trkpt lat="45.5622208" lon="11.4248115"><ele>47.0</ele><time>2026-05-02T10:25:43.537Z</time></trkpt><trkpt lat="45.5623336" lon="11.4247007"><ele>46.33333333333333</ele><time>2026-05-02T10:25:44.537Z</time></trkpt><trkpt lat="45.5624629" lon="11.4246224"><ele>45.666666666666664</ele><time>2026-05-02T10:25:45.538Z</time></trkpt><trkpt lat="45.5626115" lon="11.424577"><ele>45.0</ele><time>2026-05-02T10:25:46.539Z</time></trkpt><trkpt lat="45.562781" lon="11.4245541"><ele>44.666666666666664</ele><time>2026-05-02T10:25:47.538Z</time></trkpt><trkpt lat="45.5629707" lon="11.4245354"><ele>44.33333333333333</ele><time>2026-05-02T10:25:48.539Z</time></trkpt><trkpt lat="45.5631775" lon="11.4245134"><ele>44.0</ele><time>2026-05-02T10:25:49.539Z</time></trkpt><trkpt lat="45.5633891" lon="11.4244892"><ele>44.0</ele><time>2026-05-02T10:25:50.538Z</time></trkpt><trkpt lat="45.563607" lon="11.4244658"><ele>44.0</ele><time>2026-05-02T10:25:51.538Z</time></trkpt><trkpt lat="45.5638232" lon="11.4244409"><ele>44.0</ele><time>2026-05-02T10:25:52.538Z</time></trkpt><trkpt lat="45.564033" lon="11.4244078"><ele>44.33333333333333</ele><time>2026-05-02T10:25:53.538Z</time></trkpt><trkpt lat="45.5642382" lon="11.4243622"><ele>44.666666666666664</ele><time>2026-05-02T10:25:54.539Z</time></trkpt><trkpt lat="45.5644401" lon="11.4242992"><ele>45.0</ele><time>2026-05-02T10:25:55.539Z</time></trkpt><trkpt lat="45.5646389" lon="11.4242148"><ele>50.33333333333333</ele><time>2026-05-02T10:25:56.539Z</time></trkpt><trkpt lat="45.5648326" lon="11.4241122"><ele>55.666666666666664</ele><time>2026-05-02T10:25:57.538Z</time></trkpt><trkpt lat="45.5650248" lon="11.4240002"><ele>61.0</ele><time>2026-05-02T10:25:58.538Z</time></trkpt><trkpt lat="45.5652151" lon="11.423892"><ele>59.0</ele><time>2026-05-02T10:25:59.538Z</time></trkpt><trkpt lat="45.565409" lon="11.4237862"><ele>57.0</ele><time>2026-05-02T10:26:00.538Z</time></trkpt><trkpt lat="45.565607" lon="11.4236869"><ele>55.0</ele><time>2026-05-02T10:26:01.538Z</time></trkpt><trkpt lat="45.5658192" lon="11.4236027"><ele>55.0</ele><time>2026-05-02T10:26:02.538Z</time></trkpt><trkpt lat="45.5660395" lon="11.4235393"><ele>55.0</ele><time>2026-05-02T10:26:03.538Z</time></trkpt><trkpt lat="45.5662731" lon="11.4235048"><ele>55.5</ele><time>2026-05-02T10:26:04.539Z</time></trkpt><trkpt lat="45.5665163" lon="11.4234752"><ele>56.0</ele><time>2026-05-02T10:26:05.538Z</time></trkpt><trkpt lat="45.566768" lon="11.4234372"><ele>56.0</ele><time>2026-05-02T10:26:06.538Z</time></trkpt><trkpt lat="45.5670199" lon="11.4234048"><ele>56.0</ele><time>2026-05-02T10:26:07.539Z</time></trkpt><trkpt lat="45.5672678" lon="11.4233776"><ele>56.5</ele><time>2026-05-02T10:26:08.538Z</time></trkpt><trkpt lat="45.5675151" lon="11.4233537"><ele>57.0</ele><time>2026-05-02T10:26:09.538Z</time></trkpt><trkpt lat="45.5677543" lon="11.4233294"><ele>58.0</ele><time>2026-05-02T10:26:10.539Z</time></trkpt><trkpt lat="45.5679799" lon="11.4232929"><ele>59.0</ele><time>2026-05-02T10:26:11.537Z</time></trkpt><trkpt lat="45.5681899" lon="11.4232187"><ele>60.0</ele><time>2026-05-02T10:26:12.538Z</time></trkpt><trkpt lat="45.568391" lon="11.4231016"><ele>59.66666666666667</ele><time>2026-05-02T10:26:13.538Z</time></trkpt><trkpt lat="45.5685874" lon="11.4229603"><ele>59.333333333333336</ele><time>2026-05-02T10:26:14.537Z</time></trkpt><trkpt lat="45.5687862" lon="11.4228147"><ele>59.0</ele><time>2026-05-02T10:26:15.538Z</time></trkpt><trkpt lat="45.5689933" lon="11.4226911"><ele>59.0</ele><time>2026-05-02T10:26:16.538Z</time></trkpt><trkpt lat="45.5692089" lon="11.4225853"><ele>59.0</ele><time>2026-05-02T10:26:17.539Z</time></trkpt><trkpt lat="45.5694297" lon="11.4224936"><ele>62.5</ele><time>2026-05-02T10:26:18.538Z</time></trkpt><trkpt lat="45.569657" lon="11.422425"><ele>66.0</ele><time>2026-05-02T10:26:19.538Z</time></trkpt><trkpt lat="45.5698898" lon="11.4223809"><ele>66.0</ele><time>2026-05-02T10:26:20.538Z</time></trkpt><trkpt lat="45.5701268" lon="11.4223527"><ele>66.0</ele><time>2026-05-02T10:26:21.538Z</time></trkpt><trkpt lat="45.5703643" lon="11.4223321"><ele>61.5</ele><time>2026-05-02T10:26:22.537Z</time></trkpt><trkpt lat="45.5706029" lon="11.4223073"><ele>57.0</ele><time>2026-05-02T10:26:23.539Z</time></trkpt><trkpt lat="45.5708382" lon="11.4222661"><ele>57.0</ele><time>2026-05-02T10:26:24.539Z</time></trkpt><trkpt lat="45.5710699" lon="11.4222062"><ele>57.0</ele><time>2026-05-02T10:26:25.538Z</time></trkpt><trkpt lat="45.5712996" lon="11.4221335"><ele>56.0</ele><time>2026-05-02T10:26:26.538Z</time></trkpt><trkpt lat="45.5715242" lon="11.4220308"><ele>55.0</ele><time>2026-05-02T10:26:27.538Z</time></trkpt><trkpt lat="45.5717417" lon="11.421894"><ele>55.0</ele><time>2026-05-02T10:26:28.538Z</time></trkpt><trkpt lat="45.571958" lon="11.4217331"><ele>55.0</ele><time>2026-05-02T10:26:29.538Z</time></trkpt><trkpt lat="45.572176" lon="11.4215637"><ele>53.5</ele><time>2026-05-02T10:26:30.539Z</time></trkpt><trkpt lat="45.572397" lon="11.4213957"><ele>52.0</ele><time>2026-05-02T10:26:31.538Z</time></trkpt><trkpt lat="45.5726171" lon="11.4212248"><ele>52.0</ele><time>2026-05-02T10:26:32.538Z</time></trkpt><trkpt lat="45.5728269" lon="11.4210337"><ele>52.0</ele><time>2026-05-02T10:26:33.538Z</time></trkpt><trkpt lat="45.5730196" lon="11.4208274"><ele>52.5</ele><time>2026-05-02T10:26:34.538Z</time></trkpt><trkpt lat="45.5732084" lon="11.4206207"><ele>53.0</ele><time>2026-05-02T10:26:35.538Z</time></trkpt><trkpt lat="45.5734081" lon="11.4204293"><ele>53.0</ele><time>2026-05-02T10:26:36.539Z</time></trkpt><trkpt lat="45.5736204" lon="11.4202523"><ele>53.0</ele><time>2026-05-02T10:26:37.538Z</time></trkpt><trkpt lat="45.5738466" lon="11.4200796"><ele>55.5</ele><time>2026-05-02T10:26:38.538Z</time></trkpt><trkpt lat="45.5740871" lon="11.419911"><ele>58.0</ele><time>2026-05-02T10:26:39.538Z</time></trkpt><trkpt lat="45.5743375" lon="11.4197526"><ele>55.0</ele><time>2026-05-02T10:26:40.537Z</time></trkpt><trkpt lat="45.5746085" lon="11.4196192"><ele>52.0</ele><time>2026-05-02T10:26:41.539Z</time></trkpt><trkpt lat="45.5748945" lon="11.4194856"><ele>52.0</ele><time>2026-05-02T10:26:42.539Z</time></trkpt><trkpt lat="45.5751921" lon="11.4193395"><ele>52.0</ele><time>2026-05-02T10:26:43.539Z</time></trkpt><trkpt lat="45.5754908" lon="11.4191946"><ele>52.0</ele><time>2026-05-02T10:26:44.539Z</time></trkpt><trkpt lat="45.5757854" lon="11.4190498"><ele>52.0</ele><time>2026-05-02T10:26:45.538Z</time></trkpt><trkpt lat="45.5760788" lon="11.4189082"><ele>52.5</ele><time>2026-05-02T10:26:46.538Z</time></trkpt><trkpt lat="45.5763629" lon="11.4187722"><ele>53.0</ele><time>2026-05-02T10:26:47.538Z</time></trkpt><trkpt lat="45.5766341" lon="11.4186425"><ele>53.0</ele><time>2026-05-02T10:26:48.538Z</time></trkpt><trkpt lat="45.5768944" lon="11.4185149"><ele>53.0</ele><time>2026-05-02T10:26:49.538Z</time></trkpt><trkpt lat="45.5771468" lon="11.4183928"><ele>55.5</ele><time>2026-05-02T10:26:50.539Z</time></trkpt><trkpt lat="45.577394" lon="11.418273"><ele>58.0</ele><time>2026-05-02T10:26:51.538Z</time></trkpt><trkpt lat="45.5776376" lon="11.4181565"><ele>56.0</ele><time>2026-05-02T10:26:52.539Z</time></trkpt><trkpt lat="45.5778772" lon="11.4180418"><ele>54.0</ele><time>2026-05-02T10:26:53.538Z</time></trkpt><trkpt lat="45.5781103" lon="11.4179227"><ele>54.0</ele><time>2026-05-02T10:26:54.539Z</time></trkpt><trkpt lat="45.5783403" lon="11.4178053"><ele>54.0</ele><time>2026-05-02T10:26:55.538Z</time></trkpt><trkpt lat="45.5785742" lon="11.4177037"><ele>57.5</ele><time>2026-05-02T10:26:56.539Z</time></trkpt><trkpt lat="45.578807" lon="11.4176208"><ele>61.0</ele><time>2026-05-02T10:26:57.538Z</time></trkpt><trkpt lat="45.5790391" lon="11.4175467"><ele>61.0</ele><time>2026-05-02T10:26:58.539Z</time></trkpt><trkpt lat="45.5792757" lon="11.4174905"><ele>61.0</ele><time>2026-05-02T10:26:59.539Z</time></trkpt><trkpt lat="45.5795144" lon="11.4174439"><ele>64.0</ele><time>2026-05-02T10:27:00.539Z</time></trkpt><trkpt lat="45.5797554" lon="11.4173992"><ele>67.0</ele><time>2026-05-02T10:27:01.538Z</time></trkpt><trkpt lat="45.5799947" lon="11.4173427"><ele>67.0</ele><time>2026-05-02T10:27:02.539Z</time></trkpt><trkpt lat="45.5802289" lon="11.4172814"><ele>67.0</ele><time>2026-05-02T10:27:03.538Z</time></trkpt><trkpt lat="45.5804526" lon="11.4172277"><ele>69.0</ele><time>2026-05-02T10:27:04.539Z</time></trkpt><trkpt lat="45.5806676" lon="11.4171885"><ele>71.0</ele><time>2026-05-02T10:27:05.538Z</time></trkpt><trkpt lat="45.580874" lon="11.4171621"><ele>73.0</ele><time>2026-05-02T10:27:06.539Z</time></trkpt><trkpt lat="45.5810714" lon="11.4171459"><ele>67.66666666666666</ele><time>2026-05-02T10:27:07.538Z</time></trkpt><trkpt lat="45.5812586" lon="11.4171433"><ele>62.33333333333333</ele><time>2026-05-02T10:27:08.537Z</time></trkpt><trkpt lat="45.5814373" lon="11.4171466"><ele>57.0</ele><time>2026-05-02T10:27:09.537Z</time></trkpt><trkpt lat="45.581607" lon="11.4171467"><ele>57.0</ele><time>2026-05-02T10:27:10.538Z</time></trkpt><trkpt lat="45.5817682" lon="11.4171453"><ele>57.0</ele><time>2026-05-02T10:27:11.538Z</time></trkpt><trkpt lat="45.5819245" lon="11.4171436"><ele>57.0</ele><time>2026-05-02T10:27:12.538Z</time></trkpt><trkpt lat="45.5820782" lon="11.4171355"><ele>57.66666666666667</ele><time>2026-05-02T10:27:13.538Z</time></trkpt><trkpt lat="45.5822291" lon="11.4170987"><ele>58.333333333333336</ele><time>2026-05-02T10:27:14.538Z</time></trkpt><trkpt lat="45.5823721" lon="11.4170184"><ele>59.0</ele><time>2026-05-02T10:27:15.538Z</time></trkpt><trkpt lat="45.5825052" lon="11.4168947"><ele>59.0</ele><time>2026-05-02T10:27:16.538Z</time></trkpt><trkpt lat="45.5826324" lon="11.4167442"><ele>59.0</ele><time>2026-05-02T10:27:17.539Z</time></trkpt><trkpt lat="45.5827621" lon="11.4165859"><ele>59.0</ele><time>2026-05-02T10:27:18.539Z</time></trkpt><trkpt lat="45.5828876" lon="11.4164271"><ele>59.66666666666667</ele><time>2026-05-02T10:27:19.538Z</time></trkpt><trkpt lat="45.5830095" lon="11.4162707"><ele>60.33333333333333</ele><time>2026-05-02T10:27:20.538Z</time></trkpt><trkpt lat="45.5831302" lon="11.4161185"><ele>61.0</ele><time>2026-05-02T10:27:21.538Z</time></trkpt><trkpt lat="45.5832503" lon="11.4159699"><ele>61.0</ele><time>2026-05-02T10:27:22.538Z</time></trkpt><trkpt lat="45.5833673" lon="11.415817"><ele>61.0</ele><time>2026-05-02T10:27:23.538Z</time></trkpt><trkpt lat="45.5834841" lon="11.4156663"><ele>61.0</ele><time>2026-05-02T10:27:24.538Z</time></trkpt><trkpt lat="45.5836012" lon="11.415523"><ele>61.0</ele><time>2026-05-02T10:27:25.538Z</time></trkpt><trkpt lat="45.5837225" lon="11.4153894"><ele>61.0</ele><time>2026-05-02T10:27:26.538Z</time></trkpt><trkpt lat="45.5838462" lon="11.4152614"><ele>61.0</ele><time>2026-05-02T10:27:27.538Z</time></trkpt><trkpt lat="45.5839739" lon="11.4151363"><ele>61.0</ele><time>2026-05-02T10:27:28.538Z</time></trkpt><trkpt lat="45.5840987" lon="11.4150109"><ele>61.0</ele><time>2026-05-02T10:27:29.539Z</time></trkpt><trkpt lat="45.5842197" lon="11.4148922"><ele>61.0</ele><time>2026-05-02T10:27:30.539Z</time></trkpt><trkpt lat="45.5843338" lon="11.414779"><ele>61.0</ele><time>2026-05-02T10:27:31.538Z</time></trkpt><trkpt lat="45.584443" lon="11.4146722"><ele>61.25</ele><time>2026-05-02T10:27:32.538Z</time></trkpt><trkpt lat="45.5845447" lon="11.4145614"><ele>61.5</ele><time>2026-05-02T10:27:33.539Z</time></trkpt><trkpt lat="45.5846313" lon="11.414443"><ele>61.75</ele><time>2026-05-02T10:27:34.538Z</time></trkpt><trkpt lat="45.5846967" lon="11.4143039"><ele>62.0</ele><time>2026-05-02T10:27:35.537Z</time></trkpt><trkpt lat="45.5847321" lon="11.4141458"><ele>62.0</ele><time>2026-05-02T10:27:36.538Z</time></trkpt><trkpt lat="45.5847521" lon="11.4139765"><ele>62.0</ele><time>2026-05-02T10:27:37.539Z</time></trkpt><trkpt lat="45.5847766" lon="11.4137983"><ele>62.0</ele><time>2026-05-02T10:27:38.538Z</time></trkpt><trkpt lat="45.5848026" lon="11.4136085"><ele>62.0</ele><time>2026-05-02T10:27:39.539Z</time></trkpt><trkpt lat="45.5848239" lon="11.4134261"><ele>62.0</ele><time>2026-05-02T10:27:40.538Z</time></trkpt><trkpt lat="45.584846" lon="11.4132403"><ele>62.0</ele><time>2026-05-02T10:27:41.537Z</time></trkpt><trkpt lat="45.5848695" lon="11.4130574"><ele>62.0</ele><time>2026-05-02T10:27:42.538Z</time></trkpt><trkpt lat="45.5848914" lon="11.4128732"><ele>62.0</ele><time>2026-05-02T10:27:43.539Z</time></trkpt><trkpt lat="45.5849122" lon="11.4126888"><ele>62.75</ele><time>2026-05-02T10:27:44.539Z</time></trkpt><trkpt lat="45.5849339" lon="11.4125058"><ele>63.5</ele><time>2026-05-02T10:27:45.539Z</time></trkpt><trkpt lat="45.5849558" lon="11.4123245"><ele>64.25</ele><time>2026-05-02T10:27:46.537Z</time></trkpt><trkpt lat="45.5849786" lon="11.4121496"><ele>65.0</ele><time>2026-05-02T10:27:47.538Z</time></trkpt><trkpt lat="45.5850007" lon="11.4119819"><ele>65.25</ele><time>2026-05-02T10:27:48.538Z</time></trkpt><trkpt lat="45.5850199" lon="11.4118134"><ele>65.5</ele><time>2026-05-02T10:27:49.538Z</time></trkpt><trkpt lat="45.58504" lon="11.4116468"><ele>65.75</ele><time>2026-05-02T10:27:50.538Z</time></trkpt><trkpt lat="45.5850596" lon="11.4114731"><ele>66.0</ele><time>2026-05-02T10:27:51.538Z</time></trkpt><trkpt lat="45.5850793" lon="11.4112946"><ele>67.25</ele><time>2026-05-02T10:27:52.538Z</time></trkpt><trkpt lat="45.5851" lon="11.4111149"><ele>68.5</ele><time>2026-05-02T10:27:53.538Z</time></trkpt><trkpt lat="45.5851206" lon="11.4109346"><ele>69.75</ele><time>2026-05-02T10:27:54.538Z</time></trkpt><trkpt lat="45.585141" lon="11.4107544"><ele>71.0</ele><time>2026-05-02T10:27:55.538Z</time></trkpt><trkpt lat="45.5851599" lon="11.4105733"><ele>72.5</ele><time>2026-05-02T10:27:56.538Z</time></trkpt><trkpt lat="45.5851742" lon="11.4103887"><ele>74.0</ele><time>2026-05-02T10:27:57.539Z</time></trkpt><trkpt lat="45.5851731" lon="11.4102003"><ele>75.5</ele><time>2026-05-02T10:27:58.538Z</time></trkpt><trkpt lat="45.5851607" lon="11.4100029"><ele>77.0</ele><time>2026-05-02T10:27:59.538Z</time></trkpt><trkpt lat="45.5851449" lon="11.4098048"><ele>79.0</ele><time>2026-05-02T10:28:00.538Z</time></trkpt><trkpt lat="45.5851294" lon="11.4096043"><ele>81.0</ele><time>2026-05-02T10:28:01.538Z</time></trkpt><trkpt lat="45.5851135" lon="11.4093986"><ele>83.0</ele><time>2026-05-02T10:28:02.538Z</time></trkpt><trkpt lat="45.5850964" lon="11.4091916"><ele>85.0</ele><time>2026-05-02T10:28:03.538Z</time></trkpt><trkpt lat="45.5850835" lon="11.4089876"><ele>86.25</ele><time>2026-05-02T10:28:04.537Z</time></trkpt><trkpt lat="45.5850709" lon="11.4087887"><ele>87.5</ele><time>2026-05-02T10:28:05.539Z</time></trkpt><trkpt lat="45.5850564" lon="11.4085932"><ele>88.75</ele><time>2026-05-02T10:28:06.539Z</time></trkpt><trkpt lat="45.5850457" lon="11.4083959"><ele>90.0</ele><time>2026-05-02T10:28:07.539Z</time></trkpt><trkpt lat="45.585049" lon="11.4082014"><ele>90.0</ele><time>2026-05-02T10:28:08.537Z</time></trkpt><trkpt lat="45.5850632" lon="11.4080128"><ele>90.0</ele><time>2026-05-02T10:28:09.538Z</time></trkpt><trkpt lat="45.5850874" lon="11.407822"><ele>90.0</ele><time>2026-05-02T10:28:10.538Z</time></trkpt><trkpt lat="45.5851095" lon="11.4076275"><ele>90.0</ele><time>2026-05-02T10:28:11.537Z</time></trkpt><trkpt lat="45.5851246" lon="11.4074229"><ele>90.75</ele><time>2026-05-02T10:28:12.537Z</time></trkpt><trkpt lat="45.5851207" lon="11.4072115"><ele>91.5</ele><time>2026-05-02T10:28:13.538Z</time></trkpt><trkpt lat="45.5851065" lon="11.4069964"><ele>92.25</ele><time>2026-05-02T10:28:14.537Z</time></trkpt><trkpt lat="45.585088" lon="11.4067861"><ele>93.0</ele><time>2026-05-02T10:28:15.537Z</time></trkpt><trkpt lat="45.5850742" lon="11.4065781"><ele>94.75</ele><time>2026-05-02T10:28:16.539Z</time></trkpt><trkpt lat="45.5850785" lon="11.4063691"><ele>96.5</ele><time>2026-05-02T10:28:17.539Z</time></trkpt><trkpt lat="45.5850948" lon="11.406169"><ele>98.25</ele><time>2026-05-02T10:28:18.539Z</time></trkpt><trkpt lat="45.5851123" lon="11.4059711"><ele>100.0</ele><time>2026-05-02T10:28:19.538Z</time></trkpt><trkpt lat="45.5851235" lon="11.4057795"><ele>101.2</ele><time>2026-05-02T10:28:20.538Z</time></trkpt><trkpt lat="45.5851353" lon="11.4056001"><ele>102.4</ele><time>2026-05-02T10:28:21.538Z</time></trkpt><trkpt lat="45.585144" lon="11.4054279"><ele>103.6</ele><time>2026-05-02T10:28:22.539Z</time></trkpt><trkpt lat="45.5851506" lon="11.4052726"><ele>104.8</ele><time>2026-05-02T10:28:23.538Z</time></trkpt><trkpt lat="45.5851559" lon="11.4051396"><ele>106.0</ele><time>2026-05-02T10:28:24.539Z</time></trkpt><trkpt lat="45.5851652" lon="11.4050217"><ele>107.33333333333334</ele><time>2026-05-02T10:28:25.539Z</time></trkpt><trkpt lat="45.5851725" lon="11.4049287"><ele>108.66666666666667</ele><time>2026-05-02T10:28:26.539Z</time></trkpt><trkpt lat="45.585185" lon="11.4048026"><ele>110.0</ele><time>2026-05-02T10:28:28.538Z</time></trkpt><trkpt lat="45.5852062" lon="11.4046946"><ele>111.33333333333334</ele><time>2026-05-02T10:28:30.539Z</time></trkpt><trkpt lat="45.5852779" lon="11.4046778"><ele>112.66666666666667</ele><time>2026-05-02T10:28:32.539Z</time></trkpt><trkpt lat="45.5853169" lon="11.4047918"><ele>114.0</ele><time>2026-05-02T10:28:34.538Z</time></trkpt><trkpt lat="45.5853184" lon="11.404975"><ele>114.0</ele><time>2026-05-02T10:28:36.538Z</time></trkpt><trkpt lat="45.5853182" lon="11.4050659"><ele>114.0</ele><time>2026-05-02T10:28:37.538Z</time></trkpt><trkpt lat="45.5853339" lon="11.4052255"><ele>114.0</ele><time>2026-05-02T10:28:39.538Z</time></trkpt><trkpt lat="45.5854094" lon="11.4053003"><ele>114.0</ele><time>2026-05-02T10:28:41.538Z</time></trkpt><trkpt lat="45.5854975" lon="11.4052279"><ele>114.0</ele><time>2026-05-02T10:28:43.538Z</time></trkpt><trkpt lat="45.5855191" lon="11.4051214"><ele>114.0</ele><time>2026-05-02T10:28:44.538Z</time></trkpt><trkpt lat="45.5855408" lon="11.4049969"><ele>116.0</ele><time>2026-05-02T10:28:45.539Z</time></trkpt><trkpt lat="45.5855692" lon="11.4048488"><ele>118.0</ele><time>2026-05-02T10:28:46.538Z</time></trkpt><trkpt lat="45.5855972" lon="11.4046859"><ele>120.0</ele><time>2026-05-02T10:28:47.538Z</time></trkpt><trkpt lat="45.5856172" lon="11.4045048"><ele>122.0</ele><time>2026-05-02T10:28:48.537Z</time></trkpt><trkpt lat="45.5856201" lon="11.4043031"><ele>122.0</ele><time>2026-05-02T10:28:49.538Z</time></trkpt><trkpt lat="45.5856076" lon="11.4040596"><ele>122.0</ele><time>2026-05-02T10:28:50.539Z</time></trkpt><trkpt lat="45.5856015" lon="11.4037962"><ele>122.0</ele><time>2026-05-02T10:28:51.538Z</time></trkpt><trkpt lat="45.5856044" lon="11.4035397"><ele>123.0</ele><time>2026-05-02T10:28:52.538Z</time></trkpt><trkpt lat="45.5856057" lon="11.4033186"><ele>124.0</ele><time>2026-05-02T10:28:53.537Z</time></trkpt><trkpt lat="45.5856066" lon="11.4031362"><ele>125.0</ele><time>2026-05-02T10:28:54.537Z</time></trkpt><trkpt lat="45.5856057" lon="11.4029863"><ele>126.0</ele><time>2026-05-02T10:28:55.537Z</time></trkpt><trkpt lat="45.5856076" lon="11.4028579"><ele>127.16666666666667</ele><time>2026-05-02T10:28:56.538Z</time></trkpt><trkpt lat="45.5856067" lon="11.4027507"><ele>128.33333333333334</ele><time>2026-05-02T10:28:57.537Z</time></trkpt><trkpt lat="45.5856101" lon="11.4026557"><ele>129.5</ele><time>2026-05-02T10:28:58.538Z</time></trkpt><trkpt lat="45.5856316" lon="11.4025678"><ele>130.66666666666669</ele><time>2026-05-02T10:28:59.538Z</time></trkpt><trkpt lat="45.5856759" lon="11.4025038"><ele>131.83333333333334</ele><time>2026-05-02T10:29:00.538Z</time></trkpt><trkpt lat="45.5857873" lon="11.4025043"><ele>133.0</ele><time>2026-05-02T10:29:02.538Z</time></trkpt><trkpt lat="45.5858566" lon="11.4026337"><ele>133.0</ele><time>2026-05-02T10:29:04.539Z</time></trkpt><trkpt lat="45.5858736" lon="11.4027249"><ele>133.0</ele><time>2026-05-02T10:29:05.538Z</time></trkpt><trkpt lat="45.5858885" lon="11.4028315"><ele>133.0</ele><time>2026-05-02T10:29:06.538Z</time></trkpt><trkpt lat="45.5859086" lon="11.4029452"><ele>133.0</ele><time>2026-05-02T10:29:07.538Z</time></trkpt><trkpt lat="45.5859276" lon="11.4030561"><ele>133.0</ele><time>2026-05-02T10:29:08.538Z</time></trkpt><trkpt lat="45.585942" lon="11.4031486"><ele>133.0</ele><time>2026-05-02T10:29:09.538Z</time></trkpt><trkpt lat="45.5859649" lon="11.4032931"><ele>131.6</ele><time>2026-05-02T10:29:11.538Z</time></trkpt><trkpt lat="45.5860198" lon="11.403419"><ele>130.20000000000002</ele><time>2026-05-02T10:29:13.538Z</time></trkpt><trkpt lat="45.5861298" lon="11.4034537"><ele>128.8</ele><time>2026-05-02T10:29:15.538Z</time></trkpt><trkpt lat="45.586224" lon="11.4033358"><ele>127.4</ele><time>2026-05-02T10:29:17.537Z</time></trkpt><trkpt lat="45.5862578" lon="11.4032352"><ele>126.0</ele><time>2026-05-02T10:29:18.538Z</time></trkpt><trkpt lat="45.5862919" lon="11.403121"><ele>129.6</ele><time>2026-05-02T10:29:19.538Z</time></trkpt><trkpt lat="45.586329" lon="11.4029934"><ele>133.2</ele><time>2026-05-02T10:29:20.538Z</time></trkpt><trkpt lat="45.5863618" lon="11.4028528"><ele>136.8</ele><time>2026-05-02T10:29:21.538Z</time></trkpt><trkpt lat="45.5863744" lon="11.4026978"><ele>140.4</ele><time>2026-05-02T10:29:22.538Z</time></trkpt><trkpt lat="45.5863637" lon="11.4025396"><ele>144.0</ele><time>2026-05-02T10:29:23.537Z</time></trkpt><trkpt lat="45.5863323" lon="11.4023842"><ele>144.0</ele><time>2026-05-02T10:29:24.538Z</time></trkpt><trkpt lat="45.586287" lon="11.4022266"><ele>144.0</ele><time>2026-05-02T10:29:25.538Z</time></trkpt><trkpt lat="45.5862534" lon="11.4020499"><ele>144.0</ele><time>2026-05-02T10:29:26.538Z</time></trkpt><trkpt lat="45.5862412" lon="11.4018553"><ele>144.0</ele><time>2026-05-02T10:29:27.538Z</time></trkpt><trkpt lat="45.5862322" lon="11.4016517"><ele>146.25</ele><time>2026-05-02T10:29:28.537Z</time></trkpt><trkpt lat="45.5862119" lon="11.4014492"><ele>148.5</ele><time>2026-05-02T10:29:29.538Z</time></trkpt><trkpt lat="45.5861712" lon="11.4012567"><ele>150.75</ele><time>2026-05-02T10:29:30.538Z</time></trkpt><trkpt lat="45.5861133" lon="11.4010933"><ele>153.0</ele><time>2026-05-02T10:29:31.539Z</time></trkpt><trkpt lat="45.5860399" lon="11.4009545"><ele>153.0</ele><time>2026-05-02T10:29:32.539Z</time></trkpt><trkpt lat="45.5859578" lon="11.4008249"><ele>153.0</ele><time>2026-05-02T10:29:33.538Z</time></trkpt><trkpt lat="45.5858791" lon="11.4006928"><ele>153.0</ele><time>2026-05-02T10:29:34.538Z</time></trkpt><trkpt lat="45.5858026" lon="11.4005501"><ele>153.0</ele><time>2026-05-02T10:29:35.538Z</time></trkpt><trkpt lat="45.5857472" lon="11.4003943"><ele>155.25</ele><time>2026-05-02T10:29:36.537Z</time></trkpt><trkpt lat="45.5856992" lon="11.4002404"><ele>157.5</ele><time>2026-05-02T10:29:37.538Z</time></trkpt><trkpt lat="45.5856327" lon="11.4000941"><ele>159.75</ele><time>2026-05-02T10:29:38.539Z</time></trkpt><trkpt lat="45.5855503" lon="11.399951"><ele>162.0</ele><time>2026-05-02T10:29:39.538Z</time></trkpt><trkpt lat="45.5854678" lon="11.3997935"><ele>160.66666666666666</ele><time>2026-05-02T10:29:40.538Z</time></trkpt><trkpt lat="45.585377" lon="11.3996299"><ele>159.33333333333331</ele><time>2026-05-02T10:29:41.538Z</time></trkpt><trkpt lat="45.585279" lon="11.3994638"><ele>158.0</ele><time>2026-05-02T10:29:42.539Z</time></trkpt><trkpt lat="45.5851819" lon="11.3992933"><ele>155.33333333333331</ele><time>2026-05-02T10:29:43.539Z</time></trkpt><trkpt lat="45.5850863" lon="11.3991164"><ele>152.66666666666666</ele><time>2026-05-02T10:29:44.537Z</time></trkpt><trkpt lat="45.5849894" lon="11.3989335"><ele>150.0</ele><time>2026-05-02T10:29:45.538Z</time></trkpt><trkpt lat="45.5848916" lon="11.3987479"><ele>149.66666666666666</ele><time>2026-05-02T10:29:46.539Z</time></trkpt><trkpt lat="45.584793" lon="11.3985586"><ele>149.33333333333331</ele><time>2026-05-02T10:29:47.538Z</time></trkpt><trkpt lat="45.5846932" lon="11.3983671"><ele>149.0</ele><time>2026-05-02T10:29:48.538Z</time></trkpt><trkpt lat="45.5845924" lon="11.3981796"><ele>147.0</ele><time>2026-05-02T10:29:49.538Z</time></trkpt><trkpt lat="45.5844922" lon="11.3979941"><ele>145.0</ele><time>2026-05-02T10:29:50.537Z</time></trkpt><trkpt lat="45.5843927" lon="11.3978102"><ele>143.0</ele><time>2026-05-02T10:29:51.537Z</time></trkpt><trkpt lat="45.5842955" lon="11.3976285"><ele>143.0</ele><time>2026-05-02T10:29:52.538Z</time></trkpt><trkpt lat="45.5841976" lon="11.3974484"><ele>143.0</ele><time>2026-05-02T10:29:53.537Z</time></trkpt><trkpt lat="45.5841001" lon="11.3972712"><ele>143.0</ele><time>2026-05-02T10:29:54.538Z</time></trkpt><trkpt lat="45.5840089" lon="11.3970999"><ele>142.75</ele><time>2026-05-02T10:29:55.537Z</time></trkpt><trkpt lat="45.5839229" lon="11.3969369"><ele>142.5</ele><time>2026-05-02T10:29:56.539Z</time></trkpt><trkpt lat="45.5838431" lon="11.3967843"><ele>142.25</ele><time>2026-05-02T10:29:57.538Z</time></trkpt><trkpt lat="45.5837644" lon="11.396642"><ele>142.0</ele><time>2026-05-02T10:29:58.538Z</time></trkpt><trkpt lat="45.5836948" lon="11.3965124"><ele>142.2</ele><time>2026-05-02T10:29:59.538Z</time></trkpt><trkpt lat="45.5836303" lon="11.3963963"><ele>142.39999999999998</ele><time>2026-05-02T10:30:00.539Z</time></trkpt><trkpt lat="45.5835788" lon="11.3962935"><ele>142.60000000000002</ele><time>2026-05-02T10:30:01.538Z</time></trkpt><trkpt lat="45.5835456" lon="11.3962044"><ele>142.8</ele><time>2026-05-02T10:30:02.537Z</time></trkpt><trkpt lat="45.5835767" lon="11.396085"><ele>143.0</ele><time>2026-05-02T10:30:04.538Z</time></trkpt><trkpt lat="45.5836964" lon="11.396041"><ele>142.6</ele><time>2026-05-02T10:30:06.538Z</time></trkpt><trkpt lat="45.5837805" lon="11.3960329"><ele>142.20000000000002</ele><time>2026-05-02T10:30:07.538Z</time></trkpt><trkpt lat="45.5838738" lon="11.3960237"><ele>141.8</ele><time>2026-05-02T10:30:08.538Z</time></trkpt><trkpt lat="45.5839804" lon="11.3960045"><ele>141.4</ele><time>2026-05-02T10:30:09.538Z</time></trkpt><trkpt lat="45.5840865" lon="11.3959873"><ele>141.0</ele><time>2026-05-02T10:30:10.538Z</time></trkpt><trkpt lat="45.5841855" lon="11.3959764"><ele>141.0</ele><time>2026-05-02T10:30:11.539Z</time></trkpt><trkpt lat="45.5842716" lon="11.395962"><ele>141.0</ele><time>2026-05-02T10:30:12.538Z</time></trkpt><trkpt lat="45.5843357" lon="11.3959308"><ele>141.0</ele><time>2026-05-02T10:30:13.537Z</time></trkpt><trkpt lat="45.5843959" lon="11.3957893"><ele>141.0</ele><time>2026-05-02T10:30:15.538Z</time></trkpt><trkpt lat="45.5843876" lon="11.3956932"><ele>141.0</ele><time>2026-05-02T10:30:16.539Z</time></trkpt><trkpt lat="45.584369" lon="11.3955911"><ele>141.0</ele><time>2026-05-02T10:30:17.539Z</time></trkpt><trkpt lat="45.584354" lon="11.3954999"><ele>141.0</ele><time>2026-05-02T10:30:18.538Z</time></trkpt><trkpt lat="45.5843234" lon="11.3953464"><ele>141.0</ele><time>2026-05-02T10:30:20.538Z</time></trkpt><trkpt lat="45.5843632" lon="11.3952176"><ele>141.0</ele><time>2026-05-02T10:30:22.538Z</time></trkpt><trkpt lat="45.5844882" lon="11.3951595"><ele>141.0</ele><time>2026-05-02T10:30:24.539Z</time></trkpt><trkpt lat="45.5845781" lon="11.3951305"><ele>141.0</ele><time>2026-05-02T10:30:25.538Z</time></trkpt><trkpt lat="45.5846776" lon="11.3950967"><ele>141.4</ele><time>2026-05-02T10:30:26.538Z</time></trkpt><trkpt lat="45.5847827" lon="11.3950657"><ele>141.8</ele><time>2026-05-02T10:30:27.537Z</time></trkpt><trkpt lat="45.5848926" lon="11.3950261"><ele>142.20000000000002</ele><time>2026-05-02T10:30:28.537Z</time></trkpt><trkpt lat="45.5849989" lon="11.3949816"><ele>142.6</ele><time>2026-05-02T10:30:29.537Z</time></trkpt><trkpt lat="45.5850926" lon="11.3949371"><ele>143.0</ele><time>2026-05-02T10:30:30.537Z</time></trkpt><trkpt lat="45.585173" lon="11.3949022"><ele>143.0</ele><time>2026-05-02T10:30:31.538Z</time></trkpt><trkpt lat="45.5852465" lon="11.3948864"><ele>143.0</ele><time>2026-05-02T10:30:32.539Z</time></trkpt><trkpt lat="45.5853119" lon="11.3948407"><ele>143.0</ele><time>2026-05-02T10:30:33.538Z</time></trkpt><trkpt lat="45.5853837" lon="11.3947684"><ele>143.0</ele><time>2026-05-02T10:30:35.538Z</time></trkpt><trkpt lat="45.5854373" lon="11.3947008"><ele>143.0</ele><time>2026-05-02T10:30:38.538Z</time></trkpt><trkpt lat="45.5854287" lon="11.394592"><ele>143.0</ele><time>2026-05-02T10:30:40.539Z</time></trkpt><trkpt lat="45.5853624" lon="11.3944292"><ele>143.33333333333331</ele><time>2026-05-02T10:30:42.537Z</time></trkpt><trkpt lat="45.5853219" lon="11.3943373"><ele>143.66666666666666</ele><time>2026-05-02T10:30:43.538Z</time></trkpt><trkpt lat="45.5852958" lon="11.3942325"><ele>144.0</ele><time>2026-05-02T10:30:44.538Z</time></trkpt><trkpt lat="45.5852983" lon="11.3941204"><ele>144.33333333333334</ele><time>2026-05-02T10:30:45.537Z</time></trkpt><trkpt lat="45.5853208" lon="11.3940074"><ele>144.66666666666669</ele><time>2026-05-02T10:30:46.537Z</time></trkpt><trkpt lat="45.5853484" lon="11.3938889"><ele>145.0</ele><time>2026-05-02T10:30:47.537Z</time></trkpt><trkpt lat="45.5853667" lon="11.3937657"><ele>145.0</ele><time>2026-05-02T10:30:48.538Z</time></trkpt><trkpt lat="45.5853827" lon="11.3936509"><ele>145.0</ele><time>2026-05-02T10:30:49.537Z</time></trkpt><trkpt lat="45.5853964" lon="11.393543"><ele>145.0</ele><time>2026-05-02T10:30:50.536Z</time></trkpt><trkpt lat="45.5854085" lon="11.3934506"><ele>145.0</ele><time>2026-05-02T10:30:51.536Z</time></trkpt><trkpt lat="45.5854285" lon="11.3933302"><ele>145.0</ele><time>2026-05-02T10:30:53.536Z</time></trkpt><trkpt lat="45.5854702" lon="11.3932576"><ele>145.0</ele><time>2026-05-02T10:30:55.538Z</time></trkpt><trkpt lat="45.5855628" lon="11.3931702"><ele>145.0</ele><time>2026-05-02T10:30:57.537Z</time></trkpt><trkpt lat="45.5856438" lon="11.393119"><ele>145.0</ele><time>2026-05-02T10:30:58.537Z</time></trkpt><trkpt lat="45.5857269" lon="11.3930586"><ele>145.0</ele><time>2026-05-02T10:30:59.537Z</time></trkpt><trkpt lat="45.5858232" lon="11.3930091"><ele>145.0</ele><time>2026-05-02T10:31:00.536Z</time></trkpt><trkpt lat="45.5859369" lon="11.3929883"><ele>145.0</ele><time>2026-05-02T10:31:01.537Z</time></trkpt><trkpt lat="45.5860492" lon="11.3929578"><ele>145.0</ele><time>2026-05-02T10:31:02.537Z</time></trkpt><trkpt lat="45.5861696" lon="11.3929334"><ele>145.0</ele><time>2026-05-02T10:31:03.537Z</time></trkpt><trkpt lat="45.586293" lon="11.3929272"><ele>145.0</ele><time>2026-05-02T10:31:04.538Z</time></trkpt><trkpt lat="45.586417" lon="11.3929152"><ele>145.0</ele><time>2026-05-02T10:31:05.537Z</time></trkpt><trkpt lat="45.5865382" lon="11.3928843"><ele>145.0</ele><time>2026-05-02T10:31:06.536Z</time></trkpt><trkpt lat="45.5866567" lon="11.3928377"><ele>145.0</ele><time>2026-05-02T10:31:07.537Z</time></trkpt><trkpt lat="45.5867729" lon="11.3927697"><ele>145.0</ele><time>2026-05-02T10:31:08.537Z</time></trkpt><trkpt lat="45.5868879" lon="11.3926893"><ele>145.0</ele><time>2026-05-02T10:31:09.538Z</time></trkpt><trkpt lat="45.5869986" lon="11.3926038"><ele>144.75</ele><time>2026-05-02T10:31:10.538Z</time></trkpt><trkpt lat="45.587109" lon="11.3925141"><ele>144.5</ele><time>2026-05-02T10:31:11.538Z</time></trkpt><trkpt lat="45.587214" lon="11.3924165"><ele>144.25</ele><time>2026-05-02T10:31:12.536Z</time></trkpt><trkpt lat="45.5873144" lon="11.3923172"><ele>144.0</ele><time>2026-05-02T10:31:13.537Z</time></trkpt><trkpt lat="45.5874043" lon="11.3922071"><ele>144.2</ele><time>2026-05-02T10:31:14.537Z</time></trkpt><trkpt lat="45.5874944" lon="11.3920931"><ele>144.4</ele><time>2026-05-02T10:31:15.538Z</time></trkpt><trkpt lat="45.5875833" lon="11.3919892"><ele>144.6</ele><time>2026-05-02T10:31:16.537Z</time></trkpt><trkpt lat="45.5876764" lon="11.3919019"><ele>144.8</ele><time>2026-05-02T10:31:17.537Z</time></trkpt><trkpt lat="45.5877705" lon="11.3918442"><ele>145.0</ele><time>2026-05-02T10:31:18.537Z</time></trkpt><trkpt lat="45.5878715" lon="11.3918116"><ele>145.2</ele><time>2026-05-02T10:31:19.538Z</time></trkpt><trkpt lat="45.5879746" lon="11.3917929"><ele>145.4</ele><time>2026-05-02T10:31:20.537Z</time></trkpt><trkpt lat="45.588073" lon="11.3917621"><ele>145.6</ele><time>2026-05-02T10:31:21.536Z</time></trkpt><trkpt lat="45.588164" lon="11.3917141"><ele>145.8</ele><time>2026-05-02T10:31:22.538Z</time></trkpt><trkpt lat="45.5882425" lon="11.3916324"><ele>146.0</ele><time>2026-05-02T10:31:23.537Z</time></trkpt><trkpt lat="45.5883229" lon="11.3915308"><ele>146.0</ele><time>2026-05-02T10:31:24.538Z</time></trkpt><trkpt lat="45.5883838" lon="11.3913956"><ele>146.0</ele><time>2026-05-02T10:31:25.536Z</time></trkpt><trkpt lat="45.5884403" lon="11.3912678"><ele>146.0</ele><time>2026-05-02T10:31:26.537Z</time></trkpt><trkpt lat="45.5884904" lon="11.391151"><ele>146.0</ele><time>2026-05-02T10:31:27.536Z</time></trkpt><trkpt lat="45.5885566" lon="11.3910517"><ele>146.0</ele><time>2026-05-02T10:31:28.538Z</time></trkpt><trkpt lat="45.5886428" lon="11.3909659"><ele>146.5</ele><time>2026-05-02T10:31:29.538Z</time></trkpt><trkpt lat="45.5887426" lon="11.3908705"><ele>147.0</ele><time>2026-05-02T10:31:30.538Z</time></trkpt><trkpt lat="45.5888544" lon="11.3907862"><ele>147.5</ele><time>2026-05-02T10:31:31.537Z</time></trkpt><trkpt lat="45.5889682" lon="11.3907065"><ele>148.0</ele><time>2026-05-02T10:31:32.537Z</time></trkpt><trkpt lat="45.5890803" lon="11.3906201"><ele>148.0</ele><time>2026-05-02T10:31:33.537Z</time></trkpt><trkpt lat="45.5891911" lon="11.390527"><ele>148.0</ele><time>2026-05-02T10:31:34.538Z</time></trkpt><trkpt lat="45.5892963" lon="11.3904291"><ele>148.0</ele><time>2026-05-02T10:31:35.538Z</time></trkpt><trkpt lat="45.5893938" lon="11.3903243"><ele>148.0</ele><time>2026-05-02T10:31:36.537Z</time></trkpt><trkpt lat="45.5894981" lon="11.3902397"><ele>150.5</ele><time>2026-05-02T10:31:37.537Z</time></trkpt><trkpt lat="45.5896081" lon="11.3901976"><ele>153.0</ele><time>2026-05-02T10:31:38.538Z</time></trkpt><trkpt lat="45.5897269" lon="11.3901456"><ele>155.5</ele><time>2026-05-02T10:31:39.537Z</time></trkpt><trkpt lat="45.5898442" lon="11.3900842"><ele>158.0</ele><time>2026-05-02T10:31:40.538Z</time></trkpt><trkpt lat="45.5899648" lon="11.3900085"><ele>158.0</ele><time>2026-05-02T10:31:41.538Z</time></trkpt><trkpt lat="45.5900862" lon="11.3899263"><ele>158.0</ele><time>2026-05-02T10:31:42.538Z</time></trkpt><trkpt lat="45.5902142" lon="11.3898389"><ele>158.0</ele><time>2026-05-02T10:31:43.538Z</time></trkpt><trkpt lat="45.59034" lon="11.3897549"><ele>158.0</ele><time>2026-05-02T10:31:44.538Z</time></trkpt><trkpt lat="45.5904565" lon="11.389675"><ele>156.25</ele><time>2026-05-02T10:31:45.537Z</time></trkpt><trkpt lat="45.5905732" lon="11.3895926"><ele>154.5</ele><time>2026-05-02T10:31:46.537Z</time></trkpt><trkpt lat="45.59069" lon="11.3895104"><ele>152.75</ele><time>2026-05-02T10:31:47.537Z</time></trkpt><trkpt lat="45.5908063" lon="11.3894266"><ele>151.0</ele><time>2026-05-02T10:31:48.537Z</time></trkpt><trkpt lat="45.5909244" lon="11.3893471"><ele>151.0</ele><time>2026-05-02T10:31:49.538Z</time></trkpt><trkpt lat="45.5910496" lon="11.3892707"><ele>151.0</ele><time>2026-05-02T10:31:50.537Z</time></trkpt><trkpt lat="45.5911822" lon="11.3892027"><ele>151.0</ele><time>2026-05-02T10:31:51.537Z</time></trkpt><trkpt lat="45.5913133" lon="11.3891251"><ele>151.0</ele><time>2026-05-02T10:31:52.537Z</time></trkpt><trkpt lat="45.5914375" lon="11.389049"><ele>150.75</ele><time>2026-05-02T10:31:53.538Z</time></trkpt><trkpt lat="45.5915537" lon="11.3889756"><ele>150.5</ele><time>2026-05-02T10:31:54.537Z</time></trkpt><trkpt lat="45.5916644" lon="11.3889056"><ele>150.25</ele><time>2026-05-02T10:31:55.536Z</time></trkpt><trkpt lat="45.5917787" lon="11.3888271"><ele>150.0</ele><time>2026-05-02T10:31:56.538Z</time></trkpt><trkpt lat="45.5918997" lon="11.3887401"><ele>153.0</ele><time>2026-05-02T10:31:57.538Z</time></trkpt><trkpt lat="45.5920262" lon="11.3886432"><ele>156.0</ele><time>2026-05-02T10:31:58.537Z</time></trkpt><trkpt lat="45.5921568" lon="11.3885285"><ele>159.0</ele><time>2026-05-02T10:31:59.536Z</time></trkpt><trkpt lat="45.592294" lon="11.3884112"><ele>159.0</ele><time>2026-05-02T10:32:00.538Z</time></trkpt><trkpt lat="45.5924334" lon="11.3882946"><ele>159.0</ele><time>2026-05-02T10:32:01.537Z</time></trkpt><trkpt lat="45.5925751" lon="11.3881817"><ele>159.0</ele><time>2026-05-02T10:32:02.537Z</time></trkpt><trkpt lat="45.5927158" lon="11.3880717"><ele>158.33333333333334</ele><time>2026-05-02T10:32:03.537Z</time></trkpt><trkpt lat="45.5928536" lon="11.3879625"><ele>157.66666666666669</ele><time>2026-05-02T10:32:04.537Z</time></trkpt><trkpt lat="45.5929936" lon="11.3878382"><ele>157.0</ele><time>2026-05-02T10:32:05.538Z</time></trkpt><trkpt lat="45.5931339" lon="11.387706"><ele>157.0</ele><time>2026-05-02T10:32:06.536Z</time></trkpt><trkpt lat="45.5932772" lon="11.387573"><ele>157.0</ele><time>2026-05-02T10:32:07.538Z</time></trkpt><trkpt lat="45.5934226" lon="11.3874443"><ele>157.0</ele><time>2026-05-02T10:32:08.536Z</time></trkpt><trkpt lat="45.5935591" lon="11.3873213"><ele>157.66666666666669</ele><time>2026-05-02T10:32:09.537Z</time></trkpt><trkpt lat="45.5936944" lon="11.3872016"><ele>158.33333333333334</ele><time>2026-05-02T10:32:10.538Z</time></trkpt><trkpt lat="45.5938235" lon="11.3870832"><ele>159.0</ele><time>2026-05-02T10:32:11.537Z</time></trkpt><trkpt lat="45.5939457" lon="11.386972"><ele>159.0</ele><time>2026-05-02T10:32:12.538Z</time></trkpt><trkpt lat="45.5940619" lon="11.3868678"><ele>159.0</ele><time>2026-05-02T10:32:13.537Z</time></trkpt><trkpt lat="45.5941673" lon="11.3867746"><ele>159.0</ele><time>2026-05-02T10:32:14.537Z</time></trkpt><trkpt lat="45.5942634" lon="11.3866867"><ele>159.0</ele><time>2026-05-02T10:32:15.537Z</time></trkpt><trkpt lat="45.594357" lon="11.3866062"><ele>159.0</ele><time>2026-05-02T10:32:16.537Z</time></trkpt><trkpt lat="45.5944566" lon="11.386525"><ele>159.0</ele><time>2026-05-02T10:32:17.538Z</time></trkpt><trkpt lat="45.5945525" lon="11.386453"><ele>159.0</ele><time>2026-05-02T10:32:18.538Z</time></trkpt><trkpt lat="45.5946426" lon="11.3863806"><ele>159.0</ele><time>2026-05-02T10:32:19.537Z</time></trkpt><trkpt lat="45.5947197" lon="11.3862901"><ele>159.0</ele><time>2026-05-02T10:32:20.537Z</time></trkpt><trkpt lat="45.5947819" lon="11.3861793"><ele>157.4</ele><time>2026-05-02T10:32:21.537Z</time></trkpt><trkpt lat="45.594839" lon="11.3860674"><ele>155.8</ele><time>2026-05-02T10:32:22.537Z</time></trkpt><trkpt lat="45.5949025" lon="11.385966"><ele>154.2</ele><time>2026-05-02T10:32:23.538Z</time></trkpt><trkpt lat="45.5949761" lon="11.3858929"><ele>152.6</ele><time>2026-05-02T10:32:24.537Z</time></trkpt><trkpt lat="45.5950568" lon="11.3858425"><ele>151.0</ele><time>2026-05-02T10:32:25.537Z</time></trkpt><trkpt lat="45.5951423" lon="11.385815"><ele>151.0</ele><time>2026-05-02T10:32:26.537Z</time></trkpt><trkpt lat="45.5952289" lon="11.3858056"><ele>151.0</ele><time>2026-05-02T10:32:27.537Z</time></trkpt><trkpt lat="45.5953115" lon="11.3858153"><ele>151.0</ele><time>2026-05-02T10:32:28.537Z</time></trkpt><trkpt lat="45.5953788" lon="11.3858271"><ele>151.0</ele><time>2026-05-02T10:32:29.538Z</time></trkpt><trkpt lat="45.5954646" lon="11.3858375"><ele>151.0</ele><time>2026-05-02T10:32:31.537Z</time></trkpt><trkpt lat="45.5955362" lon="11.3858147"><ele>151.0</ele><time>2026-05-02T10:32:33.537Z</time></trkpt><trkpt lat="45.5956075" lon="11.3857539"><ele>151.16666666666669</ele><time>2026-05-02T10:32:35.537Z</time></trkpt><trkpt lat="45.5956612" lon="11.385659"><ele>151.33333333333334</ele><time>2026-05-02T10:32:37.536Z</time></trkpt><trkpt lat="45.5957039" lon="11.3855591"><ele>151.5</ele><time>2026-05-02T10:32:39.537Z</time></trkpt><trkpt lat="45.5957429" lon="11.3854742"><ele>151.66666666666666</ele><time>2026-05-02T10:32:41.538Z</time></trkpt><trkpt lat="45.5957759" lon="11.3853963"><ele>151.83333333333331</ele><time>2026-05-02T10:32:45.536Z</time></trkpt><trkpt lat="45.5957972" lon="11.3853092"><ele>152.0</ele><time>2026-05-02T10:32:49.538Z</time></trkpt><trkpt lat="45.5958168" lon="11.3851879"><ele>151.66666666666666</ele><time>2026-05-02T10:32:52.537Z</time></trkpt><trkpt lat="45.5958282" lon="11.3850987"><ele>151.33333333333331</ele><time>2026-05-02T10:32:54.537Z</time></trkpt><trkpt lat="45.5958408" lon="11.38499"><ele>151.0</ele><time>2026-05-02T10:32:56.537Z</time></trkpt><trkpt lat="45.5958612" lon="11.3848614"><ele>150.66666666666666</ele><time>2026-05-02T10:32:58.536Z</time></trkpt><trkpt lat="45.595877" lon="11.3847303"><ele>150.33333333333334</ele><time>2026-05-02T10:33:00.537Z</time></trkpt><trkpt lat="45.5958951" lon="11.3845984"><ele>150.0</ele><time>2026-05-02T10:33:02.537Z</time></trkpt><trkpt lat="45.5959151" lon="11.3844493"><ele>150.0</ele><time>2026-05-02T10:33:04.537Z</time></trkpt><trkpt lat="45.5959387" lon="11.3843006"><ele>150.0</ele><time>2026-05-02T10:33:06.537Z</time></trkpt><trkpt lat="45.595973" lon="11.3841687"><ele>150.0</ele><time>2026-05-02T10:33:08.537Z</time></trkpt><trkpt lat="45.5960107" lon="11.3840804"><ele>150.0</ele><time>2026-05-02T10:33:12.537Z</time></trkpt><trkpt lat="45.5960539" lon="11.3839915"><ele>150.0</ele><time>2026-05-02T10:33:15.538Z</time></trkpt><trkpt lat="45.596145" lon="11.383903"><ele>150.2</ele><time>2026-05-02T10:33:17.537Z</time></trkpt><trkpt lat="45.5962141" lon="11.383868"><ele>150.4</ele><time>2026-05-02T10:33:18.538Z</time></trkpt><trkpt lat="45.596302" lon="11.3838519"><ele>150.6</ele><time>2026-05-02T10:33:19.538Z</time></trkpt><trkpt lat="45.5964178" lon="11.3838437"><ele>150.8</ele><time>2026-05-02T10:33:20.537Z</time></trkpt><trkpt lat="45.5965771" lon="11.3838529"><ele>151.0</ele><time>2026-05-02T10:33:21.537Z</time></trkpt><trkpt lat="45.5967738" lon="11.3838653"><ele>151.0</ele><time>2026-05-02T10:33:22.537Z</time></trkpt><trkpt lat="45.5969677" lon="11.3838638"><ele>151.0</ele><time>2026-05-02T10:33:23.537Z</time></trkpt><trkpt lat="45.5971469" lon="11.383868"><ele>151.0</ele><time>2026-05-02T10:33:24.538Z</time></trkpt><trkpt lat="45.5973172" lon="11.3838702"><ele>151.33333333333334</ele><time>2026-05-02T10:33:25.537Z</time></trkpt><trkpt lat="45.5974754" lon="11.3838716"><ele>151.66666666666666</ele><time>2026-05-02T10:33:26.537Z</time></trkpt><trkpt lat="45.597625" lon="11.383868"><ele>152.0</ele><time>2026-05-02T10:33:27.537Z</time></trkpt><trkpt lat="45.5977776" lon="11.3838305"><ele>152.33333333333331</ele><time>2026-05-02T10:33:28.536Z</time></trkpt><trkpt lat="45.5979264" lon="11.3837438"><ele>152.66666666666666</ele><time>2026-05-02T10:33:29.538Z</time></trkpt><trkpt lat="45.5980691" lon="11.3836125"><ele>153.0</ele><time>2026-05-02T10:33:30.537Z</time></trkpt><trkpt lat="45.5981952" lon="11.3834501"><ele>153.0</ele><time>2026-05-02T10:33:31.538Z</time></trkpt><trkpt lat="45.5982995" lon="11.3832581"><ele>153.0</ele><time>2026-05-02T10:33:32.537Z</time></trkpt><trkpt lat="45.5983873" lon="11.3830463"><ele>153.0</ele><time>2026-05-02T10:33:33.537Z</time></trkpt><trkpt lat="45.5984636" lon="11.3828252"><ele>153.0</ele><time>2026-05-02T10:33:34.537Z</time></trkpt><trkpt lat="45.5985342" lon="11.3826065"><ele>153.0</ele><time>2026-05-02T10:33:35.537Z</time></trkpt><trkpt lat="45.5986006" lon="11.3824055"><ele>153.0</ele><time>2026-05-02T10:33:36.536Z</time></trkpt><trkpt lat="45.5986411" lon="11.3822033"><ele>153.5</ele><time>2026-05-02T10:33:37.538Z</time></trkpt><trkpt lat="45.5986524" lon="11.3820002"><ele>154.0</ele><time>2026-05-02T10:33:38.537Z</time></trkpt><trkpt lat="45.5986483" lon="11.3818006"><ele>154.5</ele><time>2026-05-02T10:33:39.537Z</time></trkpt><trkpt lat="45.5986352" lon="11.3816061"><ele>155.0</ele><time>2026-05-02T10:33:40.537Z</time></trkpt><trkpt lat="45.5986203" lon="11.3814202"><ele>155.4</ele><time>2026-05-02T10:33:41.538Z</time></trkpt><trkpt lat="45.5986122" lon="11.3812573"><ele>155.8</ele><time>2026-05-02T10:33:42.536Z</time></trkpt><trkpt lat="45.5986166" lon="11.3811137"><ele>156.2</ele><time>2026-05-02T10:33:43.537Z</time></trkpt><trkpt lat="45.5986389" lon="11.3809949"><ele>156.6</ele><time>2026-05-02T10:33:44.537Z</time></trkpt><trkpt lat="45.5986732" lon="11.3809051"><ele>157.0</ele><time>2026-05-02T10:33:45.537Z</time></trkpt><trkpt lat="45.5987564" lon="11.380809"><ele>157.0</ele><time>2026-05-02T10:33:47.537Z</time></trkpt><trkpt lat="45.5988302" lon="11.3807945"><ele>157.0</ele><time>2026-05-02T10:33:51.537Z</time></trkpt><trkpt lat="45.5989034" lon="11.3808306"><ele>157.0</ele><time>2026-05-02T10:33:56.538Z</time></trkpt><trkpt lat="45.5989654" lon="11.3808952"><ele>157.0</ele><time>2026-05-02T10:33:57.537Z</time></trkpt><trkpt lat="45.5990386" lon="11.3809804"><ele>157.0</ele><time>2026-05-02T10:33:58.537Z</time></trkpt><trkpt lat="45.5991317" lon="11.3810777"><ele>157.0</ele><time>2026-05-02T10:33:59.537Z</time></trkpt><trkpt lat="45.59924" lon="11.3811835"><ele>157.0</ele><time>2026-05-02T10:34:00.537Z</time></trkpt><trkpt lat="45.5993712" lon="11.3812984"><ele>157.0</ele><time>2026-05-02T10:34:01.538Z</time></trkpt><trkpt lat="45.5995305" lon="11.3814116"><ele>157.0</ele><time>2026-05-02T10:34:02.536Z</time></trkpt><trkpt lat="45.5997133" lon="11.3815435"><ele>155.5</ele><time>2026-05-02T10:34:03.538Z</time></trkpt><trkpt lat="45.5999217" lon="11.3816939"><ele>154.0</ele><time>2026-05-02T10:34:04.538Z</time></trkpt><trkpt lat="45.6001487" lon="11.3818189"><ele>153.5</ele><time>2026-05-02T10:34:05.538Z</time></trkpt><trkpt lat="45.6003921" lon="11.381918"><ele>153.0</ele><time>2026-05-02T10:34:06.538Z</time></trkpt><trkpt lat="45.6006437" lon="11.3819934"><ele>153.0</ele><time>2026-05-02T10:34:07.537Z</time></trkpt><trkpt lat="45.6009053" lon="11.3820415"><ele>153.0</ele><time>2026-05-02T10:34:08.536Z</time></trkpt><trkpt lat="45.6011784" lon="11.3820675"><ele>152.0</ele><time>2026-05-02T10:34:09.537Z</time></trkpt><trkpt lat="45.601457" lon="11.382077"><ele>151.0</ele><time>2026-05-02T10:34:10.536Z</time></trkpt><trkpt lat="45.6017373" lon="11.3820804"><ele>151.0</ele><time>2026-05-02T10:34:11.537Z</time></trkpt><trkpt lat="45.6020173" lon="11.3820837"><ele>151.0</ele><time>2026-05-02T10:34:12.537Z</time></trkpt><trkpt lat="45.6022969" lon="11.382088"><ele>151.0</ele><time>2026-05-02T10:34:13.537Z</time></trkpt><trkpt lat="45.6025773" lon="11.3820926"><ele>151.0</ele><time>2026-05-02T10:34:14.538Z</time></trkpt><trkpt lat="45.6028565" lon="11.3820946"><ele>150.0</ele><time>2026-05-02T10:34:15.537Z</time></trkpt><trkpt lat="45.6031353" lon="11.3820862"><ele>149.0</ele><time>2026-05-02T10:34:16.538Z</time></trkpt><trkpt lat="45.6034144" lon="11.3820635"><ele>149.5</ele><time>2026-05-02T10:34:17.538Z</time></trkpt><trkpt lat="45.6036911" lon="11.3820165"><ele>150.0</ele><time>2026-05-02T10:34:18.537Z</time></trkpt><trkpt lat="45.6039648" lon="11.3819475"><ele>150.0</ele><time>2026-05-02T10:34:19.538Z</time></trkpt><trkpt lat="45.604233" lon="11.3818614"><ele>150.0</ele><time>2026-05-02T10:34:20.538Z</time></trkpt><trkpt lat="45.6044957" lon="11.3817456"><ele>152.0</ele><time>2026-05-02T10:34:21.538Z</time></trkpt><trkpt lat="45.6047532" lon="11.3816119"><ele>154.0</ele><time>2026-05-02T10:34:22.538Z</time></trkpt><trkpt lat="45.6050037" lon="11.3814628"><ele>153.5</ele><time>2026-05-02T10:34:23.537Z</time></trkpt><trkpt lat="45.6052465" lon="11.3812931"><ele>153.0</ele><time>2026-05-02T10:34:24.537Z</time></trkpt><trkpt lat="45.6054843" lon="11.3811055"><ele>154.0</ele><time>2026-05-02T10:34:25.537Z</time></trkpt><trkpt lat="45.6057203" lon="11.3809115"><ele>155.0</ele><time>2026-05-02T10:34:26.537Z</time></trkpt><trkpt lat="45.6059586" lon="11.3807214"><ele>156.0</ele><time>2026-05-02T10:34:27.538Z</time></trkpt><trkpt lat="45.6061975" lon="11.3805306"><ele>157.0</ele><time>2026-05-02T10:34:28.537Z</time></trkpt><trkpt lat="45.606437" lon="11.3803363"><ele>158.5</ele><time>2026-05-02T10:34:29.537Z</time></trkpt><trkpt lat="45.6066768" lon="11.3801459"><ele>160.0</ele><time>2026-05-02T10:34:30.537Z</time></trkpt><trkpt lat="45.6069142" lon="11.3799596"><ele>160.0</ele><time>2026-05-02T10:34:31.536Z</time></trkpt><trkpt lat="45.60715" lon="11.3797736"><ele>160.0</ele><time>2026-05-02T10:34:32.537Z</time></trkpt><trkpt lat="45.6073932" lon="11.3796075"><ele>160.5</ele><time>2026-05-02T10:34:33.537Z</time></trkpt><trkpt lat="45.6076447" lon="11.3794781"><ele>161.0</ele><time>2026-05-02T10:34:34.537Z</time></trkpt><trkpt lat="45.6079034" lon="11.3793868"><ele>161.0</ele><time>2026-05-02T10:34:35.538Z</time></trkpt><trkpt lat="45.6081659" lon="11.3793309"><ele>161.0</ele><time>2026-05-02T10:34:36.538Z</time></trkpt><trkpt lat="45.6084313" lon="11.3793016"><ele>162.0</ele><time>2026-05-02T10:34:37.537Z</time></trkpt><trkpt lat="45.6086981" lon="11.3792994"><ele>163.0</ele><time>2026-05-02T10:34:38.537Z</time></trkpt><trkpt lat="45.608962" lon="11.3793118"><ele>163.0</ele><time>2026-05-02T10:34:39.538Z</time></trkpt><trkpt lat="45.609229" lon="11.3793321"><ele>163.0</ele><time>2026-05-02T10:34:40.537Z</time></trkpt><trkpt lat="45.6094953" lon="11.3793558"><ele>164.5</ele><time>2026-05-02T10:34:41.536Z</time></trkpt><trkpt lat="45.6097612" lon="11.3793791"><ele>166.0</ele><time>2026-05-02T10:34:42.537Z</time></trkpt><trkpt lat="45.6100297" lon="11.3794245"><ele>166.0</ele><time>2026-05-02T10:34:43.537Z</time></trkpt><trkpt lat="45.6102948" lon="11.3795133"><ele>166.0</ele><time>2026-05-02T10:34:44.537Z</time></trkpt><trkpt lat="45.6105523" lon="11.3796065"><ele>164.5</ele><time>2026-05-02T10:34:45.537Z</time></trkpt><trkpt lat="45.6107944" lon="11.3796936"><ele>163.0</ele><time>2026-05-02T10:34:46.537Z</time></trkpt><trkpt lat="45.6110231" lon="11.3797797"><ele>166.5</ele><time>2026-05-02T10:34:47.537Z</time></trkpt><trkpt lat="45.6112448" lon="11.3798571"><ele>170.0</ele><time>2026-05-02T10:34:48.537Z</time></trkpt><trkpt lat="45.611466" lon="11.3799303"><ele>170.0</ele><time>2026-05-02T10:34:49.537Z</time></trkpt><trkpt lat="45.6116851" lon="11.3799993"><ele>170.0</ele><time>2026-05-02T10:34:50.537Z</time></trkpt><trkpt lat="45.6118956" lon="11.3800633"><ele>170.0</ele><time>2026-05-02T10:34:51.537Z</time></trkpt><trkpt lat="45.6120954" lon="11.3801211"><ele>171.66666666666666</ele><time>2026-05-02T10:34:52.538Z</time></trkpt><trkpt lat="45.6122947" lon="11.3801715"><ele>173.33333333333334</ele><time>2026-05-02T10:34:53.538Z</time></trkpt><trkpt lat="45.6124911" lon="11.3802143"><ele>175.0</ele><time>2026-05-02T10:34:54.537Z</time></trkpt><trkpt lat="45.6126832" lon="11.3802484"><ele>174.66666666666669</ele><time>2026-05-02T10:34:55.537Z</time></trkpt><trkpt lat="45.6128665" lon="11.3802816"><ele>174.33333333333334</ele><time>2026-05-02T10:34:56.537Z</time></trkpt><trkpt lat="45.6130241" lon="11.3803162"><ele>174.0</ele><time>2026-05-02T10:34:57.537Z</time></trkpt><trkpt lat="45.6131596" lon="11.3803493"><ele>174.0</ele><time>2026-05-02T10:34:58.538Z</time></trkpt><trkpt lat="45.613274" lon="11.3803734"><ele>174.0</ele><time>2026-05-02T10:34:59.538Z</time></trkpt><trkpt lat="45.6133719" lon="11.3803862"><ele>174.0</ele><time>2026-05-02T10:35:00.538Z</time></trkpt><trkpt lat="45.6134419" lon="11.3803757"><ele>174.0</ele><time>2026-05-02T10:35:01.537Z</time></trkpt><trkpt lat="45.6134947" lon="11.3803252"><ele>174.0</ele><time>2026-05-02T10:35:02.538Z</time></trkpt><trkpt lat="45.6135305" lon="11.3802349"><ele>174.0</ele><time>2026-05-02T10:35:03.536Z</time></trkpt><trkpt lat="45.6135594" lon="11.3801118"><ele>174.0</ele><time>2026-05-02T10:35:04.536Z</time></trkpt><trkpt lat="45.6135983" lon="11.3799691"><ele>174.0</ele><time>2026-05-02T10:35:05.538Z</time></trkpt><trkpt lat="45.6136404" lon="11.3798149"><ele>174.0</ele><time>2026-05-02T10:35:06.536Z</time></trkpt><trkpt lat="45.6136849" lon="11.3796561"><ele>174.0</ele><time>2026-05-02T10:35:07.537Z</time></trkpt><trkpt lat="45.6137358" lon="11.3794956"><ele>176.25</ele><time>2026-05-02T10:35:08.536Z</time></trkpt><trkpt lat="45.6137921" lon="11.3793447"><ele>178.5</ele><time>2026-05-02T10:35:09.538Z</time></trkpt><trkpt lat="45.6138588" lon="11.3791998"><ele>180.75</ele><time>2026-05-02T10:35:10.538Z</time></trkpt><trkpt lat="45.6139442" lon="11.3790691"><ele>183.0</ele><time>2026-05-02T10:35:11.538Z</time></trkpt><trkpt lat="45.6140478" lon="11.3789591"><ele>183.0</ele><time>2026-05-02T10:35:12.537Z</time></trkpt><trkpt lat="45.6141638" lon="11.3788639"><ele>183.0</ele><time>2026-05-02T10:35:13.538Z</time></trkpt><trkpt lat="45.6142872" lon="11.3787808"><ele>183.0</ele><time>2026-05-02T10:35:14.537Z</time></trkpt><trkpt lat="45.6144111" lon="11.3787029"><ele>183.0</ele><time>2026-05-02T10:35:15.537Z</time></trkpt><trkpt lat="45.6145301" lon="11.378625"><ele>188.0</ele><time>2026-05-02T10:35:16.537Z</time></trkpt><trkpt lat="45.6146445" lon="11.3785476"><ele>193.0</ele><time>2026-05-02T10:35:17.537Z</time></trkpt><trkpt lat="45.6147557" lon="11.378474"><ele>198.0</ele><time>2026-05-02T10:35:18.538Z</time></trkpt><trkpt lat="45.6148615" lon="11.3784004"><ele>203.0</ele><time>2026-05-02T10:35:19.538Z</time></trkpt><trkpt lat="45.6149648" lon="11.3783306"><ele>203.00000000000003</ele><time>2026-05-02T10:35:20.537Z</time></trkpt><trkpt lat="45.6150622" lon="11.3782884"><ele>203.0</ele><time>2026-05-02T10:35:21.536Z</time></trkpt><trkpt lat="45.6151492" lon="11.3782767"><ele>203.0</ele><time>2026-05-02T10:35:22.537Z</time></trkpt><trkpt lat="45.6152172" lon="11.3782882"><ele>203.0</ele><time>2026-05-02T10:35:23.538Z</time></trkpt><trkpt lat="45.61532" lon="11.3782926"><ele>203.00000000000003</ele><time>2026-05-02T10:35:25.538Z</time></trkpt><trkpt lat="45.6153861" lon="11.3782686"><ele>203.0</ele><time>2026-05-02T10:35:27.537Z</time></trkpt><trkpt lat="45.6154459" lon="11.3782173"><ele>216.0</ele><time>2026-05-02T10:35:31.536Z</time></trkpt></trkseg></trk></gpx>